<?xml version='1.0' encoding='UTF-8'?><gpx version="1.1" creator="JPX - https://github.com/jenetics/jpx" xmlns="http://www.topografix.com/GPX/1/1"><trk><trkseg><trkpt lat="46.11988" lon="13.524215"><ele>155.0</ele><time>2026-05-03T07:34:17.255Z</time></trkpt><trkpt lat="46.1199633" lon="13.52413"><ele>155.0</ele><time>2026-05-03T07:34:20.255Z</time></trkpt><trkpt lat="46.1201133" lon="13.5241733"><ele>155.0</ele><time>2026-05-03T07:34:39.254Z</time></trkpt><trkpt lat="46.120175" lon="13.524245"><ele>155.0</ele><time>2026-05-03T07:34:42.255Z</time></trkpt><trkpt lat="46.12019" lon="13.524375"><ele>155.0</ele><time>2026-05-03T07:37:54.254Z</time></trkpt><trkpt lat="46.1201783" lon="13.524515"><ele>155.0</ele><time>2026-05-03T07:37:55.254Z</time></trkpt><trkpt lat="46.1201733" lon="13.5246983"><ele>155.0</ele><time>2026-05-03T07:37:56.254Z</time></trkpt><trkpt lat="46.1201817" lon="13.5248917"><ele>155.0</ele><time>2026-05-03T07:37:57.254Z</time></trkpt><trkpt lat="46.1201917" lon="13.5250733"><ele>155.0</ele><time>2026-05-03T07:37:58.254Z</time></trkpt><trkpt lat="46.1202067" lon="13.525275"><ele>155.5</ele><time>2026-05-03T07:37:59.254Z</time></trkpt><trkpt lat="46.1202283" lon="13.5254733"><ele>156.0</ele><time>2026-05-03T07:38:00.254Z</time></trkpt><trkpt lat="46.1202517" lon="13.52567"><ele>156.5</ele><time>2026-05-03T07:38:01.254Z</time></trkpt><trkpt lat="46.1202883" lon="13.5258417"><ele>157.0</ele><time>2026-05-03T07:38:02.254Z</time></trkpt><trkpt lat="46.12035" lon="13.5259983"><ele>157.0</ele><time>2026-05-03T07:38:03.254Z</time></trkpt><trkpt lat="46.1204333" lon="13.5261383"><ele>157.0</ele><time>2026-05-03T07:38:04.254Z</time></trkpt><trkpt lat="46.1205033" lon="13.52627"><ele>157.0</ele><time>2026-05-03T07:38:05.254Z</time></trkpt><trkpt lat="46.1205317" lon="13.52641"><ele>157.0</ele><time>2026-05-03T07:38:06.254Z</time></trkpt><trkpt lat="46.12053" lon="13.5265667"><ele>158.0</ele><time>2026-05-03T07:38:07.254Z</time></trkpt><trkpt lat="46.1204983" lon="13.5267283"><ele>159.0</ele><time>2026-05-03T07:38:08.254Z</time></trkpt><trkpt lat="46.120455" lon="13.5269"><ele>160.0</ele><time>2026-05-03T07:38:09.254Z</time></trkpt><trkpt lat="46.1204133" lon="13.5270733"><ele>161.0</ele><time>2026-05-03T07:38:10.254Z</time></trkpt><trkpt lat="46.120375" lon="13.5272567"><ele>161.0</ele><time>2026-05-03T07:38:11.254Z</time></trkpt><trkpt lat="46.1203433" lon="13.527435"><ele>161.0</ele><time>2026-05-03T07:38:12.254Z</time></trkpt><trkpt lat="46.120325" lon="13.5276083"><ele>161.0</ele><time>2026-05-03T07:38:13.254Z</time></trkpt><trkpt lat="46.1203183" lon="13.5277883"><ele>161.0</ele><time>2026-05-03T07:38:14.254Z</time></trkpt><trkpt lat="46.120315" lon="13.5279633"><ele>161.25</ele><time>2026-05-03T07:38:15.254Z</time></trkpt><trkpt lat="46.1203233" lon="13.5281367"><ele>161.5</ele><time>2026-05-03T07:38:16.254Z</time></trkpt><trkpt lat="46.1203367" lon="13.5283117"><ele>161.75</ele><time>2026-05-03T07:38:17.254Z</time></trkpt><trkpt lat="46.1203533" lon="13.52848"><ele>162.0</ele><time>2026-05-03T07:38:18.254Z</time></trkpt><trkpt lat="46.1203767" lon="13.528635"><ele>161.66666666666666</ele><time>2026-05-03T07:38:19.254Z</time></trkpt><trkpt lat="46.12039" lon="13.5287883"><ele>161.33333333333334</ele><time>2026-05-03T07:38:20.254Z</time></trkpt><trkpt lat="46.1203767" lon="13.5289133"><ele>161.0</ele><time>2026-05-03T07:38:21.254Z</time></trkpt><trkpt lat="46.120345" lon="13.5290083"><ele>160.66666666666669</ele><time>2026-05-03T07:38:22.254Z</time></trkpt><trkpt lat="46.1202867" lon="13.5290833"><ele>160.33333333333334</ele><time>2026-05-03T07:38:23.254Z</time></trkpt><trkpt lat="46.120225" lon="13.5291583"><ele>160.0</ele><time>2026-05-03T07:38:24.254Z</time></trkpt><trkpt lat="46.120135" lon="13.529265"><ele>160.0</ele><time>2026-05-03T07:38:26.254Z</time></trkpt><trkpt lat="46.120095" lon="13.52938"><ele>160.0</ele><time>2026-05-03T07:38:28.254Z</time></trkpt><trkpt lat="46.1200767" lon="13.529475"><ele>160.0</ele><time>2026-05-03T07:38:29.254Z</time></trkpt><trkpt lat="46.1200533" lon="13.5295967"><ele>160.0</ele><time>2026-05-03T07:38:30.254Z</time></trkpt><trkpt lat="46.1200133" lon="13.52973"><ele>160.0</ele><time>2026-05-03T07:38:31.254Z</time></trkpt><trkpt lat="46.1199617" lon="13.5298617"><ele>161.4</ele><time>2026-05-03T07:38:32.254Z</time></trkpt><trkpt lat="46.1198933" lon="13.5299633"><ele>162.8</ele><time>2026-05-03T07:38:33.254Z</time></trkpt><trkpt lat="46.11981" lon="13.5300383"><ele>164.2</ele><time>2026-05-03T07:38:34.254Z</time></trkpt><trkpt lat="46.119715" lon="13.5300983"><ele>165.6</ele><time>2026-05-03T07:38:35.254Z</time></trkpt><trkpt lat="46.1196167" lon="13.530125"><ele>167.0</ele><time>2026-05-03T07:38:36.255Z</time></trkpt><trkpt lat="46.1195317" lon="13.5301267"><ele>167.0</ele><time>2026-05-03T07:38:37.254Z</time></trkpt><trkpt lat="46.1194483" lon="13.5301267"><ele>167.0</ele><time>2026-05-03T07:38:38.254Z</time></trkpt><trkpt lat="46.1193633" lon="13.5301333"><ele>167.0</ele><time>2026-05-03T07:38:39.254Z</time></trkpt><trkpt lat="46.1192833" lon="13.5301517"><ele>167.0</ele><time>2026-05-03T07:38:40.254Z</time></trkpt><trkpt lat="46.1192083" lon="13.5301767"><ele>167.0</ele><time>2026-05-03T07:38:41.254Z</time></trkpt><trkpt lat="46.1191417" lon="13.530205"><ele>167.0</ele><time>2026-05-03T07:38:42.254Z</time></trkpt><trkpt lat="46.1190267" lon="13.5302417"><ele>167.2</ele><time>2026-05-03T07:38:44.254Z</time></trkpt><trkpt lat="46.1189267" lon="13.5301983"><ele>167.39999999999998</ele><time>2026-05-03T07:38:46.254Z</time></trkpt><trkpt lat="46.1189183" lon="13.5300617"><ele>167.60000000000002</ele><time>2026-05-03T07:38:48.254Z</time></trkpt><trkpt lat="46.11892" lon="13.5299533"><ele>167.8</ele><time>2026-05-03T07:38:49.254Z</time></trkpt><trkpt lat="46.11893" lon="13.5298117"><ele>168.0</ele><time>2026-05-03T07:38:50.254Z</time></trkpt><trkpt lat="46.11894" lon="13.529655"><ele>167.4</ele><time>2026-05-03T07:38:51.254Z</time></trkpt><trkpt lat="46.11894" lon="13.5295033"><ele>166.8</ele><time>2026-05-03T07:38:52.254Z</time></trkpt><trkpt lat="46.118945" lon="13.52936"><ele>166.2</ele><time>2026-05-03T07:38:53.254Z</time></trkpt><trkpt lat="46.1189617" lon="13.5292283"><ele>165.6</ele><time>2026-05-03T07:38:54.255Z</time></trkpt><trkpt lat="46.11899" lon="13.5290817"><ele>165.0</ele><time>2026-05-03T07:38:55.255Z</time></trkpt><trkpt lat="46.119005" lon="13.5289267"><ele>165.0</ele><time>2026-05-03T07:38:56.254Z</time></trkpt><trkpt lat="46.1190083" lon="13.5287617"><ele>165.0</ele><time>2026-05-03T07:38:57.254Z</time></trkpt><trkpt lat="46.11899" lon="13.5285817"><ele>165.0</ele><time>2026-05-03T07:38:58.254Z</time></trkpt><trkpt lat="46.1189633" lon="13.5283933"><ele>165.0</ele><time>2026-05-03T07:38:59.254Z</time></trkpt><trkpt lat="46.11894" lon="13.52821"><ele>164.25</ele><time>2026-05-03T07:39:00.254Z</time></trkpt><trkpt lat="46.1189217" lon="13.5280233"><ele>163.5</ele><time>2026-05-03T07:39:01.254Z</time></trkpt><trkpt lat="46.11889" lon="13.52785"><ele>162.75</ele><time>2026-05-03T07:39:02.254Z</time></trkpt><trkpt lat="46.1188567" lon="13.527675"><ele>162.0</ele><time>2026-05-03T07:39:03.254Z</time></trkpt><trkpt lat="46.1188083" lon="13.527515"><ele>161.25</ele><time>2026-05-03T07:39:04.254Z</time></trkpt><trkpt lat="46.1187517" lon="13.5273667"><ele>160.5</ele><time>2026-05-03T07:39:05.254Z</time></trkpt><trkpt lat="46.118675" lon="13.5272283"><ele>159.75</ele><time>2026-05-03T07:39:06.254Z</time></trkpt><trkpt lat="46.11859" lon="13.5270817"><ele>159.0</ele><time>2026-05-03T07:39:07.254Z</time></trkpt><trkpt lat="46.118495" lon="13.526935"><ele>158.75</ele><time>2026-05-03T07:39:08.254Z</time></trkpt><trkpt lat="46.1184067" lon="13.5267833"><ele>158.5</ele><time>2026-05-03T07:39:09.254Z</time></trkpt><trkpt lat="46.1183267" lon="13.5266183"><ele>158.25</ele><time>2026-05-03T07:39:10.254Z</time></trkpt><trkpt lat="46.1182467" lon="13.5264567"><ele>158.0</ele><time>2026-05-03T07:39:11.254Z</time></trkpt><trkpt lat="46.1181567" lon="13.5263017"><ele>160.75</ele><time>2026-05-03T07:39:12.254Z</time></trkpt><trkpt lat="46.1180683" lon="13.5261367"><ele>163.5</ele><time>2026-05-03T07:39:13.254Z</time></trkpt><trkpt lat="46.117975" lon="13.52598"><ele>166.25</ele><time>2026-05-03T07:39:14.254Z</time></trkpt><trkpt lat="46.1178967" lon="13.5258133"><ele>169.0</ele><time>2026-05-03T07:39:15.254Z</time></trkpt><trkpt lat="46.11783" lon="13.5256517"><ele>169.0</ele><time>2026-05-03T07:39:16.254Z</time></trkpt><trkpt lat="46.1177683" lon="13.52548"><ele>169.0</ele><time>2026-05-03T07:39:17.254Z</time></trkpt><trkpt lat="46.117705" lon="13.5252933"><ele>169.0</ele><time>2026-05-03T07:39:18.254Z</time></trkpt><trkpt lat="46.1176517" lon="13.52512"><ele>169.0</ele><time>2026-05-03T07:39:19.254Z</time></trkpt><trkpt lat="46.1175883" lon="13.524945"><ele>167.0</ele><time>2026-05-03T07:39:20.254Z</time></trkpt><trkpt lat="46.11752" lon="13.524755"><ele>165.0</ele><time>2026-05-03T07:39:21.254Z</time></trkpt><trkpt lat="46.1174633" lon="13.5245717"><ele>163.0</ele><time>2026-05-03T07:39:22.254Z</time></trkpt><trkpt lat="46.1173933" lon="13.5243967"><ele>161.0</ele><time>2026-05-03T07:39:23.254Z</time></trkpt><trkpt lat="46.117315" lon="13.5242183"><ele>158.66666666666666</ele><time>2026-05-03T07:39:24.254Z</time></trkpt><trkpt lat="46.1172183" lon="13.5240583"><ele>156.33333333333334</ele><time>2026-05-03T07:39:25.255Z</time></trkpt><trkpt lat="46.117105" lon="13.5239067"><ele>154.0</ele><time>2026-05-03T07:39:26.254Z</time></trkpt><trkpt lat="46.1169933" lon="13.523745"><ele>153.33333333333334</ele><time>2026-05-03T07:39:27.254Z</time></trkpt><trkpt lat="46.1168917" lon="13.523575"><ele>152.66666666666666</ele><time>2026-05-03T07:39:28.254Z</time></trkpt><trkpt lat="46.1168067" lon="13.5233933"><ele>152.0</ele><time>2026-05-03T07:39:29.254Z</time></trkpt><trkpt lat="46.1167283" lon="13.52321"><ele>152.0</ele><time>2026-05-03T07:39:30.254Z</time></trkpt><trkpt lat="46.1166467" lon="13.52303"><ele>152.0</ele><time>2026-05-03T07:39:31.254Z</time></trkpt><trkpt lat="46.1165683" lon="13.5228533"><ele>152.0</ele><time>2026-05-03T07:39:32.254Z</time></trkpt><trkpt lat="46.11651" lon="13.5226667"><ele>152.0</ele><time>2026-05-03T07:39:33.254Z</time></trkpt><trkpt lat="46.116465" lon="13.52248"><ele>152.0</ele><time>2026-05-03T07:39:34.254Z</time></trkpt><trkpt lat="46.1164283" lon="13.5223333"><ele>152.0</ele><time>2026-05-03T07:39:35.254Z</time></trkpt><trkpt lat="46.1164217" lon="13.5222167"><ele>152.0</ele><time>2026-05-03T07:39:36.254Z</time></trkpt><trkpt lat="46.1164333" lon="13.52211"><ele>152.0</ele><time>2026-05-03T07:39:37.254Z</time></trkpt><trkpt lat="46.1164633" lon="13.522025"><ele>152.0</ele><time>2026-05-03T07:39:38.254Z</time></trkpt><trkpt lat="46.11656" lon="13.5219267"><ele>152.0</ele><time>2026-05-03T07:39:40.254Z</time></trkpt><trkpt lat="46.1166667" lon="13.521855"><ele>152.0</ele><time>2026-05-03T07:39:42.254Z</time></trkpt><trkpt lat="46.1167867" lon="13.521805"><ele>152.0</ele><time>2026-05-03T07:39:44.254Z</time></trkpt><trkpt lat="46.1168767" lon="13.5217833"><ele>152.0</ele><time>2026-05-03T07:39:46.254Z</time></trkpt><trkpt lat="46.1169917" lon="13.5217683"><ele>152.0</ele><time>2026-05-03T07:39:49.254Z</time></trkpt><trkpt lat="46.1170767" lon="13.521785"><ele>152.0</ele><time>2026-05-03T07:39:50.254Z</time></trkpt><trkpt lat="46.1171817" lon="13.5218133"><ele>152.0</ele><time>2026-05-03T07:39:51.254Z</time></trkpt><trkpt lat="46.1172917" lon="13.5218383"><ele>152.0</ele><time>2026-05-03T07:39:52.254Z</time></trkpt><trkpt lat="46.1173967" lon="13.5218467"><ele>152.0</ele><time>2026-05-03T07:39:53.254Z</time></trkpt><trkpt lat="46.1174917" lon="13.521855"><ele>152.0</ele><time>2026-05-03T07:39:54.254Z</time></trkpt><trkpt lat="46.1175767" lon="13.52185"><ele>152.0</ele><time>2026-05-03T07:39:55.254Z</time></trkpt><trkpt lat="46.11765" lon="13.5218467"><ele>152.16666666666666</ele><time>2026-05-03T07:39:56.254Z</time></trkpt><trkpt lat="46.117715" lon="13.5218367"><ele>152.33333333333331</ele><time>2026-05-03T07:39:57.254Z</time></trkpt><trkpt lat="46.1178283" lon="13.5218217"><ele>152.5</ele><time>2026-05-03T07:39:59.254Z</time></trkpt><trkpt lat="46.117925" lon="13.521825"><ele>152.66666666666666</ele><time>2026-05-03T07:40:01.254Z</time></trkpt><trkpt lat="46.1180133" lon="13.52183"><ele>152.83333333333334</ele><time>2026-05-03T07:40:03.254Z</time></trkpt><trkpt lat="46.1180783" lon="13.521835"><ele>153.0</ele><time>2026-05-03T07:40:05.254Z</time></trkpt><trkpt lat="46.1178683" lon="13.52181"><ele>153.0</ele><time>2026-05-03T07:40:26.254Z</time></trkpt><trkpt lat="46.11777" lon="13.5218133"><ele>153.0</ele><time>2026-05-03T07:40:27.254Z</time></trkpt><trkpt lat="46.1176583" lon="13.5218217"><ele>153.0</ele><time>2026-05-03T07:40:28.254Z</time></trkpt><trkpt lat="46.11754" lon="13.5218417"><ele>153.0</ele><time>2026-05-03T07:40:29.254Z</time></trkpt><trkpt lat="46.11742" lon="13.5218517"><ele>153.0</ele><time>2026-05-03T07:40:30.255Z</time></trkpt><trkpt lat="46.11731" lon="13.52184"><ele>152.83333333333334</ele><time>2026-05-03T07:40:31.254Z</time></trkpt><trkpt lat="46.1172067" lon="13.5218217"><ele>152.66666666666666</ele><time>2026-05-03T07:40:32.254Z</time></trkpt><trkpt lat="46.117115" lon="13.5217967"><ele>152.5</ele><time>2026-05-03T07:40:33.254Z</time></trkpt><trkpt lat="46.1170383" lon="13.5217783"><ele>152.33333333333331</ele><time>2026-05-03T07:40:34.254Z</time></trkpt><trkpt lat="46.1169767" lon="13.5217517"><ele>152.16666666666666</ele><time>2026-05-03T07:40:35.254Z</time></trkpt><trkpt lat="46.1169233" lon="13.52168"><ele>152.0</ele><time>2026-05-03T07:40:37.254Z</time></trkpt><trkpt lat="46.1169083" lon="13.5215633"><ele>152.0</ele><time>2026-05-03T07:40:40.254Z</time></trkpt><trkpt lat="46.1169233" lon="13.5214717"><ele>152.0</ele><time>2026-05-03T07:40:42.254Z</time></trkpt><trkpt lat="46.116955" lon="13.5213633"><ele>152.0</ele><time>2026-05-03T07:40:44.254Z</time></trkpt><trkpt lat="46.1170083" lon="13.5212717"><ele>152.0</ele><time>2026-05-03T07:40:47.254Z</time></trkpt><trkpt lat="46.1170483" lon="13.5211983"><ele>152.0</ele><time>2026-05-03T07:40:50.254Z</time></trkpt><trkpt lat="46.1171183" lon="13.5210867"><ele>152.0</ele><time>2026-05-03T07:40:53.254Z</time></trkpt><trkpt lat="46.1171617" lon="13.5210167"><ele>152.16666666666666</ele><time>2026-05-03T07:40:54.254Z</time></trkpt><trkpt lat="46.1172067" lon="13.5209383"><ele>152.33333333333331</ele><time>2026-05-03T07:40:55.254Z</time></trkpt><trkpt lat="46.117255" lon="13.5208733"><ele>152.5</ele><time>2026-05-03T07:40:56.254Z</time></trkpt><trkpt lat="46.1173667" lon="13.52079"><ele>152.66666666666666</ele><time>2026-05-03T07:40:58.254Z</time></trkpt><trkpt lat="46.1174283" lon="13.52077"><ele>152.83333333333334</ele><time>2026-05-03T07:40:59.254Z</time></trkpt><trkpt lat="46.1174917" lon="13.520765"><ele>153.0</ele><time>2026-05-03T07:41:00.254Z</time></trkpt><trkpt lat="46.1175967" lon="13.520735"><ele>153.0</ele><time>2026-05-03T07:41:02.254Z</time></trkpt><trkpt lat="46.11765" lon="13.52066"><ele>153.0</ele><time>2026-05-03T07:41:04.254Z</time></trkpt><trkpt lat="46.1176267" lon="13.5205533"><ele>153.0</ele><time>2026-05-03T07:41:06.254Z</time></trkpt><trkpt lat="46.1175433" lon="13.5204183"><ele>153.0</ele><time>2026-05-03T07:41:08.254Z</time></trkpt><trkpt lat="46.1175033" lon="13.5203383"><ele>153.0</ele><time>2026-05-03T07:41:09.254Z</time></trkpt><trkpt lat="46.1174733" lon="13.5202583"><ele>153.0</ele><time>2026-05-03T07:41:10.254Z</time></trkpt><trkpt lat="46.11745" lon="13.5201683"><ele>152.85714285714286</ele><time>2026-05-03T07:41:11.254Z</time></trkpt><trkpt lat="46.117425" lon="13.52007"><ele>152.71428571428572</ele><time>2026-05-03T07:41:12.254Z</time></trkpt><trkpt lat="46.1173967" lon="13.5199767"><ele>152.57142857142856</ele><time>2026-05-03T07:41:13.255Z</time></trkpt><trkpt lat="46.1173633" lon="13.51988"><ele>152.42857142857144</ele><time>2026-05-03T07:41:14.254Z</time></trkpt><trkpt lat="46.1173217" lon="13.5197833"><ele>152.2857142857143</ele><time>2026-05-03T07:41:15.254Z</time></trkpt><trkpt lat="46.1172817" lon="13.5196967"><ele>152.14285714285714</ele><time>2026-05-03T07:41:16.254Z</time></trkpt><trkpt lat="46.1172333" lon="13.5196083"><ele>152.0</ele><time>2026-05-03T07:41:17.254Z</time></trkpt><trkpt lat="46.1171667" lon="13.5195233"><ele>152.4</ele><time>2026-05-03T07:41:18.254Z</time></trkpt><trkpt lat="46.11709" lon="13.5194433"><ele>152.79999999999998</ele><time>2026-05-03T07:41:19.254Z</time></trkpt><trkpt lat="46.1170083" lon="13.519375"><ele>153.2</ele><time>2026-05-03T07:41:20.254Z</time></trkpt><trkpt lat="46.1169367" lon="13.5193"><ele>153.6</ele><time>2026-05-03T07:41:21.254Z</time></trkpt><trkpt lat="46.116865" lon="13.51924"><ele>154.0</ele><time>2026-05-03T07:41:22.254Z</time></trkpt><trkpt lat="46.116785" lon="13.5191733"><ele>154.0</ele><time>2026-05-03T07:41:23.254Z</time></trkpt><trkpt lat="46.1167067" lon="13.5190983"><ele>154.0</ele><time>2026-05-03T07:41:24.254Z</time></trkpt><trkpt lat="46.11663" lon="13.5190333"><ele>154.0</ele><time>2026-05-03T07:41:25.254Z</time></trkpt><trkpt lat="46.1165567" lon="13.5189667"><ele>154.0</ele><time>2026-05-03T07:41:26.254Z</time></trkpt><trkpt lat="46.1164817" lon="13.5188933"><ele>154.0</ele><time>2026-05-03T07:41:27.254Z</time></trkpt><trkpt lat="46.1164033" lon="13.51882"><ele>153.5</ele><time>2026-05-03T07:41:28.254Z</time></trkpt><trkpt lat="46.1163367" lon="13.518735"><ele>153.0</ele><time>2026-05-03T07:41:29.254Z</time></trkpt><trkpt lat="46.1162733" lon="13.5186517"><ele>152.5</ele><time>2026-05-03T07:41:30.254Z</time></trkpt><trkpt lat="46.116205" lon="13.518575"><ele>152.0</ele><time>2026-05-03T07:41:31.254Z</time></trkpt><trkpt lat="46.1161333" lon="13.5185083"><ele>151.5</ele><time>2026-05-03T07:41:32.254Z</time></trkpt><trkpt lat="46.1160633" lon="13.5184633"><ele>151.0</ele><time>2026-05-03T07:41:33.254Z</time></trkpt><trkpt lat="46.1159983" lon="13.51842"><ele>151.0</ele><time>2026-05-03T07:41:34.254Z</time></trkpt><trkpt lat="46.1159117" lon="13.51836"><ele>151.0</ele><time>2026-05-03T07:41:36.254Z</time></trkpt><trkpt lat="46.1157433" lon="13.51825"><ele>151.0</ele><time>2026-05-03T07:42:10.254Z</time></trkpt><trkpt lat="46.1156283" lon="13.5181583"><ele>151.0</ele><time>2026-05-03T07:42:12.254Z</time></trkpt><trkpt lat="46.1155683" lon="13.518095"><ele>151.0</ele><time>2026-05-03T07:42:13.254Z</time></trkpt><trkpt lat="46.1155067" lon="13.5180183"><ele>151.0</ele><time>2026-05-03T07:42:14.253Z</time></trkpt><trkpt lat="46.115445" lon="13.517935"><ele>151.0</ele><time>2026-05-03T07:42:15.253Z</time></trkpt><trkpt lat="46.1153867" lon="13.5178283"><ele>151.0</ele><time>2026-05-03T07:42:16.253Z</time></trkpt><trkpt lat="46.1153167" lon="13.51771"><ele>151.0</ele><time>2026-05-03T07:42:17.253Z</time></trkpt><trkpt lat="46.1152517" lon="13.517575"><ele>151.2</ele><time>2026-05-03T07:42:18.254Z</time></trkpt><trkpt lat="46.1151883" lon="13.5174567"><ele>151.39999999999998</ele><time>2026-05-03T07:42:19.253Z</time></trkpt><trkpt lat="46.115125" lon="13.5173517"><ele>151.6</ele><time>2026-05-03T07:42:20.253Z</time></trkpt><trkpt lat="46.1150633" lon="13.51725"><ele>151.79999999999998</ele><time>2026-05-03T07:42:21.253Z</time></trkpt><trkpt lat="46.1150067" lon="13.517155"><ele>152.0</ele><time>2026-05-03T07:42:22.253Z</time></trkpt><trkpt lat="46.1149483" lon="13.517035"><ele>156.0</ele><time>2026-05-03T07:42:23.253Z</time></trkpt><trkpt lat="46.1148833" lon="13.5169067"><ele>160.0</ele><time>2026-05-03T07:42:24.253Z</time></trkpt><trkpt lat="46.114825" lon="13.5167867"><ele>164.0</ele><time>2026-05-03T07:42:25.253Z</time></trkpt><trkpt lat="46.114765" lon="13.5166817"><ele>168.0</ele><time>2026-05-03T07:42:26.253Z</time></trkpt><trkpt lat="46.1147167" lon="13.5165767"><ele>172.0</ele><time>2026-05-03T07:42:27.253Z</time></trkpt><trkpt lat="46.114675" lon="13.5164733"><ele>172.0</ele><time>2026-05-03T07:42:28.253Z</time></trkpt><trkpt lat="46.1146467" lon="13.5163767"><ele>172.0</ele><time>2026-05-03T07:42:29.253Z</time></trkpt><trkpt lat="46.1146183" lon="13.5162533"><ele>172.0</ele><time>2026-05-03T07:42:30.253Z</time></trkpt><trkpt lat="46.1145717" lon="13.51613"><ele>172.0</ele><time>2026-05-03T07:42:31.253Z</time></trkpt><trkpt lat="46.11453" lon="13.5160117"><ele>172.0</ele><time>2026-05-03T07:42:32.253Z</time></trkpt><trkpt lat="46.1145033" lon="13.5159083"><ele>172.0</ele><time>2026-05-03T07:42:33.253Z</time></trkpt><trkpt lat="46.1144833" lon="13.5158017"><ele>172.0</ele><time>2026-05-03T07:42:34.253Z</time></trkpt><trkpt lat="46.11447" lon="13.5156883"><ele>172.0</ele><time>2026-05-03T07:42:35.253Z</time></trkpt><trkpt lat="46.11447" lon="13.5155583"><ele>172.0</ele><time>2026-05-03T07:42:36.253Z</time></trkpt><trkpt lat="46.114465" lon="13.51541"><ele>172.0</ele><time>2026-05-03T07:42:37.253Z</time></trkpt><trkpt lat="46.1144633" lon="13.5152583"><ele>172.0</ele><time>2026-05-03T07:42:38.253Z</time></trkpt><trkpt lat="46.114455" lon="13.5151083"><ele>171.39999999999998</ele><time>2026-05-03T07:42:39.254Z</time></trkpt><trkpt lat="46.1144483" lon="13.5149683"><ele>170.79999999999998</ele><time>2026-05-03T07:42:40.253Z</time></trkpt><trkpt lat="46.114435" lon="13.5148333"><ele>170.2</ele><time>2026-05-03T07:42:41.253Z</time></trkpt><trkpt lat="46.114425" lon="13.5147"><ele>169.6</ele><time>2026-05-03T07:42:42.253Z</time></trkpt><trkpt lat="46.1144117" lon="13.51456"><ele>169.0</ele><time>2026-05-03T07:42:43.253Z</time></trkpt><trkpt lat="46.114395" lon="13.514415"><ele>168.2</ele><time>2026-05-03T07:42:44.253Z</time></trkpt><trkpt lat="46.114375" lon="13.5142767"><ele>167.39999999999998</ele><time>2026-05-03T07:42:45.253Z</time></trkpt><trkpt lat="46.1143583" lon="13.5141433"><ele>166.6</ele><time>2026-05-03T07:42:46.253Z</time></trkpt><trkpt lat="46.1143417" lon="13.5140217"><ele>165.8</ele><time>2026-05-03T07:42:47.253Z</time></trkpt><trkpt lat="46.1143233" lon="13.513905"><ele>165.0</ele><time>2026-05-03T07:42:48.253Z</time></trkpt><trkpt lat="46.114295" lon="13.5137833"><ele>164.4</ele><time>2026-05-03T07:42:49.253Z</time></trkpt><trkpt lat="46.1142567" lon="13.5136633"><ele>163.8</ele><time>2026-05-03T07:42:50.253Z</time></trkpt><trkpt lat="46.114215" lon="13.513535"><ele>163.2</ele><time>2026-05-03T07:42:51.253Z</time></trkpt><trkpt lat="46.1141783" lon="13.5134"><ele>162.6</ele><time>2026-05-03T07:42:52.253Z</time></trkpt><trkpt lat="46.1141517" lon="13.5132533"><ele>162.0</ele><time>2026-05-03T07:42:53.253Z</time></trkpt><trkpt lat="46.114135" lon="13.5131083"><ele>162.0</ele><time>2026-05-03T07:42:54.253Z</time></trkpt><trkpt lat="46.11412" lon="13.512965"><ele>162.0</ele><time>2026-05-03T07:42:55.253Z</time></trkpt><trkpt lat="46.1141067" lon="13.512825"><ele>162.0</ele><time>2026-05-03T07:42:56.253Z</time></trkpt><trkpt lat="46.1140917" lon="13.5126933"><ele>162.0</ele><time>2026-05-03T07:42:57.253Z</time></trkpt><trkpt lat="46.114065" lon="13.5125567"><ele>162.0</ele><time>2026-05-03T07:42:58.253Z</time></trkpt><trkpt lat="46.1140267" lon="13.5124"><ele>162.2</ele><time>2026-05-03T07:42:59.253Z</time></trkpt><trkpt lat="46.113985" lon="13.51225"><ele>162.39999999999998</ele><time>2026-05-03T07:43:00.253Z</time></trkpt><trkpt lat="46.1139483" lon="13.5121133"><ele>162.60000000000002</ele><time>2026-05-03T07:43:01.253Z</time></trkpt><trkpt lat="46.1139217" lon="13.512005"><ele>162.8</ele><time>2026-05-03T07:43:02.253Z</time></trkpt><trkpt lat="46.1138867" lon="13.5118967"><ele>163.0</ele><time>2026-05-03T07:43:03.253Z</time></trkpt><trkpt lat="46.11386" lon="13.5117767"><ele>163.0</ele><time>2026-05-03T07:43:04.253Z</time></trkpt><trkpt lat="46.1138483" lon="13.5116517"><ele>163.0</ele><time>2026-05-03T07:43:05.253Z</time></trkpt><trkpt lat="46.1138533" lon="13.5115183"><ele>163.0</ele><time>2026-05-03T07:43:06.253Z</time></trkpt><trkpt lat="46.1138517" lon="13.511385"><ele>163.0</ele><time>2026-05-03T07:43:07.253Z</time></trkpt><trkpt lat="46.1138583" lon="13.5112633"><ele>163.0</ele><time>2026-05-03T07:43:08.253Z</time></trkpt><trkpt lat="46.1138633" lon="13.5111617"><ele>163.0</ele><time>2026-05-03T07:43:09.253Z</time></trkpt><trkpt lat="46.1138733" lon="13.511005"><ele>163.0</ele><time>2026-05-03T07:43:11.253Z</time></trkpt><trkpt lat="46.1138767" lon="13.5108983"><ele>163.0</ele><time>2026-05-03T07:43:12.253Z</time></trkpt><trkpt lat="46.11387" lon="13.51077"><ele>163.0</ele><time>2026-05-03T07:43:13.253Z</time></trkpt><trkpt lat="46.11386" lon="13.5106433"><ele>163.0</ele><time>2026-05-03T07:43:14.253Z</time></trkpt><trkpt lat="46.1138467" lon="13.510505"><ele>163.0</ele><time>2026-05-03T07:43:15.253Z</time></trkpt><trkpt lat="46.1138317" lon="13.5103717"><ele>163.0</ele><time>2026-05-03T07:43:16.253Z</time></trkpt><trkpt lat="46.11382" lon="13.5102483"><ele>163.0</ele><time>2026-05-03T07:43:17.254Z</time></trkpt><trkpt lat="46.113815" lon="13.5101317"><ele>163.0</ele><time>2026-05-03T07:43:18.253Z</time></trkpt><trkpt lat="46.1138083" lon="13.5100067"><ele>163.0</ele><time>2026-05-03T07:43:19.253Z</time></trkpt><trkpt lat="46.1138" lon="13.5098867"><ele>163.0</ele><time>2026-05-03T07:43:20.253Z</time></trkpt><trkpt lat="46.1137883" lon="13.5097683"><ele>163.0</ele><time>2026-05-03T07:43:21.253Z</time></trkpt><trkpt lat="46.1137783" lon="13.509675"><ele>163.0</ele><time>2026-05-03T07:43:22.253Z</time></trkpt><trkpt lat="46.1137667" lon="13.5095317"><ele>162.16666666666669</ele><time>2026-05-03T07:43:24.253Z</time></trkpt><trkpt lat="46.11377" lon="13.5094267"><ele>161.33333333333334</ele><time>2026-05-03T07:43:26.253Z</time></trkpt><trkpt lat="46.11383" lon="13.5093267"><ele>160.5</ele><time>2026-05-03T07:43:28.253Z</time></trkpt><trkpt lat="46.1139217" lon="13.509225"><ele>159.66666666666666</ele><time>2026-05-03T07:43:30.253Z</time></trkpt><trkpt lat="46.1139617" lon="13.5091483"><ele>158.83333333333331</ele><time>2026-05-03T07:43:32.253Z</time></trkpt><trkpt lat="46.113925" lon="13.50901"><ele>158.0</ele><time>2026-05-03T07:43:35.253Z</time></trkpt><trkpt lat="46.1138667" lon="13.5089083"><ele>158.0</ele><time>2026-05-03T07:43:36.253Z</time></trkpt><trkpt lat="46.1137933" lon="13.5087967"><ele>158.0</ele><time>2026-05-03T07:43:37.253Z</time></trkpt><trkpt lat="46.1137067" lon="13.5086683"><ele>158.0</ele><time>2026-05-03T07:43:38.253Z</time></trkpt><trkpt lat="46.1136267" lon="13.508535"><ele>158.0</ele><time>2026-05-03T07:43:39.253Z</time></trkpt><trkpt lat="46.1135417" lon="13.50841"><ele>157.4</ele><time>2026-05-03T07:43:40.253Z</time></trkpt><trkpt lat="46.11347" lon="13.5082867"><ele>156.8</ele><time>2026-05-03T07:43:41.253Z</time></trkpt><trkpt lat="46.1134" lon="13.5081617"><ele>156.2</ele><time>2026-05-03T07:43:42.253Z</time></trkpt><trkpt lat="46.11336" lon="13.5080117"><ele>155.6</ele><time>2026-05-03T07:43:43.253Z</time></trkpt><trkpt lat="46.1133317" lon="13.50786"><ele>155.0</ele><time>2026-05-03T07:43:44.253Z</time></trkpt><trkpt lat="46.1133133" lon="13.507715"><ele>155.0</ele><time>2026-05-03T07:43:45.253Z</time></trkpt><trkpt lat="46.113285" lon="13.5075867"><ele>155.0</ele><time>2026-05-03T07:43:46.253Z</time></trkpt><trkpt lat="46.1132433" lon="13.5074867"><ele>155.0</ele><time>2026-05-03T07:43:47.253Z</time></trkpt><trkpt lat="46.1131667" lon="13.5073333"><ele>155.0</ele><time>2026-05-03T07:43:49.253Z</time></trkpt><trkpt lat="46.1131067" lon="13.5072"><ele>155.0</ele><time>2026-05-03T07:43:51.253Z</time></trkpt><trkpt lat="46.1130517" lon="13.5070533"><ele>159.0</ele><time>2026-05-03T07:43:53.253Z</time></trkpt><trkpt lat="46.11299" lon="13.5069133"><ele>163.0</ele><time>2026-05-03T07:43:55.253Z</time></trkpt><trkpt lat="46.1129133" lon="13.5068167"><ele>167.0</ele><time>2026-05-03T07:43:57.253Z</time></trkpt><trkpt lat="46.1128067" lon="13.50672"><ele>171.0</ele><time>2026-05-03T07:43:59.253Z</time></trkpt><trkpt lat="46.1127533" lon="13.5066583"><ele>175.0</ele><time>2026-05-03T07:44:00.253Z</time></trkpt><trkpt lat="46.1127033" lon="13.50658"><ele>175.0</ele><time>2026-05-03T07:44:01.253Z</time></trkpt><trkpt lat="46.1126483" lon="13.5064817"><ele>175.0</ele><time>2026-05-03T07:44:02.253Z</time></trkpt><trkpt lat="46.1125867" lon="13.50637"><ele>175.0</ele><time>2026-05-03T07:44:03.253Z</time></trkpt><trkpt lat="46.1125283" lon="13.5062583"><ele>175.0</ele><time>2026-05-03T07:44:04.253Z</time></trkpt><trkpt lat="46.11247" lon="13.50617"><ele>175.0</ele><time>2026-05-03T07:44:05.253Z</time></trkpt><trkpt lat="46.1124033" lon="13.5060767"><ele>172.6</ele><time>2026-05-03T07:44:06.253Z</time></trkpt><trkpt lat="46.1123283" lon="13.50597"><ele>170.2</ele><time>2026-05-03T07:44:07.253Z</time></trkpt><trkpt lat="46.1122567" lon="13.505865"><ele>167.8</ele><time>2026-05-03T07:44:08.253Z</time></trkpt><trkpt lat="46.1121767" lon="13.5057517"><ele>165.4</ele><time>2026-05-03T07:44:09.253Z</time></trkpt><trkpt lat="46.1120933" lon="13.5056333"><ele>163.0</ele><time>2026-05-03T07:44:10.253Z</time></trkpt><trkpt lat="46.1120167" lon="13.5055217"><ele>160.4</ele><time>2026-05-03T07:44:11.253Z</time></trkpt><trkpt lat="46.111945" lon="13.505405"><ele>157.8</ele><time>2026-05-03T07:44:12.253Z</time></trkpt><trkpt lat="46.1119017" lon="13.5052783"><ele>155.2</ele><time>2026-05-03T07:44:13.253Z</time></trkpt><trkpt lat="46.1118733" lon="13.5051517"><ele>152.6</ele><time>2026-05-03T07:44:14.253Z</time></trkpt><trkpt lat="46.1118617" lon="13.5050133"><ele>150.0</ele><time>2026-05-03T07:44:15.253Z</time></trkpt><trkpt lat="46.1118817" lon="13.5048683"><ele>150.0</ele><time>2026-05-03T07:44:16.253Z</time></trkpt><trkpt lat="46.1119217" lon="13.504715"><ele>150.0</ele><time>2026-05-03T07:44:17.253Z</time></trkpt><trkpt lat="46.1119717" lon="13.5045467"><ele>150.0</ele><time>2026-05-03T07:44:18.253Z</time></trkpt><trkpt lat="46.11202" lon="13.5043633"><ele>150.0</ele><time>2026-05-03T07:44:19.253Z</time></trkpt><trkpt lat="46.1120733" lon="13.5041767"><ele>150.0</ele><time>2026-05-03T07:44:20.253Z</time></trkpt><trkpt lat="46.11213" lon="13.5039967"><ele>150.0</ele><time>2026-05-03T07:44:21.253Z</time></trkpt><trkpt lat="46.11218" lon="13.5038183"><ele>150.0</ele><time>2026-05-03T07:44:22.253Z</time></trkpt><trkpt lat="46.1122133" lon="13.5036517"><ele>150.0</ele><time>2026-05-03T07:44:23.253Z</time></trkpt><trkpt lat="46.1122283" lon="13.5034933"><ele>150.0</ele><time>2026-05-03T07:44:24.253Z</time></trkpt><trkpt lat="46.1122367" lon="13.5033667"><ele>150.0</ele><time>2026-05-03T07:44:25.253Z</time></trkpt><trkpt lat="46.1122467" lon="13.503265"><ele>150.0</ele><time>2026-05-03T07:44:26.253Z</time></trkpt><trkpt lat="46.1123183" lon="13.5031267"><ele>150.0</ele><time>2026-05-03T07:44:28.253Z</time></trkpt><trkpt lat="46.1124267" lon="13.50309"><ele>150.0</ele><time>2026-05-03T07:44:30.254Z</time></trkpt><trkpt lat="46.1125017" lon="13.5030783"><ele>150.0</ele><time>2026-05-03T07:44:31.253Z</time></trkpt><trkpt lat="46.1125783" lon="13.5030683"><ele>150.0</ele><time>2026-05-03T07:44:32.253Z</time></trkpt><trkpt lat="46.1126583" lon="13.5030383"><ele>150.0</ele><time>2026-05-03T07:44:33.253Z</time></trkpt><trkpt lat="46.1127333" lon="13.5029917"><ele>150.0</ele><time>2026-05-03T07:44:34.253Z</time></trkpt><trkpt lat="46.11281" lon="13.502935"><ele>150.0</ele><time>2026-05-03T07:44:35.253Z</time></trkpt><trkpt lat="46.1128833" lon="13.5028767"><ele>150.0</ele><time>2026-05-03T07:44:36.253Z</time></trkpt><trkpt lat="46.1129567" lon="13.5028"><ele>149.8</ele><time>2026-05-03T07:44:37.253Z</time></trkpt><trkpt lat="46.113035" lon="13.5027"><ele>149.6</ele><time>2026-05-03T07:44:38.253Z</time></trkpt><trkpt lat="46.113105" lon="13.5025933"><ele>149.4</ele><time>2026-05-03T07:44:39.253Z</time></trkpt><trkpt lat="46.1131767" lon="13.5024717"><ele>149.2</ele><time>2026-05-03T07:44:40.253Z</time></trkpt><trkpt lat="46.1132433" lon="13.5023467"><ele>149.0</ele><time>2026-05-03T07:44:41.253Z</time></trkpt><trkpt lat="46.1132967" lon="13.50221"><ele>150.6</ele><time>2026-05-03T07:44:42.253Z</time></trkpt><trkpt lat="46.1133383" lon="13.50207"><ele>152.2</ele><time>2026-05-03T07:44:43.253Z</time></trkpt><trkpt lat="46.1133917" lon="13.5019233"><ele>153.79999999999998</ele><time>2026-05-03T07:44:44.253Z</time></trkpt><trkpt lat="46.113435" lon="13.501785"><ele>155.4</ele><time>2026-05-03T07:44:45.253Z</time></trkpt><trkpt lat="46.1134817" lon="13.501645"><ele>157.0</ele><time>2026-05-03T07:44:46.253Z</time></trkpt><trkpt lat="46.1135367" lon="13.5015117"><ele>157.0</ele><time>2026-05-03T07:44:47.253Z</time></trkpt><trkpt lat="46.1135967" lon="13.5013683"><ele>157.0</ele><time>2026-05-03T07:44:48.253Z</time></trkpt><trkpt lat="46.1136467" lon="13.5012267"><ele>157.0</ele><time>2026-05-03T07:44:49.253Z</time></trkpt><trkpt lat="46.1136967" lon="13.5010767"><ele>157.0</ele><time>2026-05-03T07:44:50.253Z</time></trkpt><trkpt lat="46.1137333" lon="13.5009133"><ele>155.5</ele><time>2026-05-03T07:44:51.253Z</time></trkpt><trkpt lat="46.11376" lon="13.5007433"><ele>154.0</ele><time>2026-05-03T07:44:52.253Z</time></trkpt><trkpt lat="46.1137967" lon="13.500575"><ele>152.5</ele><time>2026-05-03T07:44:53.253Z</time></trkpt><trkpt lat="46.1138233" lon="13.5004083"><ele>151.0</ele><time>2026-05-03T07:44:54.253Z</time></trkpt><trkpt lat="46.113845" lon="13.5002383"><ele>149.25</ele><time>2026-05-03T07:44:55.253Z</time></trkpt><trkpt lat="46.1138583" lon="13.5000617"><ele>147.5</ele><time>2026-05-03T07:44:56.253Z</time></trkpt><trkpt lat="46.113875" lon="13.4998817"><ele>145.75</ele><time>2026-05-03T07:44:57.253Z</time></trkpt><trkpt lat="46.1138933" lon="13.4996967"><ele>144.0</ele><time>2026-05-03T07:44:58.253Z</time></trkpt><trkpt lat="46.11391" lon="13.49951"><ele>143.5</ele><time>2026-05-03T07:44:59.253Z</time></trkpt><trkpt lat="46.11393" lon="13.4993233"><ele>143.0</ele><time>2026-05-03T07:45:00.253Z</time></trkpt><trkpt lat="46.11395" lon="13.4991433"><ele>142.5</ele><time>2026-05-03T07:45:01.253Z</time></trkpt><trkpt lat="46.113965" lon="13.4989683"><ele>142.0</ele><time>2026-05-03T07:45:02.253Z</time></trkpt><trkpt lat="46.1139767" lon="13.4988017"><ele>141.5</ele><time>2026-05-03T07:45:03.253Z</time></trkpt><trkpt lat="46.113995" lon="13.4986367"><ele>141.0</ele><time>2026-05-03T07:45:04.253Z</time></trkpt><trkpt lat="46.11402" lon="13.4984583"><ele>140.5</ele><time>2026-05-03T07:45:05.253Z</time></trkpt><trkpt lat="46.1140417" lon="13.4982733"><ele>140.0</ele><time>2026-05-03T07:45:06.253Z</time></trkpt><trkpt lat="46.1140633" lon="13.4980917"><ele>140.25</ele><time>2026-05-03T07:45:07.253Z</time></trkpt><trkpt lat="46.1140867" lon="13.4978983"><ele>140.5</ele><time>2026-05-03T07:45:08.253Z</time></trkpt><trkpt lat="46.1141067" lon="13.4976917"><ele>140.75</ele><time>2026-05-03T07:45:09.253Z</time></trkpt><trkpt lat="46.1141217" lon="13.4974867"><ele>141.0</ele><time>2026-05-03T07:45:10.253Z</time></trkpt><trkpt lat="46.1141417" lon="13.49728"><ele>140.5</ele><time>2026-05-03T07:45:11.253Z</time></trkpt><trkpt lat="46.1141567" lon="13.4970717"><ele>140.0</ele><time>2026-05-03T07:45:12.253Z</time></trkpt><trkpt lat="46.1141767" lon="13.49686"><ele>139.5</ele><time>2026-05-03T07:45:13.253Z</time></trkpt><trkpt lat="46.114195" lon="13.496655"><ele>139.0</ele><time>2026-05-03T07:45:14.253Z</time></trkpt><trkpt lat="46.114215" lon="13.49645"><ele>139.5</ele><time>2026-05-03T07:45:15.253Z</time></trkpt><trkpt lat="46.11424" lon="13.496245"><ele>140.0</ele><time>2026-05-03T07:45:16.253Z</time></trkpt><trkpt lat="46.1142617" lon="13.4960467"><ele>140.5</ele><time>2026-05-03T07:45:17.253Z</time></trkpt><trkpt lat="46.1142833" lon="13.4958533"><ele>141.0</ele><time>2026-05-03T07:45:18.253Z</time></trkpt><trkpt lat="46.1143067" lon="13.4956667"><ele>141.0</ele><time>2026-05-03T07:45:19.253Z</time></trkpt><trkpt lat="46.114325" lon="13.495475"><ele>141.0</ele><time>2026-05-03T07:45:20.253Z</time></trkpt><trkpt lat="46.11434" lon="13.4952933"><ele>141.0</ele><time>2026-05-03T07:45:21.253Z</time></trkpt><trkpt lat="46.11435" lon="13.4951017"><ele>141.0</ele><time>2026-05-03T07:45:22.253Z</time></trkpt><trkpt lat="46.11434" lon="13.4949067"><ele>140.5</ele><time>2026-05-03T07:45:23.253Z</time></trkpt><trkpt lat="46.1143333" lon="13.4947117"><ele>140.0</ele><time>2026-05-03T07:45:24.253Z</time></trkpt><trkpt lat="46.11432" lon="13.4945333"><ele>139.5</ele><time>2026-05-03T07:45:25.253Z</time></trkpt><trkpt lat="46.1143" lon="13.4943633"><ele>139.0</ele><time>2026-05-03T07:45:26.253Z</time></trkpt><trkpt lat="46.11427" lon="13.4941917"><ele>138.75</ele><time>2026-05-03T07:45:27.253Z</time></trkpt><trkpt lat="46.1142283" lon="13.4940233"><ele>138.5</ele><time>2026-05-03T07:45:28.253Z</time></trkpt><trkpt lat="46.1141817" lon="13.4938317"><ele>138.25</ele><time>2026-05-03T07:45:29.253Z</time></trkpt><trkpt lat="46.1141317" lon="13.49365"><ele>138.0</ele><time>2026-05-03T07:45:30.253Z</time></trkpt><trkpt lat="46.1140867" lon="13.49347"><ele>138.0</ele><time>2026-05-03T07:45:31.253Z</time></trkpt><trkpt lat="46.11404" lon="13.4933033"><ele>138.0</ele><time>2026-05-03T07:45:32.253Z</time></trkpt><trkpt lat="46.1139867" lon="13.49313"><ele>138.0</ele><time>2026-05-03T07:45:33.253Z</time></trkpt><trkpt lat="46.1139367" lon="13.49296"><ele>138.0</ele><time>2026-05-03T07:45:34.253Z</time></trkpt><trkpt lat="46.1138833" lon="13.4927867"><ele>138.0</ele><time>2026-05-03T07:45:35.253Z</time></trkpt><trkpt lat="46.1138383" lon="13.4926067"><ele>138.0</ele><time>2026-05-03T07:45:36.253Z</time></trkpt><trkpt lat="46.1137967" lon="13.4924417"><ele>138.0</ele><time>2026-05-03T07:45:37.253Z</time></trkpt><trkpt lat="46.113755" lon="13.4922883"><ele>138.0</ele><time>2026-05-03T07:45:38.253Z</time></trkpt><trkpt lat="46.1137183" lon="13.4921617"><ele>138.0</ele><time>2026-05-03T07:45:39.253Z</time></trkpt><trkpt lat="46.113685" lon="13.49205"><ele>138.0</ele><time>2026-05-03T07:45:40.253Z</time></trkpt><trkpt lat="46.113645" lon="13.491955"><ele>138.0</ele><time>2026-05-03T07:45:41.253Z</time></trkpt><trkpt lat="46.113585" lon="13.491875"><ele>138.0</ele><time>2026-05-03T07:45:42.253Z</time></trkpt><trkpt lat="46.113515" lon="13.49182"><ele>138.0</ele><time>2026-05-03T07:45:43.253Z</time></trkpt><trkpt lat="46.1134417" lon="13.4917983"><ele>138.0</ele><time>2026-05-03T07:45:44.253Z</time></trkpt><trkpt lat="46.11336" lon="13.4917783"><ele>138.0</ele><time>2026-05-03T07:45:45.253Z</time></trkpt><trkpt lat="46.1132783" lon="13.491755"><ele>138.0</ele><time>2026-05-03T07:45:46.253Z</time></trkpt><trkpt lat="46.1132067" lon="13.4917433"><ele>138.0</ele><time>2026-05-03T07:45:47.253Z</time></trkpt><trkpt lat="46.113135" lon="13.4917583"><ele>138.0</ele><time>2026-05-03T07:45:48.253Z</time></trkpt><trkpt lat="46.1130633" lon="13.4917567"><ele>138.0</ele><time>2026-05-03T07:45:49.253Z</time></trkpt><trkpt lat="46.1130017" lon="13.4917183"><ele>138.0</ele><time>2026-05-03T07:45:50.253Z</time></trkpt><trkpt lat="46.11295" lon="13.4916433"><ele>138.0</ele><time>2026-05-03T07:45:51.253Z</time></trkpt><trkpt lat="46.1129083" lon="13.4915367"><ele>141.83333333333334</ele><time>2026-05-03T07:45:52.253Z</time></trkpt><trkpt lat="46.1128683" lon="13.4914083"><ele>145.66666666666666</ele><time>2026-05-03T07:45:53.253Z</time></trkpt><trkpt lat="46.11285" lon="13.4912817"><ele>149.5</ele><time>2026-05-03T07:45:54.253Z</time></trkpt><trkpt lat="46.1128483" lon="13.49117"><ele>153.33333333333331</ele><time>2026-05-03T07:45:55.253Z</time></trkpt><trkpt lat="46.1128417" lon="13.4910617"><ele>157.16666666666666</ele><time>2026-05-03T07:45:56.253Z</time></trkpt><trkpt lat="46.11285" lon="13.4909283"><ele>161.0</ele><time>2026-05-03T07:45:57.253Z</time></trkpt><trkpt lat="46.1128683" lon="13.4907417"><ele>163.25</ele><time>2026-05-03T07:45:58.253Z</time></trkpt><trkpt lat="46.11288" lon="13.4905617"><ele>165.5</ele><time>2026-05-03T07:45:59.253Z</time></trkpt><trkpt lat="46.1128917" lon="13.4903883"><ele>167.75</ele><time>2026-05-03T07:46:00.253Z</time></trkpt><trkpt lat="46.1129017" lon="13.4902317"><ele>170.0</ele><time>2026-05-03T07:46:01.253Z</time></trkpt><trkpt lat="46.112915" lon="13.49008"><ele>171.2</ele><time>2026-05-03T07:46:02.253Z</time></trkpt><trkpt lat="46.11293" lon="13.489925"><ele>172.4</ele><time>2026-05-03T07:46:03.253Z</time></trkpt><trkpt lat="46.1129433" lon="13.4897667"><ele>173.60000000000002</ele><time>2026-05-03T07:46:04.253Z</time></trkpt><trkpt lat="46.11297" lon="13.4896083"><ele>174.8</ele><time>2026-05-03T07:46:05.253Z</time></trkpt><trkpt lat="46.1129833" lon="13.4894533"><ele>176.0</ele><time>2026-05-03T07:46:06.253Z</time></trkpt><trkpt lat="46.1129833" lon="13.4893117"><ele>176.60000000000002</ele><time>2026-05-03T07:46:07.253Z</time></trkpt><trkpt lat="46.11297" lon="13.48918"><ele>177.2</ele><time>2026-05-03T07:46:08.253Z</time></trkpt><trkpt lat="46.1129667" lon="13.4890483"><ele>177.8</ele><time>2026-05-03T07:46:09.253Z</time></trkpt><trkpt lat="46.1129633" lon="13.488925"><ele>178.39999999999998</ele><time>2026-05-03T07:46:10.253Z</time></trkpt><trkpt lat="46.1129383" lon="13.488805"><ele>179.0</ele><time>2026-05-03T07:46:11.253Z</time></trkpt><trkpt lat="46.112895" lon="13.48868"><ele>176.79999999999998</ele><time>2026-05-03T07:46:12.253Z</time></trkpt><trkpt lat="46.11283" lon="13.48857"><ele>174.6</ele><time>2026-05-03T07:46:13.253Z</time></trkpt><trkpt lat="46.1127583" lon="13.488475"><ele>172.4</ele><time>2026-05-03T07:46:14.253Z</time></trkpt><trkpt lat="46.1126917" lon="13.4883883"><ele>170.2</ele><time>2026-05-03T07:46:15.253Z</time></trkpt><trkpt lat="46.1126283" lon="13.4883067"><ele>168.0</ele><time>2026-05-03T07:46:16.253Z</time></trkpt><trkpt lat="46.1125683" lon="13.4882183"><ele>168.0</ele><time>2026-05-03T07:46:17.253Z</time></trkpt><trkpt lat="46.112495" lon="13.4881383"><ele>168.0</ele><time>2026-05-03T07:46:18.253Z</time></trkpt><trkpt lat="46.1124083" lon="13.4880767"><ele>168.0</ele><time>2026-05-03T07:46:19.253Z</time></trkpt><trkpt lat="46.1123067" lon="13.4880283"><ele>168.0</ele><time>2026-05-03T07:46:20.253Z</time></trkpt><trkpt lat="46.1122167" lon="13.4879933"><ele>168.0</ele><time>2026-05-03T07:46:21.253Z</time></trkpt><trkpt lat="46.1121317" lon="13.4879517"><ele>170.16666666666666</ele><time>2026-05-03T07:46:22.253Z</time></trkpt><trkpt lat="46.1120417" lon="13.4879083"><ele>172.33333333333334</ele><time>2026-05-03T07:46:23.253Z</time></trkpt><trkpt lat="46.1119667" lon="13.487855"><ele>174.5</ele><time>2026-05-03T07:46:24.253Z</time></trkpt><trkpt lat="46.1119017" lon="13.487795"><ele>176.66666666666669</ele><time>2026-05-03T07:46:25.253Z</time></trkpt><trkpt lat="46.1118367" lon="13.4877433"><ele>178.83333333333334</ele><time>2026-05-03T07:46:26.253Z</time></trkpt><trkpt lat="46.111785" lon="13.4876767"><ele>181.0</ele><time>2026-05-03T07:46:27.253Z</time></trkpt><trkpt lat="46.1117467" lon="13.487595"><ele>181.0</ele><time>2026-05-03T07:46:28.253Z</time></trkpt><trkpt lat="46.1116567" lon="13.48748"><ele>181.0</ele><time>2026-05-03T07:46:30.253Z</time></trkpt><trkpt lat="46.1115417" lon="13.4874233"><ele>181.0</ele><time>2026-05-03T07:46:32.253Z</time></trkpt><trkpt lat="46.1114717" lon="13.487395"><ele>181.0</ele><time>2026-05-03T07:46:33.253Z</time></trkpt><trkpt lat="46.1113933" lon="13.4873567"><ele>181.0</ele><time>2026-05-03T07:46:34.253Z</time></trkpt><trkpt lat="46.11131" lon="13.48729"><ele>181.0</ele><time>2026-05-03T07:46:35.253Z</time></trkpt><trkpt lat="46.111225" lon="13.4872183"><ele>181.0</ele><time>2026-05-03T07:46:36.253Z</time></trkpt><trkpt lat="46.111125" lon="13.48714"><ele>181.0</ele><time>2026-05-03T07:46:37.253Z</time></trkpt><trkpt lat="46.111035" lon="13.4870783"><ele>181.0</ele><time>2026-05-03T07:46:38.253Z</time></trkpt><trkpt lat="46.11095" lon="13.48701"><ele>181.0</ele><time>2026-05-03T07:46:39.253Z</time></trkpt><trkpt lat="46.1108717" lon="13.4869383"><ele>181.0</ele><time>2026-05-03T07:46:40.254Z</time></trkpt><trkpt lat="46.1107967" lon="13.4868733"><ele>181.0</ele><time>2026-05-03T07:46:41.253Z</time></trkpt><trkpt lat="46.1107283" lon="13.4868133"><ele>181.0</ele><time>2026-05-03T07:46:42.253Z</time></trkpt><trkpt lat="46.1106683" lon="13.4867417"><ele>181.0</ele><time>2026-05-03T07:46:43.253Z</time></trkpt><trkpt lat="46.1106233" lon="13.48665"><ele>181.0</ele><time>2026-05-03T07:46:44.253Z</time></trkpt><trkpt lat="46.11057" lon="13.4865717"><ele>181.0</ele><time>2026-05-03T07:46:45.253Z</time></trkpt><trkpt lat="46.1105133" lon="13.48651"><ele>184.5</ele><time>2026-05-03T07:46:46.253Z</time></trkpt><trkpt lat="46.1104383" lon="13.4864667"><ele>188.0</ele><time>2026-05-03T07:46:47.253Z</time></trkpt><trkpt lat="46.1103633" lon="13.4864283"><ele>191.5</ele><time>2026-05-03T07:46:48.253Z</time></trkpt><trkpt lat="46.1102933" lon="13.486375"><ele>195.0</ele><time>2026-05-03T07:46:49.254Z</time></trkpt><trkpt lat="46.11024" lon="13.486315"><ele>198.49999999999997</ele><time>2026-05-03T07:46:50.253Z</time></trkpt><trkpt lat="46.110155" lon="13.48619"><ele>202.0</ele><time>2026-05-03T07:46:52.253Z</time></trkpt><trkpt lat="46.1101" lon="13.486145"><ele>202.0</ele><time>2026-05-03T07:46:54.253Z</time></trkpt><trkpt lat="46.11006" lon="13.4862283"><ele>202.0</ele><time>2026-05-03T07:46:56.253Z</time></trkpt><trkpt lat="46.1100483" lon="13.4863667"><ele>202.0</ele><time>2026-05-03T07:46:58.253Z</time></trkpt><trkpt lat="46.11003" lon="13.4865217"><ele>202.0</ele><time>2026-05-03T07:47:00.254Z</time></trkpt><trkpt lat="46.1100417" lon="13.4866917"><ele>202.0</ele><time>2026-05-03T07:47:02.253Z</time></trkpt><trkpt lat="46.1100517" lon="13.4867833"><ele>202.71428571428572</ele><time>2026-05-03T07:47:03.253Z</time></trkpt><trkpt lat="46.1100683" lon="13.486875"><ele>203.42857142857142</ele><time>2026-05-03T07:47:04.253Z</time></trkpt><trkpt lat="46.1100767" lon="13.4869717"><ele>204.14285714285717</ele><time>2026-05-03T07:47:05.253Z</time></trkpt><trkpt lat="46.110095" lon="13.4870667"><ele>204.85714285714286</ele><time>2026-05-03T07:47:06.253Z</time></trkpt><trkpt lat="46.110115" lon="13.48716"><ele>205.57142857142858</ele><time>2026-05-03T07:47:07.253Z</time></trkpt><trkpt lat="46.1101433" lon="13.48726"><ele>206.2857142857143</ele><time>2026-05-03T07:47:08.253Z</time></trkpt><trkpt lat="46.11017" lon="13.48735"><ele>207.0</ele><time>2026-05-03T07:47:09.253Z</time></trkpt><trkpt lat="46.1101933" lon="13.48744"><ele>209.0</ele><time>2026-05-03T07:47:10.253Z</time></trkpt><trkpt lat="46.110215" lon="13.48753"><ele>211.0</ele><time>2026-05-03T07:47:11.253Z</time></trkpt><trkpt lat="46.11027" lon="13.4876917"><ele>213.0</ele><time>2026-05-03T07:47:13.253Z</time></trkpt><trkpt lat="46.11034" lon="13.487885"><ele>215.0</ele><time>2026-05-03T07:47:15.253Z</time></trkpt><trkpt lat="46.11038" lon="13.4879817"><ele>217.0</ele><time>2026-05-03T07:47:16.253Z</time></trkpt><trkpt lat="46.1104117" lon="13.4880733"><ele>220.33333333333331</ele><time>2026-05-03T07:47:17.253Z</time></trkpt><trkpt lat="46.11044" lon="13.48817"><ele>223.66666666666666</ele><time>2026-05-03T07:47:18.253Z</time></trkpt><trkpt lat="46.1104633" lon="13.4882767"><ele>227.0</ele><time>2026-05-03T07:47:19.253Z</time></trkpt><trkpt lat="46.1104983" lon="13.488405"><ele>230.33333333333331</ele><time>2026-05-03T07:47:20.253Z</time></trkpt><trkpt lat="46.1105367" lon="13.4885183"><ele>233.66666666666666</ele><time>2026-05-03T07:47:21.253Z</time></trkpt><trkpt lat="46.1105733" lon="13.4886367"><ele>237.0</ele><time>2026-05-03T07:47:22.253Z</time></trkpt><trkpt lat="46.1106117" lon="13.488755"><ele>235.71428571428567</ele><time>2026-05-03T07:47:23.253Z</time></trkpt><trkpt lat="46.1106467" lon="13.4888667"><ele>234.42857142857142</ele><time>2026-05-03T07:47:24.253Z</time></trkpt><trkpt lat="46.1106833" lon="13.4889667"><ele>233.1428571428571</ele><time>2026-05-03T07:47:25.253Z</time></trkpt><trkpt lat="46.110725" lon="13.4890483"><ele>231.85714285714283</ele><time>2026-05-03T07:47:26.253Z</time></trkpt><trkpt lat="46.110775" lon="13.489115"><ele>230.57142857142856</ele><time>2026-05-03T07:47:27.253Z</time></trkpt><trkpt lat="46.1108367" lon="13.4891833"><ele>229.28571428571428</ele><time>2026-05-03T07:47:28.253Z</time></trkpt><trkpt lat="46.1108833" lon="13.489245"><ele>228.0</ele><time>2026-05-03T07:47:29.253Z</time></trkpt><trkpt lat="46.1109267" lon="13.4893133"><ele>228.0</ele><time>2026-05-03T07:47:30.253Z</time></trkpt><trkpt lat="46.1109717" lon="13.4894817"><ele>228.0</ele><time>2026-05-03T07:47:32.253Z</time></trkpt><trkpt lat="46.1109817" lon="13.489575"><ele>228.0</ele><time>2026-05-03T07:47:33.253Z</time></trkpt><trkpt lat="46.1110317" lon="13.4897533"><ele>228.0</ele><time>2026-05-03T07:47:35.253Z</time></trkpt><trkpt lat="46.11107" lon="13.4898517"><ele>228.0</ele><time>2026-05-03T07:47:36.253Z</time></trkpt><trkpt lat="46.1111067" lon="13.4899517"><ele>230.42857142857142</ele><time>2026-05-03T07:47:37.253Z</time></trkpt><trkpt lat="46.111142" lon="13.4900419"><ele>232.85714285714283</ele><time>2026-05-03T07:47:38.253Z</time></trkpt><trkpt lat="46.1111658" lon="13.4901363"><ele>235.28571428571428</ele><time>2026-05-03T07:47:39.253Z</time></trkpt><trkpt lat="46.111177" lon="13.490227"><ele>237.71428571428572</ele><time>2026-05-03T07:47:40.253Z</time></trkpt><trkpt lat="46.1111823" lon="13.4903184"><ele>240.14285714285714</ele><time>2026-05-03T07:47:41.253Z</time></trkpt><trkpt lat="46.1111813" lon="13.4904153"><ele>242.57142857142856</ele><time>2026-05-03T07:47:42.253Z</time></trkpt><trkpt lat="46.1111722" lon="13.4905119"><ele>245.0</ele><time>2026-05-03T07:47:43.253Z</time></trkpt><trkpt lat="46.1111581" lon="13.490611"><ele>247.00000000000003</ele><time>2026-05-03T07:47:44.253Z</time></trkpt><trkpt lat="46.1111424" lon="13.4907128"><ele>249.0</ele><time>2026-05-03T07:47:45.253Z</time></trkpt><trkpt lat="46.1111252" lon="13.4908255"><ele>251.0</ele><time>2026-05-03T07:47:46.253Z</time></trkpt><trkpt lat="46.111102" lon="13.490951"><ele>253.0</ele><time>2026-05-03T07:47:47.253Z</time></trkpt><trkpt lat="46.1110856" lon="13.4910688"><ele>255.00000000000003</ele><time>2026-05-03T07:47:48.253Z</time></trkpt><trkpt lat="46.1110677" lon="13.4911875"><ele>257.0</ele><time>2026-05-03T07:47:49.253Z</time></trkpt><trkpt lat="46.1110502" lon="13.4913022"><ele>258.2</ele><time>2026-05-03T07:47:50.253Z</time></trkpt><trkpt lat="46.1110216" lon="13.4914303"><ele>259.4</ele><time>2026-05-03T07:47:51.253Z</time></trkpt><trkpt lat="46.1109914" lon="13.4915551"><ele>260.6</ele><time>2026-05-03T07:47:52.253Z</time></trkpt><trkpt lat="46.1109494" lon="13.491687"><ele>261.8</ele><time>2026-05-03T07:47:53.253Z</time></trkpt><trkpt lat="46.1109032" lon="13.4918172"><ele>263.0</ele><time>2026-05-03T07:47:54.253Z</time></trkpt><trkpt lat="46.1108575" lon="13.4919438"><ele>263.0</ele><time>2026-05-03T07:47:55.253Z</time></trkpt><trkpt lat="46.110817" lon="13.4920683"><ele>263.0</ele><time>2026-05-03T07:47:56.253Z</time></trkpt><trkpt lat="46.1107769" lon="13.4921991"><ele>263.0</ele><time>2026-05-03T07:47:57.253Z</time></trkpt><trkpt lat="46.1107428" lon="13.4923292"><ele>263.0</ele><time>2026-05-03T07:47:58.253Z</time></trkpt><trkpt lat="46.110714" lon="13.4924549"><ele>263.0</ele><time>2026-05-03T07:47:59.253Z</time></trkpt><trkpt lat="46.1106815" lon="13.4925794"><ele>265.5</ele><time>2026-05-03T07:48:00.253Z</time></trkpt><trkpt lat="46.1106465" lon="13.4927077"><ele>268.0</ele><time>2026-05-03T07:48:01.253Z</time></trkpt><trkpt lat="46.1106139" lon="13.4928293"><ele>270.5</ele><time>2026-05-03T07:48:02.253Z</time></trkpt><trkpt lat="46.1105895" lon="13.49294"><ele>273.0</ele><time>2026-05-03T07:48:03.253Z</time></trkpt><trkpt lat="46.1105647" lon="13.4930385"><ele>275.5</ele><time>2026-05-03T07:48:04.253Z</time></trkpt><trkpt lat="46.1105336" lon="13.4931198"><ele>278.0</ele><time>2026-05-03T07:48:05.253Z</time></trkpt><trkpt lat="46.110461" lon="13.4932262"><ele>278.0</ele><time>2026-05-03T07:48:07.253Z</time></trkpt><trkpt lat="46.1103533" lon="13.4932743"><ele>278.0</ele><time>2026-05-03T07:48:09.253Z</time></trkpt><trkpt lat="46.1102829" lon="13.4933035"><ele>278.0</ele><time>2026-05-03T07:48:10.253Z</time></trkpt><trkpt lat="46.1102075" lon="13.4933339"><ele>278.0</ele><time>2026-05-03T07:48:11.253Z</time></trkpt><trkpt lat="46.1101386" lon="13.4933635"><ele>278.0</ele><time>2026-05-03T07:48:12.253Z</time></trkpt><trkpt lat="46.1100675" lon="13.493395"><ele>278.0</ele><time>2026-05-03T07:48:13.253Z</time></trkpt><trkpt lat="46.1099916" lon="13.4934205"><ele>278.0</ele><time>2026-05-03T07:48:14.253Z</time></trkpt><trkpt lat="46.1099144" lon="13.4934369"><ele>278.0</ele><time>2026-05-03T07:48:15.253Z</time></trkpt><trkpt lat="46.1098334" lon="13.4934474"><ele>278.0</ele><time>2026-05-03T07:48:16.253Z</time></trkpt><trkpt lat="46.1097552" lon="13.4934552"><ele>278.0</ele><time>2026-05-03T07:48:17.253Z</time></trkpt><trkpt lat="46.1096812" lon="13.4934642"><ele>278.0</ele><time>2026-05-03T07:48:18.253Z</time></trkpt><trkpt lat="46.1096068" lon="13.4934766"><ele>278.0</ele><time>2026-05-03T07:48:19.253Z</time></trkpt><trkpt lat="46.10953" lon="13.4934886"><ele>279.6</ele><time>2026-05-03T07:48:20.253Z</time></trkpt><trkpt lat="46.1094527" lon="13.4935"><ele>281.20000000000005</ele><time>2026-05-03T07:48:21.253Z</time></trkpt><trkpt lat="46.1093759" lon="13.4935101"><ele>282.8</ele><time>2026-05-03T07:48:22.253Z</time></trkpt><trkpt lat="46.1093075" lon="13.4935127"><ele>284.40000000000003</ele><time>2026-05-03T07:48:23.254Z</time></trkpt><trkpt lat="46.1092056" lon="13.493505"><ele>286.0</ele><time>2026-05-03T07:48:25.253Z</time></trkpt><trkpt lat="46.109391" lon="13.4934168"><ele>285.99999999999994</ele><time>2026-05-03T07:48:35.253Z</time></trkpt><trkpt lat="46.1094527" lon="13.4933871"><ele>286.0</ele><time>2026-05-03T07:48:36.253Z</time></trkpt><trkpt lat="46.109514" lon="13.4933502"><ele>286.0</ele><time>2026-05-03T07:48:37.253Z</time></trkpt><trkpt lat="46.1095739" lon="13.4933042"><ele>286.0</ele><time>2026-05-03T07:48:38.253Z</time></trkpt><trkpt lat="46.1096326" lon="13.4932382"><ele>286.0</ele><time>2026-05-03T07:48:39.253Z</time></trkpt><trkpt lat="46.109692" lon="13.4931568"><ele>285.99999999999994</ele><time>2026-05-03T07:48:40.253Z</time></trkpt><trkpt lat="46.109743" lon="13.493058"><ele>286.0</ele><time>2026-05-03T07:48:41.253Z</time></trkpt><trkpt lat="46.1097892" lon="13.4929384"><ele>287.6</ele><time>2026-05-03T07:48:42.253Z</time></trkpt><trkpt lat="46.1098308" lon="13.4928105"><ele>289.20000000000005</ele><time>2026-05-03T07:48:43.253Z</time></trkpt><trkpt lat="46.1098664" lon="13.492679"><ele>290.79999999999995</ele><time>2026-05-03T07:48:44.253Z</time></trkpt><trkpt lat="46.1098937" lon="13.4925402"><ele>292.4</ele><time>2026-05-03T07:48:45.253Z</time></trkpt><trkpt lat="46.1099228" lon="13.4923876"><ele>294.0</ele><time>2026-05-03T07:48:46.253Z</time></trkpt><trkpt lat="46.1099352" lon="13.492262"><ele>294.0</ele><time>2026-05-03T07:48:47.253Z</time></trkpt><trkpt lat="46.1099356" lon="13.4921438"><ele>294.0</ele><time>2026-05-03T07:48:48.253Z</time></trkpt><trkpt lat="46.1099246" lon="13.4920306"><ele>294.0</ele><time>2026-05-03T07:48:49.253Z</time></trkpt><trkpt lat="46.1099079" lon="13.491919"><ele>294.0</ele><time>2026-05-03T07:48:50.253Z</time></trkpt><trkpt lat="46.1098904" lon="13.4918068"><ele>294.0</ele><time>2026-05-03T07:48:51.253Z</time></trkpt><trkpt lat="46.1098685" lon="13.4917019"><ele>294.0</ele><time>2026-05-03T07:48:52.253Z</time></trkpt><trkpt lat="46.1098421" lon="13.4916092"><ele>297.59999999999997</ele><time>2026-05-03T07:48:53.253Z</time></trkpt><trkpt lat="46.1098169" lon="13.4915241"><ele>301.2</ele><time>2026-05-03T07:48:54.253Z</time></trkpt><trkpt lat="46.1097532" lon="13.4913989"><ele>304.79999999999995</ele><time>2026-05-03T07:48:56.253Z</time></trkpt><trkpt lat="46.1096492" lon="13.4913353"><ele>308.4</ele><time>2026-05-03T07:48:58.253Z</time></trkpt><trkpt lat="46.1095687" lon="13.4913092"><ele>312.0</ele><time>2026-05-03T07:48:59.253Z</time></trkpt><trkpt lat="46.1094772" lon="13.4912662"><ele>312.2</ele><time>2026-05-03T07:49:00.253Z</time></trkpt><trkpt lat="46.1093783" lon="13.4911995"><ele>312.4</ele><time>2026-05-03T07:49:01.253Z</time></trkpt><trkpt lat="46.1092884" lon="13.4911168"><ele>312.6</ele><time>2026-05-03T07:49:02.253Z</time></trkpt><trkpt lat="46.1092131" lon="13.4910259"><ele>312.8</ele><time>2026-05-03T07:49:03.253Z</time></trkpt><trkpt lat="46.1091593" lon="13.4909322"><ele>313.0</ele><time>2026-05-03T07:49:04.253Z</time></trkpt><trkpt lat="46.1091283" lon="13.4908067"><ele>313.0</ele><time>2026-05-03T07:49:05.253Z</time></trkpt><trkpt lat="46.109099" lon="13.490653"><ele>313.0</ele><time>2026-05-03T07:49:06.253Z</time></trkpt><trkpt lat="46.1090732" lon="13.4904806"><ele>313.0</ele><time>2026-05-03T07:49:07.253Z</time></trkpt><trkpt lat="46.1090553" lon="13.4903096"><ele>313.0</ele><time>2026-05-03T07:49:08.253Z</time></trkpt><trkpt lat="46.1090423" lon="13.4901521"><ele>311.8333333333333</ele><time>2026-05-03T07:49:09.253Z</time></trkpt><trkpt lat="46.109027" lon="13.4900151"><ele>310.66666666666663</ele><time>2026-05-03T07:49:10.253Z</time></trkpt><trkpt lat="46.1090089" lon="13.4898903"><ele>309.5</ele><time>2026-05-03T07:49:11.253Z</time></trkpt><trkpt lat="46.1089878" lon="13.4897837"><ele>308.3333333333333</ele><time>2026-05-03T07:49:12.253Z</time></trkpt><trkpt lat="46.1089516" lon="13.4896894"><ele>307.1666666666667</ele><time>2026-05-03T07:49:13.253Z</time></trkpt><trkpt lat="46.1088982" lon="13.489607"><ele>306.0</ele><time>2026-05-03T07:49:14.253Z</time></trkpt><trkpt lat="46.1088359" lon="13.4895347"><ele>306.0</ele><time>2026-05-03T07:49:15.253Z</time></trkpt><trkpt lat="46.1087615" lon="13.4894729"><ele>306.0</ele><time>2026-05-03T07:49:16.253Z</time></trkpt><trkpt lat="46.1086777" lon="13.4894156"><ele>306.0</ele><time>2026-05-03T07:49:17.253Z</time></trkpt><trkpt lat="46.1085733" lon="13.489365"><ele>306.0</ele><time>2026-05-03T07:49:18.253Z</time></trkpt><trkpt lat="46.1085" lon="13.4893183"><ele>306.0</ele><time>2026-05-03T07:49:19.253Z</time></trkpt><trkpt lat="46.1084333" lon="13.48928"><ele>306.0</ele><time>2026-05-03T07:49:20.253Z</time></trkpt><trkpt lat="46.1083317" lon="13.4892017"><ele>306.0</ele><time>2026-05-03T07:49:22.253Z</time></trkpt><trkpt lat="46.1082633" lon="13.4890583"><ele>306.0</ele><time>2026-05-03T07:49:24.253Z</time></trkpt><trkpt lat="46.1082433" lon="13.4889617"><ele>306.0</ele><time>2026-05-03T07:49:25.253Z</time></trkpt><trkpt lat="46.1082417" lon="13.48885"><ele>306.0</ele><time>2026-05-03T07:49:26.253Z</time></trkpt><trkpt lat="46.1082533" lon="13.4887067"><ele>306.0</ele><time>2026-05-03T07:49:27.253Z</time></trkpt><trkpt lat="46.1082783" lon="13.48855"><ele>305.2</ele><time>2026-05-03T07:49:28.253Z</time></trkpt><trkpt lat="46.1083017" lon="13.4883917"><ele>304.40000000000003</ele><time>2026-05-03T07:49:29.253Z</time></trkpt><trkpt lat="46.1083117" lon="13.4882517"><ele>303.6</ele><time>2026-05-03T07:49:30.253Z</time></trkpt><trkpt lat="46.1083217" lon="13.4881"><ele>302.8</ele><time>2026-05-03T07:49:31.253Z</time></trkpt><trkpt lat="46.108345" lon="13.4879617"><ele>302.0</ele><time>2026-05-03T07:49:32.253Z</time></trkpt><trkpt lat="46.1083567" lon="13.4878117"><ele>302.0</ele><time>2026-05-03T07:49:33.253Z</time></trkpt><trkpt lat="46.1083633" lon="13.48767"><ele>302.0</ele><time>2026-05-03T07:49:34.253Z</time></trkpt><trkpt lat="46.1083717" lon="13.4875367"><ele>302.0</ele><time>2026-05-03T07:49:35.253Z</time></trkpt><trkpt lat="46.1083767" lon="13.48739"><ele>302.0</ele><time>2026-05-03T07:49:36.254Z</time></trkpt><trkpt lat="46.1083783" lon="13.4872283"><ele>302.0</ele><time>2026-05-03T07:49:37.253Z</time></trkpt><trkpt lat="46.1083683" lon="13.4870633"><ele>300.6</ele><time>2026-05-03T07:49:38.253Z</time></trkpt><trkpt lat="46.108355" lon="13.4868983"><ele>299.2</ele><time>2026-05-03T07:49:39.253Z</time></trkpt><trkpt lat="46.1083367" lon="13.4867383"><ele>297.8</ele><time>2026-05-03T07:49:40.253Z</time></trkpt><trkpt lat="46.1083167" lon="13.4865917"><ele>296.4</ele><time>2026-05-03T07:49:41.253Z</time></trkpt><trkpt lat="46.10831" lon="13.4864467"><ele>295.0</ele><time>2026-05-03T07:49:42.253Z</time></trkpt><trkpt lat="46.1082983" lon="13.4863167"><ele>294.0</ele><time>2026-05-03T07:49:43.253Z</time></trkpt><trkpt lat="46.1082767" lon="13.4862033"><ele>293.0</ele><time>2026-05-03T07:49:44.253Z</time></trkpt><trkpt lat="46.108265" lon="13.486085"><ele>292.0</ele><time>2026-05-03T07:49:45.253Z</time></trkpt><trkpt lat="46.1082517" lon="13.4859817"><ele>291.0</ele><time>2026-05-03T07:49:46.253Z</time></trkpt><trkpt lat="46.1082333" lon="13.4858733"><ele>290.0</ele><time>2026-05-03T07:49:47.252Z</time></trkpt><trkpt lat="46.108195" lon="13.4857733"><ele>289.0</ele><time>2026-05-03T07:49:48.252Z</time></trkpt><trkpt lat="46.1081517" lon="13.4856633"><ele>297.2</ele><time>2026-05-03T07:49:49.252Z</time></trkpt><trkpt lat="46.10811" lon="13.4855383"><ele>305.4</ele><time>2026-05-03T07:49:50.252Z</time></trkpt><trkpt lat="46.1080683" lon="13.4853983"><ele>313.6</ele><time>2026-05-03T07:49:51.252Z</time></trkpt><trkpt lat="46.1080283" lon="13.485255"><ele>321.8</ele><time>2026-05-03T07:49:52.252Z</time></trkpt><trkpt lat="46.1079919" lon="13.4851134"><ele>330.0</ele><time>2026-05-03T07:49:53.252Z</time></trkpt><trkpt lat="46.1079544" lon="13.4849694"><ele>330.0</ele><time>2026-05-03T07:49:54.252Z</time></trkpt><trkpt lat="46.1079196" lon="13.4848224"><ele>330.0</ele><time>2026-05-03T07:49:55.252Z</time></trkpt><trkpt lat="46.1078909" lon="13.4846665"><ele>330.0</ele><time>2026-05-03T07:49:56.252Z</time></trkpt><trkpt lat="46.1078727" lon="13.4845004"><ele>330.0</ele><time>2026-05-03T07:49:57.252Z</time></trkpt><trkpt lat="46.1078655" lon="13.4843356"><ele>331.4</ele><time>2026-05-03T07:49:58.252Z</time></trkpt><trkpt lat="46.1078631" lon="13.4841808"><ele>332.8</ele><time>2026-05-03T07:49:59.252Z</time></trkpt><trkpt lat="46.1078658" lon="13.4840414"><ele>334.20000000000005</ele><time>2026-05-03T07:50:00.252Z</time></trkpt><trkpt lat="46.1078749" lon="13.4839108"><ele>335.6</ele><time>2026-05-03T07:50:01.252Z</time></trkpt><trkpt lat="46.107892" lon="13.4837875"><ele>337.0</ele><time>2026-05-03T07:50:02.252Z</time></trkpt><trkpt lat="46.1079194" lon="13.4836682"><ele>337.0</ele><time>2026-05-03T07:50:03.252Z</time></trkpt><trkpt lat="46.1079559" lon="13.483543"><ele>337.0</ele><time>2026-05-03T07:50:04.252Z</time></trkpt><trkpt lat="46.1079954" lon="13.4834068"><ele>337.0</ele><time>2026-05-03T07:50:05.252Z</time></trkpt><trkpt lat="46.1080334" lon="13.4832606"><ele>337.0</ele><time>2026-05-03T07:50:06.252Z</time></trkpt><trkpt lat="46.10806" lon="13.4830962"><ele>337.0</ele><time>2026-05-03T07:50:07.252Z</time></trkpt><trkpt lat="46.1080757" lon="13.4829271"><ele>337.0</ele><time>2026-05-03T07:50:08.252Z</time></trkpt><trkpt lat="46.1080756" lon="13.4827674"><ele>337.0</ele><time>2026-05-03T07:50:09.252Z</time></trkpt><trkpt lat="46.108076" lon="13.4826246"><ele>337.0</ele><time>2026-05-03T07:50:10.252Z</time></trkpt><trkpt lat="46.1080859" lon="13.4825014"><ele>337.0</ele><time>2026-05-03T07:50:11.252Z</time></trkpt><trkpt lat="46.1080942" lon="13.4824042"><ele>337.0</ele><time>2026-05-03T07:50:12.252Z</time></trkpt><trkpt lat="46.1080771" lon="13.4822666"><ele>337.0</ele><time>2026-05-03T07:50:14.252Z</time></trkpt><trkpt lat="46.1079915" lon="13.4821039"><ele>337.0</ele><time>2026-05-03T07:50:16.252Z</time></trkpt><trkpt lat="46.1079312" lon="13.4820024"><ele>337.0</ele><time>2026-05-03T07:50:17.252Z</time></trkpt><trkpt lat="46.1078674" lon="13.481895"><ele>337.0</ele><time>2026-05-03T07:50:18.252Z</time></trkpt><trkpt lat="46.1078077" lon="13.4817897"><ele>337.0</ele><time>2026-05-03T07:50:19.252Z</time></trkpt><trkpt lat="46.1077513" lon="13.4816852"><ele>333.40000000000003</ele><time>2026-05-03T07:50:20.252Z</time></trkpt><trkpt lat="46.1077032" lon="13.4815788"><ele>329.8</ele><time>2026-05-03T07:50:21.252Z</time></trkpt><trkpt lat="46.1076585" lon="13.4814669"><ele>326.2</ele><time>2026-05-03T07:50:22.252Z</time></trkpt><trkpt lat="46.1076148" lon="13.4813542"><ele>322.6</ele><time>2026-05-03T07:50:23.252Z</time></trkpt><trkpt lat="46.1075741" lon="13.481234"><ele>319.0</ele><time>2026-05-03T07:50:24.252Z</time></trkpt><trkpt lat="46.1075306" lon="13.4810987"><ele>315.66666666666663</ele><time>2026-05-03T07:50:25.252Z</time></trkpt><trkpt lat="46.1074883" lon="13.4809467"><ele>312.3333333333333</ele><time>2026-05-03T07:50:26.252Z</time></trkpt><trkpt lat="46.1074583" lon="13.4808117"><ele>309.0</ele><time>2026-05-03T07:50:27.252Z</time></trkpt><trkpt lat="46.1074433" lon="13.4806917"><ele>305.6666666666667</ele><time>2026-05-03T07:50:28.252Z</time></trkpt><trkpt lat="46.1074283" lon="13.48058"><ele>302.33333333333337</ele><time>2026-05-03T07:50:29.252Z</time></trkpt><trkpt lat="46.1074133" lon="13.4804783"><ele>299.0</ele><time>2026-05-03T07:50:30.252Z</time></trkpt><trkpt lat="46.1073967" lon="13.4803883"><ele>297.1666666666667</ele><time>2026-05-03T07:50:31.252Z</time></trkpt><trkpt lat="46.1073567" lon="13.480215"><ele>295.33333333333337</ele><time>2026-05-03T07:50:33.252Z</time></trkpt><trkpt lat="46.1073183" lon="13.4801383"><ele>293.5</ele><time>2026-05-03T07:50:34.252Z</time></trkpt><trkpt lat="46.1072617" lon="13.480075"><ele>291.6666666666667</ele><time>2026-05-03T07:50:35.252Z</time></trkpt><trkpt lat="46.1071867" lon="13.4800317"><ele>289.8333333333333</ele><time>2026-05-03T07:50:36.252Z</time></trkpt><trkpt lat="46.1071033" lon="13.48001"><ele>288.0</ele><time>2026-05-03T07:50:37.252Z</time></trkpt><trkpt lat="46.10701" lon="13.4800117"><ele>288.0</ele><time>2026-05-03T07:50:38.252Z</time></trkpt><trkpt lat="46.1069083" lon="13.4800183"><ele>288.0</ele><time>2026-05-03T07:50:39.252Z</time></trkpt><trkpt lat="46.1068" lon="13.4800317"><ele>288.0</ele><time>2026-05-03T07:50:40.252Z</time></trkpt><trkpt lat="46.1067" lon="13.480035"><ele>288.0</ele><time>2026-05-03T07:50:41.252Z</time></trkpt><trkpt lat="46.1066117" lon="13.4800533"><ele>288.0</ele><time>2026-05-03T07:50:42.252Z</time></trkpt><trkpt lat="46.106535" lon="13.48009"><ele>284.25</ele><time>2026-05-03T07:50:43.252Z</time></trkpt><trkpt lat="46.1064383" lon="13.480155"><ele>280.5</ele><time>2026-05-03T07:50:44.252Z</time></trkpt><trkpt lat="46.1063283" lon="13.48024"><ele>276.75</ele><time>2026-05-03T07:50:45.252Z</time></trkpt><trkpt lat="46.1062217" lon="13.4803267"><ele>273.0</ele><time>2026-05-03T07:50:46.252Z</time></trkpt><trkpt lat="46.1061183" lon="13.4804083"><ele>278.0</ele><time>2026-05-03T07:50:47.252Z</time></trkpt><trkpt lat="46.1060167" lon="13.4804917"><ele>283.0</ele><time>2026-05-03T07:50:48.252Z</time></trkpt><trkpt lat="46.105925" lon="13.480575"><ele>288.0</ele><time>2026-05-03T07:50:49.252Z</time></trkpt><trkpt lat="46.1058267" lon="13.48064"><ele>293.0</ele><time>2026-05-03T07:50:50.252Z</time></trkpt><trkpt lat="46.1057417" lon="13.48071"><ele>298.0</ele><time>2026-05-03T07:50:51.252Z</time></trkpt><trkpt lat="46.1056667" lon="13.480775"><ele>299.8333333333333</ele><time>2026-05-03T07:50:52.252Z</time></trkpt><trkpt lat="46.105605" lon="13.4808383"><ele>301.66666666666663</ele><time>2026-05-03T07:50:53.252Z</time></trkpt><trkpt lat="46.1055483" lon="13.480915"><ele>303.5</ele><time>2026-05-03T07:50:54.252Z</time></trkpt><trkpt lat="46.1054967" lon="13.4809833"><ele>305.3333333333333</ele><time>2026-05-03T07:50:55.252Z</time></trkpt><trkpt lat="46.1054" lon="13.4810433"><ele>307.1666666666667</ele><time>2026-05-03T07:50:57.252Z</time></trkpt><trkpt lat="46.1053383" lon="13.4809633"><ele>309.0</ele><time>2026-05-03T07:50:59.252Z</time></trkpt><trkpt lat="46.1053067" lon="13.4807883"><ele>309.0</ele><time>2026-05-03T07:51:01.252Z</time></trkpt><trkpt lat="46.1053333" lon="13.48064"><ele>309.0</ele><time>2026-05-03T07:51:02.252Z</time></trkpt><trkpt lat="46.1053533" lon="13.4804817"><ele>309.0</ele><time>2026-05-03T07:51:03.252Z</time></trkpt><trkpt lat="46.10536" lon="13.4803317"><ele>309.0</ele><time>2026-05-03T07:51:04.252Z</time></trkpt><trkpt lat="46.1053617" lon="13.480185"><ele>309.0</ele><time>2026-05-03T07:51:05.252Z</time></trkpt><trkpt lat="46.1053733" lon="13.4800467"><ele>306.0</ele><time>2026-05-03T07:51:06.252Z</time></trkpt><trkpt lat="46.105375" lon="13.4799167"><ele>303.0</ele><time>2026-05-03T07:51:07.253Z</time></trkpt><trkpt lat="46.1053733" lon="13.4797983"><ele>300.0</ele><time>2026-05-03T07:51:08.252Z</time></trkpt><trkpt lat="46.1053567" lon="13.4796967"><ele>297.0</ele><time>2026-05-03T07:51:09.252Z</time></trkpt><trkpt lat="46.1053333" lon="13.4795967"><ele>294.0</ele><time>2026-05-03T07:51:10.252Z</time></trkpt><trkpt lat="46.1052817" lon="13.4795067"><ele>291.0</ele><time>2026-05-03T07:51:11.252Z</time></trkpt><trkpt lat="46.105205" lon="13.47944"><ele>287.2</ele><time>2026-05-03T07:51:12.252Z</time></trkpt><trkpt lat="46.1051133" lon="13.4793883"><ele>283.40000000000003</ele><time>2026-05-03T07:51:13.252Z</time></trkpt><trkpt lat="46.1050217" lon="13.4793467"><ele>279.6</ele><time>2026-05-03T07:51:14.252Z</time></trkpt><trkpt lat="46.10494" lon="13.4793083"><ele>275.8</ele><time>2026-05-03T07:51:15.252Z</time></trkpt><trkpt lat="46.1048517" lon="13.4792817"><ele>272.0</ele><time>2026-05-03T07:51:16.252Z</time></trkpt><trkpt lat="46.1047733" lon="13.4792567"><ele>272.0</ele><time>2026-05-03T07:51:17.252Z</time></trkpt><trkpt lat="46.10471" lon="13.4792183"><ele>272.0</ele><time>2026-05-03T07:51:18.252Z</time></trkpt><trkpt lat="46.1046567" lon="13.4791667"><ele>272.0</ele><time>2026-05-03T07:51:19.252Z</time></trkpt><trkpt lat="46.1046317" lon="13.4790817"><ele>272.0</ele><time>2026-05-03T07:51:20.252Z</time></trkpt><trkpt lat="46.1046067" lon="13.47896"><ele>272.0</ele><time>2026-05-03T07:51:21.252Z</time></trkpt><trkpt lat="46.10458" lon="13.4788"><ele>272.0</ele><time>2026-05-03T07:51:22.252Z</time></trkpt><trkpt lat="46.10454" lon="13.4786017"><ele>268.33333333333337</ele><time>2026-05-03T07:51:23.252Z</time></trkpt><trkpt lat="46.1044833" lon="13.4783917"><ele>264.6666666666667</ele><time>2026-05-03T07:51:24.252Z</time></trkpt><trkpt lat="46.1044367" lon="13.47817"><ele>261.0</ele><time>2026-05-03T07:51:25.252Z</time></trkpt><trkpt lat="46.104395" lon="13.4779683"><ele>258.5</ele><time>2026-05-03T07:51:26.252Z</time></trkpt><trkpt lat="46.104365" lon="13.477795"><ele>256.0</ele><time>2026-05-03T07:51:27.252Z</time></trkpt><trkpt lat="46.1043417" lon="13.4776633"><ele>253.5</ele><time>2026-05-03T07:51:28.252Z</time></trkpt><trkpt lat="46.1043117" lon="13.4775733"><ele>251.0</ele><time>2026-05-03T07:51:29.252Z</time></trkpt><trkpt lat="46.1042583" lon="13.4775233"><ele>248.5</ele><time>2026-05-03T07:51:30.252Z</time></trkpt><trkpt lat="46.1041883" lon="13.4775133"><ele>246.0</ele><time>2026-05-03T07:51:31.252Z</time></trkpt><trkpt lat="46.1041033" lon="13.47753"><ele>241.20000000000002</ele><time>2026-05-03T07:51:32.252Z</time></trkpt><trkpt lat="46.10401" lon="13.47756"><ele>236.40000000000003</ele><time>2026-05-03T07:51:33.252Z</time></trkpt><trkpt lat="46.10392" lon="13.4776"><ele>231.6</ele><time>2026-05-03T07:51:34.252Z</time></trkpt><trkpt lat="46.103835" lon="13.4776583"><ele>226.8</ele><time>2026-05-03T07:51:35.252Z</time></trkpt><trkpt lat="46.1037567" lon="13.47776"><ele>222.0</ele><time>2026-05-03T07:51:36.252Z</time></trkpt><trkpt lat="46.1036817" lon="13.47789"><ele>224.75</ele><time>2026-05-03T07:51:37.252Z</time></trkpt><trkpt lat="46.1036233" lon="13.478045"><ele>227.5</ele><time>2026-05-03T07:51:38.252Z</time></trkpt><trkpt lat="46.1035717" lon="13.478185"><ele>230.25</ele><time>2026-05-03T07:51:39.252Z</time></trkpt><trkpt lat="46.1035167" lon="13.4783283"><ele>233.0</ele><time>2026-05-03T07:51:40.252Z</time></trkpt><trkpt lat="46.1034567" lon="13.47847"><ele>233.0</ele><time>2026-05-03T07:51:41.252Z</time></trkpt><trkpt lat="46.1033933" lon="13.4786"><ele>233.0</ele><time>2026-05-03T07:51:42.252Z</time></trkpt><trkpt lat="46.10334" lon="13.478735"><ele>233.0</ele><time>2026-05-03T07:51:43.252Z</time></trkpt><trkpt lat="46.103285" lon="13.4788817"><ele>233.0</ele><time>2026-05-03T07:51:44.252Z</time></trkpt><trkpt lat="46.1032267" lon="13.47903"><ele>231.0</ele><time>2026-05-03T07:51:45.252Z</time></trkpt><trkpt lat="46.1031683" lon="13.4791833"><ele>229.0</ele><time>2026-05-03T07:51:46.252Z</time></trkpt><trkpt lat="46.103115" lon="13.4793467"><ele>227.0</ele><time>2026-05-03T07:51:47.252Z</time></trkpt><trkpt lat="46.1030617" lon="13.479495"><ele>225.0</ele><time>2026-05-03T07:51:48.252Z</time></trkpt><trkpt lat="46.1029933" lon="13.4796433"><ele>225.0</ele><time>2026-05-03T07:51:49.252Z</time></trkpt><trkpt lat="46.1029217" lon="13.4797817"><ele>225.0</ele><time>2026-05-03T07:51:50.252Z</time></trkpt><trkpt lat="46.1028417" lon="13.4799"><ele>225.0</ele><time>2026-05-03T07:51:51.252Z</time></trkpt><trkpt lat="46.1027483" lon="13.4799917"><ele>225.0</ele><time>2026-05-03T07:51:52.252Z</time></trkpt><trkpt lat="46.1026267" lon="13.4800467"><ele>225.0</ele><time>2026-05-03T07:51:53.253Z</time></trkpt><trkpt lat="46.1025033" lon="13.4800983"><ele>225.0</ele><time>2026-05-03T07:51:54.252Z</time></trkpt><trkpt lat="46.1024033" lon="13.48018"><ele>225.0</ele><time>2026-05-03T07:51:55.252Z</time></trkpt><trkpt lat="46.1023" lon="13.4802683"><ele>225.0</ele><time>2026-05-03T07:51:56.252Z</time></trkpt><trkpt lat="46.1022033" lon="13.48035"><ele>220.75</ele><time>2026-05-03T07:51:57.252Z</time></trkpt><trkpt lat="46.1021117" lon="13.4804433"><ele>216.5</ele><time>2026-05-03T07:51:58.252Z</time></trkpt><trkpt lat="46.1020183" lon="13.48056"><ele>212.25</ele><time>2026-05-03T07:51:59.252Z</time></trkpt><trkpt lat="46.1019367" lon="13.4807"><ele>208.0</ele><time>2026-05-03T07:52:00.252Z</time></trkpt><trkpt lat="46.1018633" lon="13.4808433"><ele>208.0</ele><time>2026-05-03T07:52:01.253Z</time></trkpt><trkpt lat="46.1017983" lon="13.4809917"><ele>208.0</ele><time>2026-05-03T07:52:02.252Z</time></trkpt><trkpt lat="46.10174" lon="13.4811417"><ele>208.0</ele><time>2026-05-03T07:52:03.252Z</time></trkpt><trkpt lat="46.1017067" lon="13.4812867"><ele>208.0</ele><time>2026-05-03T07:52:04.252Z</time></trkpt><trkpt lat="46.101685" lon="13.481415"><ele>208.0</ele><time>2026-05-03T07:52:05.252Z</time></trkpt><trkpt lat="46.1016633" lon="13.4815183"><ele>207.83333333333331</ele><time>2026-05-03T07:52:06.252Z</time></trkpt><trkpt lat="46.1015617" lon="13.4815917"><ele>207.66666666666666</ele><time>2026-05-03T07:52:08.252Z</time></trkpt><trkpt lat="46.10148" lon="13.4815633"><ele>207.5</ele><time>2026-05-03T07:52:09.252Z</time></trkpt><trkpt lat="46.1013967" lon="13.4815383"><ele>207.33333333333331</ele><time>2026-05-03T07:52:10.252Z</time></trkpt><trkpt lat="46.1013183" lon="13.481545"><ele>207.16666666666666</ele><time>2026-05-03T07:52:11.252Z</time></trkpt><trkpt lat="46.1012483" lon="13.48161"><ele>207.0</ele><time>2026-05-03T07:52:12.252Z</time></trkpt><trkpt lat="46.10117" lon="13.4816867"><ele>207.0</ele><time>2026-05-03T07:52:13.252Z</time></trkpt><trkpt lat="46.10109" lon="13.4817583"><ele>207.0</ele><time>2026-05-03T07:52:14.252Z</time></trkpt><trkpt lat="46.1010067" lon="13.4818083"><ele>207.0</ele><time>2026-05-03T07:52:15.252Z</time></trkpt><trkpt lat="46.100915" lon="13.4818283"><ele>207.0</ele><time>2026-05-03T07:52:16.252Z</time></trkpt><trkpt lat="46.10082" lon="13.4818083"><ele>207.0</ele><time>2026-05-03T07:52:17.252Z</time></trkpt><trkpt lat="46.10073" lon="13.48174"><ele>205.8</ele><time>2026-05-03T07:52:18.252Z</time></trkpt><trkpt lat="46.1006367" lon="13.4816483"><ele>204.6</ele><time>2026-05-03T07:52:19.252Z</time></trkpt><trkpt lat="46.1005417" lon="13.4815667"><ele>203.4</ele><time>2026-05-03T07:52:20.252Z</time></trkpt><trkpt lat="46.1004583" lon="13.481465"><ele>202.20000000000002</ele><time>2026-05-03T07:52:21.252Z</time></trkpt><trkpt lat="46.100385" lon="13.48136"><ele>201.0</ele><time>2026-05-03T07:52:22.252Z</time></trkpt><trkpt lat="46.1003183" lon="13.48125"><ele>197.66666666666666</ele><time>2026-05-03T07:52:23.252Z</time></trkpt><trkpt lat="46.1002483" lon="13.4811483"><ele>194.33333333333334</ele><time>2026-05-03T07:52:24.252Z</time></trkpt><trkpt lat="46.1001867" lon="13.48106"><ele>191.0</ele><time>2026-05-03T07:52:25.252Z</time></trkpt><trkpt lat="46.1001233" lon="13.4809867"><ele>187.66666666666669</ele><time>2026-05-03T07:52:26.252Z</time></trkpt><trkpt lat="46.1000583" lon="13.480955"><ele>184.33333333333334</ele><time>2026-05-03T07:52:27.252Z</time></trkpt><trkpt lat="46.0999817" lon="13.48097"><ele>181.0</ele><time>2026-05-03T07:52:28.252Z</time></trkpt><trkpt lat="46.0999217" lon="13.48103"><ele>180.0</ele><time>2026-05-03T07:52:29.252Z</time></trkpt><trkpt lat="46.0998633" lon="13.481115"><ele>179.0</ele><time>2026-05-03T07:52:30.252Z</time></trkpt><trkpt lat="46.0998017" lon="13.4812167"><ele>178.0</ele><time>2026-05-03T07:52:31.252Z</time></trkpt><trkpt lat="46.099755" lon="13.481335"><ele>177.0</ele><time>2026-05-03T07:52:32.252Z</time></trkpt><trkpt lat="46.09969" lon="13.48141"><ele>176.0</ele><time>2026-05-03T07:52:33.252Z</time></trkpt><trkpt lat="46.099615" lon="13.48143"><ele>175.0</ele><time>2026-05-03T07:52:34.252Z</time></trkpt><trkpt lat="46.0995483" lon="13.48143"><ele>175.0</ele><time>2026-05-03T07:52:35.252Z</time></trkpt><trkpt lat="46.09952" lon="13.4812933"><ele>175.0</ele><time>2026-05-03T07:52:37.252Z</time></trkpt><trkpt lat="46.0995633" lon="13.4812083"><ele>175.0</ele><time>2026-05-03T07:52:38.252Z</time></trkpt><trkpt lat="46.0996167" lon="13.4811417"><ele>175.0</ele><time>2026-05-03T07:52:39.252Z</time></trkpt><trkpt lat="46.099675" lon="13.481085"><ele>175.0</ele><time>2026-05-03T07:52:40.252Z</time></trkpt><trkpt lat="46.0997267" lon="13.4810283"><ele>175.0</ele><time>2026-05-03T07:52:41.252Z</time></trkpt><trkpt lat="46.0997683" lon="13.48095"><ele>175.0</ele><time>2026-05-03T07:52:43.252Z</time></trkpt><trkpt lat="46.0998033" lon="13.48082"><ele>174.0</ele><time>2026-05-03T07:52:59.252Z</time></trkpt><trkpt lat="46.0998633" lon="13.4806383"><ele>173.0</ele><time>2026-05-03T07:53:01.252Z</time></trkpt><trkpt lat="46.0999167" lon="13.480545"><ele>172.0</ele><time>2026-05-03T07:53:02.252Z</time></trkpt><trkpt lat="46.0999933" lon="13.4804767"><ele>171.0</ele><time>2026-05-03T07:53:03.252Z</time></trkpt><trkpt lat="46.10007" lon="13.48047"><ele>170.0</ele><time>2026-05-03T07:53:04.252Z</time></trkpt><trkpt lat="46.1001367" lon="13.4805217"><ele>172.2</ele><time>2026-05-03T07:53:05.252Z</time></trkpt><trkpt lat="46.1001883" lon="13.4805983"><ele>174.4</ele><time>2026-05-03T07:53:06.252Z</time></trkpt><trkpt lat="46.10025" lon="13.4806817"><ele>176.60000000000002</ele><time>2026-05-03T07:53:07.252Z</time></trkpt><trkpt lat="46.1003183" lon="13.48077"><ele>178.8</ele><time>2026-05-03T07:53:08.252Z</time></trkpt><trkpt lat="46.1004033" lon="13.4808467"><ele>181.0</ele><time>2026-05-03T07:53:09.252Z</time></trkpt><trkpt lat="46.1005033" lon="13.480915"><ele>181.0</ele><time>2026-05-03T07:53:10.252Z</time></trkpt><trkpt lat="46.10059" lon="13.480965"><ele>181.0</ele><time>2026-05-03T07:53:11.252Z</time></trkpt><trkpt lat="46.1006567" lon="13.4809883"><ele>181.0</ele><time>2026-05-03T07:53:12.252Z</time></trkpt><trkpt lat="46.1007483" lon="13.4808883"><ele>181.0</ele><time>2026-05-03T07:53:14.252Z</time></trkpt><trkpt lat="46.1008017" lon="13.480745"><ele>181.0</ele><time>2026-05-03T07:53:15.252Z</time></trkpt><trkpt lat="46.10086" lon="13.4805567"><ele>175.66666666666669</ele><time>2026-05-03T07:53:16.253Z</time></trkpt><trkpt lat="46.10091" lon="13.4803433"><ele>170.33333333333334</ele><time>2026-05-03T07:53:17.252Z</time></trkpt><trkpt lat="46.1009433" lon="13.4801333"><ele>165.0</ele><time>2026-05-03T07:53:18.252Z</time></trkpt><trkpt lat="46.1009733" lon="13.4799233"><ele>165.0</ele><time>2026-05-03T07:53:19.252Z</time></trkpt><trkpt lat="46.1010017" lon="13.479725"><ele>165.0</ele><time>2026-05-03T07:53:20.252Z</time></trkpt><trkpt lat="46.1010367" lon="13.47954"><ele>165.0</ele><time>2026-05-03T07:53:21.252Z</time></trkpt><trkpt lat="46.1010733" lon="13.479395"><ele>165.0</ele><time>2026-05-03T07:53:22.253Z</time></trkpt><trkpt lat="46.1011217" lon="13.47929"><ele>164.16666666666666</ele><time>2026-05-03T07:53:23.252Z</time></trkpt><trkpt lat="46.1011767" lon="13.479215"><ele>163.33333333333334</ele><time>2026-05-03T07:53:24.252Z</time></trkpt><trkpt lat="46.1012517" lon="13.4791817"><ele>162.5</ele><time>2026-05-03T07:53:25.252Z</time></trkpt><trkpt lat="46.10132" lon="13.479145"><ele>161.66666666666669</ele><time>2026-05-03T07:53:26.252Z</time></trkpt><trkpt lat="46.1013983" lon="13.479085"><ele>160.83333333333334</ele><time>2026-05-03T07:53:27.252Z</time></trkpt><trkpt lat="46.1014783" lon="13.4790133"><ele>160.0</ele><time>2026-05-03T07:53:28.252Z</time></trkpt><trkpt lat="46.1015517" lon="13.4789283"><ele>160.4</ele><time>2026-05-03T07:53:29.252Z</time></trkpt><trkpt lat="46.101615" lon="13.478835"><ele>160.8</ele><time>2026-05-03T07:53:30.252Z</time></trkpt><trkpt lat="46.1016583" lon="13.4787317"><ele>161.2</ele><time>2026-05-03T07:53:31.252Z</time></trkpt><trkpt lat="46.10171" lon="13.47861"><ele>161.6</ele><time>2026-05-03T07:53:32.252Z</time></trkpt><trkpt lat="46.1017467" lon="13.4784867"><ele>162.0</ele><time>2026-05-03T07:53:33.252Z</time></trkpt><trkpt lat="46.1017667" lon="13.4783667"><ele>162.0</ele><time>2026-05-03T07:53:34.252Z</time></trkpt><trkpt lat="46.1017867" lon="13.4782217"><ele>162.0</ele><time>2026-05-03T07:53:35.252Z</time></trkpt><trkpt lat="46.1018017" lon="13.4780667"><ele>162.0</ele><time>2026-05-03T07:53:36.252Z</time></trkpt><trkpt lat="46.1018117" lon="13.4779233"><ele>162.0</ele><time>2026-05-03T07:53:37.252Z</time></trkpt><trkpt lat="46.1018117" lon="13.4777767"><ele>162.0</ele><time>2026-05-03T07:53:38.252Z</time></trkpt><trkpt lat="46.101815" lon="13.477635"><ele>161.25</ele><time>2026-05-03T07:53:39.252Z</time></trkpt><trkpt lat="46.10182" lon="13.4774833"><ele>160.5</ele><time>2026-05-03T07:53:40.252Z</time></trkpt><trkpt lat="46.1018433" lon="13.477325"><ele>159.75</ele><time>2026-05-03T07:53:41.252Z</time></trkpt><trkpt lat="46.1018583" lon="13.4771583"><ele>159.0</ele><time>2026-05-03T07:53:42.252Z</time></trkpt><trkpt lat="46.1018683" lon="13.4769817"><ele>159.0</ele><time>2026-05-03T07:53:43.252Z</time></trkpt><trkpt lat="46.10187" lon="13.47681"><ele>159.0</ele><time>2026-05-03T07:53:44.252Z</time></trkpt><trkpt lat="46.101855" lon="13.4766367"><ele>159.0</ele><time>2026-05-03T07:53:45.253Z</time></trkpt><trkpt lat="46.10184" lon="13.4764883"><ele>159.0</ele><time>2026-05-03T07:53:46.252Z</time></trkpt><trkpt lat="46.1018383" lon="13.47635"><ele>159.0</ele><time>2026-05-03T07:53:47.252Z</time></trkpt><trkpt lat="46.1018417" lon="13.4762267"><ele>159.0</ele><time>2026-05-03T07:53:48.252Z</time></trkpt><trkpt lat="46.1018567" lon="13.476105"><ele>159.0</ele><time>2026-05-03T07:53:49.252Z</time></trkpt><trkpt lat="46.1018717" lon="13.4759933"><ele>159.0</ele><time>2026-05-03T07:53:50.252Z</time></trkpt><trkpt lat="46.1018667" lon="13.4758917"><ele>159.0</ele><time>2026-05-03T07:53:51.252Z</time></trkpt><trkpt lat="46.10185" lon="13.4757833"><ele>159.0</ele><time>2026-05-03T07:53:52.252Z</time></trkpt><trkpt lat="46.10183" lon="13.475675"><ele>159.0</ele><time>2026-05-03T07:53:53.252Z</time></trkpt><trkpt lat="46.101805" lon="13.475575"><ele>158.8</ele><time>2026-05-03T07:53:54.252Z</time></trkpt><trkpt lat="46.1018183" lon="13.4753933"><ele>158.60000000000002</ele><time>2026-05-03T07:53:56.252Z</time></trkpt><trkpt lat="46.1018017" lon="13.475275"><ele>158.4</ele><time>2026-05-03T07:53:59.252Z</time></trkpt><trkpt lat="46.1017033" lon="13.4751883"><ele>158.20000000000002</ele><time>2026-05-03T07:54:01.252Z</time></trkpt><trkpt lat="46.10164" lon="13.4751233"><ele>158.0</ele><time>2026-05-03T07:54:02.252Z</time></trkpt><trkpt lat="46.10157" lon="13.4750483"><ele>157.16666666666666</ele><time>2026-05-03T07:54:03.253Z</time></trkpt><trkpt lat="46.10151" lon="13.4749683"><ele>156.33333333333331</ele><time>2026-05-03T07:54:04.252Z</time></trkpt><trkpt lat="46.1014467" lon="13.4748883"><ele>155.5</ele><time>2026-05-03T07:54:05.252Z</time></trkpt><trkpt lat="46.1013817" lon="13.47481"><ele>154.66666666666666</ele><time>2026-05-03T07:54:06.252Z</time></trkpt><trkpt lat="46.1012983" lon="13.4747333"><ele>153.83333333333334</ele><time>2026-05-03T07:54:07.252Z</time></trkpt><trkpt lat="46.1012117" lon="13.4746783"><ele>153.0</ele><time>2026-05-03T07:54:08.252Z</time></trkpt><trkpt lat="46.1011233" lon="13.4746217"><ele>153.16666666666666</ele><time>2026-05-03T07:54:09.252Z</time></trkpt><trkpt lat="46.1010433" lon="13.474555"><ele>153.33333333333334</ele><time>2026-05-03T07:54:10.252Z</time></trkpt><trkpt lat="46.1009617" lon="13.47449"><ele>153.5</ele><time>2026-05-03T07:54:11.252Z</time></trkpt><trkpt lat="46.100885" lon="13.4744317"><ele>153.66666666666669</ele><time>2026-05-03T07:54:12.252Z</time></trkpt><trkpt lat="46.1008133" lon="13.4743717"><ele>153.83333333333334</ele><time>2026-05-03T07:54:13.252Z</time></trkpt><trkpt lat="46.1007433" lon="13.47432"><ele>154.0</ele><time>2026-05-03T07:54:14.252Z</time></trkpt><trkpt lat="46.10067" lon="13.4742767"><ele>153.66666666666669</ele><time>2026-05-03T07:54:15.252Z</time></trkpt><trkpt lat="46.1005933" lon="13.47423"><ele>153.33333333333334</ele><time>2026-05-03T07:54:16.252Z</time></trkpt><trkpt lat="46.1005133" lon="13.474185"><ele>153.0</ele><time>2026-05-03T07:54:17.252Z</time></trkpt><trkpt lat="46.1004367" lon="13.4741467"><ele>152.66666666666666</ele><time>2026-05-03T07:54:18.252Z</time></trkpt><trkpt lat="46.1003617" lon="13.4741083"><ele>152.33333333333331</ele><time>2026-05-03T07:54:19.252Z</time></trkpt><trkpt lat="46.1002767" lon="13.4740733"><ele>152.0</ele><time>2026-05-03T07:54:20.252Z</time></trkpt><trkpt lat="46.1001883" lon="13.474045"><ele>152.0</ele><time>2026-05-03T07:54:21.252Z</time></trkpt><trkpt lat="46.1001017" lon="13.4740233"><ele>152.0</ele><time>2026-05-03T07:54:22.252Z</time></trkpt><trkpt lat="46.10001" lon="13.4740017"><ele>152.0</ele><time>2026-05-03T07:54:23.252Z</time></trkpt><trkpt lat="46.0999167" lon="13.4739583"><ele>152.0</ele><time>2026-05-03T07:54:24.252Z</time></trkpt><trkpt lat="46.0998233" lon="13.47391"><ele>152.0</ele><time>2026-05-03T07:54:25.252Z</time></trkpt><trkpt lat="46.0997367" lon="13.4738667"><ele>151.66666666666666</ele><time>2026-05-03T07:54:26.252Z</time></trkpt><trkpt lat="46.099655" lon="13.4738733"><ele>151.33333333333331</ele><time>2026-05-03T07:54:27.253Z</time></trkpt><trkpt lat="46.09957" lon="13.4738533"><ele>151.0</ele><time>2026-05-03T07:54:28.252Z</time></trkpt><trkpt lat="46.0994833" lon="13.473825"><ele>150.66666666666666</ele><time>2026-05-03T07:54:29.252Z</time></trkpt><trkpt lat="46.0994" lon="13.4737817"><ele>150.33333333333334</ele><time>2026-05-03T07:54:30.252Z</time></trkpt><trkpt lat="46.0993217" lon="13.4737117"><ele>150.0</ele><time>2026-05-03T07:54:31.252Z</time></trkpt><trkpt lat="46.09926" lon="13.4736067"><ele>150.0</ele><time>2026-05-03T07:54:32.252Z</time></trkpt><trkpt lat="46.099215" lon="13.47345"><ele>150.0</ele><time>2026-05-03T07:54:33.252Z</time></trkpt><trkpt lat="46.0991917" lon="13.473275"><ele>150.0</ele><time>2026-05-03T07:54:34.252Z</time></trkpt><trkpt lat="46.099185" lon="13.4731183"><ele>150.0</ele><time>2026-05-03T07:54:35.252Z</time></trkpt><trkpt lat="46.099185" lon="13.47296"><ele>149.83333333333334</ele><time>2026-05-03T07:54:36.252Z</time></trkpt><trkpt lat="46.0991867" lon="13.4728033"><ele>149.66666666666666</ele><time>2026-05-03T07:54:37.252Z</time></trkpt><trkpt lat="46.0991833" lon="13.4726617"><ele>149.5</ele><time>2026-05-03T07:54:38.252Z</time></trkpt><trkpt lat="46.0991833" lon="13.4725317"><ele>149.33333333333331</ele><time>2026-05-03T07:54:39.252Z</time></trkpt><trkpt lat="46.0991883" lon="13.47242"><ele>149.16666666666666</ele><time>2026-05-03T07:54:40.252Z</time></trkpt><trkpt lat="46.09919" lon="13.4723133"><ele>149.0</ele><time>2026-05-03T07:54:41.252Z</time></trkpt><trkpt lat="46.0991733" lon="13.4721883"><ele>148.5</ele><time>2026-05-03T07:54:42.252Z</time></trkpt><trkpt lat="46.0991333" lon="13.472055"><ele>148.0</ele><time>2026-05-03T07:54:43.252Z</time></trkpt><trkpt lat="46.0990717" lon="13.4719083"><ele>147.5</ele><time>2026-05-03T07:54:44.252Z</time></trkpt><trkpt lat="46.099" lon="13.4717517"><ele>147.0</ele><time>2026-05-03T07:54:45.252Z</time></trkpt><trkpt lat="46.0989283" lon="13.4715917"><ele>147.0</ele><time>2026-05-03T07:54:46.252Z</time></trkpt><trkpt lat="46.0988617" lon="13.4714233"><ele>147.0</ele><time>2026-05-03T07:54:47.252Z</time></trkpt><trkpt lat="46.0988017" lon="13.47124"><ele>147.0</ele><time>2026-05-03T07:54:48.252Z</time></trkpt><trkpt lat="46.0987367" lon="13.4710633"><ele>147.0</ele><time>2026-05-03T07:54:49.252Z</time></trkpt><trkpt lat="46.09868" lon="13.4708817"><ele>146.66666666666666</ele><time>2026-05-03T07:54:50.252Z</time></trkpt><trkpt lat="46.0986267" lon="13.4706733"><ele>146.33333333333331</ele><time>2026-05-03T07:54:51.252Z</time></trkpt><trkpt lat="46.0985717" lon="13.4704433"><ele>146.0</ele><time>2026-05-03T07:54:52.252Z</time></trkpt><trkpt lat="46.0985233" lon="13.4701917"><ele>146.0</ele><time>2026-05-03T07:54:53.253Z</time></trkpt><trkpt lat="46.0984883" lon="13.4699317"><ele>146.0</ele><time>2026-05-03T07:54:54.252Z</time></trkpt><trkpt lat="46.0984733" lon="13.4696683"><ele>146.0</ele><time>2026-05-03T07:54:55.252Z</time></trkpt><trkpt lat="46.0985033" lon="13.4694067"><ele>146.0</ele><time>2026-05-03T07:54:56.252Z</time></trkpt><trkpt lat="46.0985633" lon="13.46916"><ele>146.0</ele><time>2026-05-03T07:54:57.252Z</time></trkpt><trkpt lat="46.098635" lon="13.468905"><ele>146.0</ele><time>2026-05-03T07:54:58.252Z</time></trkpt><trkpt lat="46.0987083" lon="13.46865"><ele>146.0</ele><time>2026-05-03T07:54:59.252Z</time></trkpt><trkpt lat="46.0987733" lon="13.4683817"><ele>146.0</ele><time>2026-05-03T07:55:00.252Z</time></trkpt><trkpt lat="46.09884" lon="13.4681117"><ele>146.0</ele><time>2026-05-03T07:55:01.252Z</time></trkpt><trkpt lat="46.0989067" lon="13.467845"><ele>145.66666666666666</ele><time>2026-05-03T07:55:02.252Z</time></trkpt><trkpt lat="46.09898" lon="13.4675867"><ele>145.33333333333334</ele><time>2026-05-03T07:55:03.252Z</time></trkpt><trkpt lat="46.0990517" lon="13.4673267"><ele>145.0</ele><time>2026-05-03T07:55:04.252Z</time></trkpt><trkpt lat="46.0991167" lon="13.4670717"><ele>145.0</ele><time>2026-05-03T07:55:05.252Z</time></trkpt><trkpt lat="46.09918" lon="13.466815"><ele>145.0</ele><time>2026-05-03T07:55:06.252Z</time></trkpt><trkpt lat="46.0992417" lon="13.466555"><ele>145.0</ele><time>2026-05-03T07:55:07.252Z</time></trkpt><trkpt lat="46.099305" lon="13.4662967"><ele>144.66666666666669</ele><time>2026-05-03T07:55:08.252Z</time></trkpt><trkpt lat="46.099375" lon="13.4660217"><ele>144.33333333333334</ele><time>2026-05-03T07:55:09.252Z</time></trkpt><trkpt lat="46.0994417" lon="13.4657633"><ele>144.0</ele><time>2026-05-03T07:55:10.252Z</time></trkpt><trkpt lat="46.0995" lon="13.465505"><ele>144.0</ele><time>2026-05-03T07:55:11.252Z</time></trkpt><trkpt lat="46.099555" lon="13.46525"><ele>144.0</ele><time>2026-05-03T07:55:12.252Z</time></trkpt><trkpt lat="46.0996067" lon="13.4650017"><ele>144.0</ele><time>2026-05-03T07:55:13.252Z</time></trkpt><trkpt lat="46.09965" lon="13.4647567"><ele>144.33333333333334</ele><time>2026-05-03T07:55:14.252Z</time></trkpt><trkpt lat="46.09969" lon="13.4645167"><ele>144.66666666666669</ele><time>2026-05-03T07:55:15.252Z</time></trkpt><trkpt lat="46.099725" lon="13.464295"><ele>145.0</ele><time>2026-05-03T07:55:16.252Z</time></trkpt><trkpt lat="46.0997467" lon="13.4641067"><ele>145.0</ele><time>2026-05-03T07:55:17.252Z</time></trkpt><trkpt lat="46.0997683" lon="13.4639283"><ele>145.0</ele><time>2026-05-03T07:55:18.252Z</time></trkpt><trkpt lat="46.099795" lon="13.4637883"><ele>145.0</ele><time>2026-05-03T07:55:19.252Z</time></trkpt><trkpt lat="46.0998083" lon="13.463665"><ele>145.0</ele><time>2026-05-03T07:55:20.252Z</time></trkpt><trkpt lat="46.0998" lon="13.46356"><ele>145.0</ele><time>2026-05-03T07:55:21.252Z</time></trkpt><trkpt lat="46.0997717" lon="13.4634417"><ele>145.25</ele><time>2026-05-03T07:55:22.252Z</time></trkpt><trkpt lat="46.0997033" lon="13.463295"><ele>145.5</ele><time>2026-05-03T07:55:23.252Z</time></trkpt><trkpt lat="46.0996233" lon="13.46312"><ele>145.75</ele><time>2026-05-03T07:55:24.252Z</time></trkpt><trkpt lat="46.0995283" lon="13.4629317"><ele>146.0</ele><time>2026-05-03T07:55:25.252Z</time></trkpt><trkpt lat="46.0994417" lon="13.462735"><ele>146.0</ele><time>2026-05-03T07:55:26.252Z</time></trkpt><trkpt lat="46.0993567" lon="13.4625217"><ele>146.0</ele><time>2026-05-03T07:55:27.252Z</time></trkpt><trkpt lat="46.0992683" lon="13.4623017"><ele>146.0</ele><time>2026-05-03T07:55:28.252Z</time></trkpt><trkpt lat="46.099185" lon="13.462075"><ele>145.66666666666666</ele><time>2026-05-03T07:55:29.252Z</time></trkpt><trkpt lat="46.0991167" lon="13.4618267"><ele>145.33333333333334</ele><time>2026-05-03T07:55:30.252Z</time></trkpt><trkpt lat="46.099045" lon="13.46158"><ele>145.0</ele><time>2026-05-03T07:55:31.252Z</time></trkpt><trkpt lat="46.0989717" lon="13.4613267"><ele>144.66666666666669</ele><time>2026-05-03T07:55:32.252Z</time></trkpt><trkpt lat="46.09889" lon="13.4610783"><ele>144.33333333333334</ele><time>2026-05-03T07:55:33.252Z</time></trkpt><trkpt lat="46.0988083" lon="13.460825"><ele>144.0</ele><time>2026-05-03T07:55:34.252Z</time></trkpt><trkpt lat="46.0987317" lon="13.4605633"><ele>143.66666666666666</ele><time>2026-05-03T07:55:35.252Z</time></trkpt><trkpt lat="46.098665" lon="13.460305"><ele>143.33333333333331</ele><time>2026-05-03T07:55:36.252Z</time></trkpt><trkpt lat="46.0986033" lon="13.4600433"><ele>143.0</ele><time>2026-05-03T07:55:37.252Z</time></trkpt><trkpt lat="46.098535" lon="13.4597817"><ele>142.66666666666666</ele><time>2026-05-03T07:55:38.252Z</time></trkpt><trkpt lat="46.0984683" lon="13.45952"><ele>142.33333333333334</ele><time>2026-05-03T07:55:39.252Z</time></trkpt><trkpt lat="46.0984017" lon="13.4592517"><ele>142.0</ele><time>2026-05-03T07:55:40.252Z</time></trkpt><trkpt lat="46.098335" lon="13.458985"><ele>141.66666666666669</ele><time>2026-05-03T07:55:41.252Z</time></trkpt><trkpt lat="46.0982767" lon="13.4587267"><ele>141.33333333333334</ele><time>2026-05-03T07:55:42.252Z</time></trkpt><trkpt lat="46.0982133" lon="13.4584683"><ele>141.0</ele><time>2026-05-03T07:55:43.252Z</time></trkpt><trkpt lat="46.098155" lon="13.4582067"><ele>140.66666666666666</ele><time>2026-05-03T07:55:44.252Z</time></trkpt><trkpt lat="46.09809" lon="13.4579533"><ele>140.33333333333331</ele><time>2026-05-03T07:55:45.252Z</time></trkpt><trkpt lat="46.09803" lon="13.4577067"><ele>140.0</ele><time>2026-05-03T07:55:46.252Z</time></trkpt><trkpt lat="46.0979717" lon="13.4574683"><ele>140.0</ele><time>2026-05-03T07:55:47.252Z</time></trkpt><trkpt lat="46.09791" lon="13.4572383"><ele>140.0</ele><time>2026-05-03T07:55:48.252Z</time></trkpt><trkpt lat="46.0978517" lon="13.4570067"><ele>140.0</ele><time>2026-05-03T07:55:49.252Z</time></trkpt><trkpt lat="46.0977933" lon="13.4567783"><ele>140.33333333333331</ele><time>2026-05-03T07:55:50.252Z</time></trkpt><trkpt lat="46.0977267" lon="13.45655"><ele>140.66666666666666</ele><time>2026-05-03T07:55:51.253Z</time></trkpt><trkpt lat="46.0976533" lon="13.4563333"><ele>141.0</ele><time>2026-05-03T07:55:52.252Z</time></trkpt><trkpt lat="46.0975667" lon="13.45612"><ele>141.0</ele><time>2026-05-03T07:55:53.252Z</time></trkpt><trkpt lat="46.0974783" lon="13.4559083"><ele>141.0</ele><time>2026-05-03T07:55:54.252Z</time></trkpt><trkpt lat="46.097395" lon="13.4556933"><ele>141.0</ele><time>2026-05-03T07:55:55.252Z</time></trkpt><trkpt lat="46.097315" lon="13.4554833"><ele>141.33333333333334</ele><time>2026-05-03T07:55:56.252Z</time></trkpt><trkpt lat="46.0972467" lon="13.4552617"><ele>141.66666666666669</ele><time>2026-05-03T07:55:57.252Z</time></trkpt><trkpt lat="46.0971667" lon="13.4550433"><ele>142.0</ele><time>2026-05-03T07:55:58.252Z</time></trkpt><trkpt lat="46.0970833" lon="13.4548367"><ele>142.0</ele><time>2026-05-03T07:55:59.252Z</time></trkpt><trkpt lat="46.0969967" lon="13.4546317"><ele>142.0</ele><time>2026-05-03T07:56:00.252Z</time></trkpt><trkpt lat="46.0969067" lon="13.4544333"><ele>142.0</ele><time>2026-05-03T07:56:01.252Z</time></trkpt><trkpt lat="46.0968167" lon="13.4542417"><ele>141.33333333333334</ele><time>2026-05-03T07:56:02.252Z</time></trkpt><trkpt lat="46.09672" lon="13.4540533"><ele>140.66666666666666</ele><time>2026-05-03T07:56:03.252Z</time></trkpt><trkpt lat="46.0966267" lon="13.4538633"><ele>140.0</ele><time>2026-05-03T07:56:04.252Z</time></trkpt><trkpt lat="46.0965367" lon="13.4536767"><ele>140.0</ele><time>2026-05-03T07:56:05.252Z</time></trkpt><trkpt lat="46.0964367" lon="13.453505"><ele>140.0</ele><time>2026-05-03T07:56:06.252Z</time></trkpt><trkpt lat="46.0963533" lon="13.453335"><ele>140.0</ele><time>2026-05-03T07:56:07.252Z</time></trkpt><trkpt lat="46.0962683" lon="13.4531733"><ele>140.0</ele><time>2026-05-03T07:56:08.252Z</time></trkpt><trkpt lat="46.0961767" lon="13.4530283"><ele>140.25</ele><time>2026-05-03T07:56:09.252Z</time></trkpt><trkpt lat="46.0960817" lon="13.4528883"><ele>140.5</ele><time>2026-05-03T07:56:10.252Z</time></trkpt><trkpt lat="46.095995" lon="13.4527567"><ele>140.75</ele><time>2026-05-03T07:56:11.252Z</time></trkpt><trkpt lat="46.0959067" lon="13.4526283"><ele>141.0</ele><time>2026-05-03T07:56:12.252Z</time></trkpt><trkpt lat="46.0958183" lon="13.4525033"><ele>140.5</ele><time>2026-05-03T07:56:13.252Z</time></trkpt><trkpt lat="46.0957483" lon="13.4523717"><ele>140.0</ele><time>2026-05-03T07:56:14.252Z</time></trkpt><trkpt lat="46.0956683" lon="13.4522517"><ele>139.5</ele><time>2026-05-03T07:56:15.252Z</time></trkpt><trkpt lat="46.0955883" lon="13.4521383"><ele>139.0</ele><time>2026-05-03T07:56:16.253Z</time></trkpt><trkpt lat="46.0955233" lon="13.4519917"><ele>139.0</ele><time>2026-05-03T07:56:17.252Z</time></trkpt><trkpt lat="46.0954483" lon="13.45184"><ele>139.0</ele><time>2026-05-03T07:56:18.252Z</time></trkpt><trkpt lat="46.0953733" lon="13.4516917"><ele>139.0</ele><time>2026-05-03T07:56:19.252Z</time></trkpt><trkpt lat="46.0952917" lon="13.4515483"><ele>139.0</ele><time>2026-05-03T07:56:20.252Z</time></trkpt><trkpt lat="46.0952033" lon="13.45141"><ele>139.0</ele><time>2026-05-03T07:56:21.252Z</time></trkpt><trkpt lat="46.0951067" lon="13.45128"><ele>139.0</ele><time>2026-05-03T07:56:22.252Z</time></trkpt><trkpt lat="46.0950083" lon="13.451155"><ele>139.0</ele><time>2026-05-03T07:56:23.252Z</time></trkpt><trkpt lat="46.0949083" lon="13.4510167"><ele>139.0</ele><time>2026-05-03T07:56:24.252Z</time></trkpt><trkpt lat="46.0948" lon="13.4508933"><ele>138.75</ele><time>2026-05-03T07:56:25.252Z</time></trkpt><trkpt lat="46.0947" lon="13.4507767"><ele>138.5</ele><time>2026-05-03T07:56:26.252Z</time></trkpt><trkpt lat="46.0946083" lon="13.4506683"><ele>138.25</ele><time>2026-05-03T07:56:27.252Z</time></trkpt><trkpt lat="46.0945167" lon="13.4505583"><ele>138.0</ele><time>2026-05-03T07:56:28.252Z</time></trkpt><trkpt lat="46.0944317" lon="13.4504383"><ele>138.0</ele><time>2026-05-03T07:56:29.252Z</time></trkpt><trkpt lat="46.0943317" lon="13.4503133"><ele>138.0</ele><time>2026-05-03T07:56:30.252Z</time></trkpt><trkpt lat="46.094225" lon="13.450185"><ele>138.0</ele><time>2026-05-03T07:56:31.252Z</time></trkpt><trkpt lat="46.09411" lon="13.450055"><ele>138.0</ele><time>2026-05-03T07:56:32.252Z</time></trkpt><trkpt lat="46.0939983" lon="13.4499133"><ele>137.25</ele><time>2026-05-03T07:56:33.252Z</time></trkpt><trkpt lat="46.0938817" lon="13.4497817"><ele>136.5</ele><time>2026-05-03T07:56:34.252Z</time></trkpt><trkpt lat="46.09377" lon="13.4496383"><ele>135.75</ele><time>2026-05-03T07:56:35.252Z</time></trkpt><trkpt lat="46.09367" lon="13.4494867"><ele>135.0</ele><time>2026-05-03T07:56:36.252Z</time></trkpt><trkpt lat="46.0935617" lon="13.4493267"><ele>134.0</ele><time>2026-05-03T07:56:37.252Z</time></trkpt><trkpt lat="46.093465" lon="13.449145"><ele>133.0</ele><time>2026-05-03T07:56:38.252Z</time></trkpt><trkpt lat="46.0933717" lon="13.4489567"><ele>132.0</ele><time>2026-05-03T07:56:39.252Z</time></trkpt><trkpt lat="46.0932833" lon="13.4487617"><ele>137.0</ele><time>2026-05-03T07:56:40.252Z</time></trkpt><trkpt lat="46.0931867" lon="13.4485617"><ele>142.0</ele><time>2026-05-03T07:56:41.252Z</time></trkpt><trkpt lat="46.0930933" lon="13.4483517"><ele>147.0</ele><time>2026-05-03T07:56:42.252Z</time></trkpt><trkpt lat="46.0930017" lon="13.4481467"><ele>144.66666666666666</ele><time>2026-05-03T07:56:43.252Z</time></trkpt><trkpt lat="46.0929083" lon="13.4479433"><ele>142.33333333333331</ele><time>2026-05-03T07:56:44.252Z</time></trkpt><trkpt lat="46.09281" lon="13.447755"><ele>140.0</ele><time>2026-05-03T07:56:45.252Z</time></trkpt><trkpt lat="46.092725" lon="13.4475833"><ele>140.0</ele><time>2026-05-03T07:56:46.252Z</time></trkpt><trkpt lat="46.0926367" lon="13.447415"><ele>140.0</ele><time>2026-05-03T07:56:47.252Z</time></trkpt><trkpt lat="46.0925517" lon="13.447265"><ele>140.0</ele><time>2026-05-03T07:56:48.253Z</time></trkpt><trkpt lat="46.0924817" lon="13.4471333"><ele>140.0</ele><time>2026-05-03T07:56:49.252Z</time></trkpt><trkpt lat="46.0924067" lon="13.4469933"><ele>140.33333333333331</ele><time>2026-05-03T07:56:50.252Z</time></trkpt><trkpt lat="46.0923267" lon="13.4468833"><ele>140.66666666666666</ele><time>2026-05-03T07:56:51.252Z</time></trkpt><trkpt lat="46.0922567" lon="13.4468033"><ele>141.0</ele><time>2026-05-03T07:56:52.252Z</time></trkpt><trkpt lat="46.09218" lon="13.4467417"><ele>141.33333333333334</ele><time>2026-05-03T07:56:53.252Z</time></trkpt><trkpt lat="46.0921033" lon="13.4466883"><ele>141.66666666666669</ele><time>2026-05-03T07:56:54.252Z</time></trkpt><trkpt lat="46.09205" lon="13.4466333"><ele>142.0</ele><time>2026-05-03T07:56:55.252Z</time></trkpt><trkpt lat="46.09198" lon="13.44657"><ele>142.0</ele><time>2026-05-03T07:56:57.252Z</time></trkpt><trkpt lat="46.0919217" lon="13.446525"><ele>142.0</ele><time>2026-05-03T07:56:59.252Z</time></trkpt><trkpt lat="46.0918417" lon="13.44656"><ele>142.0</ele><time>2026-05-03T07:57:03.252Z</time></trkpt><trkpt lat="46.091785" lon="13.4466267"><ele>142.0</ele><time>2026-05-03T07:57:07.252Z</time></trkpt><trkpt lat="46.0918433" lon="13.4466767"><ele>142.0</ele><time>2026-05-03T07:57:11.252Z</time></trkpt><trkpt lat="46.0918833" lon="13.446815"><ele>142.0</ele><time>2026-05-03T07:57:13.252Z</time></trkpt><trkpt lat="46.0919067" lon="13.4469483"><ele>142.0</ele><time>2026-05-03T07:57:14.252Z</time></trkpt><trkpt lat="46.0919367" lon="13.4471017"><ele>142.0</ele><time>2026-05-03T07:57:15.252Z</time></trkpt><trkpt lat="46.0919783" lon="13.4472533"><ele>142.0</ele><time>2026-05-03T07:57:16.252Z</time></trkpt><trkpt lat="46.0920183" lon="13.4474083"><ele>142.0</ele><time>2026-05-03T07:57:17.252Z</time></trkpt><trkpt lat="46.0920633" lon="13.4475533"><ele>142.0</ele><time>2026-05-03T07:57:18.252Z</time></trkpt><trkpt lat="46.092105" lon="13.4476767"><ele>142.5</ele><time>2026-05-03T07:57:19.252Z</time></trkpt><trkpt lat="46.0921417" lon="13.4477817"><ele>143.0</ele><time>2026-05-03T07:57:20.252Z</time></trkpt><trkpt lat="46.09217" lon="13.4478733"><ele>143.5</ele><time>2026-05-03T07:57:21.252Z</time></trkpt><trkpt lat="46.0922183" lon="13.4480033"><ele>144.0</ele><time>2026-05-03T07:57:23.252Z</time></trkpt><trkpt lat="46.0922533" lon="13.4481267"><ele>144.5</ele><time>2026-05-03T07:57:25.252Z</time></trkpt><trkpt lat="46.0923" lon="13.4481917"><ele>145.0</ele><time>2026-05-03T07:57:28.252Z</time></trkpt><trkpt lat="46.0922733" lon="13.4480317"><ele>145.0</ele><time>2026-05-03T07:57:31.252Z</time></trkpt><trkpt lat="46.0922267" lon="13.4478933"><ele>145.0</ele><time>2026-05-03T07:57:32.252Z</time></trkpt><trkpt lat="46.092175" lon="13.4477433"><ele>145.0</ele><time>2026-05-03T07:57:33.252Z</time></trkpt><trkpt lat="46.0921233" lon="13.44758"><ele>145.0</ele><time>2026-05-03T07:57:34.252Z</time></trkpt><trkpt lat="46.0920683" lon="13.4474067"><ele>145.0</ele><time>2026-05-03T07:57:35.252Z</time></trkpt><trkpt lat="46.0920167" lon="13.4472367"><ele>145.0</ele><time>2026-05-03T07:57:36.252Z</time></trkpt><trkpt lat="46.0919683" lon="13.4470717"><ele>145.0</ele><time>2026-05-03T07:57:37.252Z</time></trkpt><trkpt lat="46.091935" lon="13.446935"><ele>145.0</ele><time>2026-05-03T07:57:38.252Z</time></trkpt><trkpt lat="46.091935" lon="13.4468133"><ele>145.0</ele><time>2026-05-03T07:57:39.252Z</time></trkpt><trkpt lat="46.0919333" lon="13.446655"><ele>144.5</ele><time>2026-05-03T07:57:41.252Z</time></trkpt><trkpt lat="46.0918667" lon="13.4465767"><ele>144.0</ele><time>2026-05-03T07:57:43.252Z</time></trkpt><trkpt lat="46.0918083" lon="13.4466117"><ele>143.5</ele><time>2026-05-03T07:57:44.252Z</time></trkpt><trkpt lat="46.091755" lon="13.4466783"><ele>143.0</ele><time>2026-05-03T07:57:45.252Z</time></trkpt><trkpt lat="46.0917117" lon="13.446795"><ele>142.5</ele><time>2026-05-03T07:57:46.252Z</time></trkpt><trkpt lat="46.0916567" lon="13.4469233"><ele>142.0</ele><time>2026-05-03T07:57:47.252Z</time></trkpt><trkpt lat="46.0915933" lon="13.447075"><ele>141.75</ele><time>2026-05-03T07:57:48.252Z</time></trkpt><trkpt lat="46.091495" lon="13.4472033"><ele>141.5</ele><time>2026-05-03T07:57:49.252Z</time></trkpt><trkpt lat="46.091385" lon="13.4473417"><ele>141.25</ele><time>2026-05-03T07:57:50.252Z</time></trkpt><trkpt lat="46.09128" lon="13.4475067"><ele>141.0</ele><time>2026-05-03T07:57:51.252Z</time></trkpt><trkpt lat="46.0911683" lon="13.447685"><ele>141.0</ele><time>2026-05-03T07:57:52.252Z</time></trkpt><trkpt lat="46.0910617" lon="13.4478967"><ele>141.0</ele><time>2026-05-03T07:57:53.252Z</time></trkpt><trkpt lat="46.0909767" lon="13.4481167"><ele>141.0</ele><time>2026-05-03T07:57:54.252Z</time></trkpt><trkpt lat="46.0908933" lon="13.44833"><ele>141.33333333333334</ele><time>2026-05-03T07:57:55.252Z</time></trkpt><trkpt lat="46.0907883" lon="13.448525"><ele>141.66666666666669</ele><time>2026-05-03T07:57:56.252Z</time></trkpt><trkpt lat="46.09067" lon="13.4487167"><ele>142.0</ele><time>2026-05-03T07:57:57.252Z</time></trkpt><trkpt lat="46.0905417" lon="13.4488967"><ele>142.0</ele><time>2026-05-03T07:57:58.253Z</time></trkpt><trkpt lat="46.09042" lon="13.4490683"><ele>142.0</ele><time>2026-05-03T07:57:59.252Z</time></trkpt><trkpt lat="46.090305" lon="13.4492417"><ele>142.0</ele><time>2026-05-03T07:58:00.252Z</time></trkpt><trkpt lat="46.090195" lon="13.4494017"><ele>142.0</ele><time>2026-05-03T07:58:01.252Z</time></trkpt><trkpt lat="46.0900767" lon="13.4495617"><ele>142.0</ele><time>2026-05-03T07:58:02.253Z</time></trkpt><trkpt lat="46.0899633" lon="13.4497117"><ele>142.0</ele><time>2026-05-03T07:58:03.252Z</time></trkpt><trkpt lat="46.0898617" lon="13.44986"><ele>141.33333333333334</ele><time>2026-05-03T07:58:04.252Z</time></trkpt><trkpt lat="46.0897467" lon="13.450005"><ele>140.66666666666666</ele><time>2026-05-03T07:58:05.252Z</time></trkpt><trkpt lat="46.0896133" lon="13.4501333"><ele>140.0</ele><time>2026-05-03T07:58:06.252Z</time></trkpt><trkpt lat="46.0894833" lon="13.450245"><ele>140.0</ele><time>2026-05-03T07:58:07.252Z</time></trkpt><trkpt lat="46.0893567" lon="13.45034"><ele>140.0</ele><time>2026-05-03T07:58:08.252Z</time></trkpt><trkpt lat="46.0892433" lon="13.4504233"><ele>140.0</ele><time>2026-05-03T07:58:09.252Z</time></trkpt><trkpt lat="46.0891417" lon="13.4505017"><ele>140.0</ele><time>2026-05-03T07:58:10.252Z</time></trkpt><trkpt lat="46.08904" lon="13.4505717"><ele>140.4</ele><time>2026-05-03T07:58:11.252Z</time></trkpt><trkpt lat="46.088945" lon="13.4506333"><ele>140.8</ele><time>2026-05-03T07:58:12.252Z</time></trkpt><trkpt lat="46.0888533" lon="13.4506967"><ele>141.2</ele><time>2026-05-03T07:58:13.252Z</time></trkpt><trkpt lat="46.0887733" lon="13.4507567"><ele>141.6</ele><time>2026-05-03T07:58:14.252Z</time></trkpt><trkpt lat="46.0886967" lon="13.4508133"><ele>142.0</ele><time>2026-05-03T07:58:15.252Z</time></trkpt><trkpt lat="46.0886233" lon="13.4508667"><ele>142.0</ele><time>2026-05-03T07:58:16.252Z</time></trkpt><trkpt lat="46.0885583" lon="13.4509283"><ele>142.0</ele><time>2026-05-03T07:58:17.252Z</time></trkpt><trkpt lat="46.0884983" lon="13.451"><ele>142.0</ele><time>2026-05-03T07:58:18.252Z</time></trkpt><trkpt lat="46.0884633" lon="13.4510783"><ele>142.0</ele><time>2026-05-03T07:58:19.252Z</time></trkpt><trkpt lat="46.0883967" lon="13.4512017"><ele>142.0</ele><time>2026-05-03T07:58:21.252Z</time></trkpt><trkpt lat="46.08833" lon="13.4512467"><ele>142.0</ele><time>2026-05-03T07:58:22.252Z</time></trkpt><trkpt lat="46.08823" lon="13.4512683"><ele>142.0</ele><time>2026-05-03T07:58:23.251Z</time></trkpt><trkpt lat="46.08811" lon="13.4512617"><ele>142.0</ele><time>2026-05-03T07:58:24.251Z</time></trkpt><trkpt lat="46.0879767" lon="13.4512467"><ele>142.0</ele><time>2026-05-03T07:58:25.251Z</time></trkpt><trkpt lat="46.08784" lon="13.45125"><ele>142.0</ele><time>2026-05-03T07:58:26.251Z</time></trkpt><trkpt lat="46.0876967" lon="13.4512783"><ele>143.66666666666669</ele><time>2026-05-03T07:58:27.251Z</time></trkpt><trkpt lat="46.0875383" lon="13.4513233"><ele>145.33333333333334</ele><time>2026-05-03T07:58:28.251Z</time></trkpt><trkpt lat="46.087375" lon="13.4513883"><ele>147.0</ele><time>2026-05-03T07:58:29.252Z</time></trkpt><trkpt lat="46.0872217" lon="13.4514417"><ele>147.0</ele><time>2026-05-03T07:58:30.251Z</time></trkpt><trkpt lat="46.087065" lon="13.4515083"><ele>147.0</ele><time>2026-05-03T07:58:31.251Z</time></trkpt><trkpt lat="46.0869183" lon="13.4515883"><ele>147.0</ele><time>2026-05-03T07:58:32.251Z</time></trkpt><trkpt lat="46.0867817" lon="13.4516783"><ele>147.0</ele><time>2026-05-03T07:58:33.251Z</time></trkpt><trkpt lat="46.0866433" lon="13.4517633"><ele>147.0</ele><time>2026-05-03T07:58:34.251Z</time></trkpt><trkpt lat="46.0864983" lon="13.45185"><ele>147.0</ele><time>2026-05-03T07:58:35.251Z</time></trkpt><trkpt lat="46.086335" lon="13.451935"><ele>147.33333333333334</ele><time>2026-05-03T07:58:36.251Z</time></trkpt><trkpt lat="46.0861617" lon="13.4520333"><ele>147.66666666666669</ele><time>2026-05-03T07:58:37.251Z</time></trkpt><trkpt lat="46.08597" lon="13.45213"><ele>148.0</ele><time>2026-05-03T07:58:38.251Z</time></trkpt><trkpt lat="46.0857717" lon="13.4522333"><ele>144.5</ele><time>2026-05-03T07:58:39.251Z</time></trkpt><trkpt lat="46.08556" lon="13.4523367"><ele>141.0</ele><time>2026-05-03T07:58:40.251Z</time></trkpt><trkpt lat="46.085345" lon="13.45245"><ele>141.0</ele><time>2026-05-03T07:58:41.251Z</time></trkpt><trkpt lat="46.0851267" lon="13.4525567"><ele>141.0</ele><time>2026-05-03T07:58:42.251Z</time></trkpt><trkpt lat="46.08492" lon="13.452665"><ele>140.33333333333334</ele><time>2026-05-03T07:58:43.251Z</time></trkpt><trkpt lat="46.084715" lon="13.4527583"><ele>139.66666666666669</ele><time>2026-05-03T07:58:44.251Z</time></trkpt><trkpt lat="46.0845233" lon="13.4528483"><ele>139.0</ele><time>2026-05-03T07:58:45.251Z</time></trkpt><trkpt lat="46.084355" lon="13.4529217"><ele>140.0</ele><time>2026-05-03T07:58:46.251Z</time></trkpt><trkpt lat="46.0842017" lon="13.45298"><ele>141.0</ele><time>2026-05-03T07:58:47.251Z</time></trkpt><trkpt lat="46.08405" lon="13.4530133"><ele>142.0</ele><time>2026-05-03T07:58:48.251Z</time></trkpt><trkpt lat="46.0838817" lon="13.453035"><ele>142.33333333333334</ele><time>2026-05-03T07:58:49.251Z</time></trkpt><trkpt lat="46.0837" lon="13.4530533"><ele>142.66666666666666</ele><time>2026-05-03T07:58:50.251Z</time></trkpt><trkpt lat="46.0835067" lon="13.4530917"><ele>143.0</ele><time>2026-05-03T07:58:51.251Z</time></trkpt><trkpt lat="46.083325" lon="13.45316"><ele>144.33333333333331</ele><time>2026-05-03T07:58:52.251Z</time></trkpt><trkpt lat="46.083145" lon="13.4532283"><ele>145.66666666666666</ele><time>2026-05-03T07:58:53.251Z</time></trkpt><trkpt lat="46.0829767" lon="13.4533083"><ele>147.0</ele><time>2026-05-03T07:58:54.251Z</time></trkpt><trkpt lat="46.082805" lon="13.453375"><ele>147.0</ele><time>2026-05-03T07:58:55.251Z</time></trkpt><trkpt lat="46.0826467" lon="13.4534283"><ele>147.0</ele><time>2026-05-03T07:58:56.251Z</time></trkpt><trkpt lat="46.0824967" lon="13.4534317"><ele>147.0</ele><time>2026-05-03T07:58:57.251Z</time></trkpt><trkpt lat="46.0823483" lon="13.4533733"><ele>147.5</ele><time>2026-05-03T07:58:58.251Z</time></trkpt><trkpt lat="46.0822067" lon="13.453275"><ele>148.0</ele><time>2026-05-03T07:58:59.251Z</time></trkpt><trkpt lat="46.0820867" lon="13.4531917"><ele>148.5</ele><time>2026-05-03T07:59:00.251Z</time></trkpt><trkpt lat="46.0819867" lon="13.45311"><ele>149.0</ele><time>2026-05-03T07:59:01.251Z</time></trkpt><trkpt lat="46.081895" lon="13.45303"><ele>147.5</ele><time>2026-05-03T07:59:02.251Z</time></trkpt><trkpt lat="46.0818017" lon="13.4529417"><ele>146.0</ele><time>2026-05-03T07:59:03.251Z</time></trkpt><trkpt lat="46.0816817" lon="13.4528383"><ele>144.5</ele><time>2026-05-03T07:59:04.251Z</time></trkpt><trkpt lat="46.08154" lon="13.4527683"><ele>143.0</ele><time>2026-05-03T07:59:05.251Z</time></trkpt><trkpt lat="46.0813917" lon="13.452735"><ele>142.75</ele><time>2026-05-03T07:59:06.251Z</time></trkpt><trkpt lat="46.0812583" lon="13.45276"><ele>142.5</ele><time>2026-05-03T07:59:07.251Z</time></trkpt><trkpt lat="46.0811333" lon="13.4528483"><ele>142.25</ele><time>2026-05-03T07:59:08.251Z</time></trkpt><trkpt lat="46.0810133" lon="13.4529883"><ele>142.0</ele><time>2026-05-03T07:59:09.251Z</time></trkpt><trkpt lat="46.0808833" lon="13.4531417"><ele>141.25</ele><time>2026-05-03T07:59:10.251Z</time></trkpt><trkpt lat="46.080755" lon="13.4532817"><ele>140.5</ele><time>2026-05-03T07:59:11.251Z</time></trkpt><trkpt lat="46.0806483" lon="13.4534233"><ele>139.75</ele><time>2026-05-03T07:59:12.251Z</time></trkpt><trkpt lat="46.0805567" lon="13.4535283"><ele>139.0</ele><time>2026-05-03T07:59:13.251Z</time></trkpt><trkpt lat="46.0804733" lon="13.453585"><ele>139.0</ele><time>2026-05-03T07:59:14.251Z</time></trkpt><trkpt lat="46.0803933" lon="13.4535683"><ele>139.0</ele><time>2026-05-03T07:59:15.251Z</time></trkpt><trkpt lat="46.0803217" lon="13.453495"><ele>139.0</ele><time>2026-05-03T07:59:16.251Z</time></trkpt><trkpt lat="46.0802833" lon="13.4533517"><ele>139.0</ele><time>2026-05-03T07:59:17.251Z</time></trkpt><trkpt lat="46.0802517" lon="13.4531633"><ele>139.0</ele><time>2026-05-03T07:59:18.251Z</time></trkpt><trkpt lat="46.0802183" lon="13.4529533"><ele>139.0</ele><time>2026-05-03T07:59:19.251Z</time></trkpt><trkpt lat="46.0801833" lon="13.4527233"><ele>139.0</ele><time>2026-05-03T07:59:20.251Z</time></trkpt><trkpt lat="46.0801567" lon="13.4524933"><ele>139.0</ele><time>2026-05-03T07:59:21.251Z</time></trkpt><trkpt lat="46.08013" lon="13.4522817"><ele>139.5</ele><time>2026-05-03T07:59:22.251Z</time></trkpt><trkpt lat="46.0801033" lon="13.4520817"><ele>140.0</ele><time>2026-05-03T07:59:23.251Z</time></trkpt><trkpt lat="46.080045" lon="13.451905"><ele>140.5</ele><time>2026-05-03T07:59:24.251Z</time></trkpt><trkpt lat="46.0799683" lon="13.4517483"><ele>141.0</ele><time>2026-05-03T07:59:25.251Z</time></trkpt><trkpt lat="46.079895" lon="13.4516067"><ele>143.0</ele><time>2026-05-03T07:59:26.251Z</time></trkpt><trkpt lat="46.0798267" lon="13.451475"><ele>145.0</ele><time>2026-05-03T07:59:27.251Z</time></trkpt><trkpt lat="46.07977" lon="13.4513667"><ele>147.0</ele><time>2026-05-03T07:59:28.251Z</time></trkpt><trkpt lat="46.079715" lon="13.4512983"><ele>149.0</ele><time>2026-05-03T07:59:29.251Z</time></trkpt><trkpt lat="46.0796317" lon="13.451245"><ele>151.0</ele><time>2026-05-03T07:59:31.251Z</time></trkpt><trkpt lat="46.0795233" lon="13.4513633"><ele>151.0</ele><time>2026-05-03T07:59:33.251Z</time></trkpt><trkpt lat="46.0794583" lon="13.451475"><ele>151.0</ele><time>2026-05-03T07:59:34.251Z</time></trkpt><trkpt lat="46.07939" lon="13.451615"><ele>151.0</ele><time>2026-05-03T07:59:35.251Z</time></trkpt><trkpt lat="46.07932" lon="13.451785"><ele>151.0</ele><time>2026-05-03T07:59:36.251Z</time></trkpt><trkpt lat="46.0792467" lon="13.451965"><ele>150.0</ele><time>2026-05-03T07:59:37.251Z</time></trkpt><trkpt lat="46.0791683" lon="13.4521383"><ele>149.0</ele><time>2026-05-03T07:59:38.251Z</time></trkpt><trkpt lat="46.0790967" lon="13.4523067"><ele>148.0</ele><time>2026-05-03T07:59:39.251Z</time></trkpt><trkpt lat="46.0790283" lon="13.4524817"><ele>147.0</ele><time>2026-05-03T07:59:40.251Z</time></trkpt><trkpt lat="46.0789617" lon="13.4526633"><ele>148.33333333333334</ele><time>2026-05-03T07:59:41.251Z</time></trkpt><trkpt lat="46.0788717" lon="13.4528433"><ele>149.66666666666669</ele><time>2026-05-03T07:59:42.251Z</time></trkpt><trkpt lat="46.07877" lon="13.4530283"><ele>151.0</ele><time>2026-05-03T07:59:43.251Z</time></trkpt><trkpt lat="46.0786567" lon="13.45321"><ele>151.0</ele><time>2026-05-03T07:59:44.252Z</time></trkpt><trkpt lat="46.0785417" lon="13.4533983"><ele>151.0</ele><time>2026-05-03T07:59:45.251Z</time></trkpt><trkpt lat="46.0784167" lon="13.45357"><ele>151.0</ele><time>2026-05-03T07:59:46.251Z</time></trkpt><trkpt lat="46.078295" lon="13.4537617"><ele>155.66666666666669</ele><time>2026-05-03T07:59:47.251Z</time></trkpt><trkpt lat="46.0781667" lon="13.4539533"><ele>160.33333333333334</ele><time>2026-05-03T07:59:48.251Z</time></trkpt><trkpt lat="46.0780333" lon="13.4541567"><ele>165.0</ele><time>2026-05-03T07:59:49.251Z</time></trkpt><trkpt lat="46.0779083" lon="13.4543467"><ele>165.0</ele><time>2026-05-03T07:59:50.251Z</time></trkpt><trkpt lat="46.0777817" lon="13.4545367"><ele>165.0</ele><time>2026-05-03T07:59:51.251Z</time></trkpt><trkpt lat="46.0776517" lon="13.4547133"><ele>165.0</ele><time>2026-05-03T07:59:52.251Z</time></trkpt><trkpt lat="46.0775117" lon="13.4548783"><ele>161.0</ele><time>2026-05-03T07:59:53.251Z</time></trkpt><trkpt lat="46.0773683" lon="13.4550183"><ele>157.0</ele><time>2026-05-03T07:59:54.251Z</time></trkpt><trkpt lat="46.0772267" lon="13.4551383"><ele>153.0</ele><time>2026-05-03T07:59:55.251Z</time></trkpt><trkpt lat="46.0770833" lon="13.455265"><ele>153.0</ele><time>2026-05-03T07:59:56.251Z</time></trkpt><trkpt lat="46.076935" lon="13.45539"><ele>153.0</ele><time>2026-05-03T07:59:57.251Z</time></trkpt><trkpt lat="46.0767783" lon="13.455505"><ele>153.0</ele><time>2026-05-03T07:59:58.251Z</time></trkpt><trkpt lat="46.076625" lon="13.455645"><ele>151.33333333333334</ele><time>2026-05-03T07:59:59.251Z</time></trkpt><trkpt lat="46.0764767" lon="13.4557767"><ele>149.66666666666669</ele><time>2026-05-03T08:00:00.251Z</time></trkpt><trkpt lat="46.0763217" lon="13.4559083"><ele>148.0</ele><time>2026-05-03T08:00:01.251Z</time></trkpt><trkpt lat="46.0761717" lon="13.4560433"><ele>148.0</ele><time>2026-05-03T08:00:02.251Z</time></trkpt><trkpt lat="46.0760267" lon="13.4561633"><ele>148.0</ele><time>2026-05-03T08:00:03.251Z</time></trkpt><trkpt lat="46.0758767" lon="13.4563"><ele>148.0</ele><time>2026-05-03T08:00:04.251Z</time></trkpt><trkpt lat="46.07572" lon="13.4564333"><ele>145.66666666666669</ele><time>2026-05-03T08:00:05.251Z</time></trkpt><trkpt lat="46.0755733" lon="13.45659"><ele>143.33333333333334</ele><time>2026-05-03T08:00:06.251Z</time></trkpt><trkpt lat="46.075425" lon="13.4567533"><ele>141.0</ele><time>2026-05-03T08:00:07.251Z</time></trkpt><trkpt lat="46.0752717" lon="13.456925"><ele>141.0</ele><time>2026-05-03T08:00:08.251Z</time></trkpt><trkpt lat="46.0750967" lon="13.457105"><ele>141.0</ele><time>2026-05-03T08:00:09.251Z</time></trkpt><trkpt lat="46.0749267" lon="13.4573067"><ele>141.0</ele><time>2026-05-03T08:00:10.251Z</time></trkpt><trkpt lat="46.0747683" lon="13.4575083"><ele>140.33333333333334</ele><time>2026-05-03T08:00:11.251Z</time></trkpt><trkpt lat="46.0746183" lon="13.4577033"><ele>139.66666666666669</ele><time>2026-05-03T08:00:12.251Z</time></trkpt><trkpt lat="46.0744717" lon="13.4578867"><ele>139.0</ele><time>2026-05-03T08:00:13.251Z</time></trkpt><trkpt lat="46.0743283" lon="13.4580583"><ele>139.0</ele><time>2026-05-03T08:00:14.251Z</time></trkpt><trkpt lat="46.07419" lon="13.4582217"><ele>139.0</ele><time>2026-05-03T08:00:15.251Z</time></trkpt><trkpt lat="46.0740567" lon="13.45839"><ele>139.0</ele><time>2026-05-03T08:00:16.251Z</time></trkpt><trkpt lat="46.0739133" lon="13.458565"><ele>137.0</ele><time>2026-05-03T08:00:17.251Z</time></trkpt><trkpt lat="46.073775" lon="13.4587567"><ele>135.0</ele><time>2026-05-03T08:00:18.251Z</time></trkpt><trkpt lat="46.0736267" lon="13.45895"><ele>133.0</ele><time>2026-05-03T08:00:19.251Z</time></trkpt><trkpt lat="46.073475" lon="13.4591417"><ele>133.0</ele><time>2026-05-03T08:00:20.251Z</time></trkpt><trkpt lat="46.0733283" lon="13.459345"><ele>133.0</ele><time>2026-05-03T08:00:21.251Z</time></trkpt><trkpt lat="46.0731733" lon="13.4595467"><ele>133.0</ele><time>2026-05-03T08:00:22.251Z</time></trkpt><trkpt lat="46.073025" lon="13.4597533"><ele>132.33333333333334</ele><time>2026-05-03T08:00:23.251Z</time></trkpt><trkpt lat="46.0728767" lon="13.4599517"><ele>131.66666666666666</ele><time>2026-05-03T08:00:24.251Z</time></trkpt><trkpt lat="46.0727283" lon="13.4601433"><ele>131.0</ele><time>2026-05-03T08:00:25.251Z</time></trkpt><trkpt lat="46.0725883" lon="13.460325"><ele>131.0</ele><time>2026-05-03T08:00:26.251Z</time></trkpt><trkpt lat="46.072455" lon="13.4604983"><ele>131.0</ele><time>2026-05-03T08:00:27.251Z</time></trkpt><trkpt lat="46.07234" lon="13.460665"><ele>131.0</ele><time>2026-05-03T08:00:28.251Z</time></trkpt><trkpt lat="46.0722233" lon="13.4608233"><ele>131.33333333333331</ele><time>2026-05-03T08:00:29.251Z</time></trkpt><trkpt lat="46.0721033" lon="13.4609767"><ele>131.66666666666666</ele><time>2026-05-03T08:00:30.251Z</time></trkpt><trkpt lat="46.0719883" lon="13.46112"><ele>132.0</ele><time>2026-05-03T08:00:31.251Z</time></trkpt><trkpt lat="46.0718833" lon="13.4612667"><ele>132.0</ele><time>2026-05-03T08:00:32.251Z</time></trkpt><trkpt lat="46.0717833" lon="13.4614067"><ele>132.0</ele><time>2026-05-03T08:00:33.251Z</time></trkpt><trkpt lat="46.07168" lon="13.4615533"><ele>132.0</ele><time>2026-05-03T08:00:34.251Z</time></trkpt><trkpt lat="46.0715917" lon="13.4616767"><ele>132.0</ele><time>2026-05-03T08:00:35.251Z</time></trkpt><trkpt lat="46.071505" lon="13.4617967"><ele>132.0</ele><time>2026-05-03T08:00:36.251Z</time></trkpt><trkpt lat="46.0714183" lon="13.46192"><ele>132.0</ele><time>2026-05-03T08:00:37.251Z</time></trkpt><trkpt lat="46.0713267" lon="13.4620367"><ele>132.0</ele><time>2026-05-03T08:00:38.251Z</time></trkpt><trkpt lat="46.07123" lon="13.4621617"><ele>132.0</ele><time>2026-05-03T08:00:39.251Z</time></trkpt><trkpt lat="46.0711383" lon="13.462285"><ele>131.75</ele><time>2026-05-03T08:00:40.251Z</time></trkpt><trkpt lat="46.0710367" lon="13.462415"><ele>131.5</ele><time>2026-05-03T08:00:41.251Z</time></trkpt><trkpt lat="46.07095" lon="13.4625417"><ele>131.25</ele><time>2026-05-03T08:00:42.251Z</time></trkpt><trkpt lat="46.070865" lon="13.4626583"><ele>131.0</ele><time>2026-05-03T08:00:43.251Z</time></trkpt><trkpt lat="46.0707817" lon="13.4627783"><ele>130.5</ele><time>2026-05-03T08:00:44.251Z</time></trkpt><trkpt lat="46.070715" lon="13.4629067"><ele>130.0</ele><time>2026-05-03T08:00:45.251Z</time></trkpt><trkpt lat="46.0706617" lon="13.46304"><ele>129.5</ele><time>2026-05-03T08:00:46.251Z</time></trkpt><trkpt lat="46.070615" lon="13.4631767"><ele>129.0</ele><time>2026-05-03T08:00:47.251Z</time></trkpt><trkpt lat="46.070535" lon="13.4633317"><ele>128.75</ele><time>2026-05-03T08:00:48.251Z</time></trkpt><trkpt lat="46.0704633" lon="13.4635"><ele>128.5</ele><time>2026-05-03T08:00:49.251Z</time></trkpt><trkpt lat="46.0704017" lon="13.46367"><ele>128.25</ele><time>2026-05-03T08:00:50.251Z</time></trkpt><trkpt lat="46.0703667" lon="13.46384"><ele>128.0</ele><time>2026-05-03T08:00:51.251Z</time></trkpt><trkpt lat="46.0703483" lon="13.4640117"><ele>128.0</ele><time>2026-05-03T08:00:52.251Z</time></trkpt><trkpt lat="46.070365" lon="13.464195"><ele>128.0</ele><time>2026-05-03T08:00:53.251Z</time></trkpt><trkpt lat="46.0704117" lon="13.4643833"><ele>128.0</ele><time>2026-05-03T08:00:54.251Z</time></trkpt><trkpt lat="46.070445" lon="13.4645517"><ele>128.0</ele><time>2026-05-03T08:00:55.251Z</time></trkpt><trkpt lat="46.0704717" lon="13.4647183"><ele>127.60000000000001</ele><time>2026-05-03T08:00:56.251Z</time></trkpt><trkpt lat="46.0704967" lon="13.4648717"><ele>127.20000000000002</ele><time>2026-05-03T08:00:57.251Z</time></trkpt><trkpt lat="46.070505" lon="13.4649983"><ele>126.8</ele><time>2026-05-03T08:00:58.251Z</time></trkpt><trkpt lat="46.0704983" lon="13.4651267"><ele>126.4</ele><time>2026-05-03T08:00:59.251Z</time></trkpt><trkpt lat="46.0704667" lon="13.4652683"><ele>126.0</ele><time>2026-05-03T08:01:00.251Z</time></trkpt><trkpt lat="46.0704167" lon="13.465425"><ele>125.75</ele><time>2026-05-03T08:01:01.251Z</time></trkpt><trkpt lat="46.070355" lon="13.4655983"><ele>125.5</ele><time>2026-05-03T08:01:02.251Z</time></trkpt><trkpt lat="46.0702917" lon="13.46578"><ele>125.25</ele><time>2026-05-03T08:01:03.251Z</time></trkpt><trkpt lat="46.0702333" lon="13.4659533"><ele>125.0</ele><time>2026-05-03T08:01:04.251Z</time></trkpt><trkpt lat="46.0701733" lon="13.4661333"><ele>125.0</ele><time>2026-05-03T08:01:05.251Z</time></trkpt><trkpt lat="46.0701133" lon="13.4662967"><ele>125.0</ele><time>2026-05-03T08:01:06.251Z</time></trkpt><trkpt lat="46.0700583" lon="13.4664483"><ele>125.0</ele><time>2026-05-03T08:01:07.251Z</time></trkpt><trkpt lat="46.0700167" lon="13.4665833"><ele>125.0</ele><time>2026-05-03T08:01:08.251Z</time></trkpt><trkpt lat="46.0699667" lon="13.46669"><ele>125.0</ele><time>2026-05-03T08:01:09.252Z</time></trkpt><trkpt lat="46.0699267" lon="13.4667767"><ele>125.0</ele><time>2026-05-03T08:01:10.251Z</time></trkpt><trkpt lat="46.069875" lon="13.4668467"><ele>125.0</ele><time>2026-05-03T08:01:11.251Z</time></trkpt><trkpt lat="46.0698" lon="13.4668683"><ele>125.0</ele><time>2026-05-03T08:01:12.251Z</time></trkpt><trkpt lat="46.0697083" lon="13.4668517"><ele>125.0</ele><time>2026-05-03T08:01:13.251Z</time></trkpt><trkpt lat="46.0696" lon="13.46683"><ele>125.0</ele><time>2026-05-03T08:01:14.251Z</time></trkpt><trkpt lat="46.0694817" lon="13.4668083"><ele>125.0</ele><time>2026-05-03T08:01:15.252Z</time></trkpt><trkpt lat="46.0693583" lon="13.4667933"><ele>125.0</ele><time>2026-05-03T08:01:16.251Z</time></trkpt><trkpt lat="46.0692367" lon="13.4667767"><ele>125.0</ele><time>2026-05-03T08:01:17.251Z</time></trkpt><trkpt lat="46.0691167" lon="13.4667867"><ele>125.0</ele><time>2026-05-03T08:01:18.251Z</time></trkpt><trkpt lat="46.0690083" lon="13.46681"><ele>126.25</ele><time>2026-05-03T08:01:19.251Z</time></trkpt><trkpt lat="46.0689067" lon="13.4668733"><ele>127.5</ele><time>2026-05-03T08:01:20.251Z</time></trkpt><trkpt lat="46.0688133" lon="13.4669883"><ele>128.75</ele><time>2026-05-03T08:01:21.251Z</time></trkpt><trkpt lat="46.0687217" lon="13.4671367"><ele>130.0</ele><time>2026-05-03T08:01:22.251Z</time></trkpt><trkpt lat="46.0686433" lon="13.4672783"><ele>130.0</ele><time>2026-05-03T08:01:23.251Z</time></trkpt><trkpt lat="46.068575" lon="13.4674233"><ele>130.0</ele><time>2026-05-03T08:01:24.251Z</time></trkpt><trkpt lat="46.0684917" lon="13.4675867"><ele>130.0</ele><time>2026-05-03T08:01:25.251Z</time></trkpt><trkpt lat="46.06841" lon="13.4677633"><ele>130.0</ele><time>2026-05-03T08:01:26.251Z</time></trkpt><trkpt lat="46.068315" lon="13.467945"><ele>132.33333333333334</ele><time>2026-05-03T08:01:27.251Z</time></trkpt><trkpt lat="46.0682183" lon="13.4681433"><ele>134.66666666666666</ele><time>2026-05-03T08:01:28.251Z</time></trkpt><trkpt lat="46.0681233" lon="13.468325"><ele>137.0</ele><time>2026-05-03T08:01:29.251Z</time></trkpt><trkpt lat="46.0680317" lon="13.4685117"><ele>137.0</ele><time>2026-05-03T08:01:30.251Z</time></trkpt><trkpt lat="46.0679383" lon="13.4686983"><ele>137.0</ele><time>2026-05-03T08:01:31.251Z</time></trkpt><trkpt lat="46.06785" lon="13.468875"><ele>137.0</ele><time>2026-05-03T08:01:32.251Z</time></trkpt><trkpt lat="46.0677717" lon="13.4690333"><ele>137.0</ele><time>2026-05-03T08:01:33.251Z</time></trkpt><trkpt lat="46.0676883" lon="13.4691917"><ele>136.5</ele><time>2026-05-03T08:01:34.251Z</time></trkpt><trkpt lat="46.06761" lon="13.4693683"><ele>136.0</ele><time>2026-05-03T08:01:35.251Z</time></trkpt><trkpt lat="46.0675483" lon="13.4695417"><ele>135.5</ele><time>2026-05-03T08:01:36.251Z</time></trkpt><trkpt lat="46.0674817" lon="13.4697233"><ele>135.0</ele><time>2026-05-03T08:01:37.251Z</time></trkpt><trkpt lat="46.0674217" lon="13.469905"><ele>133.75</ele><time>2026-05-03T08:01:38.251Z</time></trkpt><trkpt lat="46.0673567" lon="13.4700767"><ele>132.5</ele><time>2026-05-03T08:01:39.251Z</time></trkpt><trkpt lat="46.0672983" lon="13.4702433"><ele>131.25</ele><time>2026-05-03T08:01:40.251Z</time></trkpt><trkpt lat="46.067235" lon="13.4703983"><ele>130.0</ele><time>2026-05-03T08:01:41.251Z</time></trkpt><trkpt lat="46.067145" lon="13.4705317"><ele>130.0</ele><time>2026-05-03T08:01:42.251Z</time></trkpt><trkpt lat="46.0670417" lon="13.4706567"><ele>130.0</ele><time>2026-05-03T08:01:43.251Z</time></trkpt><trkpt lat="46.06693" lon="13.4708"><ele>130.0</ele><time>2026-05-03T08:01:44.251Z</time></trkpt><trkpt lat="46.066825" lon="13.4709583"><ele>130.0</ele><time>2026-05-03T08:01:45.251Z</time></trkpt><trkpt lat="46.06672" lon="13.4711333"><ele>127.66666666666667</ele><time>2026-05-03T08:01:46.251Z</time></trkpt><trkpt lat="46.0666183" lon="13.4713333"><ele>125.33333333333334</ele><time>2026-05-03T08:01:47.251Z</time></trkpt><trkpt lat="46.0665283" lon="13.4715333"><ele>123.0</ele><time>2026-05-03T08:01:48.252Z</time></trkpt><trkpt lat="46.0664317" lon="13.4717333"><ele>123.0</ele><time>2026-05-03T08:01:49.251Z</time></trkpt><trkpt lat="46.0663317" lon="13.4719067"><ele>123.0</ele><time>2026-05-03T08:01:50.251Z</time></trkpt><trkpt lat="46.0662467" lon="13.4720783"><ele>123.0</ele><time>2026-05-03T08:01:51.251Z</time></trkpt><trkpt lat="46.06616" lon="13.47224"><ele>123.0</ele><time>2026-05-03T08:01:52.251Z</time></trkpt><trkpt lat="46.066065" lon="13.4724033"><ele>123.5</ele><time>2026-05-03T08:01:53.252Z</time></trkpt><trkpt lat="46.06598" lon="13.4725583"><ele>124.0</ele><time>2026-05-03T08:01:54.251Z</time></trkpt><trkpt lat="46.065895" lon="13.4727117"><ele>124.5</ele><time>2026-05-03T08:01:55.251Z</time></trkpt><trkpt lat="46.06581" lon="13.4728717"><ele>125.0</ele><time>2026-05-03T08:01:56.251Z</time></trkpt><trkpt lat="46.0657233" lon="13.4730167"><ele>125.0</ele><time>2026-05-03T08:01:57.251Z</time></trkpt><trkpt lat="46.0656467" lon="13.4731483"><ele>125.0</ele><time>2026-05-03T08:01:58.251Z</time></trkpt><trkpt lat="46.0655833" lon="13.47327"><ele>125.0</ele><time>2026-05-03T08:01:59.251Z</time></trkpt><trkpt lat="46.06553" lon="13.4733783"><ele>125.0</ele><time>2026-05-03T08:02:00.251Z</time></trkpt><trkpt lat="46.065465" lon="13.4734783"><ele>125.0</ele><time>2026-05-03T08:02:01.251Z</time></trkpt><trkpt lat="46.0654033" lon="13.47356"><ele>125.0</ele><time>2026-05-03T08:02:02.251Z</time></trkpt><trkpt lat="46.06535" lon="13.4736233"><ele>125.0</ele><time>2026-05-03T08:02:03.251Z</time></trkpt><trkpt lat="46.0652583" lon="13.4736283"><ele>125.0</ele><time>2026-05-03T08:02:05.251Z</time></trkpt><trkpt lat="46.0651883" lon="13.4735133"><ele>125.0</ele><time>2026-05-03T08:02:07.252Z</time></trkpt><trkpt lat="46.0651267" lon="13.47334"><ele>125.0</ele><time>2026-05-03T08:02:09.251Z</time></trkpt><trkpt lat="46.0650883" lon="13.4732317"><ele>124.99999999999999</ele><time>2026-05-03T08:02:10.251Z</time></trkpt><trkpt lat="46.0650517" lon="13.4731167"><ele>125.0</ele><time>2026-05-03T08:02:11.251Z</time></trkpt><trkpt lat="46.0650133" lon="13.4730017"><ele>125.0</ele><time>2026-05-03T08:02:12.251Z</time></trkpt><trkpt lat="46.0649833" lon="13.472885"><ele>125.0</ele><time>2026-05-03T08:02:13.251Z</time></trkpt><trkpt lat="46.0649583" lon="13.47276"><ele>124.99999999999999</ele><time>2026-05-03T08:02:14.251Z</time></trkpt><trkpt lat="46.064935" lon="13.4726283"><ele>125.0</ele><time>2026-05-03T08:02:15.251Z</time></trkpt><trkpt lat="46.06491" lon="13.4725017"><ele>124.6</ele><time>2026-05-03T08:02:16.251Z</time></trkpt><trkpt lat="46.0648883" lon="13.4723733"><ele>124.2</ele><time>2026-05-03T08:02:17.251Z</time></trkpt><trkpt lat="46.0648683" lon="13.47224"><ele>123.80000000000001</ele><time>2026-05-03T08:02:18.251Z</time></trkpt><trkpt lat="46.0648417" lon="13.4720983"><ele>123.4</ele><time>2026-05-03T08:02:19.251Z</time></trkpt><trkpt lat="46.0648233" lon="13.4719517"><ele>123.0</ele><time>2026-05-03T08:02:20.251Z</time></trkpt><trkpt lat="46.0648033" lon="13.4718167"><ele>124.0</ele><time>2026-05-03T08:02:21.251Z</time></trkpt><trkpt lat="46.0647967" lon="13.471665"><ele>125.00000000000001</ele><time>2026-05-03T08:02:22.251Z</time></trkpt><trkpt lat="46.0647933" lon="13.471515"><ele>126.00000000000001</ele><time>2026-05-03T08:02:23.251Z</time></trkpt><trkpt lat="46.0647967" lon="13.4713517"><ele>127.0</ele><time>2026-05-03T08:02:24.251Z</time></trkpt><trkpt lat="46.0647983" lon="13.4711767"><ele>128.0</ele><time>2026-05-03T08:02:25.251Z</time></trkpt><trkpt lat="46.0648" lon="13.4710017"><ele>128.75</ele><time>2026-05-03T08:02:26.251Z</time></trkpt><trkpt lat="46.0648017" lon="13.4708417"><ele>129.5</ele><time>2026-05-03T08:02:27.251Z</time></trkpt><trkpt lat="46.0648133" lon="13.47067"><ele>130.25</ele><time>2026-05-03T08:02:28.251Z</time></trkpt><trkpt lat="46.0648283" lon="13.47051"><ele>131.0</ele><time>2026-05-03T08:02:29.251Z</time></trkpt><trkpt lat="46.0648483" lon="13.4703583"><ele>131.0</ele><time>2026-05-03T08:02:30.251Z</time></trkpt><trkpt lat="46.064875" lon="13.4701933"><ele>131.0</ele><time>2026-05-03T08:02:31.251Z</time></trkpt><trkpt lat="46.0648983" lon="13.4700417"><ele>131.0</ele><time>2026-05-03T08:02:32.251Z</time></trkpt><trkpt lat="46.064935" lon="13.4698867"><ele>131.0</ele><time>2026-05-03T08:02:33.251Z</time></trkpt><trkpt lat="46.0649667" lon="13.4697367"><ele>131.0</ele><time>2026-05-03T08:02:34.251Z</time></trkpt><trkpt lat="46.0649917" lon="13.46959"><ele>130.2</ele><time>2026-05-03T08:02:35.252Z</time></trkpt><trkpt lat="46.0650017" lon="13.4694583"><ele>129.39999999999998</ele><time>2026-05-03T08:02:36.251Z</time></trkpt><trkpt lat="46.0649883" lon="13.4693267"><ele>128.6</ele><time>2026-05-03T08:02:37.251Z</time></trkpt><trkpt lat="46.0649683" lon="13.4691833"><ele>127.8</ele><time>2026-05-03T08:02:38.251Z</time></trkpt><trkpt lat="46.0649467" lon="13.469045"><ele>127.0</ele><time>2026-05-03T08:02:39.251Z</time></trkpt><trkpt lat="46.0649233" lon="13.468905"><ele>126.50000000000001</ele><time>2026-05-03T08:02:40.252Z</time></trkpt><trkpt lat="46.0649" lon="13.4687883"><ele>126.0</ele><time>2026-05-03T08:02:41.251Z</time></trkpt><trkpt lat="46.0648717" lon="13.46869"><ele>125.5</ele><time>2026-05-03T08:02:42.251Z</time></trkpt><trkpt lat="46.06484" lon="13.468605"><ele>125.0</ele><time>2026-05-03T08:02:43.251Z</time></trkpt><trkpt lat="46.0647483" lon="13.468495"><ele>124.50000000000001</ele><time>2026-05-03T08:02:45.251Z</time></trkpt><trkpt lat="46.0646733" lon="13.4684817"><ele>124.0</ele><time>2026-05-03T08:02:46.251Z</time></trkpt><trkpt lat="46.0645883" lon="13.468465"><ele>124.0</ele><time>2026-05-03T08:02:47.251Z</time></trkpt><trkpt lat="46.06449" lon="13.468435"><ele>124.0</ele><time>2026-05-03T08:02:48.251Z</time></trkpt><trkpt lat="46.0643983" lon="13.4683783"><ele>124.0</ele><time>2026-05-03T08:02:49.251Z</time></trkpt><trkpt lat="46.0643067" lon="13.4682817"><ele>124.0</ele><time>2026-05-03T08:02:50.251Z</time></trkpt><trkpt lat="46.0642433" lon="13.4681683"><ele>124.0</ele><time>2026-05-03T08:02:51.251Z</time></trkpt><trkpt lat="46.0641933" lon="13.4680483"><ele>123.66666666666667</ele><time>2026-05-03T08:02:52.252Z</time></trkpt><trkpt lat="46.0641433" lon="13.46794"><ele>123.33333333333334</ele><time>2026-05-03T08:02:53.251Z</time></trkpt><trkpt lat="46.064095" lon="13.4678433"><ele>123.0</ele><time>2026-05-03T08:02:54.251Z</time></trkpt><trkpt lat="46.06404" lon="13.4677567"><ele>122.66666666666666</ele><time>2026-05-03T08:02:55.252Z</time></trkpt><trkpt lat="46.0639717" lon="13.4676817"><ele>122.33333333333333</ele><time>2026-05-03T08:02:56.251Z</time></trkpt><trkpt lat="46.0639017" lon="13.4675983"><ele>122.0</ele><time>2026-05-03T08:02:57.252Z</time></trkpt><trkpt lat="46.0638067" lon="13.467535"><ele>122.0</ele><time>2026-05-03T08:02:58.251Z</time></trkpt><trkpt lat="46.0637033" lon="13.46747"><ele>121.99999999999999</ele><time>2026-05-03T08:02:59.251Z</time></trkpt><trkpt lat="46.0636083" lon="13.4674167"><ele>121.99999999999999</ele><time>2026-05-03T08:03:00.251Z</time></trkpt><trkpt lat="46.0635" lon="13.467365"><ele>122.0</ele><time>2026-05-03T08:03:01.251Z</time></trkpt><trkpt lat="46.0633967" lon="13.4673117"><ele>122.0</ele><time>2026-05-03T08:03:02.251Z</time></trkpt><trkpt lat="46.0633033" lon="13.46726"><ele>122.19999999999999</ele><time>2026-05-03T08:03:03.251Z</time></trkpt><trkpt lat="46.0632" lon="13.4672"><ele>122.39999999999999</ele><time>2026-05-03T08:03:04.251Z</time></trkpt><trkpt lat="46.063115" lon="13.4671217"><ele>122.60000000000001</ele><time>2026-05-03T08:03:05.251Z</time></trkpt><trkpt lat="46.0630333" lon="13.4670233"><ele>122.80000000000001</ele><time>2026-05-03T08:03:06.251Z</time></trkpt><trkpt lat="46.0629417" lon="13.4669367"><ele>123.0</ele><time>2026-05-03T08:03:07.251Z</time></trkpt><trkpt lat="46.0628467" lon="13.466875"><ele>123.0</ele><time>2026-05-03T08:03:08.251Z</time></trkpt><trkpt lat="46.06275" lon="13.466825"><ele>123.0</ele><time>2026-05-03T08:03:09.251Z</time></trkpt><trkpt lat="46.062645" lon="13.466775"><ele>123.0</ele><time>2026-05-03T08:03:10.251Z</time></trkpt><trkpt lat="46.0625283" lon="13.46673"><ele>123.0</ele><time>2026-05-03T08:03:11.251Z</time></trkpt><trkpt lat="46.06242" lon="13.4666683"><ele>122.2</ele><time>2026-05-03T08:03:12.251Z</time></trkpt><trkpt lat="46.0623283" lon="13.4665817"><ele>121.4</ele><time>2026-05-03T08:03:13.251Z</time></trkpt><trkpt lat="46.0622517" lon="13.4664967"><ele>120.60000000000001</ele><time>2026-05-03T08:03:14.251Z</time></trkpt><trkpt lat="46.06218" lon="13.46642"><ele>119.80000000000001</ele><time>2026-05-03T08:03:15.251Z</time></trkpt><trkpt lat="46.062105" lon="13.4663633"><ele>119.0</ele><time>2026-05-03T08:03:16.251Z</time></trkpt><trkpt lat="46.0620183" lon="13.46632"><ele>118.99999999999999</ele><time>2026-05-03T08:03:17.251Z</time></trkpt><trkpt lat="46.06192" lon="13.466295"><ele>119.0</ele><time>2026-05-03T08:03:18.251Z</time></trkpt><trkpt lat="46.0618367" lon="13.4662783"><ele>119.0</ele><time>2026-05-03T08:03:19.251Z</time></trkpt><trkpt lat="46.0617533" lon="13.4662567"><ele>119.0</ele><time>2026-05-03T08:03:20.251Z</time></trkpt><trkpt lat="46.06168" lon="13.4662317"><ele>118.99999999999999</ele><time>2026-05-03T08:03:21.251Z</time></trkpt><trkpt lat="46.0616117" lon="13.4662167"><ele>119.0</ele><time>2026-05-03T08:03:22.251Z</time></trkpt><trkpt lat="46.0615467" lon="13.4662133"><ele>118.99999999999999</ele><time>2026-05-03T08:03:23.251Z</time></trkpt><trkpt lat="46.0614767" lon="13.4662033"><ele>119.0</ele><time>2026-05-03T08:03:24.251Z</time></trkpt><trkpt lat="46.0614083" lon="13.4662083"><ele>119.0</ele><time>2026-05-03T08:03:25.251Z</time></trkpt><trkpt lat="46.06133" lon="13.4662033"><ele>119.0</ele><time>2026-05-03T08:03:26.251Z</time></trkpt><trkpt lat="46.0612517" lon="13.4661867"><ele>118.99999999999999</ele><time>2026-05-03T08:03:27.251Z</time></trkpt><trkpt lat="46.0611617" lon="13.46616"><ele>119.0</ele><time>2026-05-03T08:03:28.251Z</time></trkpt><trkpt lat="46.0610817" lon="13.4661167"><ele>119.0</ele><time>2026-05-03T08:03:29.251Z</time></trkpt><trkpt lat="46.0610067" lon="13.4660467"><ele>119.0</ele><time>2026-05-03T08:03:30.251Z</time></trkpt><trkpt lat="46.0609317" lon="13.4659333"><ele>119.0</ele><time>2026-05-03T08:03:31.251Z</time></trkpt><trkpt lat="46.0608617" lon="13.465795"><ele>119.0</ele><time>2026-05-03T08:03:32.251Z</time></trkpt><trkpt lat="46.0608033" lon="13.4656433"><ele>119.0</ele><time>2026-05-03T08:03:33.251Z</time></trkpt><trkpt lat="46.0607667" lon="13.4654933"><ele>118.2</ele><time>2026-05-03T08:03:34.251Z</time></trkpt><trkpt lat="46.0607367" lon="13.465335"><ele>117.4</ele><time>2026-05-03T08:03:35.251Z</time></trkpt><trkpt lat="46.060705" lon="13.4651783"><ele>116.6</ele><time>2026-05-03T08:03:36.251Z</time></trkpt><trkpt lat="46.0606617" lon="13.465055"><ele>115.8</ele><time>2026-05-03T08:03:37.251Z</time></trkpt><trkpt lat="46.0606117" lon="13.4649433"><ele>115.0</ele><time>2026-05-03T08:03:38.251Z</time></trkpt><trkpt lat="46.06054" lon="13.4648417"><ele>115.0</ele><time>2026-05-03T08:03:39.251Z</time></trkpt><trkpt lat="46.0604467" lon="13.4647367"><ele>115.0</ele><time>2026-05-03T08:03:40.252Z</time></trkpt><trkpt lat="46.0603517" lon="13.46464"><ele>115.0</ele><time>2026-05-03T08:03:41.251Z</time></trkpt><trkpt lat="46.06026" lon="13.4645317"><ele>115.0</ele><time>2026-05-03T08:03:42.251Z</time></trkpt><trkpt lat="46.0601717" lon="13.46442"><ele>115.0</ele><time>2026-05-03T08:03:43.251Z</time></trkpt><trkpt lat="46.0600967" lon="13.464295"><ele>115.0</ele><time>2026-05-03T08:03:44.251Z</time></trkpt><trkpt lat="46.0600317" lon="13.4641517"><ele>115.0</ele><time>2026-05-03T08:03:45.251Z</time></trkpt><trkpt lat="46.059965" lon="13.4640233"><ele>115.0</ele><time>2026-05-03T08:03:46.251Z</time></trkpt><trkpt lat="46.0598983" lon="13.46389"><ele>115.0</ele><time>2026-05-03T08:03:47.251Z</time></trkpt><trkpt lat="46.0598317" lon="13.46376"><ele>115.0</ele><time>2026-05-03T08:03:48.252Z</time></trkpt><trkpt lat="46.0597617" lon="13.463635"><ele>115.0</ele><time>2026-05-03T08:03:49.251Z</time></trkpt><trkpt lat="46.0596867" lon="13.463515"><ele>115.0</ele><time>2026-05-03T08:03:50.251Z</time></trkpt><trkpt lat="46.0596167" lon="13.4633933"><ele>115.0</ele><time>2026-05-03T08:03:51.251Z</time></trkpt><trkpt lat="46.05956" lon="13.46325"><ele>115.0</ele><time>2026-05-03T08:03:52.251Z</time></trkpt><trkpt lat="46.059505" lon="13.463115"><ele>115.0</ele><time>2026-05-03T08:03:53.251Z</time></trkpt><trkpt lat="46.0594483" lon="13.4629867"><ele>115.0</ele><time>2026-05-03T08:03:54.251Z</time></trkpt><trkpt lat="46.0593933" lon="13.4628617"><ele>115.0</ele><time>2026-05-03T08:03:55.251Z</time></trkpt><trkpt lat="46.0593383" lon="13.4627567"><ele>115.0</ele><time>2026-05-03T08:03:56.251Z</time></trkpt><trkpt lat="46.05927" lon="13.462655"><ele>115.0</ele><time>2026-05-03T08:03:57.251Z</time></trkpt><trkpt lat="46.0591933" lon="13.462555"><ele>115.0</ele><time>2026-05-03T08:03:58.251Z</time></trkpt><trkpt lat="46.0591067" lon="13.46246"><ele>115.0</ele><time>2026-05-03T08:03:59.251Z</time></trkpt><trkpt lat="46.0590317" lon="13.46236"><ele>115.0</ele><time>2026-05-03T08:04:00.251Z</time></trkpt><trkpt lat="46.0589633" lon="13.4622433"><ele>115.0</ele><time>2026-05-03T08:04:01.251Z</time></trkpt><trkpt lat="46.0589017" lon="13.462105"><ele>115.0</ele><time>2026-05-03T08:04:02.251Z</time></trkpt><trkpt lat="46.0588417" lon="13.4619683"><ele>115.0</ele><time>2026-05-03T08:04:03.251Z</time></trkpt><trkpt lat="46.0587733" lon="13.4618483"><ele>115.0</ele><time>2026-05-03T08:04:04.251Z</time></trkpt><trkpt lat="46.0587067" lon="13.46175"><ele>115.0</ele><time>2026-05-03T08:04:05.251Z</time></trkpt><trkpt lat="46.05864" lon="13.4616867"><ele>115.0</ele><time>2026-05-03T08:04:06.251Z</time></trkpt><trkpt lat="46.0585583" lon="13.4616317"><ele>115.0</ele><time>2026-05-03T08:04:07.251Z</time></trkpt><trkpt lat="46.0584583" lon="13.4615817"><ele>115.0</ele><time>2026-05-03T08:04:08.251Z</time></trkpt><trkpt lat="46.0583333" lon="13.4615183"><ele>115.0</ele><time>2026-05-03T08:04:09.251Z</time></trkpt><trkpt lat="46.0582067" lon="13.4614433"><ele>115.0</ele><time>2026-05-03T08:04:10.251Z</time></trkpt><trkpt lat="46.05809" lon="13.46137"><ele>114.8</ele><time>2026-05-03T08:04:11.251Z</time></trkpt><trkpt lat="46.0579817" lon="13.4612967"><ele>114.6</ele><time>2026-05-03T08:04:12.251Z</time></trkpt><trkpt lat="46.057895" lon="13.4612233"><ele>114.4</ele><time>2026-05-03T08:04:13.251Z</time></trkpt><trkpt lat="46.0578083" lon="13.4611417"><ele>114.2</ele><time>2026-05-03T08:04:14.251Z</time></trkpt><trkpt lat="46.0577283" lon="13.4610467"><ele>114.0</ele><time>2026-05-03T08:04:15.251Z</time></trkpt><trkpt lat="46.0576617" lon="13.4609217"><ele>114.0</ele><time>2026-05-03T08:04:16.251Z</time></trkpt><trkpt lat="46.0576083" lon="13.4607783"><ele>114.0</ele><time>2026-05-03T08:04:17.251Z</time></trkpt><trkpt lat="46.0575717" lon="13.4606383"><ele>114.0</ele><time>2026-05-03T08:04:18.251Z</time></trkpt><trkpt lat="46.057545" lon="13.460515"><ele>114.0</ele><time>2026-05-03T08:04:19.251Z</time></trkpt><trkpt lat="46.057515" lon="13.4604117"><ele>114.0</ele><time>2026-05-03T08:04:20.251Z</time></trkpt><trkpt lat="46.0574983" lon="13.4603083"><ele>114.0</ele><time>2026-05-03T08:04:21.251Z</time></trkpt><trkpt lat="46.0574967" lon="13.4602017"><ele>114.0</ele><time>2026-05-03T08:04:22.251Z</time></trkpt><trkpt lat="46.0575267" lon="13.4600783"><ele>114.0</ele><time>2026-05-03T08:04:23.251Z</time></trkpt><trkpt lat="46.0575583" lon="13.4599483"><ele>114.0</ele><time>2026-05-03T08:04:24.251Z</time></trkpt><trkpt lat="46.05757" lon="13.459825"><ele>114.0</ele><time>2026-05-03T08:04:25.251Z</time></trkpt><trkpt lat="46.0575633" lon="13.4596867"><ele>114.0</ele><time>2026-05-03T08:04:26.251Z</time></trkpt><trkpt lat="46.05755" lon="13.4595367"><ele>114.0</ele><time>2026-05-03T08:04:27.251Z</time></trkpt><trkpt lat="46.0575383" lon="13.4593783"><ele>114.0</ele><time>2026-05-03T08:04:28.251Z</time></trkpt><trkpt lat="46.0575233" lon="13.45923"><ele>114.0</ele><time>2026-05-03T08:04:29.251Z</time></trkpt><trkpt lat="46.0575183" lon="13.4590717"><ele>114.0</ele><time>2026-05-03T08:04:30.251Z</time></trkpt><trkpt lat="46.0575233" lon="13.4588983"><ele>114.0</ele><time>2026-05-03T08:04:31.251Z</time></trkpt><trkpt lat="46.0575267" lon="13.4587383"><ele>114.2</ele><time>2026-05-03T08:04:32.252Z</time></trkpt><trkpt lat="46.05753" lon="13.4585867"><ele>114.4</ele><time>2026-05-03T08:04:33.251Z</time></trkpt><trkpt lat="46.0575333" lon="13.4584467"><ele>114.6</ele><time>2026-05-03T08:04:34.251Z</time></trkpt><trkpt lat="46.0575333" lon="13.458325"><ele>114.8</ele><time>2026-05-03T08:04:35.251Z</time></trkpt><trkpt lat="46.057535" lon="13.4582083"><ele>115.0</ele><time>2026-05-03T08:04:36.251Z</time></trkpt><trkpt lat="46.0575367" lon="13.45809"><ele>114.99999999999999</ele><time>2026-05-03T08:04:37.251Z</time></trkpt><trkpt lat="46.057535" lon="13.4579817"><ele>115.0</ele><time>2026-05-03T08:04:38.251Z</time></trkpt><trkpt lat="46.0575367" lon="13.4578767"><ele>114.99999999999999</ele><time>2026-05-03T08:04:39.251Z</time></trkpt><trkpt lat="46.0575467" lon="13.457785"><ele>114.99999999999999</ele><time>2026-05-03T08:04:40.251Z</time></trkpt><trkpt lat="46.05755" lon="13.4576933"><ele>115.0</ele><time>2026-05-03T08:04:41.251Z</time></trkpt><trkpt lat="46.0575283" lon="13.4576067"><ele>114.99999999999999</ele><time>2026-05-03T08:04:43.251Z</time></trkpt><trkpt lat="46.0574567" lon="13.4575967"><ele>114.99999999999999</ele><time>2026-05-03T08:04:46.251Z</time></trkpt><trkpt lat="46.0573633" lon="13.4576917"><ele>115.2</ele><time>2026-05-03T08:04:48.251Z</time></trkpt><trkpt lat="46.0573033" lon="13.4577567"><ele>115.4</ele><time>2026-05-03T08:04:49.251Z</time></trkpt><trkpt lat="46.057225" lon="13.4578333"><ele>115.6</ele><time>2026-05-03T08:04:50.251Z</time></trkpt><trkpt lat="46.0571283" lon="13.4579167"><ele>115.8</ele><time>2026-05-03T08:04:51.251Z</time></trkpt><trkpt lat="46.0570267" lon="13.4580017"><ele>116.0</ele><time>2026-05-03T08:04:52.251Z</time></trkpt><trkpt lat="46.0569117" lon="13.4581067"><ele>116.0</ele><time>2026-05-03T08:04:53.251Z</time></trkpt><trkpt lat="46.0568067" lon="13.4582067"><ele>116.0</ele><time>2026-05-03T08:04:54.251Z</time></trkpt><trkpt lat="46.0567033" lon="13.4583017"><ele>116.0</ele><time>2026-05-03T08:04:55.251Z</time></trkpt><trkpt lat="46.0565883" lon="13.4584017"><ele>116.0</ele><time>2026-05-03T08:04:56.251Z</time></trkpt><trkpt lat="46.05646" lon="13.4585117"><ele>115.33333333333333</ele><time>2026-05-03T08:04:57.251Z</time></trkpt><trkpt lat="46.0563267" lon="13.45863"><ele>114.66666666666666</ele><time>2026-05-03T08:04:58.251Z</time></trkpt><trkpt lat="46.0561883" lon="13.4587483"><ele>114.0</ele><time>2026-05-03T08:04:59.25Z</time></trkpt><trkpt lat="46.0560483" lon="13.4588783"><ele>114.0</ele><time>2026-05-03T08:05:00.25Z</time></trkpt><trkpt lat="46.055915" lon="13.459005"><ele>114.0</ele><time>2026-05-03T08:05:01.25Z</time></trkpt><trkpt lat="46.0557833" lon="13.4591267"><ele>114.0</ele><time>2026-05-03T08:05:02.25Z</time></trkpt><trkpt lat="46.055645" lon="13.4592433"><ele>113.66666666666666</ele><time>2026-05-03T08:05:03.25Z</time></trkpt><trkpt lat="46.055515" lon="13.45937"><ele>113.33333333333333</ele><time>2026-05-03T08:05:04.25Z</time></trkpt><trkpt lat="46.0553817" lon="13.4595067"><ele>113.0</ele><time>2026-05-03T08:05:05.25Z</time></trkpt><trkpt lat="46.0552317" lon="13.4596517"><ele>113.0</ele><time>2026-05-03T08:05:06.25Z</time></trkpt><trkpt lat="46.0550583" lon="13.4597967"><ele>113.0</ele><time>2026-05-03T08:05:07.25Z</time></trkpt><trkpt lat="46.0548883" lon="13.4599433"><ele>113.0</ele><time>2026-05-03T08:05:08.25Z</time></trkpt><trkpt lat="46.0547317" lon="13.4600783"><ele>113.0</ele><time>2026-05-03T08:05:09.25Z</time></trkpt><trkpt lat="46.0546" lon="13.4602033"><ele>113.0</ele><time>2026-05-03T08:05:10.25Z</time></trkpt><trkpt lat="46.0544917" lon="13.4603267"><ele>113.0</ele><time>2026-05-03T08:05:11.25Z</time></trkpt><trkpt lat="46.0543883" lon="13.4604533"><ele>113.0</ele><time>2026-05-03T08:05:12.25Z</time></trkpt><trkpt lat="46.0542867" lon="13.46059"><ele>113.0</ele><time>2026-05-03T08:05:13.25Z</time></trkpt><trkpt lat="46.0541867" lon="13.46075"><ele>113.0</ele><time>2026-05-03T08:05:14.25Z</time></trkpt><trkpt lat="46.054095" lon="13.460915"><ele>113.0</ele><time>2026-05-03T08:05:15.25Z</time></trkpt><trkpt lat="46.0539983" lon="13.46109"><ele>113.0</ele><time>2026-05-03T08:05:16.25Z</time></trkpt><trkpt lat="46.0539033" lon="13.461255"><ele>113.0</ele><time>2026-05-03T08:05:17.25Z</time></trkpt><trkpt lat="46.0538083" lon="13.4614117"><ele>113.0</ele><time>2026-05-03T08:05:18.25Z</time></trkpt><trkpt lat="46.053725" lon="13.46156"><ele>113.0</ele><time>2026-05-03T08:05:19.25Z</time></trkpt><trkpt lat="46.0536333" lon="13.4617083"><ele>113.0</ele><time>2026-05-03T08:05:20.25Z</time></trkpt><trkpt lat="46.0535517" lon="13.4618333"><ele>113.0</ele><time>2026-05-03T08:05:21.25Z</time></trkpt><trkpt lat="46.053455" lon="13.4619383"><ele>113.0</ele><time>2026-05-03T08:05:22.25Z</time></trkpt><trkpt lat="46.053335" lon="13.4619917"><ele>113.0</ele><time>2026-05-03T08:05:23.25Z</time></trkpt><trkpt lat="46.0531833" lon="13.46199"><ele>113.0</ele><time>2026-05-03T08:05:24.25Z</time></trkpt><trkpt lat="46.0530283" lon="13.461965"><ele>113.0</ele><time>2026-05-03T08:05:25.25Z</time></trkpt><trkpt lat="46.0528783" lon="13.4619483"><ele>113.0</ele><time>2026-05-03T08:05:26.25Z</time></trkpt><trkpt lat="46.052735" lon="13.461925"><ele>113.0</ele><time>2026-05-03T08:05:27.25Z</time></trkpt><trkpt lat="46.052595" lon="13.4619067"><ele>113.0</ele><time>2026-05-03T08:05:28.25Z</time></trkpt><trkpt lat="46.05245" lon="13.4618767"><ele>113.0</ele><time>2026-05-03T08:05:29.25Z</time></trkpt><trkpt lat="46.05231" lon="13.4618517"><ele>113.0</ele><time>2026-05-03T08:05:30.25Z</time></trkpt><trkpt lat="46.0521767" lon="13.4618433"><ele>114.0</ele><time>2026-05-03T08:05:31.25Z</time></trkpt><trkpt lat="46.0520517" lon="13.4618533"><ele>115.0</ele><time>2026-05-03T08:05:32.25Z</time></trkpt><trkpt lat="46.0519333" lon="13.4618833"><ele>116.0</ele><time>2026-05-03T08:05:33.25Z</time></trkpt><trkpt lat="46.05181" lon="13.4619367"><ele>117.0</ele><time>2026-05-03T08:05:34.25Z</time></trkpt><trkpt lat="46.05168" lon="13.4619983"><ele>118.0</ele><time>2026-05-03T08:05:35.25Z</time></trkpt><trkpt lat="46.051565" lon="13.4620583"><ele>118.99999999999999</ele><time>2026-05-03T08:05:36.25Z</time></trkpt><trkpt lat="46.0514733" lon="13.46211"><ele>119.99999999999999</ele><time>2026-05-03T08:05:37.25Z</time></trkpt><trkpt lat="46.0514" lon="13.4621417"><ele>121.0</ele><time>2026-05-03T08:05:38.25Z</time></trkpt><trkpt lat="46.0513133" lon="13.4621867"><ele>122.0</ele><time>2026-05-03T08:05:40.25Z</time></trkpt><trkpt lat="46.0512367" lon="13.462245"><ele>120.19999999999999</ele><time>2026-05-03T08:05:43.25Z</time></trkpt><trkpt lat="46.0512333" lon="13.46238"><ele>118.39999999999999</ele><time>2026-05-03T08:05:45.25Z</time></trkpt><trkpt lat="46.0512317" lon="13.4625067"><ele>116.60000000000001</ele><time>2026-05-03T08:05:46.25Z</time></trkpt><trkpt lat="46.051215" lon="13.4626617"><ele>114.80000000000001</ele><time>2026-05-03T08:05:47.25Z</time></trkpt><trkpt lat="46.0511833" lon="13.4628333"><ele>113.0</ele><time>2026-05-03T08:05:48.25Z</time></trkpt><trkpt lat="46.0511383" lon="13.4629917"><ele>113.0</ele><time>2026-05-03T08:05:49.25Z</time></trkpt><trkpt lat="46.0510983" lon="13.4631417"><ele>113.00000000000001</ele><time>2026-05-03T08:05:50.25Z</time></trkpt><trkpt lat="46.0510633" lon="13.463295"><ele>113.00000000000001</ele><time>2026-05-03T08:05:51.25Z</time></trkpt><trkpt lat="46.0510383" lon="13.4634517"><ele>113.0</ele><time>2026-05-03T08:05:52.25Z</time></trkpt><trkpt lat="46.0510167" lon="13.46361"><ele>113.0</ele><time>2026-05-03T08:05:53.25Z</time></trkpt><trkpt lat="46.05102" lon="13.4637683"><ele>114.80000000000001</ele><time>2026-05-03T08:05:54.251Z</time></trkpt><trkpt lat="46.051035" lon="13.4639167"><ele>116.60000000000001</ele><time>2026-05-03T08:05:55.25Z</time></trkpt><trkpt lat="46.0510667" lon="13.4640633"><ele>118.39999999999999</ele><time>2026-05-03T08:05:56.25Z</time></trkpt><trkpt lat="46.0511167" lon="13.4642017"><ele>120.19999999999999</ele><time>2026-05-03T08:05:57.251Z</time></trkpt><trkpt lat="46.0511683" lon="13.4643483"><ele>122.0</ele><time>2026-05-03T08:05:58.25Z</time></trkpt><trkpt lat="46.0512167" lon="13.4644933"><ele>123.75</ele><time>2026-05-03T08:05:59.25Z</time></trkpt><trkpt lat="46.05126" lon="13.4646483"><ele>125.5</ele><time>2026-05-03T08:06:00.25Z</time></trkpt><trkpt lat="46.0512983" lon="13.46481"><ele>127.25</ele><time>2026-05-03T08:06:01.25Z</time></trkpt><trkpt lat="46.051345" lon="13.4649833"><ele>129.0</ele><time>2026-05-03T08:06:02.25Z</time></trkpt><trkpt lat="46.0514" lon="13.465175"><ele>129.0</ele><time>2026-05-03T08:06:03.25Z</time></trkpt><trkpt lat="46.0514567" lon="13.4653733"><ele>129.0</ele><time>2026-05-03T08:06:04.25Z</time></trkpt><trkpt lat="46.0515183" lon="13.4655717"><ele>129.0</ele><time>2026-05-03T08:06:05.25Z</time></trkpt><trkpt lat="46.0515717" lon="13.4657667"><ele>129.0</ele><time>2026-05-03T08:06:06.25Z</time></trkpt><trkpt lat="46.0516333" lon="13.4659617"><ele>128.5</ele><time>2026-05-03T08:06:07.25Z</time></trkpt><trkpt lat="46.0516983" lon="13.4661317"><ele>128.0</ele><time>2026-05-03T08:06:08.251Z</time></trkpt><trkpt lat="46.051755" lon="13.4663"><ele>127.5</ele><time>2026-05-03T08:06:09.251Z</time></trkpt><trkpt lat="46.051815" lon="13.4664667"><ele>127.0</ele><time>2026-05-03T08:06:10.25Z</time></trkpt><trkpt lat="46.05186" lon="13.466625"><ele>128.0</ele><time>2026-05-03T08:06:11.25Z</time></trkpt><trkpt lat="46.0519" lon="13.4667817"><ele>129.0</ele><time>2026-05-03T08:06:12.25Z</time></trkpt><trkpt lat="46.051935" lon="13.4669183"><ele>130.0</ele><time>2026-05-03T08:06:13.25Z</time></trkpt><trkpt lat="46.051955" lon="13.4670383"><ele>131.0</ele><time>2026-05-03T08:06:14.25Z</time></trkpt><trkpt lat="46.0519633" lon="13.46716"><ele>132.0</ele><time>2026-05-03T08:06:15.25Z</time></trkpt><trkpt lat="46.05196" lon="13.4672817"><ele>132.4</ele><time>2026-05-03T08:06:16.25Z</time></trkpt><trkpt lat="46.0519417" lon="13.4674117"><ele>132.79999999999998</ele><time>2026-05-03T08:06:17.25Z</time></trkpt><trkpt lat="46.051925" lon="13.4675333"><ele>133.2</ele><time>2026-05-03T08:06:18.25Z</time></trkpt><trkpt lat="46.0519" lon="13.4676583"><ele>133.6</ele><time>2026-05-03T08:06:19.25Z</time></trkpt><trkpt lat="46.0519067" lon="13.4677833"><ele>134.0</ele><time>2026-05-03T08:06:20.251Z</time></trkpt><trkpt lat="46.0519367" lon="13.4679167"><ele>135.0</ele><time>2026-05-03T08:06:21.25Z</time></trkpt><trkpt lat="46.0519767" lon="13.4680433"><ele>136.0</ele><time>2026-05-03T08:06:22.25Z</time></trkpt><trkpt lat="46.0520083" lon="13.46816"><ele>137.0</ele><time>2026-05-03T08:06:23.25Z</time></trkpt><trkpt lat="46.0520233" lon="13.4682767"><ele>138.0</ele><time>2026-05-03T08:06:24.25Z</time></trkpt><trkpt lat="46.0520183" lon="13.4684"><ele>139.0</ele><time>2026-05-03T08:06:25.25Z</time></trkpt><trkpt lat="46.0519967" lon="13.468515"><ele>140.0</ele><time>2026-05-03T08:06:26.25Z</time></trkpt><trkpt lat="46.0519617" lon="13.4685967"><ele>140.0</ele><time>2026-05-03T08:06:27.25Z</time></trkpt><trkpt lat="46.0519033" lon="13.46865"><ele>140.0</ele><time>2026-05-03T08:06:28.25Z</time></trkpt><trkpt lat="46.0518367" lon="13.4686333"><ele>140.0</ele><time>2026-05-03T08:06:29.25Z</time></trkpt><trkpt lat="46.05177" lon="13.4686183"><ele>140.0</ele><time>2026-05-03T08:06:30.25Z</time></trkpt><trkpt lat="46.0516783" lon="13.4685983"><ele>140.0</ele><time>2026-05-03T08:06:32.25Z</time></trkpt><trkpt lat="46.0516133" lon="13.4686433"><ele>140.0</ele><time>2026-05-03T08:06:35.25Z</time></trkpt><trkpt lat="46.0517" lon="13.4687233"><ele>140.0</ele><time>2026-05-03T08:06:38.25Z</time></trkpt><trkpt lat="46.0518167" lon="13.4687683"><ele>140.0</ele><time>2026-05-03T08:06:40.25Z</time></trkpt><trkpt lat="46.0519183" lon="13.4688467"><ele>140.0</ele><time>2026-05-03T08:06:42.25Z</time></trkpt><trkpt lat="46.0520133" lon="13.468855"><ele>140.0</ele><time>2026-05-03T08:06:44.25Z</time></trkpt><trkpt lat="46.05211" lon="13.4687817"><ele>140.0</ele><time>2026-05-03T08:06:46.25Z</time></trkpt><trkpt lat="46.052165" lon="13.4687"><ele>140.0</ele><time>2026-05-03T08:06:47.25Z</time></trkpt><trkpt lat="46.0522167" lon="13.4686"><ele>140.0</ele><time>2026-05-03T08:06:48.251Z</time></trkpt><trkpt lat="46.0522567" lon="13.4685"><ele>140.0</ele><time>2026-05-03T08:06:49.25Z</time></trkpt><trkpt lat="46.05231" lon="13.4684283"><ele>140.0</ele><time>2026-05-03T08:06:50.25Z</time></trkpt><trkpt lat="46.0524017" lon="13.468365"><ele>140.0</ele><time>2026-05-03T08:06:52.25Z</time></trkpt><trkpt lat="46.05249" lon="13.4684267"><ele>140.0</ele><time>2026-05-03T08:06:54.25Z</time></trkpt><trkpt lat="46.05255" lon="13.4684833"><ele>141.0</ele><time>2026-05-03T08:06:55.25Z</time></trkpt><trkpt lat="46.0526367" lon="13.46856"><ele>142.0</ele><time>2026-05-03T08:06:56.25Z</time></trkpt><trkpt lat="46.0527317" lon="13.4686417"><ele>143.0</ele><time>2026-05-03T08:06:57.25Z</time></trkpt><trkpt lat="46.0528267" lon="13.46873"><ele>144.0</ele><time>2026-05-03T08:06:58.25Z</time></trkpt><trkpt lat="46.0529233" lon="13.4688317"><ele>145.0</ele><time>2026-05-03T08:06:59.25Z</time></trkpt><trkpt lat="46.0530167" lon="13.4689267"><ele>145.0</ele><time>2026-05-03T08:07:00.25Z</time></trkpt><trkpt lat="46.0531" lon="13.4690217"><ele>145.0</ele><time>2026-05-03T08:07:01.25Z</time></trkpt><trkpt lat="46.0531783" lon="13.4691183"><ele>145.0</ele><time>2026-05-03T08:07:02.25Z</time></trkpt><trkpt lat="46.05326" lon="13.4692133"><ele>145.0</ele><time>2026-05-03T08:07:03.25Z</time></trkpt><trkpt lat="46.0533583" lon="13.4693"><ele>145.0</ele><time>2026-05-03T08:07:04.25Z</time></trkpt><trkpt lat="46.05347" lon="13.4693783"><ele>145.5</ele><time>2026-05-03T08:07:05.25Z</time></trkpt><trkpt lat="46.0535817" lon="13.4694583"><ele>146.0</ele><time>2026-05-03T08:07:06.25Z</time></trkpt><trkpt lat="46.0536883" lon="13.4695333"><ele>146.5</ele><time>2026-05-03T08:07:07.25Z</time></trkpt><trkpt lat="46.053785" lon="13.469605"><ele>147.0</ele><time>2026-05-03T08:07:08.25Z</time></trkpt><trkpt lat="46.0538733" lon="13.4696667"><ele>145.4</ele><time>2026-05-03T08:07:09.25Z</time></trkpt><trkpt lat="46.05396" lon="13.4697333"><ele>143.79999999999998</ele><time>2026-05-03T08:07:10.25Z</time></trkpt><trkpt lat="46.0540417" lon="13.4697983"><ele>142.2</ele><time>2026-05-03T08:07:11.25Z</time></trkpt><trkpt lat="46.0541233" lon="13.4698517"><ele>140.6</ele><time>2026-05-03T08:07:12.25Z</time></trkpt><trkpt lat="46.054205" lon="13.4699033"><ele>139.0</ele><time>2026-05-03T08:07:13.25Z</time></trkpt><trkpt lat="46.0542817" lon="13.4699483"><ele>139.0</ele><time>2026-05-03T08:07:14.25Z</time></trkpt><trkpt lat="46.054345" lon="13.4699967"><ele>139.0</ele><time>2026-05-03T08:07:15.25Z</time></trkpt><trkpt lat="46.05443" lon="13.4700917"><ele>139.0</ele><time>2026-05-03T08:07:17.25Z</time></trkpt><trkpt lat="46.0544183" lon="13.4702067"><ele>139.0</ele><time>2026-05-03T08:07:19.25Z</time></trkpt><trkpt lat="46.0543667" lon="13.4702867"><ele>139.0</ele><time>2026-05-03T08:07:20.25Z</time></trkpt><trkpt lat="46.0542917" lon="13.47039"><ele>139.0</ele><time>2026-05-03T08:07:21.25Z</time></trkpt><trkpt lat="46.0542317" lon="13.4704767"><ele>138.0</ele><time>2026-05-03T08:07:22.25Z</time></trkpt><trkpt lat="46.0541817" lon="13.47055"><ele>137.0</ele><time>2026-05-03T08:07:23.25Z</time></trkpt><trkpt lat="46.0541767" lon="13.470665"><ele>136.0</ele><time>2026-05-03T08:07:25.25Z</time></trkpt><trkpt lat="46.0542633" lon="13.470775"><ele>135.0</ele><time>2026-05-03T08:07:27.25Z</time></trkpt><trkpt lat="46.0542817" lon="13.4709083"><ele>134.0</ele><time>2026-05-03T08:07:29.251Z</time></trkpt><trkpt lat="46.054155" lon="13.4709417"><ele>132.6</ele><time>2026-05-03T08:07:31.25Z</time></trkpt><trkpt lat="46.0540717" lon="13.470935"><ele>131.2</ele><time>2026-05-03T08:07:32.248Z</time></trkpt><trkpt lat="46.053975" lon="13.47097"><ele>129.79999999999998</ele><time>2026-05-03T08:07:33.25Z</time></trkpt><trkpt lat="46.0538567" lon="13.4710283"><ele>128.4</ele><time>2026-05-03T08:07:34.25Z</time></trkpt><trkpt lat="46.0537417" lon="13.4710667"><ele>127.0</ele><time>2026-05-03T08:07:35.25Z</time></trkpt><trkpt lat="46.053625" lon="13.4710933"><ele>127.0</ele><time>2026-05-03T08:07:36.25Z</time></trkpt><trkpt lat="46.0535167" lon="13.4710967"><ele>127.0</ele><time>2026-05-03T08:07:37.25Z</time></trkpt><trkpt lat="46.0534" lon="13.47107"><ele>127.0</ele><time>2026-05-03T08:07:38.25Z</time></trkpt><trkpt lat="46.053285" lon="13.4710233"><ele>127.0</ele><time>2026-05-03T08:07:39.25Z</time></trkpt><trkpt lat="46.053185" lon="13.4709783"><ele>126.50000000000001</ele><time>2026-05-03T08:07:40.25Z</time></trkpt><trkpt lat="46.0531033" lon="13.47095"><ele>126.0</ele><time>2026-05-03T08:07:41.25Z</time></trkpt><trkpt lat="46.053035" lon="13.47095"><ele>125.5</ele><time>2026-05-03T08:07:42.25Z</time></trkpt><trkpt lat="46.05298" lon="13.4709983"><ele>125.0</ele><time>2026-05-03T08:07:43.25Z</time></trkpt><trkpt lat="46.05297" lon="13.4711167"><ele>124.50000000000001</ele><time>2026-05-03T08:07:44.25Z</time></trkpt><trkpt lat="46.0529733" lon="13.4712533"><ele>124.0</ele><time>2026-05-03T08:07:45.25Z</time></trkpt><trkpt lat="46.0529867" lon="13.4714067"><ele>122.50000000000001</ele><time>2026-05-03T08:07:46.25Z</time></trkpt><trkpt lat="46.052995" lon="13.4715417"><ele>121.0</ele><time>2026-05-03T08:07:47.25Z</time></trkpt><trkpt lat="46.05301" lon="13.471655"><ele>119.5</ele><time>2026-05-03T08:07:48.25Z</time></trkpt><trkpt lat="46.0530483" lon="13.4717417"><ele>118.0</ele><time>2026-05-03T08:07:49.25Z</time></trkpt><trkpt lat="46.0531233" lon="13.47181"><ele>116.50000000000001</ele><time>2026-05-03T08:07:50.25Z</time></trkpt><trkpt lat="46.0532283" lon="13.47186"><ele>115.0</ele><time>2026-05-03T08:07:51.25Z</time></trkpt><trkpt lat="46.053345" lon="13.47191"><ele>115.00000000000001</ele><time>2026-05-03T08:07:52.25Z</time></trkpt><trkpt lat="46.0534483" lon="13.4719533"><ele>115.0</ele><time>2026-05-03T08:07:53.25Z</time></trkpt><trkpt lat="46.053515" lon="13.4719933"><ele>115.0</ele><time>2026-05-03T08:07:54.25Z</time></trkpt><trkpt lat="46.053565" lon="13.472125"><ele>115.0</ele><time>2026-05-03T08:07:56.25Z</time></trkpt><trkpt lat="46.0535433" lon="13.47222"><ele>115.00000000000001</ele><time>2026-05-03T08:07:57.25Z</time></trkpt><trkpt lat="46.0535033" lon="13.4723067"><ele>115.0</ele><time>2026-05-03T08:07:58.25Z</time></trkpt><trkpt lat="46.0534417" lon="13.472345"><ele>115.5</ele><time>2026-05-03T08:07:59.25Z</time></trkpt><trkpt lat="46.05328" lon="13.472325"><ele>116.0</ele><time>2026-05-03T08:08:01.25Z</time></trkpt><trkpt lat="46.0531583" lon="13.4722583"><ele>116.5</ele><time>2026-05-03T08:08:02.25Z</time></trkpt><trkpt lat="46.053035" lon="13.4721933"><ele>117.0</ele><time>2026-05-03T08:08:03.25Z</time></trkpt><trkpt lat="46.0529117" lon="13.4721233"><ele>116.25</ele><time>2026-05-03T08:08:04.25Z</time></trkpt><trkpt lat="46.05279" lon="13.4720833"><ele>115.5</ele><time>2026-05-03T08:08:05.25Z</time></trkpt><trkpt lat="46.0526633" lon="13.4720767"><ele>114.75</ele><time>2026-05-03T08:08:06.25Z</time></trkpt><trkpt lat="46.0525267" lon="13.4720733"><ele>114.0</ele><time>2026-05-03T08:08:07.25Z</time></trkpt><trkpt lat="46.0523867" lon="13.4720633"><ele>114.0</ele><time>2026-05-03T08:08:08.25Z</time></trkpt><trkpt lat="46.0522517" lon="13.47207"><ele>114.0</ele><time>2026-05-03T08:08:09.25Z</time></trkpt><trkpt lat="46.05213" lon="13.472085"><ele>114.0</ele><time>2026-05-03T08:08:10.25Z</time></trkpt><trkpt lat="46.05202" lon="13.47211"><ele>114.0</ele><time>2026-05-03T08:08:11.25Z</time></trkpt><trkpt lat="46.05192" lon="13.4721133"><ele>114.0</ele><time>2026-05-03T08:08:12.25Z</time></trkpt><trkpt lat="46.0518267" lon="13.4720733"><ele>114.0</ele><time>2026-05-03T08:08:13.25Z</time></trkpt><trkpt lat="46.0517217" lon="13.4720233"><ele>114.0</ele><time>2026-05-03T08:08:14.25Z</time></trkpt><trkpt lat="46.051595" lon="13.4720067"><ele>114.0</ele><time>2026-05-03T08:08:15.25Z</time></trkpt><trkpt lat="46.051465" lon="13.4719917"><ele>114.25</ele><time>2026-05-03T08:08:16.25Z</time></trkpt><trkpt lat="46.05133" lon="13.471965"><ele>114.5</ele><time>2026-05-03T08:08:17.25Z</time></trkpt><trkpt lat="46.051205" lon="13.4719567"><ele>114.75</ele><time>2026-05-03T08:08:18.25Z</time></trkpt><trkpt lat="46.051075" lon="13.471965"><ele>115.0</ele><time>2026-05-03T08:08:19.25Z</time></trkpt><trkpt lat="46.050955" lon="13.4719817"><ele>115.0</ele><time>2026-05-03T08:08:20.25Z</time></trkpt><trkpt lat="46.0508383" lon="13.4720117"><ele>115.0</ele><time>2026-05-03T08:08:21.25Z</time></trkpt><trkpt lat="46.05072" lon="13.4720483"><ele>115.0</ele><time>2026-05-03T08:08:22.25Z</time></trkpt><trkpt lat="46.0506033" lon="13.472095"><ele>115.0</ele><time>2026-05-03T08:08:23.25Z</time></trkpt><trkpt lat="46.0504917" lon="13.4721567"><ele>114.25</ele><time>2026-05-03T08:08:24.25Z</time></trkpt><trkpt lat="46.0503783" lon="13.472235"><ele>113.5</ele><time>2026-05-03T08:08:25.25Z</time></trkpt><trkpt lat="46.050265" lon="13.4723433"><ele>112.75</ele><time>2026-05-03T08:08:26.25Z</time></trkpt><trkpt lat="46.0501483" lon="13.4724517"><ele>112.0</ele><time>2026-05-03T08:08:27.25Z</time></trkpt><trkpt lat="46.0500333" lon="13.4725733"><ele>111.5</ele><time>2026-05-03T08:08:28.25Z</time></trkpt><trkpt lat="46.0499067" lon="13.4726883"><ele>111.0</ele><time>2026-05-03T08:08:29.25Z</time></trkpt><trkpt lat="46.04979" lon="13.4727817"><ele>110.5</ele><time>2026-05-03T08:08:30.25Z</time></trkpt><trkpt lat="46.049675" lon="13.4728733"><ele>110.0</ele><time>2026-05-03T08:08:31.25Z</time></trkpt><trkpt lat="46.0495683" lon="13.4729917"><ele>110.0</ele><time>2026-05-03T08:08:32.25Z</time></trkpt><trkpt lat="46.04947" lon="13.473105"><ele>110.0</ele><time>2026-05-03T08:08:33.25Z</time></trkpt><trkpt lat="46.0493817" lon="13.4732267"><ele>110.0</ele><time>2026-05-03T08:08:34.25Z</time></trkpt><trkpt lat="46.0492883" lon="13.4733583"><ele>110.0</ele><time>2026-05-03T08:08:35.25Z</time></trkpt><trkpt lat="46.0491917" lon="13.4734867"><ele>110.75</ele><time>2026-05-03T08:08:36.25Z</time></trkpt><trkpt lat="46.0491" lon="13.47361"><ele>111.5</ele><time>2026-05-03T08:08:37.25Z</time></trkpt><trkpt lat="46.0490083" lon="13.47375"><ele>112.25</ele><time>2026-05-03T08:08:38.25Z</time></trkpt><trkpt lat="46.04891" lon="13.4738917"><ele>113.0</ele><time>2026-05-03T08:08:39.25Z</time></trkpt><trkpt lat="46.0488117" lon="13.4740233"><ele>111.5</ele><time>2026-05-03T08:08:40.25Z</time></trkpt><trkpt lat="46.0486983" lon="13.4741317"><ele>110.0</ele><time>2026-05-03T08:08:41.25Z</time></trkpt><trkpt lat="46.04859" lon="13.474225"><ele>108.5</ele><time>2026-05-03T08:08:42.25Z</time></trkpt><trkpt lat="46.0484717" lon="13.4743"><ele>107.0</ele><time>2026-05-03T08:08:43.25Z</time></trkpt><trkpt lat="46.0483667" lon="13.4743967"><ele>107.75</ele><time>2026-05-03T08:08:44.25Z</time></trkpt><trkpt lat="46.048275" lon="13.4745083"><ele>108.5</ele><time>2026-05-03T08:08:45.25Z</time></trkpt><trkpt lat="46.048195" lon="13.4746417"><ele>109.25</ele><time>2026-05-03T08:08:46.25Z</time></trkpt><trkpt lat="46.0481033" lon="13.474795"><ele>110.0</ele><time>2026-05-03T08:08:47.25Z</time></trkpt><trkpt lat="46.0480217" lon="13.4749583"><ele>110.0</ele><time>2026-05-03T08:08:48.25Z</time></trkpt><trkpt lat="46.0479433" lon="13.4751333"><ele>110.0</ele><time>2026-05-03T08:08:49.25Z</time></trkpt><trkpt lat="46.0478683" lon="13.4753033"><ele>110.0</ele><time>2026-05-03T08:08:50.25Z</time></trkpt><trkpt lat="46.0477867" lon="13.4754583"><ele>110.0</ele><time>2026-05-03T08:08:51.25Z</time></trkpt><trkpt lat="46.0477117" lon="13.4755917"><ele>109.0</ele><time>2026-05-03T08:08:52.25Z</time></trkpt><trkpt lat="46.0476317" lon="13.4757217"><ele>108.0</ele><time>2026-05-03T08:08:53.25Z</time></trkpt><trkpt lat="46.04754" lon="13.4758617"><ele>107.0</ele><time>2026-05-03T08:08:54.25Z</time></trkpt><trkpt lat="46.04745" lon="13.4760083"><ele>106.0</ele><time>2026-05-03T08:08:55.25Z</time></trkpt><trkpt lat="46.0473583" lon="13.476155"><ele>104.33333333333334</ele><time>2026-05-03T08:08:56.25Z</time></trkpt><trkpt lat="46.04727" lon="13.476305"><ele>102.66666666666666</ele><time>2026-05-03T08:08:57.25Z</time></trkpt><trkpt lat="46.047155" lon="13.4764533"><ele>101.0</ele><time>2026-05-03T08:08:58.25Z</time></trkpt><trkpt lat="46.0470267" lon="13.4765917"><ele>101.0</ele><time>2026-05-03T08:08:59.25Z</time></trkpt><trkpt lat="46.0468983" lon="13.4767233"><ele>101.0</ele><time>2026-05-03T08:09:00.25Z</time></trkpt><trkpt lat="46.0467767" lon="13.476845"><ele>101.0</ele><time>2026-05-03T08:09:01.25Z</time></trkpt><trkpt lat="46.0466533" lon="13.47696"><ele>101.75</ele><time>2026-05-03T08:09:02.25Z</time></trkpt><trkpt lat="46.04653" lon="13.4770633"><ele>102.5</ele><time>2026-05-03T08:09:03.25Z</time></trkpt><trkpt lat="46.0463967" lon="13.4771383"><ele>103.25</ele><time>2026-05-03T08:09:04.25Z</time></trkpt><trkpt lat="46.0462567" lon="13.4771817"><ele>104.0</ele><time>2026-05-03T08:09:05.25Z</time></trkpt><trkpt lat="46.0461233" lon="13.4772267"><ele>104.0</ele><time>2026-05-03T08:09:06.25Z</time></trkpt><trkpt lat="46.046" lon="13.4772683"><ele>104.0</ele><time>2026-05-03T08:09:07.25Z</time></trkpt><trkpt lat="46.0458933" lon="13.477325"><ele>104.0</ele><time>2026-05-03T08:09:08.25Z</time></trkpt><trkpt lat="46.045805" lon="13.47742"><ele>104.0</ele><time>2026-05-03T08:09:09.25Z</time></trkpt><trkpt lat="46.0457417" lon="13.4775333"><ele>104.4</ele><time>2026-05-03T08:09:10.25Z</time></trkpt><trkpt lat="46.0457117" lon="13.4776767"><ele>104.80000000000001</ele><time>2026-05-03T08:09:11.25Z</time></trkpt><trkpt lat="46.045695" lon="13.4778333"><ele>105.19999999999999</ele><time>2026-05-03T08:09:12.25Z</time></trkpt><trkpt lat="46.0456967" lon="13.47798"><ele>105.6</ele><time>2026-05-03T08:09:13.25Z</time></trkpt><trkpt lat="46.045695" lon="13.4781017"><ele>106.0</ele><time>2026-05-03T08:09:14.25Z</time></trkpt><trkpt lat="46.0456967" lon="13.4782567"><ele>106.0</ele><time>2026-05-03T08:09:16.25Z</time></trkpt><trkpt lat="46.0456533" lon="13.4783267"><ele>106.0</ele><time>2026-05-03T08:09:18.25Z</time></trkpt><trkpt lat="46.045525" lon="13.4782817"><ele>106.0</ele><time>2026-05-03T08:09:20.25Z</time></trkpt><trkpt lat="46.0453983" lon="13.47822"><ele>106.0</ele><time>2026-05-03T08:09:21.25Z</time></trkpt><trkpt lat="46.04527" lon="13.47819"><ele>106.0</ele><time>2026-05-03T08:09:22.25Z</time></trkpt><trkpt lat="46.04518" lon="13.4781083"><ele>106.0</ele><time>2026-05-03T08:09:23.25Z</time></trkpt><trkpt lat="46.0450583" lon="13.4780333"><ele>106.0</ele><time>2026-05-03T08:09:24.25Z</time></trkpt><trkpt lat="46.044925" lon="13.477985"><ele>106.0</ele><time>2026-05-03T08:09:25.25Z</time></trkpt><trkpt lat="46.0447817" lon="13.4779533"><ele>104.25</ele><time>2026-05-03T08:09:26.25Z</time></trkpt><trkpt lat="46.044635" lon="13.47792"><ele>102.5</ele><time>2026-05-03T08:09:27.25Z</time></trkpt><trkpt lat="46.0445017" lon="13.4778983"><ele>100.75</ele><time>2026-05-03T08:09:28.25Z</time></trkpt><trkpt lat="46.0443733" lon="13.4778833"><ele>99.0</ele><time>2026-05-03T08:09:29.25Z</time></trkpt><trkpt lat="46.04425" lon="13.4778517"><ele>99.75</ele><time>2026-05-03T08:09:30.25Z</time></trkpt><trkpt lat="46.0441267" lon="13.4778317"><ele>100.5</ele><time>2026-05-03T08:09:31.25Z</time></trkpt><trkpt lat="46.04401" lon="13.477855"><ele>101.25</ele><time>2026-05-03T08:09:32.25Z</time></trkpt><trkpt lat="46.0439033" lon="13.4779017"><ele>102.0</ele><time>2026-05-03T08:09:33.25Z</time></trkpt><trkpt lat="46.0438033" lon="13.4779583"><ele>102.0</ele><time>2026-05-03T08:09:34.25Z</time></trkpt><trkpt lat="46.0437183" lon="13.4780083"><ele>102.0</ele><time>2026-05-03T08:09:35.251Z</time></trkpt><trkpt lat="46.0436483" lon="13.47804"><ele>102.0</ele><time>2026-05-03T08:09:36.25Z</time></trkpt><trkpt lat="46.04353" lon="13.47799"><ele>102.0</ele><time>2026-05-03T08:09:38.25Z</time></trkpt><trkpt lat="46.0434683" lon="13.47792"><ele>102.0</ele><time>2026-05-03T08:09:39.251Z</time></trkpt><trkpt lat="46.0433917" lon="13.47782"><ele>102.0</ele><time>2026-05-03T08:09:40.25Z</time></trkpt><trkpt lat="46.0432983" lon="13.4776767"><ele>102.0</ele><time>2026-05-03T08:09:41.25Z</time></trkpt><trkpt lat="46.0431783" lon="13.477545"><ele>102.0</ele><time>2026-05-03T08:09:42.25Z</time></trkpt><trkpt lat="46.043065" lon="13.4774517"><ele>102.0</ele><time>2026-05-03T08:09:43.25Z</time></trkpt><trkpt lat="46.0429533" lon="13.477375"><ele>102.0</ele><time>2026-05-03T08:09:44.251Z</time></trkpt><trkpt lat="46.0428467" lon="13.4773167"><ele>102.0</ele><time>2026-05-03T08:09:45.25Z</time></trkpt><trkpt lat="46.0427483" lon="13.4772633"><ele>102.0</ele><time>2026-05-03T08:09:46.25Z</time></trkpt><trkpt lat="46.042645" lon="13.4772217"><ele>102.0</ele><time>2026-05-03T08:09:47.25Z</time></trkpt><trkpt lat="46.0425333" lon="13.477195"><ele>102.0</ele><time>2026-05-03T08:09:48.25Z</time></trkpt><trkpt lat="46.042405" lon="13.4771883"><ele>102.0</ele><time>2026-05-03T08:09:49.25Z</time></trkpt><trkpt lat="46.0422633" lon="13.4772117"><ele>102.0</ele><time>2026-05-03T08:09:50.25Z</time></trkpt><trkpt lat="46.0421083" lon="13.47724"><ele>102.0</ele><time>2026-05-03T08:09:51.25Z</time></trkpt><trkpt lat="46.0419583" lon="13.4772867"><ele>102.0</ele><time>2026-05-03T08:09:52.25Z</time></trkpt><trkpt lat="46.0418083" lon="13.4773417"><ele>102.0</ele><time>2026-05-03T08:09:53.25Z</time></trkpt><trkpt lat="46.0416617" lon="13.4773883"><ele>102.0</ele><time>2026-05-03T08:09:54.25Z</time></trkpt><trkpt lat="46.0415133" lon="13.4774267"><ele>101.0</ele><time>2026-05-03T08:09:55.25Z</time></trkpt><trkpt lat="46.0413667" lon="13.4774567"><ele>100.0</ele><time>2026-05-03T08:09:56.25Z</time></trkpt><trkpt lat="46.041235" lon="13.477485"><ele>99.0</ele><time>2026-05-03T08:09:57.25Z</time></trkpt><trkpt lat="46.0411133" lon="13.4775133"><ele>98.0</ele><time>2026-05-03T08:09:58.25Z</time></trkpt><trkpt lat="46.0409917" lon="13.477545"><ele>98.0</ele><time>2026-05-03T08:09:59.25Z</time></trkpt><trkpt lat="46.0408767" lon="13.477575"><ele>98.0</ele><time>2026-05-03T08:10:00.25Z</time></trkpt><trkpt lat="46.040755" lon="13.4776017"><ele>98.0</ele><time>2026-05-03T08:10:01.25Z</time></trkpt><trkpt lat="46.04064" lon="13.47763"><ele>98.0</ele><time>2026-05-03T08:10:02.25Z</time></trkpt><trkpt lat="46.0405283" lon="13.4776633"><ele>98.0</ele><time>2026-05-03T08:10:03.25Z</time></trkpt><trkpt lat="46.0404067" lon="13.4776917"><ele>98.0</ele><time>2026-05-03T08:10:04.25Z</time></trkpt><trkpt lat="46.0402817" lon="13.4777183"><ele>98.0</ele><time>2026-05-03T08:10:05.25Z</time></trkpt><trkpt lat="46.040155" lon="13.4777383"><ele>98.0</ele><time>2026-05-03T08:10:06.25Z</time></trkpt><trkpt lat="46.040035" lon="13.477745"><ele>97.75</ele><time>2026-05-03T08:10:07.25Z</time></trkpt><trkpt lat="46.0399033" lon="13.4777183"><ele>97.5</ele><time>2026-05-03T08:10:08.25Z</time></trkpt><trkpt lat="46.0397733" lon="13.4776633"><ele>97.25</ele><time>2026-05-03T08:10:09.25Z</time></trkpt><trkpt lat="46.0396333" lon="13.4776017"><ele>97.0</ele><time>2026-05-03T08:10:10.25Z</time></trkpt><trkpt lat="46.0394767" lon="13.4775567"><ele>97.0</ele><time>2026-05-03T08:10:11.25Z</time></trkpt><trkpt lat="46.0393033" lon="13.4775333"><ele>97.0</ele><time>2026-05-03T08:10:12.25Z</time></trkpt><trkpt lat="46.0391267" lon="13.477535"><ele>97.0</ele><time>2026-05-03T08:10:13.25Z</time></trkpt><trkpt lat="46.0389417" lon="13.47755"><ele>97.33333333333334</ele><time>2026-05-03T08:10:14.25Z</time></trkpt><trkpt lat="46.038755" lon="13.4775717"><ele>97.66666666666666</ele><time>2026-05-03T08:10:15.25Z</time></trkpt><trkpt lat="46.0385633" lon="13.4775917"><ele>98.0</ele><time>2026-05-03T08:10:16.25Z</time></trkpt><trkpt lat="46.0383783" lon="13.4776217"><ele>96.66666666666666</ele><time>2026-05-03T08:10:17.25Z</time></trkpt><trkpt lat="46.0381967" lon="13.4776583"><ele>95.33333333333333</ele><time>2026-05-03T08:10:18.25Z</time></trkpt><trkpt lat="46.038005" lon="13.4776967"><ele>94.0</ele><time>2026-05-03T08:10:19.25Z</time></trkpt><trkpt lat="46.0377967" lon="13.4777433"><ele>94.0</ele><time>2026-05-03T08:10:20.25Z</time></trkpt><trkpt lat="46.037595" lon="13.47779"><ele>94.0</ele><time>2026-05-03T08:10:21.25Z</time></trkpt><trkpt lat="46.0373967" lon="13.4778333"><ele>94.0</ele><time>2026-05-03T08:10:22.25Z</time></trkpt><trkpt lat="46.0372067" lon="13.477865"><ele>94.33333333333333</ele><time>2026-05-03T08:10:23.251Z</time></trkpt><trkpt lat="46.03702" lon="13.4778817"><ele>94.66666666666667</ele><time>2026-05-03T08:10:24.25Z</time></trkpt><trkpt lat="46.036825" lon="13.4778717"><ele>95.0</ele><time>2026-05-03T08:10:25.25Z</time></trkpt><trkpt lat="46.036635" lon="13.4778283"><ele>94.0</ele><time>2026-05-03T08:10:26.25Z</time></trkpt><trkpt lat="46.0364517" lon="13.4777533"><ele>93.0</ele><time>2026-05-03T08:10:27.25Z</time></trkpt><trkpt lat="46.03627" lon="13.4776717"><ele>92.0</ele><time>2026-05-03T08:10:28.25Z</time></trkpt><trkpt lat="46.0360783" lon="13.47759"><ele>92.0</ele><time>2026-05-03T08:10:29.25Z</time></trkpt><trkpt lat="46.0358883" lon="13.4775067"><ele>92.0</ele><time>2026-05-03T08:10:30.25Z</time></trkpt><trkpt lat="46.0356983" lon="13.4774217"><ele>92.0</ele><time>2026-05-03T08:10:31.25Z</time></trkpt><trkpt lat="46.035515" lon="13.4773333"><ele>91.33333333333334</ele><time>2026-05-03T08:10:32.25Z</time></trkpt><trkpt lat="46.0353433" lon="13.4772583"><ele>90.66666666666667</ele><time>2026-05-03T08:10:33.251Z</time></trkpt><trkpt lat="46.0351717" lon="13.4771967"><ele>90.0</ele><time>2026-05-03T08:10:34.25Z</time></trkpt><trkpt lat="46.0350033" lon="13.4771483"><ele>89.33333333333333</ele><time>2026-05-03T08:10:35.25Z</time></trkpt><trkpt lat="46.0348417" lon="13.4770983"><ele>88.66666666666666</ele><time>2026-05-03T08:10:36.25Z</time></trkpt><trkpt lat="46.0346933" lon="13.4770533"><ele>88.0</ele><time>2026-05-03T08:10:37.25Z</time></trkpt><trkpt lat="46.034535" lon="13.477005"><ele>88.0</ele><time>2026-05-03T08:10:38.25Z</time></trkpt><trkpt lat="46.034385" lon="13.476955"><ele>88.0</ele><time>2026-05-03T08:10:39.25Z</time></trkpt><trkpt lat="46.034235" lon="13.4769"><ele>88.0</ele><time>2026-05-03T08:10:40.25Z</time></trkpt><trkpt lat="46.0340783" lon="13.4768433"><ele>88.25</ele><time>2026-05-03T08:10:41.25Z</time></trkpt><trkpt lat="46.0339417" lon="13.47678"><ele>88.5</ele><time>2026-05-03T08:10:42.25Z</time></trkpt><trkpt lat="46.033795" lon="13.4767117"><ele>88.75</ele><time>2026-05-03T08:10:43.25Z</time></trkpt><trkpt lat="46.0336583" lon="13.4766467"><ele>89.0</ele><time>2026-05-03T08:10:44.25Z</time></trkpt><trkpt lat="46.0335167" lon="13.4765683"><ele>89.0</ele><time>2026-05-03T08:10:45.25Z</time></trkpt><trkpt lat="46.0333783" lon="13.4764917"><ele>89.0</ele><time>2026-05-03T08:10:46.25Z</time></trkpt><trkpt lat="46.03324" lon="13.476385"><ele>89.0</ele><time>2026-05-03T08:10:47.25Z</time></trkpt><trkpt lat="46.0331" lon="13.4762633"><ele>89.0</ele><time>2026-05-03T08:10:48.25Z</time></trkpt><trkpt lat="46.03296" lon="13.47612"><ele>89.0</ele><time>2026-05-03T08:10:49.25Z</time></trkpt><trkpt lat="46.0328217" lon="13.4759717"><ele>89.0</ele><time>2026-05-03T08:10:50.25Z</time></trkpt><trkpt lat="46.032685" lon="13.47584"><ele>89.0</ele><time>2026-05-03T08:10:51.25Z</time></trkpt><trkpt lat="46.0325483" lon="13.47572"><ele>89.0</ele><time>2026-05-03T08:10:52.25Z</time></trkpt><trkpt lat="46.0324117" lon="13.4756233"><ele>89.0</ele><time>2026-05-03T08:10:53.25Z</time></trkpt><trkpt lat="46.0322733" lon="13.475545"><ele>89.5</ele><time>2026-05-03T08:10:54.25Z</time></trkpt><trkpt lat="46.032145" lon="13.4754783"><ele>90.0</ele><time>2026-05-03T08:10:55.25Z</time></trkpt><trkpt lat="46.0320317" lon="13.4754167"><ele>90.5</ele><time>2026-05-03T08:10:56.25Z</time></trkpt><trkpt lat="46.03192" lon="13.4753867"><ele>91.0</ele><time>2026-05-03T08:10:57.25Z</time></trkpt><trkpt lat="46.0318167" lon="13.475415"><ele>90.0</ele><time>2026-05-03T08:10:58.25Z</time></trkpt><trkpt lat="46.0317333" lon="13.4754967"><ele>89.0</ele><time>2026-05-03T08:10:59.25Z</time></trkpt><trkpt lat="46.0316717" lon="13.4756267"><ele>88.0</ele><time>2026-05-03T08:11:00.251Z</time></trkpt><trkpt lat="46.031615" lon="13.4757733"><ele>87.0</ele><time>2026-05-03T08:11:01.25Z</time></trkpt><trkpt lat="46.03158" lon="13.475925"><ele>86.0</ele><time>2026-05-03T08:11:02.25Z</time></trkpt><trkpt lat="46.031535" lon="13.47604"><ele>85.6</ele><time>2026-05-03T08:11:03.25Z</time></trkpt><trkpt lat="46.031475" lon="13.4761267"><ele>85.19999999999999</ele><time>2026-05-03T08:11:04.25Z</time></trkpt><trkpt lat="46.031395" lon="13.476175"><ele>84.80000000000001</ele><time>2026-05-03T08:11:05.25Z</time></trkpt><trkpt lat="46.0312867" lon="13.4761733"><ele>84.4</ele><time>2026-05-03T08:11:06.25Z</time></trkpt><trkpt lat="46.0311583" lon="13.4761683"><ele>84.0</ele><time>2026-05-03T08:11:07.25Z</time></trkpt><trkpt lat="46.0310233" lon="13.476165"><ele>84.0</ele><time>2026-05-03T08:11:08.25Z</time></trkpt><trkpt lat="46.0308817" lon="13.47615"><ele>84.0</ele><time>2026-05-03T08:11:09.25Z</time></trkpt><trkpt lat="46.0307017" lon="13.4761333"><ele>84.0</ele><time>2026-05-03T08:11:10.25Z</time></trkpt><trkpt lat="46.030515" lon="13.4761"><ele>83.66666666666667</ele><time>2026-05-03T08:11:11.25Z</time></trkpt><trkpt lat="46.030325" lon="13.4760533"><ele>83.33333333333334</ele><time>2026-05-03T08:11:12.25Z</time></trkpt><trkpt lat="46.030125" lon="13.4760133"><ele>83.0</ele><time>2026-05-03T08:11:13.25Z</time></trkpt><trkpt lat="46.0299317" lon="13.4759667"><ele>82.33333333333334</ele><time>2026-05-03T08:11:14.25Z</time></trkpt><trkpt lat="46.0297483" lon="13.4759033"><ele>81.66666666666667</ele><time>2026-05-03T08:11:15.25Z</time></trkpt><trkpt lat="46.0295667" lon="13.4758133"><ele>81.0</ele><time>2026-05-03T08:11:16.25Z</time></trkpt><trkpt lat="46.02939" lon="13.47571"><ele>81.0</ele><time>2026-05-03T08:11:17.25Z</time></trkpt><trkpt lat="46.0292183" lon="13.4756017"><ele>81.0</ele><time>2026-05-03T08:11:18.25Z</time></trkpt><trkpt lat="46.0290633" lon="13.4754983"><ele>81.0</ele><time>2026-05-03T08:11:19.25Z</time></trkpt><trkpt lat="46.0289183" lon="13.4754017"><ele>80.75</ele><time>2026-05-03T08:11:20.25Z</time></trkpt><trkpt lat="46.0287833" lon="13.4753183"><ele>80.5</ele><time>2026-05-03T08:11:21.25Z</time></trkpt><trkpt lat="46.0286683" lon="13.475245"><ele>80.25</ele><time>2026-05-03T08:11:22.25Z</time></trkpt><trkpt lat="46.0285717" lon="13.4751867"><ele>80.0</ele><time>2026-05-03T08:11:23.25Z</time></trkpt><trkpt lat="46.0285017" lon="13.4751083"><ele>80.0</ele><time>2026-05-03T08:11:24.25Z</time></trkpt><trkpt lat="46.0284733" lon="13.475015"><ele>80.0</ele><time>2026-05-03T08:11:25.25Z</time></trkpt><trkpt lat="46.0284733" lon="13.4749017"><ele>80.0</ele><time>2026-05-03T08:11:26.25Z</time></trkpt><trkpt lat="46.0285117" lon="13.4747567"><ele>80.0</ele><time>2026-05-03T08:11:27.25Z</time></trkpt><trkpt lat="46.0285633" lon="13.47458"><ele>80.0</ele><time>2026-05-03T08:11:28.25Z</time></trkpt><trkpt lat="46.028605" lon="13.47439"><ele>81.33333333333334</ele><time>2026-05-03T08:11:29.25Z</time></trkpt><trkpt lat="46.028655" lon="13.4741833"><ele>82.66666666666667</ele><time>2026-05-03T08:11:30.25Z</time></trkpt><trkpt lat="46.02871" lon="13.4739667"><ele>84.0</ele><time>2026-05-03T08:11:31.25Z</time></trkpt><trkpt lat="46.02875" lon="13.47376"><ele>85.5</ele><time>2026-05-03T08:11:32.249Z</time></trkpt><trkpt lat="46.02878" lon="13.473565"><ele>87.0</ele><time>2026-05-03T08:11:33.249Z</time></trkpt><trkpt lat="46.0287917" lon="13.4734"><ele>88.5</ele><time>2026-05-03T08:11:34.249Z</time></trkpt><trkpt lat="46.0287783" lon="13.4732317"><ele>90.0</ele><time>2026-05-03T08:11:35.249Z</time></trkpt><trkpt lat="46.0287333" lon="13.4730583"><ele>90.0</ele><time>2026-05-03T08:11:36.249Z</time></trkpt><trkpt lat="46.0286667" lon="13.4728633"><ele>90.0</ele><time>2026-05-03T08:11:37.249Z</time></trkpt><trkpt lat="46.0285967" lon="13.47267"><ele>90.0</ele><time>2026-05-03T08:11:38.249Z</time></trkpt><trkpt lat="46.0285317" lon="13.4724767"><ele>90.0</ele><time>2026-05-03T08:11:39.249Z</time></trkpt><trkpt lat="46.02848" lon="13.4722717"><ele>90.0</ele><time>2026-05-03T08:11:40.249Z</time></trkpt><trkpt lat="46.02846" lon="13.4720483"><ele>90.0</ele><time>2026-05-03T08:11:41.249Z</time></trkpt><trkpt lat="46.02847" lon="13.47183"><ele>90.75</ele><time>2026-05-03T08:11:42.249Z</time></trkpt><trkpt lat="46.0284683" lon="13.4716283"><ele>91.5</ele><time>2026-05-03T08:11:43.249Z</time></trkpt><trkpt lat="46.02846" lon="13.4714367"><ele>92.25</ele><time>2026-05-03T08:11:44.249Z</time></trkpt><trkpt lat="46.0284383" lon="13.471235"><ele>93.0</ele><time>2026-05-03T08:11:45.249Z</time></trkpt><trkpt lat="46.0284033" lon="13.4710267"><ele>94.0</ele><time>2026-05-03T08:11:46.249Z</time></trkpt><trkpt lat="46.0283383" lon="13.4708"><ele>95.0</ele><time>2026-05-03T08:11:47.249Z</time></trkpt><trkpt lat="46.0282633" lon="13.4705617"><ele>96.0</ele><time>2026-05-03T08:11:48.249Z</time></trkpt><trkpt lat="46.028205" lon="13.470325"><ele>97.66666666666666</ele><time>2026-05-03T08:11:49.249Z</time></trkpt><trkpt lat="46.0281617" lon="13.4700883"><ele>99.33333333333333</ele><time>2026-05-03T08:11:50.249Z</time></trkpt><trkpt lat="46.0281" lon="13.4698633"><ele>101.0</ele><time>2026-05-03T08:11:51.249Z</time></trkpt><trkpt lat="46.028005" lon="13.4696567"><ele>104.0</ele><time>2026-05-03T08:11:52.249Z</time></trkpt><trkpt lat="46.027885" lon="13.4694767"><ele>107.0</ele><time>2026-05-03T08:11:53.249Z</time></trkpt><trkpt lat="46.02775" lon="13.4693467"><ele>110.0</ele><time>2026-05-03T08:11:54.249Z</time></trkpt><trkpt lat="46.0275917" lon="13.4692667"><ele>109.66666666666666</ele><time>2026-05-03T08:11:55.249Z</time></trkpt><trkpt lat="46.0274267" lon="13.4692017"><ele>109.33333333333334</ele><time>2026-05-03T08:11:56.249Z</time></trkpt><trkpt lat="46.02728" lon="13.46914"><ele>109.0</ele><time>2026-05-03T08:11:57.249Z</time></trkpt><trkpt lat="46.0271467" lon="13.4690817"><ele>109.0</ele><time>2026-05-03T08:11:58.249Z</time></trkpt><trkpt lat="46.0270267" lon="13.469035"><ele>109.0</ele><time>2026-05-03T08:11:59.249Z</time></trkpt><trkpt lat="46.0269167" lon="13.4690033"><ele>109.0</ele><time>2026-05-03T08:12:00.249Z</time></trkpt><trkpt lat="46.02681" lon="13.468975"><ele>109.0</ele><time>2026-05-03T08:12:01.249Z</time></trkpt><trkpt lat="46.0267033" lon="13.468935"><ele>109.6</ele><time>2026-05-03T08:12:02.249Z</time></trkpt><trkpt lat="46.0266083" lon="13.4688783"><ele>110.2</ele><time>2026-05-03T08:12:03.249Z</time></trkpt><trkpt lat="46.02651" lon="13.46881"><ele>110.79999999999998</ele><time>2026-05-03T08:12:04.249Z</time></trkpt><trkpt lat="46.0264267" lon="13.46871"><ele>111.39999999999999</ele><time>2026-05-03T08:12:05.249Z</time></trkpt><trkpt lat="46.0263433" lon="13.4685983"><ele>112.0</ele><time>2026-05-03T08:12:06.249Z</time></trkpt><trkpt lat="46.0262417" lon="13.46849"><ele>112.0</ele><time>2026-05-03T08:12:07.249Z</time></trkpt><trkpt lat="46.0261283" lon="13.4684267"><ele>111.99999999999999</ele><time>2026-05-03T08:12:08.25Z</time></trkpt><trkpt lat="46.0260417" lon="13.4683483"><ele>111.99999999999999</ele><time>2026-05-03T08:12:09.249Z</time></trkpt><trkpt lat="46.02598" lon="13.4682283"><ele>112.0</ele><time>2026-05-03T08:12:10.249Z</time></trkpt><trkpt lat="46.0259533" lon="13.4680967"><ele>112.0</ele><time>2026-05-03T08:12:11.249Z</time></trkpt><trkpt lat="46.0259283" lon="13.4680017"><ele>113.25</ele><time>2026-05-03T08:12:12.249Z</time></trkpt><trkpt lat="46.025815" lon="13.46793"><ele>114.5</ele><time>2026-05-03T08:12:14.249Z</time></trkpt><trkpt lat="46.02571" lon="13.4679283"><ele>115.75</ele><time>2026-05-03T08:12:15.249Z</time></trkpt><trkpt lat="46.0255933" lon="13.4679183"><ele>117.0</ele><time>2026-05-03T08:12:16.249Z</time></trkpt><trkpt lat="46.0254717" lon="13.4679383"><ele>115.19999999999999</ele><time>2026-05-03T08:12:17.249Z</time></trkpt><trkpt lat="46.0253583" lon="13.4679917"><ele>113.39999999999999</ele><time>2026-05-03T08:12:18.249Z</time></trkpt><trkpt lat="46.02526" lon="13.4680467"><ele>111.60000000000001</ele><time>2026-05-03T08:12:19.249Z</time></trkpt><trkpt lat="46.0251783" lon="13.4681267"><ele>109.80000000000001</ele><time>2026-05-03T08:12:20.249Z</time></trkpt><trkpt lat="46.025115" lon="13.4682167"><ele>108.0</ele><time>2026-05-03T08:12:21.249Z</time></trkpt><trkpt lat="46.025065" lon="13.468315"><ele>108.0</ele><time>2026-05-03T08:12:22.249Z</time></trkpt><trkpt lat="46.02504" lon="13.468405"><ele>108.0</ele><time>2026-05-03T08:12:23.249Z</time></trkpt><trkpt lat="46.0250467" lon="13.468505"><ele>108.0</ele><time>2026-05-03T08:12:24.249Z</time></trkpt><trkpt lat="46.0250883" lon="13.4685883"><ele>108.0</ele><time>2026-05-03T08:12:25.249Z</time></trkpt><trkpt lat="46.0251533" lon="13.4686533"><ele>108.0</ele><time>2026-05-03T08:12:26.249Z</time></trkpt><trkpt lat="46.025205" lon="13.46872"><ele>108.0</ele><time>2026-05-03T08:12:27.249Z</time></trkpt><trkpt lat="46.025235" lon="13.468885"><ele>107.5</ele><time>2026-05-03T08:12:29.249Z</time></trkpt><trkpt lat="46.0251933" lon="13.4689567"><ele>107.0</ele><time>2026-05-03T08:12:31.249Z</time></trkpt><trkpt lat="46.0251033" lon="13.4689767"><ele>106.5</ele><time>2026-05-03T08:12:33.249Z</time></trkpt><trkpt lat="46.02502" lon="13.4689783"><ele>106.0</ele><time>2026-05-03T08:12:35.249Z</time></trkpt><trkpt lat="46.0249533" lon="13.468995"><ele>105.5</ele><time>2026-05-03T08:12:38.249Z</time></trkpt><trkpt lat="46.0248867" lon="13.4689983"><ele>105.0</ele><time>2026-05-03T08:12:42.249Z</time></trkpt><trkpt lat="46.024805" lon="13.4689517"><ele>103.6</ele><time>2026-05-03T08:12:44.249Z</time></trkpt><trkpt lat="46.024745" lon="13.4689033"><ele>102.2</ele><time>2026-05-03T08:12:45.249Z</time></trkpt><trkpt lat="46.0246683" lon="13.4688533"><ele>100.80000000000001</ele><time>2026-05-03T08:12:46.249Z</time></trkpt><trkpt lat="46.0245883" lon="13.4687917"><ele>99.4</ele><time>2026-05-03T08:12:47.249Z</time></trkpt><trkpt lat="46.0244967" lon="13.46873"><ele>98.0</ele><time>2026-05-03T08:12:48.249Z</time></trkpt><trkpt lat="46.0244017" lon="13.4686617"><ele>98.0</ele><time>2026-05-03T08:12:49.249Z</time></trkpt><trkpt lat="46.0243083" lon="13.468575"><ele>98.0</ele><time>2026-05-03T08:12:50.249Z</time></trkpt><trkpt lat="46.0242083" lon="13.4685033"><ele>98.0</ele><time>2026-05-03T08:12:51.249Z</time></trkpt><trkpt lat="46.0241017" lon="13.468445"><ele>98.0</ele><time>2026-05-03T08:12:52.249Z</time></trkpt><trkpt lat="46.0239933" lon="13.4683833"><ele>96.0</ele><time>2026-05-03T08:12:53.249Z</time></trkpt><trkpt lat="46.0238967" lon="13.4683033"><ele>94.0</ele><time>2026-05-03T08:12:54.249Z</time></trkpt><trkpt lat="46.023805" lon="13.4682017"><ele>92.0</ele><time>2026-05-03T08:12:55.249Z</time></trkpt><trkpt lat="46.023715" lon="13.4680983"><ele>90.0</ele><time>2026-05-03T08:12:56.249Z</time></trkpt><trkpt lat="46.0236217" lon="13.4680083"><ele>90.0</ele><time>2026-05-03T08:12:57.249Z</time></trkpt><trkpt lat="46.0235133" lon="13.4679633"><ele>90.0</ele><time>2026-05-03T08:12:58.249Z</time></trkpt><trkpt lat="46.0234183" lon="13.4679683"><ele>90.0</ele><time>2026-05-03T08:12:59.249Z</time></trkpt><trkpt lat="46.0233233" lon="13.4680217"><ele>90.0</ele><time>2026-05-03T08:13:00.249Z</time></trkpt><trkpt lat="46.02322" lon="13.46811"><ele>90.0</ele><time>2026-05-03T08:13:01.249Z</time></trkpt><trkpt lat="46.02312" lon="13.4682083"><ele>90.0</ele><time>2026-05-03T08:13:02.249Z</time></trkpt><trkpt lat="46.0230267" lon="13.4683183"><ele>90.0</ele><time>2026-05-03T08:13:03.249Z</time></trkpt><trkpt lat="46.0229283" lon="13.4684267"><ele>90.0</ele><time>2026-05-03T08:13:04.249Z</time></trkpt><trkpt lat="46.0228233" lon="13.468525"><ele>90.0</ele><time>2026-05-03T08:13:05.249Z</time></trkpt><trkpt lat="46.0227083" lon="13.4685967"><ele>90.0</ele><time>2026-05-03T08:13:06.249Z</time></trkpt><trkpt lat="46.0225933" lon="13.46865"><ele>90.0</ele><time>2026-05-03T08:13:07.249Z</time></trkpt><trkpt lat="46.0224683" lon="13.468695"><ele>90.0</ele><time>2026-05-03T08:13:08.25Z</time></trkpt><trkpt lat="46.0223533" lon="13.468735"><ele>90.0</ele><time>2026-05-03T08:13:09.249Z</time></trkpt><trkpt lat="46.0222417" lon="13.468775"><ele>88.75</ele><time>2026-05-03T08:13:10.249Z</time></trkpt><trkpt lat="46.022125" lon="13.4688183"><ele>87.5</ele><time>2026-05-03T08:13:11.249Z</time></trkpt><trkpt lat="46.0220017" lon="13.46886"><ele>86.25</ele><time>2026-05-03T08:13:12.249Z</time></trkpt><trkpt lat="46.0218767" lon="13.468875"><ele>85.0</ele><time>2026-05-03T08:13:13.249Z</time></trkpt><trkpt lat="46.0217433" lon="13.4688767"><ele>84.75</ele><time>2026-05-03T08:13:14.249Z</time></trkpt><trkpt lat="46.0216067" lon="13.4688783"><ele>84.5</ele><time>2026-05-03T08:13:15.249Z</time></trkpt><trkpt lat="46.0214733" lon="13.4688933"><ele>84.25</ele><time>2026-05-03T08:13:16.249Z</time></trkpt><trkpt lat="46.0213433" lon="13.4689167"><ele>84.0</ele><time>2026-05-03T08:13:17.249Z</time></trkpt><trkpt lat="46.0212233" lon="13.4689467"><ele>84.0</ele><time>2026-05-03T08:13:18.249Z</time></trkpt><trkpt lat="46.021125" lon="13.4689633"><ele>84.0</ele><time>2026-05-03T08:13:19.249Z</time></trkpt><trkpt lat="46.0210417" lon="13.4689867"><ele>84.0</ele><time>2026-05-03T08:13:20.249Z</time></trkpt><trkpt lat="46.02096" lon="13.4690033"><ele>84.0</ele><time>2026-05-03T08:13:21.249Z</time></trkpt><trkpt lat="46.0208733" lon="13.4690183"><ele>84.0</ele><time>2026-05-03T08:13:22.249Z</time></trkpt><trkpt lat="46.02078" lon="13.46901"><ele>84.0</ele><time>2026-05-03T08:13:23.249Z</time></trkpt><trkpt lat="46.0206867" lon="13.46896"><ele>84.25</ele><time>2026-05-03T08:13:24.249Z</time></trkpt><trkpt lat="46.0205767" lon="13.4688783"><ele>84.5</ele><time>2026-05-03T08:13:25.249Z</time></trkpt><trkpt lat="46.02044" lon="13.46878"><ele>84.75</ele><time>2026-05-03T08:13:26.249Z</time></trkpt><trkpt lat="46.02029" lon="13.46867"><ele>85.0</ele><time>2026-05-03T08:13:27.249Z</time></trkpt><trkpt lat="46.02014" lon="13.4685617"><ele>85.33333333333333</ele><time>2026-05-03T08:13:28.249Z</time></trkpt><trkpt lat="46.0199933" lon="13.46846"><ele>85.66666666666667</ele><time>2026-05-03T08:13:29.249Z</time></trkpt><trkpt lat="46.019855" lon="13.4683633"><ele>86.0</ele><time>2026-05-03T08:13:30.249Z</time></trkpt><trkpt lat="46.0197333" lon="13.4682717"><ele>86.0</ele><time>2026-05-03T08:13:31.249Z</time></trkpt><trkpt lat="46.01961" lon="13.4681817"><ele>86.0</ele><time>2026-05-03T08:13:32.249Z</time></trkpt><trkpt lat="46.0194783" lon="13.4680867"><ele>86.0</ele><time>2026-05-03T08:13:33.249Z</time></trkpt><trkpt lat="46.019335" lon="13.467985"><ele>86.0</ele><time>2026-05-03T08:13:34.249Z</time></trkpt><trkpt lat="46.0192" lon="13.4678833"><ele>85.66666666666667</ele><time>2026-05-03T08:13:35.249Z</time></trkpt><trkpt lat="46.019065" lon="13.467785"><ele>85.33333333333333</ele><time>2026-05-03T08:13:36.249Z</time></trkpt><trkpt lat="46.01893" lon="13.4676933"><ele>85.0</ele><time>2026-05-03T08:13:37.249Z</time></trkpt><trkpt lat="46.0187917" lon="13.4676133"><ele>85.0</ele><time>2026-05-03T08:13:38.249Z</time></trkpt><trkpt lat="46.0186433" lon="13.4675483"><ele>85.0</ele><time>2026-05-03T08:13:39.249Z</time></trkpt><trkpt lat="46.018505" lon="13.46749"><ele>85.0</ele><time>2026-05-03T08:13:40.249Z</time></trkpt><trkpt lat="46.018375" lon="13.467445"><ele>85.0</ele><time>2026-05-03T08:13:41.249Z</time></trkpt><trkpt lat="46.01825" lon="13.4674167"><ele>84.25</ele><time>2026-05-03T08:13:42.249Z</time></trkpt><trkpt lat="46.0181267" lon="13.4673933"><ele>83.5</ele><time>2026-05-03T08:13:43.249Z</time></trkpt><trkpt lat="46.0180083" lon="13.46738"><ele>82.75</ele><time>2026-05-03T08:13:44.249Z</time></trkpt><trkpt lat="46.0178967" lon="13.46738"><ele>82.0</ele><time>2026-05-03T08:13:45.249Z</time></trkpt><trkpt lat="46.017795" lon="13.4673883"><ele>82.0</ele><time>2026-05-03T08:13:46.249Z</time></trkpt><trkpt lat="46.0176967" lon="13.4674017"><ele>82.0</ele><time>2026-05-03T08:13:47.249Z</time></trkpt><trkpt lat="46.01761" lon="13.46741"><ele>82.0</ele><time>2026-05-03T08:13:48.249Z</time></trkpt><trkpt lat="46.0175383" lon="13.4674283"><ele>82.0</ele><time>2026-05-03T08:13:49.249Z</time></trkpt><trkpt lat="46.01748" lon="13.4674717"><ele>82.0</ele><time>2026-05-03T08:13:50.249Z</time></trkpt><trkpt lat="46.0174367" lon="13.4675433"><ele>82.0</ele><time>2026-05-03T08:13:51.249Z</time></trkpt><trkpt lat="46.0174017" lon="13.4676583"><ele>81.66666666666666</ele><time>2026-05-03T08:13:52.249Z</time></trkpt><trkpt lat="46.017375" lon="13.46781"><ele>81.33333333333333</ele><time>2026-05-03T08:13:53.249Z</time></trkpt><trkpt lat="46.01736" lon="13.4679467"><ele>81.0</ele><time>2026-05-03T08:13:54.249Z</time></trkpt><trkpt lat="46.0173483" lon="13.468065"><ele>80.66666666666667</ele><time>2026-05-03T08:13:55.249Z</time></trkpt><trkpt lat="46.0173633" lon="13.46818"><ele>80.33333333333334</ele><time>2026-05-03T08:13:56.249Z</time></trkpt><trkpt lat="46.0174033" lon="13.4682683"><ele>80.0</ele><time>2026-05-03T08:13:57.249Z</time></trkpt><trkpt lat="46.0174667" lon="13.4683217"><ele>80.2</ele><time>2026-05-03T08:13:58.249Z</time></trkpt><trkpt lat="46.017555" lon="13.46835"><ele>80.4</ele><time>2026-05-03T08:13:59.249Z</time></trkpt><trkpt lat="46.0176583" lon="13.468365"><ele>80.6</ele><time>2026-05-03T08:14:00.249Z</time></trkpt><trkpt lat="46.0177433" lon="13.46841"><ele>80.8</ele><time>2026-05-03T08:14:01.249Z</time></trkpt><trkpt lat="46.0178117" lon="13.4685017"><ele>81.0</ele><time>2026-05-03T08:14:02.249Z</time></trkpt><trkpt lat="46.0178817" lon="13.4686233"><ele>81.0</ele><time>2026-05-03T08:14:03.249Z</time></trkpt><trkpt lat="46.01795" lon="13.46877"><ele>81.0</ele><time>2026-05-03T08:14:04.249Z</time></trkpt><trkpt lat="46.0180133" lon="13.4689217"><ele>81.0</ele><time>2026-05-03T08:14:05.249Z</time></trkpt><trkpt lat="46.0180283" lon="13.469075"><ele>81.0</ele><time>2026-05-03T08:14:06.249Z</time></trkpt><trkpt lat="46.018005" lon="13.4691983"><ele>81.0</ele><time>2026-05-03T08:14:07.249Z</time></trkpt><trkpt lat="46.0179583" lon="13.4692917"><ele>80.0</ele><time>2026-05-03T08:14:08.249Z</time></trkpt><trkpt lat="46.017905" lon="13.4693733"><ele>79.0</ele><time>2026-05-03T08:14:09.249Z</time></trkpt><trkpt lat="46.0178383" lon="13.4694367"><ele>78.0</ele><time>2026-05-03T08:14:10.249Z</time></trkpt><trkpt lat="46.01777" lon="13.4694667"><ele>77.0</ele><time>2026-05-03T08:14:11.249Z</time></trkpt><trkpt lat="46.0176817" lon="13.4694583"><ele>76.0</ele><time>2026-05-03T08:14:12.249Z</time></trkpt><trkpt lat="46.0175533" lon="13.4693983"><ele>75.66666666666666</ele><time>2026-05-03T08:14:13.249Z</time></trkpt><trkpt lat="46.0174067" lon="13.4693217"><ele>75.33333333333333</ele><time>2026-05-03T08:14:14.249Z</time></trkpt><trkpt lat="46.0172517" lon="13.4692483"><ele>75.0</ele><time>2026-05-03T08:14:15.249Z</time></trkpt><trkpt lat="46.0170817" lon="13.4691733"><ele>75.0</ele><time>2026-05-03T08:14:16.249Z</time></trkpt><trkpt lat="46.0168983" lon="13.4690933"><ele>75.0</ele><time>2026-05-03T08:14:17.249Z</time></trkpt><trkpt lat="46.0167017" lon="13.468995"><ele>75.0</ele><time>2026-05-03T08:14:18.249Z</time></trkpt><trkpt lat="46.016495" lon="13.4688933"><ele>74.5</ele><time>2026-05-03T08:14:19.249Z</time></trkpt><trkpt lat="46.0162833" lon="13.4687883"><ele>74.0</ele><time>2026-05-03T08:14:20.249Z</time></trkpt><trkpt lat="46.016055" lon="13.4686667"><ele>73.5</ele><time>2026-05-03T08:14:21.249Z</time></trkpt><trkpt lat="46.0158317" lon="13.4685117"><ele>73.0</ele><time>2026-05-03T08:14:22.249Z</time></trkpt><trkpt lat="46.0156233" lon="13.46833"><ele>73.0</ele><time>2026-05-03T08:14:23.249Z</time></trkpt><trkpt lat="46.01543" lon="13.4681417"><ele>73.0</ele><time>2026-05-03T08:14:24.25Z</time></trkpt><trkpt lat="46.0152533" lon="13.46795"><ele>73.5</ele><time>2026-05-03T08:14:25.249Z</time></trkpt><trkpt lat="46.01507" lon="13.4677667"><ele>74.0</ele><time>2026-05-03T08:14:26.249Z</time></trkpt><trkpt lat="46.0148783" lon="13.46759"><ele>74.0</ele><time>2026-05-03T08:14:27.249Z</time></trkpt><trkpt lat="46.0146717" lon="13.4674333"><ele>74.0</ele><time>2026-05-03T08:14:28.249Z</time></trkpt><trkpt lat="46.01445" lon="13.4672883"><ele>74.0</ele><time>2026-05-03T08:14:29.249Z</time></trkpt><trkpt lat="46.014215" lon="13.46718"><ele>74.0</ele><time>2026-05-03T08:14:30.249Z</time></trkpt><trkpt lat="46.013985" lon="13.4670967"><ele>75.0</ele><time>2026-05-03T08:14:31.249Z</time></trkpt><trkpt lat="46.0137533" lon="13.4670283"><ele>76.0</ele><time>2026-05-03T08:14:32.249Z</time></trkpt><trkpt lat="46.01353" lon="13.46697"><ele>74.5</ele><time>2026-05-03T08:14:33.249Z</time></trkpt><trkpt lat="46.013305" lon="13.466915"><ele>73.0</ele><time>2026-05-03T08:14:34.249Z</time></trkpt><trkpt lat="46.01308" lon="13.466865"><ele>73.0</ele><time>2026-05-03T08:14:35.249Z</time></trkpt><trkpt lat="46.012865" lon="13.4668117"><ele>73.0</ele><time>2026-05-03T08:14:36.249Z</time></trkpt><trkpt lat="46.0126467" lon="13.4667267"><ele>73.0</ele><time>2026-05-03T08:14:37.249Z</time></trkpt><trkpt lat="46.0124367" lon="13.4665933"><ele>72.0</ele><time>2026-05-03T08:14:38.249Z</time></trkpt><trkpt lat="46.012225" lon="13.4664467"><ele>71.0</ele><time>2026-05-03T08:14:39.249Z</time></trkpt><trkpt lat="46.012" lon="13.4662883"><ele>71.0</ele><time>2026-05-03T08:14:40.249Z</time></trkpt><trkpt lat="46.0117683" lon="13.4661283"><ele>71.0</ele><time>2026-05-03T08:14:41.249Z</time></trkpt><trkpt lat="46.011535" lon="13.4659733"><ele>71.0</ele><time>2026-05-03T08:14:42.249Z</time></trkpt><trkpt lat="46.0113133" lon="13.4658283"><ele>71.0</ele><time>2026-05-03T08:14:43.249Z</time></trkpt><trkpt lat="46.0111" lon="13.4656817"><ele>71.0</ele><time>2026-05-03T08:14:44.249Z</time></trkpt><trkpt lat="46.0108883" lon="13.4655367"><ele>71.0</ele><time>2026-05-03T08:14:45.249Z</time></trkpt><trkpt lat="46.0106717" lon="13.4653967"><ele>70.0</ele><time>2026-05-03T08:14:46.249Z</time></trkpt><trkpt lat="46.0104483" lon="13.4652583"><ele>69.0</ele><time>2026-05-03T08:14:47.249Z</time></trkpt><trkpt lat="46.0102333" lon="13.4651167"><ele>69.0</ele><time>2026-05-03T08:14:48.249Z</time></trkpt><trkpt lat="46.010015" lon="13.4649783"><ele>69.0</ele><time>2026-05-03T08:14:49.249Z</time></trkpt><trkpt lat="46.0097967" lon="13.4648333"><ele>69.5</ele><time>2026-05-03T08:14:50.249Z</time></trkpt><trkpt lat="46.0095767" lon="13.4646917"><ele>70.0</ele><time>2026-05-03T08:14:51.249Z</time></trkpt><trkpt lat="46.0093717" lon="13.4645533"><ele>69.66666666666666</ele><time>2026-05-03T08:14:52.249Z</time></trkpt><trkpt lat="46.00917" lon="13.4644117"><ele>69.33333333333333</ele><time>2026-05-03T08:14:53.249Z</time></trkpt><trkpt lat="46.0089717" lon="13.4642933"><ele>69.0</ele><time>2026-05-03T08:14:54.249Z</time></trkpt><trkpt lat="46.0087733" lon="13.4641917"><ele>69.0</ele><time>2026-05-03T08:14:55.249Z</time></trkpt><trkpt lat="46.00857" lon="13.4641517"><ele>69.0</ele><time>2026-05-03T08:14:56.249Z</time></trkpt><trkpt lat="46.0083633" lon="13.4641567"><ele>69.0</ele><time>2026-05-03T08:14:57.249Z</time></trkpt><trkpt lat="46.008165" lon="13.464205"><ele>68.66666666666667</ele><time>2026-05-03T08:14:58.249Z</time></trkpt><trkpt lat="46.0079817" lon="13.4642983"><ele>68.33333333333334</ele><time>2026-05-03T08:14:59.249Z</time></trkpt><trkpt lat="46.0077817" lon="13.4644267"><ele>68.0</ele><time>2026-05-03T08:15:00.249Z</time></trkpt><trkpt lat="46.0075883" lon="13.4645817"><ele>70.0</ele><time>2026-05-03T08:15:01.249Z</time></trkpt><trkpt lat="46.007395" lon="13.46475"><ele>72.0</ele><time>2026-05-03T08:15:02.249Z</time></trkpt><trkpt lat="46.00719" lon="13.4649283"><ele>72.0</ele><time>2026-05-03T08:15:03.249Z</time></trkpt><trkpt lat="46.0069817" lon="13.465105"><ele>72.0</ele><time>2026-05-03T08:15:04.249Z</time></trkpt><trkpt lat="46.00679" lon="13.4652817"><ele>71.33333333333333</ele><time>2026-05-03T08:15:05.249Z</time></trkpt><trkpt lat="46.0066017" lon="13.46546"><ele>70.66666666666666</ele><time>2026-05-03T08:15:06.249Z</time></trkpt><trkpt lat="46.006425" lon="13.4656283"><ele>70.0</ele><time>2026-05-03T08:15:07.249Z</time></trkpt><trkpt lat="46.0062617" lon="13.4657983"><ele>70.0</ele><time>2026-05-03T08:15:08.249Z</time></trkpt><trkpt lat="46.0061233" lon="13.465975"><ele>70.0</ele><time>2026-05-03T08:15:09.249Z</time></trkpt><trkpt lat="46.0060017" lon="13.4661483"><ele>70.0</ele><time>2026-05-03T08:15:10.249Z</time></trkpt><trkpt lat="46.0058817" lon="13.466315"><ele>72.25</ele><time>2026-05-03T08:15:11.249Z</time></trkpt><trkpt lat="46.005765" lon="13.4664633"><ele>74.5</ele><time>2026-05-03T08:15:12.249Z</time></trkpt><trkpt lat="46.005645" lon="13.46659"><ele>76.75</ele><time>2026-05-03T08:15:13.249Z</time></trkpt><trkpt lat="46.0055183" lon="13.4666567"><ele>79.0</ele><time>2026-05-03T08:15:14.249Z</time></trkpt><trkpt lat="46.0053833" lon="13.4666933"><ele>79.0</ele><time>2026-05-03T08:15:15.249Z</time></trkpt><trkpt lat="46.005225" lon="13.4666917"><ele>79.0</ele><time>2026-05-03T08:15:16.249Z</time></trkpt><trkpt lat="46.0050633" lon="13.466685"><ele>79.0</ele><time>2026-05-03T08:15:17.249Z</time></trkpt><trkpt lat="46.00489" lon="13.4666783"><ele>79.66666666666666</ele><time>2026-05-03T08:15:18.249Z</time></trkpt><trkpt lat="46.0047033" lon="13.4666783"><ele>80.33333333333333</ele><time>2026-05-03T08:15:19.249Z</time></trkpt><trkpt lat="46.004525" lon="13.46668"><ele>81.0</ele><time>2026-05-03T08:15:20.249Z</time></trkpt><trkpt lat="46.004355" lon="13.4666783"><ele>81.0</ele><time>2026-05-03T08:15:21.249Z</time></trkpt><trkpt lat="46.004185" lon="13.4666817"><ele>81.0</ele><time>2026-05-03T08:15:22.249Z</time></trkpt><trkpt lat="46.004025" lon="13.4667183"><ele>81.0</ele><time>2026-05-03T08:15:23.249Z</time></trkpt><trkpt lat="46.0038833" lon="13.4668017"><ele>81.0</ele><time>2026-05-03T08:15:24.249Z</time></trkpt><trkpt lat="46.00376" lon="13.4669383"><ele>81.0</ele><time>2026-05-03T08:15:25.249Z</time></trkpt><trkpt lat="46.0036667" lon="13.4671333"><ele>81.0</ele><time>2026-05-03T08:15:26.249Z</time></trkpt><trkpt lat="46.0035983" lon="13.4673433"><ele>79.66666666666667</ele><time>2026-05-03T08:15:27.249Z</time></trkpt><trkpt lat="46.0035333" lon="13.46756"><ele>78.33333333333334</ele><time>2026-05-03T08:15:28.249Z</time></trkpt><trkpt lat="46.003445" lon="13.46777"><ele>77.0</ele><time>2026-05-03T08:15:29.249Z</time></trkpt><trkpt lat="46.0033533" lon="13.4679567"><ele>75.33333333333334</ele><time>2026-05-03T08:15:30.249Z</time></trkpt><trkpt lat="46.0032517" lon="13.4681267"><ele>73.66666666666667</ele><time>2026-05-03T08:15:31.249Z</time></trkpt><trkpt lat="46.0031367" lon="13.4683017"><ele>72.0</ele><time>2026-05-03T08:15:32.249Z</time></trkpt><trkpt lat="46.0030167" lon="13.46846"><ele>72.0</ele><time>2026-05-03T08:15:33.249Z</time></trkpt><trkpt lat="46.00289" lon="13.4686067"><ele>72.0</ele><time>2026-05-03T08:15:34.249Z</time></trkpt><trkpt lat="46.0027517" lon="13.46874"><ele>72.0</ele><time>2026-05-03T08:15:35.249Z</time></trkpt><trkpt lat="46.0025983" lon="13.4688583"><ele>71.33333333333333</ele><time>2026-05-03T08:15:36.249Z</time></trkpt><trkpt lat="46.00243" lon="13.4689567"><ele>70.66666666666666</ele><time>2026-05-03T08:15:37.249Z</time></trkpt><trkpt lat="46.0022467" lon="13.469045"><ele>70.0</ele><time>2026-05-03T08:15:38.249Z</time></trkpt><trkpt lat="46.00206" lon="13.469135"><ele>70.0</ele><time>2026-05-03T08:15:39.249Z</time></trkpt><trkpt lat="46.0018717" lon="13.4692217"><ele>70.0</ele><time>2026-05-03T08:15:40.249Z</time></trkpt><trkpt lat="46.0016783" lon="13.469295"><ele>70.0</ele><time>2026-05-03T08:15:41.249Z</time></trkpt><trkpt lat="46.0014817" lon="13.4693483"><ele>69.33333333333333</ele><time>2026-05-03T08:15:42.249Z</time></trkpt><trkpt lat="46.0012833" lon="13.469375"><ele>68.66666666666667</ele><time>2026-05-03T08:15:43.249Z</time></trkpt><trkpt lat="46.001085" lon="13.4693683"><ele>68.0</ele><time>2026-05-03T08:15:44.249Z</time></trkpt><trkpt lat="46.00088" lon="13.4693267"><ele>68.66666666666667</ele><time>2026-05-03T08:15:45.249Z</time></trkpt><trkpt lat="46.0006783" lon="13.46926"><ele>69.33333333333333</ele><time>2026-05-03T08:15:46.249Z</time></trkpt><trkpt lat="46.0004633" lon="13.4691883"><ele>70.0</ele><time>2026-05-03T08:15:47.249Z</time></trkpt><trkpt lat="46.0002417" lon="13.4691083"><ele>70.0</ele><time>2026-05-03T08:15:48.249Z</time></trkpt><trkpt lat="46.0000133" lon="13.469025"><ele>70.0</ele><time>2026-05-03T08:15:49.249Z</time></trkpt><trkpt lat="45.999775" lon="13.4689383"><ele>70.0</ele><time>2026-05-03T08:15:50.249Z</time></trkpt><trkpt lat="45.999535" lon="13.468855"><ele>70.0</ele><time>2026-05-03T08:15:51.249Z</time></trkpt><trkpt lat="45.9993033" lon="13.4687717"><ele>68.66666666666666</ele><time>2026-05-03T08:15:52.249Z</time></trkpt><trkpt lat="45.999085" lon="13.4686967"><ele>67.33333333333333</ele><time>2026-05-03T08:15:53.249Z</time></trkpt><trkpt lat="45.9988783" lon="13.4686183"><ele>66.0</ele><time>2026-05-03T08:15:54.249Z</time></trkpt><trkpt lat="45.9986733" lon="13.4685517"><ele>66.0</ele><time>2026-05-03T08:15:55.249Z</time></trkpt><trkpt lat="45.9984667" lon="13.468515"><ele>66.0</ele><time>2026-05-03T08:15:56.249Z</time></trkpt><trkpt lat="45.9982583" lon="13.46852"><ele>66.0</ele><time>2026-05-03T08:15:57.249Z</time></trkpt><trkpt lat="45.9980483" lon="13.46856"><ele>66.0</ele><time>2026-05-03T08:15:58.249Z</time></trkpt><trkpt lat="45.9978417" lon="13.46862"><ele>66.0</ele><time>2026-05-03T08:15:59.249Z</time></trkpt><trkpt lat="45.9976383" lon="13.4686867"><ele>66.0</ele><time>2026-05-03T08:16:00.249Z</time></trkpt><trkpt lat="45.9974417" lon="13.4687433"><ele>66.0</ele><time>2026-05-03T08:16:01.249Z</time></trkpt><trkpt lat="45.99724" lon="13.4687367"><ele>66.0</ele><time>2026-05-03T08:16:02.249Z</time></trkpt><trkpt lat="45.9970317" lon="13.4687233"><ele>66.0</ele><time>2026-05-03T08:16:03.249Z</time></trkpt><trkpt lat="45.9968233" lon="13.468675"><ele>66.5</ele><time>2026-05-03T08:16:04.249Z</time></trkpt><trkpt lat="45.9966033" lon="13.4686167"><ele>67.0</ele><time>2026-05-03T08:16:05.249Z</time></trkpt><trkpt lat="45.9963767" lon="13.468555"><ele>67.0</ele><time>2026-05-03T08:16:06.249Z</time></trkpt><trkpt lat="45.9961483" lon="13.4685083"><ele>67.0</ele><time>2026-05-03T08:16:07.249Z</time></trkpt><trkpt lat="45.9959083" lon="13.468455"><ele>68.33333333333333</ele><time>2026-05-03T08:16:08.249Z</time></trkpt><trkpt lat="45.9956783" lon="13.4684217"><ele>69.66666666666667</ele><time>2026-05-03T08:16:09.249Z</time></trkpt><trkpt lat="45.9954617" lon="13.4683917"><ele>71.0</ele><time>2026-05-03T08:16:10.249Z</time></trkpt><trkpt lat="45.9952467" lon="13.4683567"><ele>71.0</ele><time>2026-05-03T08:16:11.249Z</time></trkpt><trkpt lat="45.9950417" lon="13.468315"><ele>71.0</ele><time>2026-05-03T08:16:12.249Z</time></trkpt><trkpt lat="45.9948333" lon="13.4682733"><ele>71.0</ele><time>2026-05-03T08:16:13.249Z</time></trkpt><trkpt lat="45.994625" lon="13.46823"><ele>71.0</ele><time>2026-05-03T08:16:14.249Z</time></trkpt><trkpt lat="45.9944167" lon="13.4681733"><ele>71.0</ele><time>2026-05-03T08:16:15.249Z</time></trkpt><trkpt lat="45.994205" lon="13.4681233"><ele>71.0</ele><time>2026-05-03T08:16:16.249Z</time></trkpt><trkpt lat="45.9939967" lon="13.4680633"><ele>71.0</ele><time>2026-05-03T08:16:17.249Z</time></trkpt><trkpt lat="45.99378" lon="13.46801"><ele>71.0</ele><time>2026-05-03T08:16:18.249Z</time></trkpt><trkpt lat="45.993565" lon="13.467955"><ele>71.0</ele><time>2026-05-03T08:16:19.249Z</time></trkpt><trkpt lat="45.9933633" lon="13.4679"><ele>69.33333333333334</ele><time>2026-05-03T08:16:20.249Z</time></trkpt><trkpt lat="45.9931683" lon="13.4678467"><ele>67.66666666666667</ele><time>2026-05-03T08:16:21.249Z</time></trkpt><trkpt lat="45.9929817" lon="13.4677933"><ele>66.0</ele><time>2026-05-03T08:16:22.249Z</time></trkpt><trkpt lat="45.992805" lon="13.4677317"><ele>66.0</ele><time>2026-05-03T08:16:23.249Z</time></trkpt><trkpt lat="45.9926467" lon="13.46767"><ele>66.0</ele><time>2026-05-03T08:16:24.249Z</time></trkpt><trkpt lat="45.9924933" lon="13.467615"><ele>66.0</ele><time>2026-05-03T08:16:25.249Z</time></trkpt><trkpt lat="45.9923417" lon="13.4675617"><ele>65.75</ele><time>2026-05-03T08:16:26.249Z</time></trkpt><trkpt lat="45.992205" lon="13.467505"><ele>65.5</ele><time>2026-05-03T08:16:27.249Z</time></trkpt><trkpt lat="45.9920917" lon="13.467455"><ele>65.25</ele><time>2026-05-03T08:16:28.25Z</time></trkpt><trkpt lat="45.9920033" lon="13.4673717"><ele>65.0</ele><time>2026-05-03T08:16:29.249Z</time></trkpt><trkpt lat="45.9919467" lon="13.4672617"><ele>65.0</ele><time>2026-05-03T08:16:30.249Z</time></trkpt><trkpt lat="45.9919283" lon="13.4671267"><ele>65.0</ele><time>2026-05-03T08:16:31.249Z</time></trkpt><trkpt lat="45.9919417" lon="13.46695"><ele>65.0</ele><time>2026-05-03T08:16:32.249Z</time></trkpt><trkpt lat="45.9919583" lon="13.4667433"><ele>65.0</ele><time>2026-05-03T08:16:33.249Z</time></trkpt><trkpt lat="45.99198" lon="13.4665383"><ele>64.5</ele><time>2026-05-03T08:16:34.249Z</time></trkpt><trkpt lat="45.9920033" lon="13.46634"><ele>64.0</ele><time>2026-05-03T08:16:35.249Z</time></trkpt><trkpt lat="45.9920183" lon="13.4661417"><ele>63.5</ele><time>2026-05-03T08:16:36.249Z</time></trkpt><trkpt lat="45.9920333" lon="13.4659467"><ele>63.0</ele><time>2026-05-03T08:16:37.249Z</time></trkpt><trkpt lat="45.9920433" lon="13.465755"><ele>62.75</ele><time>2026-05-03T08:16:38.249Z</time></trkpt><trkpt lat="45.992055" lon="13.4655517"><ele>62.5</ele><time>2026-05-03T08:16:39.249Z</time></trkpt><trkpt lat="45.99205" lon="13.4653433"><ele>62.25</ele><time>2026-05-03T08:16:40.25Z</time></trkpt><trkpt lat="45.9920317" lon="13.46513"><ele>62.0</ele><time>2026-05-03T08:16:41.249Z</time></trkpt><trkpt lat="45.9920067" lon="13.4649067"><ele>62.0</ele><time>2026-05-03T08:16:42.249Z</time></trkpt><trkpt lat="45.991975" lon="13.464675"><ele>62.0</ele><time>2026-05-03T08:16:43.249Z</time></trkpt><trkpt lat="45.9919267" lon="13.4644367"><ele>62.0</ele><time>2026-05-03T08:16:44.249Z</time></trkpt><trkpt lat="45.99188" lon="13.464195"><ele>63.0</ele><time>2026-05-03T08:16:45.249Z</time></trkpt><trkpt lat="45.9918367" lon="13.4639633"><ele>64.0</ele><time>2026-05-03T08:16:46.249Z</time></trkpt><trkpt lat="45.9917967" lon="13.4637367"><ele>65.0</ele><time>2026-05-03T08:16:47.249Z</time></trkpt><trkpt lat="45.991755" lon="13.4635217"><ele>65.25</ele><time>2026-05-03T08:16:48.249Z</time></trkpt><trkpt lat="45.9917183" lon="13.4633167"><ele>65.5</ele><time>2026-05-03T08:16:49.249Z</time></trkpt><trkpt lat="45.99168" lon="13.46314"><ele>65.75</ele><time>2026-05-03T08:16:50.249Z</time></trkpt><trkpt lat="45.9916533" lon="13.4629783"><ele>66.0</ele><time>2026-05-03T08:16:51.249Z</time></trkpt><trkpt lat="45.9916283" lon="13.4628367"><ele>66.39999999999999</ele><time>2026-05-03T08:16:52.249Z</time></trkpt><trkpt lat="45.99162" lon="13.4627217"><ele>66.8</ele><time>2026-05-03T08:16:53.249Z</time></trkpt><trkpt lat="45.9916217" lon="13.462615"><ele>67.19999999999999</ele><time>2026-05-03T08:16:54.249Z</time></trkpt><trkpt lat="45.99175" lon="13.46251"><ele>67.6</ele><time>2026-05-03T08:16:56.249Z</time></trkpt><trkpt lat="45.9918767" lon="13.4624667"><ele>68.0</ele><time>2026-05-03T08:16:57.249Z</time></trkpt><trkpt lat="45.9920017" lon="13.462415"><ele>68.0</ele><time>2026-05-03T08:16:58.249Z</time></trkpt><trkpt lat="45.9921067" lon="13.46235"><ele>68.0</ele><time>2026-05-03T08:16:59.249Z</time></trkpt><trkpt lat="45.9922233" lon="13.46227"><ele>68.0</ele><time>2026-05-03T08:17:00.249Z</time></trkpt><trkpt lat="45.992345" lon="13.46219"><ele>68.0</ele><time>2026-05-03T08:17:01.249Z</time></trkpt><trkpt lat="45.9924733" lon="13.4621017"><ele>68.33333333333334</ele><time>2026-05-03T08:17:02.249Z</time></trkpt><trkpt lat="45.9926233" lon="13.4620133"><ele>68.66666666666667</ele><time>2026-05-03T08:17:03.249Z</time></trkpt><trkpt lat="45.9927767" lon="13.4619167"><ele>69.0</ele><time>2026-05-03T08:17:04.249Z</time></trkpt><trkpt lat="45.9929333" lon="13.4618083"><ele>69.0</ele><time>2026-05-03T08:17:05.249Z</time></trkpt><trkpt lat="45.9931" lon="13.4616983"><ele>69.0</ele><time>2026-05-03T08:17:06.249Z</time></trkpt><trkpt lat="45.993275" lon="13.4615867"><ele>69.0</ele><time>2026-05-03T08:17:07.249Z</time></trkpt><trkpt lat="45.99346" lon="13.46147"><ele>69.0</ele><time>2026-05-03T08:17:08.249Z</time></trkpt><trkpt lat="45.9936367" lon="13.4613517"><ele>69.0</ele><time>2026-05-03T08:17:09.249Z</time></trkpt><trkpt lat="45.9938083" lon="13.4612367"><ele>69.0</ele><time>2026-05-03T08:17:10.249Z</time></trkpt><trkpt lat="45.9939733" lon="13.4611283"><ele>69.66666666666667</ele><time>2026-05-03T08:17:11.249Z</time></trkpt><trkpt lat="45.9941283" lon="13.4610133"><ele>70.33333333333334</ele><time>2026-05-03T08:17:12.249Z</time></trkpt><trkpt lat="45.994265" lon="13.460915"><ele>71.0</ele><time>2026-05-03T08:17:13.249Z</time></trkpt><trkpt lat="45.994395" lon="13.460825"><ele>71.0</ele><time>2026-05-03T08:17:14.249Z</time></trkpt><trkpt lat="45.9945267" lon="13.4607383"><ele>71.0</ele><time>2026-05-03T08:17:15.249Z</time></trkpt><trkpt lat="45.99466" lon="13.4606517"><ele>71.0</ele><time>2026-05-03T08:17:16.249Z</time></trkpt><trkpt lat="45.9947967" lon="13.4605633"><ele>71.0</ele><time>2026-05-03T08:17:17.249Z</time></trkpt><trkpt lat="45.9949333" lon="13.4604767"><ele>72.5</ele><time>2026-05-03T08:17:18.249Z</time></trkpt><trkpt lat="45.9950583" lon="13.4603817"><ele>74.0</ele><time>2026-05-03T08:17:19.249Z</time></trkpt><trkpt lat="45.9951733" lon="13.46029"><ele>75.5</ele><time>2026-05-03T08:17:20.249Z</time></trkpt><trkpt lat="45.9952833" lon="13.4602033"><ele>77.0</ele><time>2026-05-03T08:17:21.249Z</time></trkpt><trkpt lat="45.9953717" lon="13.4601233"><ele>77.0</ele><time>2026-05-03T08:17:22.249Z</time></trkpt><trkpt lat="45.99545" lon="13.4600483"><ele>77.0</ele><time>2026-05-03T08:17:23.249Z</time></trkpt><trkpt lat="45.9955217" lon="13.45997"><ele>77.0</ele><time>2026-05-03T08:17:24.249Z</time></trkpt><trkpt lat="45.9956" lon="13.4598717"><ele>77.0</ele><time>2026-05-03T08:17:25.249Z</time></trkpt><trkpt lat="45.9956683" lon="13.4597617"><ele>77.0</ele><time>2026-05-03T08:17:26.249Z</time></trkpt><trkpt lat="45.9957267" lon="13.4596367"><ele>77.6</ele><time>2026-05-03T08:17:27.25Z</time></trkpt><trkpt lat="45.9957767" lon="13.4595167"><ele>78.2</ele><time>2026-05-03T08:17:28.249Z</time></trkpt><trkpt lat="45.995795" lon="13.4594"><ele>78.8</ele><time>2026-05-03T08:17:29.249Z</time></trkpt><trkpt lat="45.9957917" lon="13.45928"><ele>79.4</ele><time>2026-05-03T08:17:30.249Z</time></trkpt><trkpt lat="45.9957633" lon="13.459155"><ele>80.0</ele><time>2026-05-03T08:17:31.249Z</time></trkpt><trkpt lat="45.9957283" lon="13.459025"><ele>80.0</ele><time>2026-05-03T08:17:32.249Z</time></trkpt><trkpt lat="45.9956883" lon="13.4588817"><ele>80.0</ele><time>2026-05-03T08:17:33.249Z</time></trkpt><trkpt lat="45.995645" lon="13.458715"><ele>80.0</ele><time>2026-05-03T08:17:34.249Z</time></trkpt><trkpt lat="45.9955983" lon="13.458535"><ele>80.0</ele><time>2026-05-03T08:17:35.249Z</time></trkpt><trkpt lat="45.995535" lon="13.4583417"><ele>80.0</ele><time>2026-05-03T08:17:36.249Z</time></trkpt><trkpt lat="45.9954733" lon="13.45815"><ele>80.0</ele><time>2026-05-03T08:17:37.249Z</time></trkpt><trkpt lat="45.9954217" lon="13.4579717"><ele>80.0</ele><time>2026-05-03T08:17:38.249Z</time></trkpt><trkpt lat="45.9953883" lon="13.45778"><ele>80.0</ele><time>2026-05-03T08:17:39.249Z</time></trkpt><trkpt lat="45.9953633" lon="13.4575633"><ele>80.0</ele><time>2026-05-03T08:17:40.249Z</time></trkpt><trkpt lat="45.9952933" lon="13.4573517"><ele>80.0</ele><time>2026-05-03T08:17:41.249Z</time></trkpt><trkpt lat="45.9952283" lon="13.4571333"><ele>80.0</ele><time>2026-05-03T08:17:42.249Z</time></trkpt><trkpt lat="45.9951667" lon="13.4569267"><ele>79.33333333333334</ele><time>2026-05-03T08:17:43.249Z</time></trkpt><trkpt lat="45.99512" lon="13.4567017"><ele>78.66666666666667</ele><time>2026-05-03T08:17:44.249Z</time></trkpt><trkpt lat="45.9950833" lon="13.4564683"><ele>78.0</ele><time>2026-05-03T08:17:45.249Z</time></trkpt><trkpt lat="45.9950767" lon="13.45624"><ele>78.0</ele><time>2026-05-03T08:17:46.249Z</time></trkpt><trkpt lat="45.99508" lon="13.456015"><ele>78.0</ele><time>2026-05-03T08:17:47.249Z</time></trkpt><trkpt lat="45.99509" lon="13.4557983"><ele>78.0</ele><time>2026-05-03T08:17:48.249Z</time></trkpt><trkpt lat="45.9951" lon="13.45558"><ele>78.33333333333333</ele><time>2026-05-03T08:17:49.249Z</time></trkpt><trkpt lat="45.9951117" lon="13.4553633"><ele>78.66666666666666</ele><time>2026-05-03T08:17:50.249Z</time></trkpt><trkpt lat="45.99512" lon="13.4551283"><ele>79.0</ele><time>2026-05-03T08:17:51.249Z</time></trkpt><trkpt lat="45.9951333" lon="13.4548983"><ele>79.0</ele><time>2026-05-03T08:17:52.249Z</time></trkpt><trkpt lat="45.9951633" lon="13.4546633"><ele>79.0</ele><time>2026-05-03T08:17:53.249Z</time></trkpt><trkpt lat="45.995205" lon="13.45444"><ele>79.0</ele><time>2026-05-03T08:17:54.249Z</time></trkpt><trkpt lat="45.9952417" lon="13.454225"><ele>79.0</ele><time>2026-05-03T08:17:55.249Z</time></trkpt><trkpt lat="45.99526" lon="13.454"><ele>79.0</ele><time>2026-05-03T08:17:56.249Z</time></trkpt><trkpt lat="45.9952833" lon="13.4537667"><ele>79.0</ele><time>2026-05-03T08:17:57.249Z</time></trkpt><trkpt lat="45.9953067" lon="13.45354"><ele>79.0</ele><time>2026-05-03T08:17:58.249Z</time></trkpt><trkpt lat="45.99533" lon="13.453325"><ele>79.0</ele><time>2026-05-03T08:17:59.249Z</time></trkpt><trkpt lat="45.99536" lon="13.453115"><ele>79.0</ele><time>2026-05-03T08:18:00.249Z</time></trkpt><trkpt lat="45.995385" lon="13.45291"><ele>79.0</ele><time>2026-05-03T08:18:01.249Z</time></trkpt><trkpt lat="45.9953983" lon="13.4527117"><ele>79.25</ele><time>2026-05-03T08:18:02.249Z</time></trkpt><trkpt lat="45.9953967" lon="13.4525217"><ele>79.5</ele><time>2026-05-03T08:18:03.249Z</time></trkpt><trkpt lat="45.99538" lon="13.45235"><ele>79.75</ele><time>2026-05-03T08:18:04.249Z</time></trkpt><trkpt lat="45.995365" lon="13.45219"><ele>80.0</ele><time>2026-05-03T08:18:05.249Z</time></trkpt><trkpt lat="45.995345" lon="13.45206"><ele>80.0</ele><time>2026-05-03T08:18:06.249Z</time></trkpt><trkpt lat="45.9953517" lon="13.451955"><ele>80.0</ele><time>2026-05-03T08:18:07.249Z</time></trkpt><trkpt lat="45.9954117" lon="13.4518417"><ele>80.0</ele><time>2026-05-03T08:18:09.249Z</time></trkpt><trkpt lat="45.9955317" lon="13.45185"><ele>80.0</ele><time>2026-05-03T08:18:11.249Z</time></trkpt><trkpt lat="45.9956183" lon="13.4518517"><ele>80.0</ele><time>2026-05-03T08:18:12.249Z</time></trkpt><trkpt lat="45.9957033" lon="13.4518567"><ele>80.0</ele><time>2026-05-03T08:18:13.249Z</time></trkpt><trkpt lat="45.9958" lon="13.4518817"><ele>80.0</ele><time>2026-05-03T08:18:14.249Z</time></trkpt><trkpt lat="45.9958917" lon="13.4519333"><ele>80.0</ele><time>2026-05-03T08:18:15.249Z</time></trkpt><trkpt lat="45.995985" lon="13.4520283"><ele>80.0</ele><time>2026-05-03T08:18:16.249Z</time></trkpt><trkpt lat="45.9961" lon="13.452135"><ele>80.0</ele><time>2026-05-03T08:18:17.249Z</time></trkpt><trkpt lat="45.99621" lon="13.45224"><ele>80.25</ele><time>2026-05-03T08:18:18.249Z</time></trkpt><trkpt lat="45.99633" lon="13.4523317"><ele>80.5</ele><time>2026-05-03T08:18:19.249Z</time></trkpt><trkpt lat="45.9964517" lon="13.4524167"><ele>80.75</ele><time>2026-05-03T08:18:20.249Z</time></trkpt><trkpt lat="45.996565" lon="13.45249"><ele>81.0</ele><time>2026-05-03T08:18:21.249Z</time></trkpt><trkpt lat="45.996675" lon="13.4525567"><ele>81.0</ele><time>2026-05-03T08:18:22.249Z</time></trkpt><trkpt lat="45.9967767" lon="13.452625"><ele>81.0</ele><time>2026-05-03T08:18:23.249Z</time></trkpt><trkpt lat="45.9968767" lon="13.4526867"><ele>81.0</ele><time>2026-05-03T08:18:24.249Z</time></trkpt><trkpt lat="45.99698" lon="13.452735"><ele>81.0</ele><time>2026-05-03T08:18:25.249Z</time></trkpt><trkpt lat="45.9970867" lon="13.4527683"><ele>81.0</ele><time>2026-05-03T08:18:26.249Z</time></trkpt><trkpt lat="45.997185" lon="13.4527917"><ele>81.0</ele><time>2026-05-03T08:18:27.249Z</time></trkpt><trkpt lat="45.9972717" lon="13.45282"><ele>81.0</ele><time>2026-05-03T08:18:28.249Z</time></trkpt><trkpt lat="45.99735" lon="13.4528433"><ele>81.0</ele><time>2026-05-03T08:18:29.249Z</time></trkpt><trkpt lat="45.997415" lon="13.4528733"><ele>81.0</ele><time>2026-05-03T08:18:30.248Z</time></trkpt><trkpt lat="45.9975233" lon="13.4529217"><ele>81.0</ele><time>2026-05-03T08:18:32.248Z</time></trkpt><trkpt lat="45.9976267" lon="13.452905"><ele>81.19999999999999</ele><time>2026-05-03T08:18:34.248Z</time></trkpt><trkpt lat="45.9977117" lon="13.4527583"><ele>81.39999999999999</ele><time>2026-05-03T08:18:36.248Z</time></trkpt><trkpt lat="45.9977517" lon="13.452645"><ele>81.6</ele><time>2026-05-03T08:18:37.248Z</time></trkpt><trkpt lat="45.9977917" lon="13.4525183"><ele>81.8</ele><time>2026-05-03T08:18:38.248Z</time></trkpt><trkpt lat="45.9978283" lon="13.4523833"><ele>82.0</ele><time>2026-05-03T08:18:39.248Z</time></trkpt><trkpt lat="45.997855" lon="13.4522383"><ele>82.6</ele><time>2026-05-03T08:18:40.248Z</time></trkpt><trkpt lat="45.997865" lon="13.4520917"><ele>83.19999999999999</ele><time>2026-05-03T08:18:41.248Z</time></trkpt><trkpt lat="45.9978683" lon="13.4519417"><ele>83.8</ele><time>2026-05-03T08:18:42.248Z</time></trkpt><trkpt lat="45.9978633" lon="13.4517883"><ele>84.4</ele><time>2026-05-03T08:18:43.248Z</time></trkpt><trkpt lat="45.9978617" lon="13.4516217"><ele>85.0</ele><time>2026-05-03T08:18:44.248Z</time></trkpt><trkpt lat="45.9978567" lon="13.45146"><ele>86.0</ele><time>2026-05-03T08:18:45.248Z</time></trkpt><trkpt lat="45.9978517" lon="13.4512867"><ele>87.0</ele><time>2026-05-03T08:18:46.248Z</time></trkpt><trkpt lat="45.9978417" lon="13.4511167"><ele>88.0</ele><time>2026-05-03T08:18:47.248Z</time></trkpt><trkpt lat="45.997825" lon="13.45096"><ele>89.0</ele><time>2026-05-03T08:18:48.248Z</time></trkpt><trkpt lat="45.9978067" lon="13.4508233"><ele>90.0</ele><time>2026-05-03T08:18:49.248Z</time></trkpt><trkpt lat="45.9977917" lon="13.4506917"><ele>90.0</ele><time>2026-05-03T08:18:50.248Z</time></trkpt><trkpt lat="45.9977867" lon="13.4505517"><ele>90.0</ele><time>2026-05-03T08:18:51.248Z</time></trkpt><trkpt lat="45.9977817" lon="13.45041"><ele>90.0</ele><time>2026-05-03T08:18:52.248Z</time></trkpt><trkpt lat="45.9977817" lon="13.4502817"><ele>90.0</ele><time>2026-05-03T08:18:53.248Z</time></trkpt><trkpt lat="45.9977817" lon="13.4501667"><ele>90.0</ele><time>2026-05-03T08:18:54.248Z</time></trkpt><trkpt lat="45.9977883" lon="13.4500683"><ele>90.0</ele><time>2026-05-03T08:18:55.248Z</time></trkpt><trkpt lat="45.99782" lon="13.449975"><ele>90.8</ele><time>2026-05-03T08:18:56.248Z</time></trkpt><trkpt lat="45.9978733" lon="13.4499"><ele>91.6</ele><time>2026-05-03T08:18:57.248Z</time></trkpt><trkpt lat="45.9979583" lon="13.4498083"><ele>92.4</ele><time>2026-05-03T08:18:58.248Z</time></trkpt><trkpt lat="45.9980617" lon="13.4496883"><ele>93.2</ele><time>2026-05-03T08:18:59.248Z</time></trkpt><trkpt lat="45.998165" lon="13.4495683"><ele>94.0</ele><time>2026-05-03T08:19:00.248Z</time></trkpt><trkpt lat="45.998265" lon="13.4494533"><ele>95.25</ele><time>2026-05-03T08:19:01.248Z</time></trkpt><trkpt lat="45.9983567" lon="13.44934"><ele>96.5</ele><time>2026-05-03T08:19:02.248Z</time></trkpt><trkpt lat="45.998465" lon="13.4492333"><ele>97.75</ele><time>2026-05-03T08:19:03.249Z</time></trkpt><trkpt lat="45.99858" lon="13.449135"><ele>99.0</ele><time>2026-05-03T08:19:04.248Z</time></trkpt><trkpt lat="45.998705" lon="13.4490717"><ele>99.0</ele><time>2026-05-03T08:19:05.248Z</time></trkpt><trkpt lat="45.99882" lon="13.44903"><ele>99.0</ele><time>2026-05-03T08:19:06.248Z</time></trkpt><trkpt lat="45.99891" lon="13.44903"><ele>99.0</ele><time>2026-05-03T08:19:07.248Z</time></trkpt><trkpt lat="45.9989717" lon="13.4490667"><ele>99.0</ele><time>2026-05-03T08:19:08.248Z</time></trkpt><trkpt lat="45.9990517" lon="13.4491783"><ele>99.0</ele><time>2026-05-03T08:19:10.248Z</time></trkpt><trkpt lat="45.999125" lon="13.4492133"><ele>98.0</ele><time>2026-05-03T08:19:11.248Z</time></trkpt><trkpt lat="45.9992217" lon="13.4492433"><ele>97.0</ele><time>2026-05-03T08:19:12.248Z</time></trkpt><trkpt lat="45.9993467" lon="13.449265"><ele>96.0</ele><time>2026-05-03T08:19:13.248Z</time></trkpt><trkpt lat="45.9994717" lon="13.4493"><ele>95.0</ele><time>2026-05-03T08:19:14.248Z</time></trkpt><trkpt lat="45.9995917" lon="13.4493717"><ele>95.0</ele><time>2026-05-03T08:19:15.248Z</time></trkpt><trkpt lat="45.9996933" lon="13.4495033"><ele>95.0</ele><time>2026-05-03T08:19:16.248Z</time></trkpt><trkpt lat="45.9997967" lon="13.44965"><ele>95.0</ele><time>2026-05-03T08:19:17.248Z</time></trkpt><trkpt lat="45.999915" lon="13.449785"><ele>95.0</ele><time>2026-05-03T08:19:18.248Z</time></trkpt><trkpt lat="46.0000517" lon="13.4498967"><ele>95.33333333333334</ele><time>2026-05-03T08:19:19.248Z</time></trkpt><trkpt lat="46.0001917" lon="13.4499717"><ele>95.66666666666667</ele><time>2026-05-03T08:19:20.248Z</time></trkpt><trkpt lat="46.000345" lon="13.4500133"><ele>96.0</ele><time>2026-05-03T08:19:21.248Z</time></trkpt><trkpt lat="46.0005" lon="13.45003"><ele>96.0</ele><time>2026-05-03T08:19:22.248Z</time></trkpt><trkpt lat="46.0006517" lon="13.4500283"><ele>96.0</ele><time>2026-05-03T08:19:23.248Z</time></trkpt><trkpt lat="46.0007817" lon="13.4500067"><ele>96.0</ele><time>2026-05-03T08:19:24.248Z</time></trkpt><trkpt lat="46.000895" lon="13.4499633"><ele>96.0</ele><time>2026-05-03T08:19:25.248Z</time></trkpt><trkpt lat="46.0009967" lon="13.4498917"><ele>96.4</ele><time>2026-05-03T08:19:26.248Z</time></trkpt><trkpt lat="46.0010817" lon="13.4498183"><ele>96.8</ele><time>2026-05-03T08:19:27.248Z</time></trkpt><trkpt lat="46.0011483" lon="13.449755"><ele>97.2</ele><time>2026-05-03T08:19:28.248Z</time></trkpt><trkpt lat="46.0012033" lon="13.449695"><ele>97.60000000000001</ele><time>2026-05-03T08:19:29.248Z</time></trkpt><trkpt lat="46.0012567" lon="13.449545"><ele>98.0</ele><time>2026-05-03T08:19:31.248Z</time></trkpt><trkpt lat="46.00126" lon="13.4494217"><ele>98.0</ele><time>2026-05-03T08:19:32.248Z</time></trkpt><trkpt lat="46.0012567" lon="13.4492717"><ele>98.0</ele><time>2026-05-03T08:19:33.248Z</time></trkpt><trkpt lat="46.0012667" lon="13.4491167"><ele>98.0</ele><time>2026-05-03T08:19:34.248Z</time></trkpt><trkpt lat="46.0012883" lon="13.44896"><ele>98.0</ele><time>2026-05-03T08:19:35.248Z</time></trkpt><trkpt lat="46.0013383" lon="13.4487983"><ele>98.0</ele><time>2026-05-03T08:19:36.248Z</time></trkpt><trkpt lat="46.001405" lon="13.44863"><ele>98.25</ele><time>2026-05-03T08:19:37.248Z</time></trkpt><trkpt lat="46.0014817" lon="13.4484833"><ele>98.5</ele><time>2026-05-03T08:19:38.248Z</time></trkpt><trkpt lat="46.0015733" lon="13.448355"><ele>98.75</ele><time>2026-05-03T08:19:39.248Z</time></trkpt><trkpt lat="46.0016667" lon="13.4482317"><ele>99.0</ele><time>2026-05-03T08:19:40.248Z</time></trkpt><trkpt lat="46.0017617" lon="13.448095"><ele>98.75</ele><time>2026-05-03T08:19:41.248Z</time></trkpt><trkpt lat="46.00184" lon="13.4479317"><ele>98.5</ele><time>2026-05-03T08:19:42.248Z</time></trkpt><trkpt lat="46.001885" lon="13.4477533"><ele>98.25</ele><time>2026-05-03T08:19:43.249Z</time></trkpt><trkpt lat="46.0018867" lon="13.4475717"><ele>98.0</ele><time>2026-05-03T08:19:44.248Z</time></trkpt><trkpt lat="46.00185" lon="13.4473867"><ele>98.0</ele><time>2026-05-03T08:19:45.248Z</time></trkpt><trkpt lat="46.0017867" lon="13.4471967"><ele>98.0</ele><time>2026-05-03T08:19:46.248Z</time></trkpt><trkpt lat="46.0017117" lon="13.4470067"><ele>98.0</ele><time>2026-05-03T08:19:47.248Z</time></trkpt><trkpt lat="46.0016283" lon="13.4468283"><ele>98.0</ele><time>2026-05-03T08:19:48.248Z</time></trkpt><trkpt lat="46.0015567" lon="13.44666"><ele>96.75</ele><time>2026-05-03T08:19:49.248Z</time></trkpt><trkpt lat="46.0014917" lon="13.446485"><ele>95.5</ele><time>2026-05-03T08:19:50.248Z</time></trkpt><trkpt lat="46.001425" lon="13.446305"><ele>94.25</ele><time>2026-05-03T08:19:51.248Z</time></trkpt><trkpt lat="46.001375" lon="13.4461217"><ele>93.0</ele><time>2026-05-03T08:19:52.248Z</time></trkpt><trkpt lat="46.0013333" lon="13.4459183"><ele>93.0</ele><time>2026-05-03T08:19:53.248Z</time></trkpt><trkpt lat="46.00129" lon="13.4457033"><ele>93.0</ele><time>2026-05-03T08:19:54.248Z</time></trkpt><trkpt lat="46.0012433" lon="13.44548"><ele>93.0</ele><time>2026-05-03T08:19:55.248Z</time></trkpt><trkpt lat="46.0011933" lon="13.44526"><ele>92.33333333333333</ele><time>2026-05-03T08:19:56.248Z</time></trkpt><trkpt lat="46.0011483" lon="13.4450317"><ele>91.66666666666666</ele><time>2026-05-03T08:19:57.248Z</time></trkpt><trkpt lat="46.0011017" lon="13.444805"><ele>91.0</ele><time>2026-05-03T08:19:58.248Z</time></trkpt><trkpt lat="46.0010633" lon="13.4445817"><ele>90.0</ele><time>2026-05-03T08:19:59.248Z</time></trkpt><trkpt lat="46.0010217" lon="13.4443683"><ele>89.0</ele><time>2026-05-03T08:20:00.248Z</time></trkpt><trkpt lat="46.0009833" lon="13.4441467"><ele>88.0</ele><time>2026-05-03T08:20:01.248Z</time></trkpt><trkpt lat="46.00095" lon="13.44392"><ele>87.66666666666666</ele><time>2026-05-03T08:20:02.248Z</time></trkpt><trkpt lat="46.0009167" lon="13.4436983"><ele>87.33333333333333</ele><time>2026-05-03T08:20:03.248Z</time></trkpt><trkpt lat="46.000885" lon="13.4434717"><ele>87.0</ele><time>2026-05-03T08:20:04.249Z</time></trkpt><trkpt lat="46.0008533" lon="13.44324"><ele>87.0</ele><time>2026-05-03T08:20:05.248Z</time></trkpt><trkpt lat="46.00082" lon="13.443005"><ele>87.0</ele><time>2026-05-03T08:20:06.248Z</time></trkpt><trkpt lat="46.0007933" lon="13.4427817"><ele>87.0</ele><time>2026-05-03T08:20:07.248Z</time></trkpt><trkpt lat="46.0007683" lon="13.4425617"><ele>87.0</ele><time>2026-05-03T08:20:08.248Z</time></trkpt><trkpt lat="46.00074" lon="13.4423467"><ele>87.0</ele><time>2026-05-03T08:20:09.248Z</time></trkpt><trkpt lat="46.0007133" lon="13.4421267"><ele>87.0</ele><time>2026-05-03T08:20:10.248Z</time></trkpt><trkpt lat="46.0006817" lon="13.4419183"><ele>86.75</ele><time>2026-05-03T08:20:11.249Z</time></trkpt><trkpt lat="46.0006567" lon="13.4417167"><ele>86.5</ele><time>2026-05-03T08:20:12.248Z</time></trkpt><trkpt lat="46.0006317" lon="13.4415267"><ele>86.25</ele><time>2026-05-03T08:20:13.248Z</time></trkpt><trkpt lat="46.000605" lon="13.4413433"><ele>86.0</ele><time>2026-05-03T08:20:14.248Z</time></trkpt><trkpt lat="46.0005783" lon="13.44117"><ele>86.0</ele><time>2026-05-03T08:20:15.248Z</time></trkpt><trkpt lat="46.000555" lon="13.44101"><ele>86.0</ele><time>2026-05-03T08:20:16.248Z</time></trkpt><trkpt lat="46.0005367" lon="13.44087"><ele>86.0</ele><time>2026-05-03T08:20:17.248Z</time></trkpt><trkpt lat="46.0005183" lon="13.4407367"><ele>86.0</ele><time>2026-05-03T08:20:18.248Z</time></trkpt><trkpt lat="46.00051" lon="13.4405983"><ele>86.0</ele><time>2026-05-03T08:20:19.248Z</time></trkpt><trkpt lat="46.0005017" lon="13.440465"><ele>86.0</ele><time>2026-05-03T08:20:20.249Z</time></trkpt><trkpt lat="46.0004867" lon="13.44035"><ele>86.0</ele><time>2026-05-03T08:20:21.248Z</time></trkpt><trkpt lat="46.0004617" lon="13.4402617"><ele>86.0</ele><time>2026-05-03T08:20:22.248Z</time></trkpt><trkpt lat="46.0004417" lon="13.440175"><ele>86.0</ele><time>2026-05-03T08:20:24.248Z</time></trkpt><trkpt lat="46.00041" lon="13.44005"><ele>86.0</ele><time>2026-05-03T08:20:27.248Z</time></trkpt><trkpt lat="46.0003883" lon="13.43996"><ele>86.0</ele><time>2026-05-03T08:20:28.248Z</time></trkpt><trkpt lat="46.0003633" lon="13.4398483"><ele>86.0</ele><time>2026-05-03T08:20:29.248Z</time></trkpt><trkpt lat="46.0003317" lon="13.43972"><ele>86.0</ele><time>2026-05-03T08:20:30.248Z</time></trkpt><trkpt lat="46.0003217" lon="13.4395867"><ele>86.0</ele><time>2026-05-03T08:20:31.248Z</time></trkpt><trkpt lat="46.000315" lon="13.4394583"><ele>86.0</ele><time>2026-05-03T08:20:32.248Z</time></trkpt><trkpt lat="46.000305" lon="13.4393283"><ele>86.0</ele><time>2026-05-03T08:20:33.248Z</time></trkpt><trkpt lat="46.000285" lon="13.4392067"><ele>86.0</ele><time>2026-05-03T08:20:34.248Z</time></trkpt><trkpt lat="46.00025" lon="13.43908"><ele>86.0</ele><time>2026-05-03T08:20:35.248Z</time></trkpt><trkpt lat="46.0002117" lon="13.4389383"><ele>86.0</ele><time>2026-05-03T08:20:36.248Z</time></trkpt><trkpt lat="46.0001717" lon="13.438785"><ele>86.0</ele><time>2026-05-03T08:20:37.248Z</time></trkpt><trkpt lat="46.00011" lon="13.4386483"><ele>86.0</ele><time>2026-05-03T08:20:38.248Z</time></trkpt><trkpt lat="46.0000483" lon="13.438525"><ele>86.0</ele><time>2026-05-03T08:20:39.248Z</time></trkpt><trkpt lat="45.999985" lon="13.43839"><ele>86.0</ele><time>2026-05-03T08:20:40.248Z</time></trkpt><trkpt lat="45.9998933" lon="13.4382817"><ele>86.0</ele><time>2026-05-03T08:20:41.248Z</time></trkpt><trkpt lat="45.9998167" lon="13.4381483"><ele>86.0</ele><time>2026-05-03T08:20:42.248Z</time></trkpt><trkpt lat="45.9997333" lon="13.4379867"><ele>85.5</ele><time>2026-05-03T08:20:43.248Z</time></trkpt><trkpt lat="45.9996333" lon="13.4378417"><ele>85.0</ele><time>2026-05-03T08:20:44.248Z</time></trkpt><trkpt lat="45.9995133" lon="13.4377183"><ele>84.5</ele><time>2026-05-03T08:20:45.248Z</time></trkpt><trkpt lat="45.9993867" lon="13.43761"><ele>84.0</ele><time>2026-05-03T08:20:46.248Z</time></trkpt><trkpt lat="45.999255" lon="13.4375"><ele>84.0</ele><time>2026-05-03T08:20:47.248Z</time></trkpt><trkpt lat="45.9991217" lon="13.4374017"><ele>84.0</ele><time>2026-05-03T08:20:48.248Z</time></trkpt><trkpt lat="45.9989867" lon="13.4373083"><ele>84.0</ele><time>2026-05-03T08:20:49.248Z</time></trkpt><trkpt lat="45.99884" lon="13.4372167"><ele>84.0</ele><time>2026-05-03T08:20:50.248Z</time></trkpt><trkpt lat="45.9986867" lon="13.43714"><ele>84.0</ele><time>2026-05-03T08:20:51.248Z</time></trkpt><trkpt lat="45.9985233" lon="13.437065"><ele>84.0</ele><time>2026-05-03T08:20:52.248Z</time></trkpt><trkpt lat="45.998375" lon="13.437005"><ele>83.66666666666667</ele><time>2026-05-03T08:20:53.248Z</time></trkpt><trkpt lat="45.9982233" lon="13.4369533"><ele>83.33333333333334</ele><time>2026-05-03T08:20:54.248Z</time></trkpt><trkpt lat="45.9980717" lon="13.4368917"><ele>83.0</ele><time>2026-05-03T08:20:55.248Z</time></trkpt><trkpt lat="45.997925" lon="13.4368383"><ele>83.0</ele><time>2026-05-03T08:20:56.248Z</time></trkpt><trkpt lat="45.9977817" lon="13.4367817"><ele>83.0</ele><time>2026-05-03T08:20:57.248Z</time></trkpt><trkpt lat="45.9976383" lon="13.43674"><ele>83.0</ele><time>2026-05-03T08:20:58.248Z</time></trkpt><trkpt lat="45.9974967" lon="13.4367067"><ele>83.0</ele><time>2026-05-03T08:20:59.248Z</time></trkpt><trkpt lat="45.9973733" lon="13.4366717"><ele>83.60000000000001</ele><time>2026-05-03T08:21:00.248Z</time></trkpt><trkpt lat="45.9972533" lon="13.43666"><ele>84.2</ele><time>2026-05-03T08:21:01.248Z</time></trkpt><trkpt lat="45.997145" lon="13.4366583"><ele>84.8</ele><time>2026-05-03T08:21:02.248Z</time></trkpt><trkpt lat="45.9970517" lon="13.43666"><ele>85.4</ele><time>2026-05-03T08:21:03.248Z</time></trkpt><trkpt lat="45.9969583" lon="13.4366417"><ele>86.0</ele><time>2026-05-03T08:21:04.248Z</time></trkpt><trkpt lat="45.9968867" lon="13.4365817"><ele>86.0</ele><time>2026-05-03T08:21:05.248Z</time></trkpt><trkpt lat="45.9968333" lon="13.4365233"><ele>86.0</ele><time>2026-05-03T08:21:06.248Z</time></trkpt><trkpt lat="45.9967883" lon="13.4364017"><ele>86.0</ele><time>2026-05-03T08:21:08.248Z</time></trkpt><trkpt lat="45.9968" lon="13.4362217"><ele>86.0</ele><time>2026-05-03T08:21:10.248Z</time></trkpt><trkpt lat="45.9968233" lon="13.4360933"><ele>86.0</ele><time>2026-05-03T08:21:11.248Z</time></trkpt><trkpt lat="45.9968617" lon="13.4359617"><ele>85.4</ele><time>2026-05-03T08:21:12.248Z</time></trkpt><trkpt lat="45.9969067" lon="13.4358217"><ele>84.8</ele><time>2026-05-03T08:21:13.248Z</time></trkpt><trkpt lat="45.99695" lon="13.43568"><ele>84.2</ele><time>2026-05-03T08:21:14.248Z</time></trkpt><trkpt lat="45.9969633" lon="13.4355567"><ele>83.60000000000001</ele><time>2026-05-03T08:21:15.248Z</time></trkpt><trkpt lat="45.99695" lon="13.43543"><ele>83.0</ele><time>2026-05-03T08:21:16.248Z</time></trkpt><trkpt lat="45.9969167" lon="13.4352933"><ele>82.5</ele><time>2026-05-03T08:21:17.248Z</time></trkpt><trkpt lat="45.9968633" lon="13.43516"><ele>82.0</ele><time>2026-05-03T08:21:18.248Z</time></trkpt><trkpt lat="45.9968083" lon="13.43502"><ele>81.5</ele><time>2026-05-03T08:21:19.248Z</time></trkpt><trkpt lat="45.9967517" lon="13.43485"><ele>81.0</ele><time>2026-05-03T08:21:20.248Z</time></trkpt><trkpt lat="45.99668" lon="13.4346683"><ele>81.0</ele><time>2026-05-03T08:21:21.248Z</time></trkpt><trkpt lat="45.99662" lon="13.4344483"><ele>81.0</ele><time>2026-05-03T08:21:22.248Z</time></trkpt><trkpt lat="45.9965783" lon="13.434235"><ele>81.0</ele><time>2026-05-03T08:21:23.248Z</time></trkpt><trkpt lat="45.9965433" lon="13.434035"><ele>81.0</ele><time>2026-05-03T08:21:24.248Z</time></trkpt><trkpt lat="45.99652" lon="13.4338367"><ele>81.0</ele><time>2026-05-03T08:21:25.248Z</time></trkpt><trkpt lat="45.9965217" lon="13.4336333"><ele>81.0</ele><time>2026-05-03T08:21:26.248Z</time></trkpt><trkpt lat="45.996535" lon="13.433415"><ele>81.0</ele><time>2026-05-03T08:21:27.248Z</time></trkpt><trkpt lat="45.996535" lon="13.4332017"><ele>81.0</ele><time>2026-05-03T08:21:28.248Z</time></trkpt><trkpt lat="45.9965167" lon="13.4329967"><ele>81.0</ele><time>2026-05-03T08:21:29.248Z</time></trkpt><trkpt lat="45.9964533" lon="13.4328033"><ele>81.0</ele><time>2026-05-03T08:21:30.248Z</time></trkpt><trkpt lat="45.99639" lon="13.4326567"><ele>81.0</ele><time>2026-05-03T08:21:31.248Z</time></trkpt><trkpt lat="45.9963083" lon="13.4325683"><ele>81.0</ele><time>2026-05-03T08:21:32.248Z</time></trkpt><trkpt lat="45.9962033" lon="13.432525"><ele>81.0</ele><time>2026-05-03T08:21:33.248Z</time></trkpt><trkpt lat="45.9960633" lon="13.43252"><ele>81.0</ele><time>2026-05-03T08:21:34.248Z</time></trkpt><trkpt lat="45.99591" lon="13.43251"><ele>81.0</ele><time>2026-05-03T08:21:35.248Z</time></trkpt><trkpt lat="45.9957567" lon="13.4324933"><ele>81.66666666666667</ele><time>2026-05-03T08:21:36.248Z</time></trkpt><trkpt lat="45.9955983" lon="13.4324783"><ele>82.33333333333334</ele><time>2026-05-03T08:21:37.248Z</time></trkpt><trkpt lat="45.9954383" lon="13.4324567"><ele>83.0</ele><time>2026-05-03T08:21:38.248Z</time></trkpt><trkpt lat="45.995305" lon="13.4324417"><ele>83.0</ele><time>2026-05-03T08:21:39.248Z</time></trkpt><trkpt lat="45.9951883" lon="13.432425"><ele>83.0</ele><time>2026-05-03T08:21:40.248Z</time></trkpt><trkpt lat="45.9950883" lon="13.4323933"><ele>83.0</ele><time>2026-05-03T08:21:41.248Z</time></trkpt><trkpt lat="45.9949833" lon="13.4323433"><ele>83.0</ele><time>2026-05-03T08:21:42.248Z</time></trkpt><trkpt lat="45.9948983" lon="13.4323183"><ele>83.0</ele><time>2026-05-03T08:21:43.248Z</time></trkpt><trkpt lat="45.9947933" lon="13.4322917"><ele>83.0</ele><time>2026-05-03T08:21:44.248Z</time></trkpt><trkpt lat="45.9946833" lon="13.4322817"><ele>83.0</ele><time>2026-05-03T08:21:45.248Z</time></trkpt><trkpt lat="45.99456" lon="13.4323"><ele>83.0</ele><time>2026-05-03T08:21:46.248Z</time></trkpt><trkpt lat="45.9944233" lon="13.43233"><ele>83.0</ele><time>2026-05-03T08:21:47.248Z</time></trkpt><trkpt lat="45.9942867" lon="13.43237"><ele>82.75</ele><time>2026-05-03T08:21:48.248Z</time></trkpt><trkpt lat="45.9941517" lon="13.43242"><ele>82.5</ele><time>2026-05-03T08:21:49.248Z</time></trkpt><trkpt lat="45.9940067" lon="13.4324667"><ele>82.25</ele><time>2026-05-03T08:21:50.248Z</time></trkpt><trkpt lat="45.9938617" lon="13.432515"><ele>82.0</ele><time>2026-05-03T08:21:51.248Z</time></trkpt><trkpt lat="45.9937133" lon="13.4325567"><ele>82.0</ele><time>2026-05-03T08:21:52.248Z</time></trkpt><trkpt lat="45.99357" lon="13.4326017"><ele>82.0</ele><time>2026-05-03T08:21:53.248Z</time></trkpt><trkpt lat="45.9934217" lon="13.4326433"><ele>82.0</ele><time>2026-05-03T08:21:54.248Z</time></trkpt><trkpt lat="45.993285" lon="13.432695"><ele>82.0</ele><time>2026-05-03T08:21:55.248Z</time></trkpt><trkpt lat="45.9931583" lon="13.4327333"><ele>81.25</ele><time>2026-05-03T08:21:56.248Z</time></trkpt><trkpt lat="45.9930317" lon="13.4327633"><ele>80.5</ele><time>2026-05-03T08:21:57.248Z</time></trkpt><trkpt lat="45.9929133" lon="13.4327967"><ele>79.75</ele><time>2026-05-03T08:21:58.248Z</time></trkpt><trkpt lat="45.99279" lon="13.4328283"><ele>79.0</ele><time>2026-05-03T08:21:59.248Z</time></trkpt><trkpt lat="45.9926633" lon="13.43286"><ele>79.0</ele><time>2026-05-03T08:22:00.248Z</time></trkpt><trkpt lat="45.9925383" lon="13.43288"><ele>79.0</ele><time>2026-05-03T08:22:01.248Z</time></trkpt><trkpt lat="45.9924283" lon="13.4328767"><ele>79.0</ele><time>2026-05-03T08:22:02.248Z</time></trkpt><trkpt lat="45.992335" lon="13.43286"><ele>79.0</ele><time>2026-05-03T08:22:03.248Z</time></trkpt><trkpt lat="45.9922683" lon="13.4328433"><ele>79.0</ele><time>2026-05-03T08:22:04.248Z</time></trkpt><trkpt lat="45.9922017" lon="13.4327983"><ele>79.0</ele><time>2026-05-03T08:22:05.248Z</time></trkpt><trkpt lat="45.99214" lon="13.43271"><ele>79.0</ele><time>2026-05-03T08:22:06.248Z</time></trkpt><trkpt lat="45.99207" lon="13.4325867"><ele>79.0</ele><time>2026-05-03T08:22:07.248Z</time></trkpt><trkpt lat="45.9919967" lon="13.4324133"><ele>79.0</ele><time>2026-05-03T08:22:08.248Z</time></trkpt><trkpt lat="45.9919167" lon="13.4322167"><ele>79.0</ele><time>2026-05-03T08:22:09.248Z</time></trkpt><trkpt lat="45.9918467" lon="13.43204"><ele>79.0</ele><time>2026-05-03T08:22:10.248Z</time></trkpt><trkpt lat="45.99178" lon="13.4318633"><ele>79.0</ele><time>2026-05-03T08:22:11.248Z</time></trkpt><trkpt lat="45.99172" lon="13.4316883"><ele>79.0</ele><time>2026-05-03T08:22:12.248Z</time></trkpt><trkpt lat="45.9916533" lon="13.4315183"><ele>79.0</ele><time>2026-05-03T08:22:13.248Z</time></trkpt><trkpt lat="45.991585" lon="13.4313367"><ele>79.0</ele><time>2026-05-03T08:22:14.248Z</time></trkpt><trkpt lat="45.9915167" lon="13.43115"><ele>79.0</ele><time>2026-05-03T08:22:15.248Z</time></trkpt><trkpt lat="45.9914533" lon="13.4309883"><ele>79.0</ele><time>2026-05-03T08:22:16.248Z</time></trkpt><trkpt lat="45.991405" lon="13.4308583"><ele>79.0</ele><time>2026-05-03T08:22:17.248Z</time></trkpt><trkpt lat="45.991365" lon="13.4307383"><ele>79.0</ele><time>2026-05-03T08:22:18.248Z</time></trkpt><trkpt lat="45.9913283" lon="13.4306333"><ele>79.0</ele><time>2026-05-03T08:22:19.248Z</time></trkpt><trkpt lat="45.9912283" lon="13.4305367"><ele>79.0</ele><time>2026-05-03T08:22:21.248Z</time></trkpt><trkpt lat="45.99109" lon="13.43056"><ele>79.0</ele><time>2026-05-03T08:22:23.248Z</time></trkpt><trkpt lat="45.9909933" lon="13.430605"><ele>79.0</ele><time>2026-05-03T08:22:24.248Z</time></trkpt><trkpt lat="45.99089" lon="13.4306567"><ele>79.0</ele><time>2026-05-03T08:22:25.248Z</time></trkpt><trkpt lat="45.990785" lon="13.4307017"><ele>79.0</ele><time>2026-05-03T08:22:26.248Z</time></trkpt><trkpt lat="45.9906667" lon="13.4307483"><ele>79.0</ele><time>2026-05-03T08:22:27.248Z</time></trkpt><trkpt lat="45.99054" lon="13.4307917"><ele>78.75</ele><time>2026-05-03T08:22:28.248Z</time></trkpt><trkpt lat="45.9903967" lon="13.4308417"><ele>78.5</ele><time>2026-05-03T08:22:29.248Z</time></trkpt><trkpt lat="45.9902517" lon="13.4308983"><ele>78.25</ele><time>2026-05-03T08:22:30.248Z</time></trkpt><trkpt lat="45.9901067" lon="13.4309533"><ele>78.0</ele><time>2026-05-03T08:22:31.248Z</time></trkpt><trkpt lat="45.989985" lon="13.4309983"><ele>77.75</ele><time>2026-05-03T08:22:32.248Z</time></trkpt><trkpt lat="45.98986" lon="13.4310417"><ele>77.5</ele><time>2026-05-03T08:22:33.248Z</time></trkpt><trkpt lat="45.98974" lon="13.4310767"><ele>77.25</ele><time>2026-05-03T08:22:34.248Z</time></trkpt><trkpt lat="45.9896217" lon="13.4311233"><ele>77.0</ele><time>2026-05-03T08:22:35.248Z</time></trkpt><trkpt lat="45.9894967" lon="13.4311633"><ele>77.0</ele><time>2026-05-03T08:22:36.248Z</time></trkpt><trkpt lat="45.989365" lon="13.431205"><ele>77.0</ele><time>2026-05-03T08:22:37.248Z</time></trkpt><trkpt lat="45.9892383" lon="13.4312583"><ele>77.0</ele><time>2026-05-03T08:22:38.248Z</time></trkpt><trkpt lat="45.9891067" lon="13.43131"><ele>77.0</ele><time>2026-05-03T08:22:39.248Z</time></trkpt><trkpt lat="45.988995" lon="13.4313567"><ele>76.6</ele><time>2026-05-03T08:22:40.248Z</time></trkpt><trkpt lat="45.98889" lon="13.4313983"><ele>76.2</ele><time>2026-05-03T08:22:41.249Z</time></trkpt><trkpt lat="45.9887867" lon="13.43143"><ele>75.8</ele><time>2026-05-03T08:22:42.248Z</time></trkpt><trkpt lat="45.988695" lon="13.4314633"><ele>75.4</ele><time>2026-05-03T08:22:43.248Z</time></trkpt><trkpt lat="45.9885933" lon="13.43149"><ele>75.0</ele><time>2026-05-03T08:22:44.248Z</time></trkpt><trkpt lat="45.988485" lon="13.43151"><ele>75.0</ele><time>2026-05-03T08:22:45.248Z</time></trkpt><trkpt lat="45.9883733" lon="13.43151"><ele>75.0</ele><time>2026-05-03T08:22:46.248Z</time></trkpt><trkpt lat="45.9882567" lon="13.4315"><ele>75.0</ele><time>2026-05-03T08:22:47.248Z</time></trkpt><trkpt lat="45.9881283" lon="13.4314767"><ele>75.0</ele><time>2026-05-03T08:22:48.248Z</time></trkpt><trkpt lat="45.9880083" lon="13.4314433"><ele>74.6</ele><time>2026-05-03T08:22:49.248Z</time></trkpt><trkpt lat="45.9878967" lon="13.431415"><ele>74.2</ele><time>2026-05-03T08:22:50.248Z</time></trkpt><trkpt lat="45.9877933" lon="13.4313917"><ele>73.8</ele><time>2026-05-03T08:22:51.248Z</time></trkpt><trkpt lat="45.98771" lon="13.4313767"><ele>73.4</ele><time>2026-05-03T08:22:52.248Z</time></trkpt><trkpt lat="45.9876333" lon="13.4313767"><ele>73.0</ele><time>2026-05-03T08:22:53.248Z</time></trkpt><trkpt lat="45.9875617" lon="13.4314167"><ele>72.66666666666666</ele><time>2026-05-03T08:22:54.248Z</time></trkpt><trkpt lat="45.987505" lon="13.4314833"><ele>72.33333333333333</ele><time>2026-05-03T08:22:55.248Z</time></trkpt><trkpt lat="45.9874617" lon="13.43158"><ele>72.0</ele><time>2026-05-03T08:22:56.249Z</time></trkpt><trkpt lat="45.9874317" lon="13.4317017"><ele>71.66666666666667</ele><time>2026-05-03T08:22:57.248Z</time></trkpt><trkpt lat="45.9874033" lon="13.431805"><ele>71.33333333333334</ele><time>2026-05-03T08:22:58.248Z</time></trkpt><trkpt lat="45.9873783" lon="13.4318883"><ele>71.0</ele><time>2026-05-03T08:22:59.248Z</time></trkpt><trkpt lat="45.9873233" lon="13.432"><ele>71.0</ele><time>2026-05-03T08:23:01.248Z</time></trkpt><trkpt lat="45.98724" lon="13.432045"><ele>71.0</ele><time>2026-05-03T08:23:04.248Z</time></trkpt><trkpt lat="45.98717" lon="13.4320283"><ele>71.0</ele><time>2026-05-03T08:23:06.249Z</time></trkpt><trkpt lat="45.9871145" lon="13.4319561"><ele>71.0</ele><time>2026-05-03T08:23:11.305Z</time></trkpt><trkpt lat="45.9869594" lon="13.4319886"><ele>71.0</ele><time>2026-05-03T08:24:16.298Z</time></trkpt><trkpt lat="45.9868862" lon="13.4320128"><ele>71.0</ele><time>2026-05-03T08:24:17.247Z</time></trkpt><trkpt lat="45.9868023" lon="13.432053"><ele>71.0</ele><time>2026-05-03T08:24:18.247Z</time></trkpt><trkpt lat="45.9867362" lon="13.4320954"><ele>71.0</ele><time>2026-05-03T08:24:19.247Z</time></trkpt><trkpt lat="45.9866609" lon="13.4321969"><ele>71.0</ele><time>2026-05-03T08:24:21.247Z</time></trkpt><trkpt lat="45.9866255" lon="13.4322736"><ele>71.0</ele><time>2026-05-03T08:24:24.247Z</time></trkpt><trkpt lat="45.9865583" lon="13.4322733"><ele>71.0</ele><time>2026-05-03T08:26:08.247Z</time></trkpt><trkpt lat="45.9864767" lon="13.4321933"><ele>71.6</ele><time>2026-05-03T08:26:10.247Z</time></trkpt><trkpt lat="45.986425" lon="13.432125"><ele>72.19999999999999</ele><time>2026-05-03T08:26:11.247Z</time></trkpt><trkpt lat="45.9863617" lon="13.4320383"><ele>72.80000000000001</ele><time>2026-05-03T08:26:12.247Z</time></trkpt><trkpt lat="45.9862883" lon="13.4319283"><ele>73.4</ele><time>2026-05-03T08:26:13.247Z</time></trkpt><trkpt lat="45.9862117" lon="13.4318217"><ele>74.0</ele><time>2026-05-03T08:26:14.247Z</time></trkpt><trkpt lat="45.9861333" lon="13.43172"><ele>74.0</ele><time>2026-05-03T08:26:15.247Z</time></trkpt><trkpt lat="45.9860583" lon="13.43163"><ele>74.0</ele><time>2026-05-03T08:26:16.248Z</time></trkpt><trkpt lat="45.98599" lon="13.43155"><ele>74.0</ele><time>2026-05-03T08:26:17.247Z</time></trkpt><trkpt lat="45.9859283" lon="13.4314783"><ele>74.0</ele><time>2026-05-03T08:26:18.248Z</time></trkpt><trkpt lat="45.985875" lon="13.4314133"><ele>74.0</ele><time>2026-05-03T08:26:19.247Z</time></trkpt><trkpt lat="45.9858183" lon="13.4313417"><ele>74.0</ele><time>2026-05-03T08:26:20.247Z</time></trkpt><trkpt lat="45.9857583" lon="13.431265"><ele>73.83333333333334</ele><time>2026-05-03T08:26:21.247Z</time></trkpt><trkpt lat="45.9857117" lon="13.4311983"><ele>73.66666666666667</ele><time>2026-05-03T08:26:22.247Z</time></trkpt><trkpt lat="45.98565" lon="13.4311317"><ele>73.5</ele><time>2026-05-03T08:26:24.247Z</time></trkpt><trkpt lat="45.9855667" lon="13.4310833"><ele>73.33333333333333</ele><time>2026-05-03T08:26:27.247Z</time></trkpt><trkpt lat="45.9854967" lon="13.4311"><ele>73.16666666666666</ele><time>2026-05-03T08:26:28.247Z</time></trkpt><trkpt lat="45.9854133" lon="13.4311367"><ele>73.0</ele><time>2026-05-03T08:26:29.247Z</time></trkpt><trkpt lat="45.985315" lon="13.4311917"><ele>73.0</ele><time>2026-05-03T08:26:30.247Z</time></trkpt><trkpt lat="45.9852067" lon="13.4312533"><ele>73.0</ele><time>2026-05-03T08:26:31.247Z</time></trkpt><trkpt lat="45.9850933" lon="13.4313283"><ele>73.0</ele><time>2026-05-03T08:26:32.247Z</time></trkpt><trkpt lat="45.9849767" lon="13.4314033"><ele>73.0</ele><time>2026-05-03T08:26:33.247Z</time></trkpt><trkpt lat="45.9848533" lon="13.4314267"><ele>73.25</ele><time>2026-05-03T08:26:34.247Z</time></trkpt><trkpt lat="45.984725" lon="13.4314167"><ele>73.5</ele><time>2026-05-03T08:26:35.247Z</time></trkpt><trkpt lat="45.98459" lon="13.431365"><ele>73.75</ele><time>2026-05-03T08:26:36.247Z</time></trkpt><trkpt lat="45.9844417" lon="13.4313117"><ele>74.0</ele><time>2026-05-03T08:26:37.247Z</time></trkpt><trkpt lat="45.984285" lon="13.431265"><ele>73.0</ele><time>2026-05-03T08:26:38.247Z</time></trkpt><trkpt lat="45.98412" lon="13.4312433"><ele>72.0</ele><time>2026-05-03T08:26:39.247Z</time></trkpt><trkpt lat="45.9839483" lon="13.4312483"><ele>71.0</ele><time>2026-05-03T08:26:40.247Z</time></trkpt><trkpt lat="45.98377" lon="13.4312767"><ele>71.0</ele><time>2026-05-03T08:26:41.247Z</time></trkpt><trkpt lat="45.983585" lon="13.4313067"><ele>71.0</ele><time>2026-05-03T08:26:42.247Z</time></trkpt><trkpt lat="45.9834033" lon="13.431345"><ele>71.0</ele><time>2026-05-03T08:26:43.247Z</time></trkpt><trkpt lat="45.98322" lon="13.431375"><ele>70.33333333333334</ele><time>2026-05-03T08:26:44.245Z</time></trkpt><trkpt lat="45.9830467" lon="13.4314017"><ele>69.66666666666667</ele><time>2026-05-03T08:26:45.247Z</time></trkpt><trkpt lat="45.98287" lon="13.4314183"><ele>69.0</ele><time>2026-05-03T08:26:46.247Z</time></trkpt><trkpt lat="45.9826983" lon="13.43144"><ele>69.0</ele><time>2026-05-03T08:26:47.247Z</time></trkpt><trkpt lat="45.9825283" lon="13.43146"><ele>69.0</ele><time>2026-05-03T08:26:48.247Z</time></trkpt><trkpt lat="45.9823583" lon="13.4314583"><ele>69.0</ele><time>2026-05-03T08:26:49.247Z</time></trkpt><trkpt lat="45.98217" lon="13.4314333"><ele>68.66666666666667</ele><time>2026-05-03T08:26:50.247Z</time></trkpt><trkpt lat="45.9819883" lon="13.431385"><ele>68.33333333333334</ele><time>2026-05-03T08:26:51.247Z</time></trkpt><trkpt lat="45.98181" lon="13.4313233"><ele>68.0</ele><time>2026-05-03T08:26:52.247Z</time></trkpt><trkpt lat="45.9816417" lon="13.431245"><ele>68.0</ele><time>2026-05-03T08:26:53.247Z</time></trkpt><trkpt lat="45.98148" lon="13.4311567"><ele>68.0</ele><time>2026-05-03T08:26:54.247Z</time></trkpt><trkpt lat="45.9813233" lon="13.43108"><ele>68.0</ele><time>2026-05-03T08:26:55.247Z</time></trkpt><trkpt lat="45.981185" lon="13.4310033"><ele>68.0</ele><time>2026-05-03T08:26:56.247Z</time></trkpt><trkpt lat="45.9810533" lon="13.430935"><ele>68.0</ele><time>2026-05-03T08:26:57.247Z</time></trkpt><trkpt lat="45.9809317" lon="13.430875"><ele>68.0</ele><time>2026-05-03T08:26:58.247Z</time></trkpt><trkpt lat="45.98082" lon="13.4308117"><ele>68.0</ele><time>2026-05-03T08:26:59.247Z</time></trkpt><trkpt lat="45.98073" lon="13.4307717"><ele>68.0</ele><time>2026-05-03T08:27:00.247Z</time></trkpt><trkpt lat="45.980655" lon="13.4307633"><ele>68.0</ele><time>2026-05-03T08:27:01.247Z</time></trkpt><trkpt lat="45.9805983" lon="13.4308183"><ele>68.0</ele><time>2026-05-03T08:27:02.247Z</time></trkpt><trkpt lat="45.9805567" lon="13.4309233"><ele>68.0</ele><time>2026-05-03T08:27:03.247Z</time></trkpt><trkpt lat="45.9805267" lon="13.4310667"><ele>68.0</ele><time>2026-05-03T08:27:04.247Z</time></trkpt><trkpt lat="45.9805033" lon="13.43124"><ele>67.66666666666667</ele><time>2026-05-03T08:27:05.247Z</time></trkpt><trkpt lat="45.9804717" lon="13.431435"><ele>67.33333333333333</ele><time>2026-05-03T08:27:06.247Z</time></trkpt><trkpt lat="45.9804367" lon="13.431645"><ele>67.0</ele><time>2026-05-03T08:27:07.247Z</time></trkpt><trkpt lat="45.9804" lon="13.431875"><ele>67.0</ele><time>2026-05-03T08:27:08.247Z</time></trkpt><trkpt lat="45.9803683" lon="13.4321233"><ele>67.0</ele><time>2026-05-03T08:27:09.247Z</time></trkpt><trkpt lat="45.9803317" lon="13.432385"><ele>67.0</ele><time>2026-05-03T08:27:10.247Z</time></trkpt><trkpt lat="45.9803033" lon="13.4326533"><ele>67.0</ele><time>2026-05-03T08:27:11.247Z</time></trkpt><trkpt lat="45.98028" lon="13.4329167"><ele>67.0</ele><time>2026-05-03T08:27:12.247Z</time></trkpt><trkpt lat="45.980265" lon="13.433175"><ele>67.0</ele><time>2026-05-03T08:27:13.247Z</time></trkpt><trkpt lat="45.9802467" lon="13.4334233"><ele>67.0</ele><time>2026-05-03T08:27:14.247Z</time></trkpt><trkpt lat="45.9802267" lon="13.433665"><ele>67.0</ele><time>2026-05-03T08:27:15.247Z</time></trkpt><trkpt lat="45.9802117" lon="13.4339067"><ele>67.0</ele><time>2026-05-03T08:27:16.247Z</time></trkpt><trkpt lat="45.9802" lon="13.4341433"><ele>67.33333333333333</ele><time>2026-05-03T08:27:17.247Z</time></trkpt><trkpt lat="45.9801783" lon="13.4343867"><ele>67.66666666666667</ele><time>2026-05-03T08:27:18.247Z</time></trkpt><trkpt lat="45.9801383" lon="13.4346333"><ele>68.0</ele><time>2026-05-03T08:27:19.247Z</time></trkpt><trkpt lat="45.98009" lon="13.4348767"><ele>68.0</ele><time>2026-05-03T08:27:20.247Z</time></trkpt><trkpt lat="45.980025" lon="13.4351167"><ele>68.0</ele><time>2026-05-03T08:27:21.247Z</time></trkpt><trkpt lat="45.97994" lon="13.4353533"><ele>68.0</ele><time>2026-05-03T08:27:22.247Z</time></trkpt><trkpt lat="45.9798483" lon="13.4355967"><ele>68.33333333333334</ele><time>2026-05-03T08:27:23.247Z</time></trkpt><trkpt lat="45.97977" lon="13.4358433"><ele>68.66666666666667</ele><time>2026-05-03T08:27:24.247Z</time></trkpt><trkpt lat="45.9796867" lon="13.436095"><ele>69.0</ele><time>2026-05-03T08:27:25.247Z</time></trkpt><trkpt lat="45.9795983" lon="13.4363433"><ele>68.0</ele><time>2026-05-03T08:27:26.247Z</time></trkpt><trkpt lat="45.9795" lon="13.4365917"><ele>67.0</ele><time>2026-05-03T08:27:27.247Z</time></trkpt><trkpt lat="45.979395" lon="13.4368267"><ele>66.0</ele><time>2026-05-03T08:27:28.247Z</time></trkpt><trkpt lat="45.9792867" lon="13.4370517"><ele>67.33333333333333</ele><time>2026-05-03T08:27:29.248Z</time></trkpt><trkpt lat="45.97917" lon="13.4372617"><ele>68.66666666666666</ele><time>2026-05-03T08:27:30.247Z</time></trkpt><trkpt lat="45.979065" lon="13.43746"><ele>70.0</ele><time>2026-05-03T08:27:31.247Z</time></trkpt><trkpt lat="45.9789583" lon="13.4376583"><ele>70.0</ele><time>2026-05-03T08:27:32.247Z</time></trkpt><trkpt lat="45.978855" lon="13.4378717"><ele>70.0</ele><time>2026-05-03T08:27:33.247Z</time></trkpt><trkpt lat="45.9787517" lon="13.4381017"><ele>70.0</ele><time>2026-05-03T08:27:34.247Z</time></trkpt><trkpt lat="45.9786717" lon="13.4383233"><ele>69.66666666666666</ele><time>2026-05-03T08:27:35.247Z</time></trkpt><trkpt lat="45.9785933" lon="13.4385383"><ele>69.33333333333333</ele><time>2026-05-03T08:27:36.247Z</time></trkpt><trkpt lat="45.97853" lon="13.43875"><ele>69.0</ele><time>2026-05-03T08:27:37.247Z</time></trkpt><trkpt lat="45.97849" lon="13.43894"><ele>68.8</ele><time>2026-05-03T08:27:38.247Z</time></trkpt><trkpt lat="45.9784767" lon="13.4391083"><ele>68.60000000000001</ele><time>2026-05-03T08:27:39.247Z</time></trkpt><trkpt lat="45.9784583" lon="13.4392367"><ele>68.4</ele><time>2026-05-03T08:27:40.247Z</time></trkpt><trkpt lat="45.9784333" lon="13.4393267"><ele>68.2</ele><time>2026-05-03T08:27:41.247Z</time></trkpt><trkpt lat="45.978325" lon="13.4393633"><ele>68.0</ele><time>2026-05-03T08:27:43.247Z</time></trkpt><trkpt lat="45.9782667" lon="13.4393183"><ele>68.0</ele><time>2026-05-03T08:27:44.247Z</time></trkpt><trkpt lat="45.9782233" lon="13.4392317"><ele>68.0</ele><time>2026-05-03T08:27:45.247Z</time></trkpt><trkpt lat="45.9781867" lon="13.43908"><ele>68.0</ele><time>2026-05-03T08:27:46.248Z</time></trkpt><trkpt lat="45.9781433" lon="13.4389117"><ele>68.0</ele><time>2026-05-03T08:27:47.247Z</time></trkpt><trkpt lat="45.978095" lon="13.43872"><ele>68.33333333333334</ele><time>2026-05-03T08:27:48.247Z</time></trkpt><trkpt lat="45.9780333" lon="13.438515"><ele>68.66666666666667</ele><time>2026-05-03T08:27:49.247Z</time></trkpt><trkpt lat="45.977965" lon="13.43828"><ele>69.0</ele><time>2026-05-03T08:27:50.247Z</time></trkpt><trkpt lat="45.9778983" lon="13.43804"><ele>69.33333333333333</ele><time>2026-05-03T08:27:51.247Z</time></trkpt><trkpt lat="45.9778533" lon="13.4378"><ele>69.66666666666666</ele><time>2026-05-03T08:27:52.247Z</time></trkpt><trkpt lat="45.9778333" lon="13.43756"><ele>70.0</ele><time>2026-05-03T08:27:53.247Z</time></trkpt><trkpt lat="45.9778233" lon="13.4373433"><ele>70.0</ele><time>2026-05-03T08:27:54.247Z</time></trkpt><trkpt lat="45.9778117" lon="13.4371367"><ele>70.0</ele><time>2026-05-03T08:27:55.248Z</time></trkpt><trkpt lat="45.9777967" lon="13.4369233"><ele>70.0</ele><time>2026-05-03T08:27:56.247Z</time></trkpt><trkpt lat="45.9777833" lon="13.4366983"><ele>69.33333333333333</ele><time>2026-05-03T08:27:57.247Z</time></trkpt><trkpt lat="45.97776" lon="13.43649"><ele>68.66666666666667</ele><time>2026-05-03T08:27:58.247Z</time></trkpt><trkpt lat="45.9777217" lon="13.43628"><ele>68.0</ele><time>2026-05-03T08:27:59.247Z</time></trkpt><trkpt lat="45.977675" lon="13.4360717"><ele>67.66666666666667</ele><time>2026-05-03T08:28:00.247Z</time></trkpt><trkpt lat="45.9776233" lon="13.4358667"><ele>67.33333333333333</ele><time>2026-05-03T08:28:01.247Z</time></trkpt><trkpt lat="45.9775683" lon="13.43566"><ele>67.0</ele><time>2026-05-03T08:28:02.247Z</time></trkpt><trkpt lat="45.9775117" lon="13.4354367"><ele>66.33333333333333</ele><time>2026-05-03T08:28:03.247Z</time></trkpt><trkpt lat="45.9774633" lon="13.4352067"><ele>65.66666666666667</ele><time>2026-05-03T08:28:04.247Z</time></trkpt><trkpt lat="45.9774067" lon="13.4349833"><ele>65.0</ele><time>2026-05-03T08:28:05.247Z</time></trkpt><trkpt lat="45.9773483" lon="13.4347583"><ele>64.66666666666667</ele><time>2026-05-03T08:28:06.247Z</time></trkpt><trkpt lat="45.97729" lon="13.4345367"><ele>64.33333333333333</ele><time>2026-05-03T08:28:07.247Z</time></trkpt><trkpt lat="45.97723" lon="13.434315"><ele>64.0</ele><time>2026-05-03T08:28:08.247Z</time></trkpt><trkpt lat="45.9771617" lon="13.4341083"><ele>64.0</ele><time>2026-05-03T08:28:09.247Z</time></trkpt><trkpt lat="45.9770933" lon="13.4339167"><ele>64.0</ele><time>2026-05-03T08:28:10.247Z</time></trkpt><trkpt lat="45.9770283" lon="13.4337483"><ele>64.0</ele><time>2026-05-03T08:28:11.247Z</time></trkpt><trkpt lat="45.976965" lon="13.4336"><ele>64.0</ele><time>2026-05-03T08:28:12.247Z</time></trkpt><trkpt lat="45.976905" lon="13.43349"><ele>64.16666666666666</ele><time>2026-05-03T08:28:13.247Z</time></trkpt><trkpt lat="45.9768433" lon="13.4334183"><ele>64.33333333333333</ele><time>2026-05-03T08:28:14.247Z</time></trkpt><trkpt lat="45.9767817" lon="13.433395"><ele>64.5</ele><time>2026-05-03T08:28:15.247Z</time></trkpt><trkpt lat="45.976715" lon="13.4334033"><ele>64.66666666666667</ele><time>2026-05-03T08:28:16.247Z</time></trkpt><trkpt lat="45.97664" lon="13.433445"><ele>64.83333333333334</ele><time>2026-05-03T08:28:17.247Z</time></trkpt><trkpt lat="45.9765417" lon="13.4335083"><ele>65.0</ele><time>2026-05-03T08:28:18.247Z</time></trkpt><trkpt lat="45.976435" lon="13.4335867"><ele>64.5</ele><time>2026-05-03T08:28:19.247Z</time></trkpt><trkpt lat="45.9763233" lon="13.4336567"><ele>64.0</ele><time>2026-05-03T08:28:20.247Z</time></trkpt><trkpt lat="45.9762033" lon="13.4337217"><ele>63.5</ele><time>2026-05-03T08:28:21.247Z</time></trkpt><trkpt lat="45.97608" lon="13.4338017"><ele>63.0</ele><time>2026-05-03T08:28:22.247Z</time></trkpt><trkpt lat="45.97596" lon="13.43388"><ele>63.0</ele><time>2026-05-03T08:28:23.248Z</time></trkpt><trkpt lat="45.9758267" lon="13.43395"><ele>63.0</ele><time>2026-05-03T08:28:24.247Z</time></trkpt><trkpt lat="45.9757017" lon="13.4340283"><ele>63.0</ele><time>2026-05-03T08:28:25.247Z</time></trkpt><trkpt lat="45.9755683" lon="13.4340933"><ele>63.0</ele><time>2026-05-03T08:28:26.247Z</time></trkpt><trkpt lat="45.9754367" lon="13.4341567"><ele>63.0</ele><time>2026-05-03T08:28:27.247Z</time></trkpt><trkpt lat="45.9753083" lon="13.4342283"><ele>63.0</ele><time>2026-05-03T08:28:28.247Z</time></trkpt><trkpt lat="45.9751717" lon="13.43431"><ele>63.0</ele><time>2026-05-03T08:28:29.247Z</time></trkpt><trkpt lat="45.9750367" lon="13.4343867"><ele>63.0</ele><time>2026-05-03T08:28:30.247Z</time></trkpt><trkpt lat="45.9748967" lon="13.4344633"><ele>63.25</ele><time>2026-05-03T08:28:31.247Z</time></trkpt><trkpt lat="45.9747583" lon="13.4345317"><ele>63.5</ele><time>2026-05-03T08:28:32.247Z</time></trkpt><trkpt lat="45.97462" lon="13.434615"><ele>63.75</ele><time>2026-05-03T08:28:33.247Z</time></trkpt><trkpt lat="45.9744883" lon="13.4347017"><ele>64.0</ele><time>2026-05-03T08:28:34.247Z</time></trkpt><trkpt lat="45.9743467" lon="13.43478"><ele>62.75</ele><time>2026-05-03T08:28:35.248Z</time></trkpt><trkpt lat="45.9742033" lon="13.4348433"><ele>61.5</ele><time>2026-05-03T08:28:36.247Z</time></trkpt><trkpt lat="45.9740567" lon="13.4348867"><ele>60.25</ele><time>2026-05-03T08:28:37.248Z</time></trkpt><trkpt lat="45.9739117" lon="13.43493"><ele>59.0</ele><time>2026-05-03T08:28:38.247Z</time></trkpt><trkpt lat="45.9737733" lon="13.434975"><ele>59.0</ele><time>2026-05-03T08:28:39.247Z</time></trkpt><trkpt lat="45.9736383" lon="13.43503"><ele>59.0</ele><time>2026-05-03T08:28:40.247Z</time></trkpt><trkpt lat="45.97352" lon="13.4350933"><ele>59.0</ele><time>2026-05-03T08:28:41.247Z</time></trkpt><trkpt lat="45.9734083" lon="13.4351617"><ele>59.0</ele><time>2026-05-03T08:28:42.247Z</time></trkpt><trkpt lat="45.97331" lon="13.4352317"><ele>59.0</ele><time>2026-05-03T08:28:43.247Z</time></trkpt><trkpt lat="45.9732183" lon="13.4353033"><ele>59.00000000000001</ele><time>2026-05-03T08:28:44.247Z</time></trkpt><trkpt lat="45.973145" lon="13.4353717"><ele>59.00000000000001</ele><time>2026-05-03T08:28:45.247Z</time></trkpt><trkpt lat="45.97308" lon="13.43543"><ele>59.0</ele><time>2026-05-03T08:28:46.247Z</time></trkpt><trkpt lat="45.9729967" lon="13.4355167"><ele>59.0</ele><time>2026-05-03T08:28:48.247Z</time></trkpt><trkpt lat="45.9729683" lon="13.4356233"><ele>59.00000000000001</ele><time>2026-05-03T08:28:50.247Z</time></trkpt><trkpt lat="45.97296" lon="13.4357367"><ele>59.0</ele><time>2026-05-03T08:28:52.247Z</time></trkpt><trkpt lat="45.97287" lon="13.4357667"><ele>59.0</ele><time>2026-05-03T08:28:55.247Z</time></trkpt><trkpt lat="45.972805" lon="13.4357567"><ele>59.0</ele><time>2026-05-03T08:28:56.247Z</time></trkpt><trkpt lat="45.97272" lon="13.4357467"><ele>59.00000000000001</ele><time>2026-05-03T08:28:57.247Z</time></trkpt><trkpt lat="45.9726167" lon="13.4357417"><ele>59.0</ele><time>2026-05-03T08:28:58.246Z</time></trkpt><trkpt lat="45.97251" lon="13.4357383"><ele>58.75</ele><time>2026-05-03T08:28:59.246Z</time></trkpt><trkpt lat="45.9723983" lon="13.435725"><ele>58.5</ele><time>2026-05-03T08:29:00.246Z</time></trkpt><trkpt lat="45.97228" lon="13.4357067"><ele>58.25</ele><time>2026-05-03T08:29:01.246Z</time></trkpt><trkpt lat="45.9721533" lon="13.43568"><ele>58.0</ele><time>2026-05-03T08:29:02.246Z</time></trkpt><trkpt lat="45.972025" lon="13.4356733"><ele>58.0</ele><time>2026-05-03T08:29:03.246Z</time></trkpt><trkpt lat="45.9719017" lon="13.4356817"><ele>58.0</ele><time>2026-05-03T08:29:04.246Z</time></trkpt><trkpt lat="45.9717833" lon="13.4357217"><ele>58.0</ele><time>2026-05-03T08:29:05.246Z</time></trkpt><trkpt lat="45.9716633" lon="13.4357733"><ele>58.0</ele><time>2026-05-03T08:29:06.246Z</time></trkpt><trkpt lat="45.9715433" lon="13.4358333"><ele>57.8</ele><time>2026-05-03T08:29:07.246Z</time></trkpt><trkpt lat="45.9714233" lon="13.4358917"><ele>57.599999999999994</ele><time>2026-05-03T08:29:08.246Z</time></trkpt><trkpt lat="45.9713133" lon="13.4359367"><ele>57.400000000000006</ele><time>2026-05-03T08:29:09.246Z</time></trkpt><trkpt lat="45.971225" lon="13.435975"><ele>57.2</ele><time>2026-05-03T08:29:10.246Z</time></trkpt><trkpt lat="45.9711567" lon="13.4360083"><ele>57.0</ele><time>2026-05-03T08:29:11.246Z</time></trkpt><trkpt lat="45.97106" lon="13.4360867"><ele>57.0</ele><time>2026-05-03T08:29:13.246Z</time></trkpt><trkpt lat="45.9710017" lon="13.4362167"><ele>57.0</ele><time>2026-05-03T08:29:15.246Z</time></trkpt><trkpt lat="45.9709883" lon="13.4363117"><ele>57.0</ele><time>2026-05-03T08:29:16.246Z</time></trkpt><trkpt lat="45.97097" lon="13.436425"><ele>57.0</ele><time>2026-05-03T08:29:17.246Z</time></trkpt><trkpt lat="45.9709367" lon="13.4365283"><ele>57.0</ele><time>2026-05-03T08:29:18.246Z</time></trkpt><trkpt lat="45.9708956" lon="13.4366227"><ele>57.0</ele><time>2026-05-03T08:29:19.246Z</time></trkpt><trkpt lat="45.9708363" lon="13.4367054"><ele>56.0</ele><time>2026-05-03T08:29:20.246Z</time></trkpt><trkpt lat="45.9707631" lon="13.4367912"><ele>55.0</ele><time>2026-05-03T08:29:21.246Z</time></trkpt><trkpt lat="45.9706776" lon="13.4368891"><ele>54.0</ele><time>2026-05-03T08:29:22.246Z</time></trkpt><trkpt lat="45.9705809" lon="13.4370005"><ele>53.0</ele><time>2026-05-03T08:29:23.246Z</time></trkpt><trkpt lat="45.9704829" lon="13.4371094"><ele>53.0</ele><time>2026-05-03T08:29:24.246Z</time></trkpt><trkpt lat="45.9703979" lon="13.4372119"><ele>53.0</ele><time>2026-05-03T08:29:25.246Z</time></trkpt><trkpt lat="45.9703322" lon="13.4373141"><ele>53.0</ele><time>2026-05-03T08:29:26.246Z</time></trkpt><trkpt lat="45.9702862" lon="13.437432"><ele>53.0</ele><time>2026-05-03T08:29:27.246Z</time></trkpt><trkpt lat="45.9702468" lon="13.4375767"><ele>53.0</ele><time>2026-05-03T08:29:28.246Z</time></trkpt><trkpt lat="45.9702014" lon="13.4377251"><ele>53.0</ele><time>2026-05-03T08:29:29.246Z</time></trkpt><trkpt lat="45.9701472" lon="13.4378617"><ele>53.0</ele><time>2026-05-03T08:29:30.246Z</time></trkpt><trkpt lat="45.9700822" lon="13.4379824"><ele>53.0</ele><time>2026-05-03T08:29:31.246Z</time></trkpt><trkpt lat="45.9700042" lon="13.43809"><ele>53.0</ele><time>2026-05-03T08:29:32.246Z</time></trkpt><trkpt lat="45.9699078" lon="13.4381917"><ele>53.0</ele><time>2026-05-03T08:29:33.246Z</time></trkpt><trkpt lat="45.9698031" lon="13.4382705"><ele>52.75</ele><time>2026-05-03T08:29:34.246Z</time></trkpt><trkpt lat="45.9696929" lon="13.4383502"><ele>52.5</ele><time>2026-05-03T08:29:35.246Z</time></trkpt><trkpt lat="45.9695931" lon="13.4384279"><ele>52.25</ele><time>2026-05-03T08:29:36.246Z</time></trkpt><trkpt lat="45.9694938" lon="13.4384979"><ele>52.0</ele><time>2026-05-03T08:29:37.246Z</time></trkpt><trkpt lat="45.969388" lon="13.4385675"><ele>52.0</ele><time>2026-05-03T08:29:38.246Z</time></trkpt><trkpt lat="45.9692842" lon="13.4386395"><ele>52.0</ele><time>2026-05-03T08:29:39.246Z</time></trkpt><trkpt lat="45.9691905" lon="13.438709"><ele>52.0</ele><time>2026-05-03T08:29:40.246Z</time></trkpt><trkpt lat="45.9690981" lon="13.4387712"><ele>52.0</ele><time>2026-05-03T08:29:41.246Z</time></trkpt><trkpt lat="45.9690018" lon="13.4388349"><ele>52.0</ele><time>2026-05-03T08:29:42.246Z</time></trkpt><trkpt lat="45.9688959" lon="13.4389071"><ele>51.75</ele><time>2026-05-03T08:29:43.246Z</time></trkpt><trkpt lat="45.9687891" lon="13.4389756"><ele>51.5</ele><time>2026-05-03T08:29:44.246Z</time></trkpt><trkpt lat="45.9686735" lon="13.4390278"><ele>51.25</ele><time>2026-05-03T08:29:45.246Z</time></trkpt><trkpt lat="45.9685526" lon="13.4390668"><ele>51.0</ele><time>2026-05-03T08:29:46.246Z</time></trkpt><trkpt lat="45.968428" lon="13.4390957"><ele>50.75</ele><time>2026-05-03T08:29:47.246Z</time></trkpt><trkpt lat="45.9683077" lon="13.4391266"><ele>50.5</ele><time>2026-05-03T08:29:48.246Z</time></trkpt><trkpt lat="45.9681852" lon="13.439159"><ele>50.25</ele><time>2026-05-03T08:29:49.246Z</time></trkpt><trkpt lat="45.968067" lon="13.4391897"><ele>50.0</ele><time>2026-05-03T08:29:50.246Z</time></trkpt><trkpt lat="45.967955" lon="13.4392217"><ele>50.0</ele><time>2026-05-03T08:29:51.246Z</time></trkpt><trkpt lat="45.96785" lon="13.439245"><ele>50.0</ele><time>2026-05-03T08:29:52.246Z</time></trkpt><trkpt lat="45.9677483" lon="13.439265"><ele>50.0</ele><time>2026-05-03T08:29:53.246Z</time></trkpt><trkpt lat="45.96765" lon="13.4392983"><ele>50.0</ele><time>2026-05-03T08:29:54.246Z</time></trkpt><trkpt lat="45.967545" lon="13.4393283"><ele>50.0</ele><time>2026-05-03T08:29:55.246Z</time></trkpt><trkpt lat="45.9674383" lon="13.4393367"><ele>50.0</ele><time>2026-05-03T08:29:56.246Z</time></trkpt><trkpt lat="45.9673183" lon="13.439315"><ele>50.0</ele><time>2026-05-03T08:29:57.246Z</time></trkpt><trkpt lat="45.9671917" lon="13.439275"><ele>50.0</ele><time>2026-05-03T08:29:58.246Z</time></trkpt><trkpt lat="45.96705" lon="13.4392517"><ele>50.0</ele><time>2026-05-03T08:29:59.246Z</time></trkpt><trkpt lat="45.9669117" lon="13.43924"><ele>50.0</ele><time>2026-05-03T08:30:00.246Z</time></trkpt><trkpt lat="45.9667733" lon="13.439245"><ele>50.0</ele><time>2026-05-03T08:30:01.246Z</time></trkpt><trkpt lat="45.9666433" lon="13.439265"><ele>50.0</ele><time>2026-05-03T08:30:02.246Z</time></trkpt><trkpt lat="45.9665217" lon="13.4392867"><ele>50.0</ele><time>2026-05-03T08:30:03.246Z</time></trkpt><trkpt lat="45.966395" lon="13.4393"><ele>49.25</ele><time>2026-05-03T08:30:04.246Z</time></trkpt><trkpt lat="45.9662783" lon="13.4393183"><ele>48.5</ele><time>2026-05-03T08:30:05.246Z</time></trkpt><trkpt lat="45.9661617" lon="13.4393433"><ele>47.75</ele><time>2026-05-03T08:30:06.246Z</time></trkpt><trkpt lat="45.966035" lon="13.4393683"><ele>47.0</ele><time>2026-05-03T08:30:07.246Z</time></trkpt><trkpt lat="45.9659033" lon="13.4393917"><ele>46.8</ele><time>2026-05-03T08:30:08.246Z</time></trkpt><trkpt lat="45.96578" lon="13.4394167"><ele>46.6</ele><time>2026-05-03T08:30:09.246Z</time></trkpt><trkpt lat="45.9656733" lon="13.439445"><ele>46.4</ele><time>2026-05-03T08:30:10.246Z</time></trkpt><trkpt lat="45.9655767" lon="13.4394683"><ele>46.199999999999996</ele><time>2026-05-03T08:30:11.246Z</time></trkpt><trkpt lat="45.9654917" lon="13.4394867"><ele>46.0</ele><time>2026-05-03T08:30:12.246Z</time></trkpt><trkpt lat="45.9654183" lon="13.4395"><ele>46.0</ele><time>2026-05-03T08:30:13.246Z</time></trkpt><trkpt lat="45.9653283" lon="13.4395783"><ele>46.0</ele><time>2026-05-03T08:30:15.246Z</time></trkpt><trkpt lat="45.9653217" lon="13.4397167"><ele>46.0</ele><time>2026-05-03T08:30:17.246Z</time></trkpt><trkpt lat="45.96534" lon="13.4398317"><ele>46.0</ele><time>2026-05-03T08:30:18.246Z</time></trkpt><trkpt lat="45.9653517" lon="13.4399633"><ele>46.0</ele><time>2026-05-03T08:30:19.246Z</time></trkpt><trkpt lat="45.965365" lon="13.44012"><ele>46.75</ele><time>2026-05-03T08:30:20.247Z</time></trkpt><trkpt lat="45.9653817" lon="13.4403"><ele>47.5</ele><time>2026-05-03T08:30:21.246Z</time></trkpt><trkpt lat="45.9653917" lon="13.4405033"><ele>48.25</ele><time>2026-05-03T08:30:22.246Z</time></trkpt><trkpt lat="45.9654083" lon="13.440715"><ele>49.0</ele><time>2026-05-03T08:30:23.246Z</time></trkpt><trkpt lat="45.96543" lon="13.4409417"><ele>49.33333333333333</ele><time>2026-05-03T08:30:24.246Z</time></trkpt><trkpt lat="45.965455" lon="13.4411817"><ele>49.66666666666667</ele><time>2026-05-03T08:30:25.246Z</time></trkpt><trkpt lat="45.96549" lon="13.4414267"><ele>50.0</ele><time>2026-05-03T08:30:26.246Z</time></trkpt><trkpt lat="45.9655233" lon="13.4416883"><ele>50.0</ele><time>2026-05-03T08:30:27.246Z</time></trkpt><trkpt lat="45.965555" lon="13.441965"><ele>50.0</ele><time>2026-05-03T08:30:28.246Z</time></trkpt><trkpt lat="45.965585" lon="13.442245"><ele>50.0</ele><time>2026-05-03T08:30:29.246Z</time></trkpt><trkpt lat="45.965615" lon="13.4425333"><ele>49.66666666666667</ele><time>2026-05-03T08:30:30.246Z</time></trkpt><trkpt lat="45.9656567" lon="13.44282"><ele>49.33333333333333</ele><time>2026-05-03T08:30:31.247Z</time></trkpt><trkpt lat="45.965685" lon="13.4431017"><ele>49.0</ele><time>2026-05-03T08:30:32.246Z</time></trkpt><trkpt lat="45.9657117" lon="13.44337"><ele>49.0</ele><time>2026-05-03T08:30:33.246Z</time></trkpt><trkpt lat="45.9657367" lon="13.4436333"><ele>49.0</ele><time>2026-05-03T08:30:34.246Z</time></trkpt><trkpt lat="45.96576" lon="13.4439017"><ele>49.0</ele><time>2026-05-03T08:30:35.246Z</time></trkpt><trkpt lat="45.9657933" lon="13.4441567"><ele>49.33333333333333</ele><time>2026-05-03T08:30:36.246Z</time></trkpt><trkpt lat="45.9658183" lon="13.444405"><ele>49.66666666666667</ele><time>2026-05-03T08:30:37.246Z</time></trkpt><trkpt lat="45.965835" lon="13.4446533"><ele>50.0</ele><time>2026-05-03T08:30:38.246Z</time></trkpt><trkpt lat="45.96586" lon="13.4449033"><ele>50.66666666666667</ele><time>2026-05-03T08:30:39.246Z</time></trkpt><trkpt lat="45.9658867" lon="13.4451533"><ele>51.33333333333333</ele><time>2026-05-03T08:30:40.246Z</time></trkpt><trkpt lat="45.96591" lon="13.4454"><ele>52.0</ele><time>2026-05-03T08:30:41.246Z</time></trkpt><trkpt lat="45.965945" lon="13.445635"><ele>53.33333333333333</ele><time>2026-05-03T08:30:42.246Z</time></trkpt><trkpt lat="45.9659683" lon="13.44586"><ele>54.66666666666667</ele><time>2026-05-03T08:30:43.246Z</time></trkpt><trkpt lat="45.9659917" lon="13.44607"><ele>56.0</ele><time>2026-05-03T08:30:44.246Z</time></trkpt><trkpt lat="45.9660167" lon="13.44628"><ele>57.0</ele><time>2026-05-03T08:30:45.246Z</time></trkpt><trkpt lat="45.9660433" lon="13.4464817"><ele>58.0</ele><time>2026-05-03T08:30:46.246Z</time></trkpt><trkpt lat="45.9660567" lon="13.4467"><ele>59.0</ele><time>2026-05-03T08:30:47.246Z</time></trkpt><trkpt lat="45.9660567" lon="13.4469267"><ele>59.25</ele><time>2026-05-03T08:30:48.246Z</time></trkpt><trkpt lat="45.966045" lon="13.4471433"><ele>59.5</ele><time>2026-05-03T08:30:49.246Z</time></trkpt><trkpt lat="45.96602" lon="13.4473367"><ele>59.75</ele><time>2026-05-03T08:30:50.246Z</time></trkpt><trkpt lat="45.9659917" lon="13.4475083"><ele>60.0</ele><time>2026-05-03T08:30:51.246Z</time></trkpt><trkpt lat="45.9659617" lon="13.4476467"><ele>60.0</ele><time>2026-05-03T08:30:52.246Z</time></trkpt><trkpt lat="45.9659283" lon="13.4477517"><ele>60.0</ele><time>2026-05-03T08:30:53.246Z</time></trkpt><trkpt lat="45.9658233" lon="13.4478"><ele>60.0</ele><time>2026-05-03T08:30:55.246Z</time></trkpt><trkpt lat="45.9657567" lon="13.4477383"><ele>60.0</ele><time>2026-05-03T08:30:56.246Z</time></trkpt><trkpt lat="45.9656717" lon="13.4476767"><ele>60.0</ele><time>2026-05-03T08:30:57.246Z</time></trkpt><trkpt lat="45.9655683" lon="13.4476"><ele>58.75</ele><time>2026-05-03T08:30:58.246Z</time></trkpt><trkpt lat="45.9654483" lon="13.4475017"><ele>57.5</ele><time>2026-05-03T08:30:59.246Z</time></trkpt><trkpt lat="45.9653167" lon="13.4474033"><ele>56.25</ele><time>2026-05-03T08:31:00.246Z</time></trkpt><trkpt lat="45.9651733" lon="13.447315"><ele>55.0</ele><time>2026-05-03T08:31:01.246Z</time></trkpt><trkpt lat="45.9650167" lon="13.4472283"><ele>54.666666666666664</ele><time>2026-05-03T08:31:02.246Z</time></trkpt><trkpt lat="45.9648533" lon="13.4471667"><ele>54.33333333333333</ele><time>2026-05-03T08:31:03.246Z</time></trkpt><trkpt lat="45.9646983" lon="13.4471283"><ele>54.0</ele><time>2026-05-03T08:31:04.246Z</time></trkpt><trkpt lat="45.9645567" lon="13.447095"><ele>53.6</ele><time>2026-05-03T08:31:05.247Z</time></trkpt><trkpt lat="45.9644333" lon="13.44706"><ele>53.2</ele><time>2026-05-03T08:31:06.246Z</time></trkpt><trkpt lat="45.9643233" lon="13.44702"><ele>52.800000000000004</ele><time>2026-05-03T08:31:07.247Z</time></trkpt><trkpt lat="45.9642283" lon="13.4469733"><ele>52.400000000000006</ele><time>2026-05-03T08:31:08.246Z</time></trkpt><trkpt lat="45.9641383" lon="13.446905"><ele>52.0</ele><time>2026-05-03T08:31:09.246Z</time></trkpt><trkpt lat="45.9640483" lon="13.4468233"><ele>51.99999999999999</ele><time>2026-05-03T08:31:10.246Z</time></trkpt><trkpt lat="45.9639783" lon="13.44675"><ele>52.0</ele><time>2026-05-03T08:31:11.246Z</time></trkpt><trkpt lat="45.9639117" lon="13.4466883"><ele>52.0</ele><time>2026-05-03T08:31:12.246Z</time></trkpt><trkpt lat="45.9638333" lon="13.4466367"><ele>52.0</ele><time>2026-05-03T08:31:13.246Z</time></trkpt><trkpt lat="45.9637567" lon="13.4465867"><ele>51.99999999999999</ele><time>2026-05-03T08:31:14.246Z</time></trkpt><trkpt lat="45.9636817" lon="13.4465333"><ele>52.0</ele><time>2026-05-03T08:31:15.246Z</time></trkpt><trkpt lat="45.9636083" lon="13.4464717"><ele>51.99999999999999</ele><time>2026-05-03T08:31:16.246Z</time></trkpt><trkpt lat="45.9635467" lon="13.4464133"><ele>52.0</ele><time>2026-05-03T08:31:17.246Z</time></trkpt><trkpt lat="45.96349" lon="13.4463317"><ele>52.0</ele><time>2026-05-03T08:31:18.246Z</time></trkpt><trkpt lat="45.96344" lon="13.4462317"><ele>52.0</ele><time>2026-05-03T08:31:19.246Z</time></trkpt><trkpt lat="45.9633817" lon="13.4461133"><ele>51.99999999999999</ele><time>2026-05-03T08:31:20.247Z</time></trkpt><trkpt lat="45.9633167" lon="13.4459967"><ele>52.0</ele><time>2026-05-03T08:31:21.246Z</time></trkpt><trkpt lat="45.96326" lon="13.4458783"><ele>52.0</ele><time>2026-05-03T08:31:22.246Z</time></trkpt><trkpt lat="45.963185" lon="13.4457767"><ele>52.0</ele><time>2026-05-03T08:31:23.246Z</time></trkpt><trkpt lat="45.9631083" lon="13.4456867"><ele>52.0</ele><time>2026-05-03T08:31:24.246Z</time></trkpt><trkpt lat="45.9630367" lon="13.4456283"><ele>52.0</ele><time>2026-05-03T08:31:25.246Z</time></trkpt><trkpt lat="45.9629533" lon="13.4455717"><ele>52.0</ele><time>2026-05-03T08:31:26.246Z</time></trkpt><trkpt lat="45.9628717" lon="13.445515"><ele>51.666666666666664</ele><time>2026-05-03T08:31:27.246Z</time></trkpt><trkpt lat="45.9627933" lon="13.44546"><ele>51.33333333333333</ele><time>2026-05-03T08:31:28.246Z</time></trkpt><trkpt lat="45.9627267" lon="13.4454117"><ele>51.0</ele><time>2026-05-03T08:31:29.246Z</time></trkpt><trkpt lat="45.9626533" lon="13.44535"><ele>50.66666666666667</ele><time>2026-05-03T08:31:30.246Z</time></trkpt><trkpt lat="45.962595" lon="13.4452517"><ele>50.333333333333336</ele><time>2026-05-03T08:31:31.247Z</time></trkpt><trkpt lat="45.9625533" lon="13.4451317"><ele>50.0</ele><time>2026-05-03T08:31:32.246Z</time></trkpt><trkpt lat="45.9625133" lon="13.4449833"><ele>50.0</ele><time>2026-05-03T08:31:33.246Z</time></trkpt><trkpt lat="45.9624705" lon="13.4448263"><ele>50.0</ele><time>2026-05-03T08:31:34.246Z</time></trkpt><trkpt lat="45.9624321" lon="13.4446776"><ele>50.0</ele><time>2026-05-03T08:31:35.246Z</time></trkpt><trkpt lat="45.9623882" lon="13.4445489"><ele>50.0</ele><time>2026-05-03T08:31:36.246Z</time></trkpt><trkpt lat="45.9623412" lon="13.4444577"><ele>50.0</ele><time>2026-05-03T08:31:37.246Z</time></trkpt><trkpt lat="45.9622898" lon="13.4443988"><ele>49.833333333333336</ele><time>2026-05-03T08:31:38.246Z</time></trkpt><trkpt lat="45.96217" lon="13.444376"><ele>49.66666666666667</ele><time>2026-05-03T08:31:40.246Z</time></trkpt><trkpt lat="45.9621057" lon="13.4443851"><ele>49.5</ele><time>2026-05-03T08:31:41.246Z</time></trkpt><trkpt lat="45.9620096" lon="13.4443298"><ele>49.33333333333333</ele><time>2026-05-03T08:31:43.246Z</time></trkpt><trkpt lat="45.9619723" lon="13.4442566"><ele>49.166666666666664</ele><time>2026-05-03T08:31:44.246Z</time></trkpt><trkpt lat="45.9619293" lon="13.444169"><ele>49.0</ele><time>2026-05-03T08:31:45.246Z</time></trkpt><trkpt lat="45.9618712" lon="13.4440938"><ele>48.99999999999999</ele><time>2026-05-03T08:31:46.246Z</time></trkpt><trkpt lat="45.9617985" lon="13.444055"><ele>49.0</ele><time>2026-05-03T08:31:47.246Z</time></trkpt><trkpt lat="45.9617123" lon="13.4440493"><ele>49.0</ele><time>2026-05-03T08:31:48.246Z</time></trkpt><trkpt lat="45.9616212" lon="13.4440746"><ele>49.0</ele><time>2026-05-03T08:31:49.246Z</time></trkpt><trkpt lat="45.961539" lon="13.4440983"><ele>48.99999999999999</ele><time>2026-05-03T08:31:50.246Z</time></trkpt><trkpt lat="45.9614648" lon="13.444103"><ele>49.0</ele><time>2026-05-03T08:31:51.246Z</time></trkpt><trkpt lat="45.9613953" lon="13.4440785"><ele>49.666666666666664</ele><time>2026-05-03T08:31:52.246Z</time></trkpt><trkpt lat="45.9613214" lon="13.4440447"><ele>50.33333333333333</ele><time>2026-05-03T08:31:53.246Z</time></trkpt><trkpt lat="45.96125" lon="13.4440158"><ele>51.0</ele><time>2026-05-03T08:31:54.246Z</time></trkpt><trkpt lat="45.9611844" lon="13.4439974"><ele>51.66666666666667</ele><time>2026-05-03T08:31:55.246Z</time></trkpt><trkpt lat="45.9610629" lon="13.4439776"><ele>52.333333333333336</ele><time>2026-05-03T08:31:57.247Z</time></trkpt><trkpt lat="45.9609977" lon="13.4439716"><ele>53.0</ele><time>2026-05-03T08:31:58.246Z</time></trkpt><trkpt lat="45.9609261" lon="13.4439649"><ele>53.00000000000001</ele><time>2026-05-03T08:31:59.246Z</time></trkpt><trkpt lat="45.9608465" lon="13.443958"><ele>53.0</ele><time>2026-05-03T08:32:00.246Z</time></trkpt><trkpt lat="45.9607627" lon="13.4439504"><ele>53.0</ele><time>2026-05-03T08:32:01.246Z</time></trkpt><trkpt lat="45.9606731" lon="13.4439393"><ele>53.0</ele><time>2026-05-03T08:32:02.246Z</time></trkpt><trkpt lat="45.9605912" lon="13.4439245"><ele>53.00000000000001</ele><time>2026-05-03T08:32:03.246Z</time></trkpt><trkpt lat="45.9605162" lon="13.4439208"><ele>53.0</ele><time>2026-05-03T08:32:04.246Z</time></trkpt><trkpt lat="45.9604399" lon="13.4439218"><ele>53.00000000000001</ele><time>2026-05-03T08:32:05.246Z</time></trkpt><trkpt lat="45.9603606" lon="13.4439244"><ele>53.0</ele><time>2026-05-03T08:32:06.246Z</time></trkpt><trkpt lat="45.9602817" lon="13.4439067"><ele>53.0</ele><time>2026-05-03T08:32:07.246Z</time></trkpt><trkpt lat="45.9601983" lon="13.4438767"><ele>53.0</ele><time>2026-05-03T08:32:08.246Z</time></trkpt><trkpt lat="45.9601067" lon="13.4438467"><ele>53.00000000000001</ele><time>2026-05-03T08:32:09.246Z</time></trkpt><trkpt lat="45.9600033" lon="13.4438217"><ele>53.0</ele><time>2026-05-03T08:32:10.246Z</time></trkpt><trkpt lat="45.9599" lon="13.443795"><ele>52.5</ele><time>2026-05-03T08:32:11.246Z</time></trkpt><trkpt lat="45.9597917" lon="13.4437633"><ele>52.0</ele><time>2026-05-03T08:32:12.246Z</time></trkpt><trkpt lat="45.959685" lon="13.44373"><ele>51.5</ele><time>2026-05-03T08:32:13.246Z</time></trkpt><trkpt lat="45.9595733" lon="13.4436967"><ele>51.0</ele><time>2026-05-03T08:32:14.246Z</time></trkpt><trkpt lat="45.9594533" lon="13.443665"><ele>51.0</ele><time>2026-05-03T08:32:15.246Z</time></trkpt><trkpt lat="45.959335" lon="13.4436317"><ele>51.0</ele><time>2026-05-03T08:32:16.246Z</time></trkpt><trkpt lat="45.9592117" lon="13.4435933"><ele>51.0</ele><time>2026-05-03T08:32:17.246Z</time></trkpt><trkpt lat="45.9590983" lon="13.44355"><ele>51.0</ele><time>2026-05-03T08:32:18.246Z</time></trkpt><trkpt lat="45.958985" lon="13.4435083"><ele>50.5</ele><time>2026-05-03T08:32:19.246Z</time></trkpt><trkpt lat="45.95887" lon="13.4434683"><ele>50.0</ele><time>2026-05-03T08:32:20.246Z</time></trkpt><trkpt lat="45.9587583" lon="13.44344"><ele>49.5</ele><time>2026-05-03T08:32:21.246Z</time></trkpt><trkpt lat="45.95864" lon="13.4434133"><ele>49.0</ele><time>2026-05-03T08:32:22.246Z</time></trkpt><trkpt lat="45.9585283" lon="13.4433917"><ele>49.0</ele><time>2026-05-03T08:32:23.246Z</time></trkpt><trkpt lat="45.9584083" lon="13.443385"><ele>49.0</ele><time>2026-05-03T08:32:24.246Z</time></trkpt><trkpt lat="45.95829" lon="13.4433883"><ele>49.0</ele><time>2026-05-03T08:32:25.246Z</time></trkpt><trkpt lat="45.9581667" lon="13.4433833"><ele>49.0</ele><time>2026-05-03T08:32:26.246Z</time></trkpt><trkpt lat="45.9580367" lon="13.4433767"><ele>49.25</ele><time>2026-05-03T08:32:27.246Z</time></trkpt><trkpt lat="45.95791" lon="13.4433633"><ele>49.5</ele><time>2026-05-03T08:32:28.246Z</time></trkpt><trkpt lat="45.9577933" lon="13.4433517"><ele>49.75</ele><time>2026-05-03T08:32:29.246Z</time></trkpt><trkpt lat="45.957675" lon="13.4433333"><ele>50.0</ele><time>2026-05-03T08:32:30.246Z</time></trkpt><trkpt lat="45.957555" lon="13.443325"><ele>50.0</ele><time>2026-05-03T08:32:31.246Z</time></trkpt><trkpt lat="45.9574433" lon="13.4433167"><ele>50.0</ele><time>2026-05-03T08:32:32.246Z</time></trkpt><trkpt lat="45.9573333" lon="13.4433033"><ele>50.0</ele><time>2026-05-03T08:32:33.247Z</time></trkpt><trkpt lat="45.95723" lon="13.4432933"><ele>50.0</ele><time>2026-05-03T08:32:34.246Z</time></trkpt><trkpt lat="45.957125" lon="13.4432833"><ele>50.0</ele><time>2026-05-03T08:32:35.246Z</time></trkpt><trkpt lat="45.9570167" lon="13.4432733"><ele>50.0</ele><time>2026-05-03T08:32:36.246Z</time></trkpt><trkpt lat="45.956895" lon="13.44325"><ele>50.0</ele><time>2026-05-03T08:32:37.246Z</time></trkpt><trkpt lat="45.9567733" lon="13.4432433"><ele>50.0</ele><time>2026-05-03T08:32:38.246Z</time></trkpt><trkpt lat="45.956645" lon="13.4432333"><ele>50.0</ele><time>2026-05-03T08:32:39.246Z</time></trkpt><trkpt lat="45.9565217" lon="13.4432283"><ele>50.25</ele><time>2026-05-03T08:32:40.246Z</time></trkpt><trkpt lat="45.95639" lon="13.4432183"><ele>50.5</ele><time>2026-05-03T08:32:41.246Z</time></trkpt><trkpt lat="45.956265" lon="13.4432117"><ele>50.75</ele><time>2026-05-03T08:32:42.246Z</time></trkpt><trkpt lat="45.9561467" lon="13.4432117"><ele>51.0</ele><time>2026-05-03T08:32:43.246Z</time></trkpt><trkpt lat="45.95603" lon="13.44321"><ele>51.0</ele><time>2026-05-03T08:32:44.246Z</time></trkpt><trkpt lat="45.955915" lon="13.4432117"><ele>51.0</ele><time>2026-05-03T08:32:45.246Z</time></trkpt><trkpt lat="45.9558083" lon="13.443215"><ele>51.0</ele><time>2026-05-03T08:32:46.246Z</time></trkpt><trkpt lat="45.955705" lon="13.44322"><ele>51.0</ele><time>2026-05-03T08:32:47.246Z</time></trkpt><trkpt lat="45.9556033" lon="13.443225"><ele>51.0</ele><time>2026-05-03T08:32:48.246Z</time></trkpt><trkpt lat="45.9555133" lon="13.4432333"><ele>51.0</ele><time>2026-05-03T08:32:49.246Z</time></trkpt><trkpt lat="45.9554367" lon="13.443235"><ele>51.0</ele><time>2026-05-03T08:32:50.246Z</time></trkpt><trkpt lat="45.9553683" lon="13.4432267"><ele>51.0</ele><time>2026-05-03T08:32:51.246Z</time></trkpt><trkpt lat="45.9552917" lon="13.4432167"><ele>51.0</ele><time>2026-05-03T08:32:52.246Z</time></trkpt><trkpt lat="45.9552" lon="13.443205"><ele>51.0</ele><time>2026-05-03T08:32:53.246Z</time></trkpt><trkpt lat="45.9551067" lon="13.443195"><ele>51.0</ele><time>2026-05-03T08:32:54.246Z</time></trkpt><trkpt lat="45.9550117" lon="13.44318"><ele>51.0</ele><time>2026-05-03T08:32:55.246Z</time></trkpt><trkpt lat="45.9549217" lon="13.4431567"><ele>51.0</ele><time>2026-05-03T08:32:56.246Z</time></trkpt><trkpt lat="45.9548317" lon="13.4431383"><ele>51.0</ele><time>2026-05-03T08:32:57.246Z</time></trkpt><trkpt lat="45.9547433" lon="13.4431283"><ele>51.0</ele><time>2026-05-03T08:32:58.246Z</time></trkpt><trkpt lat="45.954645" lon="13.4431283"><ele>51.0</ele><time>2026-05-03T08:32:59.246Z</time></trkpt><trkpt lat="45.95454" lon="13.443125"><ele>51.0</ele><time>2026-05-03T08:33:00.246Z</time></trkpt><trkpt lat="45.95443" lon="13.4431217"><ele>51.0</ele><time>2026-05-03T08:33:01.246Z</time></trkpt><trkpt lat="45.9543133" lon="13.443115"><ele>51.0</ele><time>2026-05-03T08:33:02.246Z</time></trkpt><trkpt lat="45.9541967" lon="13.4431117"><ele>51.0</ele><time>2026-05-03T08:33:03.246Z</time></trkpt><trkpt lat="45.95408" lon="13.443105"><ele>51.0</ele><time>2026-05-03T08:33:04.246Z</time></trkpt><trkpt lat="45.95396" lon="13.4430967"><ele>51.0</ele><time>2026-05-03T08:33:05.246Z</time></trkpt><trkpt lat="45.95384" lon="13.4430767"><ele>51.0</ele><time>2026-05-03T08:33:06.246Z</time></trkpt><trkpt lat="45.9537167" lon="13.443065"><ele>51.0</ele><time>2026-05-03T08:33:07.246Z</time></trkpt><trkpt lat="45.95359" lon="13.4430433"><ele>51.0</ele><time>2026-05-03T08:33:08.246Z</time></trkpt><trkpt lat="45.9534717" lon="13.443005"><ele>51.0</ele><time>2026-05-03T08:33:09.246Z</time></trkpt><trkpt lat="45.9533683" lon="13.4429767"><ele>51.0</ele><time>2026-05-03T08:33:10.246Z</time></trkpt><trkpt lat="45.9532733" lon="13.4429467"><ele>51.0</ele><time>2026-05-03T08:33:11.246Z</time></trkpt><trkpt lat="45.95319" lon="13.44292"><ele>51.0</ele><time>2026-05-03T08:33:12.246Z</time></trkpt><trkpt lat="45.95311" lon="13.442915"><ele>50.599999999999994</ele><time>2026-05-03T08:33:13.246Z</time></trkpt><trkpt lat="45.953035" lon="13.442905"><ele>50.2</ele><time>2026-05-03T08:33:14.246Z</time></trkpt><trkpt lat="45.9529633" lon="13.44289"><ele>49.8</ele><time>2026-05-03T08:33:15.246Z</time></trkpt><trkpt lat="45.95285" lon="13.44287"><ele>49.400000000000006</ele><time>2026-05-03T08:33:17.246Z</time></trkpt><trkpt lat="45.9527717" lon="13.44285"><ele>49.0</ele><time>2026-05-03T08:33:19.246Z</time></trkpt><trkpt lat="45.9526267" lon="13.4428367"><ele>48.5</ele><time>2026-05-03T08:33:21.247Z</time></trkpt><trkpt lat="45.9525283" lon="13.4428283"><ele>48.0</ele><time>2026-05-03T08:33:22.246Z</time></trkpt><trkpt lat="45.9524233" lon="13.4428167"><ele>47.5</ele><time>2026-05-03T08:33:23.246Z</time></trkpt><trkpt lat="45.95229" lon="13.4428"><ele>47.0</ele><time>2026-05-03T08:33:24.246Z</time></trkpt><trkpt lat="45.95216" lon="13.4427833"><ele>47.0</ele><time>2026-05-03T08:33:25.247Z</time></trkpt><trkpt lat="45.9520383" lon="13.4427617"><ele>47.0</ele><time>2026-05-03T08:33:26.246Z</time></trkpt><trkpt lat="45.95192" lon="13.4427367"><ele>47.0</ele><time>2026-05-03T08:33:27.246Z</time></trkpt><trkpt lat="45.9518117" lon="13.44272"><ele>47.0</ele><time>2026-05-03T08:33:28.246Z</time></trkpt><trkpt lat="45.9517067" lon="13.4426917"><ele>47.25</ele><time>2026-05-03T08:33:29.246Z</time></trkpt><trkpt lat="45.9516" lon="13.442665"><ele>47.5</ele><time>2026-05-03T08:33:30.246Z</time></trkpt><trkpt lat="45.9514867" lon="13.4426317"><ele>47.75</ele><time>2026-05-03T08:33:31.246Z</time></trkpt><trkpt lat="45.9513717" lon="13.4426033"><ele>48.0</ele><time>2026-05-03T08:33:32.246Z</time></trkpt><trkpt lat="45.9512517" lon="13.442575"><ele>48.0</ele><time>2026-05-03T08:33:33.246Z</time></trkpt><trkpt lat="45.9511283" lon="13.4425483"><ele>48.0</ele><time>2026-05-03T08:33:34.246Z</time></trkpt><trkpt lat="45.950995" lon="13.4425217"><ele>48.0</ele><time>2026-05-03T08:33:35.246Z</time></trkpt><trkpt lat="45.950855" lon="13.4424867"><ele>48.0</ele><time>2026-05-03T08:33:36.247Z</time></trkpt><trkpt lat="45.9507133" lon="13.4424583"><ele>48.0</ele><time>2026-05-03T08:33:37.246Z</time></trkpt><trkpt lat="45.9505733" lon="13.4424267"><ele>48.0</ele><time>2026-05-03T08:33:38.246Z</time></trkpt><trkpt lat="45.9504433" lon="13.4423933"><ele>48.0</ele><time>2026-05-03T08:33:39.246Z</time></trkpt><trkpt lat="45.9503133" lon="13.4423633"><ele>48.0</ele><time>2026-05-03T08:33:40.246Z</time></trkpt><trkpt lat="45.9501767" lon="13.4423283"><ele>48.0</ele><time>2026-05-03T08:33:41.246Z</time></trkpt><trkpt lat="45.9500433" lon="13.4422933"><ele>48.0</ele><time>2026-05-03T08:33:42.246Z</time></trkpt><trkpt lat="45.949905" lon="13.4422533"><ele>48.0</ele><time>2026-05-03T08:33:43.246Z</time></trkpt><trkpt lat="45.9497817" lon="13.4422317"><ele>48.0</ele><time>2026-05-03T08:33:44.246Z</time></trkpt><trkpt lat="45.9496633" lon="13.4421983"><ele>47.75</ele><time>2026-05-03T08:33:45.246Z</time></trkpt><trkpt lat="45.949545" lon="13.4421733"><ele>47.5</ele><time>2026-05-03T08:33:46.246Z</time></trkpt><trkpt lat="45.949425" lon="13.4421533"><ele>47.25</ele><time>2026-05-03T08:33:47.246Z</time></trkpt><trkpt lat="45.9493117" lon="13.4421317"><ele>47.0</ele><time>2026-05-03T08:33:48.246Z</time></trkpt><trkpt lat="45.9492167" lon="13.4421067"><ele>46.83333333333333</ele><time>2026-05-03T08:33:49.246Z</time></trkpt><trkpt lat="45.9491333" lon="13.4420783"><ele>46.666666666666664</ele><time>2026-05-03T08:33:50.246Z</time></trkpt><trkpt lat="45.9490533" lon="13.44205"><ele>46.5</ele><time>2026-05-03T08:33:51.246Z</time></trkpt><trkpt lat="45.94898" lon="13.442015"><ele>46.333333333333336</ele><time>2026-05-03T08:33:52.246Z</time></trkpt><trkpt lat="45.9489117" lon="13.4419467"><ele>46.16666666666667</ele><time>2026-05-03T08:33:53.246Z</time></trkpt><trkpt lat="45.94885" lon="13.4418483"><ele>46.0</ele><time>2026-05-03T08:33:54.246Z</time></trkpt><trkpt lat="45.9487983" lon="13.441735"><ele>46.0</ele><time>2026-05-03T08:33:55.246Z</time></trkpt><trkpt lat="45.9487667" lon="13.4415933"><ele>46.0</ele><time>2026-05-03T08:33:56.246Z</time></trkpt><trkpt lat="45.94875" lon="13.4414367"><ele>46.0</ele><time>2026-05-03T08:33:57.246Z</time></trkpt><trkpt lat="45.9487417" lon="13.4412883"><ele>46.0</ele><time>2026-05-03T08:33:58.247Z</time></trkpt><trkpt lat="45.9487267" lon="13.441145"><ele>46.0</ele><time>2026-05-03T08:33:59.246Z</time></trkpt><trkpt lat="45.9487133" lon="13.4410067"><ele>46.0</ele><time>2026-05-03T08:34:00.246Z</time></trkpt><trkpt lat="45.948705" lon="13.4408817"><ele>46.0</ele><time>2026-05-03T08:34:01.246Z</time></trkpt><trkpt lat="45.9486967" lon="13.4407433"><ele>46.0</ele><time>2026-05-03T08:34:02.246Z</time></trkpt><trkpt lat="45.94869" lon="13.4405817"><ele>46.0</ele><time>2026-05-03T08:34:03.246Z</time></trkpt><trkpt lat="45.948675" lon="13.44039"><ele>46.0</ele><time>2026-05-03T08:34:04.246Z</time></trkpt><trkpt lat="45.9486783" lon="13.440195"><ele>46.25</ele><time>2026-05-03T08:34:05.246Z</time></trkpt><trkpt lat="45.9486717" lon="13.43997"><ele>46.5</ele><time>2026-05-03T08:34:06.246Z</time></trkpt><trkpt lat="45.9486633" lon="13.4397667"><ele>46.75</ele><time>2026-05-03T08:34:07.246Z</time></trkpt><trkpt lat="45.9486533" lon="13.4395767"><ele>47.0</ele><time>2026-05-03T08:34:08.246Z</time></trkpt><trkpt lat="45.9486417" lon="13.439405"><ele>46.5</ele><time>2026-05-03T08:34:09.246Z</time></trkpt><trkpt lat="45.948625" lon="13.439205"><ele>46.0</ele><time>2026-05-03T08:34:10.246Z</time></trkpt><trkpt lat="45.9486217" lon="13.4390283"><ele>45.5</ele><time>2026-05-03T08:34:11.246Z</time></trkpt><trkpt lat="45.9486167" lon="13.4388633"><ele>45.0</ele><time>2026-05-03T08:34:12.246Z</time></trkpt><trkpt lat="45.9486033" lon="13.4386867"><ele>44.75</ele><time>2026-05-03T08:34:13.246Z</time></trkpt><trkpt lat="45.948585" lon="13.438495"><ele>44.5</ele><time>2026-05-03T08:34:14.246Z</time></trkpt><trkpt lat="45.948565" lon="13.4382817"><ele>44.25</ele><time>2026-05-03T08:34:15.246Z</time></trkpt><trkpt lat="45.9485467" lon="13.4380617"><ele>44.0</ele><time>2026-05-03T08:34:16.246Z</time></trkpt><trkpt lat="45.94853" lon="13.4378483"><ele>44.5</ele><time>2026-05-03T08:34:17.246Z</time></trkpt><trkpt lat="45.9485133" lon="13.43764"><ele>45.0</ele><time>2026-05-03T08:34:18.246Z</time></trkpt><trkpt lat="45.9484967" lon="13.437435"><ele>45.5</ele><time>2026-05-03T08:34:19.246Z</time></trkpt><trkpt lat="45.948485" lon="13.437235"><ele>46.0</ele><time>2026-05-03T08:34:20.246Z</time></trkpt><trkpt lat="45.9484733" lon="13.4370317"><ele>46.0</ele><time>2026-05-03T08:34:21.246Z</time></trkpt><trkpt lat="45.9484583" lon="13.436835"><ele>46.0</ele><time>2026-05-03T08:34:22.246Z</time></trkpt><trkpt lat="45.9484417" lon="13.43664"><ele>46.0</ele><time>2026-05-03T08:34:23.246Z</time></trkpt><trkpt lat="45.9484267" lon="13.4364533"><ele>46.0</ele><time>2026-05-03T08:34:24.245Z</time></trkpt><trkpt lat="45.9484167" lon="13.4362783"><ele>46.0</ele><time>2026-05-03T08:34:25.245Z</time></trkpt><trkpt lat="45.9484067" lon="13.4361133"><ele>46.0</ele><time>2026-05-03T08:34:26.245Z</time></trkpt><trkpt lat="45.9483933" lon="13.4359617"><ele>46.0</ele><time>2026-05-03T08:34:27.245Z</time></trkpt><trkpt lat="45.9483717" lon="13.43581"><ele>46.0</ele><time>2026-05-03T08:34:28.245Z</time></trkpt><trkpt lat="45.9483483" lon="13.4356517"><ele>46.0</ele><time>2026-05-03T08:34:29.245Z</time></trkpt><trkpt lat="45.9483333" lon="13.4354833"><ele>45.25</ele><time>2026-05-03T08:34:30.245Z</time></trkpt><trkpt lat="45.9483333" lon="13.4353017"><ele>44.5</ele><time>2026-05-03T08:34:31.246Z</time></trkpt><trkpt lat="45.9483517" lon="13.435115"><ele>43.75</ele><time>2026-05-03T08:34:32.245Z</time></trkpt><trkpt lat="45.9483533" lon="13.4349167"><ele>43.0</ele><time>2026-05-03T08:34:33.245Z</time></trkpt><trkpt lat="45.94836" lon="13.4347283"><ele>42.75</ele><time>2026-05-03T08:34:34.245Z</time></trkpt><trkpt lat="45.948355" lon="13.434535"><ele>42.5</ele><time>2026-05-03T08:34:35.245Z</time></trkpt><trkpt lat="45.9483367" lon="13.4343317"><ele>42.25</ele><time>2026-05-03T08:34:36.245Z</time></trkpt><trkpt lat="45.9483217" lon="13.434125"><ele>42.0</ele><time>2026-05-03T08:34:37.245Z</time></trkpt><trkpt lat="45.9483017" lon="13.433935"><ele>41.8</ele><time>2026-05-03T08:34:38.245Z</time></trkpt><trkpt lat="45.9482817" lon="13.4337633"><ele>41.6</ele><time>2026-05-03T08:34:39.245Z</time></trkpt><trkpt lat="45.9482633" lon="13.4336133"><ele>41.4</ele><time>2026-05-03T08:34:40.245Z</time></trkpt><trkpt lat="45.9482367" lon="13.4334683"><ele>41.199999999999996</ele><time>2026-05-03T08:34:41.245Z</time></trkpt><trkpt lat="45.9481967" lon="13.4333267"><ele>41.0</ele><time>2026-05-03T08:34:42.245Z</time></trkpt><trkpt lat="45.948145" lon="13.43319"><ele>41.0</ele><time>2026-05-03T08:34:43.245Z</time></trkpt><trkpt lat="45.9480817" lon="13.4330733"><ele>41.0</ele><time>2026-05-03T08:34:44.245Z</time></trkpt><trkpt lat="45.9480033" lon="13.4329817"><ele>41.0</ele><time>2026-05-03T08:34:45.245Z</time></trkpt><trkpt lat="45.9479033" lon="13.4328967"><ele>41.0</ele><time>2026-05-03T08:34:46.245Z</time></trkpt><trkpt lat="45.9477817" lon="13.4328167"><ele>40.75</ele><time>2026-05-03T08:34:47.245Z</time></trkpt><trkpt lat="45.947645" lon="13.43273"><ele>40.5</ele><time>2026-05-03T08:34:48.245Z</time></trkpt><trkpt lat="45.94751" lon="13.432635"><ele>40.25</ele><time>2026-05-03T08:34:49.245Z</time></trkpt><trkpt lat="45.947375" lon="13.4325417"><ele>40.0</ele><time>2026-05-03T08:34:50.245Z</time></trkpt><trkpt lat="45.9472483" lon="13.4324583"><ele>40.0</ele><time>2026-05-03T08:34:51.245Z</time></trkpt><trkpt lat="45.9471233" lon="13.43237"><ele>40.0</ele><time>2026-05-03T08:34:52.245Z</time></trkpt><trkpt lat="45.9469983" lon="13.4322917"><ele>40.0</ele><time>2026-05-03T08:34:53.245Z</time></trkpt><trkpt lat="45.9468617" lon="13.432215"><ele>40.0</ele><time>2026-05-03T08:34:54.245Z</time></trkpt><trkpt lat="45.9467167" lon="13.4321483"><ele>40.333333333333336</ele><time>2026-05-03T08:34:55.245Z</time></trkpt><trkpt lat="45.9465717" lon="13.4320783"><ele>40.666666666666664</ele><time>2026-05-03T08:34:56.245Z</time></trkpt><trkpt lat="45.946425" lon="13.4320017"><ele>41.0</ele><time>2026-05-03T08:34:57.245Z</time></trkpt><trkpt lat="45.9462883" lon="13.4319067"><ele>41.0</ele><time>2026-05-03T08:34:58.245Z</time></trkpt><trkpt lat="45.9461483" lon="13.4317967"><ele>41.0</ele><time>2026-05-03T08:34:59.245Z</time></trkpt><trkpt lat="45.9460167" lon="13.43167"><ele>41.0</ele><time>2026-05-03T08:35:00.245Z</time></trkpt><trkpt lat="45.945905" lon="13.431525"><ele>41.0</ele><time>2026-05-03T08:35:01.245Z</time></trkpt><trkpt lat="45.94579" lon="13.4313617"><ele>41.0</ele><time>2026-05-03T08:35:02.245Z</time></trkpt><trkpt lat="45.9456717" lon="13.4311783"><ele>41.0</ele><time>2026-05-03T08:35:03.245Z</time></trkpt><trkpt lat="45.945555" lon="13.430995"><ele>41.0</ele><time>2026-05-03T08:35:04.245Z</time></trkpt><trkpt lat="45.945445" lon="13.43083"><ele>41.0</ele><time>2026-05-03T08:35:05.245Z</time></trkpt><trkpt lat="45.9453367" lon="13.4306833"><ele>41.0</ele><time>2026-05-03T08:35:06.245Z</time></trkpt><trkpt lat="45.9452317" lon="13.430555"><ele>41.0</ele><time>2026-05-03T08:35:07.245Z</time></trkpt><trkpt lat="45.945125" lon="13.4304517"><ele>40.75</ele><time>2026-05-03T08:35:08.245Z</time></trkpt><trkpt lat="45.9450217" lon="13.430365"><ele>40.5</ele><time>2026-05-03T08:35:09.245Z</time></trkpt><trkpt lat="45.94492" lon="13.4302983"><ele>40.25</ele><time>2026-05-03T08:35:10.245Z</time></trkpt><trkpt lat="45.9448133" lon="13.430245"><ele>40.0</ele><time>2026-05-03T08:35:11.245Z</time></trkpt><trkpt lat="45.9447017" lon="13.430215"><ele>40.0</ele><time>2026-05-03T08:35:12.245Z</time></trkpt><trkpt lat="45.944585" lon="13.4302017"><ele>40.0</ele><time>2026-05-03T08:35:13.245Z</time></trkpt><trkpt lat="45.9444583" lon="13.4302"><ele>40.0</ele><time>2026-05-03T08:35:14.245Z</time></trkpt><trkpt lat="45.9443217" lon="13.4302117"><ele>40.0</ele><time>2026-05-03T08:35:15.245Z</time></trkpt><trkpt lat="45.9441867" lon="13.4302217"><ele>39.5</ele><time>2026-05-03T08:35:16.245Z</time></trkpt><trkpt lat="45.9440467" lon="13.43024"><ele>39.0</ele><time>2026-05-03T08:35:17.245Z</time></trkpt><trkpt lat="45.9439033" lon="13.4302767"><ele>38.5</ele><time>2026-05-03T08:35:18.245Z</time></trkpt><trkpt lat="45.9437617" lon="13.430315"><ele>38.0</ele><time>2026-05-03T08:35:19.245Z</time></trkpt><trkpt lat="45.9436233" lon="13.4303467"><ele>38.0</ele><time>2026-05-03T08:35:20.245Z</time></trkpt><trkpt lat="45.9434883" lon="13.4303717"><ele>38.0</ele><time>2026-05-03T08:35:21.245Z</time></trkpt><trkpt lat="45.94337" lon="13.4303967"><ele>38.0</ele><time>2026-05-03T08:35:22.245Z</time></trkpt><trkpt lat="45.9432517" lon="13.43043"><ele>38.0</ele><time>2026-05-03T08:35:23.245Z</time></trkpt><trkpt lat="45.94314" lon="13.4304783"><ele>38.25</ele><time>2026-05-03T08:35:24.245Z</time></trkpt><trkpt lat="45.943035" lon="13.4305417"><ele>38.5</ele><time>2026-05-03T08:35:25.245Z</time></trkpt><trkpt lat="45.942925" lon="13.4306183"><ele>38.75</ele><time>2026-05-03T08:35:26.245Z</time></trkpt><trkpt lat="45.94282" lon="13.4306817"><ele>39.0</ele><time>2026-05-03T08:35:27.245Z</time></trkpt><trkpt lat="45.9427083" lon="13.43072"><ele>39.0</ele><time>2026-05-03T08:35:28.245Z</time></trkpt><trkpt lat="45.9425883" lon="13.4307383"><ele>39.0</ele><time>2026-05-03T08:35:29.245Z</time></trkpt><trkpt lat="45.94247" lon="13.430745"><ele>39.0</ele><time>2026-05-03T08:35:30.245Z</time></trkpt><trkpt lat="45.9423567" lon="13.430715"><ele>39.0</ele><time>2026-05-03T08:35:31.245Z</time></trkpt><trkpt lat="45.9422533" lon="13.4306567"><ele>39.0</ele><time>2026-05-03T08:35:32.245Z</time></trkpt><trkpt lat="45.94216" lon="13.4305667"><ele>39.0</ele><time>2026-05-03T08:35:33.245Z</time></trkpt><trkpt lat="45.9420717" lon="13.43047"><ele>39.0</ele><time>2026-05-03T08:35:34.245Z</time></trkpt><trkpt lat="45.941995" lon="13.4303783"><ele>39.0</ele><time>2026-05-03T08:35:35.245Z</time></trkpt><trkpt lat="45.9419433" lon="13.43026"><ele>39.0</ele><time>2026-05-03T08:35:36.245Z</time></trkpt><trkpt lat="45.9419217" lon="13.4301283"><ele>39.166666666666664</ele><time>2026-05-03T08:35:37.245Z</time></trkpt><trkpt lat="45.9419267" lon="13.429985"><ele>39.333333333333336</ele><time>2026-05-03T08:35:38.245Z</time></trkpt><trkpt lat="45.9419417" lon="13.4298367"><ele>39.5</ele><time>2026-05-03T08:35:39.245Z</time></trkpt><trkpt lat="45.9419517" lon="13.4297083"><ele>39.66666666666667</ele><time>2026-05-03T08:35:40.245Z</time></trkpt><trkpt lat="45.941955" lon="13.4295967"><ele>39.833333333333336</ele><time>2026-05-03T08:35:41.245Z</time></trkpt><trkpt lat="45.94194" lon="13.4294917"><ele>40.0</ele><time>2026-05-03T08:35:42.245Z</time></trkpt><trkpt lat="45.9419117" lon="13.429405"><ele>40.0</ele><time>2026-05-03T08:35:43.245Z</time></trkpt><trkpt lat="45.9418233" lon="13.4293467"><ele>40.0</ele><time>2026-05-03T08:35:45.245Z</time></trkpt><trkpt lat="45.9417517" lon="13.4293783"><ele>40.0</ele><time>2026-05-03T08:35:46.245Z</time></trkpt><trkpt lat="45.94167" lon="13.4294267"><ele>40.0</ele><time>2026-05-03T08:35:47.245Z</time></trkpt><trkpt lat="45.9415767" lon="13.4294867"><ele>40.0</ele><time>2026-05-03T08:35:48.245Z</time></trkpt><trkpt lat="45.9414783" lon="13.4295533"><ele>40.0</ele><time>2026-05-03T08:35:49.245Z</time></trkpt><trkpt lat="45.941375" lon="13.42963"><ele>40.0</ele><time>2026-05-03T08:35:50.245Z</time></trkpt><trkpt lat="45.9412717" lon="13.4297067"><ele>40.0</ele><time>2026-05-03T08:35:51.245Z</time></trkpt><trkpt lat="45.94116" lon="13.429785"><ele>40.0</ele><time>2026-05-03T08:35:52.245Z</time></trkpt><trkpt lat="45.9410317" lon="13.4298683"><ele>40.0</ele><time>2026-05-03T08:35:53.245Z</time></trkpt><trkpt lat="45.9409083" lon="13.429955"><ele>40.0</ele><time>2026-05-03T08:35:54.245Z</time></trkpt><trkpt lat="45.9407817" lon="13.43004"><ele>40.0</ele><time>2026-05-03T08:35:55.245Z</time></trkpt><trkpt lat="45.9406567" lon="13.430125"><ele>40.0</ele><time>2026-05-03T08:35:56.245Z</time></trkpt><trkpt lat="45.9405317" lon="13.4302117"><ele>40.0</ele><time>2026-05-03T08:35:57.245Z</time></trkpt><trkpt lat="45.940395" lon="13.4302983"><ele>40.0</ele><time>2026-05-03T08:35:58.245Z</time></trkpt><trkpt lat="45.9402467" lon="13.4304017"><ele>40.0</ele><time>2026-05-03T08:35:59.245Z</time></trkpt><trkpt lat="45.9401033" lon="13.4305033"><ele>40.0</ele><time>2026-05-03T08:36:00.245Z</time></trkpt><trkpt lat="45.9399667" lon="13.430595"><ele>40.0</ele><time>2026-05-03T08:36:01.245Z</time></trkpt><trkpt lat="45.9398267" lon="13.43069"><ele>40.0</ele><time>2026-05-03T08:36:02.245Z</time></trkpt><trkpt lat="45.9396833" lon="13.4307883"><ele>40.0</ele><time>2026-05-03T08:36:03.245Z</time></trkpt><trkpt lat="45.93953" lon="13.4308867"><ele>40.0</ele><time>2026-05-03T08:36:04.245Z</time></trkpt><trkpt lat="45.9393817" lon="13.430985"><ele>40.0</ele><time>2026-05-03T08:36:05.245Z</time></trkpt><trkpt lat="45.9392383" lon="13.4310717"><ele>40.0</ele><time>2026-05-03T08:36:06.245Z</time></trkpt><trkpt lat="45.9391017" lon="13.43116"><ele>40.0</ele><time>2026-05-03T08:36:07.245Z</time></trkpt><trkpt lat="45.9389717" lon="13.4312433"><ele>40.0</ele><time>2026-05-03T08:36:08.245Z</time></trkpt><trkpt lat="45.9388567" lon="13.4313233"><ele>40.0</ele><time>2026-05-03T08:36:09.245Z</time></trkpt><trkpt lat="45.9387367" lon="13.4313933"><ele>40.0</ele><time>2026-05-03T08:36:10.245Z</time></trkpt><trkpt lat="45.9386283" lon="13.4314683"><ele>40.0</ele><time>2026-05-03T08:36:11.245Z</time></trkpt><trkpt lat="45.9385117" lon="13.4315383"><ele>40.0</ele><time>2026-05-03T08:36:12.245Z</time></trkpt><trkpt lat="45.93841" lon="13.431605"><ele>40.0</ele><time>2026-05-03T08:36:13.245Z</time></trkpt><trkpt lat="45.938305" lon="13.4316733"><ele>39.25</ele><time>2026-05-03T08:36:14.245Z</time></trkpt><trkpt lat="45.9382" lon="13.431735"><ele>38.5</ele><time>2026-05-03T08:36:15.245Z</time></trkpt><trkpt lat="45.9380983" lon="13.431805"><ele>37.75</ele><time>2026-05-03T08:36:16.245Z</time></trkpt><trkpt lat="45.9379933" lon="13.4318733"><ele>37.0</ele><time>2026-05-03T08:36:17.245Z</time></trkpt><trkpt lat="45.93788" lon="13.431955"><ele>37.0</ele><time>2026-05-03T08:36:18.245Z</time></trkpt><trkpt lat="45.9377617" lon="13.4320383"><ele>37.0</ele><time>2026-05-03T08:36:19.245Z</time></trkpt><trkpt lat="45.937635" lon="13.43212"><ele>37.0</ele><time>2026-05-03T08:36:20.245Z</time></trkpt><trkpt lat="45.9375117" lon="13.4321967"><ele>37.0</ele><time>2026-05-03T08:36:21.245Z</time></trkpt><trkpt lat="45.9373883" lon="13.4322717"><ele>37.5</ele><time>2026-05-03T08:36:22.245Z</time></trkpt><trkpt lat="45.9372783" lon="13.4323467"><ele>38.0</ele><time>2026-05-03T08:36:23.245Z</time></trkpt><trkpt lat="45.9371683" lon="13.4324217"><ele>38.5</ele><time>2026-05-03T08:36:24.245Z</time></trkpt><trkpt lat="45.9370567" lon="13.4324983"><ele>39.0</ele><time>2026-05-03T08:36:25.245Z</time></trkpt><trkpt lat="45.9369467" lon="13.43257"><ele>39.0</ele><time>2026-05-03T08:36:26.245Z</time></trkpt><trkpt lat="45.9368433" lon="13.4326383"><ele>39.0</ele><time>2026-05-03T08:36:27.245Z</time></trkpt><trkpt lat="45.936735" lon="13.4327"><ele>39.0</ele><time>2026-05-03T08:36:28.245Z</time></trkpt><trkpt lat="45.9366117" lon="13.4327767"><ele>39.0</ele><time>2026-05-03T08:36:29.245Z</time></trkpt><trkpt lat="45.9364967" lon="13.4328483"><ele>39.0</ele><time>2026-05-03T08:36:30.245Z</time></trkpt><trkpt lat="45.9363833" lon="13.4329167"><ele>39.0</ele><time>2026-05-03T08:36:31.245Z</time></trkpt><trkpt lat="45.936265" lon="13.432985"><ele>39.0</ele><time>2026-05-03T08:36:32.245Z</time></trkpt><trkpt lat="45.936155" lon="13.433065"><ele>39.0</ele><time>2026-05-03T08:36:33.245Z</time></trkpt><trkpt lat="45.936045" lon="13.4331433"><ele>39.25</ele><time>2026-05-03T08:36:34.245Z</time></trkpt><trkpt lat="45.9359383" lon="13.4332233"><ele>39.5</ele><time>2026-05-03T08:36:35.245Z</time></trkpt><trkpt lat="45.935825" lon="13.4333"><ele>39.75</ele><time>2026-05-03T08:36:36.245Z</time></trkpt><trkpt lat="45.93571" lon="13.4333817"><ele>40.0</ele><time>2026-05-03T08:36:37.245Z</time></trkpt><trkpt lat="45.935605" lon="13.4334617"><ele>40.0</ele><time>2026-05-03T08:36:38.245Z</time></trkpt><trkpt lat="45.9355083" lon="13.4335117"><ele>40.0</ele><time>2026-05-03T08:36:39.246Z</time></trkpt><trkpt lat="45.9354167" lon="13.4335767"><ele>40.0</ele><time>2026-05-03T08:36:40.245Z</time></trkpt><trkpt lat="45.9353083" lon="13.4336433"><ele>40.0</ele><time>2026-05-03T08:36:41.245Z</time></trkpt><trkpt lat="45.935185" lon="13.4337217"><ele>40.0</ele><time>2026-05-03T08:36:42.245Z</time></trkpt><trkpt lat="45.9350667" lon="13.4338"><ele>40.0</ele><time>2026-05-03T08:36:43.245Z</time></trkpt><trkpt lat="45.9349317" lon="13.4338783"><ele>40.0</ele><time>2026-05-03T08:36:44.245Z</time></trkpt><trkpt lat="45.9347967" lon="13.4339633"><ele>40.0</ele><time>2026-05-03T08:36:45.245Z</time></trkpt><trkpt lat="45.934665" lon="13.4340317"><ele>39.25</ele><time>2026-05-03T08:36:46.245Z</time></trkpt><trkpt lat="45.9345317" lon="13.4341333"><ele>38.5</ele><time>2026-05-03T08:36:47.245Z</time></trkpt><trkpt lat="45.9344017" lon="13.4342233"><ele>37.75</ele><time>2026-05-03T08:36:48.245Z</time></trkpt><trkpt lat="45.9342733" lon="13.4343117"><ele>37.0</ele><time>2026-05-03T08:36:49.245Z</time></trkpt><trkpt lat="45.93414" lon="13.4344083"><ele>37.0</ele><time>2026-05-03T08:36:50.245Z</time></trkpt><trkpt lat="45.9340033" lon="13.434495"><ele>37.0</ele><time>2026-05-03T08:36:51.245Z</time></trkpt><trkpt lat="45.9338733" lon="13.434575"><ele>37.0</ele><time>2026-05-03T08:36:52.245Z</time></trkpt><trkpt lat="45.9337417" lon="13.4346617"><ele>37.0</ele><time>2026-05-03T08:36:53.245Z</time></trkpt><trkpt lat="45.9336133" lon="13.4347417"><ele>37.0</ele><time>2026-05-03T08:36:54.245Z</time></trkpt><trkpt lat="45.9334867" lon="13.4348317"><ele>37.0</ele><time>2026-05-03T08:36:55.245Z</time></trkpt><trkpt lat="45.9333567" lon="13.4349183"><ele>37.0</ele><time>2026-05-03T08:36:56.245Z</time></trkpt><trkpt lat="45.9332267" lon="13.4350083"><ele>37.0</ele><time>2026-05-03T08:36:57.245Z</time></trkpt><trkpt lat="45.9330967" lon="13.4350833"><ele>37.25</ele><time>2026-05-03T08:36:58.245Z</time></trkpt><trkpt lat="45.9329683" lon="13.4351683"><ele>37.5</ele><time>2026-05-03T08:36:59.245Z</time></trkpt><trkpt lat="45.9328517" lon="13.4352517"><ele>37.75</ele><time>2026-05-03T08:37:00.245Z</time></trkpt><trkpt lat="45.9327283" lon="13.4353383"><ele>38.0</ele><time>2026-05-03T08:37:01.245Z</time></trkpt><trkpt lat="45.932605" lon="13.43542"><ele>37.75</ele><time>2026-05-03T08:37:02.245Z</time></trkpt><trkpt lat="45.93249" lon="13.4354867"><ele>37.5</ele><time>2026-05-03T08:37:03.245Z</time></trkpt><trkpt lat="45.932385" lon="13.4355533"><ele>37.25</ele><time>2026-05-03T08:37:04.245Z</time></trkpt><trkpt lat="45.9322817" lon="13.435625"><ele>37.0</ele><time>2026-05-03T08:37:05.245Z</time></trkpt><trkpt lat="45.9321767" lon="13.4356933"><ele>37.0</ele><time>2026-05-03T08:37:06.245Z</time></trkpt><trkpt lat="45.93207" lon="13.4357617"><ele>37.0</ele><time>2026-05-03T08:37:07.245Z</time></trkpt><trkpt lat="45.93197" lon="13.4358283"><ele>37.0</ele><time>2026-05-03T08:37:08.245Z</time></trkpt><trkpt lat="45.931875" lon="13.43589"><ele>37.0</ele><time>2026-05-03T08:37:09.245Z</time></trkpt><trkpt lat="45.9317883" lon="13.435945"><ele>37.0</ele><time>2026-05-03T08:37:10.245Z</time></trkpt><trkpt lat="45.9317067" lon="13.4360017"><ele>37.4</ele><time>2026-05-03T08:37:11.245Z</time></trkpt><trkpt lat="45.9316367" lon="13.436055"><ele>37.800000000000004</ele><time>2026-05-03T08:37:12.245Z</time></trkpt><trkpt lat="45.9315283" lon="13.436085"><ele>38.2</ele><time>2026-05-03T08:37:14.245Z</time></trkpt><trkpt lat="45.9314417" lon="13.435985"><ele>38.6</ele><time>2026-05-03T08:37:16.245Z</time></trkpt><trkpt lat="45.931395" lon="13.4358833"><ele>39.0</ele><time>2026-05-03T08:37:17.245Z</time></trkpt><trkpt lat="45.9313367" lon="13.4357017"><ele>39.0</ele><time>2026-05-03T08:37:18.245Z</time></trkpt><trkpt lat="45.9312733" lon="13.4355067"><ele>39.0</ele><time>2026-05-03T08:37:19.245Z</time></trkpt><trkpt lat="45.9311983" lon="13.4353167"><ele>39.0</ele><time>2026-05-03T08:37:20.246Z</time></trkpt><trkpt lat="45.9311267" lon="13.4351033"><ele>38.666666666666664</ele><time>2026-05-03T08:37:21.245Z</time></trkpt><trkpt lat="45.9310517" lon="13.434905"><ele>38.33333333333333</ele><time>2026-05-03T08:37:22.245Z</time></trkpt><trkpt lat="45.9309817" lon="13.4347117"><ele>38.0</ele><time>2026-05-03T08:37:23.245Z</time></trkpt><trkpt lat="45.9309117" lon="13.434515"><ele>39.0</ele><time>2026-05-03T08:37:24.245Z</time></trkpt><trkpt lat="45.9308467" lon="13.43432"><ele>40.0</ele><time>2026-05-03T08:37:25.245Z</time></trkpt><trkpt lat="45.93079" lon="13.4341467"><ele>41.0</ele><time>2026-05-03T08:37:26.245Z</time></trkpt><trkpt lat="45.9307317" lon="13.433985"><ele>42.0</ele><time>2026-05-03T08:37:27.245Z</time></trkpt><trkpt lat="45.9306883" lon="13.433835"><ele>40.75</ele><time>2026-05-03T08:37:28.245Z</time></trkpt><trkpt lat="45.93064" lon="13.4336883"><ele>39.5</ele><time>2026-05-03T08:37:29.245Z</time></trkpt><trkpt lat="45.9306" lon="13.4335283"><ele>38.25</ele><time>2026-05-03T08:37:30.245Z</time></trkpt><trkpt lat="45.930555" lon="13.4333733"><ele>37.0</ele><time>2026-05-03T08:37:31.245Z</time></trkpt><trkpt lat="45.9305117" lon="13.4332283"><ele>37.0</ele><time>2026-05-03T08:37:32.245Z</time></trkpt><trkpt lat="45.9304733" lon="13.4330883"><ele>37.0</ele><time>2026-05-03T08:37:33.245Z</time></trkpt><trkpt lat="45.9304333" lon="13.4329567"><ele>37.0</ele><time>2026-05-03T08:37:34.245Z</time></trkpt><trkpt lat="45.9303867" lon="13.432815"><ele>37.0</ele><time>2026-05-03T08:37:35.245Z</time></trkpt><trkpt lat="45.9303317" lon="13.43267"><ele>37.0</ele><time>2026-05-03T08:37:36.245Z</time></trkpt><trkpt lat="45.9302783" lon="13.4325317"><ele>36.6</ele><time>2026-05-03T08:37:37.245Z</time></trkpt><trkpt lat="45.9302267" lon="13.4323983"><ele>36.2</ele><time>2026-05-03T08:37:38.245Z</time></trkpt><trkpt lat="45.930185" lon="13.4322583"><ele>35.8</ele><time>2026-05-03T08:37:39.245Z</time></trkpt><trkpt lat="45.9301433" lon="13.4321317"><ele>35.4</ele><time>2026-05-03T08:37:40.245Z</time></trkpt><trkpt lat="45.93009" lon="13.4319917"><ele>35.0</ele><time>2026-05-03T08:37:41.245Z</time></trkpt><trkpt lat="45.9300483" lon="13.4318367"><ele>36.0</ele><time>2026-05-03T08:37:42.245Z</time></trkpt><trkpt lat="45.9299983" lon="13.4316733"><ele>37.0</ele><time>2026-05-03T08:37:43.245Z</time></trkpt><trkpt lat="45.929945" lon="13.4315017"><ele>38.0</ele><time>2026-05-03T08:37:44.245Z</time></trkpt><trkpt lat="45.9298833" lon="13.431315"><ele>39.0</ele><time>2026-05-03T08:37:45.245Z</time></trkpt><trkpt lat="45.929815" lon="13.4311267"><ele>39.0</ele><time>2026-05-03T08:37:46.245Z</time></trkpt><trkpt lat="45.92973" lon="13.43094"><ele>39.0</ele><time>2026-05-03T08:37:47.245Z</time></trkpt><trkpt lat="45.9296433" lon="13.4307433"><ele>39.0</ele><time>2026-05-03T08:37:48.245Z</time></trkpt><trkpt lat="45.9295483" lon="13.4305517"><ele>39.0</ele><time>2026-05-03T08:37:49.245Z</time></trkpt><trkpt lat="45.92945" lon="13.4303817"><ele>39.0</ele><time>2026-05-03T08:37:50.245Z</time></trkpt><trkpt lat="45.9293617" lon="13.4302167"><ele>39.0</ele><time>2026-05-03T08:37:51.245Z</time></trkpt><trkpt lat="45.9292733" lon="13.4300667"><ele>39.0</ele><time>2026-05-03T08:37:52.245Z</time></trkpt><trkpt lat="45.929185" lon="13.4299133"><ele>39.0</ele><time>2026-05-03T08:37:53.245Z</time></trkpt><trkpt lat="45.929105" lon="13.4297533"><ele>39.0</ele><time>2026-05-03T08:37:54.245Z</time></trkpt><trkpt lat="45.9290217" lon="13.4296017"><ele>39.0</ele><time>2026-05-03T08:37:55.245Z</time></trkpt><trkpt lat="45.9289317" lon="13.4294433"><ele>39.0</ele><time>2026-05-03T08:37:56.245Z</time></trkpt><trkpt lat="45.9288417" lon="13.4292883"><ele>38.5</ele><time>2026-05-03T08:37:57.245Z</time></trkpt><trkpt lat="45.928775" lon="13.4291217"><ele>38.0</ele><time>2026-05-03T08:37:58.245Z</time></trkpt><trkpt lat="45.9286967" lon="13.4289667"><ele>37.5</ele><time>2026-05-03T08:37:59.245Z</time></trkpt><trkpt lat="45.92862" lon="13.4288133"><ele>37.0</ele><time>2026-05-03T08:38:00.245Z</time></trkpt><trkpt lat="45.92854" lon="13.42866"><ele>37.0</ele><time>2026-05-03T08:38:01.245Z</time></trkpt><trkpt lat="45.9284617" lon="13.4285133"><ele>37.0</ele><time>2026-05-03T08:38:02.245Z</time></trkpt><trkpt lat="45.9283783" lon="13.4283717"><ele>37.0</ele><time>2026-05-03T08:38:03.245Z</time></trkpt><trkpt lat="45.9283067" lon="13.428225"><ele>37.0</ele><time>2026-05-03T08:38:04.245Z</time></trkpt><trkpt lat="45.92823" lon="13.4280633"><ele>37.25</ele><time>2026-05-03T08:38:05.245Z</time></trkpt><trkpt lat="45.9281567" lon="13.427885"><ele>37.5</ele><time>2026-05-03T08:38:06.245Z</time></trkpt><trkpt lat="45.9280717" lon="13.4277117"><ele>37.75</ele><time>2026-05-03T08:38:07.245Z</time></trkpt><trkpt lat="45.9279967" lon="13.42753"><ele>38.0</ele><time>2026-05-03T08:38:08.245Z</time></trkpt><trkpt lat="45.9279183" lon="13.42735"><ele>38.0</ele><time>2026-05-03T08:38:09.245Z</time></trkpt><trkpt lat="45.92785" lon="13.4271633"><ele>38.0</ele><time>2026-05-03T08:38:10.245Z</time></trkpt><trkpt lat="45.9277817" lon="13.4269767"><ele>38.0</ele><time>2026-05-03T08:38:11.245Z</time></trkpt><trkpt lat="45.9277217" lon="13.4268"><ele>38.0</ele><time>2026-05-03T08:38:12.245Z</time></trkpt><trkpt lat="45.92766" lon="13.4266183"><ele>38.0</ele><time>2026-05-03T08:38:13.245Z</time></trkpt><trkpt lat="45.9275933" lon="13.426445"><ele>38.0</ele><time>2026-05-03T08:38:14.245Z</time></trkpt><trkpt lat="45.9275283" lon="13.4262583"><ele>38.0</ele><time>2026-05-03T08:38:15.245Z</time></trkpt><trkpt lat="45.9274617" lon="13.4260633"><ele>38.0</ele><time>2026-05-03T08:38:16.245Z</time></trkpt><trkpt lat="45.9273933" lon="13.4258783"><ele>38.0</ele><time>2026-05-03T08:38:17.246Z</time></trkpt><trkpt lat="45.9273383" lon="13.4257117"><ele>38.0</ele><time>2026-05-03T08:38:18.245Z</time></trkpt><trkpt lat="45.9272883" lon="13.42555"><ele>38.0</ele><time>2026-05-03T08:38:19.245Z</time></trkpt><trkpt lat="45.927235" lon="13.4254033"><ele>38.0</ele><time>2026-05-03T08:38:20.245Z</time></trkpt><trkpt lat="45.927185" lon="13.4252817"><ele>37.8</ele><time>2026-05-03T08:38:21.245Z</time></trkpt><trkpt lat="45.927125" lon="13.4251517"><ele>37.599999999999994</ele><time>2026-05-03T08:38:22.245Z</time></trkpt><trkpt lat="45.92707" lon="13.42503"><ele>37.400000000000006</ele><time>2026-05-03T08:38:23.245Z</time></trkpt><trkpt lat="45.9270183" lon="13.4248933"><ele>37.2</ele><time>2026-05-03T08:38:24.245Z</time></trkpt><trkpt lat="45.926945" lon="13.42477"><ele>37.0</ele><time>2026-05-03T08:38:25.245Z</time></trkpt><trkpt lat="45.9268583" lon="13.4246683"><ele>36.75</ele><time>2026-05-03T08:38:26.245Z</time></trkpt><trkpt lat="45.9267367" lon="13.42459"><ele>36.5</ele><time>2026-05-03T08:38:27.245Z</time></trkpt><trkpt lat="45.9266" lon="13.4245317"><ele>36.25</ele><time>2026-05-03T08:38:28.245Z</time></trkpt><trkpt lat="45.9264683" lon="13.4244633"><ele>36.0</ele><time>2026-05-03T08:38:29.245Z</time></trkpt><trkpt lat="45.926335" lon="13.4243817"><ele>36.0</ele><time>2026-05-03T08:38:30.245Z</time></trkpt><trkpt lat="45.9262233" lon="13.42429"><ele>36.0</ele><time>2026-05-03T08:38:31.246Z</time></trkpt><trkpt lat="45.9261183" lon="13.4241783"><ele>36.0</ele><time>2026-05-03T08:38:32.245Z</time></trkpt><trkpt lat="45.9260217" lon="13.4240667"><ele>36.0</ele><time>2026-05-03T08:38:33.245Z</time></trkpt><trkpt lat="45.9259333" lon="13.423965"><ele>36.6</ele><time>2026-05-03T08:38:34.245Z</time></trkpt><trkpt lat="45.92585" lon="13.423855"><ele>37.2</ele><time>2026-05-03T08:38:35.245Z</time></trkpt><trkpt lat="45.92577" lon="13.4237433"><ele>37.8</ele><time>2026-05-03T08:38:36.245Z</time></trkpt><trkpt lat="45.9257033" lon="13.4236233"><ele>38.4</ele><time>2026-05-03T08:38:37.245Z</time></trkpt><trkpt lat="45.92564" lon="13.42349"><ele>39.0</ele><time>2026-05-03T08:38:38.245Z</time></trkpt><trkpt lat="45.925575" lon="13.4233383"><ele>39.0</ele><time>2026-05-03T08:38:39.245Z</time></trkpt><trkpt lat="45.92551" lon="13.4231733"><ele>39.0</ele><time>2026-05-03T08:38:40.245Z</time></trkpt><trkpt lat="45.9254417" lon="13.4230167"><ele>39.0</ele><time>2026-05-03T08:38:41.245Z</time></trkpt><trkpt lat="45.9253767" lon="13.4228567"><ele>39.0</ele><time>2026-05-03T08:38:42.245Z</time></trkpt><trkpt lat="45.9253167" lon="13.422695"><ele>38.0</ele><time>2026-05-03T08:38:43.245Z</time></trkpt><trkpt lat="45.9252633" lon="13.422545"><ele>37.0</ele><time>2026-05-03T08:38:44.245Z</time></trkpt><trkpt lat="45.92521" lon="13.4224033"><ele>36.0</ele><time>2026-05-03T08:38:45.245Z</time></trkpt><trkpt lat="45.9251583" lon="13.4222567"><ele>35.0</ele><time>2026-05-03T08:38:46.245Z</time></trkpt><trkpt lat="45.9251017" lon="13.4221183"><ele>35.75</ele><time>2026-05-03T08:38:47.245Z</time></trkpt><trkpt lat="45.9250417" lon="13.4219783"><ele>36.5</ele><time>2026-05-03T08:38:48.245Z</time></trkpt><trkpt lat="45.9249833" lon="13.421835"><ele>37.25</ele><time>2026-05-03T08:38:49.245Z</time></trkpt><trkpt lat="45.9249317" lon="13.4216933"><ele>38.0</ele><time>2026-05-03T08:38:50.245Z</time></trkpt><trkpt lat="45.9248733" lon="13.4215433"><ele>38.0</ele><time>2026-05-03T08:38:51.245Z</time></trkpt><trkpt lat="45.9248167" lon="13.4213983"><ele>38.0</ele><time>2026-05-03T08:38:52.245Z</time></trkpt><trkpt lat="45.9247533" lon="13.4212633"><ele>38.0</ele><time>2026-05-03T08:38:53.246Z</time></trkpt><trkpt lat="45.9247" lon="13.4211383"><ele>38.0</ele><time>2026-05-03T08:38:54.245Z</time></trkpt><trkpt lat="45.92465" lon="13.421"><ele>38.0</ele><time>2026-05-03T08:38:55.245Z</time></trkpt><trkpt lat="45.9245933" lon="13.420855"><ele>37.0</ele><time>2026-05-03T08:38:56.245Z</time></trkpt><trkpt lat="45.924535" lon="13.42071"><ele>36.0</ele><time>2026-05-03T08:38:57.245Z</time></trkpt><trkpt lat="45.9244683" lon="13.4205533"><ele>35.0</ele><time>2026-05-03T08:38:58.245Z</time></trkpt><trkpt lat="45.9243883" lon="13.420385"><ele>34.0</ele><time>2026-05-03T08:38:59.245Z</time></trkpt><trkpt lat="45.9243217" lon="13.4202133"><ele>33.75</ele><time>2026-05-03T08:39:00.246Z</time></trkpt><trkpt lat="45.92426" lon="13.42005"><ele>33.5</ele><time>2026-05-03T08:39:01.245Z</time></trkpt><trkpt lat="45.9242033" lon="13.4198917"><ele>33.25</ele><time>2026-05-03T08:39:02.245Z</time></trkpt><trkpt lat="45.9241467" lon="13.4197233"><ele>33.0</ele><time>2026-05-03T08:39:03.245Z</time></trkpt><trkpt lat="45.924085" lon="13.41956"><ele>33.5</ele><time>2026-05-03T08:39:04.245Z</time></trkpt><trkpt lat="45.9240283" lon="13.4194033"><ele>34.0</ele><time>2026-05-03T08:39:05.245Z</time></trkpt><trkpt lat="45.9239667" lon="13.41925"><ele>34.5</ele><time>2026-05-03T08:39:06.245Z</time></trkpt><trkpt lat="45.9239233" lon="13.4191067"><ele>35.0</ele><time>2026-05-03T08:39:07.245Z</time></trkpt><trkpt lat="45.9238733" lon="13.41897"><ele>35.0</ele><time>2026-05-03T08:39:08.245Z</time></trkpt><trkpt lat="45.92382" lon="13.418835"><ele>35.0</ele><time>2026-05-03T08:39:09.245Z</time></trkpt><trkpt lat="45.9237567" lon="13.418705"><ele>35.0</ele><time>2026-05-03T08:39:10.245Z</time></trkpt><trkpt lat="45.9236917" lon="13.4185733"><ele>35.0</ele><time>2026-05-03T08:39:11.245Z</time></trkpt><trkpt lat="45.92362" lon="13.4184517"><ele>35.0</ele><time>2026-05-03T08:39:12.245Z</time></trkpt><trkpt lat="45.9235467" lon="13.4183483"><ele>34.4</ele><time>2026-05-03T08:39:13.246Z</time></trkpt><trkpt lat="45.92347" lon="13.418235"><ele>33.8</ele><time>2026-05-03T08:39:14.245Z</time></trkpt><trkpt lat="45.9233967" lon="13.4181217"><ele>33.2</ele><time>2026-05-03T08:39:15.245Z</time></trkpt><trkpt lat="45.9233333" lon="13.418015"><ele>32.6</ele><time>2026-05-03T08:39:16.245Z</time></trkpt><trkpt lat="45.9232733" lon="13.4179267"><ele>32.0</ele><time>2026-05-03T08:39:17.246Z</time></trkpt><trkpt lat="45.9232417" lon="13.4178433"><ele>31.999999999999996</ele><time>2026-05-03T08:39:18.245Z</time></trkpt><trkpt lat="45.923175" lon="13.41769"><ele>32.0</ele><time>2026-05-03T08:39:20.245Z</time></trkpt><trkpt lat="45.9231333" lon="13.4176017"><ele>32.0</ele><time>2026-05-03T08:39:21.245Z</time></trkpt><trkpt lat="45.9230883" lon="13.4175017"><ele>32.0</ele><time>2026-05-03T08:39:22.245Z</time></trkpt><trkpt lat="45.9230483" lon="13.4174067"><ele>31.999999999999996</ele><time>2026-05-03T08:39:23.245Z</time></trkpt><trkpt lat="45.92301" lon="13.4173267"><ele>32.0</ele><time>2026-05-03T08:39:24.245Z</time></trkpt><trkpt lat="45.9229717" lon="13.4172433"><ele>31.999999999999996</ele><time>2026-05-03T08:39:25.245Z</time></trkpt><trkpt lat="45.9229367" lon="13.4171567"><ele>32.0</ele><time>2026-05-03T08:39:26.245Z</time></trkpt><trkpt lat="45.922895" lon="13.4170717"><ele>32.0</ele><time>2026-05-03T08:39:27.245Z</time></trkpt><trkpt lat="45.9228433" lon="13.4169717"><ele>32.0</ele><time>2026-05-03T08:39:28.245Z</time></trkpt><trkpt lat="45.9228017" lon="13.416875"><ele>31.999999999999996</ele><time>2026-05-03T08:39:29.245Z</time></trkpt><trkpt lat="45.9227517" lon="13.4167817"><ele>32.0</ele><time>2026-05-03T08:39:30.245Z</time></trkpt><trkpt lat="45.922705" lon="13.4166867"><ele>31.833333333333332</ele><time>2026-05-03T08:39:31.245Z</time></trkpt><trkpt lat="45.9226633" lon="13.4165867"><ele>31.666666666666664</ele><time>2026-05-03T08:39:32.245Z</time></trkpt><trkpt lat="45.92262" lon="13.4164933"><ele>31.5</ele><time>2026-05-03T08:39:33.245Z</time></trkpt><trkpt lat="45.9225767" lon="13.4163967"><ele>31.333333333333336</ele><time>2026-05-03T08:39:34.245Z</time></trkpt><trkpt lat="45.92253" lon="13.4162967"><ele>31.166666666666668</ele><time>2026-05-03T08:39:35.245Z</time></trkpt><trkpt lat="45.9224883" lon="13.4162"><ele>31.0</ele><time>2026-05-03T08:39:36.245Z</time></trkpt><trkpt lat="45.9224417" lon="13.41611"><ele>31.500000000000004</ele><time>2026-05-03T08:39:37.246Z</time></trkpt><trkpt lat="45.9223967" lon="13.4160133"><ele>32.0</ele><time>2026-05-03T08:39:38.245Z</time></trkpt><trkpt lat="45.9223517" lon="13.4159117"><ele>32.5</ele><time>2026-05-03T08:39:39.245Z</time></trkpt><trkpt lat="45.9223017" lon="13.4158133"><ele>33.0</ele><time>2026-05-03T08:39:40.245Z</time></trkpt><trkpt lat="45.9222517" lon="13.415705"><ele>33.5</ele><time>2026-05-03T08:39:41.245Z</time></trkpt><trkpt lat="45.9222017" lon="13.4155967"><ele>34.0</ele><time>2026-05-03T08:39:42.245Z</time></trkpt><trkpt lat="45.92215" lon="13.4154967"><ele>33.5</ele><time>2026-05-03T08:39:43.246Z</time></trkpt><trkpt lat="45.9221033" lon="13.4154033"><ele>33.0</ele><time>2026-05-03T08:39:44.245Z</time></trkpt><trkpt lat="45.9220633" lon="13.4153117"><ele>32.5</ele><time>2026-05-03T08:39:45.245Z</time></trkpt><trkpt lat="45.9220317" lon="13.4152267"><ele>32.0</ele><time>2026-05-03T08:39:46.245Z</time></trkpt><trkpt lat="45.9219917" lon="13.41513"><ele>31.500000000000004</ele><time>2026-05-03T08:39:47.245Z</time></trkpt><trkpt lat="45.9219417" lon="13.4150283"><ele>31.0</ele><time>2026-05-03T08:39:48.245Z</time></trkpt><trkpt lat="45.921885" lon="13.4149183"><ele>31.000000000000004</ele><time>2026-05-03T08:39:49.245Z</time></trkpt><trkpt lat="45.9218267" lon="13.414815"><ele>31.0</ele><time>2026-05-03T08:39:50.245Z</time></trkpt><trkpt lat="45.9217683" lon="13.41472"><ele>31.0</ele><time>2026-05-03T08:39:51.245Z</time></trkpt><trkpt lat="45.9217167" lon="13.41465"><ele>31.0</ele><time>2026-05-03T08:39:52.245Z</time></trkpt><trkpt lat="45.921655" lon="13.4145767"><ele>31.000000000000004</ele><time>2026-05-03T08:39:53.245Z</time></trkpt><trkpt lat="45.9215983" lon="13.4145033"><ele>31.0</ele><time>2026-05-03T08:39:54.245Z</time></trkpt><trkpt lat="45.921545" lon="13.4144267"><ele>31.0</ele><time>2026-05-03T08:39:55.245Z</time></trkpt><trkpt lat="45.921485" lon="13.414355"><ele>31.000000000000004</ele><time>2026-05-03T08:39:56.245Z</time></trkpt><trkpt lat="45.92143" lon="13.414275"><ele>31.0</ele><time>2026-05-03T08:39:57.245Z</time></trkpt><trkpt lat="45.9213783" lon="13.4141933"><ele>31.0</ele><time>2026-05-03T08:39:58.245Z</time></trkpt><trkpt lat="45.921325" lon="13.4141167"><ele>31.000000000000004</ele><time>2026-05-03T08:39:59.245Z</time></trkpt><trkpt lat="45.9212733" lon="13.4140517"><ele>31.0</ele><time>2026-05-03T08:40:00.245Z</time></trkpt><trkpt lat="45.9212183" lon="13.413985"><ele>31.0</ele><time>2026-05-03T08:40:01.245Z</time></trkpt><trkpt lat="45.9211633" lon="13.413925"><ele>31.0</ele><time>2026-05-03T08:40:02.245Z</time></trkpt><trkpt lat="45.921095" lon="13.413865"><ele>31.000000000000004</ele><time>2026-05-03T08:40:03.245Z</time></trkpt><trkpt lat="45.9210367" lon="13.4138017"><ele>31.0</ele><time>2026-05-03T08:40:04.245Z</time></trkpt><trkpt lat="45.9209717" lon="13.41376"><ele>31.0</ele><time>2026-05-03T08:40:05.245Z</time></trkpt><trkpt lat="45.9209067" lon="13.4137283"><ele>31.000000000000004</ele><time>2026-05-03T08:40:06.245Z</time></trkpt><trkpt lat="45.92084" lon="13.4136933"><ele>31.0</ele><time>2026-05-03T08:40:07.245Z</time></trkpt><trkpt lat="45.9207767" lon="13.4136783"><ele>31.0</ele><time>2026-05-03T08:40:08.245Z</time></trkpt><trkpt lat="45.92067" lon="13.4136567"><ele>31.166666666666668</ele><time>2026-05-03T08:40:10.245Z</time></trkpt><trkpt lat="45.920595" lon="13.4136567"><ele>31.333333333333336</ele><time>2026-05-03T08:40:12.246Z</time></trkpt><trkpt lat="45.9205317" lon="13.4136533"><ele>31.5</ele><time>2026-05-03T08:40:14.246Z</time></trkpt><trkpt lat="45.9204167" lon="13.4136117"><ele>31.666666666666664</ele><time>2026-05-03T08:40:16.245Z</time></trkpt><trkpt lat="45.9203533" lon="13.4135967"><ele>31.833333333333332</ele><time>2026-05-03T08:40:17.245Z</time></trkpt><trkpt lat="45.9202567" lon="13.4135933"><ele>32.0</ele><time>2026-05-03T08:40:18.245Z</time></trkpt><trkpt lat="45.920145" lon="13.4136"><ele>32.0</ele><time>2026-05-03T08:40:19.245Z</time></trkpt><trkpt lat="45.9200233" lon="13.4136283"><ele>32.0</ele><time>2026-05-03T08:40:20.245Z</time></trkpt><trkpt lat="45.9198983" lon="13.4136717"><ele>32.0</ele><time>2026-05-03T08:40:21.245Z</time></trkpt><trkpt lat="45.9197733" lon="13.41373"><ele>32.0</ele><time>2026-05-03T08:40:22.245Z</time></trkpt><trkpt lat="45.9196583" lon="13.413785"><ele>32.2</ele><time>2026-05-03T08:40:23.245Z</time></trkpt><trkpt lat="45.9195483" lon="13.4138483"><ele>32.400000000000006</ele><time>2026-05-03T08:40:24.245Z</time></trkpt><trkpt lat="45.919445" lon="13.41391"><ele>32.599999999999994</ele><time>2026-05-03T08:40:25.245Z</time></trkpt><trkpt lat="45.919345" lon="13.4139633"><ele>32.8</ele><time>2026-05-03T08:40:26.245Z</time></trkpt><trkpt lat="45.91925" lon="13.4140233"><ele>33.0</ele><time>2026-05-03T08:40:27.245Z</time></trkpt><trkpt lat="45.91915" lon="13.414085"><ele>33.0</ele><time>2026-05-03T08:40:28.245Z</time></trkpt><trkpt lat="45.9190517" lon="13.4141483"><ele>33.0</ele><time>2026-05-03T08:40:29.245Z</time></trkpt><trkpt lat="45.9189583" lon="13.41422"><ele>33.0</ele><time>2026-05-03T08:40:30.245Z</time></trkpt><trkpt lat="45.9188683" lon="13.4143033"><ele>33.0</ele><time>2026-05-03T08:40:31.245Z</time></trkpt><trkpt lat="45.9187817" lon="13.4143983"><ele>33.0</ele><time>2026-05-03T08:40:32.245Z</time></trkpt><trkpt lat="45.9186983" lon="13.4145083"><ele>33.0</ele><time>2026-05-03T08:40:33.245Z</time></trkpt><trkpt lat="45.9186183" lon="13.4146217"><ele>33.0</ele><time>2026-05-03T08:40:34.245Z</time></trkpt><trkpt lat="45.9185533" lon="13.4147467"><ele>33.0</ele><time>2026-05-03T08:40:35.245Z</time></trkpt><trkpt lat="45.9185" lon="13.4148667"><ele>33.0</ele><time>2026-05-03T08:40:36.245Z</time></trkpt><trkpt lat="45.9184417" lon="13.414975"><ele>33.0</ele><time>2026-05-03T08:40:37.245Z</time></trkpt><trkpt lat="45.9183917" lon="13.4150783"><ele>33.0</ele><time>2026-05-03T08:40:38.245Z</time></trkpt><trkpt lat="45.9183417" lon="13.4151683"><ele>33.0</ele><time>2026-05-03T08:40:39.245Z</time></trkpt><trkpt lat="45.9182983" lon="13.415235"><ele>33.0</ele><time>2026-05-03T08:40:40.246Z</time></trkpt><trkpt lat="45.9182183" lon="13.4153417"><ele>33.0</ele><time>2026-05-03T08:40:42.245Z</time></trkpt><trkpt lat="45.9181567" lon="13.4154317"><ele>33.0</ele><time>2026-05-03T08:40:44.245Z</time></trkpt><trkpt lat="45.9181183" lon="13.4156117"><ele>33.0</ele><time>2026-05-03T08:40:46.245Z</time></trkpt><trkpt lat="45.9181217" lon="13.415735"><ele>33.0</ele><time>2026-05-03T08:40:47.245Z</time></trkpt><trkpt lat="45.918135" lon="13.4158767"><ele>33.0</ele><time>2026-05-03T08:40:48.245Z</time></trkpt><trkpt lat="45.91814" lon="13.4160233"><ele>33.0</ele><time>2026-05-03T08:40:49.245Z</time></trkpt><trkpt lat="45.91814" lon="13.41618"><ele>33.0</ele><time>2026-05-03T08:40:50.245Z</time></trkpt><trkpt lat="45.9181383" lon="13.4163317"><ele>33.4</ele><time>2026-05-03T08:40:51.245Z</time></trkpt><trkpt lat="45.9181417" lon="13.4164817"><ele>33.8</ele><time>2026-05-03T08:40:52.245Z</time></trkpt><trkpt lat="45.91816" lon="13.4166367"><ele>34.2</ele><time>2026-05-03T08:40:53.245Z</time></trkpt><trkpt lat="45.9181767" lon="13.416785"><ele>34.6</ele><time>2026-05-03T08:40:54.245Z</time></trkpt><trkpt lat="45.9181983" lon="13.4169217"><ele>35.0</ele><time>2026-05-03T08:40:55.245Z</time></trkpt><trkpt lat="45.91823" lon="13.4170517"><ele>35.0</ele><time>2026-05-03T08:40:56.244Z</time></trkpt><trkpt lat="45.9182633" lon="13.4171883"><ele>35.0</ele><time>2026-05-03T08:40:57.244Z</time></trkpt><trkpt lat="45.9183067" lon="13.4173383"><ele>35.0</ele><time>2026-05-03T08:40:58.244Z</time></trkpt><trkpt lat="45.9183567" lon="13.417505"><ele>35.0</ele><time>2026-05-03T08:40:59.244Z</time></trkpt><trkpt lat="45.9183983" lon="13.4176767"><ele>38.75</ele><time>2026-05-03T08:41:00.244Z</time></trkpt><trkpt lat="45.91844" lon="13.4178567"><ele>42.5</ele><time>2026-05-03T08:41:01.244Z</time></trkpt><trkpt lat="45.91845" lon="13.4180333"><ele>46.25</ele><time>2026-05-03T08:41:02.244Z</time></trkpt><trkpt lat="45.91845" lon="13.4182117"><ele>50.0</ele><time>2026-05-03T08:41:03.244Z</time></trkpt><trkpt lat="45.918435" lon="13.4183683"><ele>50.0</ele><time>2026-05-03T08:41:04.244Z</time></trkpt><trkpt lat="45.91842" lon="13.4185317"><ele>50.0</ele><time>2026-05-03T08:41:05.244Z</time></trkpt><trkpt lat="45.9184033" lon="13.41869"><ele>50.0</ele><time>2026-05-03T08:41:06.244Z</time></trkpt><trkpt lat="45.9183883" lon="13.4188533"><ele>50.0</ele><time>2026-05-03T08:41:07.244Z</time></trkpt><trkpt lat="45.9183717" lon="13.419015"><ele>46.0</ele><time>2026-05-03T08:41:08.244Z</time></trkpt><trkpt lat="45.9183617" lon="13.4191883"><ele>42.0</ele><time>2026-05-03T08:41:09.244Z</time></trkpt><trkpt lat="45.9183483" lon="13.4193533"><ele>38.0</ele><time>2026-05-03T08:41:10.244Z</time></trkpt><trkpt lat="45.918325" lon="13.4195217"><ele>34.0</ele><time>2026-05-03T08:41:11.244Z</time></trkpt><trkpt lat="45.9183117" lon="13.4196867"><ele>33.4</ele><time>2026-05-03T08:41:12.244Z</time></trkpt><trkpt lat="45.9182867" lon="13.419855"><ele>32.8</ele><time>2026-05-03T08:41:13.244Z</time></trkpt><trkpt lat="45.9182717" lon="13.4200183"><ele>32.2</ele><time>2026-05-03T08:41:14.244Z</time></trkpt><trkpt lat="45.9182667" lon="13.4201733"><ele>31.6</ele><time>2026-05-03T08:41:15.244Z</time></trkpt><trkpt lat="45.918255" lon="13.4203233"><ele>31.0</ele><time>2026-05-03T08:41:16.244Z</time></trkpt><trkpt lat="45.9182533" lon="13.42047"><ele>31.200000000000003</ele><time>2026-05-03T08:41:17.244Z</time></trkpt><trkpt lat="45.9182433" lon="13.4205933"><ele>31.400000000000002</ele><time>2026-05-03T08:41:18.245Z</time></trkpt><trkpt lat="45.9182" lon="13.4207067"><ele>31.6</ele><time>2026-05-03T08:41:19.244Z</time></trkpt><trkpt lat="45.9181333" lon="13.4208017"><ele>31.8</ele><time>2026-05-03T08:41:20.244Z</time></trkpt><trkpt lat="45.9180583" lon="13.4208767"><ele>32.0</ele><time>2026-05-03T08:41:21.244Z</time></trkpt><trkpt lat="45.9179667" lon="13.420935"><ele>32.0</ele><time>2026-05-03T08:41:22.244Z</time></trkpt><trkpt lat="45.9178583" lon="13.420985"><ele>32.0</ele><time>2026-05-03T08:41:23.244Z</time></trkpt><trkpt lat="45.9177517" lon="13.421055"><ele>32.0</ele><time>2026-05-03T08:41:24.244Z</time></trkpt><trkpt lat="45.9176483" lon="13.421135"><ele>32.0</ele><time>2026-05-03T08:41:25.244Z</time></trkpt><trkpt lat="45.9175517" lon="13.4212233"><ele>31.6</ele><time>2026-05-03T08:41:26.244Z</time></trkpt><trkpt lat="45.9174567" lon="13.421305"><ele>31.200000000000003</ele><time>2026-05-03T08:41:27.244Z</time></trkpt><trkpt lat="45.9173783" lon="13.421385"><ele>30.8</ele><time>2026-05-03T08:41:28.244Z</time></trkpt><trkpt lat="45.9172983" lon="13.4214633"><ele>30.4</ele><time>2026-05-03T08:41:29.244Z</time></trkpt><trkpt lat="45.9172167" lon="13.4215433"><ele>30.0</ele><time>2026-05-03T08:41:30.244Z</time></trkpt><trkpt lat="45.9171433" lon="13.4216233"><ele>30.0</ele><time>2026-05-03T08:41:31.244Z</time></trkpt><trkpt lat="45.9170533" lon="13.42169"><ele>30.0</ele><time>2026-05-03T08:41:32.244Z</time></trkpt><trkpt lat="45.9169567" lon="13.4217517"><ele>30.0</ele><time>2026-05-03T08:41:33.244Z</time></trkpt><trkpt lat="45.9168583" lon="13.4218083"><ele>30.0</ele><time>2026-05-03T08:41:34.244Z</time></trkpt><trkpt lat="45.9167683" lon="13.4218667"><ele>30.0</ele><time>2026-05-03T08:41:35.244Z</time></trkpt><trkpt lat="45.9166783" lon="13.42194"><ele>30.0</ele><time>2026-05-03T08:41:36.244Z</time></trkpt><trkpt lat="45.9165917" lon="13.4220217"><ele>30.0</ele><time>2026-05-03T08:41:37.244Z</time></trkpt><trkpt lat="45.9165083" lon="13.4221033"><ele>30.0</ele><time>2026-05-03T08:41:38.244Z</time></trkpt><trkpt lat="45.9164217" lon="13.4221867"><ele>30.0</ele><time>2026-05-03T08:41:39.244Z</time></trkpt><trkpt lat="45.916345" lon="13.42228"><ele>30.0</ele><time>2026-05-03T08:41:40.244Z</time></trkpt><trkpt lat="45.9162817" lon="13.4223733"><ele>30.0</ele><time>2026-05-03T08:41:41.244Z</time></trkpt><trkpt lat="45.9162617" lon="13.4224617"><ele>30.0</ele><time>2026-05-03T08:41:42.244Z</time></trkpt><trkpt lat="45.9162767" lon="13.4225783"><ele>30.0</ele><time>2026-05-03T08:41:43.244Z</time></trkpt><trkpt lat="45.916325" lon="13.4227183"><ele>30.0</ele><time>2026-05-03T08:41:44.244Z</time></trkpt><trkpt lat="45.9163783" lon="13.4228867"><ele>30.0</ele><time>2026-05-03T08:41:45.244Z</time></trkpt><trkpt lat="45.91643" lon="13.4230683"><ele>30.0</ele><time>2026-05-03T08:41:46.244Z</time></trkpt><trkpt lat="45.916475" lon="13.4232617"><ele>30.0</ele><time>2026-05-03T08:41:47.244Z</time></trkpt><trkpt lat="45.916515" lon="13.42345"><ele>30.0</ele><time>2026-05-03T08:41:48.244Z</time></trkpt><trkpt lat="45.9165567" lon="13.423635"><ele>30.0</ele><time>2026-05-03T08:41:49.244Z</time></trkpt><trkpt lat="45.9166033" lon="13.4238117"><ele>29.75</ele><time>2026-05-03T08:41:50.244Z</time></trkpt><trkpt lat="45.916645" lon="13.4239817"><ele>29.5</ele><time>2026-05-03T08:41:51.244Z</time></trkpt><trkpt lat="45.9166983" lon="13.4241417"><ele>29.25</ele><time>2026-05-03T08:41:52.244Z</time></trkpt><trkpt lat="45.9167483" lon="13.4242833"><ele>29.0</ele><time>2026-05-03T08:41:53.244Z</time></trkpt><trkpt lat="45.916785" lon="13.42443"><ele>28.833333333333332</ele><time>2026-05-03T08:41:54.244Z</time></trkpt><trkpt lat="45.91681" lon="13.4245633"><ele>28.666666666666664</ele><time>2026-05-03T08:41:55.244Z</time></trkpt><trkpt lat="45.9168367" lon="13.42468"><ele>28.5</ele><time>2026-05-03T08:41:56.244Z</time></trkpt><trkpt lat="45.9168367" lon="13.4247917"><ele>28.333333333333336</ele><time>2026-05-03T08:41:57.244Z</time></trkpt><trkpt lat="45.9168117" lon="13.4248917"><ele>28.166666666666668</ele><time>2026-05-03T08:41:58.244Z</time></trkpt><trkpt lat="45.9167583" lon="13.4249567"><ele>28.0</ele><time>2026-05-03T08:41:59.244Z</time></trkpt><trkpt lat="45.91669" lon="13.42498"><ele>28.0</ele><time>2026-05-03T08:42:00.244Z</time></trkpt><trkpt lat="45.9165833" lon="13.42497"><ele>27.999999999999996</ele><time>2026-05-03T08:42:01.244Z</time></trkpt><trkpt lat="45.9164733" lon="13.4249683"><ele>27.999999999999996</ele><time>2026-05-03T08:42:02.244Z</time></trkpt><trkpt lat="45.9163633" lon="13.425"><ele>28.0</ele><time>2026-05-03T08:42:03.244Z</time></trkpt><trkpt lat="45.9162567" lon="13.4250783"><ele>28.0</ele><time>2026-05-03T08:42:04.244Z</time></trkpt><trkpt lat="45.916165" lon="13.4251867"><ele>28.0</ele><time>2026-05-03T08:42:05.244Z</time></trkpt><trkpt lat="45.9160917" lon="13.4253017"><ele>27.999999999999996</ele><time>2026-05-03T08:42:06.244Z</time></trkpt><trkpt lat="45.9160233" lon="13.4254083"><ele>27.999999999999996</ele><time>2026-05-03T08:42:07.244Z</time></trkpt><trkpt lat="45.91595" lon="13.4254917"><ele>28.0</ele><time>2026-05-03T08:42:08.244Z</time></trkpt><trkpt lat="45.915885" lon="13.42557"><ele>28.0</ele><time>2026-05-03T08:42:09.244Z</time></trkpt><trkpt lat="45.91582" lon="13.4256433"><ele>27.666666666666668</ele><time>2026-05-03T08:42:10.244Z</time></trkpt><trkpt lat="45.9157667" lon="13.4257067"><ele>27.333333333333336</ele><time>2026-05-03T08:42:11.244Z</time></trkpt><trkpt lat="45.9157117" lon="13.425775"><ele>27.0</ele><time>2026-05-03T08:42:12.244Z</time></trkpt><trkpt lat="45.91565" lon="13.4258517"><ele>26.666666666666664</ele><time>2026-05-03T08:42:13.244Z</time></trkpt><trkpt lat="45.9155883" lon="13.4259517"><ele>26.333333333333332</ele><time>2026-05-03T08:42:14.244Z</time></trkpt><trkpt lat="45.9155333" lon="13.42607"><ele>26.0</ele><time>2026-05-03T08:42:15.244Z</time></trkpt><trkpt lat="45.91548" lon="13.426195"><ele>26.0</ele><time>2026-05-03T08:42:16.244Z</time></trkpt><trkpt lat="45.9154233" lon="13.42633"><ele>26.0</ele><time>2026-05-03T08:42:17.244Z</time></trkpt><trkpt lat="45.9153633" lon="13.426475"><ele>26.0</ele><time>2026-05-03T08:42:18.244Z</time></trkpt><trkpt lat="45.9153033" lon="13.4266183"><ele>26.0</ele><time>2026-05-03T08:42:19.245Z</time></trkpt><trkpt lat="45.9152517" lon="13.4267683"><ele>26.0</ele><time>2026-05-03T08:42:20.244Z</time></trkpt><trkpt lat="45.91519" lon="13.426915"><ele>26.0</ele><time>2026-05-03T08:42:21.244Z</time></trkpt><trkpt lat="45.9151067" lon="13.42709"><ele>26.0</ele><time>2026-05-03T08:42:22.244Z</time></trkpt><trkpt lat="45.91504" lon="13.4272717"><ele>26.0</ele><time>2026-05-03T08:42:23.244Z</time></trkpt><trkpt lat="45.914975" lon="13.4274683"><ele>26.0</ele><time>2026-05-03T08:42:24.244Z</time></trkpt><trkpt lat="45.9149" lon="13.4276583"><ele>26.0</ele><time>2026-05-03T08:42:25.244Z</time></trkpt><trkpt lat="45.91482" lon="13.4278533"><ele>26.0</ele><time>2026-05-03T08:42:26.244Z</time></trkpt><trkpt lat="45.9147267" lon="13.4280467"><ele>26.0</ele><time>2026-05-03T08:42:27.244Z</time></trkpt><trkpt lat="45.91462" lon="13.4282217"><ele>26.0</ele><time>2026-05-03T08:42:28.244Z</time></trkpt><trkpt lat="45.91451" lon="13.4283867"><ele>26.0</ele><time>2026-05-03T08:42:29.244Z</time></trkpt><trkpt lat="45.9143983" lon="13.4285317"><ele>26.0</ele><time>2026-05-03T08:42:30.244Z</time></trkpt><trkpt lat="45.9142833" lon="13.4286683"><ele>26.0</ele><time>2026-05-03T08:42:31.244Z</time></trkpt><trkpt lat="45.91416" lon="13.4288"><ele>26.0</ele><time>2026-05-03T08:42:32.244Z</time></trkpt><trkpt lat="45.9140317" lon="13.42894"><ele>26.0</ele><time>2026-05-03T08:42:33.244Z</time></trkpt><trkpt lat="45.9138967" lon="13.4290933"><ele>26.0</ele><time>2026-05-03T08:42:34.244Z</time></trkpt><trkpt lat="45.9137633" lon="13.4292617"><ele>26.0</ele><time>2026-05-03T08:42:35.244Z</time></trkpt><trkpt lat="45.9136317" lon="13.42945"><ele>25.666666666666664</ele><time>2026-05-03T08:42:36.244Z</time></trkpt><trkpt lat="45.913515" lon="13.4296683"><ele>25.333333333333336</ele><time>2026-05-03T08:42:37.244Z</time></trkpt><trkpt lat="45.913405" lon="13.4299117"><ele>25.0</ele><time>2026-05-03T08:42:38.244Z</time></trkpt><trkpt lat="45.9133" lon="13.430155"><ele>25.0</ele><time>2026-05-03T08:42:39.244Z</time></trkpt><trkpt lat="45.9131967" lon="13.4303967"><ele>25.0</ele><time>2026-05-03T08:42:40.244Z</time></trkpt><trkpt lat="45.9131017" lon="13.430635"><ele>25.0</ele><time>2026-05-03T08:42:41.244Z</time></trkpt><trkpt lat="45.912995" lon="13.4308583"><ele>24.666666666666668</ele><time>2026-05-03T08:42:42.244Z</time></trkpt><trkpt lat="45.9128667" lon="13.431065"><ele>24.333333333333336</ele><time>2026-05-03T08:42:43.245Z</time></trkpt><trkpt lat="45.9127167" lon="13.4312583"><ele>24.0</ele><time>2026-05-03T08:42:44.244Z</time></trkpt><trkpt lat="45.912565" lon="13.43144"><ele>23.333333333333332</ele><time>2026-05-03T08:42:45.244Z</time></trkpt><trkpt lat="45.9124083" lon="13.4316133"><ele>22.666666666666664</ele><time>2026-05-03T08:42:46.244Z</time></trkpt><trkpt lat="45.91224" lon="13.43179"><ele>22.0</ele><time>2026-05-03T08:42:47.244Z</time></trkpt><trkpt lat="45.9120717" lon="13.4319633"><ele>22.0</ele><time>2026-05-03T08:42:48.244Z</time></trkpt><trkpt lat="45.9119133" lon="13.43214"><ele>22.0</ele><time>2026-05-03T08:42:49.244Z</time></trkpt><trkpt lat="45.9117717" lon="13.43231"><ele>22.0</ele><time>2026-05-03T08:42:50.244Z</time></trkpt><trkpt lat="45.9116317" lon="13.4324883"><ele>22.666666666666664</ele><time>2026-05-03T08:42:51.244Z</time></trkpt><trkpt lat="45.9115" lon="13.432675"><ele>23.333333333333332</ele><time>2026-05-03T08:42:52.244Z</time></trkpt><trkpt lat="45.9113683" lon="13.4328617"><ele>24.0</ele><time>2026-05-03T08:42:53.244Z</time></trkpt><trkpt lat="45.9112433" lon="13.4330433"><ele>24.333333333333336</ele><time>2026-05-03T08:42:54.244Z</time></trkpt><trkpt lat="45.9111283" lon="13.4332133"><ele>24.666666666666668</ele><time>2026-05-03T08:42:55.244Z</time></trkpt><trkpt lat="45.9110167" lon="13.4333833"><ele>25.0</ele><time>2026-05-03T08:42:56.244Z</time></trkpt><trkpt lat="45.9109183" lon="13.43354"><ele>24.75</ele><time>2026-05-03T08:42:57.244Z</time></trkpt><trkpt lat="45.9108217" lon="13.4336983"><ele>24.5</ele><time>2026-05-03T08:42:58.244Z</time></trkpt><trkpt lat="45.910735" lon="13.4338717"><ele>24.25</ele><time>2026-05-03T08:42:59.244Z</time></trkpt><trkpt lat="45.9106417" lon="13.4340367"><ele>24.0</ele><time>2026-05-03T08:43:00.244Z</time></trkpt><trkpt lat="45.9105467" lon="13.43422"><ele>23.75</ele><time>2026-05-03T08:43:01.244Z</time></trkpt><trkpt lat="45.9104533" lon="13.4344017"><ele>23.5</ele><time>2026-05-03T08:43:02.244Z</time></trkpt><trkpt lat="45.9103667" lon="13.43457"><ele>23.25</ele><time>2026-05-03T08:43:03.244Z</time></trkpt><trkpt lat="45.91029" lon="13.43472"><ele>23.0</ele><time>2026-05-03T08:43:04.244Z</time></trkpt><trkpt lat="45.9102283" lon="13.4348533"><ele>23.0</ele><time>2026-05-03T08:43:05.244Z</time></trkpt><trkpt lat="45.91017" lon="13.4349767"><ele>23.0</ele><time>2026-05-03T08:43:06.244Z</time></trkpt><trkpt lat="45.910125" lon="13.43507"><ele>23.0</ele><time>2026-05-03T08:43:07.244Z</time></trkpt><trkpt lat="45.9100917" lon="13.4351567"><ele>23.0</ele><time>2026-05-03T08:43:08.244Z</time></trkpt><trkpt lat="45.9100683" lon="13.4352417"><ele>23.0</ele><time>2026-05-03T08:43:09.244Z</time></trkpt><trkpt lat="45.9100433" lon="13.435425"><ele>23.0</ele><time>2026-05-03T08:43:11.244Z</time></trkpt><trkpt lat="45.91001" lon="13.4355267"><ele>23.2</ele><time>2026-05-03T08:43:12.244Z</time></trkpt><trkpt lat="45.9099583" lon="13.43564"><ele>23.4</ele><time>2026-05-03T08:43:13.244Z</time></trkpt><trkpt lat="45.9098967" lon="13.43576"><ele>23.599999999999998</ele><time>2026-05-03T08:43:14.244Z</time></trkpt><trkpt lat="45.9098383" lon="13.4358767"><ele>23.799999999999997</ele><time>2026-05-03T08:43:15.244Z</time></trkpt><trkpt lat="45.909795" lon="13.4359833"><ele>24.0</ele><time>2026-05-03T08:43:16.244Z</time></trkpt><trkpt lat="45.9097617" lon="13.43609"><ele>24.0</ele><time>2026-05-03T08:43:17.244Z</time></trkpt><trkpt lat="45.909755" lon="13.4362117"><ele>24.0</ele><time>2026-05-03T08:43:18.244Z</time></trkpt><trkpt lat="45.9097733" lon="13.4363267"><ele>24.0</ele><time>2026-05-03T08:43:19.244Z</time></trkpt><trkpt lat="45.90982" lon="13.43644"><ele>24.0</ele><time>2026-05-03T08:43:20.244Z</time></trkpt><trkpt lat="45.9098817" lon="13.436565"><ele>24.0</ele><time>2026-05-03T08:43:21.244Z</time></trkpt><trkpt lat="45.9099333" lon="13.4366883"><ele>23.799999999999997</ele><time>2026-05-03T08:43:22.244Z</time></trkpt><trkpt lat="45.9099783" lon="13.4368017"><ele>23.599999999999998</ele><time>2026-05-03T08:43:23.244Z</time></trkpt><trkpt lat="45.9100233" lon="13.4369133"><ele>23.4</ele><time>2026-05-03T08:43:24.244Z</time></trkpt><trkpt lat="45.9100667" lon="13.4370333"><ele>23.2</ele><time>2026-05-03T08:43:25.244Z</time></trkpt><trkpt lat="45.91011" lon="13.437165"><ele>23.0</ele><time>2026-05-03T08:43:26.244Z</time></trkpt><trkpt lat="45.91016" lon="13.43731"><ele>23.5</ele><time>2026-05-03T08:43:27.244Z</time></trkpt><trkpt lat="45.91022" lon="13.43745"><ele>24.0</ele><time>2026-05-03T08:43:28.244Z</time></trkpt><trkpt lat="45.9102933" lon="13.4375883"><ele>24.5</ele><time>2026-05-03T08:43:29.244Z</time></trkpt><trkpt lat="45.9103817" lon="13.4377083"><ele>25.0</ele><time>2026-05-03T08:43:30.244Z</time></trkpt><trkpt lat="45.9104933" lon="13.4378217"><ele>25.0</ele><time>2026-05-03T08:43:31.244Z</time></trkpt><trkpt lat="45.9106083" lon="13.4379267"><ele>25.0</ele><time>2026-05-03T08:43:32.244Z</time></trkpt><trkpt lat="45.9107233" lon="13.4380233"><ele>25.0</ele><time>2026-05-03T08:43:33.244Z</time></trkpt><trkpt lat="45.9108317" lon="13.4381233"><ele>25.0</ele><time>2026-05-03T08:43:34.244Z</time></trkpt><trkpt lat="45.91095" lon="13.4382183"><ele>25.75</ele><time>2026-05-03T08:43:35.244Z</time></trkpt><trkpt lat="45.9110783" lon="13.4383117"><ele>26.5</ele><time>2026-05-03T08:43:36.244Z</time></trkpt><trkpt lat="45.91121" lon="13.438385"><ele>27.25</ele><time>2026-05-03T08:43:37.244Z</time></trkpt><trkpt lat="45.911325" lon="13.4384617"><ele>28.0</ele><time>2026-05-03T08:43:38.244Z</time></trkpt><trkpt lat="45.91143" lon="13.4385383"><ele>28.0</ele><time>2026-05-03T08:43:39.244Z</time></trkpt><trkpt lat="45.9115283" lon="13.4386217"><ele>28.0</ele><time>2026-05-03T08:43:40.244Z</time></trkpt><trkpt lat="45.9116217" lon="13.438735"><ele>28.0</ele><time>2026-05-03T08:43:41.244Z</time></trkpt><trkpt lat="45.9117017" lon="13.4388633"><ele>28.0</ele><time>2026-05-03T08:43:42.244Z</time></trkpt><trkpt lat="45.911785" lon="13.439"><ele>28.0</ele><time>2026-05-03T08:43:43.244Z</time></trkpt><trkpt lat="45.9118783" lon="13.4391283"><ele>28.0</ele><time>2026-05-03T08:43:44.244Z</time></trkpt><trkpt lat="45.9119883" lon="13.43925"><ele>28.0</ele><time>2026-05-03T08:43:45.244Z</time></trkpt><trkpt lat="45.9120883" lon="13.439385"><ele>28.0</ele><time>2026-05-03T08:43:46.244Z</time></trkpt><trkpt lat="45.9121833" lon="13.43953"><ele>28.5</ele><time>2026-05-03T08:43:47.244Z</time></trkpt><trkpt lat="45.9122667" lon="13.439685"><ele>29.0</ele><time>2026-05-03T08:43:48.244Z</time></trkpt><trkpt lat="45.9123483" lon="13.43984"><ele>29.5</ele><time>2026-05-03T08:43:49.244Z</time></trkpt><trkpt lat="45.9124067" lon="13.4399967"><ele>30.0</ele><time>2026-05-03T08:43:50.244Z</time></trkpt><trkpt lat="45.9124667" lon="13.4401517"><ele>30.0</ele><time>2026-05-03T08:43:51.244Z</time></trkpt><trkpt lat="45.91254" lon="13.44032"><ele>30.0</ele><time>2026-05-03T08:43:52.244Z</time></trkpt><trkpt lat="45.9126067" lon="13.440485"><ele>30.0</ele><time>2026-05-03T08:43:53.244Z</time></trkpt><trkpt lat="45.9126717" lon="13.4406517"><ele>30.0</ele><time>2026-05-03T08:43:54.244Z</time></trkpt><trkpt lat="45.91273" lon="13.440815"><ele>30.0</ele><time>2026-05-03T08:43:55.244Z</time></trkpt><trkpt lat="45.9127867" lon="13.440985"><ele>30.0</ele><time>2026-05-03T08:43:56.244Z</time></trkpt><trkpt lat="45.912845" lon="13.441155"><ele>30.0</ele><time>2026-05-03T08:43:57.244Z</time></trkpt><trkpt lat="45.912905" lon="13.441325"><ele>30.0</ele><time>2026-05-03T08:43:58.244Z</time></trkpt><trkpt lat="45.9129733" lon="13.44149"><ele>30.0</ele><time>2026-05-03T08:43:59.244Z</time></trkpt><trkpt lat="45.9130467" lon="13.4416467"><ele>30.0</ele><time>2026-05-03T08:44:00.244Z</time></trkpt><trkpt lat="45.9131367" lon="13.4417883"><ele>30.0</ele><time>2026-05-03T08:44:01.244Z</time></trkpt><trkpt lat="45.9132517" lon="13.4418983"><ele>30.0</ele><time>2026-05-03T08:44:02.244Z</time></trkpt><trkpt lat="45.9133783" lon="13.4419917"><ele>30.0</ele><time>2026-05-03T08:44:03.244Z</time></trkpt><trkpt lat="45.9134783" lon="13.442085"><ele>30.0</ele><time>2026-05-03T08:44:04.244Z</time></trkpt><trkpt lat="45.9135683" lon="13.4421667"><ele>30.0</ele><time>2026-05-03T08:44:05.244Z</time></trkpt><trkpt lat="45.9136767" lon="13.4422383"><ele>30.0</ele><time>2026-05-03T08:44:06.244Z</time></trkpt><trkpt lat="45.913805" lon="13.4422933"><ele>30.0</ele><time>2026-05-03T08:44:07.244Z</time></trkpt><trkpt lat="45.9139467" lon="13.44234"><ele>30.0</ele><time>2026-05-03T08:44:08.244Z</time></trkpt><trkpt lat="45.9140783" lon="13.4423917"><ele>30.0</ele><time>2026-05-03T08:44:09.244Z</time></trkpt><trkpt lat="45.9142217" lon="13.442425"><ele>30.0</ele><time>2026-05-03T08:44:10.244Z</time></trkpt><trkpt lat="45.9143583" lon="13.44245"><ele>29.75</ele><time>2026-05-03T08:44:11.244Z</time></trkpt><trkpt lat="45.9144917" lon="13.442485"><ele>29.5</ele><time>2026-05-03T08:44:12.244Z</time></trkpt><trkpt lat="45.9146183" lon="13.4425233"><ele>29.25</ele><time>2026-05-03T08:44:13.244Z</time></trkpt><trkpt lat="45.91474" lon="13.442585"><ele>29.0</ele><time>2026-05-03T08:44:14.244Z</time></trkpt><trkpt lat="45.914855" lon="13.44266"><ele>29.0</ele><time>2026-05-03T08:44:15.244Z</time></trkpt><trkpt lat="45.9149683" lon="13.4427317"><ele>29.0</ele><time>2026-05-03T08:44:16.244Z</time></trkpt><trkpt lat="45.915085" lon="13.4428033"><ele>29.0</ele><time>2026-05-03T08:44:17.244Z</time></trkpt><trkpt lat="45.9151967" lon="13.4428767"><ele>29.0</ele><time>2026-05-03T08:44:18.244Z</time></trkpt><trkpt lat="45.9153117" lon="13.4429533"><ele>28.5</ele><time>2026-05-03T08:44:19.244Z</time></trkpt><trkpt lat="45.91543" lon="13.4430283"><ele>28.0</ele><time>2026-05-03T08:44:20.245Z</time></trkpt><trkpt lat="45.9155533" lon="13.4431083"><ele>27.5</ele><time>2026-05-03T08:44:21.244Z</time></trkpt><trkpt lat="45.91568" lon="13.4431867"><ele>27.0</ele><time>2026-05-03T08:44:22.244Z</time></trkpt><trkpt lat="45.9158167" lon="13.4432517"><ele>27.5</ele><time>2026-05-03T08:44:23.244Z</time></trkpt><trkpt lat="45.915945" lon="13.4433"><ele>28.0</ele><time>2026-05-03T08:44:24.244Z</time></trkpt><trkpt lat="45.9160817" lon="13.44333"><ele>28.5</ele><time>2026-05-03T08:44:25.244Z</time></trkpt><trkpt lat="45.9162117" lon="13.4433567"><ele>29.0</ele><time>2026-05-03T08:44:26.244Z</time></trkpt><trkpt lat="45.91634" lon="13.443385"><ele>29.0</ele><time>2026-05-03T08:44:27.244Z</time></trkpt><trkpt lat="45.9164633" lon="13.443405"><ele>29.0</ele><time>2026-05-03T08:44:28.245Z</time></trkpt><trkpt lat="45.9165833" lon="13.44344"><ele>29.0</ele><time>2026-05-03T08:44:29.244Z</time></trkpt><trkpt lat="45.91671" lon="13.4434783"><ele>29.0</ele><time>2026-05-03T08:44:30.244Z</time></trkpt><trkpt lat="45.916845" lon="13.443525"><ele>29.5</ele><time>2026-05-03T08:44:31.244Z</time></trkpt><trkpt lat="45.9169833" lon="13.4435683"><ele>30.0</ele><time>2026-05-03T08:44:32.244Z</time></trkpt><trkpt lat="45.9171167" lon="13.44361"><ele>30.5</ele><time>2026-05-03T08:44:33.244Z</time></trkpt><trkpt lat="45.91725" lon="13.443635"><ele>31.0</ele><time>2026-05-03T08:44:34.244Z</time></trkpt><trkpt lat="45.9173933" lon="13.44365"><ele>31.0</ele><time>2026-05-03T08:44:35.244Z</time></trkpt><trkpt lat="45.9175167" lon="13.443645"><ele>31.0</ele><time>2026-05-03T08:44:36.244Z</time></trkpt><trkpt lat="45.9176283" lon="13.44363"><ele>31.0</ele><time>2026-05-03T08:44:37.244Z</time></trkpt><trkpt lat="45.91774" lon="13.4436083"><ele>31.0</ele><time>2026-05-03T08:44:38.244Z</time></trkpt><trkpt lat="45.917845" lon="13.4435933"><ele>30.6</ele><time>2026-05-03T08:44:39.244Z</time></trkpt><trkpt lat="45.9179517" lon="13.4435817"><ele>30.200000000000003</ele><time>2026-05-03T08:44:40.244Z</time></trkpt><trkpt lat="45.918055" lon="13.4435817"><ele>29.799999999999997</ele><time>2026-05-03T08:44:41.244Z</time></trkpt><trkpt lat="45.918155" lon="13.4435883"><ele>29.4</ele><time>2026-05-03T08:44:42.244Z</time></trkpt><trkpt lat="45.918255" lon="13.4436283"><ele>29.0</ele><time>2026-05-03T08:44:43.245Z</time></trkpt><trkpt lat="45.9183517" lon="13.4436867"><ele>28.799999999999997</ele><time>2026-05-03T08:44:44.244Z</time></trkpt><trkpt lat="45.9184483" lon="13.4437567"><ele>28.599999999999998</ele><time>2026-05-03T08:44:45.244Z</time></trkpt><trkpt lat="45.918525" lon="13.4438517"><ele>28.4</ele><time>2026-05-03T08:44:46.244Z</time></trkpt><trkpt lat="45.9185883" lon="13.4439567"><ele>28.2</ele><time>2026-05-03T08:44:47.244Z</time></trkpt><trkpt lat="45.9186417" lon="13.444065"><ele>28.0</ele><time>2026-05-03T08:44:48.244Z</time></trkpt><trkpt lat="45.918705" lon="13.4441967"><ele>28.0</ele><time>2026-05-03T08:44:49.244Z</time></trkpt><trkpt lat="45.9187767" lon="13.4443483"><ele>28.0</ele><time>2026-05-03T08:44:50.244Z</time></trkpt><trkpt lat="45.91885" lon="13.4445117"><ele>28.0</ele><time>2026-05-03T08:44:51.244Z</time></trkpt><trkpt lat="45.918895" lon="13.4446567"><ele>28.0</ele><time>2026-05-03T08:44:52.244Z</time></trkpt><trkpt lat="45.91894" lon="13.444795"><ele>28.0</ele><time>2026-05-03T08:44:53.244Z</time></trkpt><trkpt lat="45.918975" lon="13.4449317"><ele>27.999999999999996</ele><time>2026-05-03T08:44:54.244Z</time></trkpt><trkpt lat="45.91901" lon="13.4450817"><ele>27.999999999999996</ele><time>2026-05-03T08:44:55.244Z</time></trkpt><trkpt lat="45.9190467" lon="13.4452517"><ele>28.0</ele><time>2026-05-03T08:44:56.245Z</time></trkpt><trkpt lat="45.91908" lon="13.4454033"><ele>28.0</ele><time>2026-05-03T08:44:57.244Z</time></trkpt><trkpt lat="45.91911" lon="13.4455467"><ele>27.799999999999997</ele><time>2026-05-03T08:44:58.244Z</time></trkpt><trkpt lat="45.919135" lon="13.4456783"><ele>27.599999999999998</ele><time>2026-05-03T08:44:59.244Z</time></trkpt><trkpt lat="45.9191683" lon="13.4457983"><ele>27.400000000000002</ele><time>2026-05-03T08:45:00.244Z</time></trkpt><trkpt lat="45.9192" lon="13.44593"><ele>27.200000000000003</ele><time>2026-05-03T08:45:01.244Z</time></trkpt><trkpt lat="45.919225" lon="13.4460833"><ele>27.0</ele><time>2026-05-03T08:45:02.244Z</time></trkpt><trkpt lat="45.919255" lon="13.446245"><ele>27.0</ele><time>2026-05-03T08:45:03.244Z</time></trkpt><trkpt lat="45.9192883" lon="13.4464117"><ele>27.0</ele><time>2026-05-03T08:45:04.244Z</time></trkpt><trkpt lat="45.9193267" lon="13.4465867"><ele>27.0</ele><time>2026-05-03T08:45:05.244Z</time></trkpt><trkpt lat="45.9193583" lon="13.44677"><ele>27.0</ele><time>2026-05-03T08:45:06.244Z</time></trkpt><trkpt lat="45.91939" lon="13.4469417"><ele>27.0</ele><time>2026-05-03T08:45:07.244Z</time></trkpt><trkpt lat="45.9194217" lon="13.4471233"><ele>27.0</ele><time>2026-05-03T08:45:08.244Z</time></trkpt><trkpt lat="45.91945" lon="13.4473067"><ele>27.0</ele><time>2026-05-03T08:45:09.244Z</time></trkpt><trkpt lat="45.9194767" lon="13.4474917"><ele>27.0</ele><time>2026-05-03T08:45:10.244Z</time></trkpt><trkpt lat="45.9194983" lon="13.4476767"><ele>27.0</ele><time>2026-05-03T08:45:11.244Z</time></trkpt><trkpt lat="45.9195283" lon="13.4478633"><ele>27.0</ele><time>2026-05-03T08:45:12.244Z</time></trkpt><trkpt lat="45.9195567" lon="13.4480633"><ele>27.0</ele><time>2026-05-03T08:45:13.244Z</time></trkpt><trkpt lat="45.9195733" lon="13.4482483"><ele>27.0</ele><time>2026-05-03T08:45:14.244Z</time></trkpt><trkpt lat="45.919585" lon="13.44843"><ele>27.0</ele><time>2026-05-03T08:45:15.244Z</time></trkpt><trkpt lat="45.9195917" lon="13.44861"><ele>27.0</ele><time>2026-05-03T08:45:16.244Z</time></trkpt><trkpt lat="45.9195933" lon="13.4487933"><ele>27.0</ele><time>2026-05-03T08:45:17.244Z</time></trkpt><trkpt lat="45.919605" lon="13.448985"><ele>27.0</ele><time>2026-05-03T08:45:18.244Z</time></trkpt><trkpt lat="45.9196183" lon="13.4491767"><ele>27.0</ele><time>2026-05-03T08:45:19.244Z</time></trkpt><trkpt lat="45.9196267" lon="13.44937"><ele>27.0</ele><time>2026-05-03T08:45:20.244Z</time></trkpt><trkpt lat="45.9196367" lon="13.4495633"><ele>27.0</ele><time>2026-05-03T08:45:21.244Z</time></trkpt><trkpt lat="45.9196433" lon="13.4497533"><ele>27.0</ele><time>2026-05-03T08:45:22.244Z</time></trkpt><trkpt lat="45.9196517" lon="13.4499283"><ele>27.0</ele><time>2026-05-03T08:45:23.244Z</time></trkpt><trkpt lat="45.9196717" lon="13.450105"><ele>27.0</ele><time>2026-05-03T08:45:24.244Z</time></trkpt><trkpt lat="45.9196783" lon="13.4502817"><ele>27.0</ele><time>2026-05-03T08:45:25.244Z</time></trkpt><trkpt lat="45.9196817" lon="13.450475"><ele>27.0</ele><time>2026-05-03T08:45:26.244Z</time></trkpt><trkpt lat="45.9196867" lon="13.4506633"><ele>27.25</ele><time>2026-05-03T08:45:27.244Z</time></trkpt><trkpt lat="45.9196933" lon="13.45087"><ele>27.5</ele><time>2026-05-03T08:45:28.244Z</time></trkpt><trkpt lat="45.9197133" lon="13.451085"><ele>27.75</ele><time>2026-05-03T08:45:29.244Z</time></trkpt><trkpt lat="45.9197367" lon="13.4512867"><ele>28.0</ele><time>2026-05-03T08:45:30.244Z</time></trkpt><trkpt lat="45.91977" lon="13.45148"><ele>28.0</ele><time>2026-05-03T08:45:31.244Z</time></trkpt><trkpt lat="45.91981" lon="13.4516733"><ele>28.0</ele><time>2026-05-03T08:45:32.244Z</time></trkpt><trkpt lat="45.9198117" lon="13.45188"><ele>28.0</ele><time>2026-05-03T08:45:33.244Z</time></trkpt><trkpt lat="45.9198283" lon="13.45209"><ele>28.0</ele><time>2026-05-03T08:45:34.244Z</time></trkpt><trkpt lat="45.9198617" lon="13.452305"><ele>28.0</ele><time>2026-05-03T08:45:35.244Z</time></trkpt><trkpt lat="45.919905" lon="13.4525133"><ele>28.0</ele><time>2026-05-03T08:45:36.244Z</time></trkpt><trkpt lat="45.9199467" lon="13.452705"><ele>28.0</ele><time>2026-05-03T08:45:37.244Z</time></trkpt><trkpt lat="45.919985" lon="13.4528733"><ele>28.0</ele><time>2026-05-03T08:45:38.244Z</time></trkpt><trkpt lat="45.9200233" lon="13.453015"><ele>28.166666666666668</ele><time>2026-05-03T08:45:39.244Z</time></trkpt><trkpt lat="45.9200467" lon="13.453145"><ele>28.333333333333336</ele><time>2026-05-03T08:45:40.244Z</time></trkpt><trkpt lat="45.9200667" lon="13.453255"><ele>28.5</ele><time>2026-05-03T08:45:41.244Z</time></trkpt><trkpt lat="45.9201067" lon="13.4533967"><ele>28.666666666666664</ele><time>2026-05-03T08:45:43.244Z</time></trkpt><trkpt lat="45.9201517" lon="13.4534717"><ele>28.833333333333332</ele><time>2026-05-03T08:45:46.244Z</time></trkpt><trkpt lat="45.920235" lon="13.45346"><ele>29.0</ele><time>2026-05-03T08:45:49.244Z</time></trkpt><trkpt lat="45.9203467" lon="13.4534133"><ele>29.6</ele><time>2026-05-03T08:45:51.244Z</time></trkpt><trkpt lat="45.92046" lon="13.4533567"><ele>30.2</ele><time>2026-05-03T08:45:53.244Z</time></trkpt><trkpt lat="45.9205417" lon="13.4533967"><ele>30.800000000000004</ele><time>2026-05-03T08:45:55.244Z</time></trkpt><trkpt lat="45.9205833" lon="13.4535683"><ele>31.400000000000002</ele><time>2026-05-03T08:45:57.244Z</time></trkpt><trkpt lat="45.9205867" lon="13.4537067"><ele>32.0</ele><time>2026-05-03T08:45:58.244Z</time></trkpt><trkpt lat="45.920585" lon="13.4538567"><ele>32.0</ele><time>2026-05-03T08:45:59.244Z</time></trkpt><trkpt lat="45.9206017" lon="13.4540033"><ele>32.0</ele><time>2026-05-03T08:46:00.244Z</time></trkpt><trkpt lat="45.9206317" lon="13.4541383"><ele>32.0</ele><time>2026-05-03T08:46:01.244Z</time></trkpt><trkpt lat="45.9206717" lon="13.4542817"><ele>32.0</ele><time>2026-05-03T08:46:02.244Z</time></trkpt><trkpt lat="45.9207117" lon="13.4544233"><ele>32.0</ele><time>2026-05-03T08:46:03.244Z</time></trkpt><trkpt lat="45.92074" lon="13.454565"><ele>31.8</ele><time>2026-05-03T08:46:04.244Z</time></trkpt><trkpt lat="45.9207567" lon="13.4547067"><ele>31.6</ele><time>2026-05-03T08:46:05.244Z</time></trkpt><trkpt lat="45.92077" lon="13.45485"><ele>31.400000000000002</ele><time>2026-05-03T08:46:06.244Z</time></trkpt><trkpt lat="45.920785" lon="13.4549867"><ele>31.200000000000003</ele><time>2026-05-03T08:46:07.244Z</time></trkpt><trkpt lat="45.9208033" lon="13.4551117"><ele>31.0</ele><time>2026-05-03T08:46:08.244Z</time></trkpt><trkpt lat="45.92084" lon="13.455225"><ele>31.000000000000004</ele><time>2026-05-03T08:46:09.244Z</time></trkpt><trkpt lat="45.9208983" lon="13.4553433"><ele>31.0</ele><time>2026-05-03T08:46:10.244Z</time></trkpt><trkpt lat="45.92096" lon="13.45546"><ele>31.0</ele><time>2026-05-03T08:46:11.244Z</time></trkpt><trkpt lat="45.9210133" lon="13.455565"><ele>31.0</ele><time>2026-05-03T08:46:12.244Z</time></trkpt><trkpt lat="45.92106" lon="13.45565"><ele>31.000000000000004</ele><time>2026-05-03T08:46:13.244Z</time></trkpt><trkpt lat="45.9211033" lon="13.4557333"><ele>31.0</ele><time>2026-05-03T08:46:14.244Z</time></trkpt><trkpt lat="45.9211467" lon="13.455815"><ele>31.166666666666668</ele><time>2026-05-03T08:46:15.244Z</time></trkpt><trkpt lat="45.9212133" lon="13.4559217"><ele>31.333333333333336</ele><time>2026-05-03T08:46:17.244Z</time></trkpt><trkpt lat="45.9212783" lon="13.4559917"><ele>31.5</ele><time>2026-05-03T08:46:20.244Z</time></trkpt><trkpt lat="45.9213533" lon="13.4560667"><ele>31.666666666666664</ele><time>2026-05-03T08:46:22.244Z</time></trkpt><trkpt lat="45.92141" lon="13.456145"><ele>31.833333333333332</ele><time>2026-05-03T08:46:23.244Z</time></trkpt><trkpt lat="45.9214717" lon="13.45624"><ele>32.0</ele><time>2026-05-03T08:46:24.244Z</time></trkpt><trkpt lat="45.921535" lon="13.4563583"><ele>32.0</ele><time>2026-05-03T08:46:25.244Z</time></trkpt><trkpt lat="45.92161" lon="13.4564917"><ele>32.0</ele><time>2026-05-03T08:46:26.245Z</time></trkpt><trkpt lat="45.9216983" lon="13.4566283"><ele>32.0</ele><time>2026-05-03T08:46:27.244Z</time></trkpt><trkpt lat="45.921795" lon="13.4567583"><ele>32.0</ele><time>2026-05-03T08:46:28.244Z</time></trkpt><trkpt lat="45.92189" lon="13.4568933"><ele>32.25</ele><time>2026-05-03T08:46:29.244Z</time></trkpt><trkpt lat="45.9219833" lon="13.4570317"><ele>32.5</ele><time>2026-05-03T08:46:30.244Z</time></trkpt><trkpt lat="45.922085" lon="13.4571683"><ele>32.75</ele><time>2026-05-03T08:46:31.244Z</time></trkpt><trkpt lat="45.9221933" lon="13.4573067"><ele>33.0</ele><time>2026-05-03T08:46:32.244Z</time></trkpt><trkpt lat="45.92231" lon="13.45745"><ele>33.0</ele><time>2026-05-03T08:46:33.244Z</time></trkpt><trkpt lat="45.92243" lon="13.45759"><ele>33.0</ele><time>2026-05-03T08:46:34.244Z</time></trkpt><trkpt lat="45.9225583" lon="13.4577"><ele>33.0</ele><time>2026-05-03T08:46:35.244Z</time></trkpt><trkpt lat="45.9226933" lon="13.4578017"><ele>33.333333333333336</ele><time>2026-05-03T08:46:36.244Z</time></trkpt><trkpt lat="45.9228333" lon="13.4579117"><ele>33.66666666666667</ele><time>2026-05-03T08:46:37.244Z</time></trkpt><trkpt lat="45.922975" lon="13.4580383"><ele>34.0</ele><time>2026-05-03T08:46:38.244Z</time></trkpt><trkpt lat="45.9231133" lon="13.4581567"><ele>33.5</ele><time>2026-05-03T08:46:39.244Z</time></trkpt><trkpt lat="45.9232217" lon="13.458275"><ele>33.0</ele><time>2026-05-03T08:46:40.244Z</time></trkpt><trkpt lat="45.9233183" lon="13.4583983"><ele>32.5</ele><time>2026-05-03T08:46:41.244Z</time></trkpt><trkpt lat="45.923415" lon="13.4585283"><ele>32.0</ele><time>2026-05-03T08:46:42.244Z</time></trkpt><trkpt lat="45.9235" lon="13.4586617"><ele>32.0</ele><time>2026-05-03T08:46:43.244Z</time></trkpt><trkpt lat="45.9235783" lon="13.4588"><ele>32.0</ele><time>2026-05-03T08:46:44.244Z</time></trkpt><trkpt lat="45.9236583" lon="13.4589517"><ele>32.0</ele><time>2026-05-03T08:46:45.244Z</time></trkpt><trkpt lat="45.923735" lon="13.4591117"><ele>32.0</ele><time>2026-05-03T08:46:46.244Z</time></trkpt><trkpt lat="45.9238" lon="13.4592817"><ele>32.0</ele><time>2026-05-03T08:46:47.244Z</time></trkpt><trkpt lat="45.9238667" lon="13.45944"><ele>32.0</ele><time>2026-05-03T08:46:48.244Z</time></trkpt><trkpt lat="45.9239333" lon="13.459605"><ele>32.0</ele><time>2026-05-03T08:46:49.244Z</time></trkpt><trkpt lat="45.92399" lon="13.4597733"><ele>32.0</ele><time>2026-05-03T08:46:50.244Z</time></trkpt><trkpt lat="45.9240283" lon="13.459955"><ele>32.0</ele><time>2026-05-03T08:46:51.244Z</time></trkpt><trkpt lat="45.924065" lon="13.4601233"><ele>32.0</ele><time>2026-05-03T08:46:52.244Z</time></trkpt><trkpt lat="45.9240883" lon="13.46029"><ele>32.0</ele><time>2026-05-03T08:46:53.245Z</time></trkpt><trkpt lat="45.9241033" lon="13.4604533"><ele>32.0</ele><time>2026-05-03T08:46:54.244Z</time></trkpt><trkpt lat="45.9241117" lon="13.4606167"><ele>32.0</ele><time>2026-05-03T08:46:55.244Z</time></trkpt><trkpt lat="45.9241283" lon="13.4608017"><ele>32.0</ele><time>2026-05-03T08:46:56.244Z</time></trkpt><trkpt lat="45.9241567" lon="13.461005"><ele>32.0</ele><time>2026-05-03T08:46:57.244Z</time></trkpt><trkpt lat="45.9241933" lon="13.4612183"><ele>32.0</ele><time>2026-05-03T08:46:58.244Z</time></trkpt><trkpt lat="45.92423" lon="13.4614317"><ele>32.0</ele><time>2026-05-03T08:46:59.244Z</time></trkpt><trkpt lat="45.9242533" lon="13.46164"><ele>32.0</ele><time>2026-05-03T08:47:00.244Z</time></trkpt><trkpt lat="45.9242783" lon="13.46185"><ele>32.0</ele><time>2026-05-03T08:47:01.244Z</time></trkpt><trkpt lat="45.9243117" lon="13.46206"><ele>32.0</ele><time>2026-05-03T08:47:02.244Z</time></trkpt><trkpt lat="45.9243333" lon="13.462275"><ele>32.0</ele><time>2026-05-03T08:47:03.244Z</time></trkpt><trkpt lat="45.9243633" lon="13.462495"><ele>32.0</ele><time>2026-05-03T08:47:04.244Z</time></trkpt><trkpt lat="45.9243983" lon="13.4627167"><ele>32.0</ele><time>2026-05-03T08:47:05.244Z</time></trkpt><trkpt lat="45.9244317" lon="13.4629317"><ele>32.0</ele><time>2026-05-03T08:47:06.244Z</time></trkpt><trkpt lat="45.9244767" lon="13.4631333"><ele>32.0</ele><time>2026-05-03T08:47:07.244Z</time></trkpt><trkpt lat="45.9245283" lon="13.4633317"><ele>32.0</ele><time>2026-05-03T08:47:08.245Z</time></trkpt><trkpt lat="45.9245867" lon="13.4635417"><ele>32.0</ele><time>2026-05-03T08:47:09.244Z</time></trkpt><trkpt lat="45.9246433" lon="13.4637417"><ele>32.0</ele><time>2026-05-03T08:47:10.244Z</time></trkpt><trkpt lat="45.9246933" lon="13.4639267"><ele>32.0</ele><time>2026-05-03T08:47:11.244Z</time></trkpt><trkpt lat="45.92475" lon="13.4641117"><ele>32.0</ele><time>2026-05-03T08:47:12.244Z</time></trkpt><trkpt lat="45.9248083" lon="13.4642917"><ele>32.0</ele><time>2026-05-03T08:47:13.244Z</time></trkpt><trkpt lat="45.9248717" lon="13.4644717"><ele>32.0</ele><time>2026-05-03T08:47:14.244Z</time></trkpt><trkpt lat="45.9249433" lon="13.4646617"><ele>32.0</ele><time>2026-05-03T08:47:15.244Z</time></trkpt><trkpt lat="45.92501" lon="13.46485"><ele>32.0</ele><time>2026-05-03T08:47:16.244Z</time></trkpt><trkpt lat="45.92507" lon="13.465045"><ele>32.0</ele><time>2026-05-03T08:47:17.244Z</time></trkpt><trkpt lat="45.9251283" lon="13.4652317"><ele>32.0</ele><time>2026-05-03T08:47:18.244Z</time></trkpt><trkpt lat="45.9251883" lon="13.46541"><ele>32.0</ele><time>2026-05-03T08:47:19.244Z</time></trkpt><trkpt lat="45.925245" lon="13.46558"><ele>32.0</ele><time>2026-05-03T08:47:20.244Z</time></trkpt><trkpt lat="45.9252933" lon="13.4657333"><ele>32.0</ele><time>2026-05-03T08:47:21.245Z</time></trkpt><trkpt lat="45.9253383" lon="13.46588"><ele>32.0</ele><time>2026-05-03T08:47:22.244Z</time></trkpt><trkpt lat="45.92538" lon="13.4660183"><ele>32.0</ele><time>2026-05-03T08:47:23.244Z</time></trkpt><trkpt lat="45.9254183" lon="13.4661617"><ele>32.0</ele><time>2026-05-03T08:47:24.244Z</time></trkpt><trkpt lat="45.9254583" lon="13.4663067"><ele>32.0</ele><time>2026-05-03T08:47:25.244Z</time></trkpt><trkpt lat="45.9254933" lon="13.4664433"><ele>31.999999999999996</ele><time>2026-05-03T08:47:26.244Z</time></trkpt><trkpt lat="45.9255183" lon="13.46657"><ele>32.0</ele><time>2026-05-03T08:47:27.244Z</time></trkpt><trkpt lat="45.9255317" lon="13.4666983"><ele>32.0</ele><time>2026-05-03T08:47:28.244Z</time></trkpt><trkpt lat="45.9255367" lon="13.4668033"><ele>32.0</ele><time>2026-05-03T08:47:29.244Z</time></trkpt><trkpt lat="45.925545" lon="13.46694"><ele>31.999999999999996</ele><time>2026-05-03T08:47:31.244Z</time></trkpt><trkpt lat="45.9255567" lon="13.467045"><ele>32.0</ele><time>2026-05-03T08:47:34.244Z</time></trkpt><trkpt lat="45.9255583" lon="13.467175"><ele>32.2</ele><time>2026-05-03T08:47:37.244Z</time></trkpt><trkpt lat="45.9255733" lon="13.4673117"><ele>32.400000000000006</ele><time>2026-05-03T08:47:39.244Z</time></trkpt><trkpt lat="45.9255817" lon="13.4674733"><ele>32.599999999999994</ele><time>2026-05-03T08:47:41.244Z</time></trkpt><trkpt lat="45.9255767" lon="13.4675917"><ele>32.8</ele><time>2026-05-03T08:47:43.244Z</time></trkpt><trkpt lat="45.9256267" lon="13.46751"><ele>33.0</ele><time>2026-05-03T08:48:13.243Z</time></trkpt><trkpt lat="45.9255917" lon="13.4673217"><ele>33.0</ele><time>2026-05-03T08:48:15.243Z</time></trkpt><trkpt lat="45.92558" lon="13.4672"><ele>33.0</ele><time>2026-05-03T08:48:16.243Z</time></trkpt><trkpt lat="45.925565" lon="13.4670833"><ele>33.0</ele><time>2026-05-03T08:48:17.244Z</time></trkpt><trkpt lat="45.9255517" lon="13.46698"><ele>33.0</ele><time>2026-05-03T08:48:18.243Z</time></trkpt><trkpt lat="45.925535" lon="13.466835"><ele>33.0</ele><time>2026-05-03T08:48:20.243Z</time></trkpt><trkpt lat="45.9256567" lon="13.4669067"><ele>33.0</ele><time>2026-05-03T08:48:26.243Z</time></trkpt><trkpt lat="45.92569" lon="13.4669917"><ele>33.0</ele><time>2026-05-03T08:48:27.243Z</time></trkpt><trkpt lat="45.92572" lon="13.4670767"><ele>33.0</ele><time>2026-05-03T08:48:28.243Z</time></trkpt><trkpt lat="45.9257617" lon="13.4672317"><ele>33.0</ele><time>2026-05-03T08:48:30.243Z</time></trkpt><trkpt lat="45.9257817" lon="13.4673317"><ele>33.0</ele><time>2026-05-03T08:48:31.243Z</time></trkpt><trkpt lat="45.9258033" lon="13.467425"><ele>33.0</ele><time>2026-05-03T08:48:32.243Z</time></trkpt><trkpt lat="45.9258433" lon="13.46753"><ele>33.199999999999996</ele><time>2026-05-03T08:48:34.243Z</time></trkpt><trkpt lat="45.92592" lon="13.4675217"><ele>33.4</ele><time>2026-05-03T08:48:36.243Z</time></trkpt><trkpt lat="45.92598" lon="13.4674733"><ele>33.599999999999994</ele><time>2026-05-03T08:48:37.243Z</time></trkpt><trkpt lat="45.926065" lon="13.46741"><ele>33.8</ele><time>2026-05-03T08:48:38.243Z</time></trkpt><trkpt lat="45.9261667" lon="13.4673367"><ele>34.0</ele><time>2026-05-03T08:48:39.243Z</time></trkpt><trkpt lat="45.9262767" lon="13.46725"><ele>34.0</ele><time>2026-05-03T08:48:40.243Z</time></trkpt><trkpt lat="45.9263933" lon="13.4671733"><ele>34.0</ele><time>2026-05-03T08:48:41.243Z</time></trkpt><trkpt lat="45.9264983" lon="13.4671017"><ele>34.0</ele><time>2026-05-03T08:48:42.243Z</time></trkpt><trkpt lat="45.92659" lon="13.4670217"><ele>34.0</ele><time>2026-05-03T08:48:43.243Z</time></trkpt><trkpt lat="45.9266883" lon="13.466955"><ele>34.2</ele><time>2026-05-03T08:48:44.243Z</time></trkpt><trkpt lat="45.926775" lon="13.46689"><ele>34.4</ele><time>2026-05-03T08:48:45.243Z</time></trkpt><trkpt lat="45.92686" lon="13.4668117"><ele>34.6</ele><time>2026-05-03T08:48:46.243Z</time></trkpt><trkpt lat="45.9269567" lon="13.4667433"><ele>34.8</ele><time>2026-05-03T08:48:47.243Z</time></trkpt><trkpt lat="45.9270467" lon="13.4666733"><ele>35.0</ele><time>2026-05-03T08:48:48.243Z</time></trkpt><trkpt lat="45.92714" lon="13.4666117"><ele>35.0</ele><time>2026-05-03T08:48:49.243Z</time></trkpt><trkpt lat="45.92723" lon="13.46655"><ele>35.0</ele><time>2026-05-03T08:48:50.244Z</time></trkpt><trkpt lat="45.9273183" lon="13.4664883"><ele>35.0</ele><time>2026-05-03T08:48:51.243Z</time></trkpt><trkpt lat="45.9273917" lon="13.46644"><ele>35.0</ele><time>2026-05-03T08:48:52.243Z</time></trkpt><trkpt lat="45.9274667" lon="13.4664"><ele>35.0</ele><time>2026-05-03T08:48:53.243Z</time></trkpt><trkpt lat="45.9275317" lon="13.4663733"><ele>35.0</ele><time>2026-05-03T08:48:54.243Z</time></trkpt><trkpt lat="45.92765" lon="13.46635"><ele>35.166666666666664</ele><time>2026-05-03T08:48:56.243Z</time></trkpt><trkpt lat="45.927765" lon="13.4663383"><ele>35.33333333333333</ele><time>2026-05-03T08:48:58.243Z</time></trkpt><trkpt lat="45.9278317" lon="13.46634"><ele>35.5</ele><time>2026-05-03T08:48:59.243Z</time></trkpt><trkpt lat="45.9279017" lon="13.466335"><ele>35.666666666666664</ele><time>2026-05-03T08:49:00.243Z</time></trkpt><trkpt lat="45.9279683" lon="13.4663367"><ele>35.833333333333336</ele><time>2026-05-03T08:49:01.243Z</time></trkpt><trkpt lat="45.9280367" lon="13.4663633"><ele>36.0</ele><time>2026-05-03T08:49:02.243Z</time></trkpt><trkpt lat="45.928095" lon="13.4664133"><ele>36.0</ele><time>2026-05-03T08:49:03.243Z</time></trkpt><trkpt lat="45.9281517" lon="13.4664733"><ele>36.0</ele><time>2026-05-03T08:49:04.243Z</time></trkpt><trkpt lat="45.9282283" lon="13.4665533"><ele>36.0</ele><time>2026-05-03T08:49:06.243Z</time></trkpt><trkpt lat="45.92829" lon="13.4666183"><ele>36.0</ele><time>2026-05-03T08:49:08.243Z</time></trkpt><trkpt lat="45.928365" lon="13.4666417"><ele>36.0</ele><time>2026-05-03T08:49:11.243Z</time></trkpt><trkpt lat="45.9284333" lon="13.4666533"><ele>36.0</ele><time>2026-05-03T08:49:15.243Z</time></trkpt><trkpt lat="45.9285017" lon="13.466695"><ele>36.833333333333336</ele><time>2026-05-03T08:49:21.244Z</time></trkpt><trkpt lat="45.9285117" lon="13.4667867"><ele>37.666666666666664</ele><time>2026-05-03T08:49:25.243Z</time></trkpt><trkpt lat="45.92848" lon="13.4668667"><ele>38.5</ele><time>2026-05-03T09:26:43.233Z</time></trkpt><trkpt lat="45.9285518" lon="13.4668243"><ele>39.33333333333333</ele><time>2026-05-03T09:27:37.113Z</time></trkpt><trkpt lat="45.9286258" lon="13.4668057"><ele>40.166666666666664</ele><time>2026-05-03T09:27:42.369Z</time></trkpt><trkpt lat="45.9286839" lon="13.466768"><ele>41.0</ele><time>2026-05-03T09:27:48.324Z</time></trkpt><trkpt lat="45.9286051" lon="13.4666628"><ele>41.0</ele><time>2026-05-03T09:28:21.329Z</time></trkpt><trkpt lat="45.9286655" lon="13.4666884"><ele>41.0</ele><time>2026-05-03T09:28:57.262Z</time></trkpt><trkpt lat="45.9286561" lon="13.4667942"><ele>41.0</ele><time>2026-05-03T09:30:16.297Z</time></trkpt><trkpt lat="45.9286214" lon="13.4667017"><ele>41.0</ele><time>2026-05-03T09:31:27.253Z</time></trkpt><trkpt lat="45.9285764" lon="13.4666315"><ele>41.0</ele><time>2026-05-03T09:32:55.377Z</time></trkpt><trkpt lat="45.928562" lon="13.46672"><ele>41.0</ele><time>2026-05-03T09:34:21.368Z</time></trkpt><trkpt lat="45.928653" lon="13.4668108"><ele>40.99999999999999</ele><time>2026-05-03T09:37:40.293Z</time></trkpt><trkpt lat="45.9286929" lon="13.4667336"><ele>41.0</ele><time>2026-05-03T09:39:52.306Z</time></trkpt><trkpt lat="45.9286672" lon="13.4666392"><ele>41.0</ele><time>2026-05-03T09:40:10.388Z</time></trkpt><trkpt lat="45.9286839" lon="13.4667266"><ele>41.0</ele><time>2026-05-03T09:44:39.337Z</time></trkpt><trkpt lat="45.9286183" lon="13.46675"><ele>41.0</ele><time>2026-05-03T09:44:52.393Z</time></trkpt><trkpt lat="45.9285427" lon="13.4667506"><ele>40.99999999999999</ele><time>2026-05-03T09:45:00.408Z</time></trkpt><trkpt lat="45.9284611" lon="13.4667143"><ele>41.0</ele><time>2026-05-03T09:46:46.321Z</time></trkpt><trkpt lat="45.9284093" lon="13.4666598"><ele>39.75</ele><time>2026-05-03T09:46:48.34Z</time></trkpt><trkpt lat="45.9283386" lon="13.4665981"><ele>38.5</ele><time>2026-05-03T09:46:50.36Z</time></trkpt><trkpt lat="45.9282426" lon="13.4665363"><ele>37.25</ele><time>2026-05-03T09:46:52.369Z</time></trkpt><trkpt lat="45.9281557" lon="13.4664859"><ele>36.0</ele><time>2026-05-03T09:46:54.295Z</time></trkpt><trkpt lat="45.9279359" lon="13.4663554"><ele>36.0</ele><time>2026-05-03T09:46:56.228Z</time></trkpt><trkpt lat="45.927841" lon="13.4663257"><ele>36.0</ele><time>2026-05-03T09:46:57.228Z</time></trkpt><trkpt lat="45.9277761" lon="13.4663537"><ele>36.0</ele><time>2026-05-03T09:46:58.228Z</time></trkpt><trkpt lat="45.9277263" lon="13.4664092"><ele>36.0</ele><time>2026-05-03T09:46:59.228Z</time></trkpt><trkpt lat="45.9277326" lon="13.4665088"><ele>36.0</ele><time>2026-05-03T09:47:00.228Z</time></trkpt><trkpt lat="45.9277576" lon="13.4666152"><ele>36.0</ele><time>2026-05-03T09:47:01.228Z</time></trkpt><trkpt lat="45.9278062" lon="13.4667179"><ele>36.0</ele><time>2026-05-03T09:47:02.228Z</time></trkpt><trkpt lat="45.9278704" lon="13.4668281"><ele>36.0</ele><time>2026-05-03T09:47:03.228Z</time></trkpt><trkpt lat="45.9279484" lon="13.4669407"><ele>36.0</ele><time>2026-05-03T09:47:04.228Z</time></trkpt><trkpt lat="45.9280336" lon="13.4670647"><ele>36.0</ele><time>2026-05-03T09:47:05.228Z</time></trkpt><trkpt lat="45.9281313" lon="13.4671974"><ele>35.666666666666664</ele><time>2026-05-03T09:47:06.228Z</time></trkpt><trkpt lat="45.9282376" lon="13.467346"><ele>35.33333333333333</ele><time>2026-05-03T09:47:07.228Z</time></trkpt><trkpt lat="45.9283491" lon="13.4675006"><ele>35.0</ele><time>2026-05-03T09:47:08.228Z</time></trkpt><trkpt lat="45.9284616" lon="13.4676651"><ele>35.666666666666664</ele><time>2026-05-03T09:47:09.228Z</time></trkpt><trkpt lat="45.9285824" lon="13.4678293"><ele>36.333333333333336</ele><time>2026-05-03T09:47:10.228Z</time></trkpt><trkpt lat="45.9287076" lon="13.4679925"><ele>37.0</ele><time>2026-05-03T09:47:11.228Z</time></trkpt><trkpt lat="45.9288272" lon="13.4681611"><ele>37.0</ele><time>2026-05-03T09:47:12.228Z</time></trkpt><trkpt lat="45.9289507" lon="13.468327"><ele>37.0</ele><time>2026-05-03T09:47:13.228Z</time></trkpt><trkpt lat="45.9290758" lon="13.4684832"><ele>37.0</ele><time>2026-05-03T09:47:14.228Z</time></trkpt><trkpt lat="45.9291963" lon="13.4686429"><ele>38.66666666666667</ele><time>2026-05-03T09:47:15.228Z</time></trkpt><trkpt lat="45.9293103" lon="13.4688066"><ele>40.333333333333336</ele><time>2026-05-03T09:47:16.228Z</time></trkpt><trkpt lat="45.9294315" lon="13.4689707"><ele>42.0</ele><time>2026-05-03T09:47:17.228Z</time></trkpt><trkpt lat="45.9295548" lon="13.4691383"><ele>42.0</ele><time>2026-05-03T09:47:18.229Z</time></trkpt><trkpt lat="45.929677" lon="13.469301"><ele>42.0</ele><time>2026-05-03T09:47:19.228Z</time></trkpt><trkpt lat="45.9297848" lon="13.4694432"><ele>42.0</ele><time>2026-05-03T09:47:20.229Z</time></trkpt><trkpt lat="45.9298805" lon="13.4695701"><ele>42.0</ele><time>2026-05-03T09:47:21.228Z</time></trkpt><trkpt lat="45.9299636" lon="13.469678"><ele>41.666666666666664</ele><time>2026-05-03T09:47:22.228Z</time></trkpt><trkpt lat="45.9300297" lon="13.4697684"><ele>41.333333333333336</ele><time>2026-05-03T09:47:23.228Z</time></trkpt><trkpt lat="45.9300821" lon="13.4698441"><ele>41.0</ele><time>2026-05-03T09:47:24.228Z</time></trkpt><trkpt lat="45.9301192" lon="13.4699209"><ele>40.66666666666667</ele><time>2026-05-03T09:47:26.228Z</time></trkpt><trkpt lat="45.930134" lon="13.4700162"><ele>40.333333333333336</ele><time>2026-05-03T09:47:32.228Z</time></trkpt><trkpt lat="45.9301792" lon="13.4701641"><ele>40.0</ele><time>2026-05-03T09:47:34.228Z</time></trkpt><trkpt lat="45.9302157" lon="13.4702684"><ele>39.5</ele><time>2026-05-03T09:47:35.228Z</time></trkpt><trkpt lat="45.9302503" lon="13.4703783"><ele>39.0</ele><time>2026-05-03T09:47:36.228Z</time></trkpt><trkpt lat="45.9302924" lon="13.4704884"><ele>38.5</ele><time>2026-05-03T09:47:37.228Z</time></trkpt><trkpt lat="45.9303399" lon="13.4705997"><ele>38.0</ele><time>2026-05-03T09:47:38.228Z</time></trkpt><trkpt lat="45.930388" lon="13.4707083"><ele>37.5</ele><time>2026-05-03T09:47:39.228Z</time></trkpt><trkpt lat="45.9304259" lon="13.4708001"><ele>37.0</ele><time>2026-05-03T09:47:40.228Z</time></trkpt><trkpt lat="45.9304585" lon="13.4708902"><ele>36.714285714285715</ele><time>2026-05-03T09:47:41.228Z</time></trkpt><trkpt lat="45.9304926" lon="13.4709738"><ele>36.42857142857143</ele><time>2026-05-03T09:47:42.228Z</time></trkpt><trkpt lat="45.930527" lon="13.4710572"><ele>36.14285714285714</ele><time>2026-05-03T09:47:43.228Z</time></trkpt><trkpt lat="45.9305588" lon="13.4711429"><ele>35.85714285714286</ele><time>2026-05-03T09:47:44.228Z</time></trkpt><trkpt lat="45.9305893" lon="13.4712384"><ele>35.57142857142857</ele><time>2026-05-03T09:47:45.228Z</time></trkpt><trkpt lat="45.9306237" lon="13.4713355"><ele>35.285714285714285</ele><time>2026-05-03T09:47:46.228Z</time></trkpt><trkpt lat="45.930657" lon="13.4714319"><ele>35.0</ele><time>2026-05-03T09:47:47.228Z</time></trkpt><trkpt lat="45.9306894" lon="13.4715218"><ele>35.0</ele><time>2026-05-03T09:47:48.228Z</time></trkpt><trkpt lat="45.9307222" lon="13.4716036"><ele>35.0</ele><time>2026-05-03T09:47:49.228Z</time></trkpt><trkpt lat="45.9307782" lon="13.4717545"><ele>35.0</ele><time>2026-05-03T09:47:51.228Z</time></trkpt><trkpt lat="45.9308365" lon="13.4718671"><ele>35.0</ele><time>2026-05-03T09:47:53.228Z</time></trkpt><trkpt lat="45.9309984" lon="13.4717958"><ele>35.166666666666664</ele><time>2026-05-03T09:47:57.228Z</time></trkpt><trkpt lat="45.9310601" lon="13.4717467"><ele>35.33333333333333</ele><time>2026-05-03T09:47:58.228Z</time></trkpt><trkpt lat="45.9311314" lon="13.4716977"><ele>35.5</ele><time>2026-05-03T09:47:59.228Z</time></trkpt><trkpt lat="45.9312087" lon="13.4716452"><ele>35.666666666666664</ele><time>2026-05-03T09:48:00.228Z</time></trkpt><trkpt lat="45.931291" lon="13.4715893"><ele>35.833333333333336</ele><time>2026-05-03T09:48:01.228Z</time></trkpt><trkpt lat="45.9313811" lon="13.4715283"><ele>36.0</ele><time>2026-05-03T09:48:02.228Z</time></trkpt><trkpt lat="45.9314779" lon="13.4714612"><ele>36.0</ele><time>2026-05-03T09:48:03.228Z</time></trkpt><trkpt lat="45.9315804" lon="13.4713869"><ele>36.0</ele><time>2026-05-03T09:48:04.228Z</time></trkpt><trkpt lat="45.9316868" lon="13.4713039"><ele>36.0</ele><time>2026-05-03T09:48:05.228Z</time></trkpt><trkpt lat="45.9317927" lon="13.4712265"><ele>36.0</ele><time>2026-05-03T09:48:06.228Z</time></trkpt><trkpt lat="45.9318964" lon="13.4711569"><ele>36.25</ele><time>2026-05-03T09:48:07.228Z</time></trkpt><trkpt lat="45.9319987" lon="13.4710861"><ele>36.5</ele><time>2026-05-03T09:48:08.228Z</time></trkpt><trkpt lat="45.9320933" lon="13.471005"><ele>36.75</ele><time>2026-05-03T09:48:09.228Z</time></trkpt><trkpt lat="45.9321967" lon="13.4709283"><ele>37.0</ele><time>2026-05-03T09:48:10.228Z</time></trkpt><trkpt lat="45.9322983" lon="13.470855"><ele>37.0</ele><time>2026-05-03T09:48:11.228Z</time></trkpt><trkpt lat="45.9324033" lon="13.4707683"><ele>37.0</ele><time>2026-05-03T09:48:12.228Z</time></trkpt><trkpt lat="45.9325033" lon="13.470695"><ele>37.0</ele><time>2026-05-03T09:48:13.228Z</time></trkpt><trkpt lat="45.9325967" lon="13.4706333"><ele>37.0</ele><time>2026-05-03T09:48:14.228Z</time></trkpt><trkpt lat="45.932675" lon="13.4705783"><ele>37.0</ele><time>2026-05-03T09:48:15.228Z</time></trkpt><trkpt lat="45.932755" lon="13.4705267"><ele>36.800000000000004</ele><time>2026-05-03T09:48:16.228Z</time></trkpt><trkpt lat="45.9328367" lon="13.4704867"><ele>36.6</ele><time>2026-05-03T09:48:17.229Z</time></trkpt><trkpt lat="45.932935" lon="13.47047"><ele>36.400000000000006</ele><time>2026-05-03T09:48:18.228Z</time></trkpt><trkpt lat="45.9330483" lon="13.4704717"><ele>36.2</ele><time>2026-05-03T09:48:19.228Z</time></trkpt><trkpt lat="45.9331783" lon="13.4704917"><ele>36.0</ele><time>2026-05-03T09:48:20.228Z</time></trkpt><trkpt lat="45.9333117" lon="13.4705167"><ele>36.25</ele><time>2026-05-03T09:48:21.228Z</time></trkpt><trkpt lat="45.9334467" lon="13.470535"><ele>36.5</ele><time>2026-05-03T09:48:22.228Z</time></trkpt><trkpt lat="45.933575" lon="13.4705517"><ele>36.75</ele><time>2026-05-03T09:48:23.228Z</time></trkpt><trkpt lat="45.9337083" lon="13.470575"><ele>37.0</ele><time>2026-05-03T09:48:24.228Z</time></trkpt><trkpt lat="45.9338367" lon="13.4705883"><ele>37.0</ele><time>2026-05-03T09:48:25.228Z</time></trkpt><trkpt lat="45.9339617" lon="13.4706017"><ele>37.0</ele><time>2026-05-03T09:48:26.228Z</time></trkpt><trkpt lat="45.9340867" lon="13.4706217"><ele>37.0</ele><time>2026-05-03T09:48:27.228Z</time></trkpt><trkpt lat="45.93421" lon="13.470625"><ele>37.0</ele><time>2026-05-03T09:48:28.228Z</time></trkpt><trkpt lat="45.9343333" lon="13.47065"><ele>36.75</ele><time>2026-05-03T09:48:29.228Z</time></trkpt><trkpt lat="45.9344517" lon="13.47066"><ele>36.5</ele><time>2026-05-03T09:48:30.228Z</time></trkpt><trkpt lat="45.9345817" lon="13.4706667"><ele>36.25</ele><time>2026-05-03T09:48:31.228Z</time></trkpt><trkpt lat="45.9347" lon="13.470695"><ele>36.0</ele><time>2026-05-03T09:48:32.228Z</time></trkpt><trkpt lat="45.9348017" lon="13.4707267"><ele>36.0</ele><time>2026-05-03T09:48:33.228Z</time></trkpt><trkpt lat="45.93493" lon="13.4707417"><ele>36.0</ele><time>2026-05-03T09:48:34.228Z</time></trkpt><trkpt lat="45.935065" lon="13.470745"><ele>36.0</ele><time>2026-05-03T09:48:35.228Z</time></trkpt><trkpt lat="45.93519" lon="13.4707633"><ele>36.0</ele><time>2026-05-03T09:48:36.228Z</time></trkpt><trkpt lat="45.93532" lon="13.4707717"><ele>36.5</ele><time>2026-05-03T09:48:37.228Z</time></trkpt><trkpt lat="45.9354533" lon="13.4707867"><ele>37.0</ele><time>2026-05-03T09:48:38.228Z</time></trkpt><trkpt lat="45.9355883" lon="13.4707967"><ele>37.5</ele><time>2026-05-03T09:48:39.228Z</time></trkpt><trkpt lat="45.9357183" lon="13.470815"><ele>38.0</ele><time>2026-05-03T09:48:40.229Z</time></trkpt><trkpt lat="45.9358483" lon="13.4708283"><ele>37.25</ele><time>2026-05-03T09:48:41.228Z</time></trkpt><trkpt lat="45.935965" lon="13.4708467"><ele>36.5</ele><time>2026-05-03T09:48:42.228Z</time></trkpt><trkpt lat="45.9360883" lon="13.4708617"><ele>35.75</ele><time>2026-05-03T09:48:43.228Z</time></trkpt><trkpt lat="45.9362" lon="13.4708783"><ele>35.0</ele><time>2026-05-03T09:48:44.228Z</time></trkpt><trkpt lat="45.9363167" lon="13.47089"><ele>35.0</ele><time>2026-05-03T09:48:45.228Z</time></trkpt><trkpt lat="45.9364317" lon="13.4709017"><ele>35.0</ele><time>2026-05-03T09:48:46.228Z</time></trkpt><trkpt lat="45.936535" lon="13.47092"><ele>35.0</ele><time>2026-05-03T09:48:47.228Z</time></trkpt><trkpt lat="45.936625" lon="13.4709367"><ele>35.0</ele><time>2026-05-03T09:48:48.228Z</time></trkpt><trkpt lat="45.9367167" lon="13.4709433"><ele>35.0</ele><time>2026-05-03T09:48:49.228Z</time></trkpt><trkpt lat="45.9368" lon="13.470935"><ele>35.2</ele><time>2026-05-03T09:48:50.228Z</time></trkpt><trkpt lat="45.93688" lon="13.4709"><ele>35.4</ele><time>2026-05-03T09:48:51.228Z</time></trkpt><trkpt lat="45.936965" lon="13.4708317"><ele>35.6</ele><time>2026-05-03T09:48:52.228Z</time></trkpt><trkpt lat="45.93706" lon="13.470745"><ele>35.8</ele><time>2026-05-03T09:48:53.228Z</time></trkpt><trkpt lat="45.937155" lon="13.4706583"><ele>36.0</ele><time>2026-05-03T09:48:54.228Z</time></trkpt><trkpt lat="45.9372467" lon="13.47058"><ele>36.0</ele><time>2026-05-03T09:48:55.228Z</time></trkpt><trkpt lat="45.9373367" lon="13.4705033"><ele>36.0</ele><time>2026-05-03T09:48:56.228Z</time></trkpt><trkpt lat="45.9374333" lon="13.4704367"><ele>36.0</ele><time>2026-05-03T09:48:57.228Z</time></trkpt><trkpt lat="45.9375417" lon="13.47038"><ele>36.0</ele><time>2026-05-03T09:48:58.228Z</time></trkpt><trkpt lat="45.9376483" lon="13.4703133"><ele>36.0</ele><time>2026-05-03T09:48:59.228Z</time></trkpt><trkpt lat="45.937755" lon="13.4702333"><ele>36.5</ele><time>2026-05-03T09:49:00.228Z</time></trkpt><trkpt lat="45.9378633" lon="13.4701583"><ele>37.0</ele><time>2026-05-03T09:49:01.228Z</time></trkpt><trkpt lat="45.9379817" lon="13.4700967"><ele>37.5</ele><time>2026-05-03T09:49:02.228Z</time></trkpt><trkpt lat="45.9381183" lon="13.4700217"><ele>38.0</ele><time>2026-05-03T09:49:03.228Z</time></trkpt><trkpt lat="45.9382483" lon="13.4699383"><ele>38.0</ele><time>2026-05-03T09:49:04.228Z</time></trkpt><trkpt lat="45.9383767" lon="13.4698583"><ele>38.0</ele><time>2026-05-03T09:49:05.228Z</time></trkpt><trkpt lat="45.93851" lon="13.4697633"><ele>38.0</ele><time>2026-05-03T09:49:06.228Z</time></trkpt><trkpt lat="45.9386383" lon="13.4696617"><ele>38.0</ele><time>2026-05-03T09:49:07.228Z</time></trkpt><trkpt lat="45.938755" lon="13.469565"><ele>37.75</ele><time>2026-05-03T09:49:08.228Z</time></trkpt><trkpt lat="45.938885" lon="13.4694617"><ele>37.5</ele><time>2026-05-03T09:49:09.228Z</time></trkpt><trkpt lat="45.9390083" lon="13.4693633"><ele>37.25</ele><time>2026-05-03T09:49:10.228Z</time></trkpt><trkpt lat="45.9391317" lon="13.4692683"><ele>37.0</ele><time>2026-05-03T09:49:11.228Z</time></trkpt><trkpt lat="45.9392567" lon="13.4691933"><ele>36.25</ele><time>2026-05-03T09:49:12.228Z</time></trkpt><trkpt lat="45.939385" lon="13.46912"><ele>35.5</ele><time>2026-05-03T09:49:13.228Z</time></trkpt><trkpt lat="45.9395167" lon="13.4690617"><ele>34.75</ele><time>2026-05-03T09:49:14.228Z</time></trkpt><trkpt lat="45.9396583" lon="13.4690233"><ele>34.0</ele><time>2026-05-03T09:49:15.228Z</time></trkpt><trkpt lat="45.9397883" lon="13.4690133"><ele>34.0</ele><time>2026-05-03T09:49:16.228Z</time></trkpt><trkpt lat="45.93992" lon="13.4690317"><ele>34.0</ele><time>2026-05-03T09:49:17.228Z</time></trkpt><trkpt lat="45.9400546" lon="13.4690571"><ele>34.0</ele><time>2026-05-03T09:49:18.228Z</time></trkpt><trkpt lat="45.940196" lon="13.4690838"><ele>34.0</ele><time>2026-05-03T09:49:19.228Z</time></trkpt><trkpt lat="45.9403304" lon="13.4690875"><ele>35.0</ele><time>2026-05-03T09:49:20.228Z</time></trkpt><trkpt lat="45.9404646" lon="13.4690547"><ele>36.0</ele><time>2026-05-03T09:49:21.229Z</time></trkpt><trkpt lat="45.9405916" lon="13.4689956"><ele>37.0</ele><time>2026-05-03T09:49:22.228Z</time></trkpt><trkpt lat="45.940707" lon="13.4689227"><ele>38.0</ele><time>2026-05-03T09:49:23.228Z</time></trkpt><trkpt lat="45.9408252" lon="13.4688522"><ele>38.25</ele><time>2026-05-03T09:49:24.228Z</time></trkpt><trkpt lat="45.9409527" lon="13.4687946"><ele>38.5</ele><time>2026-05-03T09:49:25.228Z</time></trkpt><trkpt lat="45.9410833" lon="13.4687563"><ele>38.75</ele><time>2026-05-03T09:49:26.229Z</time></trkpt><trkpt lat="45.9412201" lon="13.4687524"><ele>39.0</ele><time>2026-05-03T09:49:27.228Z</time></trkpt><trkpt lat="45.941362" lon="13.4687824"><ele>39.0</ele><time>2026-05-03T09:49:28.228Z</time></trkpt><trkpt lat="45.9415075" lon="13.4688274"><ele>39.0</ele><time>2026-05-03T09:49:29.228Z</time></trkpt><trkpt lat="45.9416525" lon="13.4688867"><ele>39.0</ele><time>2026-05-03T09:49:30.228Z</time></trkpt><trkpt lat="45.9418005" lon="13.4689514"><ele>39.0</ele><time>2026-05-03T09:49:31.228Z</time></trkpt><trkpt lat="45.9419514" lon="13.469012"><ele>39.0</ele><time>2026-05-03T09:49:32.228Z</time></trkpt><trkpt lat="45.9420964" lon="13.4690696"><ele>39.0</ele><time>2026-05-03T09:49:33.228Z</time></trkpt><trkpt lat="45.9422364" lon="13.469118"><ele>39.0</ele><time>2026-05-03T09:49:34.228Z</time></trkpt><trkpt lat="45.9423638" lon="13.4691539"><ele>39.0</ele><time>2026-05-03T09:49:35.228Z</time></trkpt><trkpt lat="45.9424799" lon="13.4691913"><ele>39.0</ele><time>2026-05-03T09:49:36.228Z</time></trkpt><trkpt lat="45.9425799" lon="13.4692269"><ele>39.0</ele><time>2026-05-03T09:49:37.228Z</time></trkpt><trkpt lat="45.9426646" lon="13.4692527"><ele>39.0</ele><time>2026-05-03T09:49:38.228Z</time></trkpt><trkpt lat="45.9427644" lon="13.469265"><ele>39.0</ele><time>2026-05-03T09:49:40.228Z</time></trkpt><trkpt lat="45.9428527" lon="13.4692073"><ele>39.0</ele><time>2026-05-03T09:49:42.228Z</time></trkpt><trkpt lat="45.9429076" lon="13.4691546"><ele>39.0</ele><time>2026-05-03T09:49:43.228Z</time></trkpt><trkpt lat="45.9429789" lon="13.4690977"><ele>39.0</ele><time>2026-05-03T09:49:44.228Z</time></trkpt><trkpt lat="45.9430568" lon="13.469035"><ele>39.0</ele><time>2026-05-03T09:49:45.228Z</time></trkpt><trkpt lat="45.9431436" lon="13.4689696"><ele>39.0</ele><time>2026-05-03T09:49:46.228Z</time></trkpt><trkpt lat="45.9432397" lon="13.4688999"><ele>39.0</ele><time>2026-05-03T09:49:47.228Z</time></trkpt><trkpt lat="45.9433452" lon="13.468821"><ele>39.0</ele><time>2026-05-03T09:49:48.228Z</time></trkpt><trkpt lat="45.9434609" lon="13.4687386"><ele>39.0</ele><time>2026-05-03T09:49:49.228Z</time></trkpt><trkpt lat="45.9435831" lon="13.4686539"><ele>39.0</ele><time>2026-05-03T09:49:50.228Z</time></trkpt><trkpt lat="45.94371" lon="13.4685783"><ele>39.5</ele><time>2026-05-03T09:49:51.228Z</time></trkpt><trkpt lat="45.9438367" lon="13.4684817"><ele>40.0</ele><time>2026-05-03T09:49:52.228Z</time></trkpt><trkpt lat="45.943965" lon="13.468385"><ele>40.5</ele><time>2026-05-03T09:49:53.228Z</time></trkpt><trkpt lat="45.9441067" lon="13.4682833"><ele>41.0</ele><time>2026-05-03T09:49:54.228Z</time></trkpt><trkpt lat="45.9442517" lon="13.4681733"><ele>41.0</ele><time>2026-05-03T09:49:55.228Z</time></trkpt><trkpt lat="45.9443983" lon="13.4680833"><ele>41.0</ele><time>2026-05-03T09:49:56.228Z</time></trkpt><trkpt lat="45.944535" lon="13.4679933"><ele>41.0</ele><time>2026-05-03T09:49:57.228Z</time></trkpt><trkpt lat="45.9446733" lon="13.4679267"><ele>41.0</ele><time>2026-05-03T09:49:58.228Z</time></trkpt><trkpt lat="45.9448117" lon="13.4678833"><ele>41.0</ele><time>2026-05-03T09:49:59.228Z</time></trkpt><trkpt lat="45.9449583" lon="13.4678467"><ele>41.0</ele><time>2026-05-03T09:50:00.228Z</time></trkpt><trkpt lat="45.945115" lon="13.4677783"><ele>41.75</ele><time>2026-05-03T09:50:01.228Z</time></trkpt><trkpt lat="45.9452567" lon="13.4676967"><ele>42.5</ele><time>2026-05-03T09:50:02.228Z</time></trkpt><trkpt lat="45.94539" lon="13.4676067"><ele>43.25</ele><time>2026-05-03T09:50:03.228Z</time></trkpt><trkpt lat="45.945515" lon="13.467525"><ele>44.0</ele><time>2026-05-03T09:50:04.228Z</time></trkpt><trkpt lat="45.9456317" lon="13.4674483"><ele>44.0</ele><time>2026-05-03T09:50:05.228Z</time></trkpt><trkpt lat="45.9457383" lon="13.4673883"><ele>44.0</ele><time>2026-05-03T09:50:06.228Z</time></trkpt><trkpt lat="45.9458333" lon="13.4673267"><ele>44.0</ele><time>2026-05-03T09:50:07.228Z</time></trkpt><trkpt lat="45.9459117" lon="13.46729"><ele>44.0</ele><time>2026-05-03T09:50:08.228Z</time></trkpt><trkpt lat="45.9459933" lon="13.4672733"><ele>44.0</ele><time>2026-05-03T09:50:09.228Z</time></trkpt><trkpt lat="45.946055" lon="13.4673133"><ele>44.0</ele><time>2026-05-03T09:50:10.228Z</time></trkpt><trkpt lat="45.946105" lon="13.4674167"><ele>44.0</ele><time>2026-05-03T09:50:11.228Z</time></trkpt><trkpt lat="45.9461667" lon="13.4675583"><ele>44.0</ele><time>2026-05-03T09:50:12.228Z</time></trkpt><trkpt lat="45.9462383" lon="13.46771"><ele>44.0</ele><time>2026-05-03T09:50:13.228Z</time></trkpt><trkpt lat="45.94632" lon="13.4678683"><ele>43.666666666666664</ele><time>2026-05-03T09:50:14.228Z</time></trkpt><trkpt lat="45.9464117" lon="13.4680367"><ele>43.333333333333336</ele><time>2026-05-03T09:50:15.228Z</time></trkpt><trkpt lat="45.9465083" lon="13.4682133"><ele>43.0</ele><time>2026-05-03T09:50:16.228Z</time></trkpt><trkpt lat="45.946605" lon="13.4683933"><ele>43.0</ele><time>2026-05-03T09:50:17.228Z</time></trkpt><trkpt lat="45.946705" lon="13.4685817"><ele>43.0</ele><time>2026-05-03T09:50:18.228Z</time></trkpt><trkpt lat="45.94681" lon="13.46877"><ele>43.0</ele><time>2026-05-03T09:50:19.228Z</time></trkpt><trkpt lat="45.94692" lon="13.46896"><ele>43.66666666666667</ele><time>2026-05-03T09:50:20.228Z</time></trkpt><trkpt lat="45.9470317" lon="13.469155"><ele>44.333333333333336</ele><time>2026-05-03T09:50:21.228Z</time></trkpt><trkpt lat="45.947135" lon="13.4693633"><ele>45.0</ele><time>2026-05-03T09:50:22.228Z</time></trkpt><trkpt lat="45.9472317" lon="13.46956"><ele>45.0</ele><time>2026-05-03T09:50:23.228Z</time></trkpt><trkpt lat="45.94733" lon="13.469755"><ele>45.0</ele><time>2026-05-03T09:50:24.228Z</time></trkpt><trkpt lat="45.94743" lon="13.4699433"><ele>45.0</ele><time>2026-05-03T09:50:25.228Z</time></trkpt><trkpt lat="45.9475283" lon="13.4701167"><ele>44.8</ele><time>2026-05-03T09:50:26.228Z</time></trkpt><trkpt lat="45.9476217" lon="13.4702817"><ele>44.6</ele><time>2026-05-03T09:50:27.228Z</time></trkpt><trkpt lat="45.9477083" lon="13.470415"><ele>44.400000000000006</ele><time>2026-05-03T09:50:28.229Z</time></trkpt><trkpt lat="45.947785" lon="13.4705"><ele>44.2</ele><time>2026-05-03T09:50:29.228Z</time></trkpt><trkpt lat="45.947845" lon="13.4705383"><ele>44.0</ele><time>2026-05-03T09:50:30.227Z</time></trkpt><trkpt lat="45.9479733" lon="13.470535"><ele>44.0</ele><time>2026-05-03T09:50:32.227Z</time></trkpt><trkpt lat="45.9480517" lon="13.47049"><ele>44.0</ele><time>2026-05-03T09:50:33.227Z</time></trkpt><trkpt lat="45.9481533" lon="13.4704317"><ele>44.0</ele><time>2026-05-03T09:50:34.227Z</time></trkpt><trkpt lat="45.9482633" lon="13.4703567"><ele>44.0</ele><time>2026-05-03T09:50:35.227Z</time></trkpt><trkpt lat="45.9483717" lon="13.4702717"><ele>44.0</ele><time>2026-05-03T09:50:36.227Z</time></trkpt><trkpt lat="45.9484917" lon="13.470175"><ele>43.666666666666664</ele><time>2026-05-03T09:50:37.227Z</time></trkpt><trkpt lat="45.9486167" lon="13.4700683"><ele>43.333333333333336</ele><time>2026-05-03T09:50:38.227Z</time></trkpt><trkpt lat="45.9487533" lon="13.4699633"><ele>43.0</ele><time>2026-05-03T09:50:39.227Z</time></trkpt><trkpt lat="45.9488917" lon="13.4698467"><ele>43.0</ele><time>2026-05-03T09:50:40.227Z</time></trkpt><trkpt lat="45.94903" lon="13.4697433"><ele>43.0</ele><time>2026-05-03T09:50:41.227Z</time></trkpt><trkpt lat="45.9491767" lon="13.4696233"><ele>43.0</ele><time>2026-05-03T09:50:42.227Z</time></trkpt><trkpt lat="45.9493267" lon="13.4695117"><ele>43.66666666666667</ele><time>2026-05-03T09:50:43.227Z</time></trkpt><trkpt lat="45.9494733" lon="13.4693983"><ele>44.333333333333336</ele><time>2026-05-03T09:50:44.227Z</time></trkpt><trkpt lat="45.9496167" lon="13.4692833"><ele>45.0</ele><time>2026-05-03T09:50:45.227Z</time></trkpt><trkpt lat="45.94977" lon="13.4691567"><ele>45.0</ele><time>2026-05-03T09:50:46.227Z</time></trkpt><trkpt lat="45.949915" lon="13.46905"><ele>45.0</ele><time>2026-05-03T09:50:47.227Z</time></trkpt><trkpt lat="45.95007" lon="13.468965"><ele>45.0</ele><time>2026-05-03T09:50:48.227Z</time></trkpt><trkpt lat="45.9502233" lon="13.4689017"><ele>45.25</ele><time>2026-05-03T09:50:49.227Z</time></trkpt><trkpt lat="45.9503583" lon="13.4688633"><ele>45.5</ele><time>2026-05-03T09:50:50.227Z</time></trkpt><trkpt lat="45.9504883" lon="13.4688233"><ele>45.75</ele><time>2026-05-03T09:50:51.227Z</time></trkpt><trkpt lat="45.9506183" lon="13.4688133"><ele>46.0</ele><time>2026-05-03T09:50:52.227Z</time></trkpt><trkpt lat="45.950735" lon="13.4688267"><ele>46.0</ele><time>2026-05-03T09:50:53.227Z</time></trkpt><trkpt lat="45.9508417" lon="13.4688683"><ele>46.0</ele><time>2026-05-03T09:50:54.227Z</time></trkpt><trkpt lat="45.9509367" lon="13.4689333"><ele>46.0</ele><time>2026-05-03T09:50:55.227Z</time></trkpt><trkpt lat="45.9510367" lon="13.4690417"><ele>46.0</ele><time>2026-05-03T09:50:56.227Z</time></trkpt><trkpt lat="45.9511433" lon="13.4691517"><ele>47.333333333333336</ele><time>2026-05-03T09:50:57.227Z</time></trkpt><trkpt lat="45.9512483" lon="13.4692967"><ele>48.66666666666667</ele><time>2026-05-03T09:50:58.227Z</time></trkpt><trkpt lat="45.9513583" lon="13.4694533"><ele>50.0</ele><time>2026-05-03T09:50:59.227Z</time></trkpt><trkpt lat="45.95148" lon="13.4696083"><ele>49.5</ele><time>2026-05-03T09:51:00.227Z</time></trkpt><trkpt lat="45.9515983" lon="13.4697617"><ele>49.0</ele><time>2026-05-03T09:51:01.227Z</time></trkpt><trkpt lat="45.9517017" lon="13.469915"><ele>48.5</ele><time>2026-05-03T09:51:02.227Z</time></trkpt><trkpt lat="45.9518017" lon="13.470055"><ele>48.0</ele><time>2026-05-03T09:51:03.227Z</time></trkpt><trkpt lat="45.95189" lon="13.4701917"><ele>48.0</ele><time>2026-05-03T09:51:04.227Z</time></trkpt><trkpt lat="45.9519683" lon="13.4703017"><ele>48.0</ele><time>2026-05-03T09:51:05.227Z</time></trkpt><trkpt lat="45.9520367" lon="13.4703883"><ele>48.0</ele><time>2026-05-03T09:51:06.227Z</time></trkpt><trkpt lat="45.9520967" lon="13.4704617"><ele>48.0</ele><time>2026-05-03T09:51:07.227Z</time></trkpt><trkpt lat="45.9521483" lon="13.47053"><ele>48.0</ele><time>2026-05-03T09:51:08.227Z</time></trkpt><trkpt lat="45.9522083" lon="13.4705917"><ele>48.0</ele><time>2026-05-03T09:51:09.227Z</time></trkpt><trkpt lat="45.952265" lon="13.4706583"><ele>48.0</ele><time>2026-05-03T09:51:10.227Z</time></trkpt><trkpt lat="45.9523233" lon="13.4707267"><ele>48.0</ele><time>2026-05-03T09:51:11.227Z</time></trkpt><trkpt lat="45.9523867" lon="13.470805"><ele>48.0</ele><time>2026-05-03T09:51:12.227Z</time></trkpt><trkpt lat="45.952465" lon="13.4708817"><ele>48.0</ele><time>2026-05-03T09:51:13.227Z</time></trkpt><trkpt lat="45.95255" lon="13.470965"><ele>48.0</ele><time>2026-05-03T09:51:14.227Z</time></trkpt><trkpt lat="45.9526417" lon="13.47105"><ele>48.0</ele><time>2026-05-03T09:51:15.227Z</time></trkpt><trkpt lat="45.952735" lon="13.4711433"><ele>48.0</ele><time>2026-05-03T09:51:16.227Z</time></trkpt><trkpt lat="45.9528467" lon="13.47125"><ele>48.0</ele><time>2026-05-03T09:51:17.227Z</time></trkpt><trkpt lat="45.9529533" lon="13.4713633"><ele>48.0</ele><time>2026-05-03T09:51:18.227Z</time></trkpt><trkpt lat="45.9530717" lon="13.4714617"><ele>48.0</ele><time>2026-05-03T09:51:19.228Z</time></trkpt><trkpt lat="45.95318" lon="13.4715617"><ele>48.0</ele><time>2026-05-03T09:51:20.227Z</time></trkpt><trkpt lat="45.95329" lon="13.47167"><ele>48.0</ele><time>2026-05-03T09:51:21.227Z</time></trkpt><trkpt lat="45.9534067" lon="13.4717867"><ele>48.0</ele><time>2026-05-03T09:51:22.227Z</time></trkpt><trkpt lat="45.9535233" lon="13.4718917"><ele>47.75</ele><time>2026-05-03T09:51:23.227Z</time></trkpt><trkpt lat="45.953655" lon="13.472"><ele>47.5</ele><time>2026-05-03T09:51:24.227Z</time></trkpt><trkpt lat="45.95377" lon="13.4720983"><ele>47.25</ele><time>2026-05-03T09:51:25.227Z</time></trkpt><trkpt lat="45.953875" lon="13.4721983"><ele>47.0</ele><time>2026-05-03T09:51:26.227Z</time></trkpt><trkpt lat="45.9539767" lon="13.4722967"><ele>47.5</ele><time>2026-05-03T09:51:27.227Z</time></trkpt><trkpt lat="45.95408" lon="13.4723783"><ele>48.0</ele><time>2026-05-03T09:51:28.227Z</time></trkpt><trkpt lat="45.9541917" lon="13.472425"><ele>48.5</ele><time>2026-05-03T09:51:29.227Z</time></trkpt><trkpt lat="45.9543117" lon="13.4724333"><ele>49.0</ele><time>2026-05-03T09:51:30.227Z</time></trkpt><trkpt lat="45.9544417" lon="13.4724083"><ele>49.0</ele><time>2026-05-03T09:51:31.227Z</time></trkpt><trkpt lat="45.95458" lon="13.4723617"><ele>49.0</ele><time>2026-05-03T09:51:32.228Z</time></trkpt><trkpt lat="45.9547317" lon="13.4723167"><ele>49.0</ele><time>2026-05-03T09:51:33.227Z</time></trkpt><trkpt lat="45.954885" lon="13.472275"><ele>49.0</ele><time>2026-05-03T09:51:34.227Z</time></trkpt><trkpt lat="45.9550233" lon="13.4722317"><ele>49.0</ele><time>2026-05-03T09:51:35.227Z</time></trkpt><trkpt lat="45.9551467" lon="13.4722017"><ele>49.0</ele><time>2026-05-03T09:51:36.227Z</time></trkpt><trkpt lat="45.9552567" lon="13.47217"><ele>49.0</ele><time>2026-05-03T09:51:37.227Z</time></trkpt><trkpt lat="45.95536" lon="13.4721267"><ele>49.2</ele><time>2026-05-03T09:51:38.227Z</time></trkpt><trkpt lat="45.9554683" lon="13.4720983"><ele>49.400000000000006</ele><time>2026-05-03T09:51:39.227Z</time></trkpt><trkpt lat="45.9555717" lon="13.4720733"><ele>49.6</ele><time>2026-05-03T09:51:40.227Z</time></trkpt><trkpt lat="45.9556583" lon="13.4720567"><ele>49.8</ele><time>2026-05-03T09:51:41.227Z</time></trkpt><trkpt lat="45.9557383" lon="13.47204"><ele>50.0</ele><time>2026-05-03T09:51:42.227Z</time></trkpt><trkpt lat="45.9558067" lon="13.4720317"><ele>50.16666666666667</ele><time>2026-05-03T09:51:43.227Z</time></trkpt><trkpt lat="45.95588" lon="13.4720317"><ele>50.333333333333336</ele><time>2026-05-03T09:51:44.227Z</time></trkpt><trkpt lat="45.95595" lon="13.4720683"><ele>50.5</ele><time>2026-05-03T09:51:45.227Z</time></trkpt><trkpt lat="45.95601" lon="13.4721417"><ele>50.66666666666667</ele><time>2026-05-03T09:51:46.227Z</time></trkpt><trkpt lat="45.9560533" lon="13.4722467"><ele>50.833333333333336</ele><time>2026-05-03T09:51:47.227Z</time></trkpt><trkpt lat="45.9560833" lon="13.472385"><ele>51.0</ele><time>2026-05-03T09:51:48.227Z</time></trkpt><trkpt lat="45.9560967" lon="13.4725517"><ele>51.0</ele><time>2026-05-03T09:51:49.227Z</time></trkpt><trkpt lat="45.956105" lon="13.4727517"><ele>51.0</ele><time>2026-05-03T09:51:50.227Z</time></trkpt><trkpt lat="45.95611" lon="13.4729517"><ele>51.0</ele><time>2026-05-03T09:51:51.227Z</time></trkpt><trkpt lat="45.9561283" lon="13.473135"><ele>51.0</ele><time>2026-05-03T09:51:52.227Z</time></trkpt><trkpt lat="45.9561533" lon="13.4733183"><ele>51.0</ele><time>2026-05-03T09:51:53.227Z</time></trkpt><trkpt lat="45.9561767" lon="13.473495"><ele>51.0</ele><time>2026-05-03T09:51:54.227Z</time></trkpt><trkpt lat="45.9561967" lon="13.4736683"><ele>51.0</ele><time>2026-05-03T09:51:55.228Z</time></trkpt><trkpt lat="45.9562117" lon="13.4738517"><ele>51.0</ele><time>2026-05-03T09:51:56.227Z</time></trkpt><trkpt lat="45.9562317" lon="13.4740367"><ele>51.0</ele><time>2026-05-03T09:51:57.227Z</time></trkpt><trkpt lat="45.956255" lon="13.4742117"><ele>51.0</ele><time>2026-05-03T09:51:58.227Z</time></trkpt><trkpt lat="45.9562717" lon="13.4743883"><ele>51.0</ele><time>2026-05-03T09:51:59.227Z</time></trkpt><trkpt lat="45.9562883" lon="13.47456"><ele>51.0</ele><time>2026-05-03T09:52:00.227Z</time></trkpt><trkpt lat="45.9563" lon="13.4747483"><ele>51.0</ele><time>2026-05-03T09:52:01.227Z</time></trkpt><trkpt lat="45.9563183" lon="13.4749383"><ele>51.0</ele><time>2026-05-03T09:52:02.227Z</time></trkpt><trkpt lat="45.9563283" lon="13.47513"><ele>51.0</ele><time>2026-05-03T09:52:03.227Z</time></trkpt><trkpt lat="45.9563467" lon="13.4753383"><ele>51.0</ele><time>2026-05-03T09:52:04.227Z</time></trkpt><trkpt lat="45.9563717" lon="13.4755383"><ele>51.0</ele><time>2026-05-03T09:52:05.227Z</time></trkpt><trkpt lat="45.956395" lon="13.4757433"><ele>51.0</ele><time>2026-05-03T09:52:06.227Z</time></trkpt><trkpt lat="45.9564183" lon="13.47594"><ele>51.0</ele><time>2026-05-03T09:52:07.227Z</time></trkpt><trkpt lat="45.95644" lon="13.47614"><ele>51.0</ele><time>2026-05-03T09:52:08.227Z</time></trkpt><trkpt lat="45.9564667" lon="13.47635"><ele>51.0</ele><time>2026-05-03T09:52:09.227Z</time></trkpt><trkpt lat="45.95649" lon="13.4765483"><ele>51.0</ele><time>2026-05-03T09:52:10.227Z</time></trkpt><trkpt lat="45.9565083" lon="13.4767417"><ele>51.0</ele><time>2026-05-03T09:52:11.227Z</time></trkpt><trkpt lat="45.9565283" lon="13.4769367"><ele>51.0</ele><time>2026-05-03T09:52:12.227Z</time></trkpt><trkpt lat="45.95655" lon="13.4771233"><ele>51.5</ele><time>2026-05-03T09:52:13.227Z</time></trkpt><trkpt lat="45.9565767" lon="13.477305"><ele>52.0</ele><time>2026-05-03T09:52:14.227Z</time></trkpt><trkpt lat="45.9566033" lon="13.4774833"><ele>52.5</ele><time>2026-05-03T09:52:15.227Z</time></trkpt><trkpt lat="45.9566267" lon="13.47766"><ele>53.0</ele><time>2026-05-03T09:52:16.227Z</time></trkpt><trkpt lat="45.9566433" lon="13.47784"><ele>53.0</ele><time>2026-05-03T09:52:17.227Z</time></trkpt><trkpt lat="45.95666" lon="13.47802"><ele>53.0</ele><time>2026-05-03T09:52:18.227Z</time></trkpt><trkpt lat="45.9566817" lon="13.4781917"><ele>53.0</ele><time>2026-05-03T09:52:19.227Z</time></trkpt><trkpt lat="45.9566983" lon="13.478365"><ele>53.0</ele><time>2026-05-03T09:52:20.227Z</time></trkpt><trkpt lat="45.95672" lon="13.4785317"><ele>53.0</ele><time>2026-05-03T09:52:21.227Z</time></trkpt><trkpt lat="45.9567433" lon="13.4786917"><ele>53.0</ele><time>2026-05-03T09:52:22.227Z</time></trkpt><trkpt lat="45.95676" lon="13.4788517"><ele>53.0</ele><time>2026-05-03T09:52:23.227Z</time></trkpt><trkpt lat="45.9567833" lon="13.4790133"><ele>53.0</ele><time>2026-05-03T09:52:24.227Z</time></trkpt><trkpt lat="45.9568033" lon="13.479185"><ele>53.5</ele><time>2026-05-03T09:52:25.228Z</time></trkpt><trkpt lat="45.956825" lon="13.479355"><ele>54.0</ele><time>2026-05-03T09:52:26.227Z</time></trkpt><trkpt lat="45.956845" lon="13.479525"><ele>54.5</ele><time>2026-05-03T09:52:27.227Z</time></trkpt><trkpt lat="45.9568583" lon="13.4797033"><ele>55.0</ele><time>2026-05-03T09:52:28.227Z</time></trkpt><trkpt lat="45.9568767" lon="13.479875"><ele>55.0</ele><time>2026-05-03T09:52:29.227Z</time></trkpt><trkpt lat="45.9568967" lon="13.48004"><ele>55.0</ele><time>2026-05-03T09:52:30.227Z</time></trkpt><trkpt lat="45.9569167" lon="13.4802067"><ele>55.0</ele><time>2026-05-03T09:52:31.227Z</time></trkpt><trkpt lat="45.9569333" lon="13.4803883"><ele>55.0</ele><time>2026-05-03T09:52:32.227Z</time></trkpt><trkpt lat="45.9569533" lon="13.4805683"><ele>55.75</ele><time>2026-05-03T09:52:33.227Z</time></trkpt><trkpt lat="45.95697" lon="13.4807517"><ele>56.5</ele><time>2026-05-03T09:52:34.227Z</time></trkpt><trkpt lat="45.9569883" lon="13.4809433"><ele>57.25</ele><time>2026-05-03T09:52:35.227Z</time></trkpt><trkpt lat="45.9570083" lon="13.481125"><ele>58.0</ele><time>2026-05-03T09:52:36.227Z</time></trkpt><trkpt lat="45.95702" lon="13.481305"><ele>58.5</ele><time>2026-05-03T09:52:37.227Z</time></trkpt><trkpt lat="45.957025" lon="13.4814967"><ele>59.0</ele><time>2026-05-03T09:52:38.227Z</time></trkpt><trkpt lat="45.95702" lon="13.4816867"><ele>59.5</ele><time>2026-05-03T09:52:39.227Z</time></trkpt><trkpt lat="45.9569917" lon="13.4818817"><ele>60.0</ele><time>2026-05-03T09:52:40.227Z</time></trkpt><trkpt lat="45.9569583" lon="13.48208"><ele>61.0</ele><time>2026-05-03T09:52:41.227Z</time></trkpt><trkpt lat="45.9569267" lon="13.4822867"><ele>62.0</ele><time>2026-05-03T09:52:42.227Z</time></trkpt><trkpt lat="45.9569017" lon="13.482495"><ele>63.0</ele><time>2026-05-03T09:52:43.227Z</time></trkpt><trkpt lat="45.9568867" lon="13.4827067"><ele>64.0</ele><time>2026-05-03T09:52:44.227Z</time></trkpt><trkpt lat="45.9568733" lon="13.48292"><ele>65.0</ele><time>2026-05-03T09:52:45.227Z</time></trkpt><trkpt lat="45.9568633" lon="13.483115"><ele>66.0</ele><time>2026-05-03T09:52:46.227Z</time></trkpt><trkpt lat="45.9568683" lon="13.483315"><ele>67.0</ele><time>2026-05-03T09:52:47.227Z</time></trkpt><trkpt lat="45.9568833" lon="13.4834967"><ele>68.0</ele><time>2026-05-03T09:52:48.228Z</time></trkpt><trkpt lat="45.95694" lon="13.4836567"><ele>66.25</ele><time>2026-05-03T09:52:49.227Z</time></trkpt><trkpt lat="45.9570267" lon="13.4837983"><ele>64.5</ele><time>2026-05-03T09:52:50.227Z</time></trkpt><trkpt lat="45.9571217" lon="13.4839417"><ele>62.75</ele><time>2026-05-03T09:52:51.227Z</time></trkpt><trkpt lat="45.9572133" lon="13.4840983"><ele>61.0</ele><time>2026-05-03T09:52:52.227Z</time></trkpt><trkpt lat="45.9573083" lon="13.4842633"><ele>61.0</ele><time>2026-05-03T09:52:53.227Z</time></trkpt><trkpt lat="45.9574133" lon="13.4844333"><ele>61.0</ele><time>2026-05-03T09:52:54.228Z</time></trkpt><trkpt lat="45.9575167" lon="13.4846"><ele>61.0</ele><time>2026-05-03T09:52:55.227Z</time></trkpt><trkpt lat="45.9576067" lon="13.4847683"><ele>61.75</ele><time>2026-05-03T09:52:56.227Z</time></trkpt><trkpt lat="45.957695" lon="13.484925"><ele>62.5</ele><time>2026-05-03T09:52:57.227Z</time></trkpt><trkpt lat="45.957795" lon="13.48508"><ele>63.25</ele><time>2026-05-03T09:52:58.227Z</time></trkpt><trkpt lat="45.9579133" lon="13.4852133"><ele>64.0</ele><time>2026-05-03T09:52:59.227Z</time></trkpt><trkpt lat="45.9580317" lon="13.4853583"><ele>65.0</ele><time>2026-05-03T09:53:00.227Z</time></trkpt><trkpt lat="45.9581633" lon="13.4854933"><ele>66.0</ele><time>2026-05-03T09:53:01.227Z</time></trkpt><trkpt lat="45.9582933" lon="13.4856267"><ele>67.0</ele><time>2026-05-03T09:53:02.227Z</time></trkpt><trkpt lat="45.9584183" lon="13.485755"><ele>67.0</ele><time>2026-05-03T09:53:03.227Z</time></trkpt><trkpt lat="45.9585317" lon="13.4858767"><ele>67.0</ele><time>2026-05-03T09:53:04.227Z</time></trkpt><trkpt lat="45.9586367" lon="13.4860017"><ele>67.0</ele><time>2026-05-03T09:53:05.227Z</time></trkpt><trkpt lat="45.95873" lon="13.4861383"><ele>67.0</ele><time>2026-05-03T09:53:06.227Z</time></trkpt><trkpt lat="45.9588067" lon="13.4862867"><ele>65.75</ele><time>2026-05-03T09:53:07.227Z</time></trkpt><trkpt lat="45.9588783" lon="13.486425"><ele>64.5</ele><time>2026-05-03T09:53:08.227Z</time></trkpt><trkpt lat="45.95895" lon="13.486555"><ele>63.25</ele><time>2026-05-03T09:53:09.227Z</time></trkpt><trkpt lat="45.959015" lon="13.4866817"><ele>62.0</ele><time>2026-05-03T09:53:10.227Z</time></trkpt><trkpt lat="45.95908" lon="13.486805"><ele>62.0</ele><time>2026-05-03T09:53:11.227Z</time></trkpt><trkpt lat="45.9591333" lon="13.4869167"><ele>62.0</ele><time>2026-05-03T09:53:12.227Z</time></trkpt><trkpt lat="45.959185" lon="13.4870317"><ele>62.0</ele><time>2026-05-03T09:53:13.228Z</time></trkpt><trkpt lat="45.9592333" lon="13.487145"><ele>62.0</ele><time>2026-05-03T09:53:14.227Z</time></trkpt><trkpt lat="45.9592867" lon="13.48725"><ele>62.0</ele><time>2026-05-03T09:53:15.227Z</time></trkpt><trkpt lat="45.9593383" lon="13.4873533"><ele>64.0</ele><time>2026-05-03T09:53:16.227Z</time></trkpt><trkpt lat="45.959385" lon="13.487455"><ele>66.0</ele><time>2026-05-03T09:53:17.227Z</time></trkpt><trkpt lat="45.95942" lon="13.48756"><ele>68.0</ele><time>2026-05-03T09:53:18.227Z</time></trkpt><trkpt lat="45.9594567" lon="13.487655"><ele>70.0</ele><time>2026-05-03T09:53:19.227Z</time></trkpt><trkpt lat="45.9594933" lon="13.4877467"><ele>72.0</ele><time>2026-05-03T09:53:20.227Z</time></trkpt><trkpt lat="45.959525" lon="13.4878267"><ele>74.0</ele><time>2026-05-03T09:53:21.227Z</time></trkpt><trkpt lat="45.959575" lon="13.4879533"><ele>75.16666666666667</ele><time>2026-05-03T09:53:23.227Z</time></trkpt><trkpt lat="45.9596217" lon="13.488085"><ele>76.33333333333334</ele><time>2026-05-03T09:53:25.228Z</time></trkpt><trkpt lat="45.959655" lon="13.4881933"><ele>77.5</ele><time>2026-05-03T09:53:27.227Z</time></trkpt><trkpt lat="45.9597017" lon="13.4882917"><ele>78.66666666666667</ele><time>2026-05-03T09:53:29.227Z</time></trkpt><trkpt lat="45.959735" lon="13.4883767"><ele>79.83333333333333</ele><time>2026-05-03T09:53:30.227Z</time></trkpt><trkpt lat="45.9597683" lon="13.4884767"><ele>81.0</ele><time>2026-05-03T09:53:31.227Z</time></trkpt><trkpt lat="45.95981" lon="13.4885817"><ele>81.0</ele><time>2026-05-03T09:53:32.227Z</time></trkpt><trkpt lat="45.9598617" lon="13.4886933"><ele>81.0</ele><time>2026-05-03T09:53:33.227Z</time></trkpt><trkpt lat="45.9599167" lon="13.4888067"><ele>81.0</ele><time>2026-05-03T09:53:34.227Z</time></trkpt><trkpt lat="45.959975" lon="13.4889133"><ele>81.0</ele><time>2026-05-03T09:53:35.227Z</time></trkpt><trkpt lat="45.9600417" lon="13.489015"><ele>81.0</ele><time>2026-05-03T09:53:36.227Z</time></trkpt><trkpt lat="45.9601217" lon="13.489095"><ele>85.19999999999999</ele><time>2026-05-03T09:53:37.228Z</time></trkpt><trkpt lat="45.9602117" lon="13.4891583"><ele>89.39999999999999</ele><time>2026-05-03T09:53:38.227Z</time></trkpt><trkpt lat="45.9603083" lon="13.48922"><ele>93.6</ele><time>2026-05-03T09:53:39.227Z</time></trkpt><trkpt lat="45.9604033" lon="13.489275"><ele>97.8</ele><time>2026-05-03T09:53:40.227Z</time></trkpt><trkpt lat="45.96049" lon="13.4893283"><ele>102.0</ele><time>2026-05-03T09:53:41.227Z</time></trkpt><trkpt lat="45.9605783" lon="13.4894033"><ele>102.0</ele><time>2026-05-03T09:53:42.227Z</time></trkpt><trkpt lat="45.960655" lon="13.4895133"><ele>102.0</ele><time>2026-05-03T09:53:43.227Z</time></trkpt><trkpt lat="45.960735" lon="13.4896367"><ele>102.0</ele><time>2026-05-03T09:53:44.227Z</time></trkpt><trkpt lat="45.960815" lon="13.4897567"><ele>102.0</ele><time>2026-05-03T09:53:45.227Z</time></trkpt><trkpt lat="45.9608883" lon="13.4898717"><ele>98.8</ele><time>2026-05-03T09:53:46.227Z</time></trkpt><trkpt lat="45.9609633" lon="13.48998"><ele>95.6</ele><time>2026-05-03T09:53:47.227Z</time></trkpt><trkpt lat="45.9610433" lon="13.4900867"><ele>92.39999999999999</ele><time>2026-05-03T09:53:48.227Z</time></trkpt><trkpt lat="45.961125" lon="13.49019"><ele>89.19999999999999</ele><time>2026-05-03T09:53:49.227Z</time></trkpt><trkpt lat="45.9612117" lon="13.4903017"><ele>86.0</ele><time>2026-05-03T09:53:50.227Z</time></trkpt><trkpt lat="45.96128" lon="13.490415"><ele>84.75</ele><time>2026-05-03T09:53:51.227Z</time></trkpt><trkpt lat="45.9613433" lon="13.4905567"><ele>83.5</ele><time>2026-05-03T09:53:52.227Z</time></trkpt><trkpt lat="45.9614067" lon="13.49071"><ele>82.25</ele><time>2026-05-03T09:53:53.227Z</time></trkpt><trkpt lat="45.9614483" lon="13.4908667"><ele>81.0</ele><time>2026-05-03T09:53:54.227Z</time></trkpt><trkpt lat="45.9615033" lon="13.4910333"><ele>81.0</ele><time>2026-05-03T09:53:55.227Z</time></trkpt><trkpt lat="45.9615417" lon="13.491185"><ele>81.0</ele><time>2026-05-03T09:53:56.227Z</time></trkpt><trkpt lat="45.961585" lon="13.4913367"><ele>81.0</ele><time>2026-05-03T09:53:57.227Z</time></trkpt><trkpt lat="45.9616267" lon="13.4914883"><ele>81.0</ele><time>2026-05-03T09:53:58.227Z</time></trkpt><trkpt lat="45.9616717" lon="13.4916333"><ele>79.8</ele><time>2026-05-03T09:53:59.227Z</time></trkpt><trkpt lat="45.9617217" lon="13.4917717"><ele>78.6</ele><time>2026-05-03T09:54:00.227Z</time></trkpt><trkpt lat="45.96177" lon="13.4919067"><ele>77.4</ele><time>2026-05-03T09:54:01.228Z</time></trkpt><trkpt lat="45.96184" lon="13.4920433"><ele>76.2</ele><time>2026-05-03T09:54:02.227Z</time></trkpt><trkpt lat="45.9619133" lon="13.4921717"><ele>75.0</ele><time>2026-05-03T09:54:03.227Z</time></trkpt><trkpt lat="45.9620033" lon="13.492285"><ele>74.5</ele><time>2026-05-03T09:54:04.227Z</time></trkpt><trkpt lat="45.9620983" lon="13.4924083"><ele>74.0</ele><time>2026-05-03T09:54:05.227Z</time></trkpt><trkpt lat="45.9621983" lon="13.4925317"><ele>73.5</ele><time>2026-05-03T09:54:06.227Z</time></trkpt><trkpt lat="45.962295" lon="13.4926583"><ele>73.0</ele><time>2026-05-03T09:54:07.227Z</time></trkpt><trkpt lat="45.9623983" lon="13.4927767"><ele>73.0</ele><time>2026-05-03T09:54:08.227Z</time></trkpt><trkpt lat="45.962505" lon="13.4929017"><ele>73.0</ele><time>2026-05-03T09:54:09.227Z</time></trkpt><trkpt lat="45.9626183" lon="13.4930317"><ele>73.0</ele><time>2026-05-03T09:54:10.227Z</time></trkpt><trkpt lat="45.9627317" lon="13.4931617"><ele>73.0</ele><time>2026-05-03T09:54:11.227Z</time></trkpt><trkpt lat="45.9628417" lon="13.4932967"><ele>74.0</ele><time>2026-05-03T09:54:12.227Z</time></trkpt><trkpt lat="45.9629583" lon="13.4934367"><ele>75.0</ele><time>2026-05-03T09:54:13.227Z</time></trkpt><trkpt lat="45.963065" lon="13.493565"><ele>76.0</ele><time>2026-05-03T09:54:14.227Z</time></trkpt><trkpt lat="45.9631683" lon="13.4936917"><ele>77.0</ele><time>2026-05-03T09:54:15.227Z</time></trkpt><trkpt lat="45.963265" lon="13.4938167"><ele>77.0</ele><time>2026-05-03T09:54:16.227Z</time></trkpt><trkpt lat="45.9633517" lon="13.49394"><ele>77.0</ele><time>2026-05-03T09:54:17.227Z</time></trkpt><trkpt lat="45.9634183" lon="13.4940717"><ele>77.0</ele><time>2026-05-03T09:54:18.227Z</time></trkpt><trkpt lat="45.9634767" lon="13.494215"><ele>77.0</ele><time>2026-05-03T09:54:19.227Z</time></trkpt><trkpt lat="45.9635383" lon="13.494355"><ele>78.25</ele><time>2026-05-03T09:54:20.227Z</time></trkpt><trkpt lat="45.9636017" lon="13.494495"><ele>79.5</ele><time>2026-05-03T09:54:21.227Z</time></trkpt><trkpt lat="45.9636733" lon="13.4946383"><ele>80.75</ele><time>2026-05-03T09:54:22.227Z</time></trkpt><trkpt lat="45.9637467" lon="13.494775"><ele>82.0</ele><time>2026-05-03T09:54:23.227Z</time></trkpt><trkpt lat="45.96382" lon="13.4949067"><ele>82.0</ele><time>2026-05-03T09:54:24.227Z</time></trkpt><trkpt lat="45.9638917" lon="13.4950217"><ele>82.0</ele><time>2026-05-03T09:54:25.227Z</time></trkpt><trkpt lat="45.9639567" lon="13.49513"><ele>82.0</ele><time>2026-05-03T09:54:26.227Z</time></trkpt><trkpt lat="45.9640183" lon="13.4952333"><ele>82.0</ele><time>2026-05-03T09:54:27.226Z</time></trkpt><trkpt lat="45.9640767" lon="13.495315"><ele>82.0</ele><time>2026-05-03T09:54:28.226Z</time></trkpt><trkpt lat="45.96415" lon="13.4954183"><ele>80.5</ele><time>2026-05-03T09:54:30.226Z</time></trkpt><trkpt lat="45.9642217" lon="13.4955083"><ele>79.0</ele><time>2026-05-03T09:54:32.226Z</time></trkpt><trkpt lat="45.9642733" lon="13.4955767"><ele>77.5</ele><time>2026-05-03T09:54:33.226Z</time></trkpt><trkpt lat="45.9643233" lon="13.495655"><ele>76.0</ele><time>2026-05-03T09:54:34.226Z</time></trkpt><trkpt lat="45.964375" lon="13.49574"><ele>74.5</ele><time>2026-05-03T09:54:35.226Z</time></trkpt><trkpt lat="45.9644367" lon="13.4958333"><ele>73.0</ele><time>2026-05-03T09:54:36.226Z</time></trkpt><trkpt lat="45.96451" lon="13.4959333"><ele>73.0</ele><time>2026-05-03T09:54:37.226Z</time></trkpt><trkpt lat="45.9646" lon="13.4960217"><ele>73.0</ele><time>2026-05-03T09:54:38.226Z</time></trkpt><trkpt lat="45.964705" lon="13.4960983"><ele>73.0</ele><time>2026-05-03T09:54:39.226Z</time></trkpt><trkpt lat="45.9648233" lon="13.496185"><ele>73.0</ele><time>2026-05-03T09:54:40.226Z</time></trkpt><trkpt lat="45.9649383" lon="13.496265"><ele>69.75</ele><time>2026-05-03T09:54:41.226Z</time></trkpt><trkpt lat="45.9650617" lon="13.4963333"><ele>66.5</ele><time>2026-05-03T09:54:42.226Z</time></trkpt><trkpt lat="45.9651933" lon="13.4963967"><ele>63.25</ele><time>2026-05-03T09:54:43.227Z</time></trkpt><trkpt lat="45.9653217" lon="13.496455"><ele>60.0</ele><time>2026-05-03T09:54:44.226Z</time></trkpt><trkpt lat="45.9654467" lon="13.4965017"><ele>60.0</ele><time>2026-05-03T09:54:45.226Z</time></trkpt><trkpt lat="45.9655933" lon="13.4965383"><ele>60.0</ele><time>2026-05-03T09:54:46.226Z</time></trkpt><trkpt lat="45.9657333" lon="13.496565"><ele>60.0</ele><time>2026-05-03T09:54:47.226Z</time></trkpt><trkpt lat="45.9658817" lon="13.496545"><ele>60.0</ele><time>2026-05-03T09:54:48.226Z</time></trkpt><trkpt lat="45.96603" lon="13.4964867"><ele>59.75</ele><time>2026-05-03T09:54:49.226Z</time></trkpt><trkpt lat="45.9661683" lon="13.4964167"><ele>59.5</ele><time>2026-05-03T09:54:50.226Z</time></trkpt><trkpt lat="45.966305" lon="13.4963367"><ele>59.25</ele><time>2026-05-03T09:54:51.226Z</time></trkpt><trkpt lat="45.9664417" lon="13.4962617"><ele>59.0</ele><time>2026-05-03T09:54:52.226Z</time></trkpt><trkpt lat="45.9665733" lon="13.496185"><ele>59.25</ele><time>2026-05-03T09:54:53.226Z</time></trkpt><trkpt lat="45.96671" lon="13.4961033"><ele>59.5</ele><time>2026-05-03T09:54:54.226Z</time></trkpt><trkpt lat="45.9668467" lon="13.4960233"><ele>59.75</ele><time>2026-05-03T09:54:55.226Z</time></trkpt><trkpt lat="45.966985" lon="13.4959417"><ele>60.0</ele><time>2026-05-03T09:54:56.226Z</time></trkpt><trkpt lat="45.9671233" lon="13.4958583"><ele>60.0</ele><time>2026-05-03T09:54:57.226Z</time></trkpt><trkpt lat="45.9672617" lon="13.4957767"><ele>60.0</ele><time>2026-05-03T09:54:58.226Z</time></trkpt><trkpt lat="45.9674" lon="13.4957133"><ele>60.0</ele><time>2026-05-03T09:54:59.226Z</time></trkpt><trkpt lat="45.9675567" lon="13.49565"><ele>59.0</ele><time>2026-05-03T09:55:00.226Z</time></trkpt><trkpt lat="45.96772" lon="13.4956117"><ele>58.0</ele><time>2026-05-03T09:55:01.226Z</time></trkpt><trkpt lat="45.96788" lon="13.4955883"><ele>57.0</ele><time>2026-05-03T09:55:02.226Z</time></trkpt><trkpt lat="45.968035" lon="13.4955833"><ele>57.0</ele><time>2026-05-03T09:55:03.226Z</time></trkpt><trkpt lat="45.9681883" lon="13.4955883"><ele>57.0</ele><time>2026-05-03T09:55:04.226Z</time></trkpt><trkpt lat="45.96834" lon="13.495595"><ele>57.0</ele><time>2026-05-03T09:55:05.226Z</time></trkpt><trkpt lat="45.9684983" lon="13.4955983"><ele>57.0</ele><time>2026-05-03T09:55:06.226Z</time></trkpt><trkpt lat="45.9686617" lon="13.4955917"><ele>57.0</ele><time>2026-05-03T09:55:07.226Z</time></trkpt><trkpt lat="45.96882" lon="13.495585"><ele>57.0</ele><time>2026-05-03T09:55:08.226Z</time></trkpt><trkpt lat="45.9689733" lon="13.4955833"><ele>57.0</ele><time>2026-05-03T09:55:09.226Z</time></trkpt><trkpt lat="45.969115" lon="13.4955883"><ele>57.0</ele><time>2026-05-03T09:55:10.226Z</time></trkpt><trkpt lat="45.9692467" lon="13.4955933"><ele>57.0</ele><time>2026-05-03T09:55:11.226Z</time></trkpt><trkpt lat="45.969395" lon="13.4955883"><ele>57.0</ele><time>2026-05-03T09:55:12.226Z</time></trkpt><trkpt lat="45.9695317" lon="13.4955983"><ele>58.0</ele><time>2026-05-03T09:55:13.226Z</time></trkpt><trkpt lat="45.9696733" lon="13.4956167"><ele>59.0</ele><time>2026-05-03T09:55:14.226Z</time></trkpt><trkpt lat="45.9698167" lon="13.4956433"><ele>60.0</ele><time>2026-05-03T09:55:15.226Z</time></trkpt><trkpt lat="45.9699767" lon="13.4956867"><ele>60.33333333333333</ele><time>2026-05-03T09:55:16.226Z</time></trkpt><trkpt lat="45.9701267" lon="13.4957567"><ele>60.666666666666664</ele><time>2026-05-03T09:55:17.226Z</time></trkpt><trkpt lat="45.9702733" lon="13.4958417"><ele>61.0</ele><time>2026-05-03T09:55:18.226Z</time></trkpt><trkpt lat="45.9704283" lon="13.495925"><ele>61.0</ele><time>2026-05-03T09:55:19.226Z</time></trkpt><trkpt lat="45.97057" lon="13.4960233"><ele>61.0</ele><time>2026-05-03T09:55:20.226Z</time></trkpt><trkpt lat="45.9707167" lon="13.49612"><ele>61.0</ele><time>2026-05-03T09:55:21.226Z</time></trkpt><trkpt lat="45.9708633" lon="13.4962217"><ele>60.0</ele><time>2026-05-03T09:55:22.226Z</time></trkpt><trkpt lat="45.9710117" lon="13.4963283"><ele>59.0</ele><time>2026-05-03T09:55:23.226Z</time></trkpt><trkpt lat="45.9711683" lon="13.4964483"><ele>58.0</ele><time>2026-05-03T09:55:24.226Z</time></trkpt><trkpt lat="45.97131" lon="13.4965933"><ele>58.0</ele><time>2026-05-03T09:55:25.226Z</time></trkpt><trkpt lat="45.971445" lon="13.496735"><ele>58.0</ele><time>2026-05-03T09:55:26.226Z</time></trkpt><trkpt lat="45.971575" lon="13.4968833"><ele>58.0</ele><time>2026-05-03T09:55:27.226Z</time></trkpt><trkpt lat="45.971705" lon="13.4970383"><ele>58.666666666666664</ele><time>2026-05-03T09:55:28.226Z</time></trkpt><trkpt lat="45.971835" lon="13.4971883"><ele>59.33333333333333</ele><time>2026-05-03T09:55:29.226Z</time></trkpt><trkpt lat="45.9719683" lon="13.4973267"><ele>60.0</ele><time>2026-05-03T09:55:30.226Z</time></trkpt><trkpt lat="45.9721" lon="13.4974717"><ele>60.0</ele><time>2026-05-03T09:55:31.226Z</time></trkpt><trkpt lat="45.9722283" lon="13.4976183"><ele>60.0</ele><time>2026-05-03T09:55:32.226Z</time></trkpt><trkpt lat="45.9723533" lon="13.49776"><ele>60.0</ele><time>2026-05-03T09:55:33.226Z</time></trkpt><trkpt lat="45.972475" lon="13.4979033"><ele>59.66666666666667</ele><time>2026-05-03T09:55:34.226Z</time></trkpt><trkpt lat="45.9726" lon="13.498035"><ele>59.333333333333336</ele><time>2026-05-03T09:55:35.226Z</time></trkpt><trkpt lat="45.972725" lon="13.4981667"><ele>59.0</ele><time>2026-05-03T09:55:36.226Z</time></trkpt><trkpt lat="45.9728533" lon="13.4983083"><ele>59.0</ele><time>2026-05-03T09:55:37.226Z</time></trkpt><trkpt lat="45.9729783" lon="13.4984467"><ele>59.0</ele><time>2026-05-03T09:55:38.226Z</time></trkpt><trkpt lat="45.973105" lon="13.4985817"><ele>59.0</ele><time>2026-05-03T09:55:39.226Z</time></trkpt><trkpt lat="45.9732267" lon="13.4987183"><ele>58.0</ele><time>2026-05-03T09:55:40.226Z</time></trkpt><trkpt lat="45.9733383" lon="13.4988533"><ele>57.0</ele><time>2026-05-03T09:55:41.226Z</time></trkpt><trkpt lat="45.9734483" lon="13.4989767"><ele>56.0</ele><time>2026-05-03T09:55:42.226Z</time></trkpt><trkpt lat="45.9735567" lon="13.4991017"><ele>55.0</ele><time>2026-05-03T09:55:43.226Z</time></trkpt><trkpt lat="45.9736467" lon="13.499215"><ele>54.75</ele><time>2026-05-03T09:55:44.226Z</time></trkpt><trkpt lat="45.973745" lon="13.4993083"><ele>54.5</ele><time>2026-05-03T09:55:45.226Z</time></trkpt><trkpt lat="45.9738517" lon="13.4993633"><ele>54.25</ele><time>2026-05-03T09:55:46.226Z</time></trkpt><trkpt lat="45.9739667" lon="13.49937"><ele>54.0</ele><time>2026-05-03T09:55:47.226Z</time></trkpt><trkpt lat="45.97409" lon="13.4993133"><ele>53.66666666666667</ele><time>2026-05-03T09:55:48.226Z</time></trkpt><trkpt lat="45.9742233" lon="13.499225"><ele>53.333333333333336</ele><time>2026-05-03T09:55:49.226Z</time></trkpt><trkpt lat="45.9743567" lon="13.4991267"><ele>53.0</ele><time>2026-05-03T09:55:50.226Z</time></trkpt><trkpt lat="45.9745" lon="13.4990267"><ele>53.0</ele><time>2026-05-03T09:55:51.226Z</time></trkpt><trkpt lat="45.9746417" lon="13.498925"><ele>53.0</ele><time>2026-05-03T09:55:52.226Z</time></trkpt><trkpt lat="45.9747883" lon="13.4988283"><ele>53.0</ele><time>2026-05-03T09:55:53.226Z</time></trkpt><trkpt lat="45.9749333" lon="13.4987283"><ele>53.66666666666667</ele><time>2026-05-03T09:55:54.226Z</time></trkpt><trkpt lat="45.9750817" lon="13.4986267"><ele>54.33333333333333</ele><time>2026-05-03T09:55:55.226Z</time></trkpt><trkpt lat="45.975235" lon="13.4985283"><ele>55.0</ele><time>2026-05-03T09:55:56.226Z</time></trkpt><trkpt lat="45.9753883" lon="13.498435"><ele>55.0</ele><time>2026-05-03T09:55:57.226Z</time></trkpt><trkpt lat="45.97554" lon="13.4983317"><ele>55.0</ele><time>2026-05-03T09:55:58.226Z</time></trkpt><trkpt lat="45.97569" lon="13.49823"><ele>55.0</ele><time>2026-05-03T09:55:59.226Z</time></trkpt><trkpt lat="45.9758417" lon="13.49813"><ele>56.33333333333333</ele><time>2026-05-03T09:56:00.226Z</time></trkpt><trkpt lat="45.9759967" lon="13.498035"><ele>57.66666666666667</ele><time>2026-05-03T09:56:01.226Z</time></trkpt><trkpt lat="45.9761483" lon="13.4979467"><ele>59.0</ele><time>2026-05-03T09:56:02.226Z</time></trkpt><trkpt lat="45.9763017" lon="13.4978583"><ele>60.0</ele><time>2026-05-03T09:56:03.226Z</time></trkpt><trkpt lat="45.976455" lon="13.4977667"><ele>61.0</ele><time>2026-05-03T09:56:04.226Z</time></trkpt><trkpt lat="45.9766117" lon="13.4976733"><ele>62.0</ele><time>2026-05-03T09:56:05.227Z</time></trkpt><trkpt lat="45.9767667" lon="13.4975817"><ele>65.0</ele><time>2026-05-03T09:56:06.226Z</time></trkpt><trkpt lat="45.976925" lon="13.4974883"><ele>68.0</ele><time>2026-05-03T09:56:07.226Z</time></trkpt><trkpt lat="45.977085" lon="13.4973967"><ele>71.0</ele><time>2026-05-03T09:56:08.226Z</time></trkpt><trkpt lat="45.9772483" lon="13.4973017"><ele>71.0</ele><time>2026-05-03T09:56:09.226Z</time></trkpt><trkpt lat="45.97741" lon="13.4972033"><ele>71.0</ele><time>2026-05-03T09:56:10.226Z</time></trkpt><trkpt lat="45.9775667" lon="13.4971117"><ele>71.0</ele><time>2026-05-03T09:56:11.226Z</time></trkpt><trkpt lat="45.977715" lon="13.4970283"><ele>75.0</ele><time>2026-05-03T09:56:12.226Z</time></trkpt><trkpt lat="45.9778633" lon="13.4969417"><ele>79.0</ele><time>2026-05-03T09:56:13.226Z</time></trkpt><trkpt lat="45.9780117" lon="13.49684"><ele>83.0</ele><time>2026-05-03T09:56:14.226Z</time></trkpt><trkpt lat="45.9781517" lon="13.4967567"><ele>83.0</ele><time>2026-05-03T09:56:15.226Z</time></trkpt><trkpt lat="45.978295" lon="13.4966833"><ele>83.0</ele><time>2026-05-03T09:56:16.226Z</time></trkpt><trkpt lat="45.9784333" lon="13.4966183"><ele>83.0</ele><time>2026-05-03T09:56:17.226Z</time></trkpt><trkpt lat="45.9785633" lon="13.496575"><ele>83.0</ele><time>2026-05-03T09:56:18.226Z</time></trkpt><trkpt lat="45.9786867" lon="13.4965483"><ele>84.0</ele><time>2026-05-03T09:56:19.226Z</time></trkpt><trkpt lat="45.978805" lon="13.4965617"><ele>85.0</ele><time>2026-05-03T09:56:20.226Z</time></trkpt><trkpt lat="45.97892" lon="13.4965967"><ele>86.0</ele><time>2026-05-03T09:56:21.226Z</time></trkpt><trkpt lat="45.9790283" lon="13.4966683"><ele>87.0</ele><time>2026-05-03T09:56:22.226Z</time></trkpt><trkpt lat="45.9791467" lon="13.4967583"><ele>88.0</ele><time>2026-05-03T09:56:23.226Z</time></trkpt><trkpt lat="45.9792733" lon="13.4968517"><ele>89.0</ele><time>2026-05-03T09:56:24.226Z</time></trkpt><trkpt lat="45.9794017" lon="13.4969583"><ele>90.0</ele><time>2026-05-03T09:56:25.226Z</time></trkpt><trkpt lat="45.979535" lon="13.4970683"><ele>91.0</ele><time>2026-05-03T09:56:26.226Z</time></trkpt><trkpt lat="45.97967" lon="13.4971783"><ele>91.0</ele><time>2026-05-03T09:56:27.226Z</time></trkpt><trkpt lat="45.979815" lon="13.497285"><ele>91.0</ele><time>2026-05-03T09:56:28.226Z</time></trkpt><trkpt lat="45.979955" lon="13.4973967"><ele>91.0</ele><time>2026-05-03T09:56:29.226Z</time></trkpt><trkpt lat="45.9800983" lon="13.4975017"><ele>92.0</ele><time>2026-05-03T09:56:30.226Z</time></trkpt><trkpt lat="45.9802417" lon="13.49761"><ele>93.0</ele><time>2026-05-03T09:56:31.226Z</time></trkpt><trkpt lat="45.9803783" lon="13.4977117"><ele>94.0</ele><time>2026-05-03T09:56:32.226Z</time></trkpt><trkpt lat="45.9805017" lon="13.497835"><ele>95.5</ele><time>2026-05-03T09:56:33.226Z</time></trkpt><trkpt lat="45.9806067" lon="13.4979733"><ele>97.0</ele><time>2026-05-03T09:56:34.227Z</time></trkpt><trkpt lat="45.980695" lon="13.4981417"><ele>98.5</ele><time>2026-05-03T09:56:35.226Z</time></trkpt><trkpt lat="45.9807567" lon="13.4983283"><ele>100.0</ele><time>2026-05-03T09:56:36.226Z</time></trkpt><trkpt lat="45.98082" lon="13.498515"><ele>99.75</ele><time>2026-05-03T09:56:37.226Z</time></trkpt><trkpt lat="45.9808867" lon="13.4986983"><ele>99.5</ele><time>2026-05-03T09:56:38.226Z</time></trkpt><trkpt lat="45.980955" lon="13.4988633"><ele>99.25</ele><time>2026-05-03T09:56:39.226Z</time></trkpt><trkpt lat="45.98102" lon="13.4990333"><ele>99.0</ele><time>2026-05-03T09:56:40.226Z</time></trkpt><trkpt lat="45.9810883" lon="13.4992"><ele>99.0</ele><time>2026-05-03T09:56:41.226Z</time></trkpt><trkpt lat="45.981165" lon="13.4993583"><ele>99.0</ele><time>2026-05-03T09:56:42.227Z</time></trkpt><trkpt lat="45.9812517" lon="13.4994933"><ele>99.0</ele><time>2026-05-03T09:56:43.226Z</time></trkpt><trkpt lat="45.9813367" lon="13.499605"><ele>99.0</ele><time>2026-05-03T09:56:44.226Z</time></trkpt><trkpt lat="45.9814133" lon="13.4996967"><ele>100.0</ele><time>2026-05-03T09:56:45.226Z</time></trkpt><trkpt lat="45.9814783" lon="13.4997733"><ele>101.0</ele><time>2026-05-03T09:56:46.226Z</time></trkpt><trkpt lat="45.98154" lon="13.499825"><ele>102.0</ele><time>2026-05-03T09:56:47.226Z</time></trkpt><trkpt lat="45.9816083" lon="13.49986"><ele>103.0</ele><time>2026-05-03T09:56:48.226Z</time></trkpt><trkpt lat="45.9816833" lon="13.499915"><ele>104.0</ele><time>2026-05-03T09:56:49.226Z</time></trkpt><trkpt lat="45.981765" lon="13.4999867"><ele>105.0</ele><time>2026-05-03T09:56:50.226Z</time></trkpt><trkpt lat="45.9818717" lon="13.5000467"><ele>105.0</ele><time>2026-05-03T09:56:51.226Z</time></trkpt><trkpt lat="45.982005" lon="13.5000867"><ele>105.0</ele><time>2026-05-03T09:56:52.226Z</time></trkpt><trkpt lat="45.982145" lon="13.5000817"><ele>105.0</ele><time>2026-05-03T09:56:53.226Z</time></trkpt><trkpt lat="45.982295" lon="13.5000383"><ele>105.0</ele><time>2026-05-03T09:56:54.226Z</time></trkpt><trkpt lat="45.9824433" lon="13.4999783"><ele>106.5</ele><time>2026-05-03T09:56:55.227Z</time></trkpt><trkpt lat="45.9825817" lon="13.4999167"><ele>108.0</ele><time>2026-05-03T09:56:56.226Z</time></trkpt><trkpt lat="45.982705" lon="13.4998467"><ele>109.5</ele><time>2026-05-03T09:56:57.226Z</time></trkpt><trkpt lat="45.9828067" lon="13.4997367"><ele>111.0</ele><time>2026-05-03T09:56:58.226Z</time></trkpt><trkpt lat="45.982875" lon="13.4995717"><ele>111.0</ele><time>2026-05-03T09:56:59.226Z</time></trkpt><trkpt lat="45.9829083" lon="13.4993767"><ele>111.0</ele><time>2026-05-03T09:57:00.226Z</time></trkpt><trkpt lat="45.9829133" lon="13.49916"><ele>111.0</ele><time>2026-05-03T09:57:01.226Z</time></trkpt><trkpt lat="45.9829017" lon="13.498935"><ele>111.0</ele><time>2026-05-03T09:57:02.226Z</time></trkpt><trkpt lat="45.9828867" lon="13.49872"><ele>108.0</ele><time>2026-05-03T09:57:03.226Z</time></trkpt><trkpt lat="45.9828683" lon="13.4985083"><ele>105.0</ele><time>2026-05-03T09:57:04.226Z</time></trkpt><trkpt lat="45.9828567" lon="13.49831"><ele>102.0</ele><time>2026-05-03T09:57:05.226Z</time></trkpt><trkpt lat="45.98287" lon="13.4981117"><ele>99.0</ele><time>2026-05-03T09:57:06.226Z</time></trkpt><trkpt lat="45.9829083" lon="13.497935"><ele>95.75</ele><time>2026-05-03T09:57:07.226Z</time></trkpt><trkpt lat="45.9829783" lon="13.4977683"><ele>92.5</ele><time>2026-05-03T09:57:08.226Z</time></trkpt><trkpt lat="45.9830717" lon="13.4976467"><ele>89.25</ele><time>2026-05-03T09:57:09.226Z</time></trkpt><trkpt lat="45.983185" lon="13.497575"><ele>86.0</ele><time>2026-05-03T09:57:10.226Z</time></trkpt><trkpt lat="45.983325" lon="13.497545"><ele>87.25</ele><time>2026-05-03T09:57:11.226Z</time></trkpt><trkpt lat="45.9834667" lon="13.49754"><ele>88.5</ele><time>2026-05-03T09:57:12.226Z</time></trkpt><trkpt lat="45.9836033" lon="13.4975617"><ele>89.75</ele><time>2026-05-03T09:57:13.226Z</time></trkpt><trkpt lat="45.9837383" lon="13.4976067"><ele>91.0</ele><time>2026-05-03T09:57:14.226Z</time></trkpt><trkpt lat="45.9838683" lon="13.4976517"><ele>91.0</ele><time>2026-05-03T09:57:15.226Z</time></trkpt><trkpt lat="45.98398" lon="13.497685"><ele>91.0</ele><time>2026-05-03T09:57:16.226Z</time></trkpt><trkpt lat="45.9840717" lon="13.497655"><ele>91.0</ele><time>2026-05-03T09:57:17.226Z</time></trkpt><trkpt lat="45.98414" lon="13.4975833"><ele>91.0</ele><time>2026-05-03T09:57:18.226Z</time></trkpt><trkpt lat="45.98416" lon="13.49748"><ele>91.0</ele><time>2026-05-03T09:57:19.226Z</time></trkpt><trkpt lat="45.9841417" lon="13.4973583"><ele>91.0</ele><time>2026-05-03T09:57:20.226Z</time></trkpt><trkpt lat="45.9841" lon="13.49725"><ele>91.0</ele><time>2026-05-03T09:57:21.226Z</time></trkpt><trkpt lat="45.98403" lon="13.49714"><ele>91.0</ele><time>2026-05-03T09:57:22.226Z</time></trkpt><trkpt lat="45.9839517" lon="13.4970267"><ele>91.0</ele><time>2026-05-03T09:57:23.226Z</time></trkpt><trkpt lat="45.9838567" lon="13.49691"><ele>91.0</ele><time>2026-05-03T09:57:24.226Z</time></trkpt><trkpt lat="45.9837467" lon="13.4967967"><ele>89.5</ele><time>2026-05-03T09:57:25.226Z</time></trkpt><trkpt lat="45.9836183" lon="13.4966983"><ele>88.0</ele><time>2026-05-03T09:57:26.226Z</time></trkpt><trkpt lat="45.9834767" lon="13.4966083"><ele>86.5</ele><time>2026-05-03T09:57:27.226Z</time></trkpt><trkpt lat="45.98335" lon="13.496515"><ele>85.0</ele><time>2026-05-03T09:57:28.226Z</time></trkpt><trkpt lat="45.9832467" lon="13.4964183"><ele>84.0</ele><time>2026-05-03T09:57:29.226Z</time></trkpt><trkpt lat="45.9831733" lon="13.496315"><ele>83.0</ele><time>2026-05-03T09:57:30.226Z</time></trkpt><trkpt lat="45.9831383" lon="13.4961967"><ele>82.0</ele><time>2026-05-03T09:57:31.226Z</time></trkpt><trkpt lat="45.9831367" lon="13.496055"><ele>81.0</ele><time>2026-05-03T09:57:32.226Z</time></trkpt><trkpt lat="45.9831667" lon="13.495905"><ele>80.0</ele><time>2026-05-03T09:57:33.226Z</time></trkpt><trkpt lat="45.9832183" lon="13.495755"><ele>79.0</ele><time>2026-05-03T09:57:34.226Z</time></trkpt><trkpt lat="45.983285" lon="13.4956133"><ele>78.0</ele><time>2026-05-03T09:57:35.226Z</time></trkpt><trkpt lat="45.983385" lon="13.495485"><ele>77.0</ele><time>2026-05-03T09:57:36.226Z</time></trkpt><trkpt lat="45.9835067" lon="13.4953567"><ele>76.0</ele><time>2026-05-03T09:57:37.226Z</time></trkpt><trkpt lat="45.98362" lon="13.495215"><ele>74.0</ele><time>2026-05-03T09:57:38.226Z</time></trkpt><trkpt lat="45.9837117" lon="13.49504"><ele>72.0</ele><time>2026-05-03T09:57:39.226Z</time></trkpt><trkpt lat="45.9837883" lon="13.49484"><ele>70.0</ele><time>2026-05-03T09:57:40.226Z</time></trkpt><trkpt lat="45.9838417" lon="13.4946133"><ele>70.33333333333333</ele><time>2026-05-03T09:57:41.226Z</time></trkpt><trkpt lat="45.9838967" lon="13.4943817"><ele>70.66666666666667</ele><time>2026-05-03T09:57:42.226Z</time></trkpt><trkpt lat="45.98395" lon="13.4941483"><ele>71.0</ele><time>2026-05-03T09:57:43.226Z</time></trkpt><trkpt lat="45.984" lon="13.49392"><ele>71.33333333333334</ele><time>2026-05-03T09:57:44.226Z</time></trkpt><trkpt lat="45.98405" lon="13.493695"><ele>71.66666666666667</ele><time>2026-05-03T09:57:45.226Z</time></trkpt><trkpt lat="45.9840933" lon="13.4934867"><ele>72.0</ele><time>2026-05-03T09:57:46.226Z</time></trkpt><trkpt lat="45.98414" lon="13.4932983"><ele>72.2</ele><time>2026-05-03T09:57:47.226Z</time></trkpt><trkpt lat="45.9841833" lon="13.4931167"><ele>72.4</ele><time>2026-05-03T09:57:48.226Z</time></trkpt><trkpt lat="45.9842283" lon="13.492955"><ele>72.6</ele><time>2026-05-03T09:57:49.226Z</time></trkpt><trkpt lat="45.9842667" lon="13.4928183"><ele>72.8</ele><time>2026-05-03T09:57:50.226Z</time></trkpt><trkpt lat="45.984315" lon="13.492725"><ele>73.0</ele><time>2026-05-03T09:57:51.226Z</time></trkpt><trkpt lat="45.9844" lon="13.492655"><ele>74.6</ele><time>2026-05-03T09:57:52.226Z</time></trkpt><trkpt lat="45.98449" lon="13.49263"><ele>76.19999999999999</ele><time>2026-05-03T09:57:53.226Z</time></trkpt><trkpt lat="45.9845933" lon="13.492615"><ele>77.8</ele><time>2026-05-03T09:57:54.226Z</time></trkpt><trkpt lat="45.9847017" lon="13.4926033"><ele>79.39999999999999</ele><time>2026-05-03T09:57:55.226Z</time></trkpt><trkpt lat="45.9847967" lon="13.4925683"><ele>81.0</ele><time>2026-05-03T09:57:56.226Z</time></trkpt><trkpt lat="45.9848767" lon="13.492505"><ele>81.0</ele><time>2026-05-03T09:57:57.226Z</time></trkpt><trkpt lat="45.9849317" lon="13.4924017"><ele>81.0</ele><time>2026-05-03T09:57:58.226Z</time></trkpt><trkpt lat="45.984975" lon="13.4922717"><ele>81.0</ele><time>2026-05-03T09:57:59.226Z</time></trkpt><trkpt lat="45.984985" lon="13.49212"><ele>81.0</ele><time>2026-05-03T09:58:00.226Z</time></trkpt><trkpt lat="45.9849717" lon="13.4919767"><ele>81.0</ele><time>2026-05-03T09:58:01.226Z</time></trkpt><trkpt lat="45.9849233" lon="13.4918417"><ele>82.16666666666667</ele><time>2026-05-03T09:58:02.226Z</time></trkpt><trkpt lat="45.9848533" lon="13.4917383"><ele>83.33333333333333</ele><time>2026-05-03T09:58:03.226Z</time></trkpt><trkpt lat="45.9847817" lon="13.4916417"><ele>84.5</ele><time>2026-05-03T09:58:04.226Z</time></trkpt><trkpt lat="45.98473" lon="13.4915383"><ele>85.66666666666666</ele><time>2026-05-03T09:58:05.226Z</time></trkpt><trkpt lat="45.9847117" lon="13.4914317"><ele>86.83333333333333</ele><time>2026-05-03T09:58:06.226Z</time></trkpt><trkpt lat="45.9847183" lon="13.49133"><ele>88.0</ele><time>2026-05-03T09:58:07.226Z</time></trkpt><trkpt lat="45.9847717" lon="13.4912417"><ele>88.75</ele><time>2026-05-03T09:58:08.226Z</time></trkpt><trkpt lat="45.9848483" lon="13.4911517"><ele>89.5</ele><time>2026-05-03T09:58:09.226Z</time></trkpt><trkpt lat="45.9849367" lon="13.49105"><ele>90.25</ele><time>2026-05-03T09:58:10.226Z</time></trkpt><trkpt lat="45.985025" lon="13.490935"><ele>91.0</ele><time>2026-05-03T09:58:11.226Z</time></trkpt><trkpt lat="45.9851233" lon="13.4908067"><ele>91.0</ele><time>2026-05-03T09:58:12.226Z</time></trkpt><trkpt lat="45.9852267" lon="13.4906683"><ele>91.0</ele><time>2026-05-03T09:58:13.226Z</time></trkpt><trkpt lat="45.9853283" lon="13.4905283"><ele>91.0</ele><time>2026-05-03T09:58:14.226Z</time></trkpt><trkpt lat="45.98543" lon="13.4903817"><ele>91.0</ele><time>2026-05-03T09:58:15.226Z</time></trkpt><trkpt lat="45.9855217" lon="13.490225"><ele>92.0</ele><time>2026-05-03T09:58:16.226Z</time></trkpt><trkpt lat="45.9856167" lon="13.49006"><ele>93.0</ele><time>2026-05-03T09:58:17.226Z</time></trkpt><trkpt lat="45.9857067" lon="13.4898967"><ele>94.0</ele><time>2026-05-03T09:58:18.226Z</time></trkpt><trkpt lat="45.985785" lon="13.4897417"><ele>95.0</ele><time>2026-05-03T09:58:19.226Z</time></trkpt><trkpt lat="45.98587" lon="13.4895917"><ele>97.25</ele><time>2026-05-03T09:58:20.226Z</time></trkpt><trkpt lat="45.985965" lon="13.4894583"><ele>99.5</ele><time>2026-05-03T09:58:21.226Z</time></trkpt><trkpt lat="45.98607" lon="13.4893483"><ele>101.75</ele><time>2026-05-03T09:58:22.226Z</time></trkpt><trkpt lat="45.98619" lon="13.4892767"><ele>104.0</ele><time>2026-05-03T09:58:23.226Z</time></trkpt><trkpt lat="45.98631" lon="13.4892417"><ele>104.0</ele><time>2026-05-03T09:58:24.226Z</time></trkpt><trkpt lat="45.9864367" lon="13.4892317"><ele>104.0</ele><time>2026-05-03T09:58:25.226Z</time></trkpt><trkpt lat="45.9865667" lon="13.48922"><ele>104.0</ele><time>2026-05-03T09:58:26.226Z</time></trkpt><trkpt lat="45.9867017" lon="13.4892017"><ele>104.0</ele><time>2026-05-03T09:58:27.226Z</time></trkpt><trkpt lat="45.98682" lon="13.4891767"><ele>105.4</ele><time>2026-05-03T09:58:28.226Z</time></trkpt><trkpt lat="45.9869183" lon="13.4891217"><ele>106.80000000000001</ele><time>2026-05-03T09:58:29.226Z</time></trkpt><trkpt lat="45.9869933" lon="13.4890217"><ele>108.19999999999999</ele><time>2026-05-03T09:58:30.225Z</time></trkpt><trkpt lat="45.9870467" lon="13.4888767"><ele>109.6</ele><time>2026-05-03T09:58:31.225Z</time></trkpt><trkpt lat="45.9870817" lon="13.4887117"><ele>111.0</ele><time>2026-05-03T09:58:32.225Z</time></trkpt><trkpt lat="45.9871233" lon="13.4885733"><ele>111.0</ele><time>2026-05-03T09:58:33.225Z</time></trkpt><trkpt lat="45.9871833" lon="13.4884783"><ele>111.0</ele><time>2026-05-03T09:58:34.225Z</time></trkpt><trkpt lat="45.9872517" lon="13.4884533"><ele>111.0</ele><time>2026-05-03T09:58:35.225Z</time></trkpt><trkpt lat="45.9873367" lon="13.48847"><ele>111.0</ele><time>2026-05-03T09:58:36.225Z</time></trkpt><trkpt lat="45.9874383" lon="13.4884883"><ele>111.0</ele><time>2026-05-03T09:58:37.225Z</time></trkpt><trkpt lat="45.9875367" lon="13.488495"><ele>111.0</ele><time>2026-05-03T09:58:38.225Z</time></trkpt><trkpt lat="45.98762" lon="13.4885"><ele>113.0</ele><time>2026-05-03T09:58:39.225Z</time></trkpt><trkpt lat="45.9876933" lon="13.4885167"><ele>115.0</ele><time>2026-05-03T09:58:40.225Z</time></trkpt><trkpt lat="45.9877517" lon="13.4886483"><ele>117.0</ele><time>2026-05-03T09:58:42.225Z</time></trkpt><trkpt lat="45.9876483" lon="13.488765"><ele>119.0</ele><time>2026-05-03T09:58:44.225Z</time></trkpt><trkpt lat="45.9875567" lon="13.488775"><ele>121.0</ele><time>2026-05-03T09:58:45.226Z</time></trkpt><trkpt lat="45.9874767" lon="13.488805"><ele>121.00000000000001</ele><time>2026-05-03T09:58:46.225Z</time></trkpt><trkpt lat="45.9874167" lon="13.48886"><ele>121.0</ele><time>2026-05-03T09:58:47.225Z</time></trkpt><trkpt lat="45.987455" lon="13.489"><ele>121.0</ele><time>2026-05-03T09:58:49.225Z</time></trkpt><trkpt lat="45.9875167" lon="13.4890217"><ele>121.0</ele><time>2026-05-03T09:58:50.225Z</time></trkpt><trkpt lat="45.9875833" lon="13.489005"><ele>121.00000000000001</ele><time>2026-05-03T09:58:51.225Z</time></trkpt><trkpt lat="45.9876717" lon="13.4889617"><ele>121.0</ele><time>2026-05-03T09:58:52.225Z</time></trkpt><trkpt lat="45.9877783" lon="13.4889233"><ele>123.0</ele><time>2026-05-03T09:58:53.225Z</time></trkpt><trkpt lat="45.9878767" lon="13.488865"><ele>125.0</ele><time>2026-05-03T09:58:54.225Z</time></trkpt><trkpt lat="45.9879833" lon="13.4888017"><ele>127.0</ele><time>2026-05-03T09:58:55.225Z</time></trkpt><trkpt lat="45.9880783" lon="13.488705"><ele>129.0</ele><time>2026-05-03T09:58:56.225Z</time></trkpt><trkpt lat="45.98816" lon="13.4885883"><ele>129.0</ele><time>2026-05-03T09:58:57.225Z</time></trkpt><trkpt lat="45.9882317" lon="13.48847"><ele>129.0</ele><time>2026-05-03T09:58:58.225Z</time></trkpt><trkpt lat="45.9883183" lon="13.4883683"><ele>129.0</ele><time>2026-05-03T09:58:59.225Z</time></trkpt><trkpt lat="45.9884083" lon="13.48829"><ele>129.0</ele><time>2026-05-03T09:59:00.225Z</time></trkpt><trkpt lat="45.9885017" lon="13.4882283"><ele>129.0</ele><time>2026-05-03T09:59:01.225Z</time></trkpt><trkpt lat="45.988605" lon="13.48819"><ele>130.0</ele><time>2026-05-03T09:59:02.225Z</time></trkpt><trkpt lat="45.98872" lon="13.4881717"><ele>131.0</ele><time>2026-05-03T09:59:03.225Z</time></trkpt><trkpt lat="45.988865" lon="13.4881633"><ele>132.0</ele><time>2026-05-03T09:59:04.225Z</time></trkpt><trkpt lat="45.9889917" lon="13.4881367"><ele>133.0</ele><time>2026-05-03T09:59:05.225Z</time></trkpt><trkpt lat="45.98911" lon="13.4880667"><ele>133.75</ele><time>2026-05-03T09:59:06.225Z</time></trkpt><trkpt lat="45.9892" lon="13.487985"><ele>134.5</ele><time>2026-05-03T09:59:07.225Z</time></trkpt><trkpt lat="45.9892867" lon="13.4878683"><ele>135.25</ele><time>2026-05-03T09:59:08.225Z</time></trkpt><trkpt lat="45.9893733" lon="13.48774"><ele>136.0</ele><time>2026-05-03T09:59:09.226Z</time></trkpt><trkpt lat="45.98946" lon="13.4875917"><ele>139.0</ele><time>2026-05-03T09:59:10.225Z</time></trkpt><trkpt lat="45.9895333" lon="13.4874283"><ele>142.0</ele><time>2026-05-03T09:59:11.225Z</time></trkpt><trkpt lat="45.98958" lon="13.48726"><ele>145.0</ele><time>2026-05-03T09:59:12.225Z</time></trkpt><trkpt lat="45.9896267" lon="13.48709"><ele>148.0</ele><time>2026-05-03T09:59:13.225Z</time></trkpt><trkpt lat="45.9896667" lon="13.4869217"><ele>148.0</ele><time>2026-05-03T09:59:14.225Z</time></trkpt><trkpt lat="45.9897067" lon="13.4867683"><ele>148.0</ele><time>2026-05-03T09:59:15.225Z</time></trkpt><trkpt lat="45.989745" lon="13.48663"><ele>148.0</ele><time>2026-05-03T09:59:16.225Z</time></trkpt><trkpt lat="45.9898067" lon="13.4865"><ele>148.0</ele><time>2026-05-03T09:59:17.225Z</time></trkpt><trkpt lat="45.989865" lon="13.486365"><ele>148.0</ele><time>2026-05-03T09:59:18.225Z</time></trkpt><trkpt lat="45.9899283" lon="13.486225"><ele>148.0</ele><time>2026-05-03T09:59:19.225Z</time></trkpt><trkpt lat="45.9899933" lon="13.4860883"><ele>148.0</ele><time>2026-05-03T09:59:20.225Z</time></trkpt><trkpt lat="45.99006" lon="13.485955"><ele>148.0</ele><time>2026-05-03T09:59:21.225Z</time></trkpt><trkpt lat="45.9901283" lon="13.48583"><ele>148.0</ele><time>2026-05-03T09:59:22.225Z</time></trkpt><trkpt lat="45.9902033" lon="13.4857"><ele>148.25</ele><time>2026-05-03T09:59:23.225Z</time></trkpt><trkpt lat="45.990275" lon="13.4855667"><ele>148.5</ele><time>2026-05-03T09:59:24.225Z</time></trkpt><trkpt lat="45.9903617" lon="13.4854317"><ele>148.75</ele><time>2026-05-03T09:59:25.225Z</time></trkpt><trkpt lat="45.9904567" lon="13.4853017"><ele>149.0</ele><time>2026-05-03T09:59:26.225Z</time></trkpt><trkpt lat="45.990545" lon="13.485165"><ele>148.5</ele><time>2026-05-03T09:59:27.225Z</time></trkpt><trkpt lat="45.9906317" lon="13.4850133"><ele>148.0</ele><time>2026-05-03T09:59:28.225Z</time></trkpt><trkpt lat="45.9907267" lon="13.4848633"><ele>147.5</ele><time>2026-05-03T09:59:29.225Z</time></trkpt><trkpt lat="45.99081" lon="13.4847"><ele>147.0</ele><time>2026-05-03T09:59:30.225Z</time></trkpt><trkpt lat="45.990895" lon="13.48453"><ele>146.25</ele><time>2026-05-03T09:59:31.225Z</time></trkpt><trkpt lat="45.9909683" lon="13.4843617"><ele>145.5</ele><time>2026-05-03T09:59:32.225Z</time></trkpt><trkpt lat="45.9910383" lon="13.4842"><ele>144.75</ele><time>2026-05-03T09:59:33.225Z</time></trkpt><trkpt lat="45.991105" lon="13.4840467"><ele>144.0</ele><time>2026-05-03T09:59:34.225Z</time></trkpt><trkpt lat="45.991175" lon="13.483905"><ele>143.5</ele><time>2026-05-03T09:59:35.225Z</time></trkpt><trkpt lat="45.99125" lon="13.483755"><ele>143.0</ele><time>2026-05-03T09:59:36.225Z</time></trkpt><trkpt lat="45.9913367" lon="13.4836067"><ele>142.5</ele><time>2026-05-03T09:59:37.225Z</time></trkpt><trkpt lat="45.9914033" lon="13.4834517"><ele>142.0</ele><time>2026-05-03T09:59:38.225Z</time></trkpt><trkpt lat="45.99146" lon="13.483265"><ele>142.0</ele><time>2026-05-03T09:59:39.225Z</time></trkpt><trkpt lat="45.9915167" lon="13.4830717"><ele>142.0</ele><time>2026-05-03T09:59:40.225Z</time></trkpt><trkpt lat="45.99157" lon="13.482895"><ele>142.0</ele><time>2026-05-03T09:59:41.225Z</time></trkpt><trkpt lat="45.9916217" lon="13.48273"><ele>142.0</ele><time>2026-05-03T09:59:42.225Z</time></trkpt><trkpt lat="45.9916767" lon="13.4825533"><ele>144.25</ele><time>2026-05-03T09:59:43.225Z</time></trkpt><trkpt lat="45.9917317" lon="13.48238"><ele>146.5</ele><time>2026-05-03T09:59:44.225Z</time></trkpt><trkpt lat="45.991775" lon="13.4822067"><ele>148.75</ele><time>2026-05-03T09:59:45.225Z</time></trkpt><trkpt lat="45.9918183" lon="13.48202"><ele>151.0</ele><time>2026-05-03T09:59:46.225Z</time></trkpt><trkpt lat="45.99185" lon="13.48183"><ele>154.5</ele><time>2026-05-03T09:59:47.225Z</time></trkpt><trkpt lat="45.9918583" lon="13.4816433"><ele>158.0</ele><time>2026-05-03T09:59:48.225Z</time></trkpt><trkpt lat="45.99185" lon="13.4814617"><ele>161.5</ele><time>2026-05-03T09:59:49.225Z</time></trkpt><trkpt lat="45.9918367" lon="13.4812933"><ele>165.0</ele><time>2026-05-03T09:59:50.225Z</time></trkpt><trkpt lat="45.9918217" lon="13.4811167"><ele>168.5</ele><time>2026-05-03T09:59:51.225Z</time></trkpt><trkpt lat="45.99183" lon="13.4809567"><ele>172.0</ele><time>2026-05-03T09:59:52.225Z</time></trkpt><trkpt lat="45.9918583" lon="13.4807867"><ele>175.5</ele><time>2026-05-03T09:59:53.225Z</time></trkpt><trkpt lat="45.9919083" lon="13.4806233"><ele>179.0</ele><time>2026-05-03T09:59:54.225Z</time></trkpt><trkpt lat="45.9919717" lon="13.4804833"><ele>178.25</ele><time>2026-05-03T09:59:55.225Z</time></trkpt><trkpt lat="45.992055" lon="13.48037"><ele>177.5</ele><time>2026-05-03T09:59:56.225Z</time></trkpt><trkpt lat="45.9921483" lon="13.4802683"><ele>176.75</ele><time>2026-05-03T09:59:57.225Z</time></trkpt><trkpt lat="45.992225" lon="13.48017"><ele>176.0</ele><time>2026-05-03T09:59:58.225Z</time></trkpt><trkpt lat="45.992305" lon="13.4800433"><ele>176.0</ele><time>2026-05-03T09:59:59.225Z</time></trkpt><trkpt lat="45.9923783" lon="13.4798933"><ele>176.0</ele><time>2026-05-03T10:00:00.225Z</time></trkpt><trkpt lat="45.9924533" lon="13.4797483"><ele>176.0</ele><time>2026-05-03T10:00:01.225Z</time></trkpt><trkpt lat="45.9925167" lon="13.4796017"><ele>176.0</ele><time>2026-05-03T10:00:02.225Z</time></trkpt><trkpt lat="45.992585" lon="13.4794633"><ele>172.75</ele><time>2026-05-03T10:00:03.225Z</time></trkpt><trkpt lat="45.9926633" lon="13.4793417"><ele>169.5</ele><time>2026-05-03T10:00:04.225Z</time></trkpt><trkpt lat="45.992755" lon="13.4792417"><ele>166.25</ele><time>2026-05-03T10:00:05.225Z</time></trkpt><trkpt lat="45.9928517" lon="13.4791633"><ele>163.0</ele><time>2026-05-03T10:00:06.225Z</time></trkpt><trkpt lat="45.9929517" lon="13.47908"><ele>163.0</ele><time>2026-05-03T10:00:07.225Z</time></trkpt><trkpt lat="45.9930633" lon="13.4789983"><ele>163.0</ele><time>2026-05-03T10:00:08.225Z</time></trkpt><trkpt lat="45.99318" lon="13.4789167"><ele>163.0</ele><time>2026-05-03T10:00:09.225Z</time></trkpt><trkpt lat="45.9932917" lon="13.4788267"><ele>163.0</ele><time>2026-05-03T10:00:10.225Z</time></trkpt><trkpt lat="45.9934083" lon="13.4787383"><ele>163.75</ele><time>2026-05-03T10:00:11.225Z</time></trkpt><trkpt lat="45.9935217" lon="13.4786517"><ele>164.5</ele><time>2026-05-03T10:00:12.225Z</time></trkpt><trkpt lat="45.9936367" lon="13.478575"><ele>165.25</ele><time>2026-05-03T10:00:13.225Z</time></trkpt><trkpt lat="45.9937583" lon="13.4785217"><ele>166.0</ele><time>2026-05-03T10:00:14.225Z</time></trkpt><trkpt lat="45.9938833" lon="13.478465"><ele>166.0</ele><time>2026-05-03T10:00:15.225Z</time></trkpt><trkpt lat="45.994005" lon="13.4783967"><ele>166.0</ele><time>2026-05-03T10:00:16.225Z</time></trkpt><trkpt lat="45.9941183" lon="13.47831"><ele>166.0</ele><time>2026-05-03T10:00:17.225Z</time></trkpt><trkpt lat="45.9942233" lon="13.4782033"><ele>166.0</ele><time>2026-05-03T10:00:18.225Z</time></trkpt><trkpt lat="45.9943317" lon="13.4780833"><ele>166.75</ele><time>2026-05-03T10:00:19.225Z</time></trkpt><trkpt lat="45.9944367" lon="13.47796"><ele>167.5</ele><time>2026-05-03T10:00:20.225Z</time></trkpt><trkpt lat="45.9945467" lon="13.477835"><ele>168.25</ele><time>2026-05-03T10:00:21.225Z</time></trkpt><trkpt lat="45.99466" lon="13.4777217"><ele>169.0</ele><time>2026-05-03T10:00:22.225Z</time></trkpt><trkpt lat="45.9947867" lon="13.4776183"><ele>169.0</ele><time>2026-05-03T10:00:23.225Z</time></trkpt><trkpt lat="45.9949083" lon="13.477545"><ele>169.0</ele><time>2026-05-03T10:00:24.225Z</time></trkpt><trkpt lat="45.9950417" lon="13.47749"><ele>169.0</ele><time>2026-05-03T10:00:25.225Z</time></trkpt><trkpt lat="45.9951783" lon="13.4774467"><ele>169.0</ele><time>2026-05-03T10:00:26.225Z</time></trkpt><trkpt lat="45.9953117" lon="13.4774083"><ele>170.0</ele><time>2026-05-03T10:00:27.225Z</time></trkpt><trkpt lat="45.99545" lon="13.4773733"><ele>171.0</ele><time>2026-05-03T10:00:28.225Z</time></trkpt><trkpt lat="45.9955783" lon="13.4773433"><ele>172.0</ele><time>2026-05-03T10:00:29.225Z</time></trkpt><trkpt lat="45.9957" lon="13.4773117"><ele>173.0</ele><time>2026-05-03T10:00:30.225Z</time></trkpt><trkpt lat="45.99582" lon="13.4772833"><ele>173.75</ele><time>2026-05-03T10:00:31.225Z</time></trkpt><trkpt lat="45.9959333" lon="13.4772433"><ele>174.5</ele><time>2026-05-03T10:00:32.225Z</time></trkpt><trkpt lat="45.9960533" lon="13.477195"><ele>175.25</ele><time>2026-05-03T10:00:33.225Z</time></trkpt><trkpt lat="45.9961583" lon="13.4771617"><ele>176.0</ele><time>2026-05-03T10:00:34.225Z</time></trkpt><trkpt lat="45.99627" lon="13.4771267"><ele>174.75</ele><time>2026-05-03T10:00:35.225Z</time></trkpt><trkpt lat="45.99638" lon="13.477075"><ele>173.5</ele><time>2026-05-03T10:00:36.225Z</time></trkpt><trkpt lat="45.9964883" lon="13.47701"><ele>172.25</ele><time>2026-05-03T10:00:37.225Z</time></trkpt><trkpt lat="45.9965967" lon="13.47696"><ele>171.0</ele><time>2026-05-03T10:00:38.225Z</time></trkpt><trkpt lat="45.9967033" lon="13.4768783"><ele>166.5</ele><time>2026-05-03T10:00:39.225Z</time></trkpt><trkpt lat="45.996805" lon="13.4767767"><ele>162.0</ele><time>2026-05-03T10:00:40.225Z</time></trkpt><trkpt lat="45.996885" lon="13.4766417"><ele>157.5</ele><time>2026-05-03T10:00:41.225Z</time></trkpt><trkpt lat="45.9969633" lon="13.4764967"><ele>153.0</ele><time>2026-05-03T10:00:42.225Z</time></trkpt><trkpt lat="45.9970283" lon="13.4763467"><ele>153.0</ele><time>2026-05-03T10:00:43.225Z</time></trkpt><trkpt lat="45.9970733" lon="13.4762083"><ele>153.0</ele><time>2026-05-03T10:00:44.225Z</time></trkpt><trkpt lat="45.9970833" lon="13.4760767"><ele>153.0</ele><time>2026-05-03T10:00:45.225Z</time></trkpt><trkpt lat="45.9971083" lon="13.475975"><ele>153.0</ele><time>2026-05-03T10:00:46.225Z</time></trkpt><trkpt lat="45.9971717" lon="13.4758883"><ele>153.0</ele><time>2026-05-03T10:00:48.225Z</time></trkpt><trkpt lat="45.9972383" lon="13.475975"><ele>153.0</ele><time>2026-05-03T10:00:50.225Z</time></trkpt><trkpt lat="45.9972533" lon="13.476065"><ele>153.0</ele><time>2026-05-03T10:00:51.225Z</time></trkpt><trkpt lat="45.997265" lon="13.476195"><ele>153.0</ele><time>2026-05-03T10:00:52.225Z</time></trkpt><trkpt lat="45.9973" lon="13.4763367"><ele>153.0</ele><time>2026-05-03T10:00:53.225Z</time></trkpt><trkpt lat="45.9973567" lon="13.4764833"><ele>153.0</ele><time>2026-05-03T10:00:54.225Z</time></trkpt><trkpt lat="45.9974267" lon="13.4766317"><ele>153.0</ele><time>2026-05-03T10:00:55.225Z</time></trkpt><trkpt lat="45.9975017" lon="13.47679"><ele>153.0</ele><time>2026-05-03T10:00:56.225Z</time></trkpt><trkpt lat="45.9975717" lon="13.4769383"><ele>153.0</ele><time>2026-05-03T10:00:57.225Z</time></trkpt><trkpt lat="45.9976433" lon="13.4770917"><ele>153.0</ele><time>2026-05-03T10:00:58.225Z</time></trkpt><trkpt lat="45.9976917" lon="13.4772617"><ele>150.5</ele><time>2026-05-03T10:00:59.225Z</time></trkpt><trkpt lat="45.99771" lon="13.4774367"><ele>148.0</ele><time>2026-05-03T10:01:00.225Z</time></trkpt><trkpt lat="45.9977283" lon="13.4776083"><ele>145.5</ele><time>2026-05-03T10:01:01.225Z</time></trkpt><trkpt lat="45.9977717" lon="13.4777617"><ele>143.0</ele><time>2026-05-03T10:01:02.225Z</time></trkpt><trkpt lat="45.997835" lon="13.477895"><ele>144.75</ele><time>2026-05-03T10:01:03.225Z</time></trkpt><trkpt lat="45.9979233" lon="13.4780117"><ele>146.5</ele><time>2026-05-03T10:01:04.225Z</time></trkpt><trkpt lat="45.9980267" lon="13.4781183"><ele>148.25</ele><time>2026-05-03T10:01:05.225Z</time></trkpt><trkpt lat="45.99811" lon="13.4782217"><ele>150.0</ele><time>2026-05-03T10:01:06.225Z</time></trkpt><trkpt lat="45.998185" lon="13.4783283"><ele>150.0</ele><time>2026-05-03T10:01:07.225Z</time></trkpt><trkpt lat="45.9982417" lon="13.4784383"><ele>150.0</ele><time>2026-05-03T10:01:08.225Z</time></trkpt><trkpt lat="45.998265" lon="13.4785683"><ele>150.0</ele><time>2026-05-03T10:01:09.225Z</time></trkpt><trkpt lat="45.998265" lon="13.47872"><ele>150.0</ele><time>2026-05-03T10:01:10.225Z</time></trkpt><trkpt lat="45.9982567" lon="13.4788767"><ele>150.0</ele><time>2026-05-03T10:01:11.225Z</time></trkpt><trkpt lat="45.99822" lon="13.4790317"><ele>150.4</ele><time>2026-05-03T10:01:12.225Z</time></trkpt><trkpt lat="45.9981717" lon="13.4791817"><ele>150.8</ele><time>2026-05-03T10:01:13.225Z</time></trkpt><trkpt lat="45.9981217" lon="13.479325"><ele>151.2</ele><time>2026-05-03T10:01:14.225Z</time></trkpt><trkpt lat="45.9980883" lon="13.479455"><ele>151.6</ele><time>2026-05-03T10:01:15.226Z</time></trkpt><trkpt lat="45.9980467" lon="13.479585"><ele>152.0</ele><time>2026-05-03T10:01:16.225Z</time></trkpt><trkpt lat="45.998005" lon="13.4797167"><ele>151.0</ele><time>2026-05-03T10:01:17.225Z</time></trkpt><trkpt lat="45.9979683" lon="13.4798467"><ele>150.0</ele><time>2026-05-03T10:01:18.225Z</time></trkpt><trkpt lat="45.9979367" lon="13.4799633"><ele>149.0</ele><time>2026-05-03T10:01:19.225Z</time></trkpt><trkpt lat="45.9979133" lon="13.4800833"><ele>148.0</ele><time>2026-05-03T10:01:20.225Z</time></trkpt><trkpt lat="45.9979083" lon="13.480215"><ele>147.0</ele><time>2026-05-03T10:01:21.225Z</time></trkpt><trkpt lat="45.9979183" lon="13.4803533"><ele>147.4</ele><time>2026-05-03T10:01:22.225Z</time></trkpt><trkpt lat="45.9979367" lon="13.480495"><ele>147.79999999999998</ele><time>2026-05-03T10:01:23.225Z</time></trkpt><trkpt lat="45.99795" lon="13.48063"><ele>148.2</ele><time>2026-05-03T10:01:24.225Z</time></trkpt><trkpt lat="45.99794" lon="13.480765"><ele>148.6</ele><time>2026-05-03T10:01:25.225Z</time></trkpt><trkpt lat="45.997925" lon="13.4809017"><ele>149.0</ele><time>2026-05-03T10:01:26.225Z</time></trkpt><trkpt lat="45.9979" lon="13.481035"><ele>149.0</ele><time>2026-05-03T10:01:27.225Z</time></trkpt><trkpt lat="45.9978733" lon="13.4811733"><ele>149.0</ele><time>2026-05-03T10:01:28.225Z</time></trkpt><trkpt lat="45.9978533" lon="13.4813217"><ele>149.0</ele><time>2026-05-03T10:01:29.225Z</time></trkpt><trkpt lat="45.9978383" lon="13.4814717"><ele>149.0</ele><time>2026-05-03T10:01:30.225Z</time></trkpt><trkpt lat="45.9978233" lon="13.4816217"><ele>149.0</ele><time>2026-05-03T10:01:31.225Z</time></trkpt><trkpt lat="45.9978083" lon="13.4817767"><ele>147.75</ele><time>2026-05-03T10:01:32.225Z</time></trkpt><trkpt lat="45.9978033" lon="13.4819383"><ele>146.5</ele><time>2026-05-03T10:01:33.225Z</time></trkpt><trkpt lat="45.9977933" lon="13.4821033"><ele>145.25</ele><time>2026-05-03T10:01:34.225Z</time></trkpt><trkpt lat="45.9977817" lon="13.4822717"><ele>144.0</ele><time>2026-05-03T10:01:35.225Z</time></trkpt><trkpt lat="45.99777" lon="13.4824433"><ele>142.6</ele><time>2026-05-03T10:01:36.225Z</time></trkpt><trkpt lat="45.9977483" lon="13.4826083"><ele>141.2</ele><time>2026-05-03T10:01:37.225Z</time></trkpt><trkpt lat="45.9977217" lon="13.48276"><ele>139.79999999999998</ele><time>2026-05-03T10:01:38.225Z</time></trkpt><trkpt lat="45.997715" lon="13.4829133"><ele>138.4</ele><time>2026-05-03T10:01:39.225Z</time></trkpt><trkpt lat="45.99772" lon="13.4830667"><ele>137.0</ele><time>2026-05-03T10:01:40.225Z</time></trkpt><trkpt lat="45.9977417" lon="13.4832167"><ele>135.0</ele><time>2026-05-03T10:01:41.225Z</time></trkpt><trkpt lat="45.9977833" lon="13.483365"><ele>133.0</ele><time>2026-05-03T10:01:42.225Z</time></trkpt><trkpt lat="45.9978333" lon="13.4835217"><ele>131.0</ele><time>2026-05-03T10:01:43.225Z</time></trkpt><trkpt lat="45.9978817" lon="13.4836717"><ele>129.0</ele><time>2026-05-03T10:01:44.225Z</time></trkpt><trkpt lat="45.9979233" lon="13.483825"><ele>126.75</ele><time>2026-05-03T10:01:45.225Z</time></trkpt><trkpt lat="45.9979683" lon="13.4839833"><ele>124.5</ele><time>2026-05-03T10:01:46.225Z</time></trkpt><trkpt lat="45.9980117" lon="13.4841467"><ele>122.25</ele><time>2026-05-03T10:01:47.225Z</time></trkpt><trkpt lat="45.9980617" lon="13.484295"><ele>120.0</ele><time>2026-05-03T10:01:48.225Z</time></trkpt><trkpt lat="45.9981067" lon="13.4844217"><ele>120.0</ele><time>2026-05-03T10:01:49.225Z</time></trkpt><trkpt lat="45.9981533" lon="13.48452"><ele>120.0</ele><time>2026-05-03T10:01:50.225Z</time></trkpt><trkpt lat="45.998185" lon="13.4846233"><ele>120.0</ele><time>2026-05-03T10:01:51.225Z</time></trkpt><trkpt lat="45.998185" lon="13.484735"><ele>120.0</ele><time>2026-05-03T10:01:52.225Z</time></trkpt><trkpt lat="45.9981633" lon="13.484865"><ele>120.0</ele><time>2026-05-03T10:01:53.225Z</time></trkpt><trkpt lat="45.9981283" lon="13.48501"><ele>120.0</ele><time>2026-05-03T10:01:54.225Z</time></trkpt><trkpt lat="45.99809" lon="13.485155"><ele>118.5</ele><time>2026-05-03T10:01:55.225Z</time></trkpt><trkpt lat="45.9980417" lon="13.4852983"><ele>117.0</ele><time>2026-05-03T10:01:56.225Z</time></trkpt><trkpt lat="45.998" lon="13.485445"><ele>115.5</ele><time>2026-05-03T10:01:57.225Z</time></trkpt><trkpt lat="45.99795" lon="13.4856133"><ele>114.0</ele><time>2026-05-03T10:01:58.225Z</time></trkpt><trkpt lat="45.99789" lon="13.48578"><ele>113.75</ele><time>2026-05-03T10:01:59.225Z</time></trkpt><trkpt lat="45.9978383" lon="13.4859483"><ele>113.5</ele><time>2026-05-03T10:02:00.225Z</time></trkpt><trkpt lat="45.997795" lon="13.4861183"><ele>113.25</ele><time>2026-05-03T10:02:01.225Z</time></trkpt><trkpt lat="45.99775" lon="13.4862817"><ele>113.0</ele><time>2026-05-03T10:02:02.225Z</time></trkpt><trkpt lat="45.9977017" lon="13.4864383"><ele>113.75</ele><time>2026-05-03T10:02:03.225Z</time></trkpt><trkpt lat="45.9976633" lon="13.4865833"><ele>114.5</ele><time>2026-05-03T10:02:04.225Z</time></trkpt><trkpt lat="45.9976183" lon="13.4867167"><ele>115.25</ele><time>2026-05-03T10:02:05.225Z</time></trkpt><trkpt lat="45.9975667" lon="13.4868667"><ele>116.0</ele><time>2026-05-03T10:02:06.225Z</time></trkpt><trkpt lat="45.9975167" lon="13.4870317"><ele>116.0</ele><time>2026-05-03T10:02:07.225Z</time></trkpt><trkpt lat="45.997455" lon="13.4871967"><ele>116.0</ele><time>2026-05-03T10:02:08.225Z</time></trkpt><trkpt lat="45.9973917" lon="13.487375"><ele>116.0</ele><time>2026-05-03T10:02:09.225Z</time></trkpt><trkpt lat="45.9973283" lon="13.4875617"><ele>116.0</ele><time>2026-05-03T10:02:10.225Z</time></trkpt><trkpt lat="45.9972583" lon="13.4877417"><ele>116.0</ele><time>2026-05-03T10:02:11.225Z</time></trkpt><trkpt lat="45.9971933" lon="13.4879167"><ele>116.0</ele><time>2026-05-03T10:02:12.225Z</time></trkpt><trkpt lat="45.997135" lon="13.4880783"><ele>116.0</ele><time>2026-05-03T10:02:13.225Z</time></trkpt><trkpt lat="45.99707" lon="13.488245"><ele>116.0</ele><time>2026-05-03T10:02:14.225Z</time></trkpt><trkpt lat="45.9970283" lon="13.488405"><ele>114.5</ele><time>2026-05-03T10:02:15.225Z</time></trkpt><trkpt lat="45.9970183" lon="13.4885817"><ele>113.0</ele><time>2026-05-03T10:02:16.225Z</time></trkpt><trkpt lat="45.9970283" lon="13.4887567"><ele>111.5</ele><time>2026-05-03T10:02:17.225Z</time></trkpt><trkpt lat="45.9970767" lon="13.4889183"><ele>110.0</ele><time>2026-05-03T10:02:18.225Z</time></trkpt><trkpt lat="45.9971217" lon="13.48906"><ele>110.0</ele><time>2026-05-03T10:02:19.225Z</time></trkpt><trkpt lat="45.99716" lon="13.489155"><ele>110.0</ele><time>2026-05-03T10:02:20.225Z</time></trkpt><trkpt lat="45.9972267" lon="13.4892117"><ele>110.0</ele><time>2026-05-03T10:02:22.224Z</time></trkpt><trkpt lat="45.99723" lon="13.489085"><ele>110.0</ele><time>2026-05-03T10:02:25.224Z</time></trkpt><trkpt lat="45.9971867" lon="13.4889217"><ele>110.0</ele><time>2026-05-03T10:02:27.224Z</time></trkpt><trkpt lat="45.9971483" lon="13.4887483"><ele>110.0</ele><time>2026-05-03T10:02:29.224Z</time></trkpt><trkpt lat="45.99714" lon="13.4885783"><ele>110.0</ele><time>2026-05-03T10:02:31.224Z</time></trkpt><trkpt lat="45.9971633" lon="13.48845"><ele>110.0</ele><time>2026-05-03T10:02:33.224Z</time></trkpt><trkpt lat="45.99722" lon="13.48836"><ele>110.0</ele><time>2026-05-03T10:02:35.224Z</time></trkpt><trkpt lat="45.99734" lon="13.48836"><ele>110.0</ele><time>2026-05-03T10:02:37.224Z</time></trkpt><trkpt lat="45.99741" lon="13.4883983"><ele>109.99999999999999</ele><time>2026-05-03T10:02:38.224Z</time></trkpt><trkpt lat="45.9974933" lon="13.4884367"><ele>110.0</ele><time>2026-05-03T10:02:39.224Z</time></trkpt><trkpt lat="45.9975683" lon="13.4884817"><ele>110.0</ele><time>2026-05-03T10:02:40.224Z</time></trkpt><trkpt lat="45.9976467" lon="13.4885033"><ele>110.0</ele><time>2026-05-03T10:02:41.224Z</time></trkpt><trkpt lat="45.9977317" lon="13.48851"><ele>109.99999999999999</ele><time>2026-05-03T10:02:42.224Z</time></trkpt><trkpt lat="45.9978267" lon="13.4885133"><ele>110.0</ele><time>2026-05-03T10:02:43.224Z</time></trkpt><trkpt lat="45.99792" lon="13.4885167"><ele>107.83333333333333</ele><time>2026-05-03T10:02:44.224Z</time></trkpt><trkpt lat="45.9980117" lon="13.488515"><ele>105.66666666666666</ele><time>2026-05-03T10:02:45.224Z</time></trkpt><trkpt lat="45.99809" lon="13.4885133"><ele>103.5</ele><time>2026-05-03T10:02:46.225Z</time></trkpt><trkpt lat="45.9981633" lon="13.488505"><ele>101.33333333333334</ele><time>2026-05-03T10:02:47.224Z</time></trkpt><trkpt lat="45.99823" lon="13.488475"><ele>99.16666666666667</ele><time>2026-05-03T10:02:48.224Z</time></trkpt><trkpt lat="45.9983017" lon="13.4884283"><ele>97.0</ele><time>2026-05-03T10:02:49.224Z</time></trkpt><trkpt lat="45.99837" lon="13.4883783"><ele>93.6</ele><time>2026-05-03T10:02:50.224Z</time></trkpt><trkpt lat="45.99844" lon="13.4883283"><ele>90.19999999999999</ele><time>2026-05-03T10:02:51.224Z</time></trkpt><trkpt lat="45.9984983" lon="13.4882817"><ele>86.8</ele><time>2026-05-03T10:02:52.224Z</time></trkpt><trkpt lat="45.9986033" lon="13.4882233"><ele>83.4</ele><time>2026-05-03T10:02:54.224Z</time></trkpt><trkpt lat="45.998735" lon="13.4882283"><ele>80.0</ele><time>2026-05-03T10:02:56.224Z</time></trkpt><trkpt lat="45.99881" lon="13.488255"><ele>80.0</ele><time>2026-05-03T10:02:57.224Z</time></trkpt><trkpt lat="45.99889" lon="13.4882633"><ele>80.0</ele><time>2026-05-03T10:02:58.224Z</time></trkpt><trkpt lat="45.9989617" lon="13.48829"><ele>80.0</ele><time>2026-05-03T10:02:59.224Z</time></trkpt><trkpt lat="45.9990367" lon="13.488335"><ele>80.0</ele><time>2026-05-03T10:03:00.224Z</time></trkpt><trkpt lat="45.99911" lon="13.488405"><ele>80.0</ele><time>2026-05-03T10:03:01.224Z</time></trkpt><trkpt lat="45.9991733" lon="13.4885083"><ele>80.0</ele><time>2026-05-03T10:03:02.224Z</time></trkpt><trkpt lat="45.9992367" lon="13.4886133"><ele>78.6</ele><time>2026-05-03T10:03:03.224Z</time></trkpt><trkpt lat="45.99931" lon="13.4887267"><ele>77.2</ele><time>2026-05-03T10:03:04.224Z</time></trkpt><trkpt lat="45.9993783" lon="13.48884"><ele>75.8</ele><time>2026-05-03T10:03:05.224Z</time></trkpt><trkpt lat="45.9994483" lon="13.48895"><ele>74.4</ele><time>2026-05-03T10:03:06.224Z</time></trkpt><trkpt lat="45.9995133" lon="13.4890667"><ele>73.0</ele><time>2026-05-03T10:03:07.224Z</time></trkpt><trkpt lat="45.999575" lon="13.4891667"><ele>73.0</ele><time>2026-05-03T10:03:08.224Z</time></trkpt><trkpt lat="45.9996367" lon="13.4892483"><ele>73.0</ele><time>2026-05-03T10:03:09.224Z</time></trkpt><trkpt lat="45.9997067" lon="13.4893167"><ele>73.0</ele><time>2026-05-03T10:03:10.224Z</time></trkpt><trkpt lat="45.9997833" lon="13.4893667"><ele>73.0</ele><time>2026-05-03T10:03:11.224Z</time></trkpt><trkpt lat="45.9998683" lon="13.48941"><ele>73.0</ele><time>2026-05-03T10:03:12.224Z</time></trkpt><trkpt lat="45.9999683" lon="13.4894567"><ele>73.0</ele><time>2026-05-03T10:03:13.224Z</time></trkpt><trkpt lat="46.00008" lon="13.4895083"><ele>73.0</ele><time>2026-05-03T10:03:14.224Z</time></trkpt><trkpt lat="46.0001883" lon="13.4895767"><ele>73.0</ele><time>2026-05-03T10:03:15.224Z</time></trkpt><trkpt lat="46.0003017" lon="13.4896417"><ele>73.0</ele><time>2026-05-03T10:03:16.224Z</time></trkpt><trkpt lat="46.000415" lon="13.4896983"><ele>73.0</ele><time>2026-05-03T10:03:17.224Z</time></trkpt><trkpt lat="46.0005317" lon="13.4897533"><ele>73.25</ele><time>2026-05-03T10:03:18.224Z</time></trkpt><trkpt lat="46.00064" lon="13.4898083"><ele>73.5</ele><time>2026-05-03T10:03:19.224Z</time></trkpt><trkpt lat="46.0007517" lon="13.489875"><ele>73.75</ele><time>2026-05-03T10:03:20.224Z</time></trkpt><trkpt lat="46.0008667" lon="13.4899417"><ele>74.0</ele><time>2026-05-03T10:03:21.224Z</time></trkpt><trkpt lat="46.0009833" lon="13.49"><ele>74.5</ele><time>2026-05-03T10:03:22.224Z</time></trkpt><trkpt lat="46.0010933" lon="13.4900583"><ele>75.0</ele><time>2026-05-03T10:03:23.224Z</time></trkpt><trkpt lat="46.0012017" lon="13.490125"><ele>75.5</ele><time>2026-05-03T10:03:24.224Z</time></trkpt><trkpt lat="46.0013133" lon="13.4901867"><ele>76.0</ele><time>2026-05-03T10:03:25.224Z</time></trkpt><trkpt lat="46.0014183" lon="13.4902367"><ele>76.0</ele><time>2026-05-03T10:03:26.224Z</time></trkpt><trkpt lat="46.0015283" lon="13.4902933"><ele>76.0</ele><time>2026-05-03T10:03:27.224Z</time></trkpt><trkpt lat="46.0016383" lon="13.4903533"><ele>76.0</ele><time>2026-05-03T10:03:28.224Z</time></trkpt><trkpt lat="46.0017433" lon="13.490405"><ele>76.0</ele><time>2026-05-03T10:03:29.224Z</time></trkpt><trkpt lat="46.0018333" lon="13.490455"><ele>76.0</ele><time>2026-05-03T10:03:30.224Z</time></trkpt><trkpt lat="46.00191" lon="13.4904983"><ele>76.0</ele><time>2026-05-03T10:03:31.224Z</time></trkpt><trkpt lat="46.0019717" lon="13.4905367"><ele>76.0</ele><time>2026-05-03T10:03:32.224Z</time></trkpt><trkpt lat="46.0020617" lon="13.4905617"><ele>76.0</ele><time>2026-05-03T10:03:34.224Z</time></trkpt><trkpt lat="46.0021183" lon="13.49049"><ele>76.0</ele><time>2026-05-03T10:03:36.224Z</time></trkpt><trkpt lat="46.0021483" lon="13.49032"><ele>76.0</ele><time>2026-05-03T10:03:38.224Z</time></trkpt><trkpt lat="46.002155" lon="13.4902083"><ele>76.0</ele><time>2026-05-03T10:03:39.224Z</time></trkpt><trkpt lat="46.0021717" lon="13.4900817"><ele>76.0</ele><time>2026-05-03T10:03:40.224Z</time></trkpt><trkpt lat="46.0021967" lon="13.48994"><ele>76.0</ele><time>2026-05-03T10:03:41.224Z</time></trkpt><trkpt lat="46.0022383" lon="13.4897933"><ele>76.0</ele><time>2026-05-03T10:03:42.224Z</time></trkpt><trkpt lat="46.0022983" lon="13.48964"><ele>76.0</ele><time>2026-05-03T10:03:43.224Z</time></trkpt><trkpt lat="46.0023533" lon="13.4894783"><ele>76.0</ele><time>2026-05-03T10:03:44.224Z</time></trkpt><trkpt lat="46.0024067" lon="13.4893133"><ele>76.0</ele><time>2026-05-03T10:03:45.224Z</time></trkpt><trkpt lat="46.002455" lon="13.489145"><ele>76.0</ele><time>2026-05-03T10:03:46.224Z</time></trkpt><trkpt lat="46.0024967" lon="13.4889683"><ele>76.0</ele><time>2026-05-03T10:03:47.224Z</time></trkpt><trkpt lat="46.002535" lon="13.488785"><ele>76.5</ele><time>2026-05-03T10:03:48.224Z</time></trkpt><trkpt lat="46.0025817" lon="13.4885867"><ele>77.0</ele><time>2026-05-03T10:03:49.224Z</time></trkpt><trkpt lat="46.002625" lon="13.4883817"><ele>77.5</ele><time>2026-05-03T10:03:50.224Z</time></trkpt><trkpt lat="46.0026733" lon="13.4881783"><ele>78.0</ele><time>2026-05-03T10:03:51.224Z</time></trkpt><trkpt lat="46.0027267" lon="13.4879733"><ele>77.0</ele><time>2026-05-03T10:03:52.224Z</time></trkpt><trkpt lat="46.0027933" lon="13.4877717"><ele>76.0</ele><time>2026-05-03T10:03:53.224Z</time></trkpt><trkpt lat="46.00287" lon="13.487575"><ele>75.0</ele><time>2026-05-03T10:03:54.224Z</time></trkpt><trkpt lat="46.00296" lon="13.4873883"><ele>75.0</ele><time>2026-05-03T10:03:55.224Z</time></trkpt><trkpt lat="46.0030517" lon="13.48722"><ele>75.0</ele><time>2026-05-03T10:03:56.224Z</time></trkpt><trkpt lat="46.0031417" lon="13.4870733"><ele>75.0</ele><time>2026-05-03T10:03:57.224Z</time></trkpt><trkpt lat="46.003235" lon="13.48694"><ele>75.0</ele><time>2026-05-03T10:03:58.224Z</time></trkpt><trkpt lat="46.0033367" lon="13.4868017"><ele>75.0</ele><time>2026-05-03T10:03:59.224Z</time></trkpt><trkpt lat="46.0034333" lon="13.486645"><ele>75.0</ele><time>2026-05-03T10:04:00.224Z</time></trkpt><trkpt lat="46.0035183" lon="13.48649"><ele>75.0</ele><time>2026-05-03T10:04:01.224Z</time></trkpt><trkpt lat="46.0035967" lon="13.4863217"><ele>75.0</ele><time>2026-05-03T10:04:02.224Z</time></trkpt><trkpt lat="46.003665" lon="13.4861467"><ele>75.0</ele><time>2026-05-03T10:04:03.224Z</time></trkpt><trkpt lat="46.0037217" lon="13.4859517"><ele>75.0</ele><time>2026-05-03T10:04:04.224Z</time></trkpt><trkpt lat="46.0037733" lon="13.48575"><ele>75.0</ele><time>2026-05-03T10:04:05.224Z</time></trkpt><trkpt lat="46.00383" lon="13.4855367"><ele>74.33333333333333</ele><time>2026-05-03T10:04:06.224Z</time></trkpt><trkpt lat="46.003885" lon="13.485315"><ele>73.66666666666666</ele><time>2026-05-03T10:04:07.224Z</time></trkpt><trkpt lat="46.0039483" lon="13.4851033"><ele>73.0</ele><time>2026-05-03T10:04:08.224Z</time></trkpt><trkpt lat="46.004015" lon="13.4849017"><ele>73.0</ele><time>2026-05-03T10:04:09.224Z</time></trkpt><trkpt lat="46.0040883" lon="13.4846967"><ele>73.0</ele><time>2026-05-03T10:04:10.224Z</time></trkpt><trkpt lat="46.0041533" lon="13.484525"><ele>73.0</ele><time>2026-05-03T10:04:11.225Z</time></trkpt><trkpt lat="46.00423" lon="13.4843633"><ele>73.0</ele><time>2026-05-03T10:04:12.224Z</time></trkpt><trkpt lat="46.0043083" lon="13.484205"><ele>73.0</ele><time>2026-05-03T10:04:13.224Z</time></trkpt><trkpt lat="46.0043917" lon="13.4840517"><ele>73.0</ele><time>2026-05-03T10:04:14.224Z</time></trkpt><trkpt lat="46.004465" lon="13.48388"><ele>73.0</ele><time>2026-05-03T10:04:15.224Z</time></trkpt><trkpt lat="46.00452" lon="13.4836933"><ele>73.0</ele><time>2026-05-03T10:04:16.224Z</time></trkpt><trkpt lat="46.0045617" lon="13.4835083"><ele>73.0</ele><time>2026-05-03T10:04:17.224Z</time></trkpt><trkpt lat="46.0045833" lon="13.4833033"><ele>73.0</ele><time>2026-05-03T10:04:18.224Z</time></trkpt><trkpt lat="46.0045867" lon="13.48311"><ele>73.0</ele><time>2026-05-03T10:04:19.224Z</time></trkpt><trkpt lat="46.00458" lon="13.4829267"><ele>73.0</ele><time>2026-05-03T10:04:20.224Z</time></trkpt><trkpt lat="46.0045683" lon="13.4827433"><ele>73.0</ele><time>2026-05-03T10:04:21.224Z</time></trkpt><trkpt lat="46.0045483" lon="13.4825633"><ele>73.0</ele><time>2026-05-03T10:04:22.224Z</time></trkpt><trkpt lat="46.0045333" lon="13.4823717"><ele>73.0</ele><time>2026-05-03T10:04:23.224Z</time></trkpt><trkpt lat="46.0045433" lon="13.4821667"><ele>73.0</ele><time>2026-05-03T10:04:24.224Z</time></trkpt><trkpt lat="46.0045433" lon="13.48196"><ele>73.0</ele><time>2026-05-03T10:04:25.224Z</time></trkpt><trkpt lat="46.00453" lon="13.4817583"><ele>73.0</ele><time>2026-05-03T10:04:26.224Z</time></trkpt><trkpt lat="46.004525" lon="13.4815683"><ele>73.0</ele><time>2026-05-03T10:04:27.224Z</time></trkpt><trkpt lat="46.0045183" lon="13.4813767"><ele>73.0</ele><time>2026-05-03T10:04:28.224Z</time></trkpt><trkpt lat="46.004515" lon="13.4811817"><ele>73.0</ele><time>2026-05-03T10:04:29.224Z</time></trkpt><trkpt lat="46.0045183" lon="13.4809983"><ele>73.0</ele><time>2026-05-03T10:04:30.224Z</time></trkpt><trkpt lat="46.0045283" lon="13.4808267"><ele>73.0</ele><time>2026-05-03T10:04:31.224Z</time></trkpt><trkpt lat="46.00454" lon="13.480665"><ele>73.0</ele><time>2026-05-03T10:04:32.224Z</time></trkpt><trkpt lat="46.004545" lon="13.48049"><ele>72.5</ele><time>2026-05-03T10:04:33.224Z</time></trkpt><trkpt lat="46.0045467" lon="13.4803017"><ele>72.0</ele><time>2026-05-03T10:04:34.224Z</time></trkpt><trkpt lat="46.0045383" lon="13.4801133"><ele>71.5</ele><time>2026-05-03T10:04:35.224Z</time></trkpt><trkpt lat="46.00452" lon="13.4799233"><ele>71.0</ele><time>2026-05-03T10:04:36.224Z</time></trkpt><trkpt lat="46.0044883" lon="13.4797483"><ele>71.39999999999999</ele><time>2026-05-03T10:04:37.224Z</time></trkpt><trkpt lat="46.00446" lon="13.4795917"><ele>71.8</ele><time>2026-05-03T10:04:38.224Z</time></trkpt><trkpt lat="46.0044333" lon="13.4794467"><ele>72.19999999999999</ele><time>2026-05-03T10:04:39.224Z</time></trkpt><trkpt lat="46.004405" lon="13.479305"><ele>72.6</ele><time>2026-05-03T10:04:40.224Z</time></trkpt><trkpt lat="46.0043717" lon="13.4791717"><ele>73.0</ele><time>2026-05-03T10:04:41.224Z</time></trkpt><trkpt lat="46.0043467" lon="13.47904"><ele>73.0</ele><time>2026-05-03T10:04:42.224Z</time></trkpt><trkpt lat="46.0043333" lon="13.4789133"><ele>73.0</ele><time>2026-05-03T10:04:43.224Z</time></trkpt><trkpt lat="46.004325" lon="13.4788017"><ele>73.0</ele><time>2026-05-03T10:04:44.224Z</time></trkpt><trkpt lat="46.0043117" lon="13.4786883"><ele>73.0</ele><time>2026-05-03T10:04:45.224Z</time></trkpt><trkpt lat="46.004295" lon="13.47858"><ele>73.0</ele><time>2026-05-03T10:04:46.224Z</time></trkpt><trkpt lat="46.0042933" lon="13.4784683"><ele>73.0</ele><time>2026-05-03T10:04:47.224Z</time></trkpt><trkpt lat="46.00429" lon="13.4783583"><ele>73.16666666666666</ele><time>2026-05-03T10:04:48.224Z</time></trkpt><trkpt lat="46.0042817" lon="13.478245"><ele>73.33333333333333</ele><time>2026-05-03T10:04:49.224Z</time></trkpt><trkpt lat="46.004265" lon="13.4781333"><ele>73.5</ele><time>2026-05-03T10:04:50.224Z</time></trkpt><trkpt lat="46.0042417" lon="13.4780267"><ele>73.66666666666667</ele><time>2026-05-03T10:04:51.224Z</time></trkpt><trkpt lat="46.0042217" lon="13.4779333"><ele>73.83333333333334</ele><time>2026-05-03T10:04:52.224Z</time></trkpt><trkpt lat="46.0041633" lon="13.47776"><ele>74.0</ele><time>2026-05-03T10:04:54.225Z</time></trkpt><trkpt lat="46.0041367" lon="13.4776633"><ele>73.5</ele><time>2026-05-03T10:04:55.224Z</time></trkpt><trkpt lat="46.0041067" lon="13.4775717"><ele>73.0</ele><time>2026-05-03T10:04:56.224Z</time></trkpt><trkpt lat="46.004075" lon="13.4774767"><ele>72.5</ele><time>2026-05-03T10:04:57.224Z</time></trkpt><trkpt lat="46.0040383" lon="13.4773833"><ele>72.0</ele><time>2026-05-03T10:04:58.224Z</time></trkpt><trkpt lat="46.00396" lon="13.4772333"><ele>71.5</ele><time>2026-05-03T10:05:00.224Z</time></trkpt><trkpt lat="46.0039183" lon="13.4771433"><ele>71.0</ele><time>2026-05-03T10:05:01.224Z</time></trkpt><trkpt lat="46.0038783" lon="13.47705"><ele>71.0</ele><time>2026-05-03T10:05:02.224Z</time></trkpt><trkpt lat="46.0038367" lon="13.4769483"><ele>71.0</ele><time>2026-05-03T10:05:03.224Z</time></trkpt><trkpt lat="46.0038" lon="13.4768433"><ele>71.0</ele><time>2026-05-03T10:05:04.224Z</time></trkpt><trkpt lat="46.0037667" lon="13.4767183"><ele>71.0</ele><time>2026-05-03T10:05:05.224Z</time></trkpt><trkpt lat="46.0037417" lon="13.476585"><ele>71.0</ele><time>2026-05-03T10:05:06.224Z</time></trkpt><trkpt lat="46.0037283" lon="13.4764433"><ele>71.0</ele><time>2026-05-03T10:05:07.224Z</time></trkpt><trkpt lat="46.0037283" lon="13.4762933"><ele>71.0</ele><time>2026-05-03T10:05:08.224Z</time></trkpt><trkpt lat="46.0037417" lon="13.476125"><ele>71.0</ele><time>2026-05-03T10:05:09.224Z</time></trkpt><trkpt lat="46.0037517" lon="13.47595"><ele>71.0</ele><time>2026-05-03T10:05:10.224Z</time></trkpt><trkpt lat="46.003765" lon="13.4757683"><ele>71.0</ele><time>2026-05-03T10:05:11.224Z</time></trkpt><trkpt lat="46.0037767" lon="13.47559"><ele>71.0</ele><time>2026-05-03T10:05:12.224Z</time></trkpt><trkpt lat="46.0037867" lon="13.4754117"><ele>71.0</ele><time>2026-05-03T10:05:13.224Z</time></trkpt><trkpt lat="46.003795" lon="13.4752367"><ele>71.0</ele><time>2026-05-03T10:05:14.224Z</time></trkpt><trkpt lat="46.0038" lon="13.4750517"><ele>71.0</ele><time>2026-05-03T10:05:15.224Z</time></trkpt><trkpt lat="46.0038017" lon="13.47487"><ele>71.0</ele><time>2026-05-03T10:05:16.224Z</time></trkpt><trkpt lat="46.0038" lon="13.47469"><ele>71.0</ele><time>2026-05-03T10:05:17.224Z</time></trkpt><trkpt lat="46.0038" lon="13.4745233"><ele>71.0</ele><time>2026-05-03T10:05:18.224Z</time></trkpt><trkpt lat="46.0037967" lon="13.4743517"><ele>71.0</ele><time>2026-05-03T10:05:19.224Z</time></trkpt><trkpt lat="46.0038017" lon="13.474175"><ele>71.0</ele><time>2026-05-03T10:05:20.224Z</time></trkpt><trkpt lat="46.0038067" lon="13.4739933"><ele>71.0</ele><time>2026-05-03T10:05:21.224Z</time></trkpt><trkpt lat="46.003815" lon="13.473805"><ele>71.0</ele><time>2026-05-03T10:05:22.224Z</time></trkpt><trkpt lat="46.003825" lon="13.47362"><ele>71.0</ele><time>2026-05-03T10:05:23.224Z</time></trkpt><trkpt lat="46.00383" lon="13.4734333"><ele>71.0</ele><time>2026-05-03T10:05:24.224Z</time></trkpt><trkpt lat="46.0038433" lon="13.47326"><ele>71.0</ele><time>2026-05-03T10:05:25.224Z</time></trkpt><trkpt lat="46.0038483" lon="13.4731117"><ele>71.0</ele><time>2026-05-03T10:05:26.224Z</time></trkpt><trkpt lat="46.0038617" lon="13.4729733"><ele>70.83333333333334</ele><time>2026-05-03T10:05:27.224Z</time></trkpt><trkpt lat="46.0038833" lon="13.4728717"><ele>70.66666666666667</ele><time>2026-05-03T10:05:28.224Z</time></trkpt><trkpt lat="46.00392" lon="13.4727967"><ele>70.5</ele><time>2026-05-03T10:05:29.224Z</time></trkpt><trkpt lat="46.0040233" lon="13.4727433"><ele>70.33333333333333</ele><time>2026-05-03T10:05:31.224Z</time></trkpt><trkpt lat="46.0040967" lon="13.4727733"><ele>70.16666666666666</ele><time>2026-05-03T10:05:32.224Z</time></trkpt><trkpt lat="46.004185" lon="13.4728317"><ele>70.0</ele><time>2026-05-03T10:05:33.225Z</time></trkpt><trkpt lat="46.00428" lon="13.4728933"><ele>71.25</ele><time>2026-05-03T10:05:34.224Z</time></trkpt><trkpt lat="46.0043883" lon="13.4729683"><ele>72.5</ele><time>2026-05-03T10:05:35.224Z</time></trkpt><trkpt lat="46.0045083" lon="13.4730367"><ele>73.75</ele><time>2026-05-03T10:05:36.224Z</time></trkpt><trkpt lat="46.0046333" lon="13.473105"><ele>75.0</ele><time>2026-05-03T10:05:37.224Z</time></trkpt><trkpt lat="46.0047667" lon="13.4731733"><ele>75.0</ele><time>2026-05-03T10:05:38.224Z</time></trkpt><trkpt lat="46.00489" lon="13.4732017"><ele>75.0</ele><time>2026-05-03T10:05:39.224Z</time></trkpt><trkpt lat="46.0049967" lon="13.4732217"><ele>75.0</ele><time>2026-05-03T10:05:40.224Z</time></trkpt><trkpt lat="46.0050867" lon="13.4732483"><ele>75.0</ele><time>2026-05-03T10:05:41.224Z</time></trkpt><trkpt lat="46.0051717" lon="13.473285"><ele>75.0</ele><time>2026-05-03T10:05:42.224Z</time></trkpt><trkpt lat="46.0052417" lon="13.4732983"><ele>75.33333333333333</ele><time>2026-05-03T10:05:43.224Z</time></trkpt><trkpt lat="46.005305" lon="13.4732817"><ele>75.66666666666667</ele><time>2026-05-03T10:05:44.224Z</time></trkpt><trkpt lat="46.005365" lon="13.4732283"><ele>76.0</ele><time>2026-05-03T10:05:45.224Z</time></trkpt><trkpt lat="46.0054" lon="13.4731483"><ele>76.33333333333334</ele><time>2026-05-03T10:05:46.224Z</time></trkpt><trkpt lat="46.0054283" lon="13.4730417"><ele>76.66666666666667</ele><time>2026-05-03T10:05:47.224Z</time></trkpt><trkpt lat="46.0054517" lon="13.4729183"><ele>77.0</ele><time>2026-05-03T10:05:48.224Z</time></trkpt><trkpt lat="46.005485" lon="13.47277"><ele>77.0</ele><time>2026-05-03T10:05:49.224Z</time></trkpt><trkpt lat="46.005525" lon="13.4726367"><ele>77.0</ele><time>2026-05-03T10:05:50.224Z</time></trkpt><trkpt lat="46.0055867" lon="13.47251"><ele>77.0</ele><time>2026-05-03T10:05:51.224Z</time></trkpt><trkpt lat="46.0056617" lon="13.4723883"><ele>77.0</ele><time>2026-05-03T10:05:52.224Z</time></trkpt><trkpt lat="46.005745" lon="13.47227"><ele>77.0</ele><time>2026-05-03T10:05:53.224Z</time></trkpt><trkpt lat="46.005825" lon="13.4721517"><ele>79.8</ele><time>2026-05-03T10:05:54.224Z</time></trkpt><trkpt lat="46.0058967" lon="13.4720433"><ele>82.6</ele><time>2026-05-03T10:05:55.224Z</time></trkpt><trkpt lat="46.0059767" lon="13.471945"><ele>85.39999999999999</ele><time>2026-05-03T10:05:56.224Z</time></trkpt><trkpt lat="46.0060617" lon="13.4718717"><ele>88.2</ele><time>2026-05-03T10:05:57.224Z</time></trkpt><trkpt lat="46.006145" lon="13.4718167"><ele>91.0</ele><time>2026-05-03T10:05:58.224Z</time></trkpt><trkpt lat="46.0062283" lon="13.4717833"><ele>91.0</ele><time>2026-05-03T10:05:59.224Z</time></trkpt><trkpt lat="46.006315" lon="13.4717733"><ele>91.0</ele><time>2026-05-03T10:06:00.224Z</time></trkpt><trkpt lat="46.0064133" lon="13.4717667"><ele>91.0</ele><time>2026-05-03T10:06:01.224Z</time></trkpt><trkpt lat="46.0065083" lon="13.4717633"><ele>91.0</ele><time>2026-05-03T10:06:02.224Z</time></trkpt><trkpt lat="46.0066083" lon="13.471745"><ele>91.0</ele><time>2026-05-03T10:06:03.224Z</time></trkpt><trkpt lat="46.006705" lon="13.4717"><ele>92.4</ele><time>2026-05-03T10:06:04.224Z</time></trkpt><trkpt lat="46.0067917" lon="13.4716417"><ele>93.8</ele><time>2026-05-03T10:06:05.224Z</time></trkpt><trkpt lat="46.0068817" lon="13.4715683"><ele>95.2</ele><time>2026-05-03T10:06:06.224Z</time></trkpt><trkpt lat="46.0069683" lon="13.4714817"><ele>96.60000000000001</ele><time>2026-05-03T10:06:07.224Z</time></trkpt><trkpt lat="46.0070383" lon="13.4713683"><ele>98.0</ele><time>2026-05-03T10:06:08.224Z</time></trkpt><trkpt lat="46.0071117" lon="13.4712483"><ele>100.60000000000001</ele><time>2026-05-03T10:06:09.224Z</time></trkpt><trkpt lat="46.0071733" lon="13.4711167"><ele>103.2</ele><time>2026-05-03T10:06:10.224Z</time></trkpt><trkpt lat="46.0072317" lon="13.47099"><ele>105.8</ele><time>2026-05-03T10:06:11.224Z</time></trkpt><trkpt lat="46.007285" lon="13.4708617"><ele>108.4</ele><time>2026-05-03T10:06:12.224Z</time></trkpt><trkpt lat="46.0073417" lon="13.4707417"><ele>111.0</ele><time>2026-05-03T10:06:13.224Z</time></trkpt><trkpt lat="46.0074" lon="13.470645"><ele>111.0</ele><time>2026-05-03T10:06:14.224Z</time></trkpt><trkpt lat="46.0074667" lon="13.4705717"><ele>111.0</ele><time>2026-05-03T10:06:15.224Z</time></trkpt><trkpt lat="46.0075417" lon="13.4705333"><ele>111.0</ele><time>2026-05-03T10:06:16.224Z</time></trkpt><trkpt lat="46.0076517" lon="13.4704933"><ele>111.0</ele><time>2026-05-03T10:06:17.224Z</time></trkpt><trkpt lat="46.007775" lon="13.47047"><ele>111.0</ele><time>2026-05-03T10:06:18.224Z</time></trkpt><trkpt lat="46.0078983" lon="13.4704733"><ele>111.0</ele><time>2026-05-03T10:06:19.224Z</time></trkpt><trkpt lat="46.0080233" lon="13.47049"><ele>111.0</ele><time>2026-05-03T10:06:20.224Z</time></trkpt><trkpt lat="46.0081433" lon="13.4705317"><ele>111.0</ele><time>2026-05-03T10:06:21.225Z</time></trkpt><trkpt lat="46.0082567" lon="13.4706017"><ele>111.0</ele><time>2026-05-03T10:06:22.224Z</time></trkpt><trkpt lat="46.0083683" lon="13.4706833"><ele>111.75</ele><time>2026-05-03T10:06:23.224Z</time></trkpt><trkpt lat="46.0084883" lon="13.4707667"><ele>112.5</ele><time>2026-05-03T10:06:24.224Z</time></trkpt><trkpt lat="46.00861" lon="13.4708583"><ele>113.25</ele><time>2026-05-03T10:06:25.224Z</time></trkpt><trkpt lat="46.0087333" lon="13.4709617"><ele>114.0</ele><time>2026-05-03T10:06:26.224Z</time></trkpt><trkpt lat="46.00886" lon="13.471055"><ele>114.0</ele><time>2026-05-03T10:06:27.223Z</time></trkpt><trkpt lat="46.0089767" lon="13.47116"><ele>114.0</ele><time>2026-05-03T10:06:28.223Z</time></trkpt><trkpt lat="46.009095" lon="13.47125"><ele>114.0</ele><time>2026-05-03T10:06:29.223Z</time></trkpt><trkpt lat="46.0092167" lon="13.4713367"><ele>114.0</ele><time>2026-05-03T10:06:30.223Z</time></trkpt><trkpt lat="46.0093433" lon="13.4714117"><ele>114.25</ele><time>2026-05-03T10:06:31.223Z</time></trkpt><trkpt lat="46.0094567" lon="13.4714883"><ele>114.5</ele><time>2026-05-03T10:06:32.223Z</time></trkpt><trkpt lat="46.0095717" lon="13.4715817"><ele>114.75</ele><time>2026-05-03T10:06:33.223Z</time></trkpt><trkpt lat="46.0096833" lon="13.4716933"><ele>115.0</ele><time>2026-05-03T10:06:34.223Z</time></trkpt><trkpt lat="46.0097983" lon="13.4718133"><ele>115.0</ele><time>2026-05-03T10:06:35.224Z</time></trkpt><trkpt lat="46.00991" lon="13.47194"><ele>115.0</ele><time>2026-05-03T10:06:36.223Z</time></trkpt><trkpt lat="46.01002" lon="13.4720717"><ele>115.0</ele><time>2026-05-03T10:06:37.223Z</time></trkpt><trkpt lat="46.0101183" lon="13.4722"><ele>115.0</ele><time>2026-05-03T10:06:38.223Z</time></trkpt><trkpt lat="46.0102017" lon="13.4723133"><ele>115.2</ele><time>2026-05-03T10:06:39.223Z</time></trkpt><trkpt lat="46.0102733" lon="13.4724167"><ele>115.4</ele><time>2026-05-03T10:06:40.223Z</time></trkpt><trkpt lat="46.0103533" lon="13.4725283"><ele>115.6</ele><time>2026-05-03T10:06:41.223Z</time></trkpt><trkpt lat="46.0104033" lon="13.472625"><ele>115.8</ele><time>2026-05-03T10:06:42.223Z</time></trkpt><trkpt lat="46.010445" lon="13.472735"><ele>116.0</ele><time>2026-05-03T10:06:43.223Z</time></trkpt><trkpt lat="46.0104967" lon="13.472845"><ele>115.8</ele><time>2026-05-03T10:06:44.223Z</time></trkpt><trkpt lat="46.0105317" lon="13.4729433"><ele>115.6</ele><time>2026-05-03T10:06:45.223Z</time></trkpt><trkpt lat="46.0105733" lon="13.4730167"><ele>115.4</ele><time>2026-05-03T10:06:46.223Z</time></trkpt><trkpt lat="46.0107017" lon="13.47309"><ele>115.2</ele><time>2026-05-03T10:06:48.223Z</time></trkpt><trkpt lat="46.0107883" lon="13.4731"><ele>115.0</ele><time>2026-05-03T10:06:49.223Z</time></trkpt><trkpt lat="46.010885" lon="13.4731067"><ele>115.0</ele><time>2026-05-03T10:06:50.223Z</time></trkpt><trkpt lat="46.0109833" lon="13.4731317"><ele>115.0</ele><time>2026-05-03T10:06:51.223Z</time></trkpt><trkpt lat="46.0110817" lon="13.473165"><ele>115.0</ele><time>2026-05-03T10:06:52.223Z</time></trkpt><trkpt lat="46.01118" lon="13.4732333"><ele>115.0</ele><time>2026-05-03T10:06:53.223Z</time></trkpt><trkpt lat="46.0112817" lon="13.4733567"><ele>115.0</ele><time>2026-05-03T10:06:54.223Z</time></trkpt><trkpt lat="46.01138" lon="13.4734983"><ele>115.0</ele><time>2026-05-03T10:06:55.223Z</time></trkpt><trkpt lat="46.01148" lon="13.473635"><ele>115.0</ele><time>2026-05-03T10:06:56.223Z</time></trkpt><trkpt lat="46.0115767" lon="13.47376"><ele>115.0</ele><time>2026-05-03T10:06:57.223Z</time></trkpt><trkpt lat="46.011665" lon="13.4738867"><ele>115.0</ele><time>2026-05-03T10:06:58.224Z</time></trkpt><trkpt lat="46.0117567" lon="13.4740133"><ele>115.0</ele><time>2026-05-03T10:06:59.223Z</time></trkpt><trkpt lat="46.011845" lon="13.47414"><ele>115.0</ele><time>2026-05-03T10:07:00.223Z</time></trkpt><trkpt lat="46.0119317" lon="13.4742567"><ele>115.0</ele><time>2026-05-03T10:07:01.223Z</time></trkpt><trkpt lat="46.0120067" lon="13.4743633"><ele>115.0</ele><time>2026-05-03T10:07:02.223Z</time></trkpt><trkpt lat="46.01208" lon="13.4744617"><ele>115.0</ele><time>2026-05-03T10:07:03.223Z</time></trkpt><trkpt lat="46.012145" lon="13.4745583"><ele>114.00000000000001</ele><time>2026-05-03T10:07:04.223Z</time></trkpt><trkpt lat="46.0122017" lon="13.47467"><ele>113.0</ele><time>2026-05-03T10:07:05.223Z</time></trkpt><trkpt lat="46.012235" lon="13.4747717"><ele>112.0</ele><time>2026-05-03T10:07:06.223Z</time></trkpt><trkpt lat="46.012255" lon="13.474885"><ele>111.0</ele><time>2026-05-03T10:07:07.223Z</time></trkpt><trkpt lat="46.01228" lon="13.474985"><ele>110.00000000000001</ele><time>2026-05-03T10:07:08.223Z</time></trkpt><trkpt lat="46.0123183" lon="13.47508"><ele>109.0</ele><time>2026-05-03T10:07:09.223Z</time></trkpt><trkpt lat="46.0123817" lon="13.4751583"><ele>109.0</ele><time>2026-05-03T10:07:10.223Z</time></trkpt><trkpt lat="46.0124633" lon="13.475225"><ele>109.0</ele><time>2026-05-03T10:07:11.223Z</time></trkpt><trkpt lat="46.0125733" lon="13.4752833"><ele>109.0</ele><time>2026-05-03T10:07:12.223Z</time></trkpt><trkpt lat="46.0126917" lon="13.475345"><ele>109.0</ele><time>2026-05-03T10:07:13.223Z</time></trkpt><trkpt lat="46.0128017" lon="13.4754117"><ele>108.6</ele><time>2026-05-03T10:07:14.223Z</time></trkpt><trkpt lat="46.0129133" lon="13.4754683"><ele>108.2</ele><time>2026-05-03T10:07:15.223Z</time></trkpt><trkpt lat="46.013015" lon="13.4755233"><ele>107.79999999999998</ele><time>2026-05-03T10:07:16.223Z</time></trkpt><trkpt lat="46.013115" lon="13.4755833"><ele>107.39999999999999</ele><time>2026-05-03T10:07:17.224Z</time></trkpt><trkpt lat="46.0132183" lon="13.4756433"><ele>107.0</ele><time>2026-05-03T10:07:18.223Z</time></trkpt><trkpt lat="46.01332" lon="13.475705"><ele>106.8</ele><time>2026-05-03T10:07:19.223Z</time></trkpt><trkpt lat="46.01344" lon="13.475755"><ele>106.6</ele><time>2026-05-03T10:07:20.223Z</time></trkpt><trkpt lat="46.0135517" lon="13.4757917"><ele>106.39999999999999</ele><time>2026-05-03T10:07:21.223Z</time></trkpt><trkpt lat="46.0136417" lon="13.475835"><ele>106.19999999999999</ele><time>2026-05-03T10:07:22.223Z</time></trkpt><trkpt lat="46.0137267" lon="13.47591"><ele>106.0</ele><time>2026-05-03T10:07:23.223Z</time></trkpt><trkpt lat="46.0137983" lon="13.4760033"><ele>106.0</ele><time>2026-05-03T10:07:24.223Z</time></trkpt><trkpt lat="46.0138417" lon="13.4761233"><ele>106.0</ele><time>2026-05-03T10:07:25.223Z</time></trkpt><trkpt lat="46.0138717" lon="13.476245"><ele>106.0</ele><time>2026-05-03T10:07:26.223Z</time></trkpt><trkpt lat="46.0138767" lon="13.476375"><ele>106.0</ele><time>2026-05-03T10:07:27.223Z</time></trkpt><trkpt lat="46.0138767" lon="13.4765233"><ele>106.0</ele><time>2026-05-03T10:07:28.223Z</time></trkpt><trkpt lat="46.013865" lon="13.4766883"><ele>106.0</ele><time>2026-05-03T10:07:29.223Z</time></trkpt><trkpt lat="46.0138667" lon="13.4768467"><ele>106.0</ele><time>2026-05-03T10:07:30.223Z</time></trkpt><trkpt lat="46.0138833" lon="13.47698"><ele>106.0</ele><time>2026-05-03T10:07:31.223Z</time></trkpt><trkpt lat="46.0139017" lon="13.477105"><ele>106.0</ele><time>2026-05-03T10:07:32.223Z</time></trkpt><trkpt lat="46.0139483" lon="13.4772117"><ele>106.0</ele><time>2026-05-03T10:07:33.223Z</time></trkpt><trkpt lat="46.0140183" lon="13.4773"><ele>106.0</ele><time>2026-05-03T10:07:34.223Z</time></trkpt><trkpt lat="46.01411" lon="13.47738"><ele>106.0</ele><time>2026-05-03T10:07:35.223Z</time></trkpt><trkpt lat="46.01421" lon="13.4774533"><ele>106.0</ele><time>2026-05-03T10:07:36.223Z</time></trkpt><trkpt lat="46.0143117" lon="13.4775217"><ele>106.0</ele><time>2026-05-03T10:07:37.223Z</time></trkpt><trkpt lat="46.0144067" lon="13.4775983"><ele>106.0</ele><time>2026-05-03T10:07:38.223Z</time></trkpt><trkpt lat="46.0145033" lon="13.477675"><ele>107.25</ele><time>2026-05-03T10:07:39.223Z</time></trkpt><trkpt lat="46.014625" lon="13.4777483"><ele>108.5</ele><time>2026-05-03T10:07:40.223Z</time></trkpt><trkpt lat="46.0147467" lon="13.4778083"><ele>109.75</ele><time>2026-05-03T10:07:41.223Z</time></trkpt><trkpt lat="46.0148783" lon="13.47787"><ele>111.0</ele><time>2026-05-03T10:07:42.223Z</time></trkpt><trkpt lat="46.01499" lon="13.4779283"><ele>111.0</ele><time>2026-05-03T10:07:43.223Z</time></trkpt><trkpt lat="46.0151067" lon="13.4779867"><ele>111.0</ele><time>2026-05-03T10:07:44.223Z</time></trkpt><trkpt lat="46.0152233" lon="13.4780467"><ele>111.0</ele><time>2026-05-03T10:07:45.223Z</time></trkpt><trkpt lat="46.015345" lon="13.4781267"><ele>111.0</ele><time>2026-05-03T10:07:46.223Z</time></trkpt><trkpt lat="46.0154617" lon="13.4782167"><ele>111.0</ele><time>2026-05-03T10:07:47.223Z</time></trkpt><trkpt lat="46.0155717" lon="13.4783217"><ele>111.0</ele><time>2026-05-03T10:07:48.223Z</time></trkpt><trkpt lat="46.0156667" lon="13.4784383"><ele>111.0</ele><time>2026-05-03T10:07:49.223Z</time></trkpt><trkpt lat="46.0157667" lon="13.4785583"><ele>111.0</ele><time>2026-05-03T10:07:50.223Z</time></trkpt><trkpt lat="46.015855" lon="13.4786783"><ele>112.0</ele><time>2026-05-03T10:07:51.223Z</time></trkpt><trkpt lat="46.01594" lon="13.4787833"><ele>113.0</ele><time>2026-05-03T10:07:52.223Z</time></trkpt><trkpt lat="46.0159967" lon="13.4788783"><ele>114.0</ele><time>2026-05-03T10:07:53.223Z</time></trkpt><trkpt lat="46.0160483" lon="13.4789833"><ele>115.0</ele><time>2026-05-03T10:07:54.223Z</time></trkpt><trkpt lat="46.016105" lon="13.479095"><ele>116.0</ele><time>2026-05-03T10:07:55.223Z</time></trkpt><trkpt lat="46.01616" lon="13.479225"><ele>116.0</ele><time>2026-05-03T10:07:56.223Z</time></trkpt><trkpt lat="46.0162067" lon="13.47936"><ele>116.0</ele><time>2026-05-03T10:07:57.223Z</time></trkpt><trkpt lat="46.0162667" lon="13.479505"><ele>116.0</ele><time>2026-05-03T10:07:58.223Z</time></trkpt><trkpt lat="46.0163317" lon="13.4796583"><ele>116.0</ele><time>2026-05-03T10:07:59.223Z</time></trkpt><trkpt lat="46.0163983" lon="13.4798033"><ele>115.25</ele><time>2026-05-03T10:08:00.223Z</time></trkpt><trkpt lat="46.0164633" lon="13.479955"><ele>114.5</ele><time>2026-05-03T10:08:01.223Z</time></trkpt><trkpt lat="46.0165217" lon="13.4801217"><ele>113.75</ele><time>2026-05-03T10:08:02.223Z</time></trkpt><trkpt lat="46.0165833" lon="13.4802767"><ele>113.0</ele><time>2026-05-03T10:08:03.223Z</time></trkpt><trkpt lat="46.0166383" lon="13.480425"><ele>115.16666666666666</ele><time>2026-05-03T10:08:04.223Z</time></trkpt><trkpt lat="46.0166867" lon="13.4805583"><ele>117.33333333333333</ele><time>2026-05-03T10:08:05.223Z</time></trkpt><trkpt lat="46.0167283" lon="13.480685"><ele>119.5</ele><time>2026-05-03T10:08:06.223Z</time></trkpt><trkpt lat="46.0167567" lon="13.480805"><ele>121.66666666666666</ele><time>2026-05-03T10:08:07.223Z</time></trkpt><trkpt lat="46.016775" lon="13.48091"><ele>123.83333333333333</ele><time>2026-05-03T10:08:08.223Z</time></trkpt><trkpt lat="46.01678" lon="13.4810017"><ele>126.0</ele><time>2026-05-03T10:08:09.223Z</time></trkpt><trkpt lat="46.0167633" lon="13.4811683"><ele>127.19999999999999</ele><time>2026-05-03T10:08:11.223Z</time></trkpt><trkpt lat="46.0167367" lon="13.4812667"><ele>128.39999999999998</ele><time>2026-05-03T10:08:12.223Z</time></trkpt><trkpt lat="46.0166883" lon="13.4813717"><ele>129.6</ele><time>2026-05-03T10:08:13.223Z</time></trkpt><trkpt lat="46.0166333" lon="13.4814833"><ele>130.79999999999998</ele><time>2026-05-03T10:08:14.223Z</time></trkpt><trkpt lat="46.0165583" lon="13.4815983"><ele>132.0</ele><time>2026-05-03T10:08:15.223Z</time></trkpt><trkpt lat="46.016495" lon="13.4816933"><ele>132.0</ele><time>2026-05-03T10:08:16.223Z</time></trkpt><trkpt lat="46.0164517" lon="13.4817717"><ele>132.0</ele><time>2026-05-03T10:08:17.223Z</time></trkpt><trkpt lat="46.01648" lon="13.4818917"><ele>132.0</ele><time>2026-05-03T10:08:19.223Z</time></trkpt><trkpt lat="46.01654" lon="13.48192"><ele>132.0</ele><time>2026-05-03T10:08:20.223Z</time></trkpt><trkpt lat="46.0166133" lon="13.481945"><ele>132.0</ele><time>2026-05-03T10:08:21.223Z</time></trkpt><trkpt lat="46.0166983" lon="13.4819833"><ele>132.0</ele><time>2026-05-03T10:08:22.223Z</time></trkpt><trkpt lat="46.0167867" lon="13.4820283"><ele>132.0</ele><time>2026-05-03T10:08:23.223Z</time></trkpt><trkpt lat="46.0168767" lon="13.48208"><ele>132.0</ele><time>2026-05-03T10:08:24.223Z</time></trkpt><trkpt lat="46.0169567" lon="13.4821383"><ele>132.0</ele><time>2026-05-03T10:08:25.223Z</time></trkpt><trkpt lat="46.017035" lon="13.4822167"><ele>132.0</ele><time>2026-05-03T10:08:26.223Z</time></trkpt><trkpt lat="46.017105" lon="13.4823217"><ele>132.0</ele><time>2026-05-03T10:08:27.223Z</time></trkpt><trkpt lat="46.0171683" lon="13.4824317"><ele>131.79999999999998</ele><time>2026-05-03T10:08:28.223Z</time></trkpt><trkpt lat="46.0172167" lon="13.482555"><ele>131.6</ele><time>2026-05-03T10:08:29.223Z</time></trkpt><trkpt lat="46.0172567" lon="13.482685"><ele>131.39999999999998</ele><time>2026-05-03T10:08:30.223Z</time></trkpt><trkpt lat="46.017285" lon="13.482835"><ele>131.2</ele><time>2026-05-03T10:08:31.223Z</time></trkpt><trkpt lat="46.01731" lon="13.4830033"><ele>131.0</ele><time>2026-05-03T10:08:32.223Z</time></trkpt><trkpt lat="46.0173283" lon="13.48317"><ele>128.25</ele><time>2026-05-03T10:08:33.223Z</time></trkpt><trkpt lat="46.0173533" lon="13.48334"><ele>125.5</ele><time>2026-05-03T10:08:34.223Z</time></trkpt><trkpt lat="46.0173717" lon="13.4835017"><ele>122.75</ele><time>2026-05-03T10:08:35.223Z</time></trkpt><trkpt lat="46.017395" lon="13.48366"><ele>120.0</ele><time>2026-05-03T10:08:36.223Z</time></trkpt><trkpt lat="46.01741" lon="13.4838167"><ele>119.2</ele><time>2026-05-03T10:08:37.223Z</time></trkpt><trkpt lat="46.0174217" lon="13.4839667"><ele>118.4</ele><time>2026-05-03T10:08:38.223Z</time></trkpt><trkpt lat="46.0174283" lon="13.4841167"><ele>117.6</ele><time>2026-05-03T10:08:39.223Z</time></trkpt><trkpt lat="46.01744" lon="13.48427"><ele>116.8</ele><time>2026-05-03T10:08:40.223Z</time></trkpt><trkpt lat="46.0174633" lon="13.4844233"><ele>116.0</ele><time>2026-05-03T10:08:41.223Z</time></trkpt><trkpt lat="46.0175" lon="13.48459"><ele>120.25</ele><time>2026-05-03T10:08:42.223Z</time></trkpt><trkpt lat="46.0175467" lon="13.4847633"><ele>124.5</ele><time>2026-05-03T10:08:43.224Z</time></trkpt><trkpt lat="46.0175983" lon="13.4849317"><ele>128.75</ele><time>2026-05-03T10:08:44.223Z</time></trkpt><trkpt lat="46.0176483" lon="13.48509"><ele>133.0</ele><time>2026-05-03T10:08:45.223Z</time></trkpt><trkpt lat="46.017675" lon="13.485255"><ele>133.0</ele><time>2026-05-03T10:08:46.223Z</time></trkpt><trkpt lat="46.0176917" lon="13.4854183"><ele>133.0</ele><time>2026-05-03T10:08:47.223Z</time></trkpt><trkpt lat="46.0177083" lon="13.485585"><ele>133.0</ele><time>2026-05-03T10:08:48.223Z</time></trkpt><trkpt lat="46.017725" lon="13.4857367"><ele>133.0</ele><time>2026-05-03T10:08:49.223Z</time></trkpt><trkpt lat="46.0177317" lon="13.4858883"><ele>133.0</ele><time>2026-05-03T10:08:50.223Z</time></trkpt><trkpt lat="46.0177333" lon="13.4860367"><ele>132.6</ele><time>2026-05-03T10:08:51.223Z</time></trkpt><trkpt lat="46.01774" lon="13.4861817"><ele>132.20000000000002</ele><time>2026-05-03T10:08:52.223Z</time></trkpt><trkpt lat="46.0177617" lon="13.4863117"><ele>131.8</ele><time>2026-05-03T10:08:53.223Z</time></trkpt><trkpt lat="46.0177917" lon="13.4864317"><ele>131.4</ele><time>2026-05-03T10:08:54.223Z</time></trkpt><trkpt lat="46.0178433" lon="13.486545"><ele>131.0</ele><time>2026-05-03T10:08:55.223Z</time></trkpt><trkpt lat="46.017905" lon="13.4866533"><ele>130.75</ele><time>2026-05-03T10:08:56.223Z</time></trkpt><trkpt lat="46.0179867" lon="13.4867533"><ele>130.5</ele><time>2026-05-03T10:08:57.223Z</time></trkpt><trkpt lat="46.01808" lon="13.48686"><ele>130.25</ele><time>2026-05-03T10:08:58.223Z</time></trkpt><trkpt lat="46.0181767" lon="13.4869617"><ele>130.0</ele><time>2026-05-03T10:08:59.223Z</time></trkpt><trkpt lat="46.0182717" lon="13.4870633"><ele>130.5</ele><time>2026-05-03T10:09:00.223Z</time></trkpt><trkpt lat="46.0183633" lon="13.4871667"><ele>131.0</ele><time>2026-05-03T10:09:01.223Z</time></trkpt><trkpt lat="46.018455" lon="13.4872733"><ele>131.5</ele><time>2026-05-03T10:09:02.223Z</time></trkpt><trkpt lat="46.0185433" lon="13.4873783"><ele>132.0</ele><time>2026-05-03T10:09:03.223Z</time></trkpt><trkpt lat="46.01863" lon="13.487485"><ele>132.0</ele><time>2026-05-03T10:09:04.223Z</time></trkpt><trkpt lat="46.0187133" lon="13.4875933"><ele>132.0</ele><time>2026-05-03T10:09:05.223Z</time></trkpt><trkpt lat="46.0187933" lon="13.4876883"><ele>132.0</ele><time>2026-05-03T10:09:06.223Z</time></trkpt><trkpt lat="46.0188617" lon="13.4877767"><ele>132.0</ele><time>2026-05-03T10:09:07.223Z</time></trkpt><trkpt lat="46.0189317" lon="13.4878583"><ele>132.0</ele><time>2026-05-03T10:09:08.223Z</time></trkpt><trkpt lat="46.0190017" lon="13.48792"><ele>131.6</ele><time>2026-05-03T10:09:09.223Z</time></trkpt><trkpt lat="46.0190767" lon="13.4879817"><ele>131.2</ele><time>2026-05-03T10:09:10.223Z</time></trkpt><trkpt lat="46.019165" lon="13.4880533"><ele>130.8</ele><time>2026-05-03T10:09:11.224Z</time></trkpt><trkpt lat="46.0192683" lon="13.488115"><ele>130.4</ele><time>2026-05-03T10:09:12.223Z</time></trkpt><trkpt lat="46.01938" lon="13.48818"><ele>130.0</ele><time>2026-05-03T10:09:13.223Z</time></trkpt><trkpt lat="46.0194867" lon="13.48824"><ele>130.0</ele><time>2026-05-03T10:09:14.223Z</time></trkpt><trkpt lat="46.0195867" lon="13.4883083"><ele>130.0</ele><time>2026-05-03T10:09:15.223Z</time></trkpt><trkpt lat="46.0196883" lon="13.4883783"><ele>130.0</ele><time>2026-05-03T10:09:16.223Z</time></trkpt><trkpt lat="46.019785" lon="13.488455"><ele>130.0</ele><time>2026-05-03T10:09:17.223Z</time></trkpt><trkpt lat="46.0198867" lon="13.4885267"><ele>130.0</ele><time>2026-05-03T10:09:18.223Z</time></trkpt><trkpt lat="46.0199883" lon="13.4886083"><ele>128.8</ele><time>2026-05-03T10:09:19.223Z</time></trkpt><trkpt lat="46.0200717" lon="13.488675"><ele>127.6</ele><time>2026-05-03T10:09:20.223Z</time></trkpt><trkpt lat="46.0201583" lon="13.4887367"><ele>126.4</ele><time>2026-05-03T10:09:21.223Z</time></trkpt><trkpt lat="46.020255" lon="13.4887867"><ele>125.2</ele><time>2026-05-03T10:09:22.223Z</time></trkpt><trkpt lat="46.0203567" lon="13.4888217"><ele>124.0</ele><time>2026-05-03T10:09:23.223Z</time></trkpt><trkpt lat="46.0204583" lon="13.488855"><ele>123.83333333333334</ele><time>2026-05-03T10:09:24.223Z</time></trkpt><trkpt lat="46.0205517" lon="13.4888933"><ele>123.66666666666667</ele><time>2026-05-03T10:09:25.223Z</time></trkpt><trkpt lat="46.0206367" lon="13.4889367"><ele>123.5</ele><time>2026-05-03T10:09:26.223Z</time></trkpt><trkpt lat="46.0207167" lon="13.48898"><ele>123.33333333333334</ele><time>2026-05-03T10:09:27.223Z</time></trkpt><trkpt lat="46.020775" lon="13.4890167"><ele>123.16666666666667</ele><time>2026-05-03T10:09:28.223Z</time></trkpt><trkpt lat="46.0208733" lon="13.48908"><ele>123.0</ele><time>2026-05-03T10:09:30.223Z</time></trkpt><trkpt lat="46.0209411" lon="13.4890494"><ele>123.0</ele><time>2026-05-03T10:09:33.223Z</time></trkpt><trkpt lat="46.0209043" lon="13.4889395"><ele>123.0</ele><time>2026-05-03T10:09:35.224Z</time></trkpt><trkpt lat="46.020872" lon="13.4888592"><ele>123.0</ele><time>2026-05-03T10:09:36.223Z</time></trkpt><trkpt lat="46.0208419" lon="13.4887641"><ele>123.0</ele><time>2026-05-03T10:09:37.223Z</time></trkpt><trkpt lat="46.0208151" lon="13.4886527"><ele>123.0</ele><time>2026-05-03T10:09:38.223Z</time></trkpt><trkpt lat="46.0207876" lon="13.4885142"><ele>123.0</ele><time>2026-05-03T10:09:39.223Z</time></trkpt><trkpt lat="46.0207661" lon="13.4883629"><ele>123.2</ele><time>2026-05-03T10:09:40.223Z</time></trkpt><trkpt lat="46.0207608" lon="13.4881992"><ele>123.4</ele><time>2026-05-03T10:09:41.223Z</time></trkpt><trkpt lat="46.0207771" lon="13.4880367"><ele>123.60000000000001</ele><time>2026-05-03T10:09:42.223Z</time></trkpt><trkpt lat="46.0207824" lon="13.4878819"><ele>123.80000000000001</ele><time>2026-05-03T10:09:43.223Z</time></trkpt><trkpt lat="46.0207551" lon="13.4877335"><ele>124.0</ele><time>2026-05-03T10:09:44.223Z</time></trkpt><trkpt lat="46.020696" lon="13.4876011"><ele>123.4</ele><time>2026-05-03T10:09:45.223Z</time></trkpt><trkpt lat="46.0206307" lon="13.4874877"><ele>122.80000000000001</ele><time>2026-05-03T10:09:46.223Z</time></trkpt><trkpt lat="46.0205832" lon="13.4873701"><ele>122.19999999999999</ele><time>2026-05-03T10:09:47.223Z</time></trkpt><trkpt lat="46.0205591" lon="13.4872401"><ele>121.6</ele><time>2026-05-03T10:09:48.223Z</time></trkpt><trkpt lat="46.0205461" lon="13.4870998"><ele>121.0</ele><time>2026-05-03T10:09:49.223Z</time></trkpt><trkpt lat="46.0205296" lon="13.4869511"><ele>119.4</ele><time>2026-05-03T10:09:50.223Z</time></trkpt><trkpt lat="46.0205126" lon="13.4868042"><ele>117.8</ele><time>2026-05-03T10:09:51.223Z</time></trkpt><trkpt lat="46.0205171" lon="13.4866558"><ele>116.20000000000002</ele><time>2026-05-03T10:09:52.223Z</time></trkpt><trkpt lat="46.0205384" lon="13.4865157"><ele>114.60000000000001</ele><time>2026-05-03T10:09:53.224Z</time></trkpt><trkpt lat="46.0205726" lon="13.486362"><ele>113.0</ele><time>2026-05-03T10:09:54.223Z</time></trkpt><trkpt lat="46.0205999" lon="13.4861793"><ele>109.5</ele><time>2026-05-03T10:09:55.223Z</time></trkpt><trkpt lat="46.0206136" lon="13.4859889"><ele>106.0</ele><time>2026-05-03T10:09:56.223Z</time></trkpt><trkpt lat="46.0206071" lon="13.4858038"><ele>102.5</ele><time>2026-05-03T10:09:57.223Z</time></trkpt><trkpt lat="46.0205763" lon="13.4856222"><ele>99.0</ele><time>2026-05-03T10:09:58.223Z</time></trkpt><trkpt lat="46.0205399" lon="13.4854381"><ele>97.75</ele><time>2026-05-03T10:09:59.223Z</time></trkpt><trkpt lat="46.0205071" lon="13.4852559"><ele>96.5</ele><time>2026-05-03T10:10:00.223Z</time></trkpt><trkpt lat="46.0204822" lon="13.4850618"><ele>95.25</ele><time>2026-05-03T10:10:01.223Z</time></trkpt><trkpt lat="46.0204563" lon="13.4848677"><ele>94.0</ele><time>2026-05-03T10:10:02.223Z</time></trkpt><trkpt lat="46.0204199" lon="13.4846875"><ele>93.6</ele><time>2026-05-03T10:10:03.223Z</time></trkpt><trkpt lat="46.0203716" lon="13.4845386"><ele>93.2</ele><time>2026-05-03T10:10:04.223Z</time></trkpt><trkpt lat="46.0203376" lon="13.4844313"><ele>92.8</ele><time>2026-05-03T10:10:05.223Z</time></trkpt><trkpt lat="46.0203355" lon="13.4843031"><ele>92.39999999999999</ele><time>2026-05-03T10:10:07.223Z</time></trkpt><trkpt lat="46.020406" lon="13.4843608"><ele>92.0</ele><time>2026-05-03T10:10:09.223Z</time></trkpt><trkpt lat="46.0204875" lon="13.4845184"><ele>92.0</ele><time>2026-05-03T10:10:11.223Z</time></trkpt><trkpt lat="46.0205482" lon="13.4845967"><ele>92.0</ele><time>2026-05-03T10:10:12.223Z</time></trkpt><trkpt lat="46.020624" lon="13.4846206"><ele>92.0</ele><time>2026-05-03T10:10:13.223Z</time></trkpt><trkpt lat="46.0207034" lon="13.4845823"><ele>92.0</ele><time>2026-05-03T10:10:14.223Z</time></trkpt><trkpt lat="46.0207782" lon="13.4844959"><ele>92.0</ele><time>2026-05-03T10:10:15.223Z</time></trkpt><trkpt lat="46.020862" lon="13.4843792"><ele>92.8</ele><time>2026-05-03T10:10:16.223Z</time></trkpt><trkpt lat="46.0209564" lon="13.4842854"><ele>93.6</ele><time>2026-05-03T10:10:17.223Z</time></trkpt><trkpt lat="46.0210579" lon="13.484238"><ele>94.39999999999999</ele><time>2026-05-03T10:10:18.223Z</time></trkpt><trkpt lat="46.0211569" lon="13.4842506"><ele>95.19999999999999</ele><time>2026-05-03T10:10:19.223Z</time></trkpt><trkpt lat="46.0212591" lon="13.4843146"><ele>96.0</ele><time>2026-05-03T10:10:20.223Z</time></trkpt><trkpt lat="46.0213512" lon="13.4844187"><ele>96.0</ele><time>2026-05-03T10:10:21.223Z</time></trkpt><trkpt lat="46.0214194" lon="13.484543"><ele>96.0</ele><time>2026-05-03T10:10:22.223Z</time></trkpt><trkpt lat="46.0214774" lon="13.4846934"><ele>96.0</ele><time>2026-05-03T10:10:23.223Z</time></trkpt><trkpt lat="46.0215291" lon="13.4848535"><ele>96.0</ele><time>2026-05-03T10:10:24.223Z</time></trkpt><trkpt lat="46.0215959" lon="13.4849994"><ele>98.75</ele><time>2026-05-03T10:10:25.223Z</time></trkpt><trkpt lat="46.0216889" lon="13.4851201"><ele>101.5</ele><time>2026-05-03T10:10:26.223Z</time></trkpt><trkpt lat="46.0217978" lon="13.4852232"><ele>104.25</ele><time>2026-05-03T10:10:27.223Z</time></trkpt><trkpt lat="46.0219181" lon="13.4853364"><ele>107.0</ele><time>2026-05-03T10:10:28.223Z</time></trkpt><trkpt lat="46.0220313" lon="13.4854627"><ele>107.0</ele><time>2026-05-03T10:10:29.223Z</time></trkpt><trkpt lat="46.0221379" lon="13.4855794"><ele>107.0</ele><time>2026-05-03T10:10:30.223Z</time></trkpt><trkpt lat="46.0222378" lon="13.4856722"><ele>107.0</ele><time>2026-05-03T10:10:31.223Z</time></trkpt><trkpt lat="46.0223466" lon="13.4857314"><ele>107.0</ele><time>2026-05-03T10:10:32.223Z</time></trkpt><trkpt lat="46.02247" lon="13.4857655"><ele>110.25</ele><time>2026-05-03T10:10:33.223Z</time></trkpt><trkpt lat="46.0226028" lon="13.4857914"><ele>113.5</ele><time>2026-05-03T10:10:34.223Z</time></trkpt><trkpt lat="46.0227397" lon="13.4858369"><ele>116.75</ele><time>2026-05-03T10:10:35.223Z</time></trkpt><trkpt lat="46.0228714" lon="13.4859154"><ele>120.0</ele><time>2026-05-03T10:10:36.223Z</time></trkpt><trkpt lat="46.0229955" lon="13.4860141"><ele>120.0</ele><time>2026-05-03T10:10:37.223Z</time></trkpt><trkpt lat="46.0231042" lon="13.4861423"><ele>120.0</ele><time>2026-05-03T10:10:38.223Z</time></trkpt><trkpt lat="46.023187" lon="13.486278"><ele>120.0</ele><time>2026-05-03T10:10:39.222Z</time></trkpt><trkpt lat="46.0232634" lon="13.4863819"><ele>120.0</ele><time>2026-05-03T10:10:40.222Z</time></trkpt><trkpt lat="46.0233478" lon="13.486457"><ele>122.2</ele><time>2026-05-03T10:10:41.222Z</time></trkpt><trkpt lat="46.0234344" lon="13.4865069"><ele>124.4</ele><time>2026-05-03T10:10:42.222Z</time></trkpt><trkpt lat="46.0235191" lon="13.4865351"><ele>126.6</ele><time>2026-05-03T10:10:43.222Z</time></trkpt><trkpt lat="46.0236009" lon="13.4865615"><ele>128.8</ele><time>2026-05-03T10:10:44.222Z</time></trkpt><trkpt lat="46.0236916" lon="13.486607"><ele>131.0</ele><time>2026-05-03T10:10:45.222Z</time></trkpt><trkpt lat="46.0237894" lon="13.4866787"><ele>131.0</ele><time>2026-05-03T10:10:46.222Z</time></trkpt><trkpt lat="46.0238923" lon="13.4867657"><ele>131.0</ele><time>2026-05-03T10:10:47.222Z</time></trkpt><trkpt lat="46.0239977" lon="13.4868577"><ele>131.0</ele><time>2026-05-03T10:10:48.222Z</time></trkpt><trkpt lat="46.0241118" lon="13.486938"><ele>131.0</ele><time>2026-05-03T10:10:49.222Z</time></trkpt><trkpt lat="46.0242297" lon="13.487029"><ele>129.75</ele><time>2026-05-03T10:10:50.222Z</time></trkpt><trkpt lat="46.0243319" lon="13.4871184"><ele>128.5</ele><time>2026-05-03T10:10:51.222Z</time></trkpt><trkpt lat="46.0244309" lon="13.487225"><ele>127.25</ele><time>2026-05-03T10:10:52.222Z</time></trkpt><trkpt lat="46.0245124" lon="13.4873455"><ele>126.0</ele><time>2026-05-03T10:10:53.222Z</time></trkpt><trkpt lat="46.0245932" lon="13.4874628"><ele>126.0</ele><time>2026-05-03T10:10:54.222Z</time></trkpt><trkpt lat="46.0246777" lon="13.4875681"><ele>126.0</ele><time>2026-05-03T10:10:55.222Z</time></trkpt><trkpt lat="46.0247711" lon="13.4876533"><ele>126.0</ele><time>2026-05-03T10:10:56.222Z</time></trkpt><trkpt lat="46.0248692" lon="13.4877143"><ele>126.0</ele><time>2026-05-03T10:10:57.222Z</time></trkpt><trkpt lat="46.0249733" lon="13.4877788"><ele>126.0</ele><time>2026-05-03T10:10:58.222Z</time></trkpt><trkpt lat="46.02508" lon="13.4878679"><ele>131.0</ele><time>2026-05-03T10:10:59.223Z</time></trkpt><trkpt lat="46.025173" lon="13.4879828"><ele>136.0</ele><time>2026-05-03T10:11:00.222Z</time></trkpt><trkpt lat="46.0252505" lon="13.4881135"><ele>141.0</ele><time>2026-05-03T10:11:01.222Z</time></trkpt><trkpt lat="46.0253186" lon="13.4882345"><ele>146.0</ele><time>2026-05-03T10:11:02.222Z</time></trkpt><trkpt lat="46.0253986" lon="13.4883322"><ele>146.0</ele><time>2026-05-03T10:11:03.222Z</time></trkpt><trkpt lat="46.0254886" lon="13.4883902"><ele>146.0</ele><time>2026-05-03T10:11:04.222Z</time></trkpt><trkpt lat="46.02559" lon="13.488418"><ele>146.0</ele><time>2026-05-03T10:11:05.222Z</time></trkpt><trkpt lat="46.0257103" lon="13.4884172"><ele>146.0</ele><time>2026-05-03T10:11:06.222Z</time></trkpt><trkpt lat="46.0258312" lon="13.4884028"><ele>146.0</ele><time>2026-05-03T10:11:07.222Z</time></trkpt><trkpt lat="46.0259405" lon="13.4883894"><ele>148.5</ele><time>2026-05-03T10:11:08.222Z</time></trkpt><trkpt lat="46.0260396" lon="13.4884034"><ele>151.0</ele><time>2026-05-03T10:11:09.222Z</time></trkpt><trkpt lat="46.0261164" lon="13.488458"><ele>153.5</ele><time>2026-05-03T10:11:10.222Z</time></trkpt><trkpt lat="46.0261664" lon="13.4885385"><ele>156.0</ele><time>2026-05-03T10:11:11.222Z</time></trkpt><trkpt lat="46.0262025" lon="13.4886441"><ele>158.5</ele><time>2026-05-03T10:11:12.222Z</time></trkpt><trkpt lat="46.0262474" lon="13.48877"><ele>161.0</ele><time>2026-05-03T10:11:13.222Z</time></trkpt><trkpt lat="46.0263028" lon="13.4889034"><ele>161.4</ele><time>2026-05-03T10:11:14.222Z</time></trkpt><trkpt lat="46.0263491" lon="13.4890524"><ele>161.8</ele><time>2026-05-03T10:11:15.222Z</time></trkpt><trkpt lat="46.0263877" lon="13.4892018"><ele>162.20000000000002</ele><time>2026-05-03T10:11:16.222Z</time></trkpt><trkpt lat="46.0264102" lon="13.4893451"><ele>162.60000000000002</ele><time>2026-05-03T10:11:17.223Z</time></trkpt><trkpt lat="46.0264469" lon="13.4894603"><ele>163.0</ele><time>2026-05-03T10:11:18.222Z</time></trkpt><trkpt lat="46.0265132" lon="13.4895574"><ele>161.5</ele><time>2026-05-03T10:11:19.222Z</time></trkpt><trkpt lat="46.0266048" lon="13.4896447"><ele>160.0</ele><time>2026-05-03T10:11:20.222Z</time></trkpt><trkpt lat="46.0267058" lon="13.4897498"><ele>158.5</ele><time>2026-05-03T10:11:21.222Z</time></trkpt><trkpt lat="46.026809" lon="13.4898831"><ele>157.0</ele><time>2026-05-03T10:11:22.222Z</time></trkpt><trkpt lat="46.0269089" lon="13.4900354"><ele>161.5</ele><time>2026-05-03T10:11:23.222Z</time></trkpt><trkpt lat="46.0270129" lon="13.4901879"><ele>166.0</ele><time>2026-05-03T10:11:24.222Z</time></trkpt><trkpt lat="46.0271213" lon="13.4903313"><ele>170.5</ele><time>2026-05-03T10:11:25.222Z</time></trkpt><trkpt lat="46.0272286" lon="13.4904688"><ele>175.0</ele><time>2026-05-03T10:11:26.222Z</time></trkpt><trkpt lat="46.027334" lon="13.4906044"><ele>175.0</ele><time>2026-05-03T10:11:27.222Z</time></trkpt><trkpt lat="46.0274355" lon="13.4907478"><ele>175.0</ele><time>2026-05-03T10:11:28.222Z</time></trkpt><trkpt lat="46.0275374" lon="13.4908825"><ele>175.0</ele><time>2026-05-03T10:11:29.223Z</time></trkpt><trkpt lat="46.0276411" lon="13.4910295"><ele>175.0</ele><time>2026-05-03T10:11:30.222Z</time></trkpt><trkpt lat="46.0277547" lon="13.4911876"><ele>180.75</ele><time>2026-05-03T10:11:31.222Z</time></trkpt><trkpt lat="46.027851" lon="13.4913562"><ele>186.5</ele><time>2026-05-03T10:11:32.222Z</time></trkpt><trkpt lat="46.0279439" lon="13.4915134"><ele>192.25</ele><time>2026-05-03T10:11:33.222Z</time></trkpt><trkpt lat="46.0280469" lon="13.491636"><ele>198.0</ele><time>2026-05-03T10:11:34.222Z</time></trkpt><trkpt lat="46.0281647" lon="13.4917381"><ele>198.0</ele><time>2026-05-03T10:11:35.222Z</time></trkpt><trkpt lat="46.0282863" lon="13.4918378"><ele>198.0</ele><time>2026-05-03T10:11:36.222Z</time></trkpt><trkpt lat="46.0284008" lon="13.491949"><ele>198.0</ele><time>2026-05-03T10:11:37.222Z</time></trkpt><trkpt lat="46.0285067" lon="13.4920736"><ele>198.0</ele><time>2026-05-03T10:11:38.222Z</time></trkpt><trkpt lat="46.028616" lon="13.4921908"><ele>204.25</ele><time>2026-05-03T10:11:39.222Z</time></trkpt><trkpt lat="46.0287322" lon="13.4922934"><ele>210.5</ele><time>2026-05-03T10:11:40.222Z</time></trkpt><trkpt lat="46.0288599" lon="13.492375"><ele>216.75</ele><time>2026-05-03T10:11:41.222Z</time></trkpt><trkpt lat="46.0289964" lon="13.4924497"><ele>223.0</ele><time>2026-05-03T10:11:42.222Z</time></trkpt><trkpt lat="46.0291246" lon="13.492514"><ele>225.0</ele><time>2026-05-03T10:11:43.222Z</time></trkpt><trkpt lat="46.0292425" lon="13.4925988"><ele>227.0</ele><time>2026-05-03T10:11:44.222Z</time></trkpt><trkpt lat="46.0293261" lon="13.4927069"><ele>229.0</ele><time>2026-05-03T10:11:45.222Z</time></trkpt><trkpt lat="46.0293683" lon="13.492845"><ele>231.0</ele><time>2026-05-03T10:11:46.222Z</time></trkpt><trkpt lat="46.0293817" lon="13.4929583"><ele>233.0</ele><time>2026-05-03T10:11:47.222Z</time></trkpt><trkpt lat="46.0293467" lon="13.4930617"><ele>234.0</ele><time>2026-05-03T10:11:48.222Z</time></trkpt><trkpt lat="46.0292783" lon="13.493155"><ele>235.0</ele><time>2026-05-03T10:11:49.222Z</time></trkpt><trkpt lat="46.0291967" lon="13.4932483"><ele>236.0</ele><time>2026-05-03T10:11:50.222Z</time></trkpt><trkpt lat="46.0290933" lon="13.493365"><ele>237.0</ele><time>2026-05-03T10:11:51.222Z</time></trkpt><trkpt lat="46.0289883" lon="13.4934933"><ele>236.0</ele><time>2026-05-03T10:11:52.222Z</time></trkpt><trkpt lat="46.0289083" lon="13.49365"><ele>235.0</ele><time>2026-05-03T10:11:53.222Z</time></trkpt><trkpt lat="46.0288583" lon="13.49381"><ele>234.0</ele><time>2026-05-03T10:11:54.223Z</time></trkpt><trkpt lat="46.0288383" lon="13.4939867"><ele>233.0</ele><time>2026-05-03T10:11:55.222Z</time></trkpt><trkpt lat="46.02882" lon="13.4941683"><ele>233.0</ele><time>2026-05-03T10:11:56.222Z</time></trkpt><trkpt lat="46.0287967" lon="13.49435"><ele>233.0</ele><time>2026-05-03T10:11:57.222Z</time></trkpt><trkpt lat="46.02875" lon="13.4945083"><ele>233.0</ele><time>2026-05-03T10:11:58.222Z</time></trkpt><trkpt lat="46.0286867" lon="13.4946483"><ele>233.0</ele><time>2026-05-03T10:11:59.222Z</time></trkpt><trkpt lat="46.0286267" lon="13.4947867"><ele>234.5</ele><time>2026-05-03T10:12:00.222Z</time></trkpt><trkpt lat="46.02859" lon="13.4949283"><ele>236.0</ele><time>2026-05-03T10:12:01.222Z</time></trkpt><trkpt lat="46.0285833" lon="13.4950767"><ele>237.5</ele><time>2026-05-03T10:12:02.222Z</time></trkpt><trkpt lat="46.0285917" lon="13.4952417"><ele>239.0</ele><time>2026-05-03T10:12:03.222Z</time></trkpt><trkpt lat="46.0286117" lon="13.4954267"><ele>239.0</ele><time>2026-05-03T10:12:04.222Z</time></trkpt><trkpt lat="46.0286267" lon="13.4956017"><ele>239.0</ele><time>2026-05-03T10:12:05.222Z</time></trkpt><trkpt lat="46.0286433" lon="13.4957833"><ele>239.0</ele><time>2026-05-03T10:12:06.222Z</time></trkpt><trkpt lat="46.0286517" lon="13.4959583"><ele>239.0</ele><time>2026-05-03T10:12:07.222Z</time></trkpt><trkpt lat="46.0286633" lon="13.4961167"><ele>240.79999999999998</ele><time>2026-05-03T10:12:08.222Z</time></trkpt><trkpt lat="46.028655" lon="13.49626"><ele>242.59999999999997</ele><time>2026-05-03T10:12:09.222Z</time></trkpt><trkpt lat="46.0286317" lon="13.4964017"><ele>244.4</ele><time>2026-05-03T10:12:10.222Z</time></trkpt><trkpt lat="46.0285867" lon="13.49653"><ele>246.2</ele><time>2026-05-03T10:12:11.222Z</time></trkpt><trkpt lat="46.0285067" lon="13.4966217"><ele>248.0</ele><time>2026-05-03T10:12:12.222Z</time></trkpt><trkpt lat="46.0283983" lon="13.4966817"><ele>244.4</ele><time>2026-05-03T10:12:13.222Z</time></trkpt><trkpt lat="46.028295" lon="13.4967367"><ele>240.8</ele><time>2026-05-03T10:12:14.222Z</time></trkpt><trkpt lat="46.0282117" lon="13.4968083"><ele>237.2</ele><time>2026-05-03T10:12:15.222Z</time></trkpt><trkpt lat="46.0281533" lon="13.496915"><ele>233.6</ele><time>2026-05-03T10:12:16.222Z</time></trkpt><trkpt lat="46.0281383" lon="13.4970383"><ele>230.0</ele><time>2026-05-03T10:12:17.222Z</time></trkpt><trkpt lat="46.02815" lon="13.497185"><ele>228.75</ele><time>2026-05-03T10:12:18.222Z</time></trkpt><trkpt lat="46.02818" lon="13.4973433"><ele>227.5</ele><time>2026-05-03T10:12:19.222Z</time></trkpt><trkpt lat="46.028205" lon="13.49751"><ele>226.25</ele><time>2026-05-03T10:12:20.222Z</time></trkpt><trkpt lat="46.0282233" lon="13.4977033"><ele>225.0</ele><time>2026-05-03T10:12:21.222Z</time></trkpt><trkpt lat="46.0282433" lon="13.4979033"><ele>224.25</ele><time>2026-05-03T10:12:22.222Z</time></trkpt><trkpt lat="46.0282667" lon="13.4981117"><ele>223.5</ele><time>2026-05-03T10:12:23.222Z</time></trkpt><trkpt lat="46.0283067" lon="13.4983033"><ele>222.75</ele><time>2026-05-03T10:12:24.222Z</time></trkpt><trkpt lat="46.02836" lon="13.49848"><ele>222.0</ele><time>2026-05-03T10:12:25.222Z</time></trkpt><trkpt lat="46.02842" lon="13.4986483"><ele>227.25</ele><time>2026-05-03T10:12:26.222Z</time></trkpt><trkpt lat="46.0284717" lon="13.4988133"><ele>232.5</ele><time>2026-05-03T10:12:27.223Z</time></trkpt><trkpt lat="46.02853" lon="13.4989783"><ele>237.75</ele><time>2026-05-03T10:12:28.222Z</time></trkpt><trkpt lat="46.0285767" lon="13.4991133"><ele>243.0</ele><time>2026-05-03T10:12:29.222Z</time></trkpt><trkpt lat="46.0286417" lon="13.499215"><ele>243.0</ele><time>2026-05-03T10:12:30.222Z</time></trkpt><trkpt lat="46.0287317" lon="13.4992867"><ele>243.0</ele><time>2026-05-03T10:12:31.222Z</time></trkpt><trkpt lat="46.0288233" lon="13.499355"><ele>243.0</ele><time>2026-05-03T10:12:32.222Z</time></trkpt><trkpt lat="46.0288883" lon="13.4994567"><ele>243.0</ele><time>2026-05-03T10:12:33.222Z</time></trkpt><trkpt lat="46.0289183" lon="13.4995933"><ele>243.0</ele><time>2026-05-03T10:12:34.222Z</time></trkpt><trkpt lat="46.02893" lon="13.4997533"><ele>241.0</ele><time>2026-05-03T10:12:35.222Z</time></trkpt><trkpt lat="46.028935" lon="13.4999133"><ele>239.0</ele><time>2026-05-03T10:12:36.222Z</time></trkpt><trkpt lat="46.0289567" lon="13.5000667"><ele>237.0</ele><time>2026-05-03T10:12:37.222Z</time></trkpt><trkpt lat="46.0290083" lon="13.5002283"><ele>235.0</ele><time>2026-05-03T10:12:38.222Z</time></trkpt><trkpt lat="46.02907" lon="13.5003783"><ele>233.6</ele><time>2026-05-03T10:12:39.222Z</time></trkpt><trkpt lat="46.02913" lon="13.500505"><ele>232.2</ele><time>2026-05-03T10:12:40.223Z</time></trkpt><trkpt lat="46.0291883" lon="13.5006383"><ele>230.8</ele><time>2026-05-03T10:12:41.222Z</time></trkpt><trkpt lat="46.029225" lon="13.50078"><ele>229.4</ele><time>2026-05-03T10:12:42.222Z</time></trkpt><trkpt lat="46.029255" lon="13.5009"><ele>228.0</ele><time>2026-05-03T10:12:43.222Z</time></trkpt><trkpt lat="46.0293033" lon="13.50101"><ele>228.0</ele><time>2026-05-03T10:12:44.222Z</time></trkpt><trkpt lat="46.029375" lon="13.501095"><ele>228.0</ele><time>2026-05-03T10:12:45.223Z</time></trkpt><trkpt lat="46.0294733" lon="13.501135"><ele>228.0</ele><time>2026-05-03T10:12:46.222Z</time></trkpt><trkpt lat="46.0295883" lon="13.5011383"><ele>228.0</ele><time>2026-05-03T10:12:47.223Z</time></trkpt><trkpt lat="46.0297117" lon="13.501135"><ele>228.0</ele><time>2026-05-03T10:12:48.222Z</time></trkpt><trkpt lat="46.0298283" lon="13.5011267"><ele>228.0</ele><time>2026-05-03T10:12:49.222Z</time></trkpt><trkpt lat="46.029945" lon="13.5010983"><ele>228.0</ele><time>2026-05-03T10:12:50.222Z</time></trkpt><trkpt lat="46.0300583" lon="13.5010817"><ele>228.0</ele><time>2026-05-03T10:12:51.222Z</time></trkpt><trkpt lat="46.0301633" lon="13.5010983"><ele>228.0</ele><time>2026-05-03T10:12:52.222Z</time></trkpt><trkpt lat="46.0302733" lon="13.5011667"><ele>225.0</ele><time>2026-05-03T10:12:53.222Z</time></trkpt><trkpt lat="46.030385" lon="13.5012417"><ele>222.0</ele><time>2026-05-03T10:12:54.222Z</time></trkpt><trkpt lat="46.0305017" lon="13.5013"><ele>219.0</ele><time>2026-05-03T10:12:55.222Z</time></trkpt><trkpt lat="46.0306117" lon="13.5013483"><ele>216.0</ele><time>2026-05-03T10:12:56.222Z</time></trkpt><trkpt lat="46.0306983" lon="13.5014233"><ele>214.66666666666666</ele><time>2026-05-03T10:12:57.222Z</time></trkpt><trkpt lat="46.0307567" lon="13.5015033"><ele>213.33333333333331</ele><time>2026-05-03T10:12:58.222Z</time></trkpt><trkpt lat="46.0308033" lon="13.5015867"><ele>212.0</ele><time>2026-05-03T10:12:59.222Z</time></trkpt><trkpt lat="46.0308533" lon="13.5016617"><ele>210.66666666666666</ele><time>2026-05-03T10:13:00.222Z</time></trkpt><trkpt lat="46.0309167" lon="13.5017233"><ele>209.33333333333331</ele><time>2026-05-03T10:13:01.222Z</time></trkpt><trkpt lat="46.0310033" lon="13.5017783"><ele>208.0</ele><time>2026-05-03T10:13:02.222Z</time></trkpt><trkpt lat="46.0311117" lon="13.5018417"><ele>206.5</ele><time>2026-05-03T10:13:03.222Z</time></trkpt><trkpt lat="46.0312317" lon="13.5019117"><ele>205.0</ele><time>2026-05-03T10:13:04.222Z</time></trkpt><trkpt lat="46.031345" lon="13.5020067"><ele>203.5</ele><time>2026-05-03T10:13:05.222Z</time></trkpt><trkpt lat="46.0314383" lon="13.5021333"><ele>202.0</ele><time>2026-05-03T10:13:06.222Z</time></trkpt><trkpt lat="46.0314983" lon="13.502285"><ele>201.75</ele><time>2026-05-03T10:13:07.222Z</time></trkpt><trkpt lat="46.0315483" lon="13.502455"><ele>201.5</ele><time>2026-05-03T10:13:08.222Z</time></trkpt><trkpt lat="46.031605" lon="13.5026117"><ele>201.25</ele><time>2026-05-03T10:13:09.222Z</time></trkpt><trkpt lat="46.0316783" lon="13.5027467"><ele>201.0</ele><time>2026-05-03T10:13:10.222Z</time></trkpt><trkpt lat="46.031785" lon="13.5028583"><ele>198.5</ele><time>2026-05-03T10:13:11.222Z</time></trkpt><trkpt lat="46.0318933" lon="13.5029517"><ele>196.0</ele><time>2026-05-03T10:13:12.222Z</time></trkpt><trkpt lat="46.032015" lon="13.50304"><ele>193.5</ele><time>2026-05-03T10:13:13.222Z</time></trkpt><trkpt lat="46.0321383" lon="13.5031267"><ele>191.0</ele><time>2026-05-03T10:13:14.222Z</time></trkpt><trkpt lat="46.03225" lon="13.50323"><ele>191.0</ele><time>2026-05-03T10:13:15.222Z</time></trkpt><trkpt lat="46.03234" lon="13.5033667"><ele>191.0</ele><time>2026-05-03T10:13:16.222Z</time></trkpt><trkpt lat="46.0324183" lon="13.5035283"><ele>191.0</ele><time>2026-05-03T10:13:17.222Z</time></trkpt><trkpt lat="46.03249" lon="13.5037017"><ele>191.0</ele><time>2026-05-03T10:13:18.222Z</time></trkpt><trkpt lat="46.0325567" lon="13.5038667"><ele>193.0</ele><time>2026-05-03T10:13:19.222Z</time></trkpt><trkpt lat="46.0326283" lon="13.5040233"><ele>195.0</ele><time>2026-05-03T10:13:20.222Z</time></trkpt><trkpt lat="46.0326933" lon="13.5041667"><ele>197.0</ele><time>2026-05-03T10:13:21.222Z</time></trkpt><trkpt lat="46.0327867" lon="13.5042967"><ele>199.0</ele><time>2026-05-03T10:13:22.222Z</time></trkpt><trkpt lat="46.0328833" lon="13.5044083"><ele>199.0</ele><time>2026-05-03T10:13:23.222Z</time></trkpt><trkpt lat="46.03299" lon="13.50451"><ele>199.0</ele><time>2026-05-03T10:13:24.223Z</time></trkpt><trkpt lat="46.0331033" lon="13.5046017"><ele>199.0</ele><time>2026-05-03T10:13:25.222Z</time></trkpt><trkpt lat="46.0332017" lon="13.504705"><ele>199.0</ele><time>2026-05-03T10:13:26.222Z</time></trkpt><trkpt lat="46.0333017" lon="13.50479"><ele>200.0</ele><time>2026-05-03T10:13:27.222Z</time></trkpt><trkpt lat="46.0334017" lon="13.50485"><ele>201.0</ele><time>2026-05-03T10:13:28.222Z</time></trkpt><trkpt lat="46.033495" lon="13.5049033"><ele>202.0</ele><time>2026-05-03T10:13:29.222Z</time></trkpt><trkpt lat="46.0335833" lon="13.5049533"><ele>203.0</ele><time>2026-05-03T10:13:30.222Z</time></trkpt><trkpt lat="46.03366" lon="13.5050017"><ele>204.0</ele><time>2026-05-03T10:13:31.222Z</time></trkpt><trkpt lat="46.0337383" lon="13.50505"><ele>204.0</ele><time>2026-05-03T10:13:32.222Z</time></trkpt><trkpt lat="46.0338" lon="13.5050883"><ele>204.0</ele><time>2026-05-03T10:13:33.222Z</time></trkpt><trkpt lat="46.0338867" lon="13.5050483"><ele>204.0</ele><time>2026-05-03T10:13:35.222Z</time></trkpt><trkpt lat="46.033935" lon="13.5049867"><ele>204.0</ele><time>2026-05-03T10:13:36.222Z</time></trkpt><trkpt lat="46.0339983" lon="13.5049083"><ele>204.0</ele><time>2026-05-03T10:13:37.222Z</time></trkpt><trkpt lat="46.0340833" lon="13.5048267"><ele>204.0</ele><time>2026-05-03T10:13:38.222Z</time></trkpt><trkpt lat="46.0341567" lon="13.50472"><ele>203.33333333333334</ele><time>2026-05-03T10:13:39.222Z</time></trkpt><trkpt lat="46.0342217" lon="13.5046033"><ele>202.66666666666669</ele><time>2026-05-03T10:13:40.222Z</time></trkpt><trkpt lat="46.0342867" lon="13.50451"><ele>202.0</ele><time>2026-05-03T10:13:41.222Z</time></trkpt><trkpt lat="46.0343433" lon="13.5044533"><ele>201.33333333333334</ele><time>2026-05-03T10:13:42.222Z</time></trkpt><trkpt lat="46.0344117" lon="13.5044433"><ele>200.66666666666669</ele><time>2026-05-03T10:13:43.222Z</time></trkpt><trkpt lat="46.0344917" lon="13.50447"><ele>200.0</ele><time>2026-05-03T10:13:44.222Z</time></trkpt><trkpt lat="46.0345867" lon="13.5045233"><ele>200.0</ele><time>2026-05-03T10:13:45.222Z</time></trkpt><trkpt lat="46.0347117" lon="13.50456"><ele>200.0</ele><time>2026-05-03T10:13:46.222Z</time></trkpt><trkpt lat="46.0348283" lon="13.5045917"><ele>200.0</ele><time>2026-05-03T10:13:47.222Z</time></trkpt><trkpt lat="46.0349483" lon="13.504605"><ele>200.0</ele><time>2026-05-03T10:13:48.222Z</time></trkpt><trkpt lat="46.0350667" lon="13.5046133"><ele>198.75</ele><time>2026-05-03T10:13:49.222Z</time></trkpt><trkpt lat="46.035185" lon="13.50459"><ele>197.5</ele><time>2026-05-03T10:13:50.222Z</time></trkpt><trkpt lat="46.0353017" lon="13.5045583"><ele>196.25</ele><time>2026-05-03T10:13:51.222Z</time></trkpt><trkpt lat="46.0354183" lon="13.504545"><ele>195.0</ele><time>2026-05-03T10:13:52.222Z</time></trkpt><trkpt lat="46.03553" lon="13.50453"><ele>195.0</ele><time>2026-05-03T10:13:53.222Z</time></trkpt><trkpt lat="46.0356283" lon="13.50449"><ele>195.0</ele><time>2026-05-03T10:13:54.222Z</time></trkpt><trkpt lat="46.0357083" lon="13.5043967"><ele>195.0</ele><time>2026-05-03T10:13:55.222Z</time></trkpt><trkpt lat="46.0357633" lon="13.5042617"><ele>195.0</ele><time>2026-05-03T10:13:56.222Z</time></trkpt><trkpt lat="46.0358083" lon="13.504095"><ele>195.0</ele><time>2026-05-03T10:13:57.222Z</time></trkpt><trkpt lat="46.035865" lon="13.50393"><ele>196.4</ele><time>2026-05-03T10:13:58.222Z</time></trkpt><trkpt lat="46.035925" lon="13.50378"><ele>197.8</ele><time>2026-05-03T10:13:59.222Z</time></trkpt><trkpt lat="46.035985" lon="13.503655"><ele>199.2</ele><time>2026-05-03T10:14:00.222Z</time></trkpt><trkpt lat="46.03603" lon="13.5035583"><ele>200.6</ele><time>2026-05-03T10:14:01.222Z</time></trkpt><trkpt lat="46.0360733" lon="13.5034783"><ele>202.0</ele><time>2026-05-03T10:14:02.222Z</time></trkpt><trkpt lat="46.0361617" lon="13.5034083"><ele>202.0</ele><time>2026-05-03T10:14:04.222Z</time></trkpt><trkpt lat="46.0362483" lon="13.5034367"><ele>202.0</ele><time>2026-05-03T10:14:06.222Z</time></trkpt><trkpt lat="46.0363467" lon="13.5035333"><ele>202.0</ele><time>2026-05-03T10:14:08.222Z</time></trkpt><trkpt lat="46.03641" lon="13.5036067"><ele>202.0</ele><time>2026-05-03T10:14:09.222Z</time></trkpt><trkpt lat="46.0364767" lon="13.5036967"><ele>202.0</ele><time>2026-05-03T10:14:10.222Z</time></trkpt><trkpt lat="46.036545" lon="13.5037817"><ele>202.0</ele><time>2026-05-03T10:14:11.222Z</time></trkpt><trkpt lat="46.0366117" lon="13.5038817"><ele>202.0</ele><time>2026-05-03T10:14:12.222Z</time></trkpt><trkpt lat="46.0366783" lon="13.5039917"><ele>202.0</ele><time>2026-05-03T10:14:13.222Z</time></trkpt><trkpt lat="46.0367333" lon="13.5041133"><ele>202.0</ele><time>2026-05-03T10:14:14.222Z</time></trkpt><trkpt lat="46.0367867" lon="13.50424"><ele>202.0</ele><time>2026-05-03T10:14:15.222Z</time></trkpt><trkpt lat="46.0368317" lon="13.5043617"><ele>203.57142857142856</ele><time>2026-05-03T10:14:16.222Z</time></trkpt><trkpt lat="46.03687" lon="13.5044833"><ele>205.14285714285714</ele><time>2026-05-03T10:14:17.222Z</time></trkpt><trkpt lat="46.036895" lon="13.504585"><ele>206.71428571428572</ele><time>2026-05-03T10:14:18.222Z</time></trkpt><trkpt lat="46.0369117" lon="13.504695"><ele>208.28571428571428</ele><time>2026-05-03T10:14:19.222Z</time></trkpt><trkpt lat="46.03692" lon="13.5048"><ele>209.85714285714286</ele><time>2026-05-03T10:14:20.222Z</time></trkpt><trkpt lat="46.03694" lon="13.5048867"><ele>211.42857142857142</ele><time>2026-05-03T10:14:21.222Z</time></trkpt><trkpt lat="46.036975" lon="13.5049667"><ele>213.0</ele><time>2026-05-03T10:14:22.222Z</time></trkpt><trkpt lat="46.03703" lon="13.5050217"><ele>213.4</ele><time>2026-05-03T10:14:23.222Z</time></trkpt><trkpt lat="46.0371183" lon="13.5050417"><ele>213.8</ele><time>2026-05-03T10:14:24.222Z</time></trkpt><trkpt lat="46.0372183" lon="13.50504"><ele>214.2</ele><time>2026-05-03T10:14:25.222Z</time></trkpt><trkpt lat="46.037335" lon="13.5050367"><ele>214.6</ele><time>2026-05-03T10:14:26.222Z</time></trkpt><trkpt lat="46.0374433" lon="13.50504"><ele>215.0</ele><time>2026-05-03T10:14:27.222Z</time></trkpt><trkpt lat="46.0375417" lon="13.5050483"><ele>215.00000000000003</ele><time>2026-05-03T10:14:28.222Z</time></trkpt><trkpt lat="46.0376233" lon="13.5050467"><ele>215.0</ele><time>2026-05-03T10:14:29.222Z</time></trkpt><trkpt lat="46.0376933" lon="13.505025"><ele>215.0</ele><time>2026-05-03T10:14:30.222Z</time></trkpt><trkpt lat="46.0377667" lon="13.5050033"><ele>215.0</ele><time>2026-05-03T10:14:31.222Z</time></trkpt><trkpt lat="46.0378383" lon="13.5049933"><ele>215.00000000000003</ele><time>2026-05-03T10:14:32.222Z</time></trkpt><trkpt lat="46.03796" lon="13.5050583"><ele>215.0</ele><time>2026-05-03T10:14:34.222Z</time></trkpt><trkpt lat="46.0380133" lon="13.5051417"><ele>215.0</ele><time>2026-05-03T10:14:35.222Z</time></trkpt><trkpt lat="46.038065" lon="13.5052483"><ele>215.0</ele><time>2026-05-03T10:14:36.222Z</time></trkpt><trkpt lat="46.03812" lon="13.5053667"><ele>215.0</ele><time>2026-05-03T10:14:37.222Z</time></trkpt><trkpt lat="46.0381767" lon="13.5054667"><ele>215.0</ele><time>2026-05-03T10:14:38.222Z</time></trkpt><trkpt lat="46.0382417" lon="13.5055633"><ele>215.0</ele><time>2026-05-03T10:14:39.222Z</time></trkpt><trkpt lat="46.0383233" lon="13.5056433"><ele>218.2</ele><time>2026-05-03T10:14:40.222Z</time></trkpt><trkpt lat="46.0384067" lon="13.5057217"><ele>221.4</ele><time>2026-05-03T10:14:41.222Z</time></trkpt><trkpt lat="46.0384967" lon="13.5058017"><ele>224.60000000000002</ele><time>2026-05-03T10:14:42.222Z</time></trkpt><trkpt lat="46.038565" lon="13.50587"><ele>227.8</ele><time>2026-05-03T10:14:43.222Z</time></trkpt><trkpt lat="46.0386283" lon="13.5059533"><ele>231.0</ele><time>2026-05-03T10:14:44.222Z</time></trkpt><trkpt lat="46.0386967" lon="13.50603"><ele>231.0</ele><time>2026-05-03T10:14:45.222Z</time></trkpt><trkpt lat="46.0387667" lon="13.5060983"><ele>231.0</ele><time>2026-05-03T10:14:46.222Z</time></trkpt><trkpt lat="46.0388483" lon="13.5061467"><ele>231.0</ele><time>2026-05-03T10:14:47.222Z</time></trkpt><trkpt lat="46.0389217" lon="13.506185"><ele>231.0</ele><time>2026-05-03T10:14:48.222Z</time></trkpt><trkpt lat="46.0389933" lon="13.5061833"><ele>231.0</ele><time>2026-05-03T10:14:49.222Z</time></trkpt><trkpt lat="46.0390583" lon="13.5061017"><ele>231.0</ele><time>2026-05-03T10:14:50.222Z</time></trkpt><trkpt lat="46.0391367" lon="13.5060317"><ele>231.0</ele><time>2026-05-03T10:14:51.222Z</time></trkpt><trkpt lat="46.0392167" lon="13.5059617"><ele>231.00000000000003</ele><time>2026-05-03T10:14:52.222Z</time></trkpt><trkpt lat="46.0392933" lon="13.5058817"><ele>231.00000000000003</ele><time>2026-05-03T10:14:53.222Z</time></trkpt><trkpt lat="46.0393583" lon="13.5057867"><ele>231.0</ele><time>2026-05-03T10:14:54.222Z</time></trkpt><trkpt lat="46.039415" lon="13.5056683"><ele>231.0</ele><time>2026-05-03T10:14:55.222Z</time></trkpt><trkpt lat="46.0394733" lon="13.5055467"><ele>227.0</ele><time>2026-05-03T10:14:56.222Z</time></trkpt><trkpt lat="46.0395117" lon="13.50541"><ele>223.00000000000003</ele><time>2026-05-03T10:14:57.222Z</time></trkpt><trkpt lat="46.03956" lon="13.5052883"><ele>219.0</ele><time>2026-05-03T10:14:58.222Z</time></trkpt><trkpt lat="46.0395883" lon="13.50514"><ele>215.0</ele><time>2026-05-03T10:14:59.222Z</time></trkpt><trkpt lat="46.03963" lon="13.504995"><ele>211.0</ele><time>2026-05-03T10:15:00.222Z</time></trkpt><trkpt lat="46.039675" lon="13.5049033"><ele>210.99999999999997</ele><time>2026-05-03T10:15:01.222Z</time></trkpt><trkpt lat="46.0397417" lon="13.504855"><ele>211.0</ele><time>2026-05-03T10:15:03.222Z</time></trkpt><trkpt lat="46.0398117" lon="13.5048717"><ele>211.0</ele><time>2026-05-03T10:15:52.221Z</time></trkpt><trkpt lat="46.0397817" lon="13.5050067"><ele>211.0</ele><time>2026-05-03T10:15:55.221Z</time></trkpt><trkpt lat="46.0397183" lon="13.5051467"><ele>210.99999999999997</ele><time>2026-05-03T10:15:57.221Z</time></trkpt><trkpt lat="46.0396717" lon="13.505255"><ele>211.0</ele><time>2026-05-03T10:15:58.221Z</time></trkpt><trkpt lat="46.0396333" lon="13.5053583"><ele>214.33333333333331</ele><time>2026-05-03T10:15:59.221Z</time></trkpt><trkpt lat="46.039585" lon="13.5054817"><ele>217.66666666666666</ele><time>2026-05-03T10:16:00.221Z</time></trkpt><trkpt lat="46.039545" lon="13.50559"><ele>221.0</ele><time>2026-05-03T10:16:01.221Z</time></trkpt><trkpt lat="46.0395083" lon="13.5057033"><ele>224.33333333333331</ele><time>2026-05-03T10:16:02.221Z</time></trkpt><trkpt lat="46.03948" lon="13.505825"><ele>227.66666666666666</ele><time>2026-05-03T10:16:03.221Z</time></trkpt><trkpt lat="46.039455" lon="13.5059483"><ele>231.0</ele><time>2026-05-03T10:16:04.221Z</time></trkpt><trkpt lat="46.0394283" lon="13.5060583"><ele>231.0</ele><time>2026-05-03T10:16:05.221Z</time></trkpt><trkpt lat="46.0393917" lon="13.5061683"><ele>231.0</ele><time>2026-05-03T10:16:06.221Z</time></trkpt><trkpt lat="46.0393467" lon="13.5062783"><ele>231.0</ele><time>2026-05-03T10:16:07.221Z</time></trkpt><trkpt lat="46.0392983" lon="13.5063883"><ele>231.0</ele><time>2026-05-03T10:16:08.221Z</time></trkpt><trkpt lat="46.0392417" lon="13.5064967"><ele>231.0</ele><time>2026-05-03T10:16:09.221Z</time></trkpt><trkpt lat="46.0391833" lon="13.5065967"><ele>231.0</ele><time>2026-05-03T10:16:10.221Z</time></trkpt><trkpt lat="46.0391183" lon="13.5066867"><ele>233.33333333333334</ele><time>2026-05-03T10:16:11.221Z</time></trkpt><trkpt lat="46.03905" lon="13.5067533"><ele>235.66666666666669</ele><time>2026-05-03T10:16:12.221Z</time></trkpt><trkpt lat="46.0389933" lon="13.5068167"><ele>238.0</ele><time>2026-05-03T10:16:13.221Z</time></trkpt><trkpt lat="46.0389167" lon="13.5069167"><ele>240.33333333333334</ele><time>2026-05-03T10:16:15.221Z</time></trkpt><trkpt lat="46.0388883" lon="13.5070217"><ele>242.66666666666669</ele><time>2026-05-03T10:16:18.221Z</time></trkpt><trkpt lat="46.03896" lon="13.50703"><ele>245.0</ele><time>2026-05-03T10:16:23.221Z</time></trkpt><trkpt lat="46.0390433" lon="13.5069817"><ele>245.0</ele><time>2026-05-03T10:16:26.221Z</time></trkpt><trkpt lat="46.0391183" lon="13.5069117"><ele>245.0</ele><time>2026-05-03T10:16:28.221Z</time></trkpt><trkpt lat="46.0392083" lon="13.5068017"><ele>245.0</ele><time>2026-05-03T10:16:30.221Z</time></trkpt><trkpt lat="46.03926" lon="13.50673"><ele>245.0</ele><time>2026-05-03T10:16:31.221Z</time></trkpt><trkpt lat="46.0393217" lon="13.5066467"><ele>245.0</ele><time>2026-05-03T10:16:32.221Z</time></trkpt><trkpt lat="46.0393867" lon="13.50655"><ele>246.16666666666669</ele><time>2026-05-03T10:16:33.221Z</time></trkpt><trkpt lat="46.0394483" lon="13.5064733"><ele>247.33333333333334</ele><time>2026-05-03T10:16:34.221Z</time></trkpt><trkpt lat="46.0395067" lon="13.5064017"><ele>248.5</ele><time>2026-05-03T10:16:35.221Z</time></trkpt><trkpt lat="46.0395583" lon="13.5063167"><ele>249.66666666666669</ele><time>2026-05-03T10:16:36.221Z</time></trkpt><trkpt lat="46.0396133" lon="13.5062217"><ele>250.83333333333334</ele><time>2026-05-03T10:16:37.221Z</time></trkpt><trkpt lat="46.0396733" lon="13.506125"><ele>252.0</ele><time>2026-05-03T10:16:38.221Z</time></trkpt><trkpt lat="46.03974" lon="13.5060283"><ele>253.2</ele><time>2026-05-03T10:16:39.221Z</time></trkpt><trkpt lat="46.0398" lon="13.5059267"><ele>254.39999999999998</ele><time>2026-05-03T10:16:40.221Z</time></trkpt><trkpt lat="46.03985" lon="13.5058367"><ele>255.60000000000002</ele><time>2026-05-03T10:16:41.221Z</time></trkpt><trkpt lat="46.0399283" lon="13.5057267"><ele>256.8</ele><time>2026-05-03T10:16:43.221Z</time></trkpt><trkpt lat="46.039995" lon="13.5056467"><ele>258.0</ele><time>2026-05-03T10:16:45.221Z</time></trkpt><trkpt lat="46.0401083" lon="13.5055817"><ele>258.0</ele><time>2026-05-03T10:16:47.221Z</time></trkpt><trkpt lat="46.0401783" lon="13.5055667"><ele>258.0</ele><time>2026-05-03T10:16:48.221Z</time></trkpt><trkpt lat="46.040255" lon="13.50557"><ele>258.0</ele><time>2026-05-03T10:16:49.221Z</time></trkpt><trkpt lat="46.0403383" lon="13.5055767"><ele>258.0</ele><time>2026-05-03T10:16:50.221Z</time></trkpt><trkpt lat="46.0404233" lon="13.5055767"><ele>258.0</ele><time>2026-05-03T10:16:51.221Z</time></trkpt><trkpt lat="46.040495" lon="13.5055967"><ele>258.0</ele><time>2026-05-03T10:16:52.221Z</time></trkpt><trkpt lat="46.0405567" lon="13.5056183"><ele>258.0</ele><time>2026-05-03T10:16:53.221Z</time></trkpt><trkpt lat="46.04062" lon="13.5056583"><ele>258.0</ele><time>2026-05-03T10:16:54.221Z</time></trkpt><trkpt lat="46.0406967" lon="13.5057083"><ele>258.0</ele><time>2026-05-03T10:16:55.221Z</time></trkpt><trkpt lat="46.0407733" lon="13.5057533"><ele>258.0</ele><time>2026-05-03T10:16:56.221Z</time></trkpt><trkpt lat="46.0408667" lon="13.5057833"><ele>258.0</ele><time>2026-05-03T10:16:57.222Z</time></trkpt><trkpt lat="46.0409517" lon="13.505815"><ele>258.0</ele><time>2026-05-03T10:16:58.221Z</time></trkpt><trkpt lat="46.0410367" lon="13.505845"><ele>259.8333333333333</ele><time>2026-05-03T10:16:59.221Z</time></trkpt><trkpt lat="46.0411117" lon="13.5058617"><ele>261.6666666666667</ele><time>2026-05-03T10:17:00.221Z</time></trkpt><trkpt lat="46.041185" lon="13.505875"><ele>263.5</ele><time>2026-05-03T10:17:01.221Z</time></trkpt><trkpt lat="46.04126" lon="13.5058967"><ele>265.33333333333337</ele><time>2026-05-03T10:17:02.221Z</time></trkpt><trkpt lat="46.0413433" lon="13.5059067"><ele>267.1666666666667</ele><time>2026-05-03T10:17:03.221Z</time></trkpt><trkpt lat="46.041435" lon="13.50592"><ele>269.0</ele><time>2026-05-03T10:17:04.221Z</time></trkpt><trkpt lat="46.0415183" lon="13.5059267"><ele>269.0</ele><time>2026-05-03T10:17:05.221Z</time></trkpt><trkpt lat="46.0416067" lon="13.50594"><ele>269.0</ele><time>2026-05-03T10:17:06.221Z</time></trkpt><trkpt lat="46.0416967" lon="13.5059533"><ele>269.0</ele><time>2026-05-03T10:17:07.221Z</time></trkpt><trkpt lat="46.04178" lon="13.5059733"><ele>269.0</ele><time>2026-05-03T10:17:08.221Z</time></trkpt><trkpt lat="46.04186" lon="13.5060133"><ele>269.0</ele><time>2026-05-03T10:17:09.221Z</time></trkpt><trkpt lat="46.0419417" lon="13.5060783"><ele>269.0</ele><time>2026-05-03T10:17:10.221Z</time></trkpt><trkpt lat="46.0420217" lon="13.50615"><ele>268.8</ele><time>2026-05-03T10:17:11.221Z</time></trkpt><trkpt lat="46.0421067" lon="13.5061917"><ele>268.59999999999997</ele><time>2026-05-03T10:17:12.221Z</time></trkpt><trkpt lat="46.0422017" lon="13.5062233"><ele>268.4</ele><time>2026-05-03T10:17:13.221Z</time></trkpt><trkpt lat="46.0422933" lon="13.5062583"><ele>268.2</ele><time>2026-05-03T10:17:14.221Z</time></trkpt><trkpt lat="46.0423867" lon="13.5062867"><ele>268.0</ele><time>2026-05-03T10:17:15.221Z</time></trkpt><trkpt lat="46.04247" lon="13.5063217"><ele>271.8333333333333</ele><time>2026-05-03T10:17:16.221Z</time></trkpt><trkpt lat="46.0425317" lon="13.5063567"><ele>275.66666666666663</ele><time>2026-05-03T10:17:17.221Z</time></trkpt><trkpt lat="46.0425967" lon="13.5063883"><ele>279.5</ele><time>2026-05-03T10:17:18.221Z</time></trkpt><trkpt lat="46.0426617" lon="13.50642"><ele>283.3333333333333</ele><time>2026-05-03T10:17:19.221Z</time></trkpt><trkpt lat="46.0427783" lon="13.50642"><ele>287.1666666666667</ele><time>2026-05-03T10:17:21.221Z</time></trkpt><trkpt lat="46.0428417" lon="13.5063967"><ele>291.0</ele><time>2026-05-03T10:17:22.221Z</time></trkpt><trkpt lat="46.0429167" lon="13.5063867"><ele>291.0</ele><time>2026-05-03T10:17:23.221Z</time></trkpt><trkpt lat="46.043015" lon="13.506385"><ele>291.0</ele><time>2026-05-03T10:17:24.221Z</time></trkpt><trkpt lat="46.0431233" lon="13.5064133"><ele>291.0</ele><time>2026-05-03T10:17:26.221Z</time></trkpt><trkpt lat="46.043225" lon="13.50652"><ele>291.0</ele><time>2026-05-03T10:17:28.221Z</time></trkpt><trkpt lat="46.0432717" lon="13.50659"><ele>291.0</ele><time>2026-05-03T10:17:29.221Z</time></trkpt><trkpt lat="46.04333" lon="13.50675"><ele>289.57142857142856</ele><time>2026-05-03T10:17:31.221Z</time></trkpt><trkpt lat="46.0433633" lon="13.5068383"><ele>288.1428571428571</ele><time>2026-05-03T10:17:32.221Z</time></trkpt><trkpt lat="46.0433967" lon="13.5069267"><ele>286.7142857142857</ele><time>2026-05-03T10:17:33.221Z</time></trkpt><trkpt lat="46.0434433" lon="13.507005"><ele>285.2857142857143</ele><time>2026-05-03T10:17:34.221Z</time></trkpt><trkpt lat="46.0435017" lon="13.5070717"><ele>283.8571428571429</ele><time>2026-05-03T10:17:35.221Z</time></trkpt><trkpt lat="46.04357" lon="13.50713"><ele>282.42857142857144</ele><time>2026-05-03T10:17:36.221Z</time></trkpt><trkpt lat="46.043635" lon="13.5071883"><ele>281.0</ele><time>2026-05-03T10:17:37.221Z</time></trkpt><trkpt lat="46.0437" lon="13.5072517"><ele>284.5</ele><time>2026-05-03T10:17:38.221Z</time></trkpt><trkpt lat="46.0437533" lon="13.50732"><ele>288.0</ele><time>2026-05-03T10:17:39.221Z</time></trkpt><trkpt lat="46.0437967" lon="13.5073983"><ele>291.5</ele><time>2026-05-03T10:17:40.221Z</time></trkpt><trkpt lat="46.043825" lon="13.5075033"><ele>295.0</ele><time>2026-05-03T10:17:41.221Z</time></trkpt><trkpt lat="46.0438433" lon="13.5076283"><ele>298.5</ele><time>2026-05-03T10:17:42.221Z</time></trkpt><trkpt lat="46.0438533" lon="13.50776"><ele>302.0</ele><time>2026-05-03T10:17:43.221Z</time></trkpt><trkpt lat="46.0438667" lon="13.5078883"><ele>305.2</ele><time>2026-05-03T10:17:44.221Z</time></trkpt><trkpt lat="46.0438717" lon="13.5080233"><ele>308.4</ele><time>2026-05-03T10:17:45.221Z</time></trkpt><trkpt lat="46.0438867" lon="13.5081717"><ele>311.6</ele><time>2026-05-03T10:17:46.221Z</time></trkpt><trkpt lat="46.0439067" lon="13.50833"><ele>314.8</ele><time>2026-05-03T10:17:47.221Z</time></trkpt><trkpt lat="46.0439367" lon="13.5084917"><ele>318.0</ele><time>2026-05-03T10:17:48.221Z</time></trkpt><trkpt lat="46.0439683" lon="13.5086333"><ele>318.2</ele><time>2026-05-03T10:17:49.221Z</time></trkpt><trkpt lat="46.0440017" lon="13.508775"><ele>318.4</ele><time>2026-05-03T10:17:50.221Z</time></trkpt><trkpt lat="46.04404" lon="13.5089317"><ele>318.59999999999997</ele><time>2026-05-03T10:17:51.221Z</time></trkpt><trkpt lat="46.044075" lon="13.50909"><ele>318.8</ele><time>2026-05-03T10:17:52.221Z</time></trkpt><trkpt lat="46.04411" lon="13.50924"><ele>319.0</ele><time>2026-05-03T10:17:53.221Z</time></trkpt><trkpt lat="46.0441483" lon="13.5093917"><ele>317.8</ele><time>2026-05-03T10:17:54.221Z</time></trkpt><trkpt lat="46.044185" lon="13.509535"><ele>316.59999999999997</ele><time>2026-05-03T10:17:55.221Z</time></trkpt><trkpt lat="46.0442183" lon="13.5096733"><ele>315.4</ele><time>2026-05-03T10:17:56.221Z</time></trkpt><trkpt lat="46.0442483" lon="13.509815"><ele>314.2</ele><time>2026-05-03T10:17:57.221Z</time></trkpt><trkpt lat="46.0442783" lon="13.5099417"><ele>313.0</ele><time>2026-05-03T10:17:58.221Z</time></trkpt><trkpt lat="46.0443133" lon="13.5100517"><ele>313.0</ele><time>2026-05-03T10:17:59.221Z</time></trkpt><trkpt lat="46.044345" lon="13.5101517"><ele>313.0</ele><time>2026-05-03T10:18:00.221Z</time></trkpt><trkpt lat="46.0443617" lon="13.5102533"><ele>313.0</ele><time>2026-05-03T10:18:01.221Z</time></trkpt><trkpt lat="46.0443767" lon="13.510355"><ele>313.0</ele><time>2026-05-03T10:18:02.221Z</time></trkpt><trkpt lat="46.0443917" lon="13.51045"><ele>313.0</ele><time>2026-05-03T10:18:03.221Z</time></trkpt><trkpt lat="46.0444367" lon="13.51061"><ele>313.0</ele><time>2026-05-03T10:18:05.221Z</time></trkpt><trkpt lat="46.04446" lon="13.5107033"><ele>314.5</ele><time>2026-05-03T10:18:06.221Z</time></trkpt><trkpt lat="46.0444817" lon="13.5108017"><ele>316.0</ele><time>2026-05-03T10:18:07.221Z</time></trkpt><trkpt lat="46.0444917" lon="13.510905"><ele>317.5</ele><time>2026-05-03T10:18:08.221Z</time></trkpt><trkpt lat="46.0444917" lon="13.511015"><ele>319.0</ele><time>2026-05-03T10:18:09.221Z</time></trkpt><trkpt lat="46.0444933" lon="13.51114"><ele>320.5</ele><time>2026-05-03T10:18:10.221Z</time></trkpt><trkpt lat="46.0445033" lon="13.51126"><ele>322.0</ele><time>2026-05-03T10:18:11.221Z</time></trkpt><trkpt lat="46.0445167" lon="13.51137"><ele>322.0</ele><time>2026-05-03T10:18:12.221Z</time></trkpt><trkpt lat="46.0445217" lon="13.5114617"><ele>322.0</ele><time>2026-05-03T10:18:13.221Z</time></trkpt><trkpt lat="46.044515" lon="13.5116033"><ele>322.0</ele><time>2026-05-03T10:18:15.221Z</time></trkpt><trkpt lat="46.04445" lon="13.5115283"><ele>322.0</ele><time>2026-05-03T10:18:20.222Z</time></trkpt><trkpt lat="46.0444483" lon="13.511425"><ele>322.0</ele><time>2026-05-03T10:18:21.221Z</time></trkpt><trkpt lat="46.044445" lon="13.5112817"><ele>322.0</ele><time>2026-05-03T10:18:22.221Z</time></trkpt><trkpt lat="46.0444383" lon="13.5111417"><ele>322.0</ele><time>2026-05-03T10:18:23.221Z</time></trkpt><trkpt lat="46.044425" lon="13.51099"><ele>322.0</ele><time>2026-05-03T10:18:24.221Z</time></trkpt><trkpt lat="46.04441" lon="13.5108617"><ele>322.0</ele><time>2026-05-03T10:18:25.221Z</time></trkpt><trkpt lat="46.0443867" lon="13.5107417"><ele>322.0</ele><time>2026-05-03T10:18:26.221Z</time></trkpt><trkpt lat="46.0443483" lon="13.5106367"><ele>322.0</ele><time>2026-05-03T10:18:27.221Z</time></trkpt><trkpt lat="46.0442983" lon="13.5105317"><ele>322.0</ele><time>2026-05-03T10:18:28.221Z</time></trkpt><trkpt lat="46.0442517" lon="13.5104183"><ele>322.0</ele><time>2026-05-03T10:18:29.221Z</time></trkpt><trkpt lat="46.0441933" lon="13.510285"><ele>322.0</ele><time>2026-05-03T10:18:30.221Z</time></trkpt><trkpt lat="46.0441383" lon="13.510145"><ele>322.0</ele><time>2026-05-03T10:18:31.221Z</time></trkpt><trkpt lat="46.044095" lon="13.5100067"><ele>322.0</ele><time>2026-05-03T10:18:32.221Z</time></trkpt><trkpt lat="46.0440517" lon="13.5098833"><ele>322.20000000000005</ele><time>2026-05-03T10:18:33.221Z</time></trkpt><trkpt lat="46.0440017" lon="13.5097683"><ele>322.4</ele><time>2026-05-03T10:18:34.221Z</time></trkpt><trkpt lat="46.043955" lon="13.50966"><ele>322.6</ele><time>2026-05-03T10:18:35.221Z</time></trkpt><trkpt lat="46.0439083" lon="13.509545"><ele>322.79999999999995</ele><time>2026-05-03T10:18:36.221Z</time></trkpt><trkpt lat="46.0438633" lon="13.5094183"><ele>323.0</ele><time>2026-05-03T10:18:37.221Z</time></trkpt><trkpt lat="46.0438117" lon="13.5092867"><ele>322.2</ele><time>2026-05-03T10:18:38.221Z</time></trkpt><trkpt lat="46.04377" lon="13.5091583"><ele>321.4</ele><time>2026-05-03T10:18:39.221Z</time></trkpt><trkpt lat="46.0437367" lon="13.509025"><ele>320.59999999999997</ele><time>2026-05-03T10:18:40.221Z</time></trkpt><trkpt lat="46.0437" lon="13.5089017"><ele>319.79999999999995</ele><time>2026-05-03T10:18:41.221Z</time></trkpt><trkpt lat="46.043665" lon="13.5087767"><ele>319.0</ele><time>2026-05-03T10:18:42.221Z</time></trkpt><trkpt lat="46.0436333" lon="13.50866"><ele>318.8333333333333</ele><time>2026-05-03T10:18:43.221Z</time></trkpt><trkpt lat="46.0436117" lon="13.5085483"><ele>318.66666666666663</ele><time>2026-05-03T10:18:44.221Z</time></trkpt><trkpt lat="46.0435817" lon="13.5084467"><ele>318.5</ele><time>2026-05-03T10:18:45.221Z</time></trkpt><trkpt lat="46.043555" lon="13.5083567"><ele>318.3333333333333</ele><time>2026-05-03T10:18:46.221Z</time></trkpt><trkpt lat="46.0435033" lon="13.50821"><ele>318.1666666666667</ele><time>2026-05-03T10:18:48.221Z</time></trkpt><trkpt lat="46.0434383" lon="13.5081433"><ele>318.0</ele><time>2026-05-03T10:18:50.221Z</time></trkpt><trkpt lat="46.0433667" lon="13.5081667"><ele>318.0</ele><time>2026-05-03T10:18:52.221Z</time></trkpt><trkpt lat="46.0433267" lon="13.5082517"><ele>318.0</ele><time>2026-05-03T10:18:54.221Z</time></trkpt><trkpt lat="46.0433733" lon="13.5084017"><ele>318.0</ele><time>2026-05-03T10:18:56.221Z</time></trkpt><trkpt lat="46.0434083" lon="13.50851"><ele>318.0</ele><time>2026-05-03T10:18:57.221Z</time></trkpt><trkpt lat="46.04345" lon="13.5086267"><ele>318.0</ele><time>2026-05-03T10:18:58.221Z</time></trkpt><trkpt lat="46.0434883" lon="13.50875"><ele>318.2</ele><time>2026-05-03T10:18:59.221Z</time></trkpt><trkpt lat="46.04352" lon="13.5088767"><ele>318.4</ele><time>2026-05-03T10:19:00.221Z</time></trkpt><trkpt lat="46.043535" lon="13.5090017"><ele>318.59999999999997</ele><time>2026-05-03T10:19:01.221Z</time></trkpt><trkpt lat="46.04354" lon="13.5091467"><ele>318.8</ele><time>2026-05-03T10:19:02.221Z</time></trkpt><trkpt lat="46.043555" lon="13.509295"><ele>319.0</ele><time>2026-05-03T10:19:03.221Z</time></trkpt><trkpt lat="46.043565" lon="13.5094517"><ele>319.79999999999995</ele><time>2026-05-03T10:19:04.221Z</time></trkpt><trkpt lat="46.0435867" lon="13.5095967"><ele>320.59999999999997</ele><time>2026-05-03T10:19:05.221Z</time></trkpt><trkpt lat="46.0436117" lon="13.50973"><ele>321.4</ele><time>2026-05-03T10:19:06.221Z</time></trkpt><trkpt lat="46.0436333" lon="13.5098533"><ele>322.2</ele><time>2026-05-03T10:19:07.221Z</time></trkpt><trkpt lat="46.0436533" lon="13.509975"><ele>323.0</ele><time>2026-05-03T10:19:08.221Z</time></trkpt><trkpt lat="46.0436783" lon="13.5100817"><ele>323.0</ele><time>2026-05-03T10:19:09.221Z</time></trkpt><trkpt lat="46.0437017" lon="13.5101733"><ele>323.0</ele><time>2026-05-03T10:19:10.221Z</time></trkpt><trkpt lat="46.043725" lon="13.5102583"><ele>323.0</ele><time>2026-05-03T10:19:11.221Z</time></trkpt><trkpt lat="46.0437433" lon="13.5104017"><ele>323.0</ele><time>2026-05-03T10:19:13.221Z</time></trkpt><trkpt lat="46.0437383" lon="13.5105483"><ele>323.0</ele><time>2026-05-03T10:19:15.221Z</time></trkpt><trkpt lat="46.043685" lon="13.5107"><ele>323.00000000000006</ele><time>2026-05-03T10:19:17.221Z</time></trkpt><trkpt lat="46.0436567" lon="13.510785"><ele>323.0</ele><time>2026-05-03T10:19:18.221Z</time></trkpt><trkpt lat="46.0436383" lon="13.510885"><ele>323.0</ele><time>2026-05-03T10:19:19.221Z</time></trkpt><trkpt lat="46.0436367" lon="13.51098"><ele>323.0</ele><time>2026-05-03T10:19:20.221Z</time></trkpt><trkpt lat="46.04364" lon="13.51108"><ele>323.0</ele><time>2026-05-03T10:19:21.221Z</time></trkpt><trkpt lat="46.04364" lon="13.5111833"><ele>323.00000000000006</ele><time>2026-05-03T10:19:22.221Z</time></trkpt><trkpt lat="46.0436383" lon="13.5112917"><ele>323.0</ele><time>2026-05-03T10:19:23.221Z</time></trkpt><trkpt lat="46.043625" lon="13.5114017"><ele>324.1666666666667</ele><time>2026-05-03T10:19:24.221Z</time></trkpt><trkpt lat="46.0436083" lon="13.511515"><ele>325.33333333333337</ele><time>2026-05-03T10:19:25.221Z</time></trkpt><trkpt lat="46.0435833" lon="13.51162"><ele>326.5</ele><time>2026-05-03T10:19:26.221Z</time></trkpt><trkpt lat="46.0435333" lon="13.5116883"><ele>327.6666666666667</ele><time>2026-05-03T10:19:27.221Z</time></trkpt><trkpt lat="46.0434767" lon="13.51173"><ele>328.8333333333333</ele><time>2026-05-03T10:19:28.221Z</time></trkpt><trkpt lat="46.0434067" lon="13.51175"><ele>330.0</ele><time>2026-05-03T10:19:29.221Z</time></trkpt><trkpt lat="46.0433" lon="13.5117483"><ele>329.25</ele><time>2026-05-03T10:19:30.221Z</time></trkpt><trkpt lat="46.0431733" lon="13.5117217"><ele>328.5</ele><time>2026-05-03T10:19:31.221Z</time></trkpt><trkpt lat="46.0430167" lon="13.5116683"><ele>327.75</ele><time>2026-05-03T10:19:32.222Z</time></trkpt><trkpt lat="46.0428767" lon="13.5116417"><ele>327.0</ele><time>2026-05-03T10:19:33.221Z</time></trkpt><trkpt lat="46.0427283" lon="13.5115983"><ele>327.0</ele><time>2026-05-03T10:19:34.221Z</time></trkpt><trkpt lat="46.0425867" lon="13.5115733"><ele>327.0</ele><time>2026-05-03T10:19:35.221Z</time></trkpt><trkpt lat="46.042445" lon="13.511545"><ele>327.0</ele><time>2026-05-03T10:19:36.221Z</time></trkpt><trkpt lat="46.0423017" lon="13.511525"><ele>327.0</ele><time>2026-05-03T10:19:37.221Z</time></trkpt><trkpt lat="46.0421717" lon="13.5115283"><ele>323.75</ele><time>2026-05-03T10:19:38.221Z</time></trkpt><trkpt lat="46.0420483" lon="13.5115567"><ele>320.5</ele><time>2026-05-03T10:19:39.221Z</time></trkpt><trkpt lat="46.0419383" lon="13.5116317"><ele>317.25</ele><time>2026-05-03T10:19:40.221Z</time></trkpt><trkpt lat="46.0418283" lon="13.51172"><ele>314.0</ele><time>2026-05-03T10:19:41.222Z</time></trkpt><trkpt lat="46.041705" lon="13.5118233"><ele>315.0</ele><time>2026-05-03T10:19:42.221Z</time></trkpt><trkpt lat="46.041585" lon="13.51193"><ele>316.0</ele><time>2026-05-03T10:19:43.221Z</time></trkpt><trkpt lat="46.04147" lon="13.51205"><ele>317.0</ele><time>2026-05-03T10:19:44.221Z</time></trkpt><trkpt lat="46.04136" lon="13.51216"><ele>318.0</ele><time>2026-05-03T10:19:45.221Z</time></trkpt><trkpt lat="46.041265" lon="13.5122167"><ele>318.0</ele><time>2026-05-03T10:19:46.221Z</time></trkpt><trkpt lat="46.04119" lon="13.5122433"><ele>318.0</ele><time>2026-05-03T10:19:47.221Z</time></trkpt><trkpt lat="46.0411267" lon="13.5122467"><ele>318.0</ele><time>2026-05-03T10:19:48.221Z</time></trkpt><trkpt lat="46.04111" lon="13.5121233"><ele>318.0</ele><time>2026-05-03T10:19:50.221Z</time></trkpt><trkpt lat="46.0412117" lon="13.5119867"><ele>318.0</ele><time>2026-05-03T10:19:52.221Z</time></trkpt><trkpt lat="46.041305" lon="13.511915"><ele>316.6666666666667</ele><time>2026-05-03T10:19:53.221Z</time></trkpt><trkpt lat="46.0414183" lon="13.5118183"><ele>315.33333333333337</ele><time>2026-05-03T10:19:54.221Z</time></trkpt><trkpt lat="46.0415417" lon="13.511685"><ele>314.0</ele><time>2026-05-03T10:19:55.221Z</time></trkpt><trkpt lat="46.0416633" lon="13.5115267"><ele>314.0</ele><time>2026-05-03T10:19:56.22Z</time></trkpt><trkpt lat="46.0417983" lon="13.5113867"><ele>314.0</ele><time>2026-05-03T10:19:57.22Z</time></trkpt><trkpt lat="46.04193" lon="13.5112967"><ele>314.0</ele><time>2026-05-03T10:19:58.22Z</time></trkpt><trkpt lat="46.042065" lon="13.5112483"><ele>310.59999999999997</ele><time>2026-05-03T10:19:59.22Z</time></trkpt><trkpt lat="46.04217" lon="13.511215"><ele>307.2</ele><time>2026-05-03T10:20:00.22Z</time></trkpt><trkpt lat="46.042255" lon="13.5111633"><ele>303.79999999999995</ele><time>2026-05-03T10:20:01.22Z</time></trkpt><trkpt lat="46.0423083" lon="13.5110883"><ele>300.4</ele><time>2026-05-03T10:20:02.22Z</time></trkpt><trkpt lat="46.0423217" lon="13.5109967"><ele>297.0</ele><time>2026-05-03T10:20:03.22Z</time></trkpt><trkpt lat="46.0421283" lon="13.5109633"><ele>297.0</ele><time>2026-05-03T10:20:05.22Z</time></trkpt><trkpt lat="46.041995" lon="13.5109983"><ele>297.0</ele><time>2026-05-03T10:20:06.22Z</time></trkpt><trkpt lat="46.041845" lon="13.511025"><ele>297.0</ele><time>2026-05-03T10:20:07.22Z</time></trkpt><trkpt lat="46.0417067" lon="13.51108"><ele>297.0</ele><time>2026-05-03T10:20:08.22Z</time></trkpt><trkpt lat="46.0415767" lon="13.5111867"><ele>299.75</ele><time>2026-05-03T10:20:09.22Z</time></trkpt><trkpt lat="46.0414617" lon="13.5113167"><ele>302.5</ele><time>2026-05-03T10:20:10.221Z</time></trkpt><trkpt lat="46.04136" lon="13.5114683"><ele>305.25</ele><time>2026-05-03T10:20:11.22Z</time></trkpt><trkpt lat="46.0412517" lon="13.5115733"><ele>308.0</ele><time>2026-05-03T10:20:12.22Z</time></trkpt><trkpt lat="46.0411267" lon="13.51163"><ele>308.0</ele><time>2026-05-03T10:20:13.22Z</time></trkpt><trkpt lat="46.0410083" lon="13.5116233"><ele>308.0</ele><time>2026-05-03T10:20:14.22Z</time></trkpt><trkpt lat="46.0409017" lon="13.5115583"><ele>308.0</ele><time>2026-05-03T10:20:15.221Z</time></trkpt><trkpt lat="46.0408033" lon="13.51142"><ele>308.0</ele><time>2026-05-03T10:20:16.22Z</time></trkpt><trkpt lat="46.0407217" lon="13.5112583"><ele>302.5</ele><time>2026-05-03T10:20:17.22Z</time></trkpt><trkpt lat="46.0406417" lon="13.5111"><ele>297.0</ele><time>2026-05-03T10:20:18.22Z</time></trkpt><trkpt lat="46.0405633" lon="13.5109517"><ele>291.5</ele><time>2026-05-03T10:20:19.22Z</time></trkpt><trkpt lat="46.04048" lon="13.510845"><ele>286.0</ele><time>2026-05-03T10:20:20.22Z</time></trkpt><trkpt lat="46.040385" lon="13.5108"><ele>286.0</ele><time>2026-05-03T10:20:21.22Z</time></trkpt><trkpt lat="46.0402933" lon="13.510815"><ele>286.0</ele><time>2026-05-03T10:20:22.22Z</time></trkpt><trkpt lat="46.0401883" lon="13.510895"><ele>286.0</ele><time>2026-05-03T10:20:23.22Z</time></trkpt><trkpt lat="46.0400783" lon="13.5110033"><ele>286.0</ele><time>2026-05-03T10:20:24.22Z</time></trkpt><trkpt lat="46.0399733" lon="13.5110933"><ele>285.0</ele><time>2026-05-03T10:20:25.22Z</time></trkpt><trkpt lat="46.039865" lon="13.5111333"><ele>284.0</ele><time>2026-05-03T10:20:26.22Z</time></trkpt><trkpt lat="46.0397467" lon="13.5111167"><ele>283.0</ele><time>2026-05-03T10:20:27.22Z</time></trkpt><trkpt lat="46.039635" lon="13.5110533"><ele>282.0</ele><time>2026-05-03T10:20:28.22Z</time></trkpt><trkpt lat="46.039535" lon="13.5109833"><ele>282.0</ele><time>2026-05-03T10:20:29.22Z</time></trkpt><trkpt lat="46.0394417" lon="13.5109133"><ele>282.0</ele><time>2026-05-03T10:20:30.22Z</time></trkpt><trkpt lat="46.03934" lon="13.5108467"><ele>282.0</ele><time>2026-05-03T10:20:31.22Z</time></trkpt><trkpt lat="46.0392333" lon="13.510775"><ele>282.0</ele><time>2026-05-03T10:20:32.22Z</time></trkpt><trkpt lat="46.0391167" lon="13.510735"><ele>281.25</ele><time>2026-05-03T10:20:33.22Z</time></trkpt><trkpt lat="46.038985" lon="13.510715"><ele>280.5</ele><time>2026-05-03T10:20:34.22Z</time></trkpt><trkpt lat="46.0388417" lon="13.510715"><ele>279.75</ele><time>2026-05-03T10:20:35.22Z</time></trkpt><trkpt lat="46.0386917" lon="13.5107317"><ele>279.0</ele><time>2026-05-03T10:20:36.22Z</time></trkpt><trkpt lat="46.03855" lon="13.5107483"><ele>279.0</ele><time>2026-05-03T10:20:37.22Z</time></trkpt><trkpt lat="46.0384117" lon="13.51076"><ele>279.0</ele><time>2026-05-03T10:20:38.22Z</time></trkpt><trkpt lat="46.0382767" lon="13.5107383"><ele>279.0</ele><time>2026-05-03T10:20:39.22Z</time></trkpt><trkpt lat="46.03815" lon="13.5106917"><ele>279.0</ele><time>2026-05-03T10:20:40.22Z</time></trkpt><trkpt lat="46.0380367" lon="13.51065"><ele>276.25</ele><time>2026-05-03T10:20:41.22Z</time></trkpt><trkpt lat="46.0379267" lon="13.51061"><ele>273.5</ele><time>2026-05-03T10:20:42.22Z</time></trkpt><trkpt lat="46.0378183" lon="13.5106083"><ele>270.75</ele><time>2026-05-03T10:20:43.22Z</time></trkpt><trkpt lat="46.0377167" lon="13.5106517"><ele>268.0</ele><time>2026-05-03T10:20:44.22Z</time></trkpt><trkpt lat="46.037605" lon="13.5107383"><ele>268.0</ele><time>2026-05-03T10:20:45.22Z</time></trkpt><trkpt lat="46.0374883" lon="13.51083"><ele>268.0</ele><time>2026-05-03T10:20:46.22Z</time></trkpt><trkpt lat="46.03737" lon="13.51092"><ele>268.0</ele><time>2026-05-03T10:20:47.22Z</time></trkpt><trkpt lat="46.0372483" lon="13.5109383"><ele>268.0</ele><time>2026-05-03T10:20:48.22Z</time></trkpt><trkpt lat="46.0371333" lon="13.5109083"><ele>265.0</ele><time>2026-05-03T10:20:49.22Z</time></trkpt><trkpt lat="46.0370083" lon="13.5108283"><ele>262.0</ele><time>2026-05-03T10:20:50.22Z</time></trkpt><trkpt lat="46.0368983" lon="13.5107667"><ele>259.0</ele><time>2026-05-03T10:20:51.22Z</time></trkpt><trkpt lat="46.0367967" lon="13.5107467"><ele>256.0</ele><time>2026-05-03T10:20:52.22Z</time></trkpt><trkpt lat="46.036695" lon="13.5107867"><ele>253.0</ele><time>2026-05-03T10:20:53.22Z</time></trkpt><trkpt lat="46.0365933" lon="13.5108767"><ele>250.0</ele><time>2026-05-03T10:20:54.22Z</time></trkpt><trkpt lat="46.0364883" lon="13.5109917"><ele>247.0</ele><time>2026-05-03T10:20:55.22Z</time></trkpt><trkpt lat="46.0363983" lon="13.511115"><ele>244.0</ele><time>2026-05-03T10:20:56.22Z</time></trkpt><trkpt lat="46.0363217" lon="13.5112367"><ele>249.0</ele><time>2026-05-03T10:20:57.22Z</time></trkpt><trkpt lat="46.0362283" lon="13.5113317"><ele>254.0</ele><time>2026-05-03T10:20:58.22Z</time></trkpt><trkpt lat="46.0361233" lon="13.511375"><ele>259.0</ele><time>2026-05-03T10:20:59.22Z</time></trkpt><trkpt lat="46.0360067" lon="13.5113483"><ele>264.0</ele><time>2026-05-03T10:21:00.22Z</time></trkpt><trkpt lat="46.0358883" lon="13.5112783"><ele>263.5</ele><time>2026-05-03T10:21:01.22Z</time></trkpt><trkpt lat="46.0357683" lon="13.5112233"><ele>263.0</ele><time>2026-05-03T10:21:02.22Z</time></trkpt><trkpt lat="46.035645" lon="13.5112133"><ele>262.5</ele><time>2026-05-03T10:21:03.22Z</time></trkpt><trkpt lat="46.0355217" lon="13.511225"><ele>262.0</ele><time>2026-05-03T10:21:04.22Z</time></trkpt><trkpt lat="46.035395" lon="13.5112517"><ele>262.0</ele><time>2026-05-03T10:21:05.22Z</time></trkpt><trkpt lat="46.03527" lon="13.5112983"><ele>262.0</ele><time>2026-05-03T10:21:06.22Z</time></trkpt><trkpt lat="46.03516" lon="13.5113317"><ele>262.0</ele><time>2026-05-03T10:21:07.22Z</time></trkpt><trkpt lat="46.0350433" lon="13.5113517"><ele>262.0</ele><time>2026-05-03T10:21:08.22Z</time></trkpt><trkpt lat="46.03493" lon="13.51136"><ele>261.2</ele><time>2026-05-03T10:21:09.22Z</time></trkpt><trkpt lat="46.0348217" lon="13.51136"><ele>260.4</ele><time>2026-05-03T10:21:10.22Z</time></trkpt><trkpt lat="46.0347183" lon="13.51135"><ele>259.6</ele><time>2026-05-03T10:21:11.22Z</time></trkpt><trkpt lat="46.0346233" lon="13.5113217"><ele>258.8</ele><time>2026-05-03T10:21:12.22Z</time></trkpt><trkpt lat="46.03453" lon="13.5112617"><ele>258.0</ele><time>2026-05-03T10:21:13.22Z</time></trkpt><trkpt lat="46.034445" lon="13.5111333"><ele>255.75</ele><time>2026-05-03T10:21:14.22Z</time></trkpt><trkpt lat="46.0343617" lon="13.5109883"><ele>253.5</ele><time>2026-05-03T10:21:15.22Z</time></trkpt><trkpt lat="46.0342933" lon="13.5108567"><ele>251.25</ele><time>2026-05-03T10:21:16.22Z</time></trkpt><trkpt lat="46.0342133" lon="13.5107533"><ele>249.0</ele><time>2026-05-03T10:21:17.22Z</time></trkpt><trkpt lat="46.0341067" lon="13.5106867"><ele>249.0</ele><time>2026-05-03T10:21:18.22Z</time></trkpt><trkpt lat="46.0339983" lon="13.5106633"><ele>249.0</ele><time>2026-05-03T10:21:19.22Z</time></trkpt><trkpt lat="46.03388" lon="13.5106817"><ele>249.0</ele><time>2026-05-03T10:21:20.22Z</time></trkpt><trkpt lat="46.0337667" lon="13.5107167"><ele>249.0</ele><time>2026-05-03T10:21:21.22Z</time></trkpt><trkpt lat="46.0336583" lon="13.510725"><ele>249.0</ele><time>2026-05-03T10:21:22.22Z</time></trkpt><trkpt lat="46.0335533" lon="13.510695"><ele>249.0</ele><time>2026-05-03T10:21:23.221Z</time></trkpt><trkpt lat="46.0334467" lon="13.5106183"><ele>249.0</ele><time>2026-05-03T10:21:24.22Z</time></trkpt><trkpt lat="46.03333" lon="13.5105367"><ele>249.0</ele><time>2026-05-03T10:21:25.22Z</time></trkpt><trkpt lat="46.0332033" lon="13.5104383"><ele>244.25</ele><time>2026-05-03T10:21:26.22Z</time></trkpt><trkpt lat="46.0330667" lon="13.5103517"><ele>239.5</ele><time>2026-05-03T10:21:27.22Z</time></trkpt><trkpt lat="46.0329267" lon="13.5103"><ele>234.75</ele><time>2026-05-03T10:21:28.22Z</time></trkpt><trkpt lat="46.0327933" lon="13.510255"><ele>230.0</ele><time>2026-05-03T10:21:29.22Z</time></trkpt><trkpt lat="46.032655" lon="13.5102233"><ele>230.0</ele><time>2026-05-03T10:21:30.22Z</time></trkpt><trkpt lat="46.0325083" lon="13.51022"><ele>230.0</ele><time>2026-05-03T10:21:31.22Z</time></trkpt><trkpt lat="46.0323733" lon="13.51021"><ele>230.0</ele><time>2026-05-03T10:21:32.22Z</time></trkpt><trkpt lat="46.032255" lon="13.5101717"><ele>230.0</ele><time>2026-05-03T10:21:33.22Z</time></trkpt><trkpt lat="46.03216" lon="13.5100817"><ele>232.0</ele><time>2026-05-03T10:21:34.22Z</time></trkpt><trkpt lat="46.0320733" lon="13.5099633"><ele>234.0</ele><time>2026-05-03T10:21:35.22Z</time></trkpt><trkpt lat="46.0319967" lon="13.5098433"><ele>236.0</ele><time>2026-05-03T10:21:36.22Z</time></trkpt><trkpt lat="46.0319083" lon="13.5097467"><ele>238.0</ele><time>2026-05-03T10:21:37.22Z</time></trkpt><trkpt lat="46.0318017" lon="13.5097017"><ele>238.0</ele><time>2026-05-03T10:21:38.22Z</time></trkpt><trkpt lat="46.0316867" lon="13.509695"><ele>238.0</ele><time>2026-05-03T10:21:39.22Z</time></trkpt><trkpt lat="46.03156" lon="13.5096983"><ele>238.0</ele><time>2026-05-03T10:21:40.22Z</time></trkpt><trkpt lat="46.0314483" lon="13.509665"><ele>238.0</ele><time>2026-05-03T10:21:41.22Z</time></trkpt><trkpt lat="46.0313367" lon="13.5095817"><ele>234.8</ele><time>2026-05-03T10:21:42.22Z</time></trkpt><trkpt lat="46.0312533" lon="13.5094667"><ele>231.60000000000002</ele><time>2026-05-03T10:21:43.22Z</time></trkpt><trkpt lat="46.0311883" lon="13.5093517"><ele>228.39999999999998</ele><time>2026-05-03T10:21:44.22Z</time></trkpt><trkpt lat="46.03111" lon="13.5092617"><ele>225.2</ele><time>2026-05-03T10:21:45.22Z</time></trkpt><trkpt lat="46.0310267" lon="13.509225"><ele>222.0</ele><time>2026-05-03T10:21:46.22Z</time></trkpt><trkpt lat="46.030945" lon="13.5092233"><ele>222.0</ele><time>2026-05-03T10:21:47.22Z</time></trkpt><trkpt lat="46.0308483" lon="13.5092417"><ele>222.0</ele><time>2026-05-03T10:21:48.22Z</time></trkpt><trkpt lat="46.0307517" lon="13.5092617"><ele>222.0</ele><time>2026-05-03T10:21:49.22Z</time></trkpt><trkpt lat="46.03066" lon="13.5092567"><ele>222.0</ele><time>2026-05-03T10:21:50.22Z</time></trkpt><trkpt lat="46.0305833" lon="13.5091983"><ele>222.0</ele><time>2026-05-03T10:21:51.22Z</time></trkpt><trkpt lat="46.0304983" lon="13.5091133"><ele>222.5</ele><time>2026-05-03T10:21:52.22Z</time></trkpt><trkpt lat="46.0303933" lon="13.5090067"><ele>223.0</ele><time>2026-05-03T10:21:53.22Z</time></trkpt><trkpt lat="46.0302867" lon="13.5089117"><ele>223.5</ele><time>2026-05-03T10:21:54.22Z</time></trkpt><trkpt lat="46.0301567" lon="13.5088283"><ele>224.0</ele><time>2026-05-03T10:21:55.22Z</time></trkpt><trkpt lat="46.03003" lon="13.5087283"><ele>221.0</ele><time>2026-05-03T10:21:56.22Z</time></trkpt><trkpt lat="46.0299117" lon="13.508635"><ele>218.0</ele><time>2026-05-03T10:21:57.22Z</time></trkpt><trkpt lat="46.0298" lon="13.50855"><ele>215.0</ele><time>2026-05-03T10:21:58.221Z</time></trkpt><trkpt lat="46.0297267" lon="13.508415"><ele>212.0</ele><time>2026-05-03T10:21:59.22Z</time></trkpt><trkpt lat="46.0296783" lon="13.5082633"><ele>212.0</ele><time>2026-05-03T10:22:00.22Z</time></trkpt><trkpt lat="46.0296583" lon="13.5080933"><ele>212.0</ele><time>2026-05-03T10:22:01.22Z</time></trkpt><trkpt lat="46.0296467" lon="13.5079317"><ele>212.0</ele><time>2026-05-03T10:22:02.22Z</time></trkpt><trkpt lat="46.029625" lon="13.50777"><ele>212.0</ele><time>2026-05-03T10:22:03.22Z</time></trkpt><trkpt lat="46.0295917" lon="13.507625"><ele>209.6</ele><time>2026-05-03T10:22:04.22Z</time></trkpt><trkpt lat="46.02953" lon="13.5075083"><ele>207.2</ele><time>2026-05-03T10:22:05.22Z</time></trkpt><trkpt lat="46.0294467" lon="13.507425"><ele>204.8</ele><time>2026-05-03T10:22:06.22Z</time></trkpt><trkpt lat="46.0293483" lon="13.50739"><ele>202.4</ele><time>2026-05-03T10:22:07.22Z</time></trkpt><trkpt lat="46.0292367" lon="13.5073933"><ele>200.0</ele><time>2026-05-03T10:22:08.22Z</time></trkpt><trkpt lat="46.029115" lon="13.50742"><ele>198.25</ele><time>2026-05-03T10:22:09.22Z</time></trkpt><trkpt lat="46.0289883" lon="13.5074567"><ele>196.5</ele><time>2026-05-03T10:22:10.22Z</time></trkpt><trkpt lat="46.0288617" lon="13.5074883"><ele>194.75</ele><time>2026-05-03T10:22:11.22Z</time></trkpt><trkpt lat="46.0287317" lon="13.507505"><ele>193.0</ele><time>2026-05-03T10:22:12.22Z</time></trkpt><trkpt lat="46.0286117" lon="13.5074967"><ele>193.0</ele><time>2026-05-03T10:22:13.221Z</time></trkpt><trkpt lat="46.0285" lon="13.507455"><ele>193.0</ele><time>2026-05-03T10:22:14.22Z</time></trkpt><trkpt lat="46.0284233" lon="13.507415"><ele>193.0</ele><time>2026-05-03T10:22:15.22Z</time></trkpt><trkpt lat="46.0283433" lon="13.5074017"><ele>193.0</ele><time>2026-05-03T10:22:16.22Z</time></trkpt><trkpt lat="46.0282783" lon="13.5074233"><ele>193.0</ele><time>2026-05-03T10:22:17.22Z</time></trkpt><trkpt lat="46.0281933" lon="13.5075567"><ele>193.0</ele><time>2026-05-03T10:22:19.22Z</time></trkpt><trkpt lat="46.0281733" lon="13.507645"><ele>193.0</ele><time>2026-05-03T10:22:20.22Z</time></trkpt><trkpt lat="46.02818" lon="13.5077517"><ele>193.0</ele><time>2026-05-03T10:22:21.22Z</time></trkpt><trkpt lat="46.028215" lon="13.5078767"><ele>193.0</ele><time>2026-05-03T10:22:22.22Z</time></trkpt><trkpt lat="46.02827" lon="13.50803"><ele>193.0</ele><time>2026-05-03T10:22:23.22Z</time></trkpt><trkpt lat="46.0283217" lon="13.508205"><ele>193.0</ele><time>2026-05-03T10:22:24.22Z</time></trkpt><trkpt lat="46.0283517" lon="13.5083983"><ele>193.0</ele><time>2026-05-03T10:22:25.22Z</time></trkpt><trkpt lat="46.028355" lon="13.5086067"><ele>193.0</ele><time>2026-05-03T10:22:26.22Z</time></trkpt><trkpt lat="46.02834" lon="13.5088083"><ele>193.0</ele><time>2026-05-03T10:22:27.22Z</time></trkpt><trkpt lat="46.0283333" lon="13.50899"><ele>191.4</ele><time>2026-05-03T10:22:28.22Z</time></trkpt><trkpt lat="46.0283417" lon="13.5091417"><ele>189.8</ele><time>2026-05-03T10:22:29.22Z</time></trkpt><trkpt lat="46.0283667" lon="13.5092767"><ele>188.2</ele><time>2026-05-03T10:22:30.22Z</time></trkpt><trkpt lat="46.0284317" lon="13.50939"><ele>186.6</ele><time>2026-05-03T10:22:31.22Z</time></trkpt><trkpt lat="46.0285167" lon="13.509455"><ele>185.0</ele><time>2026-05-03T10:22:32.22Z</time></trkpt><trkpt lat="46.02861" lon="13.5095267"><ele>183.6</ele><time>2026-05-03T10:22:33.22Z</time></trkpt><trkpt lat="46.0286783" lon="13.509635"><ele>182.2</ele><time>2026-05-03T10:22:34.22Z</time></trkpt><trkpt lat="46.028715" lon="13.509765"><ele>180.8</ele><time>2026-05-03T10:22:35.22Z</time></trkpt><trkpt lat="46.0287283" lon="13.509925"><ele>179.4</ele><time>2026-05-03T10:22:36.22Z</time></trkpt><trkpt lat="46.0287067" lon="13.5100833"><ele>178.0</ele><time>2026-05-03T10:22:37.22Z</time></trkpt><trkpt lat="46.0286767" lon="13.510235"><ele>178.0</ele><time>2026-05-03T10:22:38.22Z</time></trkpt><trkpt lat="46.028635" lon="13.51037"><ele>178.0</ele><time>2026-05-03T10:22:39.22Z</time></trkpt><trkpt lat="46.0285667" lon="13.5104717"><ele>178.0</ele><time>2026-05-03T10:22:40.22Z</time></trkpt><trkpt lat="46.02849" lon="13.5105117"><ele>178.0</ele><time>2026-05-03T10:22:41.221Z</time></trkpt><trkpt lat="46.028405" lon="13.510505"><ele>178.0</ele><time>2026-05-03T10:22:42.22Z</time></trkpt><trkpt lat="46.0283083" lon="13.51045"><ele>176.2</ele><time>2026-05-03T10:22:43.22Z</time></trkpt><trkpt lat="46.0282033" lon="13.51041"><ele>174.4</ele><time>2026-05-03T10:22:44.22Z</time></trkpt><trkpt lat="46.0280967" lon="13.5104283"><ele>172.6</ele><time>2026-05-03T10:22:45.22Z</time></trkpt><trkpt lat="46.02801" lon="13.510495"><ele>170.79999999999998</ele><time>2026-05-03T10:22:46.22Z</time></trkpt><trkpt lat="46.027945" lon="13.51064"><ele>169.0</ele><time>2026-05-03T10:22:47.22Z</time></trkpt><trkpt lat="46.0278867" lon="13.5108083"><ele>169.0</ele><time>2026-05-03T10:22:48.221Z</time></trkpt><trkpt lat="46.0278167" lon="13.5109267"><ele>169.0</ele><time>2026-05-03T10:22:49.22Z</time></trkpt><trkpt lat="46.02772" lon="13.5109883"><ele>169.0</ele><time>2026-05-03T10:22:50.22Z</time></trkpt><trkpt lat="46.0276283" lon="13.5109567"><ele>169.0</ele><time>2026-05-03T10:22:51.22Z</time></trkpt><trkpt lat="46.0275467" lon="13.5108233"><ele>169.0</ele><time>2026-05-03T10:22:52.22Z</time></trkpt><trkpt lat="46.027475" lon="13.5106717"><ele>169.0</ele><time>2026-05-03T10:22:53.22Z</time></trkpt><trkpt lat="46.0274033" lon="13.51051"><ele>169.0</ele><time>2026-05-03T10:22:54.22Z</time></trkpt><trkpt lat="46.0273317" lon="13.510375"><ele>169.0</ele><time>2026-05-03T10:22:55.22Z</time></trkpt><trkpt lat="46.0272417" lon="13.510275"><ele>169.0</ele><time>2026-05-03T10:22:56.22Z</time></trkpt><trkpt lat="46.0271333" lon="13.5102267"><ele>169.0</ele><time>2026-05-03T10:22:57.22Z</time></trkpt><trkpt lat="46.0270017" lon="13.5102683"><ele>169.0</ele><time>2026-05-03T10:22:58.22Z</time></trkpt><trkpt lat="46.0268833" lon="13.5103383"><ele>169.0</ele><time>2026-05-03T10:22:59.22Z</time></trkpt><trkpt lat="46.026775" lon="13.510415"><ele>169.0</ele><time>2026-05-03T10:23:00.22Z</time></trkpt><trkpt lat="46.0266683" lon="13.510485"><ele>163.75</ele><time>2026-05-03T10:23:01.221Z</time></trkpt><trkpt lat="46.0265483" lon="13.5105133"><ele>158.5</ele><time>2026-05-03T10:23:02.22Z</time></trkpt><trkpt lat="46.0264217" lon="13.5105233"><ele>153.25</ele><time>2026-05-03T10:23:03.22Z</time></trkpt><trkpt lat="46.02629" lon="13.5105633"><ele>148.0</ele><time>2026-05-03T10:23:04.22Z</time></trkpt><trkpt lat="46.02617" lon="13.51064"><ele>148.0</ele><time>2026-05-03T10:23:05.22Z</time></trkpt><trkpt lat="46.0260583" lon="13.510765"><ele>148.0</ele><time>2026-05-03T10:23:06.22Z</time></trkpt><trkpt lat="46.0259583" lon="13.5109217"><ele>148.0</ele><time>2026-05-03T10:23:07.22Z</time></trkpt><trkpt lat="46.0258783" lon="13.51109"><ele>148.0</ele><time>2026-05-03T10:23:08.22Z</time></trkpt><trkpt lat="46.0257933" lon="13.511235"><ele>147.0</ele><time>2026-05-03T10:23:09.22Z</time></trkpt><trkpt lat="46.025705" lon="13.5113467"><ele>146.0</ele><time>2026-05-03T10:23:10.22Z</time></trkpt><trkpt lat="46.025605" lon="13.5114"><ele>145.0</ele><time>2026-05-03T10:23:11.22Z</time></trkpt><trkpt lat="46.0254767" lon="13.5113933"><ele>144.0</ele><time>2026-05-03T10:23:12.22Z</time></trkpt><trkpt lat="46.0253417" lon="13.511375"><ele>144.0</ele><time>2026-05-03T10:23:13.22Z</time></trkpt><trkpt lat="46.0252167" lon="13.511365"><ele>144.0</ele><time>2026-05-03T10:23:14.22Z</time></trkpt><trkpt lat="46.0251067" lon="13.51137"><ele>144.0</ele><time>2026-05-03T10:23:15.22Z</time></trkpt><trkpt lat="46.0250033" lon="13.5114067"><ele>144.0</ele><time>2026-05-03T10:23:16.22Z</time></trkpt><trkpt lat="46.02491" lon="13.5114733"><ele>144.0</ele><time>2026-05-03T10:23:17.22Z</time></trkpt><trkpt lat="46.0248033" lon="13.5115933"><ele>142.25</ele><time>2026-05-03T10:23:18.22Z</time></trkpt><trkpt lat="46.0247183" lon="13.5117283"><ele>140.5</ele><time>2026-05-03T10:23:19.22Z</time></trkpt><trkpt lat="46.0246233" lon="13.51186"><ele>138.75</ele><time>2026-05-03T10:23:20.22Z</time></trkpt><trkpt lat="46.0245183" lon="13.5119467"><ele>137.0</ele><time>2026-05-03T10:23:21.22Z</time></trkpt><trkpt lat="46.024395" lon="13.51197"><ele>137.0</ele><time>2026-05-03T10:23:22.22Z</time></trkpt><trkpt lat="46.0242567" lon="13.51196"><ele>137.0</ele><time>2026-05-03T10:23:23.22Z</time></trkpt><trkpt lat="46.0241117" lon="13.5119783"><ele>137.0</ele><time>2026-05-03T10:23:24.22Z</time></trkpt><trkpt lat="46.02397" lon="13.5120333"><ele>137.0</ele><time>2026-05-03T10:23:25.22Z</time></trkpt><trkpt lat="46.0238433" lon="13.5121267"><ele>134.66666666666666</ele><time>2026-05-03T10:23:26.22Z</time></trkpt><trkpt lat="46.02372" lon="13.5122533"><ele>132.33333333333334</ele><time>2026-05-03T10:23:27.22Z</time></trkpt><trkpt lat="46.0236" lon="13.51239"><ele>130.0</ele><time>2026-05-03T10:23:28.22Z</time></trkpt><trkpt lat="46.023485" lon="13.5125233"><ele>130.0</ele><time>2026-05-03T10:23:29.22Z</time></trkpt><trkpt lat="46.0233917" lon="13.5126667"><ele>130.0</ele><time>2026-05-03T10:23:30.22Z</time></trkpt><trkpt lat="46.0233017" lon="13.5127983"><ele>130.0</ele><time>2026-05-03T10:23:31.22Z</time></trkpt><trkpt lat="46.0232233" lon="13.512945"><ele>130.0</ele><time>2026-05-03T10:23:32.22Z</time></trkpt><trkpt lat="46.0231417" lon="13.5130783"><ele>127.6</ele><time>2026-05-03T10:23:33.22Z</time></trkpt><trkpt lat="46.0230583" lon="13.5132117"><ele>125.2</ele><time>2026-05-03T10:23:34.22Z</time></trkpt><trkpt lat="46.023" lon="13.513345"><ele>122.80000000000001</ele><time>2026-05-03T10:23:35.22Z</time></trkpt><trkpt lat="46.0229383" lon="13.5134483"><ele>120.4</ele><time>2026-05-03T10:23:36.22Z</time></trkpt><trkpt lat="46.0228933" lon="13.5135633"><ele>118.0</ele><time>2026-05-03T10:23:37.22Z</time></trkpt><trkpt lat="46.022875" lon="13.5136767"><ele>116.42857142857143</ele><time>2026-05-03T10:23:38.22Z</time></trkpt><trkpt lat="46.0228883" lon="13.5137967"><ele>114.85714285714286</ele><time>2026-05-03T10:23:39.22Z</time></trkpt><trkpt lat="46.0229117" lon="13.5139033"><ele>113.28571428571429</ele><time>2026-05-03T10:23:40.22Z</time></trkpt><trkpt lat="46.022925" lon="13.514005"><ele>111.71428571428572</ele><time>2026-05-03T10:23:41.22Z</time></trkpt><trkpt lat="46.0229367" lon="13.5141067"><ele>110.14285714285714</ele><time>2026-05-03T10:23:42.22Z</time></trkpt><trkpt lat="46.02295" lon="13.514205"><ele>108.57142857142858</ele><time>2026-05-03T10:23:43.22Z</time></trkpt><trkpt lat="46.0229667" lon="13.5143033"><ele>107.0</ele><time>2026-05-03T10:23:44.22Z</time></trkpt><trkpt lat="46.02299" lon="13.5144083"><ele>107.0</ele><time>2026-05-03T10:23:45.22Z</time></trkpt><trkpt lat="46.0230117" lon="13.5145233"><ele>106.99999999999999</ele><time>2026-05-03T10:23:46.22Z</time></trkpt><trkpt lat="46.0230367" lon="13.5146467"><ele>106.99999999999999</ele><time>2026-05-03T10:23:47.22Z</time></trkpt><trkpt lat="46.0230767" lon="13.514785"><ele>107.0</ele><time>2026-05-03T10:23:48.22Z</time></trkpt><trkpt lat="46.0231183" lon="13.5149417"><ele>107.0</ele><time>2026-05-03T10:23:49.22Z</time></trkpt><trkpt lat="46.0231533" lon="13.5151167"><ele>107.0</ele><time>2026-05-03T10:23:50.22Z</time></trkpt><trkpt lat="46.0231867" lon="13.5152983"><ele>107.0</ele><time>2026-05-03T10:23:51.22Z</time></trkpt><trkpt lat="46.0232183" lon="13.51549"><ele>107.0</ele><time>2026-05-03T10:23:52.22Z</time></trkpt><trkpt lat="46.0232433" lon="13.5156817"><ele>107.0</ele><time>2026-05-03T10:23:53.22Z</time></trkpt><trkpt lat="46.0232717" lon="13.5158783"><ele>108.75</ele><time>2026-05-03T10:23:54.22Z</time></trkpt><trkpt lat="46.023305" lon="13.5160867"><ele>110.5</ele><time>2026-05-03T10:23:55.22Z</time></trkpt><trkpt lat="46.0233683" lon="13.516255"><ele>112.25</ele><time>2026-05-03T10:23:56.22Z</time></trkpt><trkpt lat="46.0234633" lon="13.5163917"><ele>114.0</ele><time>2026-05-03T10:23:57.22Z</time></trkpt><trkpt lat="46.0235883" lon="13.51651"><ele>115.0</ele><time>2026-05-03T10:23:58.221Z</time></trkpt><trkpt lat="46.0237183" lon="13.5166183"><ele>116.0</ele><time>2026-05-03T10:23:59.22Z</time></trkpt><trkpt lat="46.0238517" lon="13.5167233"><ele>117.0</ele><time>2026-05-03T10:24:00.22Z</time></trkpt><trkpt lat="46.023995" lon="13.5168167"><ele>117.0</ele><time>2026-05-03T10:24:01.22Z</time></trkpt><trkpt lat="46.0241333" lon="13.5169133"><ele>117.0</ele><time>2026-05-03T10:24:02.22Z</time></trkpt><trkpt lat="46.02428" lon="13.5170183"><ele>117.0</ele><time>2026-05-03T10:24:03.22Z</time></trkpt><trkpt lat="46.024435" lon="13.5171167"><ele>120.33333333333334</ele><time>2026-05-03T10:24:04.22Z</time></trkpt><trkpt lat="46.02458" lon="13.5172"><ele>123.66666666666667</ele><time>2026-05-03T10:24:05.22Z</time></trkpt><trkpt lat="46.024705" lon="13.5173"><ele>127.0</ele><time>2026-05-03T10:24:06.22Z</time></trkpt><trkpt lat="46.0248333" lon="13.5174283"><ele>127.0</ele><time>2026-05-03T10:24:07.22Z</time></trkpt><trkpt lat="46.0249567" lon="13.51756"><ele>127.0</ele><time>2026-05-03T10:24:08.22Z</time></trkpt><trkpt lat="46.0250767" lon="13.5176833"><ele>127.0</ele><time>2026-05-03T10:24:09.22Z</time></trkpt><trkpt lat="46.0252117" lon="13.51781"><ele>134.66666666666669</ele><time>2026-05-03T10:24:10.22Z</time></trkpt><trkpt lat="46.0253517" lon="13.5179383"><ele>142.33333333333334</ele><time>2026-05-03T10:24:11.22Z</time></trkpt><trkpt lat="46.0254883" lon="13.51805"><ele>150.0</ele><time>2026-05-03T10:24:12.22Z</time></trkpt><trkpt lat="46.02562" lon="13.5181467"><ele>150.0</ele><time>2026-05-03T10:24:13.22Z</time></trkpt><trkpt lat="46.025755" lon="13.5182367"><ele>150.0</ele><time>2026-05-03T10:24:14.22Z</time></trkpt><trkpt lat="46.0258667" lon="13.5183267"><ele>150.0</ele><time>2026-05-03T10:24:15.22Z</time></trkpt><trkpt lat="46.025945" lon="13.5184333"><ele>150.0</ele><time>2026-05-03T10:24:16.22Z</time></trkpt><trkpt lat="46.0260133" lon="13.5185717"><ele>151.0</ele><time>2026-05-03T10:24:17.22Z</time></trkpt><trkpt lat="46.0260883" lon="13.5187267"><ele>152.0</ele><time>2026-05-03T10:24:18.22Z</time></trkpt><trkpt lat="46.02617" lon="13.5188833"><ele>153.0</ele><time>2026-05-03T10:24:19.22Z</time></trkpt><trkpt lat="46.026265" lon="13.51905"><ele>154.0</ele><time>2026-05-03T10:24:20.22Z</time></trkpt><trkpt lat="46.026355" lon="13.5192083"><ele>154.0</ele><time>2026-05-03T10:24:21.22Z</time></trkpt><trkpt lat="46.0264467" lon="13.5193633"><ele>154.0</ele><time>2026-05-03T10:24:22.22Z</time></trkpt><trkpt lat="46.02653" lon="13.519525"><ele>154.0</ele><time>2026-05-03T10:24:23.22Z</time></trkpt><trkpt lat="46.0265967" lon="13.5196983"><ele>154.0</ele><time>2026-05-03T10:24:24.22Z</time></trkpt><trkpt lat="46.026665" lon="13.51989"><ele>156.5</ele><time>2026-05-03T10:24:25.22Z</time></trkpt><trkpt lat="46.0267083" lon="13.52008"><ele>159.0</ele><time>2026-05-03T10:24:26.22Z</time></trkpt><trkpt lat="46.0267767" lon="13.5202567"><ele>161.5</ele><time>2026-05-03T10:24:27.22Z</time></trkpt><trkpt lat="46.0268733" lon="13.5204017"><ele>164.0</ele><time>2026-05-03T10:24:28.22Z</time></trkpt><trkpt lat="46.026965" lon="13.5205133"><ele>164.0</ele><time>2026-05-03T10:24:29.22Z</time></trkpt><trkpt lat="46.0270583" lon="13.5206033"><ele>164.0</ele><time>2026-05-03T10:24:30.22Z</time></trkpt><trkpt lat="46.0271267" lon="13.52073"><ele>164.0</ele><time>2026-05-03T10:24:31.22Z</time></trkpt><trkpt lat="46.0271983" lon="13.52087"><ele>164.0</ele><time>2026-05-03T10:24:32.22Z</time></trkpt><trkpt lat="46.0272867" lon="13.5209967"><ele>164.0</ele><time>2026-05-03T10:24:33.22Z</time></trkpt><trkpt lat="46.02737" lon="13.52112"><ele>164.0</ele><time>2026-05-03T10:24:34.22Z</time></trkpt><trkpt lat="46.0274433" lon="13.5212567"><ele>164.0</ele><time>2026-05-03T10:24:35.22Z</time></trkpt><trkpt lat="46.0274983" lon="13.52142"><ele>164.0</ele><time>2026-05-03T10:24:36.22Z</time></trkpt><trkpt lat="46.0275383" lon="13.5216117"><ele>162.0</ele><time>2026-05-03T10:24:37.22Z</time></trkpt><trkpt lat="46.027575" lon="13.521825"><ele>160.0</ele><time>2026-05-03T10:24:38.22Z</time></trkpt><trkpt lat="46.0275983" lon="13.5220367"><ele>158.0</ele><time>2026-05-03T10:24:39.22Z</time></trkpt><trkpt lat="46.0276117" lon="13.52223"><ele>156.0</ele><time>2026-05-03T10:24:40.22Z</time></trkpt><trkpt lat="46.0276217" lon="13.5224233"><ele>156.0</ele><time>2026-05-03T10:24:41.22Z</time></trkpt><trkpt lat="46.0276383" lon="13.5226067"><ele>156.0</ele><time>2026-05-03T10:24:42.22Z</time></trkpt><trkpt lat="46.0276833" lon="13.522795"><ele>156.0</ele><time>2026-05-03T10:24:43.22Z</time></trkpt><trkpt lat="46.02779" lon="13.52296"><ele>156.0</ele><time>2026-05-03T10:24:44.22Z</time></trkpt><trkpt lat="46.0278983" lon="13.523145"><ele>162.66666666666666</ele><time>2026-05-03T10:24:45.22Z</time></trkpt><trkpt lat="46.0280117" lon="13.5233417"><ele>169.33333333333331</ele><time>2026-05-03T10:24:46.221Z</time></trkpt><trkpt lat="46.0281183" lon="13.5235167"><ele>176.0</ele><time>2026-05-03T10:24:47.22Z</time></trkpt><trkpt lat="46.0282317" lon="13.52366"><ele>170.5</ele><time>2026-05-03T10:24:48.22Z</time></trkpt><trkpt lat="46.0283317" lon="13.523785"><ele>165.0</ele><time>2026-05-03T10:24:49.219Z</time></trkpt><trkpt lat="46.0284217" lon="13.52391"><ele>159.5</ele><time>2026-05-03T10:24:50.219Z</time></trkpt><trkpt lat="46.028485" lon="13.5240267"><ele>154.0</ele><time>2026-05-03T10:24:51.219Z</time></trkpt><trkpt lat="46.0285217" lon="13.52416"><ele>154.0</ele><time>2026-05-03T10:24:52.219Z</time></trkpt><trkpt lat="46.0285417" lon="13.5243133"><ele>154.0</ele><time>2026-05-03T10:24:53.219Z</time></trkpt><trkpt lat="46.0285683" lon="13.5245"><ele>154.0</ele><time>2026-05-03T10:24:54.219Z</time></trkpt><trkpt lat="46.028595" lon="13.5247067"><ele>154.0</ele><time>2026-05-03T10:24:55.219Z</time></trkpt><trkpt lat="46.02862" lon="13.5249083"><ele>156.4</ele><time>2026-05-03T10:24:56.219Z</time></trkpt><trkpt lat="46.028655" lon="13.5250933"><ele>158.8</ele><time>2026-05-03T10:24:57.22Z</time></trkpt><trkpt lat="46.02869" lon="13.5252517"><ele>161.20000000000002</ele><time>2026-05-03T10:24:58.219Z</time></trkpt><trkpt lat="46.0287317" lon="13.5253817"><ele>163.60000000000002</ele><time>2026-05-03T10:24:59.219Z</time></trkpt><trkpt lat="46.0287817" lon="13.52547"><ele>166.0</ele><time>2026-05-03T10:25:00.219Z</time></trkpt><trkpt lat="46.0288533" lon="13.525515"><ele>169.20000000000002</ele><time>2026-05-03T10:25:01.219Z</time></trkpt><trkpt lat="46.028945" lon="13.5255433"><ele>172.4</ele><time>2026-05-03T10:25:02.219Z</time></trkpt><trkpt lat="46.0290333" lon="13.5255933"><ele>175.6</ele><time>2026-05-03T10:25:03.219Z</time></trkpt><trkpt lat="46.0291083" lon="13.5256867"><ele>178.8</ele><time>2026-05-03T10:25:04.219Z</time></trkpt><trkpt lat="46.029155" lon="13.5258167"><ele>182.0</ele><time>2026-05-03T10:25:05.219Z</time></trkpt><trkpt lat="46.0291767" lon="13.52597"><ele>175.75</ele><time>2026-05-03T10:25:06.219Z</time></trkpt><trkpt lat="46.029205" lon="13.526145"><ele>169.5</ele><time>2026-05-03T10:25:07.219Z</time></trkpt><trkpt lat="46.0292417" lon="13.5263083"><ele>163.25</ele><time>2026-05-03T10:25:08.219Z</time></trkpt><trkpt lat="46.0292967" lon="13.526455"><ele>157.0</ele><time>2026-05-03T10:25:09.219Z</time></trkpt><trkpt lat="46.0293683" lon="13.5265867"><ele>157.0</ele><time>2026-05-03T10:25:10.219Z</time></trkpt><trkpt lat="46.02946" lon="13.5267267"><ele>157.0</ele><time>2026-05-03T10:25:11.219Z</time></trkpt><trkpt lat="46.0295617" lon="13.5268717"><ele>157.0</ele><time>2026-05-03T10:25:12.219Z</time></trkpt><trkpt lat="46.0296767" lon="13.5270283"><ele>157.0</ele><time>2026-05-03T10:25:13.219Z</time></trkpt><trkpt lat="46.0297883" lon="13.52718"><ele>160.66666666666669</ele><time>2026-05-03T10:25:14.219Z</time></trkpt><trkpt lat="46.0299" lon="13.52733"><ele>164.33333333333334</ele><time>2026-05-03T10:25:15.219Z</time></trkpt><trkpt lat="46.0300033" lon="13.5274917"><ele>168.0</ele><time>2026-05-03T10:25:16.219Z</time></trkpt><trkpt lat="46.0300917" lon="13.5276633"><ele>162.75</ele><time>2026-05-03T10:25:17.219Z</time></trkpt><trkpt lat="46.03017" lon="13.5278483"><ele>157.5</ele><time>2026-05-03T10:25:18.219Z</time></trkpt><trkpt lat="46.0302133" lon="13.5280233"><ele>152.25</ele><time>2026-05-03T10:25:19.219Z</time></trkpt><trkpt lat="46.03023" lon="13.528195"><ele>147.0</ele><time>2026-05-03T10:25:20.219Z</time></trkpt><trkpt lat="46.0302433" lon="13.528335"><ele>147.0</ele><time>2026-05-03T10:25:21.219Z</time></trkpt><trkpt lat="46.0302933" lon="13.5284567"><ele>147.0</ele><time>2026-05-03T10:25:22.219Z</time></trkpt><trkpt lat="46.030365" lon="13.52853"><ele>147.0</ele><time>2026-05-03T10:25:23.219Z</time></trkpt><trkpt lat="46.0304533" lon="13.528555"><ele>147.0</ele><time>2026-05-03T10:25:24.219Z</time></trkpt><trkpt lat="46.0305417" lon="13.528535"><ele>147.0</ele><time>2026-05-03T10:25:25.219Z</time></trkpt><trkpt lat="46.0306117" lon="13.5284717"><ele>147.0</ele><time>2026-05-03T10:25:26.219Z</time></trkpt><trkpt lat="46.030655" lon="13.5283483"><ele>147.0</ele><time>2026-05-03T10:25:27.219Z</time></trkpt><trkpt lat="46.0306667" lon="13.5281983"><ele>147.0</ele><time>2026-05-03T10:25:28.219Z</time></trkpt><trkpt lat="46.0306417" lon="13.5280283"><ele>147.0</ele><time>2026-05-03T10:25:29.219Z</time></trkpt><trkpt lat="46.030595" lon="13.5278267"><ele>147.0</ele><time>2026-05-03T10:25:30.219Z</time></trkpt><trkpt lat="46.0305267" lon="13.5275967"><ele>146.4</ele><time>2026-05-03T10:25:31.219Z</time></trkpt><trkpt lat="46.0304667" lon="13.5274017"><ele>145.79999999999998</ele><time>2026-05-03T10:25:32.219Z</time></trkpt><trkpt lat="46.030405" lon="13.5272633"><ele>145.2</ele><time>2026-05-03T10:25:33.219Z</time></trkpt><trkpt lat="46.0303667" lon="13.5271567"><ele>144.6</ele><time>2026-05-03T10:25:34.219Z</time></trkpt><trkpt lat="46.0303817" lon="13.5270183"><ele>144.0</ele><time>2026-05-03T10:25:36.219Z</time></trkpt><trkpt lat="46.0304683" lon="13.52707"><ele>143.8</ele><time>2026-05-03T10:25:38.219Z</time></trkpt><trkpt lat="46.0305367" lon="13.5271833"><ele>143.60000000000002</ele><time>2026-05-03T10:25:39.219Z</time></trkpt><trkpt lat="46.0306067" lon="13.5272817"><ele>143.4</ele><time>2026-05-03T10:25:40.219Z</time></trkpt><trkpt lat="46.0306917" lon="13.5274017"><ele>143.20000000000002</ele><time>2026-05-03T10:25:41.219Z</time></trkpt><trkpt lat="46.0307617" lon="13.5275483"><ele>143.0</ele><time>2026-05-03T10:25:42.219Z</time></trkpt><trkpt lat="46.0308133" lon="13.527705"><ele>146.60000000000002</ele><time>2026-05-03T10:25:43.219Z</time></trkpt><trkpt lat="46.0308683" lon="13.527845"><ele>150.20000000000002</ele><time>2026-05-03T10:25:44.219Z</time></trkpt><trkpt lat="46.0309433" lon="13.52794"><ele>153.8</ele><time>2026-05-03T10:25:45.22Z</time></trkpt><trkpt lat="46.0310367" lon="13.527985"><ele>157.4</ele><time>2026-05-03T10:25:46.219Z</time></trkpt><trkpt lat="46.0311417" lon="13.5279883"><ele>161.0</ele><time>2026-05-03T10:25:47.219Z</time></trkpt><trkpt lat="46.03126" lon="13.5279833"><ele>161.0</ele><time>2026-05-03T10:25:48.219Z</time></trkpt><trkpt lat="46.031385" lon="13.5279833"><ele>161.0</ele><time>2026-05-03T10:25:49.219Z</time></trkpt><trkpt lat="46.031525" lon="13.527985"><ele>161.0</ele><time>2026-05-03T10:25:50.219Z</time></trkpt><trkpt lat="46.0316683" lon="13.5280117"><ele>161.0</ele><time>2026-05-03T10:25:51.219Z</time></trkpt><trkpt lat="46.031805" lon="13.528055"><ele>163.75</ele><time>2026-05-03T10:25:52.219Z</time></trkpt><trkpt lat="46.03195" lon="13.5281"><ele>166.5</ele><time>2026-05-03T10:25:53.219Z</time></trkpt><trkpt lat="46.032085" lon="13.528175"><ele>169.25</ele><time>2026-05-03T10:25:54.219Z</time></trkpt><trkpt lat="46.032215" lon="13.5282433"><ele>172.0</ele><time>2026-05-03T10:25:55.22Z</time></trkpt><trkpt lat="46.03234" lon="13.528285"><ele>172.0</ele><time>2026-05-03T10:25:56.219Z</time></trkpt><trkpt lat="46.03245" lon="13.5283217"><ele>172.0</ele><time>2026-05-03T10:25:57.219Z</time></trkpt><trkpt lat="46.0325317" lon="13.5283717"><ele>172.0</ele><time>2026-05-03T10:25:58.219Z</time></trkpt><trkpt lat="46.03258" lon="13.52845"><ele>172.0</ele><time>2026-05-03T10:25:59.219Z</time></trkpt><trkpt lat="46.0325117" lon="13.52859"><ele>172.0</ele><time>2026-05-03T10:26:01.219Z</time></trkpt><trkpt lat="46.0324367" lon="13.5286467"><ele>172.0</ele><time>2026-05-03T10:26:02.219Z</time></trkpt><trkpt lat="46.0323417" lon="13.5287"><ele>172.0</ele><time>2026-05-03T10:26:03.219Z</time></trkpt><trkpt lat="46.0322283" lon="13.5287483"><ele>172.0</ele><time>2026-05-03T10:26:04.219Z</time></trkpt><trkpt lat="46.0321067" lon="13.528785"><ele>172.0</ele><time>2026-05-03T10:26:05.219Z</time></trkpt><trkpt lat="46.0319767" lon="13.5288233"><ele>170.75</ele><time>2026-05-03T10:26:06.219Z</time></trkpt><trkpt lat="46.0318467" lon="13.5288667"><ele>169.5</ele><time>2026-05-03T10:26:07.219Z</time></trkpt><trkpt lat="46.0317117" lon="13.5289033"><ele>168.25</ele><time>2026-05-03T10:26:08.219Z</time></trkpt><trkpt lat="46.0315733" lon="13.52895"><ele>167.0</ele><time>2026-05-03T10:26:09.219Z</time></trkpt><trkpt lat="46.031445" lon="13.5289967"><ele>167.0</ele><time>2026-05-03T10:26:10.219Z</time></trkpt><trkpt lat="46.031345" lon="13.52904"><ele>167.0</ele><time>2026-05-03T10:26:11.219Z</time></trkpt><trkpt lat="46.0312583" lon="13.5290833"><ele>167.0</ele><time>2026-05-03T10:26:12.219Z</time></trkpt><trkpt lat="46.0311883" lon="13.529145"><ele>167.0</ele><time>2026-05-03T10:26:13.219Z</time></trkpt><trkpt lat="46.03115" lon="13.5292483"><ele>167.0</ele><time>2026-05-03T10:26:14.219Z</time></trkpt><trkpt lat="46.0311467" lon="13.529355"><ele>167.0</ele><time>2026-05-03T10:26:15.219Z</time></trkpt><trkpt lat="46.03119" lon="13.5294517"><ele>167.0</ele><time>2026-05-03T10:26:16.219Z</time></trkpt><trkpt lat="46.0312583" lon="13.5295133"><ele>167.0</ele><time>2026-05-03T10:26:17.219Z</time></trkpt><trkpt lat="46.031355" lon="13.5295467"><ele>167.0</ele><time>2026-05-03T10:26:18.219Z</time></trkpt><trkpt lat="46.0314683" lon="13.5295467"><ele>167.0</ele><time>2026-05-03T10:26:19.219Z</time></trkpt><trkpt lat="46.0315967" lon="13.5295183"><ele>167.0</ele><time>2026-05-03T10:26:20.219Z</time></trkpt><trkpt lat="46.03173" lon="13.529495"><ele>170.75</ele><time>2026-05-03T10:26:21.219Z</time></trkpt><trkpt lat="46.0318567" lon="13.5295067"><ele>174.5</ele><time>2026-05-03T10:26:22.219Z</time></trkpt><trkpt lat="46.0319817" lon="13.5295167"><ele>178.25</ele><time>2026-05-03T10:26:23.219Z</time></trkpt><trkpt lat="46.0321083" lon="13.52955"><ele>182.0</ele><time>2026-05-03T10:26:24.219Z</time></trkpt><trkpt lat="46.0322317" lon="13.5295867"><ele>182.0</ele><time>2026-05-03T10:26:25.219Z</time></trkpt><trkpt lat="46.0323467" lon="13.5296333"><ele>182.0</ele><time>2026-05-03T10:26:26.219Z</time></trkpt><trkpt lat="46.03246" lon="13.5296883"><ele>182.0</ele><time>2026-05-03T10:26:27.219Z</time></trkpt><trkpt lat="46.03257" lon="13.5297417"><ele>182.0</ele><time>2026-05-03T10:26:28.219Z</time></trkpt><trkpt lat="46.0326617" lon="13.529805"><ele>184.8</ele><time>2026-05-03T10:26:29.219Z</time></trkpt><trkpt lat="46.0327367" lon="13.5298483"><ele>187.6</ele><time>2026-05-03T10:26:30.219Z</time></trkpt><trkpt lat="46.03279" lon="13.5298967"><ele>190.4</ele><time>2026-05-03T10:26:31.219Z</time></trkpt><trkpt lat="46.0328717" lon="13.5300183"><ele>193.20000000000002</ele><time>2026-05-03T10:26:33.219Z</time></trkpt><trkpt lat="46.0329217" lon="13.5301817"><ele>196.0</ele><time>2026-05-03T10:26:35.219Z</time></trkpt><trkpt lat="46.032945" lon="13.5303067"><ele>195.0</ele><time>2026-05-03T10:26:36.219Z</time></trkpt><trkpt lat="46.0329733" lon="13.5304483"><ele>194.0</ele><time>2026-05-03T10:26:37.219Z</time></trkpt><trkpt lat="46.033005" lon="13.5305767"><ele>193.0</ele><time>2026-05-03T10:26:38.219Z</time></trkpt><trkpt lat="46.03306" lon="13.53069"><ele>192.0</ele><time>2026-05-03T10:26:39.219Z</time></trkpt><trkpt lat="46.0331367" lon="13.5308017"><ele>191.0</ele><time>2026-05-03T10:26:40.219Z</time></trkpt><trkpt lat="46.0332283" lon="13.530905"><ele>194.75</ele><time>2026-05-03T10:26:41.22Z</time></trkpt><trkpt lat="46.0333383" lon="13.5309917"><ele>198.5</ele><time>2026-05-03T10:26:42.219Z</time></trkpt><trkpt lat="46.0334483" lon="13.5310883"><ele>202.25</ele><time>2026-05-03T10:26:43.219Z</time></trkpt><trkpt lat="46.03354" lon="13.531175"><ele>206.0</ele><time>2026-05-03T10:26:44.219Z</time></trkpt><trkpt lat="46.0336267" lon="13.5312533"><ele>206.00000000000003</ele><time>2026-05-03T10:26:45.219Z</time></trkpt><trkpt lat="46.0336983" lon="13.531325"><ele>206.0</ele><time>2026-05-03T10:26:46.219Z</time></trkpt><trkpt lat="46.033755" lon="13.5313983"><ele>206.0</ele><time>2026-05-03T10:26:47.219Z</time></trkpt><trkpt lat="46.0338183" lon="13.5315133"><ele>206.0</ele><time>2026-05-03T10:26:49.219Z</time></trkpt><trkpt lat="46.033845" lon="13.5316067"><ele>206.00000000000003</ele><time>2026-05-03T10:26:51.219Z</time></trkpt><trkpt lat="46.0338667" lon="13.53173"><ele>206.0</ele><time>2026-05-03T10:26:54.219Z</time></trkpt><trkpt lat="46.0338933" lon="13.53184"><ele>206.0</ele><time>2026-05-03T10:26:56.219Z</time></trkpt><trkpt lat="46.033935" lon="13.5319733"><ele>206.0</ele><time>2026-05-03T10:26:58.219Z</time></trkpt><trkpt lat="46.0339933" lon="13.5321017"><ele>206.0</ele><time>2026-05-03T10:27:00.219Z</time></trkpt><trkpt lat="46.0340417" lon="13.53228"><ele>206.0</ele><time>2026-05-03T10:27:02.219Z</time></trkpt><trkpt lat="46.0340433" lon="13.5323717"><ele>206.0</ele><time>2026-05-03T10:27:03.219Z</time></trkpt><trkpt lat="46.0340017" lon="13.5324933"><ele>210.20000000000002</ele><time>2026-05-03T10:27:05.219Z</time></trkpt><trkpt lat="46.0338867" lon="13.5325083"><ele>214.4</ele><time>2026-05-03T10:27:07.219Z</time></trkpt><trkpt lat="46.0337933" lon="13.53242"><ele>218.6</ele><time>2026-05-03T10:27:08.219Z</time></trkpt><trkpt lat="46.033705" lon="13.53233"><ele>222.8</ele><time>2026-05-03T10:27:09.219Z</time></trkpt><trkpt lat="46.0336133" lon="13.532255"><ele>227.0</ele><time>2026-05-03T10:27:10.219Z</time></trkpt><trkpt lat="46.0335183" lon="13.532185"><ele>227.0</ele><time>2026-05-03T10:27:11.219Z</time></trkpt><trkpt lat="46.0334183" lon="13.532115"><ele>227.0</ele><time>2026-05-03T10:27:12.22Z</time></trkpt><trkpt lat="46.0333167" lon="13.5320667"><ele>227.0</ele><time>2026-05-03T10:27:13.219Z</time></trkpt><trkpt lat="46.0332183" lon="13.5320083"><ele>227.0</ele><time>2026-05-03T10:27:14.219Z</time></trkpt><trkpt lat="46.0331183" lon="13.531935"><ele>227.0</ele><time>2026-05-03T10:27:15.219Z</time></trkpt><trkpt lat="46.0330133" lon="13.531865"><ele>223.6</ele><time>2026-05-03T10:27:16.219Z</time></trkpt><trkpt lat="46.0329" lon="13.5318017"><ele>220.2</ele><time>2026-05-03T10:27:17.219Z</time></trkpt><trkpt lat="46.0327883" lon="13.5317367"><ele>216.8</ele><time>2026-05-03T10:27:18.219Z</time></trkpt><trkpt lat="46.0327033" lon="13.5316833"><ele>213.4</ele><time>2026-05-03T10:27:19.219Z</time></trkpt><trkpt lat="46.0326317" lon="13.5316617"><ele>210.0</ele><time>2026-05-03T10:27:20.219Z</time></trkpt><trkpt lat="46.03257" lon="13.5316867"><ele>210.0</ele><time>2026-05-03T10:27:21.219Z</time></trkpt><trkpt lat="46.0326033" lon="13.531805"><ele>210.0</ele><time>2026-05-03T10:27:23.219Z</time></trkpt><trkpt lat="46.0327383" lon="13.5318917"><ele>210.0</ele><time>2026-05-03T10:27:25.219Z</time></trkpt><trkpt lat="46.0328167" lon="13.53197"><ele>210.0</ele><time>2026-05-03T10:27:26.219Z</time></trkpt><trkpt lat="46.0329083" lon="13.5320767"><ele>214.5</ele><time>2026-05-03T10:27:27.219Z</time></trkpt><trkpt lat="46.033" lon="13.5322067"><ele>219.0</ele><time>2026-05-03T10:27:28.219Z</time></trkpt><trkpt lat="46.0330967" lon="13.5323383"><ele>223.5</ele><time>2026-05-03T10:27:29.219Z</time></trkpt><trkpt lat="46.033195" lon="13.5324533"><ele>228.0</ele><time>2026-05-03T10:27:30.219Z</time></trkpt><trkpt lat="46.0332917" lon="13.5325867"><ele>227.75</ele><time>2026-05-03T10:27:31.219Z</time></trkpt><trkpt lat="46.0333867" lon="13.5327233"><ele>227.5</ele><time>2026-05-03T10:27:32.219Z</time></trkpt><trkpt lat="46.0334683" lon="13.5328833"><ele>227.25</ele><time>2026-05-03T10:27:33.219Z</time></trkpt><trkpt lat="46.0335667" lon="13.53306"><ele>227.0</ele><time>2026-05-03T10:27:34.219Z</time></trkpt><trkpt lat="46.0336567" lon="13.5332233"><ele>232.5</ele><time>2026-05-03T10:27:35.219Z</time></trkpt><trkpt lat="46.0337333" lon="13.53339"><ele>238.0</ele><time>2026-05-03T10:27:36.219Z</time></trkpt><trkpt lat="46.033825" lon="13.5335717"><ele>243.5</ele><time>2026-05-03T10:27:37.219Z</time></trkpt><trkpt lat="46.0339083" lon="13.533755"><ele>249.0</ele><time>2026-05-03T10:27:38.219Z</time></trkpt><trkpt lat="46.0339867" lon="13.5339483"><ele>250.0</ele><time>2026-05-03T10:27:39.219Z</time></trkpt><trkpt lat="46.03407" lon="13.5341433"><ele>251.0</ele><time>2026-05-03T10:27:40.219Z</time></trkpt><trkpt lat="46.0341483" lon="13.5343367"><ele>252.0</ele><time>2026-05-03T10:27:41.219Z</time></trkpt><trkpt lat="46.03424" lon="13.53452"><ele>260.0</ele><time>2026-05-03T10:27:42.219Z</time></trkpt><trkpt lat="46.0343433" lon="13.5346917"><ele>268.0</ele><time>2026-05-03T10:27:43.219Z</time></trkpt><trkpt lat="46.0344617" lon="13.5348317"><ele>276.0</ele><time>2026-05-03T10:27:44.219Z</time></trkpt><trkpt lat="46.03459" lon="13.5349717"><ele>276.0</ele><time>2026-05-03T10:27:45.219Z</time></trkpt><trkpt lat="46.0347033" lon="13.535115"><ele>276.0</ele><time>2026-05-03T10:27:46.219Z</time></trkpt><trkpt lat="46.034815" lon="13.53525"><ele>276.0</ele><time>2026-05-03T10:27:47.219Z</time></trkpt><trkpt lat="46.0349217" lon="13.5353733"><ele>276.0</ele><time>2026-05-03T10:27:48.219Z</time></trkpt><trkpt lat="46.0350333" lon="13.5354667"><ele>277.5</ele><time>2026-05-03T10:27:49.219Z</time></trkpt><trkpt lat="46.03513" lon="13.5355733"><ele>279.0</ele><time>2026-05-03T10:27:50.219Z</time></trkpt><trkpt lat="46.035205" lon="13.5356867"><ele>280.5</ele><time>2026-05-03T10:27:51.219Z</time></trkpt><trkpt lat="46.0352617" lon="13.5358217"><ele>282.0</ele><time>2026-05-03T10:27:52.219Z</time></trkpt><trkpt lat="46.035315" lon="13.5359683"><ele>282.0</ele><time>2026-05-03T10:27:53.219Z</time></trkpt><trkpt lat="46.0353717" lon="13.5361083"><ele>282.0</ele><time>2026-05-03T10:27:54.219Z</time></trkpt><trkpt lat="46.0354383" lon="13.5362433"><ele>282.0</ele><time>2026-05-03T10:27:55.219Z</time></trkpt><trkpt lat="46.0355067" lon="13.5363717"><ele>282.0</ele><time>2026-05-03T10:27:56.219Z</time></trkpt><trkpt lat="46.0355833" lon="13.5365067"><ele>288.5</ele><time>2026-05-03T10:27:57.219Z</time></trkpt><trkpt lat="46.03563" lon="13.5366483"><ele>295.0</ele><time>2026-05-03T10:27:58.219Z</time></trkpt><trkpt lat="46.03566" lon="13.5368083"><ele>301.5</ele><time>2026-05-03T10:27:59.219Z</time></trkpt><trkpt lat="46.035675" lon="13.5370033"><ele>308.0</ele><time>2026-05-03T10:28:00.219Z</time></trkpt><trkpt lat="46.0356983" lon="13.537205"><ele>309.75</ele><time>2026-05-03T10:28:01.219Z</time></trkpt><trkpt lat="46.0357183" lon="13.5374017"><ele>311.5</ele><time>2026-05-03T10:28:02.219Z</time></trkpt><trkpt lat="46.0357267" lon="13.537575"><ele>313.25</ele><time>2026-05-03T10:28:03.219Z</time></trkpt><trkpt lat="46.035715" lon="13.5377433"><ele>315.0</ele><time>2026-05-03T10:28:04.219Z</time></trkpt><trkpt lat="46.0356917" lon="13.5379017"><ele>315.0</ele><time>2026-05-03T10:28:05.219Z</time></trkpt><trkpt lat="46.0356567" lon="13.5380667"><ele>315.0</ele><time>2026-05-03T10:28:06.219Z</time></trkpt><trkpt lat="46.0356367" lon="13.5382483"><ele>315.0</ele><time>2026-05-03T10:28:07.219Z</time></trkpt><trkpt lat="46.0356233" lon="13.538445"><ele>315.0</ele><time>2026-05-03T10:28:08.219Z</time></trkpt><trkpt lat="46.0356067" lon="13.5386467"><ele>311.6666666666667</ele><time>2026-05-03T10:28:09.219Z</time></trkpt><trkpt lat="46.035585" lon="13.5388633"><ele>308.33333333333337</ele><time>2026-05-03T10:28:10.219Z</time></trkpt><trkpt lat="46.03556" lon="13.539085"><ele>305.0</ele><time>2026-05-03T10:28:11.219Z</time></trkpt><trkpt lat="46.0355117" lon="13.5393233"><ele>304.6666666666667</ele><time>2026-05-03T10:28:12.219Z</time></trkpt><trkpt lat="46.0354633" lon="13.53957"><ele>304.3333333333333</ele><time>2026-05-03T10:28:13.219Z</time></trkpt><trkpt lat="46.03541" lon="13.53982"><ele>304.0</ele><time>2026-05-03T10:28:14.219Z</time></trkpt><trkpt lat="46.035375" lon="13.540055"><ele>304.0</ele><time>2026-05-03T10:28:15.219Z</time></trkpt><trkpt lat="46.0353383" lon="13.5402783"><ele>304.0</ele><time>2026-05-03T10:28:16.219Z</time></trkpt><trkpt lat="46.0352717" lon="13.5404983"><ele>304.0</ele><time>2026-05-03T10:28:17.219Z</time></trkpt><trkpt lat="46.0352317" lon="13.5407133"><ele>304.25</ele><time>2026-05-03T10:28:18.219Z</time></trkpt><trkpt lat="46.03522" lon="13.5409317"><ele>304.5</ele><time>2026-05-03T10:28:19.219Z</time></trkpt><trkpt lat="46.0352333" lon="13.54113"><ele>304.75</ele><time>2026-05-03T10:28:20.219Z</time></trkpt><trkpt lat="46.035245" lon="13.5413033"><ele>305.0</ele><time>2026-05-03T10:28:21.219Z</time></trkpt><trkpt lat="46.03526" lon="13.5414817"><ele>305.5</ele><time>2026-05-03T10:28:22.219Z</time></trkpt><trkpt lat="46.0352917" lon="13.5416583"><ele>306.0</ele><time>2026-05-03T10:28:23.219Z</time></trkpt><trkpt lat="46.03534" lon="13.5418433"><ele>306.5</ele><time>2026-05-03T10:28:24.219Z</time></trkpt><trkpt lat="46.0353883" lon="13.5420217"><ele>307.0</ele><time>2026-05-03T10:28:25.219Z</time></trkpt><trkpt lat="46.0354517" lon="13.542195"><ele>307.25</ele><time>2026-05-03T10:28:26.219Z</time></trkpt><trkpt lat="46.0355333" lon="13.54237"><ele>307.5</ele><time>2026-05-03T10:28:27.219Z</time></trkpt><trkpt lat="46.0356117" lon="13.54256"><ele>307.75</ele><time>2026-05-03T10:28:28.219Z</time></trkpt><trkpt lat="46.0356567" lon="13.5427517"><ele>308.0</ele><time>2026-05-03T10:28:29.22Z</time></trkpt><trkpt lat="46.0356883" lon="13.5429517"><ele>306.0</ele><time>2026-05-03T10:28:30.219Z</time></trkpt><trkpt lat="46.0357267" lon="13.5431317"><ele>304.0</ele><time>2026-05-03T10:28:31.219Z</time></trkpt><trkpt lat="46.0357967" lon="13.5432883"><ele>302.0</ele><time>2026-05-03T10:28:32.219Z</time></trkpt><trkpt lat="46.035895" lon="13.5434117"><ele>300.0</ele><time>2026-05-03T10:28:33.219Z</time></trkpt><trkpt lat="46.0360117" lon="13.5434883"><ele>306.25</ele><time>2026-05-03T10:28:34.219Z</time></trkpt><trkpt lat="46.0361333" lon="13.5435283"><ele>312.5</ele><time>2026-05-03T10:28:35.219Z</time></trkpt><trkpt lat="46.0362767" lon="13.543535"><ele>318.75</ele><time>2026-05-03T10:28:36.22Z</time></trkpt><trkpt lat="46.036415" lon="13.5435083"><ele>325.0</ele><time>2026-05-03T10:28:37.219Z</time></trkpt><trkpt lat="46.0365483" lon="13.5434533"><ele>328.0</ele><time>2026-05-03T10:28:38.219Z</time></trkpt><trkpt lat="46.0366617" lon="13.543405"><ele>331.0</ele><time>2026-05-03T10:28:39.219Z</time></trkpt><trkpt lat="46.0367683" lon="13.5433467"><ele>334.0</ele><time>2026-05-03T10:28:40.219Z</time></trkpt><trkpt lat="46.0368583" lon="13.5432617"><ele>337.0</ele><time>2026-05-03T10:28:41.219Z</time></trkpt><trkpt lat="46.0369067" lon="13.543155"><ele>340.0</ele><time>2026-05-03T10:28:42.219Z</time></trkpt><trkpt lat="46.03692" lon="13.54305"><ele>340.0</ele><time>2026-05-03T10:28:43.219Z</time></trkpt><trkpt lat="46.0368983" lon="13.5429533"><ele>340.0</ele><time>2026-05-03T10:28:44.219Z</time></trkpt><trkpt lat="46.03686" lon="13.5428617"><ele>340.0</ele><time>2026-05-03T10:28:45.219Z</time></trkpt><trkpt lat="46.036865" lon="13.5427283"><ele>340.0</ele><time>2026-05-03T10:28:47.219Z</time></trkpt><trkpt lat="46.0369433" lon="13.5427917"><ele>340.0</ele><time>2026-05-03T10:28:49.219Z</time></trkpt><trkpt lat="46.0369767" lon="13.5428867"><ele>340.0</ele><time>2026-05-03T10:28:50.219Z</time></trkpt><trkpt lat="46.0370167" lon="13.54301"><ele>340.0</ele><time>2026-05-03T10:28:51.219Z</time></trkpt><trkpt lat="46.0370683" lon="13.5431167"><ele>340.0</ele><time>2026-05-03T10:28:52.219Z</time></trkpt><trkpt lat="46.03716" lon="13.5431867"><ele>340.0</ele><time>2026-05-03T10:28:54.219Z</time></trkpt><trkpt lat="46.03719" lon="13.5430533"><ele>340.0</ele><time>2026-05-03T10:28:56.219Z</time></trkpt><trkpt lat="46.0372133" lon="13.5429517"><ele>340.0</ele><time>2026-05-03T10:28:57.219Z</time></trkpt><trkpt lat="46.0372433" lon="13.5428617"><ele>340.0</ele><time>2026-05-03T10:28:58.219Z</time></trkpt><trkpt lat="46.037295" lon="13.5427983"><ele>340.0</ele><time>2026-05-03T10:28:59.219Z</time></trkpt><trkpt lat="46.0374117" lon="13.5429617"><ele>340.0</ele><time>2026-05-03T10:29:01.219Z</time></trkpt><trkpt lat="46.0374567" lon="13.5431317"><ele>340.0</ele><time>2026-05-03T10:29:02.219Z</time></trkpt><trkpt lat="46.0374967" lon="13.543305"><ele>340.0</ele><time>2026-05-03T10:29:03.219Z</time></trkpt><trkpt lat="46.0375417" lon="13.543475"><ele>344.25</ele><time>2026-05-03T10:29:04.219Z</time></trkpt><trkpt lat="46.0375967" lon="13.5436317"><ele>348.5</ele><time>2026-05-03T10:29:05.219Z</time></trkpt><trkpt lat="46.0376683" lon="13.5437733"><ele>352.75</ele><time>2026-05-03T10:29:06.219Z</time></trkpt><trkpt lat="46.037755" lon="13.5438983"><ele>357.0</ele><time>2026-05-03T10:29:07.219Z</time></trkpt><trkpt lat="46.0378267" lon="13.5440267"><ele>358.25</ele><time>2026-05-03T10:29:08.219Z</time></trkpt><trkpt lat="46.0378567" lon="13.5441883"><ele>359.5</ele><time>2026-05-03T10:29:09.219Z</time></trkpt><trkpt lat="46.0378633" lon="13.5443767"><ele>360.75</ele><time>2026-05-03T10:29:10.219Z</time></trkpt><trkpt lat="46.0378567" lon="13.5445817"><ele>362.0</ele><time>2026-05-03T10:29:11.219Z</time></trkpt><trkpt lat="46.037835" lon="13.5447967"><ele>363.0</ele><time>2026-05-03T10:29:12.219Z</time></trkpt><trkpt lat="46.0378117" lon="13.5450017"><ele>364.0</ele><time>2026-05-03T10:29:13.219Z</time></trkpt><trkpt lat="46.0377767" lon="13.545185"><ele>365.0</ele><time>2026-05-03T10:29:14.219Z</time></trkpt><trkpt lat="46.0377083" lon="13.545355"><ele>366.0</ele><time>2026-05-03T10:29:15.219Z</time></trkpt><trkpt lat="46.0376267" lon="13.5455183"><ele>367.0</ele><time>2026-05-03T10:29:16.219Z</time></trkpt><trkpt lat="46.0375583" lon="13.5457017"><ele>368.0</ele><time>2026-05-03T10:29:17.219Z</time></trkpt><trkpt lat="46.037505" lon="13.5458883"><ele>369.0</ele><time>2026-05-03T10:29:18.219Z</time></trkpt><trkpt lat="46.0374567" lon="13.54607"><ele>370.0</ele><time>2026-05-03T10:29:19.219Z</time></trkpt><trkpt lat="46.0374133" lon="13.54626"><ele>371.25</ele><time>2026-05-03T10:29:20.219Z</time></trkpt><trkpt lat="46.037375" lon="13.5464517"><ele>372.5</ele><time>2026-05-03T10:29:21.219Z</time></trkpt><trkpt lat="46.03735" lon="13.5466483"><ele>373.75</ele><time>2026-05-03T10:29:22.219Z</time></trkpt><trkpt lat="46.03733" lon="13.546845"><ele>375.0</ele><time>2026-05-03T10:29:23.219Z</time></trkpt><trkpt lat="46.0373033" lon="13.547035"><ele>374.0</ele><time>2026-05-03T10:29:24.219Z</time></trkpt><trkpt lat="46.0372917" lon="13.5472117"><ele>373.0</ele><time>2026-05-03T10:29:25.219Z</time></trkpt><trkpt lat="46.0373133" lon="13.5473617"><ele>372.0</ele><time>2026-05-03T10:29:26.219Z</time></trkpt><trkpt lat="46.03738" lon="13.5475033"><ele>371.0</ele><time>2026-05-03T10:29:27.219Z</time></trkpt><trkpt lat="46.0374733" lon="13.5476583"><ele>373.5</ele><time>2026-05-03T10:29:28.219Z</time></trkpt><trkpt lat="46.037545" lon="13.54782"><ele>376.0</ele><time>2026-05-03T10:29:29.219Z</time></trkpt><trkpt lat="46.0376317" lon="13.54799"><ele>378.5</ele><time>2026-05-03T10:29:30.219Z</time></trkpt><trkpt lat="46.0377" lon="13.5481733"><ele>381.0</ele><time>2026-05-03T10:29:31.219Z</time></trkpt><trkpt lat="46.03776" lon="13.5483733"><ele>383.5</ele><time>2026-05-03T10:29:32.219Z</time></trkpt><trkpt lat="46.0377967" lon="13.5485867"><ele>386.0</ele><time>2026-05-03T10:29:33.219Z</time></trkpt><trkpt lat="46.037815" lon="13.5487883"><ele>388.5</ele><time>2026-05-03T10:29:34.219Z</time></trkpt><trkpt lat="46.0378467" lon="13.548955"><ele>391.0</ele><time>2026-05-03T10:29:35.22Z</time></trkpt><trkpt lat="46.0379067" lon="13.5490983"><ele>391.5</ele><time>2026-05-03T10:29:36.219Z</time></trkpt><trkpt lat="46.0380033" lon="13.5492067"><ele>392.0</ele><time>2026-05-03T10:29:37.219Z</time></trkpt><trkpt lat="46.0381267" lon="13.54928"><ele>392.5</ele><time>2026-05-03T10:29:38.219Z</time></trkpt><trkpt lat="46.0382467" lon="13.549355"><ele>393.0</ele><time>2026-05-03T10:29:39.219Z</time></trkpt><trkpt lat="46.03837" lon="13.5494117"><ele>393.59999999999997</ele><time>2026-05-03T10:29:40.219Z</time></trkpt><trkpt lat="46.0384883" lon="13.549475"><ele>394.2</ele><time>2026-05-03T10:29:41.219Z</time></trkpt><trkpt lat="46.0385983" lon="13.5495167"><ele>394.8</ele><time>2026-05-03T10:29:42.219Z</time></trkpt><trkpt lat="46.0386917" lon="13.549555"><ele>395.4</ele><time>2026-05-03T10:29:43.219Z</time></trkpt><trkpt lat="46.03879" lon="13.5496133"><ele>396.0</ele><time>2026-05-03T10:29:44.219Z</time></trkpt><trkpt lat="46.0388783" lon="13.5497133"><ele>398.75</ele><time>2026-05-03T10:29:45.219Z</time></trkpt><trkpt lat="46.0389617" lon="13.5498717"><ele>401.5</ele><time>2026-05-03T10:29:46.219Z</time></trkpt><trkpt lat="46.039045" lon="13.5500567"><ele>404.25</ele><time>2026-05-03T10:29:47.219Z</time></trkpt><trkpt lat="46.0391217" lon="13.5502383"><ele>407.0</ele><time>2026-05-03T10:29:48.219Z</time></trkpt><trkpt lat="46.0392067" lon="13.5504083"><ele>408.75</ele><time>2026-05-03T10:29:49.219Z</time></trkpt><trkpt lat="46.0392683" lon="13.5505517"><ele>410.5</ele><time>2026-05-03T10:29:50.219Z</time></trkpt><trkpt lat="46.03931" lon="13.5507183"><ele>412.25</ele><time>2026-05-03T10:29:51.219Z</time></trkpt><trkpt lat="46.0393617" lon="13.5508983"><ele>414.0</ele><time>2026-05-03T10:29:52.219Z</time></trkpt><trkpt lat="46.0393883" lon="13.551065"><ele>414.25</ele><time>2026-05-03T10:29:53.219Z</time></trkpt><trkpt lat="46.03942" lon="13.5512367"><ele>414.5</ele><time>2026-05-03T10:29:54.219Z</time></trkpt><trkpt lat="46.039445" lon="13.5514067"><ele>414.75</ele><time>2026-05-03T10:29:55.219Z</time></trkpt><trkpt lat="46.0394517" lon="13.5515833"><ele>415.0</ele><time>2026-05-03T10:29:56.219Z</time></trkpt><trkpt lat="46.03944" lon="13.5517583"><ele>415.0</ele><time>2026-05-03T10:29:57.219Z</time></trkpt><trkpt lat="46.0394033" lon="13.5519183"><ele>415.0</ele><time>2026-05-03T10:29:58.22Z</time></trkpt><trkpt lat="46.0393767" lon="13.552065"><ele>415.0</ele><time>2026-05-03T10:29:59.219Z</time></trkpt><trkpt lat="46.0393867" lon="13.5522033"><ele>415.0</ele><time>2026-05-03T10:30:00.219Z</time></trkpt><trkpt lat="46.0394317" lon="13.55234"><ele>415.0</ele><time>2026-05-03T10:30:01.219Z</time></trkpt><trkpt lat="46.0395133" lon="13.5524867"><ele>415.25</ele><time>2026-05-03T10:30:02.219Z</time></trkpt><trkpt lat="46.0396067" lon="13.5526383"><ele>415.5</ele><time>2026-05-03T10:30:03.219Z</time></trkpt><trkpt lat="46.03969" lon="13.55279"><ele>415.75</ele><time>2026-05-03T10:30:04.219Z</time></trkpt><trkpt lat="46.0397583" lon="13.5529433"><ele>416.0</ele><time>2026-05-03T10:30:05.219Z</time></trkpt><trkpt lat="46.0398117" lon="13.553085"><ele>416.0</ele><time>2026-05-03T10:30:06.219Z</time></trkpt><trkpt lat="46.03987" lon="13.5532067"><ele>416.0</ele><time>2026-05-03T10:30:07.219Z</time></trkpt><trkpt lat="46.0399417" lon="13.5533"><ele>416.0</ele><time>2026-05-03T10:30:08.219Z</time></trkpt><trkpt lat="46.04001" lon="13.55339"><ele>416.0</ele><time>2026-05-03T10:30:09.219Z</time></trkpt><trkpt lat="46.0400817" lon="13.5535117"><ele>416.0</ele><time>2026-05-03T10:30:10.219Z</time></trkpt><trkpt lat="46.040145" lon="13.5536683"><ele>416.0</ele><time>2026-05-03T10:30:11.219Z</time></trkpt><trkpt lat="46.0401933" lon="13.5538367"><ele>416.0</ele><time>2026-05-03T10:30:12.218Z</time></trkpt><trkpt lat="46.0402417" lon="13.55402"><ele>416.0</ele><time>2026-05-03T10:30:13.218Z</time></trkpt><trkpt lat="46.0402967" lon="13.5542167"><ele>416.0</ele><time>2026-05-03T10:30:14.218Z</time></trkpt><trkpt lat="46.0403383" lon="13.5544233"><ele>411.0</ele><time>2026-05-03T10:30:15.218Z</time></trkpt><trkpt lat="46.0403833" lon="13.5546467"><ele>406.0</ele><time>2026-05-03T10:30:16.218Z</time></trkpt><trkpt lat="46.0404183" lon="13.5548683"><ele>401.0</ele><time>2026-05-03T10:30:17.218Z</time></trkpt><trkpt lat="46.040455" lon="13.5550733"><ele>401.0</ele><time>2026-05-03T10:30:18.218Z</time></trkpt><trkpt lat="46.04049" lon="13.5552717"><ele>401.0</ele><time>2026-05-03T10:30:19.218Z</time></trkpt><trkpt lat="46.0405467" lon="13.5554367"><ele>401.0</ele><time>2026-05-03T10:30:20.218Z</time></trkpt><trkpt lat="46.040635" lon="13.5555533"><ele>401.0</ele><time>2026-05-03T10:30:21.218Z</time></trkpt><trkpt lat="46.0407367" lon="13.555625"><ele>406.0</ele><time>2026-05-03T10:30:22.218Z</time></trkpt><trkpt lat="46.04086" lon="13.5556817"><ele>411.0</ele><time>2026-05-03T10:30:23.218Z</time></trkpt><trkpt lat="46.04098" lon="13.5557533"><ele>416.0</ele><time>2026-05-03T10:30:24.218Z</time></trkpt><trkpt lat="46.04109" lon="13.555855"><ele>421.0</ele><time>2026-05-03T10:30:25.218Z</time></trkpt><trkpt lat="46.0411933" lon="13.5559817"><ele>421.0</ele><time>2026-05-03T10:30:26.219Z</time></trkpt><trkpt lat="46.0412817" lon="13.556095"><ele>421.0</ele><time>2026-05-03T10:30:27.218Z</time></trkpt><trkpt lat="46.0413483" lon="13.5562167"><ele>421.0</ele><time>2026-05-03T10:30:28.218Z</time></trkpt><trkpt lat="46.04138" lon="13.5563217"><ele>421.0</ele><time>2026-05-03T10:30:29.218Z</time></trkpt><trkpt lat="46.0413517" lon="13.556455"><ele>421.0</ele><time>2026-05-03T10:30:31.218Z</time></trkpt><trkpt lat="46.0412217" lon="13.5564133"><ele>421.0</ele><time>2026-05-03T10:30:33.218Z</time></trkpt><trkpt lat="46.0410917" lon="13.5562983"><ele>421.0</ele><time>2026-05-03T10:30:34.218Z</time></trkpt><trkpt lat="46.0409783" lon="13.5561967"><ele>421.0</ele><time>2026-05-03T10:30:35.219Z</time></trkpt><trkpt lat="46.0408767" lon="13.5561517"><ele>421.0</ele><time>2026-05-03T10:30:36.218Z</time></trkpt><trkpt lat="46.0408033" lon="13.5561733"><ele>422.00000000000006</ele><time>2026-05-03T10:30:37.218Z</time></trkpt><trkpt lat="46.0407533" lon="13.5562383"><ele>423.0</ele><time>2026-05-03T10:30:38.218Z</time></trkpt><trkpt lat="46.0407433" lon="13.556335"><ele>424.0</ele><time>2026-05-03T10:30:39.218Z</time></trkpt><trkpt lat="46.040765" lon="13.5564467"><ele>425.0</ele><time>2026-05-03T10:30:40.218Z</time></trkpt><trkpt lat="46.040815" lon="13.556565"><ele>426.00000000000006</ele><time>2026-05-03T10:30:41.218Z</time></trkpt><trkpt lat="46.0408883" lon="13.5566883"><ele>427.0</ele><time>2026-05-03T10:30:42.218Z</time></trkpt><trkpt lat="46.0409667" lon="13.5568117"><ele>427.0</ele><time>2026-05-03T10:30:43.218Z</time></trkpt><trkpt lat="46.0410583" lon="13.5569383"><ele>427.0</ele><time>2026-05-03T10:30:44.218Z</time></trkpt><trkpt lat="46.0411417" lon="13.5570767"><ele>427.0</ele><time>2026-05-03T10:30:45.218Z</time></trkpt><trkpt lat="46.0412067" lon="13.5572533"><ele>427.0</ele><time>2026-05-03T10:30:46.218Z</time></trkpt><trkpt lat="46.0412467" lon="13.5574467"><ele>427.0</ele><time>2026-05-03T10:30:47.218Z</time></trkpt><trkpt lat="46.0412733" lon="13.5576517"><ele>427.0</ele><time>2026-05-03T10:30:48.218Z</time></trkpt><trkpt lat="46.0412867" lon="13.55783"><ele>427.0</ele><time>2026-05-03T10:30:49.218Z</time></trkpt><trkpt lat="46.041315" lon="13.5579767"><ele>427.0</ele><time>2026-05-03T10:30:50.218Z</time></trkpt><trkpt lat="46.0413767" lon="13.5581"><ele>426.0</ele><time>2026-05-03T10:30:51.218Z</time></trkpt><trkpt lat="46.0414483" lon="13.5582217"><ele>425.0</ele><time>2026-05-03T10:30:52.218Z</time></trkpt><trkpt lat="46.04148" lon="13.5583733"><ele>424.0</ele><time>2026-05-03T10:30:53.218Z</time></trkpt><trkpt lat="46.04149" lon="13.5585467"><ele>423.0</ele><time>2026-05-03T10:30:54.218Z</time></trkpt><trkpt lat="46.0414783" lon="13.5587533"><ele>421.5</ele><time>2026-05-03T10:30:55.218Z</time></trkpt><trkpt lat="46.0414783" lon="13.5589617"><ele>420.0</ele><time>2026-05-03T10:30:56.218Z</time></trkpt><trkpt lat="46.0414883" lon="13.5591467"><ele>418.5</ele><time>2026-05-03T10:30:57.218Z</time></trkpt><trkpt lat="46.04155" lon="13.5593183"><ele>417.0</ele><time>2026-05-03T10:30:58.218Z</time></trkpt><trkpt lat="46.0416317" lon="13.559485"><ele>426.0</ele><time>2026-05-03T10:30:59.218Z</time></trkpt><trkpt lat="46.041705" lon="13.5596417"><ele>435.0</ele><time>2026-05-03T10:31:00.218Z</time></trkpt><trkpt lat="46.0417583" lon="13.559805"><ele>444.0</ele><time>2026-05-03T10:31:01.218Z</time></trkpt><trkpt lat="46.04177" lon="13.559975"><ele>453.0</ele><time>2026-05-03T10:31:02.218Z</time></trkpt><trkpt lat="46.0417583" lon="13.5601617"><ele>453.0</ele><time>2026-05-03T10:31:03.218Z</time></trkpt><trkpt lat="46.041725" lon="13.5603633"><ele>453.0</ele><time>2026-05-03T10:31:04.218Z</time></trkpt><trkpt lat="46.041675" lon="13.56057"><ele>453.0</ele><time>2026-05-03T10:31:05.218Z</time></trkpt><trkpt lat="46.0416367" lon="13.5607817"><ele>453.0</ele><time>2026-05-03T10:31:06.218Z</time></trkpt><trkpt lat="46.041595" lon="13.560985"><ele>449.25</ele><time>2026-05-03T10:31:07.218Z</time></trkpt><trkpt lat="46.0415367" lon="13.56116"><ele>445.5</ele><time>2026-05-03T10:31:08.218Z</time></trkpt><trkpt lat="46.041465" lon="13.5613483"><ele>441.75</ele><time>2026-05-03T10:31:09.218Z</time></trkpt><trkpt lat="46.0413983" lon="13.5615467"><ele>438.0</ele><time>2026-05-03T10:31:10.218Z</time></trkpt><trkpt lat="46.0413333" lon="13.5617567"><ele>438.0</ele><time>2026-05-03T10:31:11.218Z</time></trkpt><trkpt lat="46.0412683" lon="13.561975"><ele>438.0</ele><time>2026-05-03T10:31:12.218Z</time></trkpt><trkpt lat="46.0412067" lon="13.5621883"><ele>438.0</ele><time>2026-05-03T10:31:13.218Z</time></trkpt><trkpt lat="46.0411317" lon="13.5624117"><ele>442.66666666666663</ele><time>2026-05-03T10:31:14.218Z</time></trkpt><trkpt lat="46.0410583" lon="13.562635"><ele>447.3333333333333</ele><time>2026-05-03T10:31:15.218Z</time></trkpt><trkpt lat="46.0409817" lon="13.562865"><ele>452.0</ele><time>2026-05-03T10:31:16.218Z</time></trkpt><trkpt lat="46.0409083" lon="13.5631017"><ele>452.0</ele><time>2026-05-03T10:31:17.218Z</time></trkpt><trkpt lat="46.0408417" lon="13.563335"><ele>452.0</ele><time>2026-05-03T10:31:18.219Z</time></trkpt><trkpt lat="46.04077" lon="13.5635633"><ele>452.0</ele><time>2026-05-03T10:31:19.218Z</time></trkpt><trkpt lat="46.0406933" lon="13.5637783"><ele>452.0</ele><time>2026-05-03T10:31:20.218Z</time></trkpt><trkpt lat="46.040615" lon="13.563975"><ele>452.0</ele><time>2026-05-03T10:31:21.218Z</time></trkpt><trkpt lat="46.04052" lon="13.56418"><ele>452.0</ele><time>2026-05-03T10:31:22.218Z</time></trkpt><trkpt lat="46.0404167" lon="13.5643867"><ele>459.3333333333333</ele><time>2026-05-03T10:31:23.218Z</time></trkpt><trkpt lat="46.04032" lon="13.5646"><ele>466.66666666666663</ele><time>2026-05-03T10:31:24.218Z</time></trkpt><trkpt lat="46.040215" lon="13.564815"><ele>474.0</ele><time>2026-05-03T10:31:25.218Z</time></trkpt><trkpt lat="46.0401283" lon="13.5650167"><ele>474.0</ele><time>2026-05-03T10:31:26.219Z</time></trkpt><trkpt lat="46.0400317" lon="13.5652067"><ele>474.0</ele><time>2026-05-03T10:31:27.218Z</time></trkpt><trkpt lat="46.0399367" lon="13.5653833"><ele>474.0</ele><time>2026-05-03T10:31:28.218Z</time></trkpt><trkpt lat="46.0398483" lon="13.5655683"><ele>475.75</ele><time>2026-05-03T10:31:29.218Z</time></trkpt><trkpt lat="46.0397817" lon="13.5657417"><ele>477.5</ele><time>2026-05-03T10:31:30.218Z</time></trkpt><trkpt lat="46.0396933" lon="13.5658917"><ele>479.25</ele><time>2026-05-03T10:31:31.218Z</time></trkpt><trkpt lat="46.039595" lon="13.5660033"><ele>481.0</ele><time>2026-05-03T10:31:32.218Z</time></trkpt><trkpt lat="46.0394767" lon="13.56607"><ele>481.0</ele><time>2026-05-03T10:31:33.218Z</time></trkpt><trkpt lat="46.0393333" lon="13.5660867"><ele>481.0</ele><time>2026-05-03T10:31:34.218Z</time></trkpt><trkpt lat="46.0392117" lon="13.5661333"><ele>481.0</ele><time>2026-05-03T10:31:35.218Z</time></trkpt><trkpt lat="46.0391067" lon="13.5661733"><ele>481.0</ele><time>2026-05-03T10:31:36.218Z</time></trkpt><trkpt lat="46.0390067" lon="13.5661917"><ele>481.6</ele><time>2026-05-03T10:31:37.218Z</time></trkpt><trkpt lat="46.0389117" lon="13.566195"><ele>482.20000000000005</ele><time>2026-05-03T10:31:38.218Z</time></trkpt><trkpt lat="46.038805" lon="13.5661767"><ele>482.79999999999995</ele><time>2026-05-03T10:31:39.218Z</time></trkpt><trkpt lat="46.0386867" lon="13.5661483"><ele>483.4</ele><time>2026-05-03T10:31:40.218Z</time></trkpt><trkpt lat="46.03857" lon="13.5661167"><ele>484.0</ele><time>2026-05-03T10:31:41.218Z</time></trkpt><trkpt lat="46.03848" lon="13.56604"><ele>484.0</ele><time>2026-05-03T10:31:42.218Z</time></trkpt><trkpt lat="46.0384183" lon="13.5659033"><ele>484.0</ele><time>2026-05-03T10:31:43.218Z</time></trkpt><trkpt lat="46.038355" lon="13.5657667"><ele>484.0</ele><time>2026-05-03T10:31:44.218Z</time></trkpt><trkpt lat="46.0382717" lon="13.56564"><ele>484.0</ele><time>2026-05-03T10:31:45.218Z</time></trkpt><trkpt lat="46.0381967" lon="13.5655467"><ele>484.0</ele><time>2026-05-03T10:31:46.218Z</time></trkpt><trkpt lat="46.0381133" lon="13.5654867"><ele>481.0</ele><time>2026-05-03T10:31:47.218Z</time></trkpt><trkpt lat="46.0380333" lon="13.5654683"><ele>478.0</ele><time>2026-05-03T10:31:48.218Z</time></trkpt><trkpt lat="46.0379567" lon="13.5655017"><ele>475.0</ele><time>2026-05-03T10:31:49.218Z</time></trkpt><trkpt lat="46.03786" lon="13.5656133"><ele>472.0</ele><time>2026-05-03T10:31:50.218Z</time></trkpt><trkpt lat="46.0377467" lon="13.5658"><ele>472.0</ele><time>2026-05-03T10:31:51.218Z</time></trkpt><trkpt lat="46.0376233" lon="13.5659683"><ele>472.0</ele><time>2026-05-03T10:31:52.218Z</time></trkpt><trkpt lat="46.037495" lon="13.5660967"><ele>472.0</ele><time>2026-05-03T10:31:53.218Z</time></trkpt><trkpt lat="46.0373583" lon="13.5661917"><ele>474.25</ele><time>2026-05-03T10:31:54.218Z</time></trkpt><trkpt lat="46.0372367" lon="13.5662483"><ele>476.5</ele><time>2026-05-03T10:31:55.218Z</time></trkpt><trkpt lat="46.0371217" lon="13.5662783"><ele>478.75</ele><time>2026-05-03T10:31:56.218Z</time></trkpt><trkpt lat="46.037045" lon="13.5662817"><ele>481.0</ele><time>2026-05-03T10:31:57.218Z</time></trkpt><trkpt lat="46.03692" lon="13.5662233"><ele>482.20000000000005</ele><time>2026-05-03T10:31:59.218Z</time></trkpt><trkpt lat="46.0368433" lon="13.5661883"><ele>483.40000000000003</ele><time>2026-05-03T10:32:00.218Z</time></trkpt><trkpt lat="46.0367433" lon="13.5661767"><ele>484.6</ele><time>2026-05-03T10:32:01.218Z</time></trkpt><trkpt lat="46.0366233" lon="13.5662083"><ele>485.8</ele><time>2026-05-03T10:32:02.218Z</time></trkpt><trkpt lat="46.0365033" lon="13.5662417"><ele>487.0</ele><time>2026-05-03T10:32:03.218Z</time></trkpt><trkpt lat="46.0363817" lon="13.56629"><ele>487.0</ele><time>2026-05-03T10:32:04.218Z</time></trkpt><trkpt lat="46.0362767" lon="13.5663183"><ele>487.00000000000006</ele><time>2026-05-03T10:32:05.218Z</time></trkpt><trkpt lat="46.03619" lon="13.566335"><ele>487.00000000000006</ele><time>2026-05-03T10:32:06.218Z</time></trkpt><trkpt lat="46.036125" lon="13.5663367"><ele>487.0</ele><time>2026-05-03T10:32:07.218Z</time></trkpt><trkpt lat="46.036025" lon="13.5663"><ele>487.0</ele><time>2026-05-03T10:32:09.218Z</time></trkpt><trkpt lat="46.0359333" lon="13.5662217"><ele>485.1666666666667</ele><time>2026-05-03T10:32:11.218Z</time></trkpt><trkpt lat="46.0358317" lon="13.566105"><ele>483.33333333333337</ele><time>2026-05-03T10:32:13.218Z</time></trkpt><trkpt lat="46.0357767" lon="13.5660483"><ele>481.5</ele><time>2026-05-03T10:32:14.218Z</time></trkpt><trkpt lat="46.035725" lon="13.5659867"><ele>479.66666666666663</ele><time>2026-05-03T10:32:15.218Z</time></trkpt><trkpt lat="46.0356717" lon="13.565935"><ele>477.8333333333333</ele><time>2026-05-03T10:32:16.218Z</time></trkpt><trkpt lat="46.035585" lon="13.565845"><ele>476.0</ele><time>2026-05-03T10:32:18.218Z</time></trkpt><trkpt lat="46.0355217" lon="13.5658017"><ele>476.0</ele><time>2026-05-03T10:32:20.218Z</time></trkpt><trkpt lat="46.0355983" lon="13.5659167"><ele>476.0</ele><time>2026-05-03T10:32:27.218Z</time></trkpt><trkpt lat="46.0356717" lon="13.5659883"><ele>476.0</ele><time>2026-05-03T10:32:28.218Z</time></trkpt><trkpt lat="46.03576" lon="13.566085"><ele>476.0</ele><time>2026-05-03T10:32:29.218Z</time></trkpt><trkpt lat="46.0358467" lon="13.5661867"><ele>476.0</ele><time>2026-05-03T10:32:30.218Z</time></trkpt><trkpt lat="46.03592" lon="13.566285"><ele>478.20000000000005</ele><time>2026-05-03T10:32:31.218Z</time></trkpt><trkpt lat="46.0359867" lon="13.5663433"><ele>480.40000000000003</ele><time>2026-05-03T10:32:32.218Z</time></trkpt><trkpt lat="46.0360533" lon="13.5663683"><ele>482.6</ele><time>2026-05-03T10:32:33.218Z</time></trkpt><trkpt lat="46.0361467" lon="13.5664183"><ele>484.8</ele><time>2026-05-03T10:32:35.218Z</time></trkpt><trkpt lat="46.0361233" lon="13.56655"><ele>487.0</ele><time>2026-05-03T10:32:38.218Z</time></trkpt><trkpt lat="46.0360383" lon="13.5666583"><ele>487.00000000000006</ele><time>2026-05-03T10:32:40.219Z</time></trkpt><trkpt lat="46.0359967" lon="13.5667433"><ele>487.0</ele><time>2026-05-03T10:32:41.218Z</time></trkpt><trkpt lat="46.03595" lon="13.5668317"><ele>487.0</ele><time>2026-05-03T10:32:42.218Z</time></trkpt><trkpt lat="46.0358983" lon="13.566925"><ele>487.0</ele><time>2026-05-03T10:32:43.218Z</time></trkpt><trkpt lat="46.03583" lon="13.5670267"><ele>487.00000000000006</ele><time>2026-05-03T10:32:44.218Z</time></trkpt><trkpt lat="46.0357583" lon="13.56712"><ele>487.0</ele><time>2026-05-03T10:32:45.218Z</time></trkpt><trkpt lat="46.0356767" lon="13.5671867"><ele>486.83333333333337</ele><time>2026-05-03T10:32:46.218Z</time></trkpt><trkpt lat="46.03561" lon="13.567245"><ele>486.6666666666667</ele><time>2026-05-03T10:32:47.219Z</time></trkpt><trkpt lat="46.0355367" lon="13.5672983"><ele>486.5</ele><time>2026-05-03T10:32:48.218Z</time></trkpt><trkpt lat="46.035465" lon="13.5673233"><ele>486.33333333333337</ele><time>2026-05-03T10:32:49.218Z</time></trkpt><trkpt lat="46.0354" lon="13.56735"><ele>486.1666666666667</ele><time>2026-05-03T10:32:50.218Z</time></trkpt><trkpt lat="46.0352783" lon="13.56743"><ele>486.0</ele><time>2026-05-03T10:32:52.218Z</time></trkpt><trkpt lat="46.03522" lon="13.5674933"><ele>486.0</ele><time>2026-05-03T10:32:53.218Z</time></trkpt><trkpt lat="46.03516" lon="13.5675733"><ele>486.0</ele><time>2026-05-03T10:32:54.218Z</time></trkpt><trkpt lat="46.0351217" lon="13.5676833"><ele>486.0</ele><time>2026-05-03T10:32:55.219Z</time></trkpt><trkpt lat="46.0350883" lon="13.5678067"><ele>486.0</ele><time>2026-05-03T10:32:56.219Z</time></trkpt><trkpt lat="46.0350567" lon="13.567925"><ele>486.0</ele><time>2026-05-03T10:32:57.218Z</time></trkpt><trkpt lat="46.0350217" lon="13.5680333"><ele>486.0</ele><time>2026-05-03T10:32:58.218Z</time></trkpt><trkpt lat="46.034985" lon="13.5681433"><ele>483.6</ele><time>2026-05-03T10:32:59.218Z</time></trkpt><trkpt lat="46.0349517" lon="13.568275"><ele>481.20000000000005</ele><time>2026-05-03T10:33:00.218Z</time></trkpt><trkpt lat="46.0349267" lon="13.5683967"><ele>478.79999999999995</ele><time>2026-05-03T10:33:01.218Z</time></trkpt><trkpt lat="46.0348867" lon="13.568525"><ele>476.4</ele><time>2026-05-03T10:33:02.218Z</time></trkpt><trkpt lat="46.0348317" lon="13.568655"><ele>474.0</ele><time>2026-05-03T10:33:03.218Z</time></trkpt><trkpt lat="46.0347667" lon="13.56878"><ele>473.6666666666667</ele><time>2026-05-03T10:33:04.218Z</time></trkpt><trkpt lat="46.0347117" lon="13.5688967"><ele>473.33333333333337</ele><time>2026-05-03T10:33:05.218Z</time></trkpt><trkpt lat="46.0346717" lon="13.5690117"><ele>473.0</ele><time>2026-05-03T10:33:06.218Z</time></trkpt><trkpt lat="46.0346267" lon="13.5691217"><ele>472.6666666666667</ele><time>2026-05-03T10:33:07.219Z</time></trkpt><trkpt lat="46.03459" lon="13.569205"><ele>472.33333333333337</ele><time>2026-05-03T10:33:08.218Z</time></trkpt><trkpt lat="46.0345333" lon="13.56927"><ele>472.0</ele><time>2026-05-03T10:33:09.218Z</time></trkpt><trkpt lat="46.0344717" lon="13.5693317"><ele>472.0</ele><time>2026-05-03T10:33:10.218Z</time></trkpt><trkpt lat="46.03439" lon="13.5693817"><ele>472.00000000000006</ele><time>2026-05-03T10:33:11.218Z</time></trkpt><trkpt lat="46.0343" lon="13.5694367"><ele>472.00000000000006</ele><time>2026-05-03T10:33:12.218Z</time></trkpt><trkpt lat="46.0342167" lon="13.569485"><ele>472.0</ele><time>2026-05-03T10:33:13.218Z</time></trkpt><trkpt lat="46.03413" lon="13.5695383"><ele>472.0</ele><time>2026-05-03T10:33:14.218Z</time></trkpt><trkpt lat="46.0340433" lon="13.5695933"><ele>467.8</ele><time>2026-05-03T10:33:15.218Z</time></trkpt><trkpt lat="46.03395" lon="13.56966"><ele>463.6</ele><time>2026-05-03T10:33:16.219Z</time></trkpt><trkpt lat="46.0338633" lon="13.5697467"><ele>459.40000000000003</ele><time>2026-05-03T10:33:17.218Z</time></trkpt><trkpt lat="46.0337933" lon="13.569835"><ele>455.20000000000005</ele><time>2026-05-03T10:33:18.218Z</time></trkpt><trkpt lat="46.0337367" lon="13.5699083"><ele>451.0</ele><time>2026-05-03T10:33:19.218Z</time></trkpt><trkpt lat="46.03364" lon="13.5699933"><ele>451.0</ele><time>2026-05-03T10:33:21.218Z</time></trkpt><trkpt lat="46.0335183" lon="13.5700733"><ele>451.0</ele><time>2026-05-03T10:33:23.218Z</time></trkpt><trkpt lat="46.033455" lon="13.57011"><ele>451.0</ele><time>2026-05-03T10:33:24.218Z</time></trkpt><trkpt lat="46.0333617" lon="13.5701717"><ele>451.0</ele><time>2026-05-03T10:33:26.218Z</time></trkpt><trkpt lat="46.03328" lon="13.5702767"><ele>451.0</ele><time>2026-05-03T10:33:28.218Z</time></trkpt><trkpt lat="46.0332217" lon="13.5703867"><ele>446.0</ele><time>2026-05-03T10:33:30.219Z</time></trkpt><trkpt lat="46.0331567" lon="13.5705267"><ele>441.0</ele><time>2026-05-03T10:33:32.218Z</time></trkpt><trkpt lat="46.0330967" lon="13.5706967"><ele>436.0</ele><time>2026-05-03T10:33:34.218Z</time></trkpt><trkpt lat="46.0330683" lon="13.5707967"><ele>431.0</ele><time>2026-05-03T10:33:35.218Z</time></trkpt><trkpt lat="46.0330333" lon="13.5708967"><ele>426.0</ele><time>2026-05-03T10:33:36.218Z</time></trkpt><trkpt lat="46.0329883" lon="13.5709967"><ele>426.0</ele><time>2026-05-03T10:33:37.218Z</time></trkpt><trkpt lat="46.032935" lon="13.5710883"><ele>426.0</ele><time>2026-05-03T10:33:38.218Z</time></trkpt><trkpt lat="46.0328667" lon="13.5712267"><ele>426.0</ele><time>2026-05-03T10:33:40.218Z</time></trkpt><trkpt lat="46.0328183" lon="13.5712867"><ele>426.0</ele><time>2026-05-03T10:33:41.218Z</time></trkpt><trkpt lat="46.0327667" lon="13.571345"><ele>426.0</ele><time>2026-05-03T10:33:42.218Z</time></trkpt><trkpt lat="46.0327117" lon="13.5714017"><ele>426.0</ele><time>2026-05-03T10:33:43.218Z</time></trkpt><trkpt lat="46.032655" lon="13.571465"><ele>427.8</ele><time>2026-05-03T10:33:44.218Z</time></trkpt><trkpt lat="46.0326" lon="13.57153"><ele>429.6</ele><time>2026-05-03T10:33:45.218Z</time></trkpt><trkpt lat="46.032535" lon="13.571595"><ele>431.4</ele><time>2026-05-03T10:33:46.218Z</time></trkpt><trkpt lat="46.0324733" lon="13.5716667"><ele>433.2</ele><time>2026-05-03T10:33:47.218Z</time></trkpt><trkpt lat="46.0323967" lon="13.5717483"><ele>435.0</ele><time>2026-05-03T10:33:48.218Z</time></trkpt><trkpt lat="46.0323017" lon="13.5718717"><ele>431.0</ele><time>2026-05-03T10:33:49.218Z</time></trkpt><trkpt lat="46.0321883" lon="13.57205"><ele>427.0</ele><time>2026-05-03T10:33:50.218Z</time></trkpt><trkpt lat="46.032075" lon="13.5722467"><ele>423.0</ele><time>2026-05-03T10:33:51.218Z</time></trkpt><trkpt lat="46.03195" lon="13.5724383"><ele>423.0</ele><time>2026-05-03T10:33:52.218Z</time></trkpt><trkpt lat="46.03181" lon="13.5726317"><ele>423.0</ele><time>2026-05-03T10:33:53.218Z</time></trkpt><trkpt lat="46.031655" lon="13.5727883"><ele>423.0</ele><time>2026-05-03T10:33:54.219Z</time></trkpt><trkpt lat="46.0315" lon="13.5729217"><ele>421.66666666666663</ele><time>2026-05-03T10:33:55.218Z</time></trkpt><trkpt lat="46.0313567" lon="13.5730367"><ele>420.3333333333333</ele><time>2026-05-03T10:33:56.218Z</time></trkpt><trkpt lat="46.03122" lon="13.5731417"><ele>419.0</ele><time>2026-05-03T10:33:57.218Z</time></trkpt><trkpt lat="46.0311017" lon="13.5732683"><ele>419.0</ele><time>2026-05-03T10:33:58.218Z</time></trkpt><trkpt lat="46.031015" lon="13.5734117"><ele>419.0</ele><time>2026-05-03T10:33:59.219Z</time></trkpt><trkpt lat="46.030945" lon="13.5735517"><ele>419.0</ele><time>2026-05-03T10:34:00.218Z</time></trkpt><trkpt lat="46.030865" lon="13.5736483"><ele>419.0</ele><time>2026-05-03T10:34:01.218Z</time></trkpt><trkpt lat="46.0307833" lon="13.5736917"><ele>419.0</ele><time>2026-05-03T10:34:02.218Z</time></trkpt><trkpt lat="46.0307067" lon="13.573655"><ele>419.4</ele><time>2026-05-03T10:34:03.218Z</time></trkpt><trkpt lat="46.0306317" lon="13.57358"><ele>419.79999999999995</ele><time>2026-05-03T10:34:04.218Z</time></trkpt><trkpt lat="46.0305617" lon="13.5735217"><ele>420.20000000000005</ele><time>2026-05-03T10:34:05.218Z</time></trkpt><trkpt lat="46.030465" lon="13.5735367"><ele>420.6</ele><time>2026-05-03T10:34:06.218Z</time></trkpt><trkpt lat="46.0303583" lon="13.5736167"><ele>421.0</ele><time>2026-05-03T10:34:07.218Z</time></trkpt><trkpt lat="46.0302467" lon="13.5737317"><ele>421.0</ele><time>2026-05-03T10:34:08.218Z</time></trkpt><trkpt lat="46.030135" lon="13.57386"><ele>421.0</ele><time>2026-05-03T10:34:09.218Z</time></trkpt><trkpt lat="46.030015" lon="13.5739667"><ele>421.0</ele><time>2026-05-03T10:34:10.218Z</time></trkpt><trkpt lat="46.0299117" lon="13.574095"><ele>421.0</ele><time>2026-05-03T10:34:11.218Z</time></trkpt><trkpt lat="46.0298183" lon="13.5742183"><ele>416.8</ele><time>2026-05-03T10:34:12.218Z</time></trkpt><trkpt lat="46.0297217" lon="13.5743333"><ele>412.6</ele><time>2026-05-03T10:34:13.218Z</time></trkpt><trkpt lat="46.0296367" lon="13.5744183"><ele>408.4</ele><time>2026-05-03T10:34:14.218Z</time></trkpt><trkpt lat="46.029555" lon="13.57446"><ele>404.2</ele><time>2026-05-03T10:34:15.218Z</time></trkpt><trkpt lat="46.0294817" lon="13.5744833"><ele>400.0</ele><time>2026-05-03T10:34:16.218Z</time></trkpt><trkpt lat="46.0293967" lon="13.57451"><ele>404.5</ele><time>2026-05-03T10:34:17.218Z</time></trkpt><trkpt lat="46.0293117" lon="13.5745433"><ele>409.0</ele><time>2026-05-03T10:34:18.218Z</time></trkpt><trkpt lat="46.0292017" lon="13.5745983"><ele>413.5</ele><time>2026-05-03T10:34:19.218Z</time></trkpt><trkpt lat="46.0290683" lon="13.5746433"><ele>418.0</ele><time>2026-05-03T10:34:20.219Z</time></trkpt><trkpt lat="46.0289267" lon="13.57467"><ele>418.0</ele><time>2026-05-03T10:34:21.218Z</time></trkpt><trkpt lat="46.02878" lon="13.5746433"><ele>418.0</ele><time>2026-05-03T10:34:22.218Z</time></trkpt><trkpt lat="46.028645" lon="13.5745733"><ele>418.0</ele><time>2026-05-03T10:34:23.218Z</time></trkpt><trkpt lat="46.0285217" lon="13.5744917"><ele>418.0</ele><time>2026-05-03T10:34:24.218Z</time></trkpt><trkpt lat="46.0284033" lon="13.574425"><ele>411.79999999999995</ele><time>2026-05-03T10:34:25.218Z</time></trkpt><trkpt lat="46.0283067" lon="13.5743883"><ele>405.6</ele><time>2026-05-03T10:34:26.218Z</time></trkpt><trkpt lat="46.028215" lon="13.57438"><ele>399.4</ele><time>2026-05-03T10:34:27.218Z</time></trkpt><trkpt lat="46.028135" lon="13.5744"><ele>393.20000000000005</ele><time>2026-05-03T10:34:28.218Z</time></trkpt><trkpt lat="46.0280533" lon="13.574445"><ele>387.0</ele><time>2026-05-03T10:34:29.218Z</time></trkpt><trkpt lat="46.0279667" lon="13.57452"><ele>391.75</ele><time>2026-05-03T10:34:30.218Z</time></trkpt><trkpt lat="46.027875" lon="13.5746133"><ele>396.5</ele><time>2026-05-03T10:34:31.218Z</time></trkpt><trkpt lat="46.0277817" lon="13.574715"><ele>401.25</ele><time>2026-05-03T10:34:32.218Z</time></trkpt><trkpt lat="46.027675" lon="13.574775"><ele>406.0</ele><time>2026-05-03T10:34:33.218Z</time></trkpt><trkpt lat="46.0275467" lon="13.5747933"><ele>403.0</ele><time>2026-05-03T10:34:34.218Z</time></trkpt><trkpt lat="46.02739" lon="13.5747817"><ele>400.0</ele><time>2026-05-03T10:34:35.218Z</time></trkpt><trkpt lat="46.027235" lon="13.574755"><ele>397.0</ele><time>2026-05-03T10:34:36.218Z</time></trkpt><trkpt lat="46.0271083" lon="13.5747467"><ele>394.0</ele><time>2026-05-03T10:34:37.218Z</time></trkpt><trkpt lat="46.026995" lon="13.5747617"><ele>394.0</ele><time>2026-05-03T10:34:38.218Z</time></trkpt><trkpt lat="46.0268967" lon="13.574825"><ele>394.0</ele><time>2026-05-03T10:34:39.218Z</time></trkpt><trkpt lat="46.0267967" lon="13.574885"><ele>394.0</ele><time>2026-05-03T10:34:40.218Z</time></trkpt><trkpt lat="46.0266917" lon="13.5749417"><ele>394.0</ele><time>2026-05-03T10:34:41.218Z</time></trkpt><trkpt lat="46.02657" lon="13.574975"><ele>395.5</ele><time>2026-05-03T10:34:42.218Z</time></trkpt><trkpt lat="46.0264333" lon="13.5749833"><ele>397.0</ele><time>2026-05-03T10:34:43.218Z</time></trkpt><trkpt lat="46.0262817" lon="13.5749867"><ele>398.5</ele><time>2026-05-03T10:34:44.218Z</time></trkpt><trkpt lat="46.0261283" lon="13.57502"><ele>400.0</ele><time>2026-05-03T10:34:45.218Z</time></trkpt><trkpt lat="46.0259717" lon="13.575075"><ele>401.6666666666667</ele><time>2026-05-03T10:34:46.218Z</time></trkpt><trkpt lat="46.0258083" lon="13.5751417"><ele>403.33333333333337</ele><time>2026-05-03T10:34:47.218Z</time></trkpt><trkpt lat="46.0256333" lon="13.5752167"><ele>405.0</ele><time>2026-05-03T10:34:48.218Z</time></trkpt><trkpt lat="46.0254517" lon="13.575305"><ele>397.3333333333333</ele><time>2026-05-03T10:34:49.218Z</time></trkpt><trkpt lat="46.025285" lon="13.575385"><ele>389.66666666666663</ele><time>2026-05-03T10:34:50.218Z</time></trkpt><trkpt lat="46.02512" lon="13.575455"><ele>382.0</ele><time>2026-05-03T10:34:51.218Z</time></trkpt><trkpt lat="46.0249767" lon="13.5755117"><ele>382.0</ele><time>2026-05-03T10:34:52.218Z</time></trkpt><trkpt lat="46.0248483" lon="13.57555"><ele>382.0</ele><time>2026-05-03T10:34:53.218Z</time></trkpt><trkpt lat="46.0247233" lon="13.5755817"><ele>382.0</ele><time>2026-05-03T10:34:54.218Z</time></trkpt><trkpt lat="46.0246183" lon="13.5755917"><ele>382.0</ele><time>2026-05-03T10:34:55.218Z</time></trkpt><trkpt lat="46.0245233" lon="13.5755817"><ele>382.0</ele><time>2026-05-03T10:34:56.218Z</time></trkpt><trkpt lat="46.0244467" lon="13.5755733"><ele>382.0</ele><time>2026-05-03T10:34:57.218Z</time></trkpt><trkpt lat="46.0243833" lon="13.5755633"><ele>382.0</ele><time>2026-05-03T10:34:58.218Z</time></trkpt><trkpt lat="46.0243083" lon="13.57559"><ele>382.0</ele><time>2026-05-03T10:35:01.218Z</time></trkpt><trkpt lat="46.0244017" lon="13.5756633"><ele>382.0</ele><time>2026-05-03T10:35:04.218Z</time></trkpt><trkpt lat="46.024475" lon="13.5756833"><ele>382.0</ele><time>2026-05-03T10:35:05.218Z</time></trkpt><trkpt lat="46.0245783" lon="13.5756917"><ele>382.0</ele><time>2026-05-03T10:35:06.218Z</time></trkpt><trkpt lat="46.0246883" lon="13.5756967"><ele>382.0</ele><time>2026-05-03T10:35:07.218Z</time></trkpt><trkpt lat="46.02481" lon="13.57571"><ele>382.0</ele><time>2026-05-03T10:35:08.218Z</time></trkpt><trkpt lat="46.02494" lon="13.5757233"><ele>382.0</ele><time>2026-05-03T10:35:09.218Z</time></trkpt><trkpt lat="46.02508" lon="13.5757433"><ele>381.0</ele><time>2026-05-03T10:35:10.218Z</time></trkpt><trkpt lat="46.0252417" lon="13.5757517"><ele>380.0</ele><time>2026-05-03T10:35:11.218Z</time></trkpt><trkpt lat="46.0253833" lon="13.5757417"><ele>379.0</ele><time>2026-05-03T10:35:12.218Z</time></trkpt><trkpt lat="46.0255233" lon="13.5757133"><ele>378.0</ele><time>2026-05-03T10:35:13.218Z</time></trkpt><trkpt lat="46.0256667" lon="13.5756883"><ele>378.0</ele><time>2026-05-03T10:35:14.218Z</time></trkpt><trkpt lat="46.0258" lon="13.575685"><ele>378.0</ele><time>2026-05-03T10:35:15.218Z</time></trkpt><trkpt lat="46.0259333" lon="13.5757117"><ele>378.0</ele><time>2026-05-03T10:35:16.218Z</time></trkpt><trkpt lat="46.02606" lon="13.57578"><ele>378.0</ele><time>2026-05-03T10:35:17.218Z</time></trkpt><trkpt lat="46.0261667" lon="13.5758967"><ele>374.25</ele><time>2026-05-03T10:35:18.218Z</time></trkpt><trkpt lat="46.026235" lon="13.5760267"><ele>370.5</ele><time>2026-05-03T10:35:19.218Z</time></trkpt><trkpt lat="46.0262917" lon="13.57619"><ele>366.75</ele><time>2026-05-03T10:35:20.218Z</time></trkpt><trkpt lat="46.0263333" lon="13.57636"><ele>363.0</ele><time>2026-05-03T10:35:21.218Z</time></trkpt><trkpt lat="46.026395" lon="13.5765283"><ele>364.25</ele><time>2026-05-03T10:35:22.218Z</time></trkpt><trkpt lat="46.0264817" lon="13.57666"><ele>365.5</ele><time>2026-05-03T10:35:23.218Z</time></trkpt><trkpt lat="46.0265783" lon="13.5767867"><ele>366.75</ele><time>2026-05-03T10:35:24.218Z</time></trkpt><trkpt lat="46.0266667" lon="13.5769167"><ele>368.0</ele><time>2026-05-03T10:35:25.218Z</time></trkpt><trkpt lat="46.0267583" lon="13.5770433"><ele>360.25</ele><time>2026-05-03T10:35:26.218Z</time></trkpt><trkpt lat="46.0268533" lon="13.57718"><ele>352.5</ele><time>2026-05-03T10:35:27.218Z</time></trkpt><trkpt lat="46.0269533" lon="13.5773183"><ele>344.75</ele><time>2026-05-03T10:35:28.218Z</time></trkpt><trkpt lat="46.0270567" lon="13.5774517"><ele>337.0</ele><time>2026-05-03T10:35:29.218Z</time></trkpt><trkpt lat="46.0271633" lon="13.5775767"><ele>337.0</ele><time>2026-05-03T10:35:30.218Z</time></trkpt><trkpt lat="46.0272683" lon="13.57769"><ele>337.0</ele><time>2026-05-03T10:35:31.218Z</time></trkpt><trkpt lat="46.0273683" lon="13.57778"><ele>337.0</ele><time>2026-05-03T10:35:32.218Z</time></trkpt><trkpt lat="46.02749" lon="13.5778317"><ele>337.0</ele><time>2026-05-03T10:35:33.218Z</time></trkpt><trkpt lat="46.0276033" lon="13.57785"><ele>343.0</ele><time>2026-05-03T10:35:34.218Z</time></trkpt><trkpt lat="46.0277283" lon="13.5778133"><ele>349.0</ele><time>2026-05-03T10:35:35.218Z</time></trkpt><trkpt lat="46.0278467" lon="13.5777867"><ele>355.0</ele><time>2026-05-03T10:35:36.218Z</time></trkpt><trkpt lat="46.0279583" lon="13.57778"><ele>361.0</ele><time>2026-05-03T10:35:37.218Z</time></trkpt><trkpt lat="46.0280717" lon="13.5778167"><ele>349.75</ele><time>2026-05-03T10:35:38.218Z</time></trkpt><trkpt lat="46.0281783" lon="13.5779033"><ele>338.5</ele><time>2026-05-03T10:35:39.218Z</time></trkpt><trkpt lat="46.0282717" lon="13.5780367"><ele>327.25</ele><time>2026-05-03T10:35:40.218Z</time></trkpt><trkpt lat="46.0283483" lon="13.5782083"><ele>316.0</ele><time>2026-05-03T10:35:41.218Z</time></trkpt><trkpt lat="46.0284133" lon="13.578395"><ele>316.0</ele><time>2026-05-03T10:35:42.218Z</time></trkpt><trkpt lat="46.0284683" lon="13.578595"><ele>316.0</ele><time>2026-05-03T10:35:43.218Z</time></trkpt><trkpt lat="46.02852" lon="13.578825"><ele>316.0</ele><time>2026-05-03T10:35:44.218Z</time></trkpt><trkpt lat="46.028575" lon="13.579045"><ele>309.0</ele><time>2026-05-03T10:35:45.218Z</time></trkpt><trkpt lat="46.02864" lon="13.57926"><ele>302.0</ele><time>2026-05-03T10:35:46.218Z</time></trkpt><trkpt lat="46.0287183" lon="13.5794733"><ele>295.0</ele><time>2026-05-03T10:35:47.218Z</time></trkpt><trkpt lat="46.028815" lon="13.5796533"><ele>295.0</ele><time>2026-05-03T10:35:48.218Z</time></trkpt><trkpt lat="46.0289283" lon="13.579815"><ele>295.0</ele><time>2026-05-03T10:35:49.218Z</time></trkpt><trkpt lat="46.0290233" lon="13.57996"><ele>295.0</ele><time>2026-05-03T10:35:50.218Z</time></trkpt><trkpt lat="46.0291033" lon="13.58012"><ele>295.0</ele><time>2026-05-03T10:35:51.218Z</time></trkpt><trkpt lat="46.0291533" lon="13.5802833"><ele>300.0</ele><time>2026-05-03T10:35:52.218Z</time></trkpt><trkpt lat="46.0291867" lon="13.5804533"><ele>305.0</ele><time>2026-05-03T10:35:53.218Z</time></trkpt><trkpt lat="46.029225" lon="13.580615"><ele>310.0</ele><time>2026-05-03T10:35:54.218Z</time></trkpt><trkpt lat="46.0292733" lon="13.5807583"><ele>315.0</ele><time>2026-05-03T10:35:55.218Z</time></trkpt><trkpt lat="46.0293117" lon="13.5809033"><ele>315.0</ele><time>2026-05-03T10:35:56.218Z</time></trkpt><trkpt lat="46.0293267" lon="13.5810383"><ele>315.0</ele><time>2026-05-03T10:35:57.218Z</time></trkpt><trkpt lat="46.0293233" lon="13.5811733"><ele>315.0</ele><time>2026-05-03T10:35:58.218Z</time></trkpt><trkpt lat="46.0292867" lon="13.5813283"><ele>315.0</ele><time>2026-05-03T10:35:59.218Z</time></trkpt><trkpt lat="46.0292833" lon="13.58147"><ele>315.0</ele><time>2026-05-03T10:36:00.218Z</time></trkpt><trkpt lat="46.029315" lon="13.5815983"><ele>317.0</ele><time>2026-05-03T10:36:01.219Z</time></trkpt><trkpt lat="46.0293917" lon="13.5817033"><ele>319.0</ele><time>2026-05-03T10:36:02.218Z</time></trkpt><trkpt lat="46.029515" lon="13.58179"><ele>321.0</ele><time>2026-05-03T10:36:03.218Z</time></trkpt><trkpt lat="46.0296583" lon="13.581875"><ele>323.0</ele><time>2026-05-03T10:36:04.218Z</time></trkpt><trkpt lat="46.0298117" lon="13.5819633"><ele>313.6666666666667</ele><time>2026-05-03T10:36:05.218Z</time></trkpt><trkpt lat="46.0299783" lon="13.5820533"><ele>304.3333333333333</ele><time>2026-05-03T10:36:06.218Z</time></trkpt><trkpt lat="46.0301233" lon="13.5821367"><ele>295.0</ele><time>2026-05-03T10:36:07.218Z</time></trkpt><trkpt lat="46.0302483" lon="13.5822267"><ele>295.0</ele><time>2026-05-03T10:36:08.218Z</time></trkpt><trkpt lat="46.0303583" lon="13.5823167"><ele>295.0</ele><time>2026-05-03T10:36:09.218Z</time></trkpt><trkpt lat="46.0304567" lon="13.5823817"><ele>295.0</ele><time>2026-05-03T10:36:10.218Z</time></trkpt><trkpt lat="46.03055" lon="13.5824367"><ele>295.0</ele><time>2026-05-03T10:36:11.218Z</time></trkpt><trkpt lat="46.0306167" lon="13.5825"><ele>295.0</ele><time>2026-05-03T10:36:12.218Z</time></trkpt><trkpt lat="46.030675" lon="13.5825883"><ele>295.0</ele><time>2026-05-03T10:36:13.218Z</time></trkpt><trkpt lat="46.0307067" lon="13.582695"><ele>295.0</ele><time>2026-05-03T10:36:14.218Z</time></trkpt><trkpt lat="46.0306717" lon="13.5828667"><ele>295.0</ele><time>2026-05-03T10:36:15.218Z</time></trkpt><trkpt lat="46.0306517" lon="13.58307"><ele>295.0</ele><time>2026-05-03T10:36:16.218Z</time></trkpt><trkpt lat="46.0306383" lon="13.58329"><ele>290.5</ele><time>2026-05-03T10:36:17.218Z</time></trkpt><trkpt lat="46.030635" lon="13.583515"><ele>286.0</ele><time>2026-05-03T10:36:18.219Z</time></trkpt><trkpt lat="46.0306183" lon="13.58371"><ele>281.5</ele><time>2026-05-03T10:36:19.217Z</time></trkpt><trkpt lat="46.0305467" lon="13.5839"><ele>277.0</ele><time>2026-05-03T10:36:20.217Z</time></trkpt><trkpt lat="46.03045" lon="13.5840733"><ele>277.0</ele><time>2026-05-03T10:36:21.217Z</time></trkpt><trkpt lat="46.030355" lon="13.584235"><ele>277.0</ele><time>2026-05-03T10:36:22.217Z</time></trkpt><trkpt lat="46.03028" lon="13.584415"><ele>277.0</ele><time>2026-05-03T10:36:23.217Z</time></trkpt><trkpt lat="46.03024" lon="13.5846083"><ele>277.0</ele><time>2026-05-03T10:36:24.217Z</time></trkpt><trkpt lat="46.0302283" lon="13.5848217"><ele>278.5</ele><time>2026-05-03T10:36:25.217Z</time></trkpt><trkpt lat="46.030235" lon="13.5850317"><ele>280.0</ele><time>2026-05-03T10:36:26.217Z</time></trkpt><trkpt lat="46.0302567" lon="13.5852267"><ele>281.5</ele><time>2026-05-03T10:36:27.217Z</time></trkpt><trkpt lat="46.0303167" lon="13.58542"><ele>283.0</ele><time>2026-05-03T10:36:28.217Z</time></trkpt><trkpt lat="46.03038" lon="13.5855983"><ele>278.25</ele><time>2026-05-03T10:36:29.217Z</time></trkpt><trkpt lat="46.030445" lon="13.5857767"><ele>273.5</ele><time>2026-05-03T10:36:30.217Z</time></trkpt><trkpt lat="46.03051" lon="13.5859517"><ele>268.75</ele><time>2026-05-03T10:36:31.217Z</time></trkpt><trkpt lat="46.0305683" lon="13.5861317"><ele>264.0</ele><time>2026-05-03T10:36:32.217Z</time></trkpt><trkpt lat="46.0306167" lon="13.5863183"><ele>261.0</ele><time>2026-05-03T10:36:33.217Z</time></trkpt><trkpt lat="46.0306367" lon="13.5865"><ele>258.0</ele><time>2026-05-03T10:36:34.217Z</time></trkpt><trkpt lat="46.0306433" lon="13.5866733"><ele>255.0</ele><time>2026-05-03T10:36:35.217Z</time></trkpt><trkpt lat="46.0306467" lon="13.586855"><ele>252.0</ele><time>2026-05-03T10:36:36.217Z</time></trkpt><trkpt lat="46.0306633" lon="13.5870283"><ele>250.25</ele><time>2026-05-03T10:36:37.217Z</time></trkpt><trkpt lat="46.0307" lon="13.5872"><ele>248.5</ele><time>2026-05-03T10:36:38.217Z</time></trkpt><trkpt lat="46.0307333" lon="13.5873733"><ele>246.75</ele><time>2026-05-03T10:36:39.217Z</time></trkpt><trkpt lat="46.0307683" lon="13.5875483"><ele>245.0</ele><time>2026-05-03T10:36:40.217Z</time></trkpt><trkpt lat="46.0308" lon="13.5877283"><ele>251.25</ele><time>2026-05-03T10:36:41.217Z</time></trkpt><trkpt lat="46.0308333" lon="13.5878983"><ele>257.5</ele><time>2026-05-03T10:36:42.217Z</time></trkpt><trkpt lat="46.0308583" lon="13.5880733"><ele>263.75</ele><time>2026-05-03T10:36:43.218Z</time></trkpt><trkpt lat="46.0308767" lon="13.5882517"><ele>270.0</ele><time>2026-05-03T10:36:44.217Z</time></trkpt><trkpt lat="46.0308783" lon="13.588445"><ele>270.0</ele><time>2026-05-03T10:36:45.217Z</time></trkpt><trkpt lat="46.030865" lon="13.5886517"><ele>270.0</ele><time>2026-05-03T10:36:46.217Z</time></trkpt><trkpt lat="46.03085" lon="13.5888467"><ele>270.0</ele><time>2026-05-03T10:36:47.217Z</time></trkpt><trkpt lat="46.0308483" lon="13.5890417"><ele>270.0</ele><time>2026-05-03T10:36:48.217Z</time></trkpt><trkpt lat="46.0308683" lon="13.5892317"><ele>268.5</ele><time>2026-05-03T10:36:49.217Z</time></trkpt><trkpt lat="46.03091" lon="13.5893983"><ele>267.0</ele><time>2026-05-03T10:36:50.217Z</time></trkpt><trkpt lat="46.0309567" lon="13.5895533"><ele>265.5</ele><time>2026-05-03T10:36:51.217Z</time></trkpt><trkpt lat="46.0310183" lon="13.5897"><ele>264.0</ele><time>2026-05-03T10:36:52.217Z</time></trkpt><trkpt lat="46.0311033" lon="13.5898317"><ele>260.75</ele><time>2026-05-03T10:36:53.217Z</time></trkpt><trkpt lat="46.0312033" lon="13.5899483"><ele>257.5</ele><time>2026-05-03T10:36:54.217Z</time></trkpt><trkpt lat="46.031305" lon="13.59004"><ele>254.25</ele><time>2026-05-03T10:36:55.217Z</time></trkpt><trkpt lat="46.0314117" lon="13.5900833"><ele>251.0</ele><time>2026-05-03T10:36:56.217Z</time></trkpt><trkpt lat="46.031505" lon="13.5901133"><ele>251.0</ele><time>2026-05-03T10:36:57.217Z</time></trkpt><trkpt lat="46.0315767" lon="13.59015"><ele>251.00000000000003</ele><time>2026-05-03T10:36:58.217Z</time></trkpt><trkpt lat="46.0315883" lon="13.59028"><ele>251.00000000000003</ele><time>2026-05-03T10:37:00.217Z</time></trkpt><trkpt lat="46.0314533" lon="13.590315"><ele>251.0</ele><time>2026-05-03T10:37:02.217Z</time></trkpt><trkpt lat="46.0313217" lon="13.590245"><ele>251.0</ele><time>2026-05-03T10:37:03.217Z</time></trkpt><trkpt lat="46.0311833" lon="13.590195"><ele>251.0</ele><time>2026-05-03T10:37:04.217Z</time></trkpt><trkpt lat="46.0310367" lon="13.590155"><ele>251.0</ele><time>2026-05-03T10:37:05.217Z</time></trkpt><trkpt lat="46.0308933" lon="13.590105"><ele>251.0</ele><time>2026-05-03T10:37:06.217Z</time></trkpt><trkpt lat="46.0307583" lon="13.5900267"><ele>251.0</ele><time>2026-05-03T10:37:07.217Z</time></trkpt><trkpt lat="46.0306333" lon="13.5899333"><ele>246.0</ele><time>2026-05-03T10:37:08.217Z</time></trkpt><trkpt lat="46.030525" lon="13.5898267"><ele>241.0</ele><time>2026-05-03T10:37:09.217Z</time></trkpt><trkpt lat="46.0304233" lon="13.589705"><ele>236.0</ele><time>2026-05-03T10:37:10.217Z</time></trkpt><trkpt lat="46.0303283" lon="13.5895733"><ele>231.0</ele><time>2026-05-03T10:37:11.217Z</time></trkpt><trkpt lat="46.0302483" lon="13.58942"><ele>231.0</ele><time>2026-05-03T10:37:12.217Z</time></trkpt><trkpt lat="46.030185" lon="13.5892617"><ele>231.0</ele><time>2026-05-03T10:37:13.217Z</time></trkpt><trkpt lat="46.0301233" lon="13.5890883"><ele>231.0</ele><time>2026-05-03T10:37:14.217Z</time></trkpt><trkpt lat="46.03008" lon="13.58889"><ele>231.0</ele><time>2026-05-03T10:37:15.217Z</time></trkpt><trkpt lat="46.0300333" lon="13.5886767"><ele>232.33333333333331</ele><time>2026-05-03T10:37:16.217Z</time></trkpt><trkpt lat="46.0299783" lon="13.5884583"><ele>233.66666666666666</ele><time>2026-05-03T10:37:17.217Z</time></trkpt><trkpt lat="46.0299183" lon="13.5882517"><ele>235.0</ele><time>2026-05-03T10:37:18.217Z</time></trkpt><trkpt lat="46.0298533" lon="13.588045"><ele>227.0</ele><time>2026-05-03T10:37:19.217Z</time></trkpt><trkpt lat="46.0297983" lon="13.5878383"><ele>219.0</ele><time>2026-05-03T10:37:20.217Z</time></trkpt><trkpt lat="46.0297583" lon="13.5876283"><ele>211.0</ele><time>2026-05-03T10:37:21.217Z</time></trkpt><trkpt lat="46.0297417" lon="13.587425"><ele>203.0</ele><time>2026-05-03T10:37:22.217Z</time></trkpt><trkpt lat="46.0297233" lon="13.58723"><ele>203.0</ele><time>2026-05-03T10:37:23.217Z</time></trkpt><trkpt lat="46.029695" lon="13.5870433"><ele>203.0</ele><time>2026-05-03T10:37:24.217Z</time></trkpt><trkpt lat="46.0296517" lon="13.5868667"><ele>203.0</ele><time>2026-05-03T10:37:25.217Z</time></trkpt><trkpt lat="46.0296133" lon="13.586705"><ele>203.0</ele><time>2026-05-03T10:37:26.217Z</time></trkpt><trkpt lat="46.0295833" lon="13.58658"><ele>203.0</ele><time>2026-05-03T10:37:27.217Z</time></trkpt><trkpt lat="46.0295483" lon="13.5864983"><ele>203.0</ele><time>2026-05-03T10:37:28.217Z</time></trkpt><trkpt lat="46.0294433" lon="13.5865333"><ele>203.0</ele><time>2026-05-03T10:37:30.217Z</time></trkpt><trkpt lat="46.0294383" lon="13.5867433"><ele>203.0</ele><time>2026-05-03T10:37:32.217Z</time></trkpt><trkpt lat="46.0294633" lon="13.58688"><ele>203.0</ele><time>2026-05-03T10:37:33.217Z</time></trkpt><trkpt lat="46.029485" lon="13.5870183"><ele>203.0</ele><time>2026-05-03T10:37:34.217Z</time></trkpt><trkpt lat="46.0294933" lon="13.5871467"><ele>203.0</ele><time>2026-05-03T10:37:35.217Z</time></trkpt><trkpt lat="46.029495" lon="13.5872483"><ele>203.0</ele><time>2026-05-03T10:37:36.217Z</time></trkpt><trkpt lat="46.0294867" lon="13.5874233"><ele>203.0</ele><time>2026-05-03T10:37:38.217Z</time></trkpt><trkpt lat="46.02947" lon="13.5875317"><ele>203.0</ele><time>2026-05-03T10:37:39.217Z</time></trkpt><trkpt lat="46.02945" lon="13.58766"><ele>203.0</ele><time>2026-05-03T10:37:40.217Z</time></trkpt><trkpt lat="46.0294317" lon="13.5878"><ele>203.0</ele><time>2026-05-03T10:37:41.217Z</time></trkpt><trkpt lat="46.0294217" lon="13.5879383"><ele>203.0</ele><time>2026-05-03T10:37:42.217Z</time></trkpt><trkpt lat="46.0294167" lon="13.5881017"><ele>203.0</ele><time>2026-05-03T10:37:43.217Z</time></trkpt><trkpt lat="46.0294" lon="13.5882767"><ele>203.0</ele><time>2026-05-03T10:37:44.217Z</time></trkpt><trkpt lat="46.0293767" lon="13.5884667"><ele>202.0</ele><time>2026-05-03T10:37:45.217Z</time></trkpt><trkpt lat="46.029345" lon="13.58866"><ele>201.0</ele><time>2026-05-03T10:37:46.217Z</time></trkpt><trkpt lat="46.0293217" lon="13.5888617"><ele>200.0</ele><time>2026-05-03T10:37:47.217Z</time></trkpt><trkpt lat="46.0292967" lon="13.5890867"><ele>199.0</ele><time>2026-05-03T10:37:48.217Z</time></trkpt><trkpt lat="46.0292783" lon="13.5893167"><ele>196.33333333333331</ele><time>2026-05-03T10:37:49.217Z</time></trkpt><trkpt lat="46.029265" lon="13.5895467"><ele>193.66666666666666</ele><time>2026-05-03T10:37:50.217Z</time></trkpt><trkpt lat="46.0292767" lon="13.58978"><ele>191.0</ele><time>2026-05-03T10:37:51.217Z</time></trkpt><trkpt lat="46.029315" lon="13.5900083"><ele>191.0</ele><time>2026-05-03T10:37:52.217Z</time></trkpt><trkpt lat="46.0293683" lon="13.5902417"><ele>191.0</ele><time>2026-05-03T10:37:53.217Z</time></trkpt><trkpt lat="46.0294283" lon="13.5904733"><ele>191.0</ele><time>2026-05-03T10:37:54.217Z</time></trkpt><trkpt lat="46.02951" lon="13.590695"><ele>187.0</ele><time>2026-05-03T10:37:55.217Z</time></trkpt><trkpt lat="46.0295917" lon="13.59091"><ele>183.0</ele><time>2026-05-03T10:37:56.217Z</time></trkpt><trkpt lat="46.0296717" lon="13.591115"><ele>179.0</ele><time>2026-05-03T10:37:57.217Z</time></trkpt><trkpt lat="46.0297367" lon="13.5913033"><ele>181.25</ele><time>2026-05-03T10:37:58.217Z</time></trkpt><trkpt lat="46.0298017" lon="13.5914733"><ele>183.5</ele><time>2026-05-03T10:37:59.217Z</time></trkpt><trkpt lat="46.0298817" lon="13.5916317"><ele>185.75</ele><time>2026-05-03T10:38:00.218Z</time></trkpt><trkpt lat="46.0299817" lon="13.5917533"><ele>188.0</ele><time>2026-05-03T10:38:01.217Z</time></trkpt><trkpt lat="46.03011" lon="13.5918333"><ele>188.0</ele><time>2026-05-03T10:38:02.217Z</time></trkpt><trkpt lat="46.03027" lon="13.591905"><ele>188.0</ele><time>2026-05-03T10:38:03.217Z</time></trkpt><trkpt lat="46.0304317" lon="13.5919683"><ele>188.0</ele><time>2026-05-03T10:38:04.217Z</time></trkpt><trkpt lat="46.030595" lon="13.5920383"><ele>180.33333333333331</ele><time>2026-05-03T10:38:05.217Z</time></trkpt><trkpt lat="46.0307533" lon="13.5921"><ele>172.66666666666666</ele><time>2026-05-03T10:38:06.217Z</time></trkpt><trkpt lat="46.03091" lon="13.592155"><ele>165.0</ele><time>2026-05-03T10:38:07.217Z</time></trkpt><trkpt lat="46.0310667" lon="13.59221"><ele>165.0</ele><time>2026-05-03T10:38:08.217Z</time></trkpt><trkpt lat="46.0312167" lon="13.592255"><ele>165.0</ele><time>2026-05-03T10:38:09.217Z</time></trkpt><trkpt lat="46.031365" lon="13.592295"><ele>165.0</ele><time>2026-05-03T10:38:10.217Z</time></trkpt><trkpt lat="46.0315167" lon="13.5923233"><ele>165.75</ele><time>2026-05-03T10:38:11.217Z</time></trkpt><trkpt lat="46.0316667" lon="13.5923483"><ele>166.5</ele><time>2026-05-03T10:38:12.217Z</time></trkpt><trkpt lat="46.03181" lon="13.5923783"><ele>167.25</ele><time>2026-05-03T10:38:13.217Z</time></trkpt><trkpt lat="46.0319567" lon="13.5923583"><ele>168.0</ele><time>2026-05-03T10:38:14.217Z</time></trkpt><trkpt lat="46.0321033" lon="13.59231"><ele>168.0</ele><time>2026-05-03T10:38:15.217Z</time></trkpt><trkpt lat="46.0322367" lon="13.5922583"><ele>168.0</ele><time>2026-05-03T10:38:16.217Z</time></trkpt><trkpt lat="46.032365" lon="13.59221"><ele>168.0</ele><time>2026-05-03T10:38:17.217Z</time></trkpt><trkpt lat="46.0324933" lon="13.59217"><ele>168.0</ele><time>2026-05-03T10:38:18.217Z</time></trkpt><trkpt lat="46.0326067" lon="13.5922033"><ele>166.25</ele><time>2026-05-03T10:38:19.217Z</time></trkpt><trkpt lat="46.0327017" lon="13.5923033"><ele>164.5</ele><time>2026-05-03T10:38:20.217Z</time></trkpt><trkpt lat="46.03278" lon="13.59242"><ele>162.75</ele><time>2026-05-03T10:38:21.217Z</time></trkpt><trkpt lat="46.0328667" lon="13.5925483"><ele>161.0</ele><time>2026-05-03T10:38:22.217Z</time></trkpt><trkpt lat="46.0329717" lon="13.59267"><ele>161.0</ele><time>2026-05-03T10:38:23.217Z</time></trkpt><trkpt lat="46.0331017" lon="13.592785"><ele>161.0</ele><time>2026-05-03T10:38:24.217Z</time></trkpt><trkpt lat="46.033245" lon="13.59289"><ele>161.0</ele><time>2026-05-03T10:38:25.217Z</time></trkpt><trkpt lat="46.0333817" lon="13.5929817"><ele>157.75</ele><time>2026-05-03T10:38:26.217Z</time></trkpt><trkpt lat="46.03352" lon="13.5930633"><ele>154.5</ele><time>2026-05-03T10:38:27.217Z</time></trkpt><trkpt lat="46.0336633" lon="13.5931517"><ele>151.25</ele><time>2026-05-03T10:38:28.217Z</time></trkpt><trkpt lat="46.03379" lon="13.5932267"><ele>148.0</ele><time>2026-05-03T10:38:29.217Z</time></trkpt><trkpt lat="46.0339167" lon="13.5932917"><ele>148.0</ele><time>2026-05-03T10:38:30.217Z</time></trkpt><trkpt lat="46.03404" lon="13.5933617"><ele>148.0</ele><time>2026-05-03T10:38:31.217Z</time></trkpt><trkpt lat="46.0341617" lon="13.59344"><ele>148.0</ele><time>2026-05-03T10:38:32.217Z</time></trkpt><trkpt lat="46.0342867" lon="13.5935017"><ele>148.0</ele><time>2026-05-03T10:38:33.217Z</time></trkpt><trkpt lat="46.034415" lon="13.5935683"><ele>149.75</ele><time>2026-05-03T10:38:34.217Z</time></trkpt><trkpt lat="46.0345517" lon="13.59361"><ele>151.5</ele><time>2026-05-03T10:38:35.217Z</time></trkpt><trkpt lat="46.0346933" lon="13.5936283"><ele>153.25</ele><time>2026-05-03T10:38:36.217Z</time></trkpt><trkpt lat="46.0348333" lon="13.59363"><ele>155.0</ele><time>2026-05-03T10:38:37.217Z</time></trkpt><trkpt lat="46.03496" lon="13.5935983"><ele>152.66666666666666</ele><time>2026-05-03T10:38:38.217Z</time></trkpt><trkpt lat="46.0350833" lon="13.5934917"><ele>150.33333333333334</ele><time>2026-05-03T10:38:39.217Z</time></trkpt><trkpt lat="46.0351983" lon="13.59335"><ele>148.0</ele><time>2026-05-03T10:38:40.217Z</time></trkpt><trkpt lat="46.0353133" lon="13.5932"><ele>148.0</ele><time>2026-05-03T10:38:41.217Z</time></trkpt><trkpt lat="46.0354267" lon="13.5930533"><ele>148.0</ele><time>2026-05-03T10:38:42.217Z</time></trkpt><trkpt lat="46.0355217" lon="13.5929017"><ele>148.0</ele><time>2026-05-03T10:38:43.217Z</time></trkpt><trkpt lat="46.035615" lon="13.592745"><ele>148.0</ele><time>2026-05-03T10:38:44.217Z</time></trkpt><trkpt lat="46.035685" lon="13.5925817"><ele>145.75</ele><time>2026-05-03T10:38:45.217Z</time></trkpt><trkpt lat="46.0357483" lon="13.5924"><ele>143.5</ele><time>2026-05-03T10:38:46.217Z</time></trkpt><trkpt lat="46.035795" lon="13.5922067"><ele>141.25</ele><time>2026-05-03T10:38:47.217Z</time></trkpt><trkpt lat="46.0358417" lon="13.59201"><ele>139.0</ele><time>2026-05-03T10:38:48.217Z</time></trkpt><trkpt lat="46.03589" lon="13.5918083"><ele>139.0</ele><time>2026-05-03T10:38:49.217Z</time></trkpt><trkpt lat="46.0359367" lon="13.591605"><ele>139.0</ele><time>2026-05-03T10:38:50.217Z</time></trkpt><trkpt lat="46.0359833" lon="13.59141"><ele>139.0</ele><time>2026-05-03T10:38:51.217Z</time></trkpt><trkpt lat="46.0360367" lon="13.591225"><ele>139.0</ele><time>2026-05-03T10:38:52.217Z</time></trkpt><trkpt lat="46.0361" lon="13.5910367"><ele>142.0</ele><time>2026-05-03T10:38:53.217Z</time></trkpt><trkpt lat="46.036165" lon="13.5908583"><ele>145.0</ele><time>2026-05-03T10:38:54.217Z</time></trkpt><trkpt lat="46.0362283" lon="13.59068"><ele>148.0</ele><time>2026-05-03T10:38:55.217Z</time></trkpt><trkpt lat="46.0363017" lon="13.5905083"><ele>151.0</ele><time>2026-05-03T10:38:56.217Z</time></trkpt><trkpt lat="46.03638" lon="13.59035"><ele>157.25</ele><time>2026-05-03T10:38:57.217Z</time></trkpt><trkpt lat="46.0364683" lon="13.590185"><ele>163.5</ele><time>2026-05-03T10:38:58.217Z</time></trkpt><trkpt lat="46.0365483" lon="13.5900217"><ele>169.75</ele><time>2026-05-03T10:38:59.217Z</time></trkpt><trkpt lat="46.0366267" lon="13.5898567"><ele>176.0</ele><time>2026-05-03T10:39:00.217Z</time></trkpt><trkpt lat="46.0367133" lon="13.5897033"><ele>166.5</ele><time>2026-05-03T10:39:01.217Z</time></trkpt><trkpt lat="46.0367917" lon="13.5895367"><ele>157.0</ele><time>2026-05-03T10:39:02.217Z</time></trkpt><trkpt lat="46.0368767" lon="13.5893717"><ele>147.5</ele><time>2026-05-03T10:39:03.217Z</time></trkpt><trkpt lat="46.0369783" lon="13.5892133"><ele>138.0</ele><time>2026-05-03T10:39:04.217Z</time></trkpt><trkpt lat="46.0370933" lon="13.5890767"><ele>138.0</ele><time>2026-05-03T10:39:05.217Z</time></trkpt><trkpt lat="46.037215" lon="13.5889617"><ele>138.0</ele><time>2026-05-03T10:39:06.217Z</time></trkpt><trkpt lat="46.03734" lon="13.5888683"><ele>138.0</ele><time>2026-05-03T10:39:07.217Z</time></trkpt><trkpt lat="46.0374567" lon="13.5887567"><ele>138.0</ele><time>2026-05-03T10:39:08.217Z</time></trkpt><trkpt lat="46.03755" lon="13.58862"><ele>132.0</ele><time>2026-05-03T10:39:09.217Z</time></trkpt><trkpt lat="46.0376317" lon="13.58848"><ele>126.0</ele><time>2026-05-03T10:39:10.217Z</time></trkpt><trkpt lat="46.0377133" lon="13.588335"><ele>120.0</ele><time>2026-05-03T10:39:11.217Z</time></trkpt><trkpt lat="46.037815" lon="13.588195"><ele>114.0</ele><time>2026-05-03T10:39:12.217Z</time></trkpt><trkpt lat="46.037935" lon="13.5881017"><ele>114.0</ele><time>2026-05-03T10:39:13.217Z</time></trkpt><trkpt lat="46.03806" lon="13.5880517"><ele>114.0</ele><time>2026-05-03T10:39:14.217Z</time></trkpt><trkpt lat="46.038205" lon="13.5880383"><ele>114.0</ele><time>2026-05-03T10:39:15.217Z</time></trkpt><trkpt lat="46.0383367" lon="13.58805"><ele>114.0</ele><time>2026-05-03T10:39:16.217Z</time></trkpt><trkpt lat="46.0384683" lon="13.5880883"><ele>108.75</ele><time>2026-05-03T10:39:17.217Z</time></trkpt><trkpt lat="46.0386017" lon="13.58812"><ele>103.5</ele><time>2026-05-03T10:39:18.217Z</time></trkpt><trkpt lat="46.038725" lon="13.58814"><ele>98.25</ele><time>2026-05-03T10:39:19.217Z</time></trkpt><trkpt lat="46.0388483" lon="13.588145"><ele>93.0</ele><time>2026-05-03T10:39:20.217Z</time></trkpt><trkpt lat="46.0389717" lon="13.588125"><ele>93.0</ele><time>2026-05-03T10:39:21.217Z</time></trkpt><trkpt lat="46.0390933" lon="13.5880917"><ele>93.0</ele><time>2026-05-03T10:39:22.217Z</time></trkpt><trkpt lat="46.0392083" lon="13.58806"><ele>93.0</ele><time>2026-05-03T10:39:23.217Z</time></trkpt><trkpt lat="46.03932" lon="13.5880267"><ele>93.0</ele><time>2026-05-03T10:39:24.217Z</time></trkpt><trkpt lat="46.03944" lon="13.5880067"><ele>91.80000000000001</ele><time>2026-05-03T10:39:25.217Z</time></trkpt><trkpt lat="46.039545" lon="13.5879883"><ele>90.6</ele><time>2026-05-03T10:39:26.217Z</time></trkpt><trkpt lat="46.0396467" lon="13.587975"><ele>89.4</ele><time>2026-05-03T10:39:27.217Z</time></trkpt><trkpt lat="46.0397467" lon="13.5879667"><ele>88.19999999999999</ele><time>2026-05-03T10:39:28.217Z</time></trkpt><trkpt lat="46.0398333" lon="13.5879683"><ele>87.0</ele><time>2026-05-03T10:39:29.217Z</time></trkpt><trkpt lat="46.0399117" lon="13.5879767"><ele>86.5</ele><time>2026-05-03T10:39:30.217Z</time></trkpt><trkpt lat="46.0399883" lon="13.5879883"><ele>86.0</ele><time>2026-05-03T10:39:31.217Z</time></trkpt><trkpt lat="46.04006" lon="13.588"><ele>85.5</ele><time>2026-05-03T10:39:32.217Z</time></trkpt><trkpt lat="46.04014" lon="13.588"><ele>85.0</ele><time>2026-05-03T10:39:33.217Z</time></trkpt><trkpt lat="46.040225" lon="13.5879767"><ele>84.5</ele><time>2026-05-03T10:39:34.217Z</time></trkpt><trkpt lat="46.04031" lon="13.5879317"><ele>84.0</ele><time>2026-05-03T10:39:35.217Z</time></trkpt><trkpt lat="46.0403917" lon="13.5879033"><ele>84.0</ele><time>2026-05-03T10:39:36.218Z</time></trkpt><trkpt lat="46.0404833" lon="13.5878733"><ele>84.0</ele><time>2026-05-03T10:39:37.217Z</time></trkpt><trkpt lat="46.0405633" lon="13.5878517"><ele>84.0</ele><time>2026-05-03T10:39:38.217Z</time></trkpt><trkpt lat="46.04064" lon="13.587855"><ele>84.0</ele><time>2026-05-03T10:39:39.217Z</time></trkpt><trkpt lat="46.040715" lon="13.5878633"><ele>84.0</ele><time>2026-05-03T10:39:40.217Z</time></trkpt><trkpt lat="46.0407983" lon="13.5878633"><ele>84.0</ele><time>2026-05-03T10:39:41.217Z</time></trkpt><trkpt lat="46.0408867" lon="13.5878533"><ele>84.80000000000001</ele><time>2026-05-03T10:39:42.217Z</time></trkpt><trkpt lat="46.0409717" lon="13.5878467"><ele>85.60000000000001</ele><time>2026-05-03T10:39:43.217Z</time></trkpt><trkpt lat="46.0410667" lon="13.5878083"><ele>86.4</ele><time>2026-05-03T10:39:44.217Z</time></trkpt><trkpt lat="46.0411767" lon="13.5877417"><ele>87.2</ele><time>2026-05-03T10:39:45.217Z</time></trkpt><trkpt lat="46.04129" lon="13.5876783"><ele>88.0</ele><time>2026-05-03T10:39:46.217Z</time></trkpt><trkpt lat="46.0413967" lon="13.587675"><ele>88.0</ele><time>2026-05-03T10:39:47.217Z</time></trkpt><trkpt lat="46.0414917" lon="13.5877467"><ele>88.0</ele><time>2026-05-03T10:39:48.217Z</time></trkpt><trkpt lat="46.041575" lon="13.5878567"><ele>88.0</ele><time>2026-05-03T10:39:49.217Z</time></trkpt><trkpt lat="46.0416433" lon="13.5879667"><ele>88.0</ele><time>2026-05-03T10:39:50.217Z</time></trkpt><trkpt lat="46.0417183" lon="13.5880317"><ele>88.0</ele><time>2026-05-03T10:39:51.217Z</time></trkpt><trkpt lat="46.0417867" lon="13.5880733"><ele>87.66666666666666</ele><time>2026-05-03T10:39:52.217Z</time></trkpt><trkpt lat="46.041865" lon="13.5880967"><ele>87.33333333333333</ele><time>2026-05-03T10:39:53.217Z</time></trkpt><trkpt lat="46.0419467" lon="13.5880983"><ele>87.0</ele><time>2026-05-03T10:39:54.217Z</time></trkpt><trkpt lat="46.0420267" lon="13.5880833"><ele>86.66666666666667</ele><time>2026-05-03T10:39:55.217Z</time></trkpt><trkpt lat="46.0421" lon="13.588065"><ele>86.33333333333334</ele><time>2026-05-03T10:39:56.217Z</time></trkpt><trkpt lat="46.042175" lon="13.5880517"><ele>86.0</ele><time>2026-05-03T10:39:57.217Z</time></trkpt><trkpt lat="46.04226" lon="13.5880317"><ele>86.0</ele><time>2026-05-03T10:39:58.217Z</time></trkpt><trkpt lat="46.0423433" lon="13.5880567"><ele>86.0</ele><time>2026-05-03T10:39:59.217Z</time></trkpt><trkpt lat="46.0424267" lon="13.5881"><ele>86.0</ele><time>2026-05-03T10:40:00.217Z</time></trkpt><trkpt lat="46.0425233" lon="13.5881533"><ele>86.0</ele><time>2026-05-03T10:40:01.217Z</time></trkpt><trkpt lat="46.0426167" lon="13.588205"><ele>86.0</ele><time>2026-05-03T10:40:02.217Z</time></trkpt><trkpt lat="46.0427067" lon="13.588275"><ele>86.8</ele><time>2026-05-03T10:40:03.217Z</time></trkpt><trkpt lat="46.04278" lon="13.5883667"><ele>87.6</ele><time>2026-05-03T10:40:04.217Z</time></trkpt><trkpt lat="46.0428533" lon="13.5884617"><ele>88.4</ele><time>2026-05-03T10:40:05.217Z</time></trkpt><trkpt lat="46.0429217" lon="13.5885583"><ele>89.2</ele><time>2026-05-03T10:40:06.217Z</time></trkpt><trkpt lat="46.0429967" lon="13.5886417"><ele>90.0</ele><time>2026-05-03T10:40:07.217Z</time></trkpt><trkpt lat="46.0430733" lon="13.5887"><ele>90.0</ele><time>2026-05-03T10:40:08.217Z</time></trkpt><trkpt lat="46.0431583" lon="13.588745"><ele>90.0</ele><time>2026-05-03T10:40:09.217Z</time></trkpt><trkpt lat="46.04325" lon="13.5887683"><ele>90.0</ele><time>2026-05-03T10:40:10.217Z</time></trkpt><trkpt lat="46.0433617" lon="13.5887533"><ele>90.0</ele><time>2026-05-03T10:40:11.217Z</time></trkpt><trkpt lat="46.0434767" lon="13.5887433"><ele>90.0</ele><time>2026-05-03T10:40:12.217Z</time></trkpt><trkpt lat="46.043595" lon="13.5887317"><ele>91.0</ele><time>2026-05-03T10:40:13.217Z</time></trkpt><trkpt lat="46.0437217" lon="13.5887533"><ele>92.0</ele><time>2026-05-03T10:40:14.217Z</time></trkpt><trkpt lat="46.0438533" lon="13.588805"><ele>93.0</ele><time>2026-05-03T10:40:15.217Z</time></trkpt><trkpt lat="46.0439867" lon="13.588865"><ele>94.0</ele><time>2026-05-03T10:40:16.217Z</time></trkpt><trkpt lat="46.0441267" lon="13.5889367"><ele>93.5</ele><time>2026-05-03T10:40:17.217Z</time></trkpt><trkpt lat="46.044265" lon="13.5890067"><ele>93.0</ele><time>2026-05-03T10:40:18.217Z</time></trkpt><trkpt lat="46.0443883" lon="13.58908"><ele>92.5</ele><time>2026-05-03T10:40:19.217Z</time></trkpt><trkpt lat="46.044505" lon="13.5891417"><ele>92.0</ele><time>2026-05-03T10:40:20.217Z</time></trkpt><trkpt lat="46.044625" lon="13.589205"><ele>92.0</ele><time>2026-05-03T10:40:21.217Z</time></trkpt><trkpt lat="46.0447433" lon="13.589265"><ele>92.0</ele><time>2026-05-03T10:40:22.217Z</time></trkpt><trkpt lat="46.0448517" lon="13.5893133"><ele>92.0</ele><time>2026-05-03T10:40:23.217Z</time></trkpt><trkpt lat="46.044955" lon="13.58937"><ele>92.0</ele><time>2026-05-03T10:40:24.217Z</time></trkpt><trkpt lat="46.0450467" lon="13.589465"><ele>91.6</ele><time>2026-05-03T10:40:25.217Z</time></trkpt><trkpt lat="46.0451383" lon="13.5895867"><ele>91.19999999999999</ele><time>2026-05-03T10:40:26.217Z</time></trkpt><trkpt lat="46.0452233" lon="13.5897083"><ele>90.8</ele><time>2026-05-03T10:40:27.217Z</time></trkpt><trkpt lat="46.0452833" lon="13.5898083"><ele>90.4</ele><time>2026-05-03T10:40:28.217Z</time></trkpt><trkpt lat="46.045335" lon="13.5898833"><ele>90.0</ele><time>2026-05-03T10:40:29.217Z</time></trkpt><trkpt lat="46.0453883" lon="13.5899433"><ele>90.0</ele><time>2026-05-03T10:40:30.217Z</time></trkpt><trkpt lat="46.0454633" lon="13.5900117"><ele>90.0</ele><time>2026-05-03T10:40:31.217Z</time></trkpt><trkpt lat="46.04556" lon="13.5900783"><ele>90.0</ele><time>2026-05-03T10:40:32.217Z</time></trkpt><trkpt lat="46.0456667" lon="13.59015"><ele>90.0</ele><time>2026-05-03T10:40:33.217Z</time></trkpt><trkpt lat="46.0457883" lon="13.5902333"><ele>90.0</ele><time>2026-05-03T10:40:34.217Z</time></trkpt><trkpt lat="46.0459233" lon="13.5903167"><ele>89.0</ele><time>2026-05-03T10:40:35.217Z</time></trkpt><trkpt lat="46.0460517" lon="13.590405"><ele>88.0</ele><time>2026-05-03T10:40:36.217Z</time></trkpt><trkpt lat="46.0461783" lon="13.5904867"><ele>87.0</ele><time>2026-05-03T10:40:37.217Z</time></trkpt><trkpt lat="46.0463" lon="13.5905683"><ele>86.0</ele><time>2026-05-03T10:40:38.217Z</time></trkpt><trkpt lat="46.0464133" lon="13.5906483"><ele>86.0</ele><time>2026-05-03T10:40:39.217Z</time></trkpt><trkpt lat="46.0465217" lon="13.5907317"><ele>86.0</ele><time>2026-05-03T10:40:40.217Z</time></trkpt><trkpt lat="46.0466217" lon="13.590805"><ele>86.0</ele><time>2026-05-03T10:40:41.217Z</time></trkpt><trkpt lat="46.046725" lon="13.5908733"><ele>86.0</ele><time>2026-05-03T10:40:42.217Z</time></trkpt><trkpt lat="46.0468233" lon="13.5909433"><ele>87.75</ele><time>2026-05-03T10:40:43.217Z</time></trkpt><trkpt lat="46.0469333" lon="13.5909983"><ele>89.5</ele><time>2026-05-03T10:40:44.217Z</time></trkpt><trkpt lat="46.04705" lon="13.59103"><ele>91.25</ele><time>2026-05-03T10:40:45.218Z</time></trkpt><trkpt lat="46.0471717" lon="13.5910717"><ele>93.0</ele><time>2026-05-03T10:40:46.217Z</time></trkpt><trkpt lat="46.0472933" lon="13.5911533"><ele>92.0</ele><time>2026-05-03T10:40:47.217Z</time></trkpt><trkpt lat="46.0473917" lon="13.591275"><ele>91.0</ele><time>2026-05-03T10:40:48.217Z</time></trkpt><trkpt lat="46.0474833" lon="13.59143"><ele>90.0</ele><time>2026-05-03T10:40:49.217Z</time></trkpt><trkpt lat="46.0475717" lon="13.591575"><ele>89.0</ele><time>2026-05-03T10:40:50.217Z</time></trkpt><trkpt lat="46.04766" lon="13.5917183"><ele>88.5</ele><time>2026-05-03T10:40:51.217Z</time></trkpt><trkpt lat="46.0477483" lon="13.5918483"><ele>88.0</ele><time>2026-05-03T10:40:52.217Z</time></trkpt><trkpt lat="46.0478767" lon="13.5919633"><ele>87.5</ele><time>2026-05-03T10:40:53.217Z</time></trkpt><trkpt lat="46.0480067" lon="13.5921017"><ele>87.0</ele><time>2026-05-03T10:40:54.217Z</time></trkpt><trkpt lat="46.0481217" lon="13.5921967"><ele>86.83333333333333</ele><time>2026-05-03T10:40:55.217Z</time></trkpt><trkpt lat="46.0482233" lon="13.5922717"><ele>86.66666666666667</ele><time>2026-05-03T10:40:56.217Z</time></trkpt><trkpt lat="46.0482933" lon="13.5923217"><ele>86.5</ele><time>2026-05-03T10:40:57.217Z</time></trkpt><trkpt lat="46.04837" lon="13.5923767"><ele>86.33333333333334</ele><time>2026-05-03T10:40:59.217Z</time></trkpt><trkpt lat="46.0483283" lon="13.5923"><ele>86.16666666666667</ele><time>2026-05-03T10:41:09.217Z</time></trkpt><trkpt lat="46.0482617" lon="13.5922517"><ele>86.0</ele><time>2026-05-03T10:41:10.217Z</time></trkpt><trkpt lat="46.0481733" lon="13.5921733"><ele>86.0</ele><time>2026-05-03T10:41:11.217Z</time></trkpt><trkpt lat="46.0480767" lon="13.5920883"><ele>86.0</ele><time>2026-05-03T10:41:12.217Z</time></trkpt><trkpt lat="46.0479767" lon="13.5920067"><ele>86.0</ele><time>2026-05-03T10:41:13.217Z</time></trkpt><trkpt lat="46.04787" lon="13.5919117"><ele>86.0</ele><time>2026-05-03T10:41:14.217Z</time></trkpt><trkpt lat="46.0477667" lon="13.5918"><ele>86.19999999999999</ele><time>2026-05-03T10:41:15.217Z</time></trkpt><trkpt lat="46.0476833" lon="13.5916767"><ele>86.39999999999999</ele><time>2026-05-03T10:41:16.217Z</time></trkpt><trkpt lat="46.047595" lon="13.591555"><ele>86.6</ele><time>2026-05-03T10:41:17.217Z</time></trkpt><trkpt lat="46.04754" lon="13.5914533"><ele>86.8</ele><time>2026-05-03T10:41:18.217Z</time></trkpt><trkpt lat="46.0475067" lon="13.59133"><ele>87.0</ele><time>2026-05-03T10:41:20.217Z</time></trkpt><trkpt lat="46.047585" lon="13.5912667"><ele>87.0</ele><time>2026-05-03T10:41:22.217Z</time></trkpt><trkpt lat="46.0476983" lon="13.5912133"><ele>87.0</ele><time>2026-05-03T10:41:24.217Z</time></trkpt><trkpt lat="46.0477783" lon="13.591175"><ele>87.0</ele><time>2026-05-03T10:41:25.217Z</time></trkpt><trkpt lat="46.0478733" lon="13.5911283"><ele>87.0</ele><time>2026-05-03T10:41:26.217Z</time></trkpt><trkpt lat="46.0479783" lon="13.5910867"><ele>87.0</ele><time>2026-05-03T10:41:27.217Z</time></trkpt><trkpt lat="46.04808" lon="13.5910567"><ele>88.39999999999999</ele><time>2026-05-03T10:41:28.217Z</time></trkpt><trkpt lat="46.0481867" lon="13.5910683"><ele>89.8</ele><time>2026-05-03T10:41:29.217Z</time></trkpt><trkpt lat="46.0482883" lon="13.5911117"><ele>91.2</ele><time>2026-05-03T10:41:30.217Z</time></trkpt><trkpt lat="46.0483717" lon="13.5911367"><ele>92.6</ele><time>2026-05-03T10:41:31.217Z</time></trkpt><trkpt lat="46.048455" lon="13.59112"><ele>94.0</ele><time>2026-05-03T10:41:33.217Z</time></trkpt><trkpt lat="46.0485167" lon="13.591015"><ele>94.0</ele><time>2026-05-03T10:41:36.217Z</time></trkpt><trkpt lat="46.048515" lon="13.5909"><ele>94.0</ele><time>2026-05-03T10:41:37.217Z</time></trkpt><trkpt lat="46.048445" lon="13.5908067"><ele>94.0</ele><time>2026-05-03T10:41:38.217Z</time></trkpt><trkpt lat="46.0483617" lon="13.5907117"><ele>94.0</ele><time>2026-05-03T10:41:39.217Z</time></trkpt><trkpt lat="46.0482617" lon="13.5906367"><ele>94.0</ele><time>2026-05-03T10:41:40.217Z</time></trkpt><trkpt lat="46.0481483" lon="13.5905617"><ele>94.0</ele><time>2026-05-03T10:41:41.217Z</time></trkpt><trkpt lat="46.0480417" lon="13.5905017"><ele>94.0</ele><time>2026-05-03T10:41:42.217Z</time></trkpt><trkpt lat="46.047945" lon="13.5904633"><ele>94.0</ele><time>2026-05-03T10:41:43.217Z</time></trkpt><trkpt lat="46.0478617" lon="13.5904083"><ele>94.0</ele><time>2026-05-03T10:41:44.217Z</time></trkpt><trkpt lat="46.0477867" lon="13.5903367"><ele>94.0</ele><time>2026-05-03T10:41:45.218Z</time></trkpt><trkpt lat="46.04772" lon="13.59023"><ele>96.0</ele><time>2026-05-03T10:41:46.217Z</time></trkpt><trkpt lat="46.0476583" lon="13.5901117"><ele>98.0</ele><time>2026-05-03T10:41:47.217Z</time></trkpt><trkpt lat="46.04761" lon="13.590005"><ele>100.0</ele><time>2026-05-03T10:41:48.217Z</time></trkpt><trkpt lat="46.0475717" lon="13.5899217"><ele>102.0</ele><time>2026-05-03T10:41:49.217Z</time></trkpt><trkpt lat="46.04754" lon="13.5898133"><ele>104.00000000000001</ele><time>2026-05-03T10:41:51.217Z</time></trkpt><trkpt lat="46.04757" lon="13.5897217"><ele>106.0</ele><time>2026-05-03T10:41:53.217Z</time></trkpt><trkpt lat="46.047615" lon="13.5896233"><ele>108.8</ele><time>2026-05-03T10:41:55.217Z</time></trkpt><trkpt lat="46.047685" lon="13.589475"><ele>111.6</ele><time>2026-05-03T10:41:57.217Z</time></trkpt><trkpt lat="46.04773" lon="13.5893767"><ele>114.4</ele><time>2026-05-03T10:41:58.217Z</time></trkpt><trkpt lat="46.0477817" lon="13.5892633"><ele>117.2</ele><time>2026-05-03T10:41:59.217Z</time></trkpt><trkpt lat="46.0478367" lon="13.5891283"><ele>120.0</ele><time>2026-05-03T10:42:00.217Z</time></trkpt><trkpt lat="46.04789" lon="13.5889817"><ele>120.0</ele><time>2026-05-03T10:42:01.217Z</time></trkpt><trkpt lat="46.0479667" lon="13.5888383"><ele>120.0</ele><time>2026-05-03T10:42:02.217Z</time></trkpt><trkpt lat="46.0480467" lon="13.5886717"><ele>120.0</ele><time>2026-05-03T10:42:03.217Z</time></trkpt><trkpt lat="46.0481317" lon="13.5885267"><ele>120.0</ele><time>2026-05-03T10:42:04.217Z</time></trkpt><trkpt lat="46.0482317" lon="13.5883867"><ele>122.0</ele><time>2026-05-03T10:42:05.217Z</time></trkpt><trkpt lat="46.0483333" lon="13.588235"><ele>124.0</ele><time>2026-05-03T10:42:06.217Z</time></trkpt><trkpt lat="46.048425" lon="13.5880733"><ele>126.0</ele><time>2026-05-03T10:42:07.217Z</time></trkpt><trkpt lat="46.0485133" lon="13.5878933"><ele>128.0</ele><time>2026-05-03T10:42:08.217Z</time></trkpt><trkpt lat="46.0485833" lon="13.5877133"><ele>130.0</ele><time>2026-05-03T10:42:09.217Z</time></trkpt><trkpt lat="46.0486517" lon="13.5875633"><ele>132.0</ele><time>2026-05-03T10:42:10.217Z</time></trkpt><trkpt lat="46.0487183" lon="13.5874567"><ele>134.0</ele><time>2026-05-03T10:42:11.217Z</time></trkpt><trkpt lat="46.0488017" lon="13.5873767"><ele>136.0</ele><time>2026-05-03T10:42:12.218Z</time></trkpt><trkpt lat="46.0489083" lon="13.587295"><ele>138.0</ele><time>2026-05-03T10:42:13.217Z</time></trkpt><trkpt lat="46.0490267" lon="13.58719"><ele>139.25</ele><time>2026-05-03T10:42:14.217Z</time></trkpt><trkpt lat="46.0491383" lon="13.5870617"><ele>140.5</ele><time>2026-05-03T10:42:15.217Z</time></trkpt><trkpt lat="46.0492633" lon="13.58694"><ele>141.75</ele><time>2026-05-03T10:42:16.217Z</time></trkpt><trkpt lat="46.04939" lon="13.586815"><ele>143.0</ele><time>2026-05-03T10:42:17.217Z</time></trkpt><trkpt lat="46.0494967" lon="13.5866417"><ele>143.0</ele><time>2026-05-03T10:42:18.217Z</time></trkpt><trkpt lat="46.0495933" lon="13.5864767"><ele>143.0</ele><time>2026-05-03T10:42:19.217Z</time></trkpt><trkpt lat="46.0496783" lon="13.5863117"><ele>143.0</ele><time>2026-05-03T10:42:20.217Z</time></trkpt><trkpt lat="46.0497333" lon="13.5861333"><ele>143.0</ele><time>2026-05-03T10:42:21.217Z</time></trkpt><trkpt lat="46.049775" lon="13.585985"><ele>143.0</ele><time>2026-05-03T10:42:22.217Z</time></trkpt><trkpt lat="46.049805" lon="13.5858867"><ele>143.0</ele><time>2026-05-03T10:42:23.217Z</time></trkpt><trkpt lat="46.049865" lon="13.5858417"><ele>143.0</ele><time>2026-05-03T10:42:25.217Z</time></trkpt><trkpt lat="46.0498533" lon="13.58601"><ele>143.0</ele><time>2026-05-03T10:42:27.217Z</time></trkpt><trkpt lat="46.0498183" lon="13.5861633"><ele>143.0</ele><time>2026-05-03T10:42:28.217Z</time></trkpt><trkpt lat="46.0497633" lon="13.5863717"><ele>143.0</ele><time>2026-05-03T10:42:29.217Z</time></trkpt><trkpt lat="46.04969" lon="13.5866117"><ele>143.0</ele><time>2026-05-03T10:42:30.217Z</time></trkpt><trkpt lat="46.0496267" lon="13.5868183"><ele>143.0</ele><time>2026-05-03T10:42:31.217Z</time></trkpt><trkpt lat="46.04955" lon="13.5869683"><ele>143.0</ele><time>2026-05-03T10:42:32.217Z</time></trkpt><trkpt lat="46.0494767" lon="13.587075"><ele>143.0</ele><time>2026-05-03T10:42:33.217Z</time></trkpt><trkpt lat="46.0494367" lon="13.5871667"><ele>143.0</ele><time>2026-05-03T10:42:34.217Z</time></trkpt><trkpt lat="46.0494933" lon="13.5872683"><ele>143.0</ele><time>2026-05-03T10:42:36.216Z</time></trkpt><trkpt lat="46.0495633" lon="13.587235"><ele>143.0</ele><time>2026-05-03T10:42:37.216Z</time></trkpt><trkpt lat="46.04966" lon="13.5871267"><ele>143.0</ele><time>2026-05-03T10:42:38.216Z</time></trkpt><trkpt lat="46.0497467" lon="13.586985"><ele>143.0</ele><time>2026-05-03T10:42:39.216Z</time></trkpt><trkpt lat="46.049825" lon="13.5868083"><ele>143.0</ele><time>2026-05-03T10:42:40.216Z</time></trkpt><trkpt lat="46.0498967" lon="13.5866117"><ele>143.0</ele><time>2026-05-03T10:42:41.216Z</time></trkpt><trkpt lat="46.0499617" lon="13.5864283"><ele>144.5</ele><time>2026-05-03T10:42:42.216Z</time></trkpt><trkpt lat="46.0500317" lon="13.5862833"><ele>146.0</ele><time>2026-05-03T10:42:43.216Z</time></trkpt><trkpt lat="46.0501083" lon="13.5861917"><ele>147.5</ele><time>2026-05-03T10:42:44.216Z</time></trkpt><trkpt lat="46.050205" lon="13.5861217"><ele>149.0</ele><time>2026-05-03T10:42:45.216Z</time></trkpt><trkpt lat="46.0503183" lon="13.586065"><ele>149.0</ele><time>2026-05-03T10:42:46.216Z</time></trkpt><trkpt lat="46.0504517" lon="13.5859933"><ele>149.0</ele><time>2026-05-03T10:42:47.216Z</time></trkpt><trkpt lat="46.0505833" lon="13.5858933"><ele>149.0</ele><time>2026-05-03T10:42:48.216Z</time></trkpt><trkpt lat="46.0507117" lon="13.585775"><ele>149.0</ele><time>2026-05-03T10:42:49.216Z</time></trkpt><trkpt lat="46.0508183" lon="13.5856417"><ele>151.6</ele><time>2026-05-03T10:42:50.216Z</time></trkpt><trkpt lat="46.0509017" lon="13.585495"><ele>154.2</ele><time>2026-05-03T10:42:51.216Z</time></trkpt><trkpt lat="46.0509467" lon="13.585345"><ele>156.79999999999998</ele><time>2026-05-03T10:42:52.216Z</time></trkpt><trkpt lat="46.050965" lon="13.5851833"><ele>159.4</ele><time>2026-05-03T10:42:53.216Z</time></trkpt><trkpt lat="46.0509883" lon="13.5850683"><ele>162.0</ele><time>2026-05-03T10:42:54.216Z</time></trkpt><trkpt lat="46.0510783" lon="13.5850217"><ele>162.0</ele><time>2026-05-03T10:42:56.216Z</time></trkpt><trkpt lat="46.0511367" lon="13.5851383"><ele>162.0</ele><time>2026-05-03T10:42:58.216Z</time></trkpt><trkpt lat="46.05112" lon="13.5852317"><ele>162.0</ele><time>2026-05-03T10:42:59.216Z</time></trkpt><trkpt lat="46.05109" lon="13.5853483"><ele>162.0</ele><time>2026-05-03T10:43:00.216Z</time></trkpt><trkpt lat="46.051045" lon="13.5854733"><ele>162.0</ele><time>2026-05-03T10:43:01.216Z</time></trkpt><trkpt lat="46.0509833" lon="13.5856217"><ele>161.25</ele><time>2026-05-03T10:43:02.216Z</time></trkpt><trkpt lat="46.050905" lon="13.5857767"><ele>160.5</ele><time>2026-05-03T10:43:03.216Z</time></trkpt><trkpt lat="46.050835" lon="13.5859333"><ele>159.75</ele><time>2026-05-03T10:43:04.216Z</time></trkpt><trkpt lat="46.050775" lon="13.5860917"><ele>159.0</ele><time>2026-05-03T10:43:05.216Z</time></trkpt><trkpt lat="46.0507283" lon="13.586255"><ele>159.0</ele><time>2026-05-03T10:43:06.216Z</time></trkpt><trkpt lat="46.0506967" lon="13.5864"><ele>159.0</ele><time>2026-05-03T10:43:07.216Z</time></trkpt><trkpt lat="46.050705" lon="13.5865017"><ele>159.0</ele><time>2026-05-03T10:43:08.216Z</time></trkpt><trkpt lat="46.0507967" lon="13.5864783"><ele>159.0</ele><time>2026-05-03T10:43:10.216Z</time></trkpt><trkpt lat="46.0508483" lon="13.5863583"><ele>159.0</ele><time>2026-05-03T10:43:11.216Z</time></trkpt><trkpt lat="46.0509117" lon="13.5862183"><ele>163.0</ele><time>2026-05-03T10:43:12.216Z</time></trkpt><trkpt lat="46.0509983" lon="13.586085"><ele>167.0</ele><time>2026-05-03T10:43:13.216Z</time></trkpt><trkpt lat="46.0510983" lon="13.5859683"><ele>171.0</ele><time>2026-05-03T10:43:14.216Z</time></trkpt><trkpt lat="46.051195" lon="13.5858367"><ele>175.0</ele><time>2026-05-03T10:43:15.216Z</time></trkpt><trkpt lat="46.05127" lon="13.585695"><ele>175.0</ele><time>2026-05-03T10:43:16.216Z</time></trkpt><trkpt lat="46.0513133" lon="13.5855533"><ele>175.0</ele><time>2026-05-03T10:43:17.216Z</time></trkpt><trkpt lat="46.05134" lon="13.5854283"><ele>175.0</ele><time>2026-05-03T10:43:18.216Z</time></trkpt><trkpt lat="46.0513733" lon="13.58535"><ele>175.0</ele><time>2026-05-03T10:43:19.216Z</time></trkpt><trkpt lat="46.0514317" lon="13.5854283"><ele>175.0</ele><time>2026-05-03T10:43:21.216Z</time></trkpt><trkpt lat="46.0514317" lon="13.58552"><ele>175.0</ele><time>2026-05-03T10:43:22.216Z</time></trkpt><trkpt lat="46.051375" lon="13.58567"><ele>175.0</ele><time>2026-05-03T10:43:23.216Z</time></trkpt><trkpt lat="46.0513033" lon="13.5858467"><ele>175.0</ele><time>2026-05-03T10:43:24.216Z</time></trkpt><trkpt lat="46.0512317" lon="13.5860417"><ele>175.0</ele><time>2026-05-03T10:43:25.216Z</time></trkpt><trkpt lat="46.0511617" lon="13.5862317"><ele>175.0</ele><time>2026-05-03T10:43:26.216Z</time></trkpt><trkpt lat="46.0511133" lon="13.5863783"><ele>176.8</ele><time>2026-05-03T10:43:27.216Z</time></trkpt><trkpt lat="46.051095" lon="13.5864883"><ele>178.6</ele><time>2026-05-03T10:43:28.216Z</time></trkpt><trkpt lat="46.05109" lon="13.58662"><ele>180.39999999999998</ele><time>2026-05-03T10:43:29.216Z</time></trkpt><trkpt lat="46.0511083" lon="13.5867817"><ele>182.2</ele><time>2026-05-03T10:43:30.216Z</time></trkpt><trkpt lat="46.051145" lon="13.5869467"><ele>184.0</ele><time>2026-05-03T10:43:31.216Z</time></trkpt><trkpt lat="46.051155" lon="13.587105"><ele>185.16666666666669</ele><time>2026-05-03T10:43:32.216Z</time></trkpt><trkpt lat="46.0511417" lon="13.5872483"><ele>186.33333333333334</ele><time>2026-05-03T10:43:33.216Z</time></trkpt><trkpt lat="46.0511083" lon="13.587385"><ele>187.5</ele><time>2026-05-03T10:43:34.216Z</time></trkpt><trkpt lat="46.0510633" lon="13.5875133"><ele>188.66666666666666</ele><time>2026-05-03T10:43:35.216Z</time></trkpt><trkpt lat="46.0510283" lon="13.587615"><ele>189.83333333333331</ele><time>2026-05-03T10:43:36.216Z</time></trkpt><trkpt lat="46.050995" lon="13.5877"><ele>191.0</ele><time>2026-05-03T10:43:37.216Z</time></trkpt><trkpt lat="46.0509733" lon="13.5878783"><ele>193.16666666666666</ele><time>2026-05-03T10:43:39.216Z</time></trkpt><trkpt lat="46.0509833" lon="13.587995"><ele>195.33333333333331</ele><time>2026-05-03T10:43:40.216Z</time></trkpt><trkpt lat="46.0509983" lon="13.5881233"><ele>197.5</ele><time>2026-05-03T10:43:41.216Z</time></trkpt><trkpt lat="46.051015" lon="13.58825"><ele>199.66666666666666</ele><time>2026-05-03T10:43:42.216Z</time></trkpt><trkpt lat="46.0510167" lon="13.5883717"><ele>201.83333333333334</ele><time>2026-05-03T10:43:43.216Z</time></trkpt><trkpt lat="46.0510017" lon="13.58848"><ele>204.0</ele><time>2026-05-03T10:43:44.216Z</time></trkpt><trkpt lat="46.0509733" lon="13.5885667"><ele>204.0</ele><time>2026-05-03T10:43:45.216Z</time></trkpt><trkpt lat="46.05096" lon="13.5887033"><ele>204.0</ele><time>2026-05-03T10:43:47.216Z</time></trkpt><trkpt lat="46.0510283" lon="13.5887283"><ele>204.0</ele><time>2026-05-03T10:43:50.216Z</time></trkpt><trkpt lat="46.0510917" lon="13.5886167"><ele>204.0</ele><time>2026-05-03T10:43:52.216Z</time></trkpt><trkpt lat="46.05112" lon="13.5885333"><ele>204.0</ele><time>2026-05-03T10:43:53.216Z</time></trkpt><trkpt lat="46.0511483" lon="13.5884233"><ele>204.0</ele><time>2026-05-03T10:43:54.216Z</time></trkpt><trkpt lat="46.0511717" lon="13.5882967"><ele>204.0</ele><time>2026-05-03T10:43:55.216Z</time></trkpt><trkpt lat="46.0512033" lon="13.58817"><ele>204.0</ele><time>2026-05-03T10:43:56.216Z</time></trkpt><trkpt lat="46.051245" lon="13.5880517"><ele>204.0</ele><time>2026-05-03T10:43:57.216Z</time></trkpt><trkpt lat="46.0513033" lon="13.5879583"><ele>204.0</ele><time>2026-05-03T10:43:58.216Z</time></trkpt><trkpt lat="46.0513817" lon="13.587885"><ele>204.0</ele><time>2026-05-03T10:43:59.216Z</time></trkpt><trkpt lat="46.0514667" lon="13.587815"><ele>201.39999999999998</ele><time>2026-05-03T10:44:00.216Z</time></trkpt><trkpt lat="46.0515583" lon="13.5877383"><ele>198.8</ele><time>2026-05-03T10:44:01.216Z</time></trkpt><trkpt lat="46.051645" lon="13.587635"><ele>196.2</ele><time>2026-05-03T10:44:02.216Z</time></trkpt><trkpt lat="46.051715" lon="13.5875083"><ele>193.60000000000002</ele><time>2026-05-03T10:44:03.216Z</time></trkpt><trkpt lat="46.0517767" lon="13.5873817"><ele>191.0</ele><time>2026-05-03T10:44:04.216Z</time></trkpt><trkpt lat="46.0518533" lon="13.5872733"><ele>195.8</ele><time>2026-05-03T10:44:05.216Z</time></trkpt><trkpt lat="46.0519383" lon="13.5871783"><ele>200.60000000000002</ele><time>2026-05-03T10:44:06.216Z</time></trkpt><trkpt lat="46.0520183" lon="13.587085"><ele>205.4</ele><time>2026-05-03T10:44:07.216Z</time></trkpt><trkpt lat="46.05209" lon="13.5869917"><ele>210.2</ele><time>2026-05-03T10:44:08.216Z</time></trkpt><trkpt lat="46.0521333" lon="13.5868883"><ele>215.0</ele><time>2026-05-03T10:44:09.216Z</time></trkpt><trkpt lat="46.0521767" lon="13.58677"><ele>215.0</ele><time>2026-05-03T10:44:10.216Z</time></trkpt><trkpt lat="46.052205" lon="13.5866617"><ele>215.0</ele><time>2026-05-03T10:44:11.217Z</time></trkpt><trkpt lat="46.052225" lon="13.5865633"><ele>215.0</ele><time>2026-05-03T10:44:12.216Z</time></trkpt><trkpt lat="46.0523017" lon="13.586475"><ele>215.0</ele><time>2026-05-03T10:44:14.217Z</time></trkpt><trkpt lat="46.0524283" lon="13.586465"><ele>215.0</ele><time>2026-05-03T10:44:16.216Z</time></trkpt><trkpt lat="46.0525317" lon="13.58652"><ele>215.00000000000003</ele><time>2026-05-03T10:44:18.216Z</time></trkpt><trkpt lat="46.052535" lon="13.5866167"><ele>215.0</ele><time>2026-05-03T10:44:20.216Z</time></trkpt><trkpt lat="46.0524667" lon="13.5866983"><ele>215.0</ele><time>2026-05-03T10:44:22.216Z</time></trkpt><trkpt lat="46.0524167" lon="13.5867583"><ele>215.0</ele><time>2026-05-03T10:44:23.216Z</time></trkpt><trkpt lat="46.0523667" lon="13.5868383"><ele>215.00000000000003</ele><time>2026-05-03T10:44:24.216Z</time></trkpt><trkpt lat="46.0523183" lon="13.5869317"><ele>215.0</ele><time>2026-05-03T10:44:25.216Z</time></trkpt><trkpt lat="46.052275" lon="13.58704"><ele>216.25</ele><time>2026-05-03T10:44:26.216Z</time></trkpt><trkpt lat="46.0522467" lon="13.5871733"><ele>217.5</ele><time>2026-05-03T10:44:27.216Z</time></trkpt><trkpt lat="46.052235" lon="13.5873317"><ele>218.75</ele><time>2026-05-03T10:44:28.216Z</time></trkpt><trkpt lat="46.052205" lon="13.5875083"><ele>220.0</ele><time>2026-05-03T10:44:29.216Z</time></trkpt><trkpt lat="46.0521783" lon="13.5876733"><ele>220.0</ele><time>2026-05-03T10:44:30.216Z</time></trkpt><trkpt lat="46.0521383" lon="13.5878417"><ele>220.0</ele><time>2026-05-03T10:44:31.216Z</time></trkpt><trkpt lat="46.0520933" lon="13.5880083"><ele>220.0</ele><time>2026-05-03T10:44:32.216Z</time></trkpt><trkpt lat="46.05204" lon="13.588155"><ele>220.0</ele><time>2026-05-03T10:44:33.216Z</time></trkpt><trkpt lat="46.0519967" lon="13.5882933"><ele>221.66666666666666</ele><time>2026-05-03T10:44:34.216Z</time></trkpt><trkpt lat="46.05196" lon="13.5884233"><ele>223.33333333333331</ele><time>2026-05-03T10:44:35.216Z</time></trkpt><trkpt lat="46.0519267" lon="13.5885267"><ele>225.0</ele><time>2026-05-03T10:44:36.216Z</time></trkpt><trkpt lat="46.0518967" lon="13.5886183"><ele>226.66666666666669</ele><time>2026-05-03T10:44:37.216Z</time></trkpt><trkpt lat="46.05191" lon="13.5887333"><ele>228.33333333333334</ele><time>2026-05-03T10:44:39.216Z</time></trkpt><trkpt lat="46.051975" lon="13.5887233"><ele>230.0</ele><time>2026-05-03T10:44:41.216Z</time></trkpt><trkpt lat="46.0520367" lon="13.5885967"><ele>230.00000000000003</ele><time>2026-05-03T10:44:43.216Z</time></trkpt><trkpt lat="46.0520733" lon="13.5884967"><ele>230.0</ele><time>2026-05-03T10:44:44.216Z</time></trkpt><trkpt lat="46.0521167" lon="13.5883883"><ele>230.0</ele><time>2026-05-03T10:44:45.216Z</time></trkpt><trkpt lat="46.052175" lon="13.58829"><ele>230.0</ele><time>2026-05-03T10:44:46.216Z</time></trkpt><trkpt lat="46.0522383" lon="13.5882017"><ele>230.00000000000003</ele><time>2026-05-03T10:44:47.216Z</time></trkpt><trkpt lat="46.0523183" lon="13.58811"><ele>230.0</ele><time>2026-05-03T10:44:48.216Z</time></trkpt><trkpt lat="46.0524083" lon="13.5880033"><ele>235.0</ele><time>2026-05-03T10:44:49.216Z</time></trkpt><trkpt lat="46.0525117" lon="13.5878833"><ele>240.0</ele><time>2026-05-03T10:44:50.216Z</time></trkpt><trkpt lat="46.0526033" lon="13.5877717"><ele>245.0</ele><time>2026-05-03T10:44:51.216Z</time></trkpt><trkpt lat="46.05269" lon="13.5876683"><ele>250.0</ele><time>2026-05-03T10:44:52.216Z</time></trkpt><trkpt lat="46.0527733" lon="13.5875667"><ele>250.0</ele><time>2026-05-03T10:44:53.216Z</time></trkpt><trkpt lat="46.0528433" lon="13.5874567"><ele>250.0</ele><time>2026-05-03T10:44:54.216Z</time></trkpt><trkpt lat="46.0529183" lon="13.58734"><ele>250.0</ele><time>2026-05-03T10:44:55.216Z</time></trkpt><trkpt lat="46.0530017" lon="13.5872333"><ele>250.0</ele><time>2026-05-03T10:44:56.216Z</time></trkpt><trkpt lat="46.0530967" lon="13.587115"><ele>247.5</ele><time>2026-05-03T10:44:57.216Z</time></trkpt><trkpt lat="46.05319" lon="13.5870067"><ele>245.0</ele><time>2026-05-03T10:44:58.216Z</time></trkpt><trkpt lat="46.0532967" lon="13.5869017"><ele>242.5</ele><time>2026-05-03T10:44:59.216Z</time></trkpt><trkpt lat="46.0533983" lon="13.586805"><ele>240.0</ele><time>2026-05-03T10:45:00.216Z</time></trkpt><trkpt lat="46.0534967" lon="13.5866983"><ele>247.5</ele><time>2026-05-03T10:45:01.216Z</time></trkpt><trkpt lat="46.053595" lon="13.5865933"><ele>255.0</ele><time>2026-05-03T10:45:02.216Z</time></trkpt><trkpt lat="46.05369" lon="13.5865"><ele>262.5</ele><time>2026-05-03T10:45:03.216Z</time></trkpt><trkpt lat="46.0537717" lon="13.586395"><ele>270.0</ele><time>2026-05-03T10:45:04.216Z</time></trkpt><trkpt lat="46.0538217" lon="13.5862617"><ele>268.8</ele><time>2026-05-03T10:45:05.216Z</time></trkpt><trkpt lat="46.0538533" lon="13.5861183"><ele>267.6</ele><time>2026-05-03T10:45:06.216Z</time></trkpt><trkpt lat="46.0538767" lon="13.58599"><ele>266.4</ele><time>2026-05-03T10:45:07.216Z</time></trkpt><trkpt lat="46.0538933" lon="13.58587"><ele>265.2</ele><time>2026-05-03T10:45:08.216Z</time></trkpt><trkpt lat="46.053905" lon="13.5857467"><ele>264.0</ele><time>2026-05-03T10:45:09.216Z</time></trkpt><trkpt lat="46.0539133" lon="13.5856183"><ele>264.0</ele><time>2026-05-03T10:45:10.216Z</time></trkpt><trkpt lat="46.0539217" lon="13.58548"><ele>264.0</ele><time>2026-05-03T10:45:11.216Z</time></trkpt><trkpt lat="46.0539383" lon="13.5853317"><ele>264.0</ele><time>2026-05-03T10:45:12.216Z</time></trkpt><trkpt lat="46.0539483" lon="13.5851667"><ele>264.0</ele><time>2026-05-03T10:45:13.216Z</time></trkpt><trkpt lat="46.05394" lon="13.585"><ele>264.0</ele><time>2026-05-03T10:45:14.216Z</time></trkpt><trkpt lat="46.0539083" lon="13.58485"><ele>264.0</ele><time>2026-05-03T10:45:15.216Z</time></trkpt><trkpt lat="46.0538783" lon="13.5847117"><ele>264.0</ele><time>2026-05-03T10:45:16.216Z</time></trkpt><trkpt lat="46.0538617" lon="13.5845967"><ele>264.0</ele><time>2026-05-03T10:45:17.216Z</time></trkpt><trkpt lat="46.053865" lon="13.5844933"><ele>264.0</ele><time>2026-05-03T10:45:18.216Z</time></trkpt><trkpt lat="46.0539083" lon="13.584375"><ele>264.0</ele><time>2026-05-03T10:45:20.216Z</time></trkpt><trkpt lat="46.0539517" lon="13.5845033"><ele>264.0</ele><time>2026-05-03T10:45:25.216Z</time></trkpt><trkpt lat="46.053965" lon="13.5846033"><ele>264.0</ele><time>2026-05-03T10:45:26.216Z</time></trkpt><trkpt lat="46.0539983" lon="13.58472"><ele>264.0</ele><time>2026-05-03T10:45:27.216Z</time></trkpt><trkpt lat="46.0540383" lon="13.58485"><ele>264.0</ele><time>2026-05-03T10:45:28.216Z</time></trkpt><trkpt lat="46.0540817" lon="13.5849817"><ele>264.0</ele><time>2026-05-03T10:45:29.216Z</time></trkpt><trkpt lat="46.0541333" lon="13.585115"><ele>264.0</ele><time>2026-05-03T10:45:30.216Z</time></trkpt><trkpt lat="46.0541867" lon="13.5852617"><ele>271.4</ele><time>2026-05-03T10:45:31.216Z</time></trkpt><trkpt lat="46.0542433" lon="13.5854033"><ele>278.79999999999995</ele><time>2026-05-03T10:45:32.216Z</time></trkpt><trkpt lat="46.054295" lon="13.5855383"><ele>286.20000000000005</ele><time>2026-05-03T10:45:33.216Z</time></trkpt><trkpt lat="46.0543367" lon="13.585675"><ele>293.6</ele><time>2026-05-03T10:45:34.216Z</time></trkpt><trkpt lat="46.05437" lon="13.585805"><ele>301.0</ele><time>2026-05-03T10:45:35.216Z</time></trkpt><trkpt lat="46.0543817" lon="13.58594"><ele>301.0</ele><time>2026-05-03T10:45:36.216Z</time></trkpt><trkpt lat="46.0543917" lon="13.5860867"><ele>301.0</ele><time>2026-05-03T10:45:37.216Z</time></trkpt><trkpt lat="46.0543883" lon="13.5862483"><ele>301.0</ele><time>2026-05-03T10:45:38.216Z</time></trkpt><trkpt lat="46.0544" lon="13.5864017"><ele>301.0</ele><time>2026-05-03T10:45:39.216Z</time></trkpt><trkpt lat="46.054395" lon="13.5865483"><ele>301.0</ele><time>2026-05-03T10:45:40.216Z</time></trkpt><trkpt lat="46.0543717" lon="13.5866967"><ele>303.0</ele><time>2026-05-03T10:45:41.216Z</time></trkpt><trkpt lat="46.0543283" lon="13.5868517"><ele>305.0</ele><time>2026-05-03T10:45:42.216Z</time></trkpt><trkpt lat="46.0542767" lon="13.5869983"><ele>307.0</ele><time>2026-05-03T10:45:43.217Z</time></trkpt><trkpt lat="46.0542233" lon="13.5871483"><ele>309.0</ele><time>2026-05-03T10:45:44.216Z</time></trkpt><trkpt lat="46.054165" lon="13.58732"><ele>306.75</ele><time>2026-05-03T10:45:45.216Z</time></trkpt><trkpt lat="46.054105" lon="13.5875017"><ele>304.5</ele><time>2026-05-03T10:45:46.216Z</time></trkpt><trkpt lat="46.0540467" lon="13.5876817"><ele>302.25</ele><time>2026-05-03T10:45:47.216Z</time></trkpt><trkpt lat="46.0539967" lon="13.5878433"><ele>300.0</ele><time>2026-05-03T10:45:48.216Z</time></trkpt><trkpt lat="46.0539633" lon="13.588005"><ele>300.0</ele><time>2026-05-03T10:45:49.216Z</time></trkpt><trkpt lat="46.0539433" lon="13.588165"><ele>300.0</ele><time>2026-05-03T10:45:50.216Z</time></trkpt><trkpt lat="46.0539267" lon="13.5882683"><ele>300.0</ele><time>2026-05-03T10:45:51.216Z</time></trkpt><trkpt lat="46.053945" lon="13.5883783"><ele>300.0</ele><time>2026-05-03T10:45:53.216Z</time></trkpt><trkpt lat="46.0540117" lon="13.588355"><ele>300.0</ele><time>2026-05-03T10:45:55.216Z</time></trkpt><trkpt lat="46.0540633" lon="13.5882117"><ele>300.0</ele><time>2026-05-03T10:45:57.216Z</time></trkpt><trkpt lat="46.054105" lon="13.5881067"><ele>305.0</ele><time>2026-05-03T10:45:58.216Z</time></trkpt><trkpt lat="46.0541533" lon="13.58799"><ele>310.0</ele><time>2026-05-03T10:45:59.216Z</time></trkpt><trkpt lat="46.0542133" lon="13.5878683"><ele>315.0</ele><time>2026-05-03T10:46:00.216Z</time></trkpt><trkpt lat="46.05429" lon="13.58774"><ele>320.0</ele><time>2026-05-03T10:46:01.216Z</time></trkpt><trkpt lat="46.05438" lon="13.5876183"><ele>325.0</ele><time>2026-05-03T10:46:02.216Z</time></trkpt><trkpt lat="46.05446" lon="13.5875083"><ele>325.0</ele><time>2026-05-03T10:46:03.216Z</time></trkpt><trkpt lat="46.0545567" lon="13.5873967"><ele>325.0</ele><time>2026-05-03T10:46:04.216Z</time></trkpt><trkpt lat="46.0546467" lon="13.58727"><ele>325.0</ele><time>2026-05-03T10:46:05.216Z</time></trkpt><trkpt lat="46.0547317" lon="13.5871517"><ele>325.0</ele><time>2026-05-03T10:46:06.216Z</time></trkpt><trkpt lat="46.0548267" lon="13.5870383"><ele>321.8</ele><time>2026-05-03T10:46:07.216Z</time></trkpt><trkpt lat="46.0549133" lon="13.5869517"><ele>318.6</ele><time>2026-05-03T10:46:08.216Z</time></trkpt><trkpt lat="46.0549933" lon="13.5868833"><ele>315.4</ele><time>2026-05-03T10:46:09.216Z</time></trkpt><trkpt lat="46.055065" lon="13.586815"><ele>312.2</ele><time>2026-05-03T10:46:10.216Z</time></trkpt><trkpt lat="46.055125" lon="13.5867283"><ele>309.0</ele><time>2026-05-03T10:46:11.216Z</time></trkpt><trkpt lat="46.0551733" lon="13.5866217"><ele>316.0</ele><time>2026-05-03T10:46:12.216Z</time></trkpt><trkpt lat="46.0551983" lon="13.586485"><ele>323.0</ele><time>2026-05-03T10:46:13.216Z</time></trkpt><trkpt lat="46.05522" lon="13.5863317"><ele>330.0</ele><time>2026-05-03T10:46:14.216Z</time></trkpt><trkpt lat="46.05527" lon="13.5861967"><ele>337.0</ele><time>2026-05-03T10:46:15.216Z</time></trkpt><trkpt lat="46.055305" lon="13.586045"><ele>344.0</ele><time>2026-05-03T10:46:16.216Z</time></trkpt><trkpt lat="46.0553267" lon="13.5858967"><ele>344.0</ele><time>2026-05-03T10:46:17.216Z</time></trkpt><trkpt lat="46.055325" lon="13.5857617"><ele>344.0</ele><time>2026-05-03T10:46:18.216Z</time></trkpt><trkpt lat="46.0553067" lon="13.5856417"><ele>344.0</ele><time>2026-05-03T10:46:19.216Z</time></trkpt><trkpt lat="46.0552817" lon="13.585515"><ele>344.0</ele><time>2026-05-03T10:46:20.216Z</time></trkpt><trkpt lat="46.055225" lon="13.585385"><ele>344.0</ele><time>2026-05-03T10:46:21.216Z</time></trkpt><trkpt lat="46.0551567" lon="13.585255"><ele>345.4</ele><time>2026-05-03T10:46:22.216Z</time></trkpt><trkpt lat="46.0551133" lon="13.585105"><ele>346.79999999999995</ele><time>2026-05-03T10:46:23.216Z</time></trkpt><trkpt lat="46.05509" lon="13.5849483"><ele>348.20000000000005</ele><time>2026-05-03T10:46:24.216Z</time></trkpt><trkpt lat="46.0550983" lon="13.5848017"><ele>349.6</ele><time>2026-05-03T10:46:25.216Z</time></trkpt><trkpt lat="46.0551133" lon="13.5846683"><ele>351.0</ele><time>2026-05-03T10:46:26.216Z</time></trkpt><trkpt lat="46.055135" lon="13.58456"><ele>350.1666666666667</ele><time>2026-05-03T10:46:27.216Z</time></trkpt><trkpt lat="46.055165" lon="13.5844717"><ele>349.3333333333333</ele><time>2026-05-03T10:46:28.216Z</time></trkpt><trkpt lat="46.055235" lon="13.5843983"><ele>348.5</ele><time>2026-05-03T10:46:29.216Z</time></trkpt><trkpt lat="46.055315" lon="13.5843333"><ele>347.66666666666663</ele><time>2026-05-03T10:46:30.217Z</time></trkpt><trkpt lat="46.0553883" lon="13.5842583"><ele>346.8333333333333</ele><time>2026-05-03T10:46:31.216Z</time></trkpt><trkpt lat="46.05545" lon="13.5841767"><ele>346.0</ele><time>2026-05-03T10:46:32.216Z</time></trkpt><trkpt lat="46.05548" lon="13.5840717"><ele>346.0</ele><time>2026-05-03T10:46:33.216Z</time></trkpt><trkpt lat="46.0555067" lon="13.5839683"><ele>346.0</ele><time>2026-05-03T10:46:34.216Z</time></trkpt><trkpt lat="46.055515" lon="13.58387"><ele>346.0</ele><time>2026-05-03T10:46:35.216Z</time></trkpt><trkpt lat="46.0555017" lon="13.58376"><ele>346.0</ele><time>2026-05-03T10:46:36.216Z</time></trkpt><trkpt lat="46.0554817" lon="13.5836383"><ele>346.0</ele><time>2026-05-03T10:46:37.216Z</time></trkpt><trkpt lat="46.0554717" lon="13.58351"><ele>346.0</ele><time>2026-05-03T10:46:38.216Z</time></trkpt><trkpt lat="46.0554817" lon="13.58339"><ele>345.5</ele><time>2026-05-03T10:46:39.216Z</time></trkpt><trkpt lat="46.0555067" lon="13.5833017"><ele>345.0</ele><time>2026-05-03T10:46:40.216Z</time></trkpt><trkpt lat="46.0555567" lon="13.58323"><ele>344.5</ele><time>2026-05-03T10:46:41.216Z</time></trkpt><trkpt lat="46.05563" lon="13.5831767"><ele>344.0</ele><time>2026-05-03T10:46:42.216Z</time></trkpt><trkpt lat="46.0557167" lon="13.5831283"><ele>343.5</ele><time>2026-05-03T10:46:43.216Z</time></trkpt><trkpt lat="46.0558067" lon="13.5830683"><ele>343.0</ele><time>2026-05-03T10:46:44.216Z</time></trkpt><trkpt lat="46.0558967" lon="13.5829833"><ele>349.66666666666663</ele><time>2026-05-03T10:46:45.216Z</time></trkpt><trkpt lat="46.0559683" lon="13.5828917"><ele>356.3333333333333</ele><time>2026-05-03T10:46:46.216Z</time></trkpt><trkpt lat="46.056035" lon="13.5828067"><ele>363.0</ele><time>2026-05-03T10:46:47.216Z</time></trkpt><trkpt lat="46.0561017" lon="13.5827"><ele>369.6666666666667</ele><time>2026-05-03T10:46:49.216Z</time></trkpt><trkpt lat="46.0560817" lon="13.5826017"><ele>376.33333333333337</ele><time>2026-05-03T10:46:51.216Z</time></trkpt><trkpt lat="46.0560117" lon="13.582545"><ele>383.0</ele><time>2026-05-03T10:46:52.216Z</time></trkpt><trkpt lat="46.0559467" lon="13.582455"><ele>383.0</ele><time>2026-05-03T10:46:53.217Z</time></trkpt><trkpt lat="46.055865" lon="13.5823533"><ele>383.0</ele><time>2026-05-03T10:46:54.216Z</time></trkpt><trkpt lat="46.0557917" lon="13.582215"><ele>383.0</ele><time>2026-05-03T10:46:55.216Z</time></trkpt><trkpt lat="46.0557417" lon="13.58208"><ele>383.0</ele><time>2026-05-03T10:46:56.216Z</time></trkpt><trkpt lat="46.0557133" lon="13.58192"><ele>375.79999999999995</ele><time>2026-05-03T10:46:57.216Z</time></trkpt><trkpt lat="46.0556983" lon="13.5817517"><ele>368.6</ele><time>2026-05-03T10:46:58.216Z</time></trkpt><trkpt lat="46.0556967" lon="13.58158"><ele>361.4</ele><time>2026-05-03T10:46:59.216Z</time></trkpt><trkpt lat="46.05569" lon="13.58142"><ele>354.20000000000005</ele><time>2026-05-03T10:47:00.217Z</time></trkpt><trkpt lat="46.05568" lon="13.581275"><ele>347.0</ele><time>2026-05-03T10:47:01.216Z</time></trkpt><trkpt lat="46.0556817" lon="13.581145"><ele>347.0</ele><time>2026-05-03T10:47:02.216Z</time></trkpt><trkpt lat="46.0557133" lon="13.581025"><ele>347.0</ele><time>2026-05-03T10:47:03.216Z</time></trkpt><trkpt lat="46.0557583" lon="13.580925"><ele>347.0</ele><time>2026-05-03T10:47:04.216Z</time></trkpt><trkpt lat="46.0558217" lon="13.5808283"><ele>347.0</ele><time>2026-05-03T10:47:05.216Z</time></trkpt><trkpt lat="46.0558833" lon="13.5807333"><ele>347.0</ele><time>2026-05-03T10:47:06.216Z</time></trkpt><trkpt lat="46.0559217" lon="13.5806283"><ele>347.0</ele><time>2026-05-03T10:47:07.216Z</time></trkpt><trkpt lat="46.0559533" lon="13.5805183"><ele>359.25</ele><time>2026-05-03T10:47:08.216Z</time></trkpt><trkpt lat="46.0559833" lon="13.5803867"><ele>371.5</ele><time>2026-05-03T10:47:09.216Z</time></trkpt><trkpt lat="46.0559933" lon="13.580225"><ele>383.75</ele><time>2026-05-03T10:47:10.216Z</time></trkpt><trkpt lat="46.0560017" lon="13.5800383"><ele>396.0</ele><time>2026-05-03T10:47:11.216Z</time></trkpt><trkpt lat="46.0560117" lon="13.5798467"><ele>396.0</ele><time>2026-05-03T10:47:12.216Z</time></trkpt><trkpt lat="46.0560367" lon="13.5796833"><ele>396.0</ele><time>2026-05-03T10:47:13.216Z</time></trkpt><trkpt lat="46.0560867" lon="13.5795333"><ele>396.0</ele><time>2026-05-03T10:47:14.216Z</time></trkpt><trkpt lat="46.0561483" lon="13.5793883"><ele>396.0</ele><time>2026-05-03T10:47:15.216Z</time></trkpt><trkpt lat="46.0562083" lon="13.5792283"><ele>393.0</ele><time>2026-05-03T10:47:16.216Z</time></trkpt><trkpt lat="46.0562633" lon="13.5790583"><ele>390.0</ele><time>2026-05-03T10:47:17.216Z</time></trkpt><trkpt lat="46.0563133" lon="13.578895"><ele>387.0</ele><time>2026-05-03T10:47:18.216Z</time></trkpt><trkpt lat="46.0563417" lon="13.5787217"><ele>384.0</ele><time>2026-05-03T10:47:19.216Z</time></trkpt><trkpt lat="46.05637" lon="13.5785767"><ele>381.6</ele><time>2026-05-03T10:47:20.216Z</time></trkpt><trkpt lat="46.0563983" lon="13.5784367"><ele>379.2</ele><time>2026-05-03T10:47:21.216Z</time></trkpt><trkpt lat="46.056435" lon="13.578305"><ele>376.8</ele><time>2026-05-03T10:47:22.216Z</time></trkpt><trkpt lat="46.0564617" lon="13.5781733"><ele>374.40000000000003</ele><time>2026-05-03T10:47:23.216Z</time></trkpt><trkpt lat="46.0564833" lon="13.5780383"><ele>372.0</ele><time>2026-05-03T10:47:24.216Z</time></trkpt><trkpt lat="46.0564867" lon="13.5778967"><ele>370.1666666666667</ele><time>2026-05-03T10:47:25.216Z</time></trkpt><trkpt lat="46.0564967" lon="13.577755"><ele>368.3333333333333</ele><time>2026-05-03T10:47:26.216Z</time></trkpt><trkpt lat="46.056515" lon="13.577625"><ele>366.5</ele><time>2026-05-03T10:47:27.216Z</time></trkpt><trkpt lat="46.05654" lon="13.5775"><ele>364.66666666666663</ele><time>2026-05-03T10:47:28.216Z</time></trkpt><trkpt lat="46.0565867" lon="13.5774"><ele>362.8333333333333</ele><time>2026-05-03T10:47:29.216Z</time></trkpt><trkpt lat="46.0566533" lon="13.5773267"><ele>361.0</ele><time>2026-05-03T10:47:30.216Z</time></trkpt><trkpt lat="46.0567417" lon="13.5772883"><ele>373.0</ele><time>2026-05-03T10:47:31.216Z</time></trkpt><trkpt lat="46.05686" lon="13.5773"><ele>385.0</ele><time>2026-05-03T10:47:32.216Z</time></trkpt><trkpt lat="46.05696" lon="13.5773133"><ele>397.0</ele><time>2026-05-03T10:47:33.216Z</time></trkpt><trkpt lat="46.057045" lon="13.57731"><ele>409.0</ele><time>2026-05-03T10:47:34.216Z</time></trkpt><trkpt lat="46.0571117" lon="13.5773"><ele>421.0</ele><time>2026-05-03T10:47:35.216Z</time></trkpt><trkpt lat="46.0571767" lon="13.5771733"><ele>417.6666666666667</ele><time>2026-05-03T10:47:37.216Z</time></trkpt><trkpt lat="46.0571467" lon="13.5770167"><ele>414.33333333333337</ele><time>2026-05-03T10:47:39.216Z</time></trkpt><trkpt lat="46.057135" lon="13.5769267"><ele>411.0</ele><time>2026-05-03T10:47:40.216Z</time></trkpt><trkpt lat="46.057125" lon="13.5768283"><ele>407.66666666666663</ele><time>2026-05-03T10:47:41.216Z</time></trkpt><trkpt lat="46.0571267" lon="13.57672"><ele>404.3333333333333</ele><time>2026-05-03T10:47:42.216Z</time></trkpt><trkpt lat="46.057155" lon="13.5765933"><ele>401.0</ele><time>2026-05-03T10:47:43.216Z</time></trkpt><trkpt lat="46.0572017" lon="13.5764767"><ele>401.0</ele><time>2026-05-03T10:47:44.216Z</time></trkpt><trkpt lat="46.05727" lon="13.5763583"><ele>401.0</ele><time>2026-05-03T10:47:45.216Z</time></trkpt><trkpt lat="46.0573567" lon="13.57624"><ele>401.0</ele><time>2026-05-03T10:47:46.216Z</time></trkpt><trkpt lat="46.0574633" lon="13.57613"><ele>401.0</ele><time>2026-05-03T10:47:47.217Z</time></trkpt><trkpt lat="46.057575" lon="13.576055"><ele>408.4</ele><time>2026-05-03T10:47:48.216Z</time></trkpt><trkpt lat="46.057695" lon="13.576015"><ele>415.8</ele><time>2026-05-03T10:47:49.216Z</time></trkpt><trkpt lat="46.0578" lon="13.5759933"><ele>423.19999999999993</ele><time>2026-05-03T10:47:50.216Z</time></trkpt><trkpt lat="46.057895" lon="13.5759783"><ele>430.59999999999997</ele><time>2026-05-03T10:47:51.216Z</time></trkpt><trkpt lat="46.05797" lon="13.5759567"><ele>438.0</ele><time>2026-05-03T10:47:52.216Z</time></trkpt><trkpt lat="46.0580617" lon="13.5759133"><ele>438.0</ele><time>2026-05-03T10:47:54.216Z</time></trkpt><trkpt lat="46.0581033" lon="13.5758083"><ele>437.99999999999994</ele><time>2026-05-03T10:47:56.216Z</time></trkpt><trkpt lat="46.058075" lon="13.5756583"><ele>437.99999999999994</ele><time>2026-05-03T10:47:58.216Z</time></trkpt><trkpt lat="46.0580267" lon="13.5755167"><ele>438.0</ele><time>2026-05-03T10:47:59.216Z</time></trkpt><trkpt lat="46.0580033" lon="13.575375"><ele>438.0</ele><time>2026-05-03T10:48:00.216Z</time></trkpt><trkpt lat="46.0579867" lon="13.575215"><ele>435.5</ele><time>2026-05-03T10:48:01.217Z</time></trkpt><trkpt lat="46.0579517" lon="13.5750533"><ele>433.0</ele><time>2026-05-03T10:48:02.216Z</time></trkpt><trkpt lat="46.057915" lon="13.5748767"><ele>430.5</ele><time>2026-05-03T10:48:03.216Z</time></trkpt><trkpt lat="46.057895" lon="13.5747"><ele>428.0</ele><time>2026-05-03T10:48:04.216Z</time></trkpt><trkpt lat="46.0579017" lon="13.5745467"><ele>427.75</ele><time>2026-05-03T10:48:05.216Z</time></trkpt><trkpt lat="46.0579217" lon="13.574385"><ele>427.5</ele><time>2026-05-03T10:48:06.216Z</time></trkpt><trkpt lat="46.0579533" lon="13.574235"><ele>427.25</ele><time>2026-05-03T10:48:07.216Z</time></trkpt><trkpt lat="46.0579883" lon="13.5740733"><ele>427.0</ele><time>2026-05-03T10:48:08.216Z</time></trkpt><trkpt lat="46.0580333" lon="13.5739267"><ele>427.0</ele><time>2026-05-03T10:48:09.216Z</time></trkpt><trkpt lat="46.058095" lon="13.5738017"><ele>427.0</ele><time>2026-05-03T10:48:10.216Z</time></trkpt><trkpt lat="46.058155" lon="13.5736717"><ele>427.0</ele><time>2026-05-03T10:48:11.216Z</time></trkpt><trkpt lat="46.0582217" lon="13.5735233"><ele>427.0</ele><time>2026-05-03T10:48:12.216Z</time></trkpt><trkpt lat="46.058295" lon="13.5733517"><ele>435.75</ele><time>2026-05-03T10:48:13.216Z</time></trkpt><trkpt lat="46.05836" lon="13.5731817"><ele>444.5</ele><time>2026-05-03T10:48:14.216Z</time></trkpt><trkpt lat="46.0584217" lon="13.5730133"><ele>453.25</ele><time>2026-05-03T10:48:15.216Z</time></trkpt><trkpt lat="46.0584683" lon="13.57284"><ele>462.0</ele><time>2026-05-03T10:48:16.216Z</time></trkpt><trkpt lat="46.0585" lon="13.57267"><ele>462.0</ele><time>2026-05-03T10:48:17.216Z</time></trkpt><trkpt lat="46.0585333" lon="13.572505"><ele>462.00000000000006</ele><time>2026-05-03T10:48:18.216Z</time></trkpt><trkpt lat="46.05856" lon="13.5723567"><ele>462.00000000000006</ele><time>2026-05-03T10:48:19.216Z</time></trkpt><trkpt lat="46.0585967" lon="13.5722433"><ele>462.0</ele><time>2026-05-03T10:48:20.216Z</time></trkpt><trkpt lat="46.058615" lon="13.5721533"><ele>462.0</ele><time>2026-05-03T10:48:21.216Z</time></trkpt><trkpt lat="46.05865" lon="13.5722467"><ele>462.0</ele><time>2026-05-03T10:48:26.216Z</time></trkpt><trkpt lat="46.0586133" lon="13.5723733"><ele>462.0</ele><time>2026-05-03T10:48:28.216Z</time></trkpt><trkpt lat="46.058595" lon="13.572465"><ele>462.0</ele><time>2026-05-03T10:48:29.216Z</time></trkpt><trkpt lat="46.0585917" lon="13.5725733"><ele>462.0</ele><time>2026-05-03T10:48:30.216Z</time></trkpt><trkpt lat="46.058585" lon="13.5727"><ele>462.0</ele><time>2026-05-03T10:48:31.216Z</time></trkpt><trkpt lat="46.0585733" lon="13.5728483"><ele>462.0</ele><time>2026-05-03T10:48:32.216Z</time></trkpt><trkpt lat="46.058555" lon="13.5730017"><ele>463.8</ele><time>2026-05-03T10:48:33.216Z</time></trkpt><trkpt lat="46.058525" lon="13.5731383"><ele>465.6</ele><time>2026-05-03T10:48:34.216Z</time></trkpt><trkpt lat="46.0584967" lon="13.57326"><ele>467.40000000000003</ele><time>2026-05-03T10:48:35.216Z</time></trkpt><trkpt lat="46.0585" lon="13.5733767"><ele>469.20000000000005</ele><time>2026-05-03T10:48:36.216Z</time></trkpt><trkpt lat="46.0585167" lon="13.5735033"><ele>471.0</ele><time>2026-05-03T10:48:37.216Z</time></trkpt><trkpt lat="46.0585417" lon="13.573645"><ele>471.0</ele><time>2026-05-03T10:48:38.216Z</time></trkpt><trkpt lat="46.058555" lon="13.5737933"><ele>471.0</ele><time>2026-05-03T10:48:39.216Z</time></trkpt><trkpt lat="46.0585633" lon="13.5739333"><ele>471.0</ele><time>2026-05-03T10:48:40.216Z</time></trkpt><trkpt lat="46.0585717" lon="13.5740633"><ele>471.0</ele><time>2026-05-03T10:48:41.216Z</time></trkpt><trkpt lat="46.0585867" lon="13.5741717"><ele>471.0</ele><time>2026-05-03T10:48:42.216Z</time></trkpt><trkpt lat="46.058645" lon="13.5743033"><ele>471.0</ele><time>2026-05-03T10:48:44.216Z</time></trkpt><trkpt lat="46.0587517" lon="13.5743183"><ele>471.0</ele><time>2026-05-03T10:48:46.216Z</time></trkpt><trkpt lat="46.0588376" lon="13.5742634"><ele>471.0</ele><time>2026-05-03T10:48:48.216Z</time></trkpt><trkpt lat="46.0588636" lon="13.5740849"><ele>471.0</ele><time>2026-05-03T10:48:50.216Z</time></trkpt><trkpt lat="46.0588547" lon="13.5739828"><ele>471.0</ele><time>2026-05-03T10:48:51.216Z</time></trkpt><trkpt lat="46.0588405" lon="13.5738849"><ele>471.0</ele><time>2026-05-03T10:48:52.216Z</time></trkpt><trkpt lat="46.058835" lon="13.5737886"><ele>471.0</ele><time>2026-05-03T10:48:53.216Z</time></trkpt><trkpt lat="46.0588462" lon="13.5736735"><ele>471.0</ele><time>2026-05-03T10:48:54.216Z</time></trkpt><trkpt lat="46.0588688" lon="13.573548"><ele>471.0</ele><time>2026-05-03T10:48:55.216Z</time></trkpt><trkpt lat="46.0588867" lon="13.5734147"><ele>471.0</ele><time>2026-05-03T10:48:56.217Z</time></trkpt><trkpt lat="46.0589098" lon="13.5732751"><ele>471.0</ele><time>2026-05-03T10:48:57.216Z</time></trkpt><trkpt lat="46.0589301" lon="13.5731398"><ele>471.0</ele><time>2026-05-03T10:48:58.216Z</time></trkpt><trkpt lat="46.0589547" lon="13.5730159"><ele>471.0</ele><time>2026-05-03T10:48:59.216Z</time></trkpt><trkpt lat="46.0589785" lon="13.5728985"><ele>471.0</ele><time>2026-05-03T10:49:00.216Z</time></trkpt><trkpt lat="46.0590197" lon="13.5727795"><ele>471.0</ele><time>2026-05-03T10:49:01.216Z</time></trkpt><trkpt lat="46.0590742" lon="13.5726594"><ele>471.0</ele><time>2026-05-03T10:49:02.216Z</time></trkpt><trkpt lat="46.059143" lon="13.5725476"><ele>475.5</ele><time>2026-05-03T10:49:03.216Z</time></trkpt><trkpt lat="46.0592027" lon="13.5724484"><ele>480.0</ele><time>2026-05-03T10:49:04.216Z</time></trkpt><trkpt lat="46.0592511" lon="13.5723737"><ele>484.5</ele><time>2026-05-03T10:49:05.216Z</time></trkpt><trkpt lat="46.0593172" lon="13.5723337"><ele>489.0</ele><time>2026-05-03T10:49:07.215Z</time></trkpt><trkpt lat="46.0593554" lon="13.5724095"><ele>493.5</ele><time>2026-05-03T10:49:10.215Z</time></trkpt><trkpt lat="46.0593193" lon="13.572501"><ele>498.0</ele><time>2026-05-03T10:49:12.215Z</time></trkpt><trkpt lat="46.0592712" lon="13.5726554"><ele>498.0</ele><time>2026-05-03T10:49:14.215Z</time></trkpt><trkpt lat="46.0592538" lon="13.5727552"><ele>498.0</ele><time>2026-05-03T10:49:15.216Z</time></trkpt><trkpt lat="46.0592575" lon="13.5728575"><ele>498.0</ele><time>2026-05-03T10:49:16.215Z</time></trkpt><trkpt lat="46.0592812" lon="13.5729673"><ele>498.0</ele><time>2026-05-03T10:49:17.215Z</time></trkpt><trkpt lat="46.0593292" lon="13.5730686"><ele>498.0</ele><time>2026-05-03T10:49:18.215Z</time></trkpt><trkpt lat="46.0593965" lon="13.5731706"><ele>498.0</ele><time>2026-05-03T10:49:19.215Z</time></trkpt><trkpt lat="46.0594654" lon="13.5732705"><ele>498.2</ele><time>2026-05-03T10:49:20.215Z</time></trkpt><trkpt lat="46.0595296" lon="13.5733768"><ele>498.4</ele><time>2026-05-03T10:49:21.215Z</time></trkpt><trkpt lat="46.0595787" lon="13.5734864"><ele>498.59999999999997</ele><time>2026-05-03T10:49:22.215Z</time></trkpt><trkpt lat="46.059611" lon="13.5736052"><ele>498.79999999999995</ele><time>2026-05-03T10:49:23.215Z</time></trkpt><trkpt lat="46.0596224" lon="13.5737414"><ele>499.0</ele><time>2026-05-03T10:49:24.215Z</time></trkpt><trkpt lat="46.0596162" lon="13.5738856"><ele>499.00000000000006</ele><time>2026-05-03T10:49:25.215Z</time></trkpt><trkpt lat="46.0596046" lon="13.5740267"><ele>499.0</ele><time>2026-05-03T10:49:26.215Z</time></trkpt><trkpt lat="46.0595836" lon="13.5741576"><ele>499.0</ele><time>2026-05-03T10:49:27.215Z</time></trkpt><trkpt lat="46.0595532" lon="13.5742793"><ele>499.0</ele><time>2026-05-03T10:49:28.215Z</time></trkpt><trkpt lat="46.0595229" lon="13.5743953"><ele>499.00000000000006</ele><time>2026-05-03T10:49:29.215Z</time></trkpt><trkpt lat="46.0595048" lon="13.5745048"><ele>499.0</ele><time>2026-05-03T10:49:30.215Z</time></trkpt><trkpt lat="46.059503" lon="13.5746043"><ele>499.00000000000006</ele><time>2026-05-03T10:49:31.215Z</time></trkpt><trkpt lat="46.0595691" lon="13.5746958"><ele>499.0</ele><time>2026-05-03T10:49:33.215Z</time></trkpt><trkpt lat="46.0596379" lon="13.5746711"><ele>499.0</ele><time>2026-05-03T10:49:35.215Z</time></trkpt><trkpt lat="46.0596819" lon="13.5745689"><ele>499.0</ele><time>2026-05-03T10:49:37.215Z</time></trkpt><trkpt lat="46.0597087" lon="13.5744866"><ele>499.00000000000006</ele><time>2026-05-03T10:49:38.215Z</time></trkpt><trkpt lat="46.0597334" lon="13.5743857"><ele>499.0</ele><time>2026-05-03T10:49:39.215Z</time></trkpt><trkpt lat="46.0597677" lon="13.5742702"><ele>499.0</ele><time>2026-05-03T10:49:40.215Z</time></trkpt><trkpt lat="46.0598133" lon="13.5741439"><ele>499.0</ele><time>2026-05-03T10:49:41.215Z</time></trkpt><trkpt lat="46.0598619" lon="13.5740042"><ele>499.0</ele><time>2026-05-03T10:49:42.215Z</time></trkpt><trkpt lat="46.0599207" lon="13.5738542"><ele>499.0</ele><time>2026-05-03T10:49:43.215Z</time></trkpt><trkpt lat="46.0599799" lon="13.5737163"><ele>499.0</ele><time>2026-05-03T10:49:44.215Z</time></trkpt><trkpt lat="46.0600379" lon="13.5736027"><ele>504.4</ele><time>2026-05-03T10:49:45.215Z</time></trkpt><trkpt lat="46.0601119" lon="13.5735061"><ele>509.79999999999995</ele><time>2026-05-03T10:49:46.215Z</time></trkpt><trkpt lat="46.0601953" lon="13.5734433"><ele>515.2</ele><time>2026-05-03T10:49:47.215Z</time></trkpt><trkpt lat="46.060293" lon="13.5733902"><ele>520.6</ele><time>2026-05-03T10:49:48.215Z</time></trkpt><trkpt lat="46.0604026" lon="13.5733338"><ele>526.0</ele><time>2026-05-03T10:49:49.215Z</time></trkpt><trkpt lat="46.0605115" lon="13.5732537"><ele>526.0</ele><time>2026-05-03T10:49:50.215Z</time></trkpt><trkpt lat="46.0606015" lon="13.5731342"><ele>526.0</ele><time>2026-05-03T10:49:51.215Z</time></trkpt><trkpt lat="46.0606732" lon="13.573009"><ele>526.0</ele><time>2026-05-03T10:49:52.215Z</time></trkpt><trkpt lat="46.0607449" lon="13.572899"><ele>526.0</ele><time>2026-05-03T10:49:53.215Z</time></trkpt><trkpt lat="46.060811" lon="13.5728195"><ele>526.0</ele><time>2026-05-03T10:49:54.215Z</time></trkpt><trkpt lat="46.0608849" lon="13.5727581"><ele>528.6</ele><time>2026-05-03T10:49:55.215Z</time></trkpt><trkpt lat="46.0609812" lon="13.5727174"><ele>531.2</ele><time>2026-05-03T10:49:56.215Z</time></trkpt><trkpt lat="46.0610729" lon="13.5726779"><ele>533.8</ele><time>2026-05-03T10:49:57.215Z</time></trkpt><trkpt lat="46.0611718" lon="13.5726127"><ele>536.4</ele><time>2026-05-03T10:49:58.215Z</time></trkpt><trkpt lat="46.0612687" lon="13.572524"><ele>539.0</ele><time>2026-05-03T10:49:59.215Z</time></trkpt><trkpt lat="46.0613706" lon="13.5724216"><ele>539.0</ele><time>2026-05-03T10:50:00.215Z</time></trkpt><trkpt lat="46.0614513" lon="13.5723172"><ele>539.0</ele><time>2026-05-03T10:50:01.215Z</time></trkpt><trkpt lat="46.0615018" lon="13.5722108"><ele>539.0</ele><time>2026-05-03T10:50:02.215Z</time></trkpt><trkpt lat="46.0615364" lon="13.5720893"><ele>539.0</ele><time>2026-05-03T10:50:03.215Z</time></trkpt><trkpt lat="46.06156" lon="13.5719629"><ele>539.0</ele><time>2026-05-03T10:50:04.215Z</time></trkpt><trkpt lat="46.0615704" lon="13.5718194"><ele>538.8</ele><time>2026-05-03T10:50:05.215Z</time></trkpt><trkpt lat="46.0615743" lon="13.5716686"><ele>538.5999999999999</ele><time>2026-05-03T10:50:06.215Z</time></trkpt><trkpt lat="46.0615808" lon="13.5715308"><ele>538.4</ele><time>2026-05-03T10:50:07.215Z</time></trkpt><trkpt lat="46.0616128" lon="13.5714057"><ele>538.1999999999999</ele><time>2026-05-03T10:50:08.215Z</time></trkpt><trkpt lat="46.0616587" lon="13.5712934"><ele>538.0</ele><time>2026-05-03T10:50:09.215Z</time></trkpt><trkpt lat="46.0617118" lon="13.5712043"><ele>540.8333333333334</ele><time>2026-05-03T10:50:10.215Z</time></trkpt><trkpt lat="46.0617623" lon="13.5711449"><ele>543.6666666666667</ele><time>2026-05-03T10:50:11.215Z</time></trkpt><trkpt lat="46.0618201" lon="13.5712074"><ele>546.5</ele><time>2026-05-03T10:50:14.215Z</time></trkpt><trkpt lat="46.0617844" lon="13.5712928"><ele>549.3333333333334</ele><time>2026-05-03T10:50:16.215Z</time></trkpt><trkpt lat="46.0617118" lon="13.5714"><ele>552.1666666666666</ele><time>2026-05-03T10:50:18.215Z</time></trkpt><trkpt lat="46.0616952" lon="13.5715506"><ele>555.0</ele><time>2026-05-03T10:50:20.215Z</time></trkpt><trkpt lat="46.0617226" lon="13.5716504"><ele>555.0</ele><time>2026-05-03T10:50:21.215Z</time></trkpt><trkpt lat="46.0617449" lon="13.5717549"><ele>555.0</ele><time>2026-05-03T10:50:22.215Z</time></trkpt><trkpt lat="46.0617617" lon="13.5718538"><ele>555.0</ele><time>2026-05-03T10:50:23.215Z</time></trkpt><trkpt lat="46.0618125" lon="13.5719859"><ele>555.0</ele><time>2026-05-03T10:50:25.215Z</time></trkpt><trkpt lat="46.0618807" lon="13.5719984"><ele>555.0</ele><time>2026-05-03T10:50:27.215Z</time></trkpt><trkpt lat="46.0619243" lon="13.5718952"><ele>555.0</ele><time>2026-05-03T10:50:29.215Z</time></trkpt><trkpt lat="46.0619664" lon="13.5717112"><ele>555.0</ele><time>2026-05-03T10:50:31.215Z</time></trkpt><trkpt lat="46.0619776" lon="13.571578"><ele>555.0</ele><time>2026-05-03T10:50:32.215Z</time></trkpt><trkpt lat="46.0620048" lon="13.5714632"><ele>555.0</ele><time>2026-05-03T10:50:33.215Z</time></trkpt><trkpt lat="46.062045" lon="13.5713663"><ele>555.0</ele><time>2026-05-03T10:50:34.215Z</time></trkpt><trkpt lat="46.0621072" lon="13.5712903"><ele>555.0</ele><time>2026-05-03T10:50:35.215Z</time></trkpt><trkpt lat="46.0621908" lon="13.571237"><ele>555.0</ele><time>2026-05-03T10:50:36.215Z</time></trkpt><trkpt lat="46.0622981" lon="13.5712062"><ele>555.0</ele><time>2026-05-03T10:50:37.215Z</time></trkpt><trkpt lat="46.0624094" lon="13.5712003"><ele>555.0</ele><time>2026-05-03T10:50:38.215Z</time></trkpt><trkpt lat="46.0625005" lon="13.5711846"><ele>555.0</ele><time>2026-05-03T10:50:39.215Z</time></trkpt><trkpt lat="46.0625646" lon="13.5711686"><ele>555.0</ele><time>2026-05-03T10:50:40.215Z</time></trkpt><trkpt lat="46.0625969" lon="13.5710806"><ele>555.0</ele><time>2026-05-03T10:50:43.215Z</time></trkpt><trkpt lat="46.0625251" lon="13.5710093"><ele>555.0</ele><time>2026-05-03T10:50:45.215Z</time></trkpt><trkpt lat="46.0624482" lon="13.570937"><ele>556.25</ele><time>2026-05-03T10:50:46.215Z</time></trkpt><trkpt lat="46.0623405" lon="13.5708198"><ele>557.5</ele><time>2026-05-03T10:50:47.215Z</time></trkpt><trkpt lat="46.0622131" lon="13.5706687"><ele>558.75</ele><time>2026-05-03T10:50:48.215Z</time></trkpt><trkpt lat="46.0621164" lon="13.570508"><ele>560.0</ele><time>2026-05-03T10:50:49.215Z</time></trkpt><trkpt lat="46.0620599" lon="13.570344"><ele>561.2</ele><time>2026-05-03T10:50:50.215Z</time></trkpt><trkpt lat="46.0620313" lon="13.5702013"><ele>562.4</ele><time>2026-05-03T10:50:51.215Z</time></trkpt><trkpt lat="46.0620305" lon="13.5700761"><ele>563.6</ele><time>2026-05-03T10:50:52.215Z</time></trkpt><trkpt lat="46.0620559" lon="13.5699609"><ele>564.8</ele><time>2026-05-03T10:50:53.215Z</time></trkpt><trkpt lat="46.0621073" lon="13.5698555"><ele>566.0</ele><time>2026-05-03T10:50:54.215Z</time></trkpt><trkpt lat="46.0621739" lon="13.569746"><ele>566.0</ele><time>2026-05-03T10:50:55.216Z</time></trkpt><trkpt lat="46.0622403" lon="13.569627"><ele>566.0</ele><time>2026-05-03T10:50:56.215Z</time></trkpt><trkpt lat="46.0623038" lon="13.5694906"><ele>566.0</ele><time>2026-05-03T10:50:57.215Z</time></trkpt><trkpt lat="46.0623639" lon="13.569348"><ele>566.0</ele><time>2026-05-03T10:50:58.215Z</time></trkpt><trkpt lat="46.0624096" lon="13.569194"><ele>564.2</ele><time>2026-05-03T10:50:59.215Z</time></trkpt><trkpt lat="46.0624393" lon="13.5690326"><ele>562.4000000000001</ele><time>2026-05-03T10:51:00.215Z</time></trkpt><trkpt lat="46.0624743" lon="13.5688946"><ele>560.6</ele><time>2026-05-03T10:51:01.215Z</time></trkpt><trkpt lat="46.0625136" lon="13.5687655"><ele>558.8000000000001</ele><time>2026-05-03T10:51:02.215Z</time></trkpt><trkpt lat="46.062575" lon="13.5686442"><ele>557.0</ele><time>2026-05-03T10:51:03.215Z</time></trkpt><trkpt lat="46.0626569" lon="13.5685198"><ele>564.6</ele><time>2026-05-03T10:51:04.215Z</time></trkpt><trkpt lat="46.062734" lon="13.5683956"><ele>572.2</ele><time>2026-05-03T10:51:05.215Z</time></trkpt><trkpt lat="46.0627969" lon="13.5682769"><ele>579.8</ele><time>2026-05-03T10:51:06.215Z</time></trkpt><trkpt lat="46.0628396" lon="13.5681789"><ele>587.4</ele><time>2026-05-03T10:51:07.215Z</time></trkpt><trkpt lat="46.0628655" lon="13.5680923"><ele>595.0</ele><time>2026-05-03T10:51:08.215Z</time></trkpt><trkpt lat="46.0629054" lon="13.5679714"><ele>595.0</ele><time>2026-05-03T10:51:10.215Z</time></trkpt><trkpt lat="46.0628983" lon="13.5681317"><ele>595.0</ele><time>2026-05-03T10:51:15.215Z</time></trkpt><trkpt lat="46.0628683" lon="13.5682183"><ele>595.0</ele><time>2026-05-03T10:51:16.215Z</time></trkpt><trkpt lat="46.0628367" lon="13.568345"><ele>595.0</ele><time>2026-05-03T10:51:17.215Z</time></trkpt><trkpt lat="46.0627867" lon="13.5684617"><ele>595.0</ele><time>2026-05-03T10:51:18.215Z</time></trkpt><trkpt lat="46.06272" lon="13.5685833"><ele>595.4</ele><time>2026-05-03T10:51:19.215Z</time></trkpt><trkpt lat="46.0626667" lon="13.5687017"><ele>595.8</ele><time>2026-05-03T10:51:20.215Z</time></trkpt><trkpt lat="46.0626333" lon="13.5688383"><ele>596.2</ele><time>2026-05-03T10:51:21.215Z</time></trkpt><trkpt lat="46.0626133" lon="13.5689833"><ele>596.6</ele><time>2026-05-03T10:51:22.215Z</time></trkpt><trkpt lat="46.0626033" lon="13.5691317"><ele>597.0</ele><time>2026-05-03T10:51:23.215Z</time></trkpt><trkpt lat="46.062585" lon="13.5692883"><ele>597.0</ele><time>2026-05-03T10:51:24.215Z</time></trkpt><trkpt lat="46.0625583" lon="13.5694333"><ele>597.0</ele><time>2026-05-03T10:51:25.215Z</time></trkpt><trkpt lat="46.06255" lon="13.5695633"><ele>597.0</ele><time>2026-05-03T10:51:26.215Z</time></trkpt><trkpt lat="46.0625467" lon="13.5696817"><ele>597.0</ele><time>2026-05-03T10:51:27.215Z</time></trkpt><trkpt lat="46.0625683" lon="13.5697817"><ele>597.0</ele><time>2026-05-03T10:51:28.215Z</time></trkpt><trkpt lat="46.0626" lon="13.5698733"><ele>597.0</ele><time>2026-05-03T10:51:29.216Z</time></trkpt><trkpt lat="46.0626533" lon="13.569945"><ele>596.6</ele><time>2026-05-03T10:51:30.215Z</time></trkpt><trkpt lat="46.0627133" lon="13.5700133"><ele>596.2</ele><time>2026-05-03T10:51:31.215Z</time></trkpt><trkpt lat="46.0628" lon="13.5700717"><ele>595.8</ele><time>2026-05-03T10:51:32.215Z</time></trkpt><trkpt lat="46.062915" lon="13.57014"><ele>595.4</ele><time>2026-05-03T10:51:33.215Z</time></trkpt><trkpt lat="46.063045" lon="13.5702083"><ele>595.0</ele><time>2026-05-03T10:51:34.215Z</time></trkpt><trkpt lat="46.0631667" lon="13.5702767"><ele>596.75</ele><time>2026-05-03T10:51:35.215Z</time></trkpt><trkpt lat="46.0633067" lon="13.5703317"><ele>598.5</ele><time>2026-05-03T10:51:36.215Z</time></trkpt><trkpt lat="46.0634533" lon="13.5703883"><ele>600.25</ele><time>2026-05-03T10:51:37.215Z</time></trkpt><trkpt lat="46.063585" lon="13.5704433"><ele>602.0</ele><time>2026-05-03T10:51:38.215Z</time></trkpt><trkpt lat="46.0637067" lon="13.5704883"><ele>602.0</ele><time>2026-05-03T10:51:39.215Z</time></trkpt><trkpt lat="46.0638067" lon="13.5705233"><ele>602.0</ele><time>2026-05-03T10:51:40.215Z</time></trkpt><trkpt lat="46.063885" lon="13.5705467"><ele>602.0</ele><time>2026-05-03T10:51:41.215Z</time></trkpt><trkpt lat="46.06396" lon="13.5705717"><ele>602.0</ele><time>2026-05-03T10:51:42.215Z</time></trkpt><trkpt lat="46.0640517" lon="13.570635"><ele>602.0</ele><time>2026-05-03T10:51:44.215Z</time></trkpt><trkpt lat="46.0640283" lon="13.570785"><ele>602.0</ele><time>2026-05-03T10:51:46.215Z</time></trkpt><trkpt lat="46.0639883" lon="13.570875"><ele>602.0</ele><time>2026-05-03T10:51:47.215Z</time></trkpt><trkpt lat="46.0639383" lon="13.5709667"><ele>602.0</ele><time>2026-05-03T10:51:48.215Z</time></trkpt><trkpt lat="46.063875" lon="13.5710867"><ele>602.0</ele><time>2026-05-03T10:51:49.215Z</time></trkpt><trkpt lat="46.06382" lon="13.5712133"><ele>602.0</ele><time>2026-05-03T10:51:50.215Z</time></trkpt><trkpt lat="46.0637567" lon="13.57135"><ele>604.25</ele><time>2026-05-03T10:51:51.215Z</time></trkpt><trkpt lat="46.0636933" lon="13.57149"><ele>606.5</ele><time>2026-05-03T10:51:52.215Z</time></trkpt><trkpt lat="46.0636267" lon="13.5716417"><ele>608.75</ele><time>2026-05-03T10:51:53.215Z</time></trkpt><trkpt lat="46.0635583" lon="13.571795"><ele>611.0</ele><time>2026-05-03T10:51:54.215Z</time></trkpt><trkpt lat="46.0634917" lon="13.5719267"><ele>612.3333333333333</ele><time>2026-05-03T10:51:55.215Z</time></trkpt><trkpt lat="46.0634467" lon="13.5720467"><ele>613.6666666666666</ele><time>2026-05-03T10:51:56.215Z</time></trkpt><trkpt lat="46.0634217" lon="13.5721517"><ele>615.0</ele><time>2026-05-03T10:51:57.216Z</time></trkpt><trkpt lat="46.0634267" lon="13.5723333"><ele>616.3333333333334</ele><time>2026-05-03T10:51:59.215Z</time></trkpt><trkpt lat="46.0634683" lon="13.5724317"><ele>617.6666666666667</ele><time>2026-05-03T10:52:00.215Z</time></trkpt><trkpt lat="46.0635083" lon="13.5725117"><ele>619.0</ele><time>2026-05-03T10:52:01.215Z</time></trkpt><trkpt lat="46.0635767" lon="13.5725933"><ele>619.0</ele><time>2026-05-03T10:52:03.215Z</time></trkpt><trkpt lat="46.0636083" lon="13.5724533"><ele>619.0</ele><time>2026-05-03T10:52:06.215Z</time></trkpt><trkpt lat="46.0635933" lon="13.5723533"><ele>619.0</ele><time>2026-05-03T10:52:07.215Z</time></trkpt><trkpt lat="46.0636017" lon="13.572205"><ele>619.0</ele><time>2026-05-03T10:52:09.216Z</time></trkpt><trkpt lat="46.0636683" lon="13.5722133"><ele>619.0</ele><time>2026-05-03T10:52:12.216Z</time></trkpt><trkpt lat="46.0636817" lon="13.57233"><ele>619.0</ele><time>2026-05-03T10:52:14.215Z</time></trkpt><trkpt lat="46.0636983" lon="13.5724717"><ele>619.0</ele><time>2026-05-03T10:52:16.215Z</time></trkpt><trkpt lat="46.0637817" lon="13.5724333"><ele>619.0</ele><time>2026-05-03T10:52:19.215Z</time></trkpt><trkpt lat="46.0638" lon="13.5722567"><ele>619.0</ele><time>2026-05-03T10:52:21.215Z</time></trkpt><trkpt lat="46.0638067" lon="13.5721567"><ele>619.0</ele><time>2026-05-03T10:52:22.215Z</time></trkpt><trkpt lat="46.0638783" lon="13.5720133"><ele>619.0</ele><time>2026-05-03T10:52:24.215Z</time></trkpt><trkpt lat="46.0639433" lon="13.571935"><ele>617.4</ele><time>2026-05-03T10:52:25.215Z</time></trkpt><trkpt lat="46.0640083" lon="13.571855"><ele>615.8</ele><time>2026-05-03T10:52:26.215Z</time></trkpt><trkpt lat="46.06408" lon="13.5717683"><ele>614.2</ele><time>2026-05-03T10:52:27.215Z</time></trkpt><trkpt lat="46.06415" lon="13.571685"><ele>612.6</ele><time>2026-05-03T10:52:28.215Z</time></trkpt><trkpt lat="46.0642167" lon="13.5715917"><ele>611.0</ele><time>2026-05-03T10:52:29.215Z</time></trkpt><trkpt lat="46.06428" lon="13.5715"><ele>613.6666666666666</ele><time>2026-05-03T10:52:30.215Z</time></trkpt><trkpt lat="46.06435" lon="13.571425"><ele>616.3333333333333</ele><time>2026-05-03T10:52:31.215Z</time></trkpt><trkpt lat="46.064425" lon="13.5713733"><ele>619.0</ele><time>2026-05-03T10:52:32.215Z</time></trkpt><trkpt lat="46.0645067" lon="13.5713467"><ele>621.6666666666666</ele><time>2026-05-03T10:52:33.215Z</time></trkpt><trkpt lat="46.0645867" lon="13.57131"><ele>624.3333333333334</ele><time>2026-05-03T10:52:34.215Z</time></trkpt><trkpt lat="46.06465" lon="13.5712517"><ele>627.0</ele><time>2026-05-03T10:52:35.215Z</time></trkpt><trkpt lat="46.0646967" lon="13.5711817"><ele>627.0</ele><time>2026-05-03T10:52:36.215Z</time></trkpt><trkpt lat="46.06477" lon="13.5711017"><ele>627.0</ele><time>2026-05-03T10:52:38.215Z</time></trkpt><trkpt lat="46.0648167" lon="13.57118"><ele>627.0</ele><time>2026-05-03T10:52:40.215Z</time></trkpt><trkpt lat="46.0648" lon="13.5712683"><ele>627.0</ele><time>2026-05-03T10:52:41.215Z</time></trkpt><trkpt lat="46.0647583" lon="13.5713617"><ele>627.0</ele><time>2026-05-03T10:52:42.215Z</time></trkpt><trkpt lat="46.064665" lon="13.5714583"><ele>627.0</ele><time>2026-05-03T10:52:43.215Z</time></trkpt><trkpt lat="46.0645617" lon="13.571525"><ele>629.1666666666666</ele><time>2026-05-03T10:52:44.215Z</time></trkpt><trkpt lat="46.0644717" lon="13.5715733"><ele>631.3333333333334</ele><time>2026-05-03T10:52:45.215Z</time></trkpt><trkpt lat="46.0643983" lon="13.57164"><ele>633.5</ele><time>2026-05-03T10:52:46.215Z</time></trkpt><trkpt lat="46.064345" lon="13.5717267"><ele>635.6666666666667</ele><time>2026-05-03T10:52:47.215Z</time></trkpt><trkpt lat="46.064315" lon="13.5718383"><ele>637.8333333333334</ele><time>2026-05-03T10:52:48.215Z</time></trkpt><trkpt lat="46.064315" lon="13.5719467"><ele>640.0</ele><time>2026-05-03T10:52:49.215Z</time></trkpt><trkpt lat="46.064335" lon="13.5720383"><ele>640.0</ele><time>2026-05-03T10:52:50.215Z</time></trkpt><trkpt lat="46.0644383" lon="13.5720483"><ele>640.0</ele><time>2026-05-03T10:52:52.215Z</time></trkpt><trkpt lat="46.06448" lon="13.5719683"><ele>640.0</ele><time>2026-05-03T10:52:53.215Z</time></trkpt><trkpt lat="46.0645083" lon="13.571885"><ele>640.0</ele><time>2026-05-03T10:52:54.215Z</time></trkpt><trkpt lat="46.0646017" lon="13.5719367"><ele>640.0</ele><time>2026-05-03T10:52:57.215Z</time></trkpt><trkpt lat="46.0646267" lon="13.572045"><ele>640.0</ele><time>2026-05-03T10:52:58.215Z</time></trkpt><trkpt lat="46.06466" lon="13.5721733"><ele>641.0</ele><time>2026-05-03T10:52:59.215Z</time></trkpt><trkpt lat="46.0646983" lon="13.5723083"><ele>642.0</ele><time>2026-05-03T10:53:00.215Z</time></trkpt><trkpt lat="46.0647417" lon="13.572435"><ele>643.0</ele><time>2026-05-03T10:53:01.215Z</time></trkpt><trkpt lat="46.06479" lon="13.5725383"><ele>644.0</ele><time>2026-05-03T10:53:02.216Z</time></trkpt><trkpt lat="46.064865" lon="13.572585"><ele>645.0</ele><time>2026-05-03T10:53:03.215Z</time></trkpt><trkpt lat="46.064975" lon="13.5725617"><ele>647.5</ele><time>2026-05-03T10:53:04.215Z</time></trkpt><trkpt lat="46.0650667" lon="13.5724733"><ele>650.0</ele><time>2026-05-03T10:53:05.215Z</time></trkpt><trkpt lat="46.065115" lon="13.57234"><ele>652.5</ele><time>2026-05-03T10:53:06.215Z</time></trkpt><trkpt lat="46.0651183" lon="13.5721833"><ele>655.0</ele><time>2026-05-03T10:53:07.215Z</time></trkpt><trkpt lat="46.0650783" lon="13.572005"><ele>655.6</ele><time>2026-05-03T10:53:08.215Z</time></trkpt><trkpt lat="46.06505" lon="13.5718433"><ele>656.2</ele><time>2026-05-03T10:53:09.215Z</time></trkpt><trkpt lat="46.0650417" lon="13.5717167"><ele>656.8</ele><time>2026-05-03T10:53:10.215Z</time></trkpt><trkpt lat="46.0651067" lon="13.5716367"><ele>657.4</ele><time>2026-05-03T10:53:12.215Z</time></trkpt><trkpt lat="46.06524" lon="13.5717433"><ele>658.0</ele><time>2026-05-03T10:53:14.215Z</time></trkpt><trkpt lat="46.0653283" lon="13.57183"><ele>658.0</ele><time>2026-05-03T10:53:15.215Z</time></trkpt><trkpt lat="46.0654367" lon="13.5719067"><ele>658.0</ele><time>2026-05-03T10:53:16.215Z</time></trkpt><trkpt lat="46.0655383" lon="13.571965"><ele>658.0</ele><time>2026-05-03T10:53:17.215Z</time></trkpt><trkpt lat="46.0656183" lon="13.5719667"><ele>658.0</ele><time>2026-05-03T10:53:18.215Z</time></trkpt><trkpt lat="46.0656467" lon="13.5718717"><ele>658.0</ele><time>2026-05-03T10:53:19.215Z</time></trkpt><trkpt lat="46.0655917" lon="13.57176"><ele>658.0</ele><time>2026-05-03T10:53:21.215Z</time></trkpt><trkpt lat="46.0655083" lon="13.5717"><ele>658.0</ele><time>2026-05-03T10:53:22.215Z</time></trkpt><trkpt lat="46.0654067" lon="13.5716333"><ele>658.0</ele><time>2026-05-03T10:53:23.215Z</time></trkpt><trkpt lat="46.06534" lon="13.571555"><ele>658.0</ele><time>2026-05-03T10:53:24.215Z</time></trkpt><trkpt lat="46.0653633" lon="13.5714667"><ele>658.0</ele><time>2026-05-03T10:53:26.215Z</time></trkpt><trkpt lat="46.0654517" lon="13.5715133"><ele>658.0</ele><time>2026-05-03T10:53:27.215Z</time></trkpt><trkpt lat="46.065555" lon="13.571575"><ele>658.0</ele><time>2026-05-03T10:53:28.215Z</time></trkpt><trkpt lat="46.0656783" lon="13.5716367"><ele>658.0</ele><time>2026-05-03T10:53:29.215Z</time></trkpt><trkpt lat="46.0658117" lon="13.57171"><ele>658.0</ele><time>2026-05-03T10:53:30.215Z</time></trkpt><trkpt lat="46.0659533" lon="13.5717917"><ele>663.5</ele><time>2026-05-03T10:53:31.215Z</time></trkpt><trkpt lat="46.0660933" lon="13.5718617"><ele>669.0</ele><time>2026-05-03T10:53:32.215Z</time></trkpt><trkpt lat="46.0662217" lon="13.5719033"><ele>674.5</ele><time>2026-05-03T10:53:33.215Z</time></trkpt><trkpt lat="46.0663567" lon="13.5719233"><ele>680.0</ele><time>2026-05-03T10:53:34.215Z</time></trkpt><trkpt lat="46.066495" lon="13.5719"><ele>683.75</ele><time>2026-05-03T10:53:35.215Z</time></trkpt><trkpt lat="46.066615" lon="13.571855"><ele>687.5</ele><time>2026-05-03T10:53:36.215Z</time></trkpt><trkpt lat="46.0667383" lon="13.5717933"><ele>691.25</ele><time>2026-05-03T10:53:37.215Z</time></trkpt><trkpt lat="46.0668367" lon="13.5717083"><ele>695.0</ele><time>2026-05-03T10:53:38.215Z</time></trkpt><trkpt lat="46.0669167" lon="13.57165"><ele>695.0</ele><time>2026-05-03T10:53:39.215Z</time></trkpt><trkpt lat="46.066995" lon="13.57163"><ele>695.0</ele><time>2026-05-03T10:53:40.215Z</time></trkpt><trkpt lat="46.0670783" lon="13.57164"><ele>695.0</ele><time>2026-05-03T10:53:41.215Z</time></trkpt><trkpt lat="46.06717" lon="13.5717033"><ele>695.0</ele><time>2026-05-03T10:53:42.215Z</time></trkpt><trkpt lat="46.0672833" lon="13.5718283"><ele>695.0</ele><time>2026-05-03T10:53:43.215Z</time></trkpt><trkpt lat="46.0674067" lon="13.5719267"><ele>693.6666666666666</ele><time>2026-05-03T10:53:44.215Z</time></trkpt><trkpt lat="46.0675467" lon="13.5720367"><ele>692.3333333333334</ele><time>2026-05-03T10:53:45.215Z</time></trkpt><trkpt lat="46.0676967" lon="13.57214"><ele>691.0</ele><time>2026-05-03T10:53:46.215Z</time></trkpt><trkpt lat="46.0678433" lon="13.5722367"><ele>691.0</ele><time>2026-05-03T10:53:47.215Z</time></trkpt><trkpt lat="46.0679717" lon="13.57233"><ele>691.0</ele><time>2026-05-03T10:53:48.215Z</time></trkpt><trkpt lat="46.06808" lon="13.5724317"><ele>691.0</ele><time>2026-05-03T10:53:49.215Z</time></trkpt><trkpt lat="46.0681767" lon="13.5725567"><ele>691.0</ele><time>2026-05-03T10:53:50.215Z</time></trkpt><trkpt lat="46.06824" lon="13.5727"><ele>692.25</ele><time>2026-05-03T10:53:51.215Z</time></trkpt><trkpt lat="46.06827" lon="13.5728683"><ele>693.5</ele><time>2026-05-03T10:53:52.215Z</time></trkpt><trkpt lat="46.06828" lon="13.5730467"><ele>694.75</ele><time>2026-05-03T10:53:53.215Z</time></trkpt><trkpt lat="46.0682733" lon="13.5732167"><ele>696.0</ele><time>2026-05-03T10:53:54.215Z</time></trkpt><trkpt lat="46.0682117" lon="13.57337"><ele>696.0</ele><time>2026-05-03T10:53:55.215Z</time></trkpt><trkpt lat="46.06816" lon="13.5735017"><ele>696.0</ele><time>2026-05-03T10:53:56.215Z</time></trkpt><trkpt lat="46.06812" lon="13.57362"><ele>696.0</ele><time>2026-05-03T10:53:57.215Z</time></trkpt><trkpt lat="46.06813" lon="13.573755"><ele>696.0</ele><time>2026-05-03T10:53:58.215Z</time></trkpt><trkpt lat="46.0681567" lon="13.5739167"><ele>696.0</ele><time>2026-05-03T10:53:59.215Z</time></trkpt><trkpt lat="46.0681933" lon="13.5740467"><ele>697.8333333333334</ele><time>2026-05-03T10:54:00.215Z</time></trkpt><trkpt lat="46.0682283" lon="13.5741283"><ele>699.6666666666666</ele><time>2026-05-03T10:54:01.215Z</time></trkpt><trkpt lat="46.0683167" lon="13.5740433"><ele>701.5</ele><time>2026-05-03T10:54:03.215Z</time></trkpt><trkpt lat="46.06832" lon="13.5739417"><ele>703.3333333333333</ele><time>2026-05-03T10:54:04.215Z</time></trkpt><trkpt lat="46.0683167" lon="13.5738217"><ele>705.1666666666666</ele><time>2026-05-03T10:54:05.215Z</time></trkpt><trkpt lat="46.0683367" lon="13.5737017"><ele>707.0</ele><time>2026-05-03T10:54:06.215Z</time></trkpt><trkpt lat="46.0683883" lon="13.5736283"><ele>709.5</ele><time>2026-05-03T10:54:07.215Z</time></trkpt><trkpt lat="46.06849" lon="13.5736967"><ele>712.0</ele><time>2026-05-03T10:54:09.215Z</time></trkpt><trkpt lat="46.0685117" lon="13.57379"><ele>714.5</ele><time>2026-05-03T10:54:10.215Z</time></trkpt><trkpt lat="46.0685333" lon="13.57392"><ele>717.0</ele><time>2026-05-03T10:54:11.215Z</time></trkpt><trkpt lat="46.0685667" lon="13.5740267"><ele>719.5</ele><time>2026-05-03T10:54:12.215Z</time></trkpt><trkpt lat="46.06865" lon="13.5740583"><ele>722.0</ele><time>2026-05-03T10:54:14.215Z</time></trkpt><trkpt lat="46.0686817" lon="13.5739083"><ele>722.0</ele><time>2026-05-03T10:54:16.215Z</time></trkpt><trkpt lat="46.0686833" lon="13.5737933"><ele>722.0</ele><time>2026-05-03T10:54:17.215Z</time></trkpt><trkpt lat="46.0686767" lon="13.5736533"><ele>722.0</ele><time>2026-05-03T10:54:18.215Z</time></trkpt><trkpt lat="46.0686767" lon="13.5734983"><ele>722.0</ele><time>2026-05-03T10:54:19.215Z</time></trkpt><trkpt lat="46.0686833" lon="13.5733267"><ele>722.0</ele><time>2026-05-03T10:54:20.215Z</time></trkpt><trkpt lat="46.06869" lon="13.5731533"><ele>721.25</ele><time>2026-05-03T10:54:21.215Z</time></trkpt><trkpt lat="46.0686983" lon="13.57298"><ele>720.5</ele><time>2026-05-03T10:54:22.215Z</time></trkpt><trkpt lat="46.0687017" lon="13.5727917"><ele>719.75</ele><time>2026-05-03T10:54:23.215Z</time></trkpt><trkpt lat="46.0686967" lon="13.5725983"><ele>719.0</ele><time>2026-05-03T10:54:24.215Z</time></trkpt><trkpt lat="46.068675" lon="13.5724233"><ele>718.2</ele><time>2026-05-03T10:54:25.215Z</time></trkpt><trkpt lat="46.0686417" lon="13.5722633"><ele>717.4000000000001</ele><time>2026-05-03T10:54:26.215Z</time></trkpt><trkpt lat="46.068605" lon="13.572105"><ele>716.6</ele><time>2026-05-03T10:54:27.215Z</time></trkpt><trkpt lat="46.0686" lon="13.5719633"><ele>715.8</ele><time>2026-05-03T10:54:28.216Z</time></trkpt><trkpt lat="46.0686233" lon="13.57184"><ele>715.0</ele><time>2026-05-03T10:54:29.215Z</time></trkpt><trkpt lat="46.068665" lon="13.571725"><ele>717.4</ele><time>2026-05-03T10:54:30.215Z</time></trkpt><trkpt lat="46.0687" lon="13.5716033"><ele>719.8</ele><time>2026-05-03T10:54:31.215Z</time></trkpt><trkpt lat="46.0687167" lon="13.571465"><ele>722.2</ele><time>2026-05-03T10:54:32.215Z</time></trkpt><trkpt lat="46.0686833" lon="13.5713283"><ele>724.6</ele><time>2026-05-03T10:54:33.215Z</time></trkpt><trkpt lat="46.0686483" lon="13.571185"><ele>727.0</ele><time>2026-05-03T10:54:34.215Z</time></trkpt><trkpt lat="46.06862" lon="13.571035"><ele>728.6</ele><time>2026-05-03T10:54:35.215Z</time></trkpt><trkpt lat="46.068595" lon="13.5708883"><ele>730.2</ele><time>2026-05-03T10:54:36.215Z</time></trkpt><trkpt lat="46.0685717" lon="13.57074"><ele>731.8</ele><time>2026-05-03T10:54:37.215Z</time></trkpt><trkpt lat="46.068565" lon="13.5705917"><ele>733.4</ele><time>2026-05-03T10:54:38.215Z</time></trkpt><trkpt lat="46.0685683" lon="13.570445"><ele>735.0</ele><time>2026-05-03T10:54:39.215Z</time></trkpt><trkpt lat="46.0685917" lon="13.570305"><ele>735.0</ele><time>2026-05-03T10:54:40.215Z</time></trkpt><trkpt lat="46.0686167" lon="13.570175"><ele>735.0</ele><time>2026-05-03T10:54:41.215Z</time></trkpt><trkpt lat="46.0686333" lon="13.5700333"><ele>735.0</ele><time>2026-05-03T10:54:42.215Z</time></trkpt><trkpt lat="46.0686217" lon="13.5698833"><ele>735.0</ele><time>2026-05-03T10:54:43.215Z</time></trkpt><trkpt lat="46.0685917" lon="13.5697367"><ele>735.0</ele><time>2026-05-03T10:54:44.215Z</time></trkpt><trkpt lat="46.0685467" lon="13.56957"><ele>734.5</ele><time>2026-05-03T10:54:45.215Z</time></trkpt><trkpt lat="46.0684917" lon="13.5694017"><ele>734.0</ele><time>2026-05-03T10:54:46.215Z</time></trkpt><trkpt lat="46.0684417" lon="13.5692517"><ele>733.5</ele><time>2026-05-03T10:54:47.215Z</time></trkpt><trkpt lat="46.0683817" lon="13.5691067"><ele>733.0</ele><time>2026-05-03T10:54:48.215Z</time></trkpt><trkpt lat="46.068315" lon="13.568965"><ele>732.2</ele><time>2026-05-03T10:54:49.215Z</time></trkpt><trkpt lat="46.0682533" lon="13.568825"><ele>731.4</ele><time>2026-05-03T10:54:50.215Z</time></trkpt><trkpt lat="46.0682083" lon="13.5686933"><ele>730.6</ele><time>2026-05-03T10:54:51.215Z</time></trkpt><trkpt lat="46.0681733" lon="13.5685667"><ele>729.8000000000001</ele><time>2026-05-03T10:54:52.215Z</time></trkpt><trkpt lat="46.0681633" lon="13.568445"><ele>729.0</ele><time>2026-05-03T10:54:53.215Z</time></trkpt><trkpt lat="46.068175" lon="13.5683283"><ele>729.0</ele><time>2026-05-03T10:54:54.215Z</time></trkpt><trkpt lat="46.0682117" lon="13.5682383"><ele>729.0</ele><time>2026-05-03T10:54:55.215Z</time></trkpt><trkpt lat="46.068265" lon="13.56817"><ele>729.0</ele><time>2026-05-03T10:54:56.215Z</time></trkpt><trkpt lat="46.06833" lon="13.5681033"><ele>729.0</ele><time>2026-05-03T10:54:57.215Z</time></trkpt><trkpt lat="46.0683983" lon="13.56801"><ele>729.0</ele><time>2026-05-03T10:54:58.215Z</time></trkpt><trkpt lat="46.068455" lon="13.5678817"><ele>729.0</ele><time>2026-05-03T10:54:59.215Z</time></trkpt><trkpt lat="46.068495" lon="13.5677417"><ele>730.4000000000001</ele><time>2026-05-03T10:55:00.215Z</time></trkpt><trkpt lat="46.0685533" lon="13.56762"><ele>731.8</ele><time>2026-05-03T10:55:01.215Z</time></trkpt><trkpt lat="46.06861" lon="13.5675183"><ele>733.2</ele><time>2026-05-03T10:55:02.215Z</time></trkpt><trkpt lat="46.0686667" lon="13.5674333"><ele>734.5999999999999</ele><time>2026-05-03T10:55:03.215Z</time></trkpt><trkpt lat="46.0687317" lon="13.5673517"><ele>736.0</ele><time>2026-05-03T10:55:04.215Z</time></trkpt><trkpt lat="46.0688117" lon="13.5672517"><ele>736.0</ele><time>2026-05-03T10:55:05.215Z</time></trkpt><trkpt lat="46.0688767" lon="13.5671433"><ele>736.0</ele><time>2026-05-03T10:55:06.215Z</time></trkpt><trkpt lat="46.068935" lon="13.5670367"><ele>736.0</ele><time>2026-05-03T10:55:07.215Z</time></trkpt><trkpt lat="46.0689883" lon="13.5669217"><ele>736.0</ele><time>2026-05-03T10:55:08.215Z</time></trkpt><trkpt lat="46.0690317" lon="13.5667967"><ele>736.0</ele><time>2026-05-03T10:55:09.215Z</time></trkpt><trkpt lat="46.0690583" lon="13.566655"><ele>735.6666666666667</ele><time>2026-05-03T10:55:10.215Z</time></trkpt><trkpt lat="46.0690717" lon="13.5665167"><ele>735.3333333333334</ele><time>2026-05-03T10:55:11.215Z</time></trkpt><trkpt lat="46.06907" lon="13.5663883"><ele>735.0</ele><time>2026-05-03T10:55:12.216Z</time></trkpt><trkpt lat="46.06905" lon="13.566275"><ele>734.6666666666666</ele><time>2026-05-03T10:55:13.215Z</time></trkpt><trkpt lat="46.0690267" lon="13.566175"><ele>734.3333333333333</ele><time>2026-05-03T10:55:14.216Z</time></trkpt><trkpt lat="46.068975" lon="13.5660767"><ele>734.0</ele><time>2026-05-03T10:55:15.215Z</time></trkpt><trkpt lat="46.068915" lon="13.5659983"><ele>734.0</ele><time>2026-05-03T10:55:16.215Z</time></trkpt><trkpt lat="46.068855" lon="13.5659133"><ele>734.0</ele><time>2026-05-03T10:55:17.215Z</time></trkpt><trkpt lat="46.0688083" lon="13.5658383"><ele>734.0</ele><time>2026-05-03T10:55:18.215Z</time></trkpt><trkpt lat="46.0687567" lon="13.5657733"><ele>734.0</ele><time>2026-05-03T10:55:19.215Z</time></trkpt><trkpt lat="46.0686433" lon="13.5657317"><ele>734.0</ele><time>2026-05-03T10:55:21.215Z</time></trkpt><trkpt lat="46.0685317" lon="13.5658"><ele>734.0</ele><time>2026-05-03T10:55:23.215Z</time></trkpt><trkpt lat="46.0684483" lon="13.5658733"><ele>734.0</ele><time>2026-05-03T10:55:25.215Z</time></trkpt><trkpt lat="46.0683517" lon="13.56592"><ele>734.0</ele><time>2026-05-03T10:56:12.214Z</time></trkpt><trkpt lat="46.068275" lon="13.5659583"><ele>734.0</ele><time>2026-05-03T10:56:14.214Z</time></trkpt><trkpt lat="46.0681833" lon="13.5659883"><ele>734.0</ele><time>2026-05-03T10:56:16.214Z</time></trkpt><trkpt lat="46.0680983" lon="13.566045"><ele>734.8000000000001</ele><time>2026-05-03T10:56:18.214Z</time></trkpt><trkpt lat="46.067995" lon="13.5661233"><ele>735.6</ele><time>2026-05-03T10:56:20.214Z</time></trkpt><trkpt lat="46.067875" lon="13.5661933"><ele>736.4</ele><time>2026-05-03T10:56:22.214Z</time></trkpt><trkpt lat="46.0677433" lon="13.566205"><ele>737.2</ele><time>2026-05-03T10:56:24.215Z</time></trkpt><trkpt lat="46.0676767" lon="13.5661867"><ele>738.0</ele><time>2026-05-03T10:56:25.214Z</time></trkpt><trkpt lat="46.06761" lon="13.5661517"><ele>739.2</ele><time>2026-05-03T10:56:26.214Z</time></trkpt><trkpt lat="46.0675483" lon="13.5661033"><ele>740.4</ele><time>2026-05-03T10:56:27.214Z</time></trkpt><trkpt lat="46.0674967" lon="13.5660283"><ele>741.6</ele><time>2026-05-03T10:56:28.214Z</time></trkpt><trkpt lat="46.0674533" lon="13.5659517"><ele>742.8000000000001</ele><time>2026-05-03T10:56:29.214Z</time></trkpt><trkpt lat="46.0674783" lon="13.5657333"><ele>744.0</ele><time>2026-05-03T10:56:31.214Z</time></trkpt><trkpt lat="46.06751" lon="13.5655967"><ele>744.0</ele><time>2026-05-03T10:56:32.214Z</time></trkpt><trkpt lat="46.0675367" lon="13.5654633"><ele>744.0</ele><time>2026-05-03T10:56:33.214Z</time></trkpt><trkpt lat="46.06757" lon="13.5653283"><ele>744.0</ele><time>2026-05-03T10:56:34.214Z</time></trkpt><trkpt lat="46.0675967" lon="13.5652083"><ele>744.0</ele><time>2026-05-03T10:56:35.214Z</time></trkpt><trkpt lat="46.0676183" lon="13.5650817"><ele>744.0</ele><time>2026-05-03T10:56:36.214Z</time></trkpt><trkpt lat="46.0676267" lon="13.5649567"><ele>744.8333333333334</ele><time>2026-05-03T10:56:37.214Z</time></trkpt><trkpt lat="46.0676233" lon="13.5648383"><ele>745.6666666666666</ele><time>2026-05-03T10:56:38.214Z</time></trkpt><trkpt lat="46.0676183" lon="13.56473"><ele>746.5</ele><time>2026-05-03T10:56:39.214Z</time></trkpt><trkpt lat="46.067615" lon="13.5646367"><ele>747.3333333333333</ele><time>2026-05-03T10:56:40.214Z</time></trkpt><trkpt lat="46.067635" lon="13.5644717"><ele>748.1666666666666</ele><time>2026-05-03T10:56:42.214Z</time></trkpt><trkpt lat="46.06768" lon="13.5643983"><ele>749.0</ele><time>2026-05-03T10:56:43.214Z</time></trkpt><trkpt lat="46.0677383" lon="13.5643033"><ele>750.8000000000001</ele><time>2026-05-03T10:56:44.214Z</time></trkpt><trkpt lat="46.0678067" lon="13.5641867"><ele>752.6</ele><time>2026-05-03T10:56:45.214Z</time></trkpt><trkpt lat="46.0678817" lon="13.564065"><ele>754.4</ele><time>2026-05-03T10:56:46.214Z</time></trkpt><trkpt lat="46.0679583" lon="13.5639567"><ele>756.2</ele><time>2026-05-03T10:56:47.214Z</time></trkpt><trkpt lat="46.06803" lon="13.563845"><ele>758.0</ele><time>2026-05-03T10:56:48.214Z</time></trkpt><trkpt lat="46.0680917" lon="13.5637067"><ele>760.4</ele><time>2026-05-03T10:56:49.215Z</time></trkpt><trkpt lat="46.0681433" lon="13.5635617"><ele>762.8</ele><time>2026-05-03T10:56:50.214Z</time></trkpt><trkpt lat="46.068185" lon="13.5634067"><ele>765.2</ele><time>2026-05-03T10:56:51.214Z</time></trkpt><trkpt lat="46.0682217" lon="13.563255"><ele>767.6</ele><time>2026-05-03T10:56:52.214Z</time></trkpt><trkpt lat="46.0682533" lon="13.5631133"><ele>770.0</ele><time>2026-05-03T10:56:53.214Z</time></trkpt><trkpt lat="46.0682883" lon="13.56297"><ele>764.75</ele><time>2026-05-03T10:56:54.214Z</time></trkpt><trkpt lat="46.06833" lon="13.56282"><ele>759.5</ele><time>2026-05-03T10:56:55.214Z</time></trkpt><trkpt lat="46.0683767" lon="13.562675"><ele>754.25</ele><time>2026-05-03T10:56:56.214Z</time></trkpt><trkpt lat="46.06843" lon="13.5625183"><ele>749.0</ele><time>2026-05-03T10:56:57.214Z</time></trkpt><trkpt lat="46.068485" lon="13.5623417"><ele>749.0</ele><time>2026-05-03T10:56:58.214Z</time></trkpt><trkpt lat="46.0685333" lon="13.562155"><ele>749.0</ele><time>2026-05-03T10:56:59.214Z</time></trkpt><trkpt lat="46.06858" lon="13.5619667"><ele>749.0</ele><time>2026-05-03T10:57:00.214Z</time></trkpt><trkpt lat="46.0686167" lon="13.5617833"><ele>749.0</ele><time>2026-05-03T10:57:01.214Z</time></trkpt><trkpt lat="46.0686483" lon="13.561605"><ele>750.5</ele><time>2026-05-03T10:57:02.214Z</time></trkpt><trkpt lat="46.0686733" lon="13.5614333"><ele>752.0</ele><time>2026-05-03T10:57:03.214Z</time></trkpt><trkpt lat="46.0686883" lon="13.5612717"><ele>753.5</ele><time>2026-05-03T10:57:04.214Z</time></trkpt><trkpt lat="46.0686983" lon="13.5611183"><ele>755.0</ele><time>2026-05-03T10:57:05.214Z</time></trkpt><trkpt lat="46.0687133" lon="13.5609633"><ele>755.0</ele><time>2026-05-03T10:57:06.214Z</time></trkpt><trkpt lat="46.0687283" lon="13.5607933"><ele>755.0</ele><time>2026-05-03T10:57:07.214Z</time></trkpt><trkpt lat="46.06874" lon="13.5606133"><ele>755.0</ele><time>2026-05-03T10:57:08.214Z</time></trkpt><trkpt lat="46.0687533" lon="13.5604317"><ele>755.0</ele><time>2026-05-03T10:57:09.214Z</time></trkpt><trkpt lat="46.0687633" lon="13.56025"><ele>755.0</ele><time>2026-05-03T10:57:10.214Z</time></trkpt><trkpt lat="46.06878" lon="13.5600733"><ele>755.0</ele><time>2026-05-03T10:57:11.215Z</time></trkpt><trkpt lat="46.0687917" lon="13.5599067"><ele>755.0</ele><time>2026-05-03T10:57:12.214Z</time></trkpt><trkpt lat="46.0688167" lon="13.5597517"><ele>755.0</ele><time>2026-05-03T10:57:13.214Z</time></trkpt><trkpt lat="46.0688417" lon="13.5596083"><ele>754.2</ele><time>2026-05-03T10:57:14.214Z</time></trkpt><trkpt lat="46.0688617" lon="13.5594717"><ele>753.4</ele><time>2026-05-03T10:57:15.214Z</time></trkpt><trkpt lat="46.0688867" lon="13.5593367"><ele>752.5999999999999</ele><time>2026-05-03T10:57:16.214Z</time></trkpt><trkpt lat="46.0689067" lon="13.5591983"><ele>751.8</ele><time>2026-05-03T10:57:17.215Z</time></trkpt><trkpt lat="46.06891" lon="13.55906"><ele>751.0</ele><time>2026-05-03T10:57:18.214Z</time></trkpt><trkpt lat="46.0688967" lon="13.5589183"><ele>751.0</ele><time>2026-05-03T10:57:19.214Z</time></trkpt><trkpt lat="46.0688767" lon="13.558775"><ele>751.0</ele><time>2026-05-03T10:57:20.214Z</time></trkpt><trkpt lat="46.0688583" lon="13.5586183"><ele>751.0</ele><time>2026-05-03T10:57:21.214Z</time></trkpt><trkpt lat="46.0688533" lon="13.5584483"><ele>751.0</ele><time>2026-05-03T10:57:22.214Z</time></trkpt><trkpt lat="46.0688717" lon="13.558285"><ele>751.0</ele><time>2026-05-03T10:57:23.214Z</time></trkpt><trkpt lat="46.0688917" lon="13.55812"><ele>750.5</ele><time>2026-05-03T10:57:24.214Z</time></trkpt><trkpt lat="46.06893" lon="13.557945"><ele>750.0</ele><time>2026-05-03T10:57:25.214Z</time></trkpt><trkpt lat="46.06897" lon="13.5577317"><ele>749.5</ele><time>2026-05-03T10:57:26.214Z</time></trkpt><trkpt lat="46.0690167" lon="13.557545"><ele>749.0</ele><time>2026-05-03T10:57:27.214Z</time></trkpt><trkpt lat="46.0690633" lon="13.55736"><ele>738.75</ele><time>2026-05-03T10:57:28.214Z</time></trkpt><trkpt lat="46.0691183" lon="13.5571783"><ele>728.5</ele><time>2026-05-03T10:57:29.214Z</time></trkpt><trkpt lat="46.0691533" lon="13.5570083"><ele>718.25</ele><time>2026-05-03T10:57:30.214Z</time></trkpt><trkpt lat="46.069195" lon="13.5568433"><ele>708.0</ele><time>2026-05-03T10:57:31.214Z</time></trkpt><trkpt lat="46.069235" lon="13.5566767"><ele>708.0</ele><time>2026-05-03T10:57:32.214Z</time></trkpt><trkpt lat="46.0692733" lon="13.5565083"><ele>708.0</ele><time>2026-05-03T10:57:33.214Z</time></trkpt><trkpt lat="46.0693067" lon="13.5563467"><ele>708.0</ele><time>2026-05-03T10:57:34.214Z</time></trkpt><trkpt lat="46.069335" lon="13.556185"><ele>708.0</ele><time>2026-05-03T10:57:35.214Z</time></trkpt><trkpt lat="46.0693667" lon="13.5560217"><ele>708.0</ele><time>2026-05-03T10:57:36.214Z</time></trkpt><trkpt lat="46.0694033" lon="13.5558483"><ele>708.0</ele><time>2026-05-03T10:57:37.214Z</time></trkpt><trkpt lat="46.0694433" lon="13.5556767"><ele>708.0</ele><time>2026-05-03T10:57:38.214Z</time></trkpt><trkpt lat="46.0694817" lon="13.555515"><ele>708.0</ele><time>2026-05-03T10:57:39.214Z</time></trkpt><trkpt lat="46.0695317" lon="13.5553617"><ele>708.0</ele><time>2026-05-03T10:57:40.214Z</time></trkpt><trkpt lat="46.0695783" lon="13.55519"><ele>708.0</ele><time>2026-05-03T10:57:41.215Z</time></trkpt><trkpt lat="46.069635" lon="13.5550333"><ele>708.0</ele><time>2026-05-03T10:57:42.214Z</time></trkpt><trkpt lat="46.06968" lon="13.554885"><ele>708.0</ele><time>2026-05-03T10:57:43.214Z</time></trkpt><trkpt lat="46.069725" lon="13.5547383"><ele>708.0</ele><time>2026-05-03T10:57:44.214Z</time></trkpt><trkpt lat="46.0697683" lon="13.5545917"><ele>708.0</ele><time>2026-05-03T10:57:45.214Z</time></trkpt><trkpt lat="46.0697883" lon="13.55444"><ele>708.0</ele><time>2026-05-03T10:57:46.214Z</time></trkpt><trkpt lat="46.069805" lon="13.554285"><ele>708.0</ele><time>2026-05-03T10:57:47.214Z</time></trkpt><trkpt lat="46.0698167" lon="13.55413"><ele>708.0</ele><time>2026-05-03T10:57:48.214Z</time></trkpt><trkpt lat="46.0698367" lon="13.5539733"><ele>708.5</ele><time>2026-05-03T10:57:49.214Z</time></trkpt><trkpt lat="46.0698783" lon="13.5538083"><ele>709.0</ele><time>2026-05-03T10:57:50.214Z</time></trkpt><trkpt lat="46.0699133" lon="13.5536533"><ele>709.5</ele><time>2026-05-03T10:57:51.214Z</time></trkpt><trkpt lat="46.06993" lon="13.55349"><ele>710.0</ele><time>2026-05-03T10:57:52.214Z</time></trkpt><trkpt lat="46.0699383" lon="13.55332"><ele>710.25</ele><time>2026-05-03T10:57:53.214Z</time></trkpt><trkpt lat="46.0699417" lon="13.553155"><ele>710.5</ele><time>2026-05-03T10:57:54.214Z</time></trkpt><trkpt lat="46.0699533" lon="13.5529917"><ele>710.75</ele><time>2026-05-03T10:57:55.214Z</time></trkpt><trkpt lat="46.069965" lon="13.5528083"><ele>711.0</ele><time>2026-05-03T10:57:56.214Z</time></trkpt><trkpt lat="46.0699917" lon="13.5526317"><ele>704.25</ele><time>2026-05-03T10:57:57.214Z</time></trkpt><trkpt lat="46.070025" lon="13.5524533"><ele>697.5</ele><time>2026-05-03T10:57:58.214Z</time></trkpt><trkpt lat="46.0700617" lon="13.552295"><ele>690.75</ele><time>2026-05-03T10:57:59.214Z</time></trkpt><trkpt lat="46.0700917" lon="13.552145"><ele>684.0</ele><time>2026-05-03T10:58:00.214Z</time></trkpt><trkpt lat="46.070125" lon="13.5520083"><ele>684.0</ele><time>2026-05-03T10:58:01.214Z</time></trkpt><trkpt lat="46.0701633" lon="13.5518733"><ele>684.0</ele><time>2026-05-03T10:58:02.214Z</time></trkpt><trkpt lat="46.0701933" lon="13.55174"><ele>684.0</ele><time>2026-05-03T10:58:03.214Z</time></trkpt><trkpt lat="46.0702133" lon="13.5516017"><ele>684.0</ele><time>2026-05-03T10:58:04.214Z</time></trkpt><trkpt lat="46.0702133" lon="13.551465"><ele>684.0</ele><time>2026-05-03T10:58:05.214Z</time></trkpt><trkpt lat="46.0702083" lon="13.5513417"><ele>684.0</ele><time>2026-05-03T10:58:06.214Z</time></trkpt><trkpt lat="46.0701967" lon="13.5512083"><ele>684.0</ele><time>2026-05-03T10:58:07.214Z</time></trkpt><trkpt lat="46.07018" lon="13.5510783"><ele>684.0</ele><time>2026-05-03T10:58:08.214Z</time></trkpt><trkpt lat="46.0701417" lon="13.5509383"><ele>684.0</ele><time>2026-05-03T10:58:09.214Z</time></trkpt><trkpt lat="46.070095" lon="13.55082"><ele>684.0</ele><time>2026-05-03T10:58:10.214Z</time></trkpt><trkpt lat="46.0700283" lon="13.5507133"><ele>683.25</ele><time>2026-05-03T10:58:11.214Z</time></trkpt><trkpt lat="46.069925" lon="13.5506167"><ele>682.5</ele><time>2026-05-03T10:58:12.214Z</time></trkpt><trkpt lat="46.0698033" lon="13.5505417"><ele>681.75</ele><time>2026-05-03T10:58:13.214Z</time></trkpt><trkpt lat="46.0696767" lon="13.5504583"><ele>681.0</ele><time>2026-05-03T10:58:14.214Z</time></trkpt><trkpt lat="46.069565" lon="13.55037"><ele>678.25</ele><time>2026-05-03T10:58:15.214Z</time></trkpt><trkpt lat="46.0694683" lon="13.5502783"><ele>675.5</ele><time>2026-05-03T10:58:16.215Z</time></trkpt><trkpt lat="46.06938" lon="13.5501667"><ele>672.75</ele><time>2026-05-03T10:58:17.214Z</time></trkpt><trkpt lat="46.0692867" lon="13.55005"><ele>670.0</ele><time>2026-05-03T10:58:18.214Z</time></trkpt><trkpt lat="46.0691817" lon="13.5499383"><ele>668.0</ele><time>2026-05-03T10:58:19.214Z</time></trkpt><trkpt lat="46.0690683" lon="13.5498533"><ele>666.0</ele><time>2026-05-03T10:58:20.214Z</time></trkpt><trkpt lat="46.06896" lon="13.549745"><ele>664.0</ele><time>2026-05-03T10:58:21.214Z</time></trkpt><trkpt lat="46.0688683" lon="13.5496167"><ele>662.0</ele><time>2026-05-03T10:58:22.214Z</time></trkpt><trkpt lat="46.0687933" lon="13.5495"><ele>659.8333333333333</ele><time>2026-05-03T10:58:23.214Z</time></trkpt><trkpt lat="46.0687317" lon="13.5494133"><ele>657.6666666666666</ele><time>2026-05-03T10:58:24.214Z</time></trkpt><trkpt lat="46.06866" lon="13.549345"><ele>655.5</ele><time>2026-05-03T10:58:25.214Z</time></trkpt><trkpt lat="46.0685767" lon="13.5492933"><ele>653.3333333333334</ele><time>2026-05-03T10:58:26.214Z</time></trkpt><trkpt lat="46.068495" lon="13.5492633"><ele>651.1666666666667</ele><time>2026-05-03T10:58:27.214Z</time></trkpt><trkpt lat="46.0684167" lon="13.54928"><ele>649.0</ele><time>2026-05-03T10:58:28.214Z</time></trkpt><trkpt lat="46.0683417" lon="13.5493267"><ele>644.8000000000001</ele><time>2026-05-03T10:58:29.214Z</time></trkpt><trkpt lat="46.0682667" lon="13.549415"><ele>640.6</ele><time>2026-05-03T10:58:30.214Z</time></trkpt><trkpt lat="46.0682117" lon="13.5495267"><ele>636.4</ele><time>2026-05-03T10:58:31.214Z</time></trkpt><trkpt lat="46.0681617" lon="13.5496433"><ele>632.2</ele><time>2026-05-03T10:58:32.214Z</time></trkpt><trkpt lat="46.068095" lon="13.5497567"><ele>628.0</ele><time>2026-05-03T10:58:33.214Z</time></trkpt><trkpt lat="46.0680433" lon="13.54987"><ele>628.0</ele><time>2026-05-03T10:58:34.214Z</time></trkpt><trkpt lat="46.06799" lon="13.5499917"><ele>628.0</ele><time>2026-05-03T10:58:35.214Z</time></trkpt><trkpt lat="46.0679383" lon="13.5500983"><ele>628.0</ele><time>2026-05-03T10:58:36.214Z</time></trkpt><trkpt lat="46.0678967" lon="13.55022"><ele>628.0</ele><time>2026-05-03T10:58:37.214Z</time></trkpt><trkpt lat="46.067875" lon="13.5503433"><ele>628.0</ele><time>2026-05-03T10:58:38.214Z</time></trkpt><trkpt lat="46.0678433" lon="13.5504667"><ele>630.6666666666667</ele><time>2026-05-03T10:58:39.214Z</time></trkpt><trkpt lat="46.0678167" lon="13.5505983"><ele>633.3333333333334</ele><time>2026-05-03T10:58:40.214Z</time></trkpt><trkpt lat="46.0677867" lon="13.5507183"><ele>636.0</ele><time>2026-05-03T10:58:41.214Z</time></trkpt><trkpt lat="46.0677667" lon="13.5508317"><ele>638.6666666666666</ele><time>2026-05-03T10:58:42.214Z</time></trkpt><trkpt lat="46.0677517" lon="13.5509433"><ele>641.3333333333333</ele><time>2026-05-03T10:58:43.214Z</time></trkpt><trkpt lat="46.0677317" lon="13.5510533"><ele>644.0</ele><time>2026-05-03T10:58:44.214Z</time></trkpt><trkpt lat="46.067715" lon="13.5511517"><ele>642.6</ele><time>2026-05-03T10:58:45.214Z</time></trkpt><trkpt lat="46.0676717" lon="13.5512833"><ele>641.2</ele><time>2026-05-03T10:58:47.214Z</time></trkpt><trkpt lat="46.0675917" lon="13.5512867"><ele>639.8000000000001</ele><time>2026-05-03T10:58:49.214Z</time></trkpt><trkpt lat="46.06751" lon="13.5512717"><ele>638.4000000000001</ele><time>2026-05-03T10:58:50.214Z</time></trkpt><trkpt lat="46.067425" lon="13.55122"><ele>637.0</ele><time>2026-05-03T10:58:51.214Z</time></trkpt><trkpt lat="46.06733" lon="13.5511533"><ele>637.0</ele><time>2026-05-03T10:58:52.214Z</time></trkpt><trkpt lat="46.0672267" lon="13.5510683"><ele>637.0</ele><time>2026-05-03T10:58:53.214Z</time></trkpt><trkpt lat="46.0671267" lon="13.55098"><ele>637.0</ele><time>2026-05-03T10:58:54.214Z</time></trkpt><trkpt lat="46.0670267" lon="13.550885"><ele>637.0</ele><time>2026-05-03T10:58:55.214Z</time></trkpt><trkpt lat="46.0669317" lon="13.5508083"><ele>637.0</ele><time>2026-05-03T10:58:56.214Z</time></trkpt><trkpt lat="46.0668533" lon="13.5507833"><ele>637.0</ele><time>2026-05-03T10:58:57.214Z</time></trkpt><trkpt lat="46.0667717" lon="13.5507867"><ele>637.0</ele><time>2026-05-03T10:58:58.214Z</time></trkpt><trkpt lat="46.0666933" lon="13.5508283"><ele>637.0</ele><time>2026-05-03T10:58:59.214Z</time></trkpt><trkpt lat="46.066615" lon="13.55091"><ele>637.0</ele><time>2026-05-03T10:59:00.214Z</time></trkpt><trkpt lat="46.066535" lon="13.5509817"><ele>637.0</ele><time>2026-05-03T10:59:01.214Z</time></trkpt><trkpt lat="46.0664683" lon="13.551035"><ele>641.4000000000001</ele><time>2026-05-03T10:59:02.214Z</time></trkpt><trkpt lat="46.0664067" lon="13.5510633"><ele>645.8000000000001</ele><time>2026-05-03T10:59:03.214Z</time></trkpt><trkpt lat="46.06631" lon="13.5509967"><ele>650.2</ele><time>2026-05-03T10:59:05.215Z</time></trkpt><trkpt lat="46.066275" lon="13.5508917"><ele>654.6</ele><time>2026-05-03T10:59:06.214Z</time></trkpt><trkpt lat="46.066225" lon="13.55075"><ele>659.0</ele><time>2026-05-03T10:59:07.214Z</time></trkpt><trkpt lat="46.066175" lon="13.550555"><ele>659.0</ele><time>2026-05-03T10:59:08.214Z</time></trkpt><trkpt lat="46.0661183" lon="13.55038"><ele>659.0</ele><time>2026-05-03T10:59:09.214Z</time></trkpt><trkpt lat="46.0660667" lon="13.5502233"><ele>659.0</ele><time>2026-05-03T10:59:10.214Z</time></trkpt><trkpt lat="46.0660217" lon="13.550085"><ele>659.0</ele><time>2026-05-03T10:59:11.214Z</time></trkpt><trkpt lat="46.06598" lon="13.5499583"><ele>654.8000000000001</ele><time>2026-05-03T10:59:12.214Z</time></trkpt><trkpt lat="46.06593" lon="13.549835"><ele>650.6</ele><time>2026-05-03T10:59:13.214Z</time></trkpt><trkpt lat="46.06587" lon="13.5497233"><ele>646.4</ele><time>2026-05-03T10:59:14.214Z</time></trkpt><trkpt lat="46.06581" lon="13.54961"><ele>642.2</ele><time>2026-05-03T10:59:15.214Z</time></trkpt><trkpt lat="46.0657383" lon="13.5494933"><ele>638.0</ele><time>2026-05-03T10:59:16.214Z</time></trkpt><trkpt lat="46.06564" lon="13.549405"><ele>635.8</ele><time>2026-05-03T10:59:17.214Z</time></trkpt><trkpt lat="46.065545" lon="13.54932"><ele>633.5999999999999</ele><time>2026-05-03T10:59:18.214Z</time></trkpt><trkpt lat="46.06545" lon="13.54926"><ele>631.4000000000001</ele><time>2026-05-03T10:59:19.214Z</time></trkpt><trkpt lat="46.06535" lon="13.5492233"><ele>629.2</ele><time>2026-05-03T10:59:20.214Z</time></trkpt><trkpt lat="46.0652517" lon="13.5492167"><ele>627.0</ele><time>2026-05-03T10:59:21.214Z</time></trkpt><trkpt lat="46.0651533" lon="13.54922"><ele>627.0</ele><time>2026-05-03T10:59:22.214Z</time></trkpt><trkpt lat="46.0650617" lon="13.54925"><ele>627.0</ele><time>2026-05-03T10:59:23.214Z</time></trkpt><trkpt lat="46.0649683" lon="13.549295"><ele>627.0</ele><time>2026-05-03T10:59:24.214Z</time></trkpt><trkpt lat="46.064895" lon="13.5493467"><ele>627.0</ele><time>2026-05-03T10:59:25.214Z</time></trkpt><trkpt lat="46.0648233" lon="13.5493933"><ele>627.0</ele><time>2026-05-03T10:59:26.214Z</time></trkpt><trkpt lat="46.0647283" lon="13.5493917"><ele>627.0</ele><time>2026-05-03T10:59:28.214Z</time></trkpt><trkpt lat="46.0646367" lon="13.5492067"><ele>629.4</ele><time>2026-05-03T10:59:30.214Z</time></trkpt><trkpt lat="46.0645767" lon="13.549095"><ele>631.8000000000001</ele><time>2026-05-03T10:59:31.214Z</time></trkpt><trkpt lat="46.064495" lon="13.5489817"><ele>634.2</ele><time>2026-05-03T10:59:32.214Z</time></trkpt><trkpt lat="46.0644067" lon="13.5488883"><ele>636.6</ele><time>2026-05-03T10:59:33.214Z</time></trkpt><trkpt lat="46.06431" lon="13.5488167"><ele>639.0</ele><time>2026-05-03T10:59:34.214Z</time></trkpt><trkpt lat="46.064215" lon="13.5487733"><ele>637.0</ele><time>2026-05-03T10:59:35.214Z</time></trkpt><trkpt lat="46.0641083" lon="13.5487417"><ele>635.0</ele><time>2026-05-03T10:59:36.214Z</time></trkpt><trkpt lat="46.0640083" lon="13.5487183"><ele>633.0</ele><time>2026-05-03T10:59:37.214Z</time></trkpt><trkpt lat="46.0639067" lon="13.5486933"><ele>631.0</ele><time>2026-05-03T10:59:38.214Z</time></trkpt><trkpt lat="46.0638267" lon="13.548665"><ele>629.0</ele><time>2026-05-03T10:59:39.214Z</time></trkpt><trkpt lat="46.063745" lon="13.548625"><ele>629.0</ele><time>2026-05-03T10:59:40.214Z</time></trkpt><trkpt lat="46.0636833" lon="13.5485433"><ele>629.0</ele><time>2026-05-03T10:59:41.215Z</time></trkpt><trkpt lat="46.06363" lon="13.54845"><ele>629.0</ele><time>2026-05-03T10:59:42.214Z</time></trkpt><trkpt lat="46.0635583" lon="13.548335"><ele>629.0</ele><time>2026-05-03T10:59:43.214Z</time></trkpt><trkpt lat="46.0634783" lon="13.548205"><ele>629.0</ele><time>2026-05-03T10:59:44.214Z</time></trkpt><trkpt lat="46.0633883" lon="13.548095"><ele>629.0</ele><time>2026-05-03T10:59:45.214Z</time></trkpt><trkpt lat="46.06329" lon="13.5480017"><ele>629.0</ele><time>2026-05-03T10:59:46.214Z</time></trkpt><trkpt lat="46.06319" lon="13.5479233"><ele>629.0</ele><time>2026-05-03T10:59:47.214Z</time></trkpt><trkpt lat="46.063085" lon="13.547845"><ele>629.0</ele><time>2026-05-03T10:59:48.214Z</time></trkpt><trkpt lat="46.0630067" lon="13.5477383"><ele>632.2</ele><time>2026-05-03T10:59:49.214Z</time></trkpt><trkpt lat="46.0629433" lon="13.54762"><ele>635.4</ele><time>2026-05-03T10:59:50.214Z</time></trkpt><trkpt lat="46.062895" lon="13.547495"><ele>638.6</ele><time>2026-05-03T10:59:51.214Z</time></trkpt><trkpt lat="46.0628467" lon="13.5473617"><ele>641.8</ele><time>2026-05-03T10:59:52.214Z</time></trkpt><trkpt lat="46.0628033" lon="13.5472267"><ele>645.0</ele><time>2026-05-03T10:59:53.214Z</time></trkpt><trkpt lat="46.0627517" lon="13.5471217"><ele>641.0</ele><time>2026-05-03T10:59:54.214Z</time></trkpt><trkpt lat="46.062685" lon="13.5470133"><ele>637.0</ele><time>2026-05-03T10:59:55.214Z</time></trkpt><trkpt lat="46.062625" lon="13.5468883"><ele>633.0</ele><time>2026-05-03T10:59:56.214Z</time></trkpt><trkpt lat="46.0625683" lon="13.5467633"><ele>629.0</ele><time>2026-05-03T10:59:57.214Z</time></trkpt><trkpt lat="46.0625183" lon="13.5466317"><ele>625.0</ele><time>2026-05-03T10:59:58.214Z</time></trkpt><trkpt lat="46.0624633" lon="13.5464933"><ele>623.6</ele><time>2026-05-03T10:59:59.214Z</time></trkpt><trkpt lat="46.062415" lon="13.546355"><ele>622.2</ele><time>2026-05-03T11:00:00.215Z</time></trkpt><trkpt lat="46.06237" lon="13.54623"><ele>620.8</ele><time>2026-05-03T11:00:01.214Z</time></trkpt><trkpt lat="46.062325" lon="13.54612"><ele>619.4</ele><time>2026-05-03T11:00:02.214Z</time></trkpt><trkpt lat="46.0622733" lon="13.5460467"><ele>618.0</ele><time>2026-05-03T11:00:03.214Z</time></trkpt><trkpt lat="46.0621917" lon="13.5459817"><ele>618.0</ele><time>2026-05-03T11:00:04.214Z</time></trkpt><trkpt lat="46.0621033" lon="13.5459417"><ele>618.0</ele><time>2026-05-03T11:00:05.214Z</time></trkpt><trkpt lat="46.062025" lon="13.5459117"><ele>618.0</ele><time>2026-05-03T11:00:06.214Z</time></trkpt><trkpt lat="46.0619417" lon="13.5458833"><ele>618.0</ele><time>2026-05-03T11:00:07.214Z</time></trkpt><trkpt lat="46.0618467" lon="13.5458417"><ele>618.0</ele><time>2026-05-03T11:00:08.214Z</time></trkpt><trkpt lat="46.0617583" lon="13.5457983"><ele>618.0</ele><time>2026-05-03T11:00:09.214Z</time></trkpt><trkpt lat="46.0616733" lon="13.5457533"><ele>618.0</ele><time>2026-05-03T11:00:10.214Z</time></trkpt><trkpt lat="46.0615967" lon="13.5456983"><ele>618.0</ele><time>2026-05-03T11:00:11.214Z</time></trkpt><trkpt lat="46.0615183" lon="13.545605"><ele>618.0</ele><time>2026-05-03T11:00:12.214Z</time></trkpt><trkpt lat="46.0614617" lon="13.5454967"><ele>618.0</ele><time>2026-05-03T11:00:13.215Z</time></trkpt><trkpt lat="46.0614183" lon="13.545365"><ele>618.1999999999999</ele><time>2026-05-03T11:00:14.214Z</time></trkpt><trkpt lat="46.061375" lon="13.54522"><ele>618.4</ele><time>2026-05-03T11:00:15.214Z</time></trkpt><trkpt lat="46.0613267" lon="13.5450917"><ele>618.5999999999999</ele><time>2026-05-03T11:00:16.214Z</time></trkpt><trkpt lat="46.06128" lon="13.54497"><ele>618.8</ele><time>2026-05-03T11:00:17.214Z</time></trkpt><trkpt lat="46.0612467" lon="13.5448517"><ele>619.0</ele><time>2026-05-03T11:00:18.214Z</time></trkpt><trkpt lat="46.061215" lon="13.5447267"><ele>619.0</ele><time>2026-05-03T11:00:19.214Z</time></trkpt><trkpt lat="46.0611817" lon="13.5446033"><ele>619.0</ele><time>2026-05-03T11:00:20.214Z</time></trkpt><trkpt lat="46.0611517" lon="13.5444883"><ele>619.0</ele><time>2026-05-03T11:00:21.214Z</time></trkpt><trkpt lat="46.0611117" lon="13.544375"><ele>619.0</ele><time>2026-05-03T11:00:22.214Z</time></trkpt><trkpt lat="46.061075" lon="13.5442667"><ele>619.0</ele><time>2026-05-03T11:00:23.214Z</time></trkpt><trkpt lat="46.06102" lon="13.5441517"><ele>619.0</ele><time>2026-05-03T11:00:24.214Z</time></trkpt><trkpt lat="46.060965" lon="13.5440433"><ele>616.8</ele><time>2026-05-03T11:00:25.214Z</time></trkpt><trkpt lat="46.060905" lon="13.5439283"><ele>614.5999999999999</ele><time>2026-05-03T11:00:26.214Z</time></trkpt><trkpt lat="46.0608517" lon="13.5438067"><ele>612.4</ele><time>2026-05-03T11:00:27.214Z</time></trkpt><trkpt lat="46.0608117" lon="13.5436883"><ele>610.1999999999999</ele><time>2026-05-03T11:00:28.214Z</time></trkpt><trkpt lat="46.0607667" lon="13.5435667"><ele>608.0</ele><time>2026-05-03T11:00:29.214Z</time></trkpt><trkpt lat="46.0607183" lon="13.54344"><ele>608.0</ele><time>2026-05-03T11:00:30.214Z</time></trkpt><trkpt lat="46.060665" lon="13.5433117"><ele>608.0</ele><time>2026-05-03T11:00:31.214Z</time></trkpt><trkpt lat="46.0606117" lon="13.543185"><ele>608.0</ele><time>2026-05-03T11:00:32.214Z</time></trkpt><trkpt lat="46.0605533" lon="13.5430533"><ele>608.0</ele><time>2026-05-03T11:00:33.214Z</time></trkpt><trkpt lat="46.0605" lon="13.5429333"><ele>608.0</ele><time>2026-05-03T11:00:34.214Z</time></trkpt><trkpt lat="46.06044" lon="13.5428117"><ele>604.8</ele><time>2026-05-03T11:00:35.214Z</time></trkpt><trkpt lat="46.0603883" lon="13.5426917"><ele>601.5999999999999</ele><time>2026-05-03T11:00:36.215Z</time></trkpt><trkpt lat="46.0603283" lon="13.54258"><ele>598.4000000000001</ele><time>2026-05-03T11:00:37.214Z</time></trkpt><trkpt lat="46.0602733" lon="13.5424767"><ele>595.2</ele><time>2026-05-03T11:00:38.214Z</time></trkpt><trkpt lat="46.0602167" lon="13.5423667"><ele>592.0</ele><time>2026-05-03T11:00:39.214Z</time></trkpt><trkpt lat="46.06015" lon="13.5422533"><ele>592.0</ele><time>2026-05-03T11:00:40.214Z</time></trkpt><trkpt lat="46.06008" lon="13.5421483"><ele>592.0</ele><time>2026-05-03T11:00:41.214Z</time></trkpt><trkpt lat="46.06" lon="13.542055"><ele>592.0</ele><time>2026-05-03T11:00:42.214Z</time></trkpt><trkpt lat="46.059925" lon="13.5419733"><ele>592.0</ele><time>2026-05-03T11:00:43.214Z</time></trkpt><trkpt lat="46.0598683" lon="13.5418833"><ele>592.0</ele><time>2026-05-03T11:00:44.214Z</time></trkpt><trkpt lat="46.0598367" lon="13.5417717"><ele>590.8000000000001</ele><time>2026-05-03T11:00:45.214Z</time></trkpt><trkpt lat="46.0597833" lon="13.54165"><ele>589.6</ele><time>2026-05-03T11:00:46.214Z</time></trkpt><trkpt lat="46.05972" lon="13.5415333"><ele>588.4000000000001</ele><time>2026-05-03T11:00:47.214Z</time></trkpt><trkpt lat="46.059655" lon="13.54141"><ele>587.2</ele><time>2026-05-03T11:00:48.214Z</time></trkpt><trkpt lat="46.0595967" lon="13.5412967"><ele>586.0</ele><time>2026-05-03T11:00:49.214Z</time></trkpt><trkpt lat="46.0595367" lon="13.5411783"><ele>582.6</ele><time>2026-05-03T11:00:50.214Z</time></trkpt><trkpt lat="46.05947" lon="13.5410483"><ele>579.2</ele><time>2026-05-03T11:00:51.214Z</time></trkpt><trkpt lat="46.0594133" lon="13.5409167"><ele>575.8</ele><time>2026-05-03T11:00:52.214Z</time></trkpt><trkpt lat="46.0593533" lon="13.540795"><ele>572.4</ele><time>2026-05-03T11:00:53.214Z</time></trkpt><trkpt lat="46.059305" lon="13.5406917"><ele>569.0</ele><time>2026-05-03T11:00:54.214Z</time></trkpt><trkpt lat="46.0592383" lon="13.5405783"><ele>569.0</ele><time>2026-05-03T11:00:55.214Z</time></trkpt><trkpt lat="46.059175" lon="13.5404633"><ele>569.0</ele><time>2026-05-03T11:00:56.214Z</time></trkpt><trkpt lat="46.0591067" lon="13.54035"><ele>569.0</ele><time>2026-05-03T11:00:57.214Z</time></trkpt><trkpt lat="46.0590417" lon="13.5402433"><ele>569.0</ele><time>2026-05-03T11:00:58.214Z</time></trkpt><trkpt lat="46.0589783" lon="13.5401333"><ele>569.0</ele><time>2026-05-03T11:00:59.214Z</time></trkpt><trkpt lat="46.0589183" lon="13.5400217"><ele>566.0</ele><time>2026-05-03T11:01:00.214Z</time></trkpt><trkpt lat="46.058865" lon="13.5399283"><ele>563.0</ele><time>2026-05-03T11:01:01.214Z</time></trkpt><trkpt lat="46.0588117" lon="13.5398467"><ele>560.0</ele><time>2026-05-03T11:01:02.214Z</time></trkpt><trkpt lat="46.0587233" lon="13.5397633"><ele>557.0</ele><time>2026-05-03T11:01:03.214Z</time></trkpt><trkpt lat="46.05862" lon="13.5397067"><ele>554.0</ele><time>2026-05-03T11:01:04.214Z</time></trkpt><trkpt lat="46.0585117" lon="13.5396817"><ele>554.0</ele><time>2026-05-03T11:01:05.214Z</time></trkpt><trkpt lat="46.0583983" lon="13.53968"><ele>554.0</ele><time>2026-05-03T11:01:06.214Z</time></trkpt><trkpt lat="46.0582867" lon="13.5396783"><ele>554.0</ele><time>2026-05-03T11:01:07.214Z</time></trkpt><trkpt lat="46.058175" lon="13.53969"><ele>554.0</ele><time>2026-05-03T11:01:08.214Z</time></trkpt><trkpt lat="46.0580683" lon="13.5397183"><ele>554.0</ele><time>2026-05-03T11:01:09.214Z</time></trkpt><trkpt lat="46.0579633" lon="13.539755"><ele>551.1666666666666</ele><time>2026-05-03T11:01:10.214Z</time></trkpt><trkpt lat="46.05788" lon="13.5398233"><ele>548.3333333333333</ele><time>2026-05-03T11:01:11.214Z</time></trkpt><trkpt lat="46.0578083" lon="13.5398917"><ele>545.5</ele><time>2026-05-03T11:01:12.214Z</time></trkpt><trkpt lat="46.05775" lon="13.53996"><ele>542.6666666666666</ele><time>2026-05-03T11:01:13.214Z</time></trkpt><trkpt lat="46.05769" lon="13.5400333"><ele>539.8333333333334</ele><time>2026-05-03T11:01:14.214Z</time></trkpt><trkpt lat="46.057635" lon="13.540115"><ele>537.0</ele><time>2026-05-03T11:01:15.214Z</time></trkpt><trkpt lat="46.057575" lon="13.5402133"><ele>537.0</ele><time>2026-05-03T11:01:16.214Z</time></trkpt><trkpt lat="46.0575183" lon="13.5403233"><ele>537.0</ele><time>2026-05-03T11:01:17.214Z</time></trkpt><trkpt lat="46.0574733" lon="13.54045"><ele>537.0</ele><time>2026-05-03T11:01:18.214Z</time></trkpt><trkpt lat="46.057435" lon="13.54056"><ele>537.0</ele><time>2026-05-03T11:01:19.214Z</time></trkpt><trkpt lat="46.0573817" lon="13.5406733"><ele>537.0</ele><time>2026-05-03T11:01:20.214Z</time></trkpt><trkpt lat="46.0573233" lon="13.5407733"><ele>535.6</ele><time>2026-05-03T11:01:21.214Z</time></trkpt><trkpt lat="46.0572483" lon="13.5408667"><ele>534.2</ele><time>2026-05-03T11:01:22.214Z</time></trkpt><trkpt lat="46.0571583" lon="13.5409567"><ele>532.8</ele><time>2026-05-03T11:01:23.214Z</time></trkpt><trkpt lat="46.0570683" lon="13.541045"><ele>531.4</ele><time>2026-05-03T11:01:24.214Z</time></trkpt><trkpt lat="46.056975" lon="13.541155"><ele>530.0</ele><time>2026-05-03T11:01:25.214Z</time></trkpt><trkpt lat="46.0568967" lon="13.5412733"><ele>530.0</ele><time>2026-05-03T11:01:26.214Z</time></trkpt><trkpt lat="46.05682" lon="13.5413717"><ele>530.0</ele><time>2026-05-03T11:01:27.214Z</time></trkpt><trkpt lat="46.05675" lon="13.5414683"><ele>530.0</ele><time>2026-05-03T11:01:28.214Z</time></trkpt><trkpt lat="46.0566867" lon="13.541565"><ele>530.0</ele><time>2026-05-03T11:01:29.214Z</time></trkpt><trkpt lat="46.05663" lon="13.54167"><ele>530.0</ele><time>2026-05-03T11:01:30.214Z</time></trkpt><trkpt lat="46.0565933" lon="13.541755"><ele>524.4</ele><time>2026-05-03T11:01:31.214Z</time></trkpt><trkpt lat="46.0565567" lon="13.54183"><ele>518.8</ele><time>2026-05-03T11:01:32.214Z</time></trkpt><trkpt lat="46.05649" lon="13.5418967"><ele>513.2</ele><time>2026-05-03T11:01:34.214Z</time></trkpt><trkpt lat="46.05642" lon="13.5418117"><ele>507.6</ele><time>2026-05-03T11:01:37.214Z</time></trkpt><trkpt lat="46.0564317" lon="13.54163"><ele>502.0</ele><time>2026-05-03T11:01:39.214Z</time></trkpt><trkpt lat="46.0564617" lon="13.5414967"><ele>502.0</ele><time>2026-05-03T11:01:40.214Z</time></trkpt><trkpt lat="46.0564983" lon="13.541345"><ele>502.00000000000006</ele><time>2026-05-03T11:01:41.214Z</time></trkpt><trkpt lat="46.056545" lon="13.5411933"><ele>502.00000000000006</ele><time>2026-05-03T11:01:42.214Z</time></trkpt><trkpt lat="46.056605" lon="13.5410517"><ele>502.0</ele><time>2026-05-03T11:01:43.214Z</time></trkpt><trkpt lat="46.0566533" lon="13.5409317"><ele>502.0</ele><time>2026-05-03T11:01:44.214Z</time></trkpt><trkpt lat="46.0566783" lon="13.540815"><ele>500.50000000000006</ele><time>2026-05-03T11:01:45.214Z</time></trkpt><trkpt lat="46.0566867" lon="13.5407017"><ele>499.0</ele><time>2026-05-03T11:01:46.214Z</time></trkpt><trkpt lat="46.0566717" lon="13.5406017"><ele>497.5</ele><time>2026-05-03T11:01:47.214Z</time></trkpt><trkpt lat="46.0566433" lon="13.5404933"><ele>496.0</ele><time>2026-05-03T11:01:48.214Z</time></trkpt><trkpt lat="46.0566033" lon="13.5403817"><ele>494.50000000000006</ele><time>2026-05-03T11:01:49.214Z</time></trkpt><trkpt lat="46.0565567" lon="13.5402633"><ele>493.0</ele><time>2026-05-03T11:01:50.214Z</time></trkpt><trkpt lat="46.056495" lon="13.5401317"><ele>493.0</ele><time>2026-05-03T11:01:51.214Z</time></trkpt><trkpt lat="46.0564217" lon="13.539995"><ele>493.0</ele><time>2026-05-03T11:01:52.214Z</time></trkpt><trkpt lat="46.0563417" lon="13.5398617"><ele>493.0</ele><time>2026-05-03T11:01:53.214Z</time></trkpt><trkpt lat="46.0562683" lon="13.5397283"><ele>493.0</ele><time>2026-05-03T11:01:54.214Z</time></trkpt><trkpt lat="46.056195" lon="13.5395933"><ele>493.75</ele><time>2026-05-03T11:01:55.214Z</time></trkpt><trkpt lat="46.0561283" lon="13.5394433"><ele>494.5</ele><time>2026-05-03T11:01:56.215Z</time></trkpt><trkpt lat="46.05608" lon="13.5393017"><ele>495.25</ele><time>2026-05-03T11:01:57.214Z</time></trkpt><trkpt lat="46.056055" lon="13.5391483"><ele>496.0</ele><time>2026-05-03T11:01:58.214Z</time></trkpt><trkpt lat="46.05603" lon="13.5389833"><ele>496.0</ele><time>2026-05-03T11:01:59.214Z</time></trkpt><trkpt lat="46.0560133" lon="13.5388167"><ele>496.0</ele><time>2026-05-03T11:02:00.214Z</time></trkpt><trkpt lat="46.0560117" lon="13.5386433"><ele>496.0</ele><time>2026-05-03T11:02:01.214Z</time></trkpt><trkpt lat="46.0560217" lon="13.5384683"><ele>496.0</ele><time>2026-05-03T11:02:02.214Z</time></trkpt><trkpt lat="46.0560483" lon="13.5382883"><ele>495.75</ele><time>2026-05-03T11:02:03.215Z</time></trkpt><trkpt lat="46.0560783" lon="13.5381117"><ele>495.5</ele><time>2026-05-03T11:02:04.214Z</time></trkpt><trkpt lat="46.05612" lon="13.5379433"><ele>495.25</ele><time>2026-05-03T11:02:05.214Z</time></trkpt><trkpt lat="46.0561567" lon="13.537795"><ele>495.0</ele><time>2026-05-03T11:02:06.214Z</time></trkpt><trkpt lat="46.0561933" lon="13.5376717"><ele>494.5</ele><time>2026-05-03T11:02:07.214Z</time></trkpt><trkpt lat="46.0562183" lon="13.5375633"><ele>494.0</ele><time>2026-05-03T11:02:08.214Z</time></trkpt><trkpt lat="46.0562433" lon="13.5374733"><ele>493.5</ele><time>2026-05-03T11:02:09.214Z</time></trkpt><trkpt lat="46.056265" lon="13.5373667"><ele>493.0</ele><time>2026-05-03T11:02:11.214Z</time></trkpt><trkpt lat="46.0563017" lon="13.5371567"><ele>492.5</ele><time>2026-05-03T11:04:13.213Z</time></trkpt><trkpt lat="46.0562433" lon="13.537115"><ele>492.0</ele><time>2026-05-03T11:05:40.214Z</time></trkpt><trkpt lat="46.0561817" lon="13.5370633"><ele>490.7142857142858</ele><time>2026-05-03T11:05:48.213Z</time></trkpt><trkpt lat="46.0561233" lon="13.5370283"><ele>489.42857142857144</ele><time>2026-05-03T11:05:56.213Z</time></trkpt><trkpt lat="46.056065" lon="13.536975"><ele>488.14285714285717</ele><time>2026-05-03T11:06:02.213Z</time></trkpt><trkpt lat="46.0560017" lon="13.5369633"><ele>486.8571428571429</ele><time>2026-05-03T11:06:06.213Z</time></trkpt><trkpt lat="46.0559383" lon="13.5369767"><ele>485.57142857142856</ele><time>2026-05-03T11:06:12.213Z</time></trkpt><trkpt lat="46.0558704" lon="13.5370017"><ele>484.2857142857143</ele><time>2026-05-03T11:06:20.275Z</time></trkpt><trkpt lat="46.0559303" lon="13.5369721"><ele>483.0</ele><time>2026-05-03T11:09:34.334Z</time></trkpt><trkpt lat="46.0558423" lon="13.5370022"><ele>483.0</ele><time>2026-05-03T11:12:15.388Z</time></trkpt><trkpt lat="46.0557781" lon="13.5369963"><ele>483.0</ele><time>2026-05-03T11:12:20.332Z</time></trkpt><trkpt lat="46.0558349" lon="13.5369337"><ele>483.0</ele><time>2026-05-03T11:28:46.366Z</time></trkpt><trkpt lat="46.0559" lon="13.536966"><ele>483.0</ele><time>2026-05-03T11:29:52.304Z</time></trkpt><trkpt lat="46.0559703" lon="13.5369522"><ele>483.0</ele><time>2026-05-03T11:29:57.397Z</time></trkpt><trkpt lat="46.0560327" lon="13.5370059"><ele>483.0</ele><time>2026-05-03T11:30:02.342Z</time></trkpt><trkpt lat="46.0560974" lon="13.5370203"><ele>483.0</ele><time>2026-05-03T11:30:40.293Z</time></trkpt><trkpt lat="46.0561605" lon="13.5370569"><ele>483.0</ele><time>2026-05-03T11:30:44.379Z</time></trkpt><trkpt lat="46.0562036" lon="13.5371231"><ele>483.0</ele><time>2026-05-03T11:30:50.284Z</time></trkpt><trkpt lat="46.0562739" lon="13.5371324"><ele>483.0</ele><time>2026-05-03T11:30:56.339Z</time></trkpt><trkpt lat="46.056329" lon="13.5371764"><ele>483.0</ele><time>2026-05-03T11:33:44.273Z</time></trkpt><trkpt lat="46.0564449" lon="13.5370433"><ele>483.0</ele><time>2026-05-03T11:33:46.209Z</time></trkpt><trkpt lat="46.0565045" lon="13.5369719"><ele>483.0</ele><time>2026-05-03T11:33:47.209Z</time></trkpt><trkpt lat="46.0565864" lon="13.5368918"><ele>484.2</ele><time>2026-05-03T11:33:49.209Z</time></trkpt><trkpt lat="46.056649" lon="13.5368505"><ele>485.4</ele><time>2026-05-03T11:33:51.209Z</time></trkpt><trkpt lat="46.0567162" lon="13.5368247"><ele>486.59999999999997</ele><time>2026-05-03T11:33:54.209Z</time></trkpt><trkpt lat="46.0567826" lon="13.5368086"><ele>487.79999999999995</ele><time>2026-05-03T11:33:57.303Z</time></trkpt><trkpt lat="46.0568431" lon="13.5367784"><ele>489.0</ele><time>2026-05-03T11:33:58.351Z</time></trkpt><trkpt lat="46.0569811" lon="13.5365059"><ele>489.0</ele><time>2026-05-03T11:34:01.209Z</time></trkpt><trkpt lat="46.0570343" lon="13.5363812"><ele>489.0</ele><time>2026-05-03T11:34:02.209Z</time></trkpt><trkpt lat="46.0570852" lon="13.5362613"><ele>489.0</ele><time>2026-05-03T11:34:03.209Z</time></trkpt><trkpt lat="46.0571343" lon="13.5361337"><ele>489.0</ele><time>2026-05-03T11:34:04.209Z</time></trkpt><trkpt lat="46.0572017" lon="13.5360042"><ele>489.0</ele><time>2026-05-03T11:34:05.209Z</time></trkpt><trkpt lat="46.0572882" lon="13.5358839"><ele>487.75</ele><time>2026-05-03T11:34:06.209Z</time></trkpt><trkpt lat="46.057386" lon="13.5357914"><ele>486.5</ele><time>2026-05-03T11:34:07.209Z</time></trkpt><trkpt lat="46.0575001" lon="13.5357249"><ele>485.25</ele><time>2026-05-03T11:34:08.209Z</time></trkpt><trkpt lat="46.0576001" lon="13.5356708"><ele>484.0</ele><time>2026-05-03T11:34:09.209Z</time></trkpt><trkpt lat="46.0577035" lon="13.5356376"><ele>484.0</ele><time>2026-05-03T11:34:10.209Z</time></trkpt><trkpt lat="46.0578221" lon="13.5356153"><ele>484.0</ele><time>2026-05-03T11:34:11.209Z</time></trkpt><trkpt lat="46.057938" lon="13.5356137"><ele>484.0</ele><time>2026-05-03T11:34:12.209Z</time></trkpt><trkpt lat="46.0580493" lon="13.5356178"><ele>484.0</ele><time>2026-05-03T11:34:13.209Z</time></trkpt><trkpt lat="46.0581482" lon="13.5356207"><ele>484.0</ele><time>2026-05-03T11:34:14.209Z</time></trkpt><trkpt lat="46.0582323" lon="13.5356198"><ele>483.00000000000006</ele><time>2026-05-03T11:34:15.209Z</time></trkpt><trkpt lat="46.0583077" lon="13.5356161"><ele>482.0</ele><time>2026-05-03T11:34:16.209Z</time></trkpt><trkpt lat="46.0583998" lon="13.5355721"><ele>481.0</ele><time>2026-05-03T11:34:18.209Z</time></trkpt><trkpt lat="46.0584433" lon="13.5354667"><ele>480.0</ele><time>2026-05-03T11:34:20.209Z</time></trkpt><trkpt lat="46.05839" lon="13.53535"><ele>479.00000000000006</ele><time>2026-05-03T11:34:22.209Z</time></trkpt><trkpt lat="46.05832" lon="13.5353133"><ele>478.0</ele><time>2026-05-03T11:34:23.209Z</time></trkpt><trkpt lat="46.0582367" lon="13.5352667"><ele>475.0</ele><time>2026-05-03T11:34:24.209Z</time></trkpt><trkpt lat="46.0581333" lon="13.5351983"><ele>472.0</ele><time>2026-05-03T11:34:25.209Z</time></trkpt><trkpt lat="46.0580233" lon="13.5351167"><ele>469.0</ele><time>2026-05-03T11:34:26.209Z</time></trkpt><trkpt lat="46.0579133" lon="13.5350217"><ele>466.0</ele><time>2026-05-03T11:34:27.209Z</time></trkpt><trkpt lat="46.0578083" lon="13.5349233"><ele>466.0</ele><time>2026-05-03T11:34:28.209Z</time></trkpt><trkpt lat="46.0577067" lon="13.534835"><ele>466.0</ele><time>2026-05-03T11:34:29.209Z</time></trkpt><trkpt lat="46.0576067" lon="13.5347717"><ele>466.0</ele><time>2026-05-03T11:34:30.209Z</time></trkpt><trkpt lat="46.0575033" lon="13.53473"><ele>466.0</ele><time>2026-05-03T11:34:31.209Z</time></trkpt><trkpt lat="46.0573917" lon="13.53471"><ele>466.0</ele><time>2026-05-03T11:34:32.209Z</time></trkpt><trkpt lat="46.05728" lon="13.5347067"><ele>465.4</ele><time>2026-05-03T11:34:33.209Z</time></trkpt><trkpt lat="46.0571817" lon="13.53471"><ele>464.8</ele><time>2026-05-03T11:34:34.209Z</time></trkpt><trkpt lat="46.0570733" lon="13.5347167"><ele>464.19999999999993</ele><time>2026-05-03T11:34:35.209Z</time></trkpt><trkpt lat="46.056965" lon="13.5347117"><ele>463.59999999999997</ele><time>2026-05-03T11:34:36.209Z</time></trkpt><trkpt lat="46.0568733" lon="13.5346967"><ele>463.0</ele><time>2026-05-03T11:34:37.209Z</time></trkpt><trkpt lat="46.0567717" lon="13.53469"><ele>463.0</ele><time>2026-05-03T11:34:38.209Z</time></trkpt><trkpt lat="46.0566567" lon="13.5346717"><ele>462.99999999999994</ele><time>2026-05-03T11:34:39.209Z</time></trkpt><trkpt lat="46.0565433" lon="13.5346383"><ele>462.99999999999994</ele><time>2026-05-03T11:34:40.209Z</time></trkpt><trkpt lat="46.0564367" lon="13.5346017"><ele>463.0</ele><time>2026-05-03T11:34:41.209Z</time></trkpt><trkpt lat="46.0563317" lon="13.5345717"><ele>463.0</ele><time>2026-05-03T11:34:42.209Z</time></trkpt><trkpt lat="46.0562417" lon="13.53452"><ele>459.4</ele><time>2026-05-03T11:34:43.209Z</time></trkpt><trkpt lat="46.0561667" lon="13.5344517"><ele>455.79999999999995</ele><time>2026-05-03T11:34:44.209Z</time></trkpt><trkpt lat="46.0560833" lon="13.5343667"><ele>452.2</ele><time>2026-05-03T11:34:45.209Z</time></trkpt><trkpt lat="46.0560067" lon="13.5342567"><ele>448.6</ele><time>2026-05-03T11:34:46.209Z</time></trkpt><trkpt lat="46.05594" lon="13.5341367"><ele>445.0</ele><time>2026-05-03T11:34:47.209Z</time></trkpt><trkpt lat="46.0558533" lon="13.5340117"><ele>446.0</ele><time>2026-05-03T11:34:48.209Z</time></trkpt><trkpt lat="46.0557567" lon="13.53389"><ele>447.0</ele><time>2026-05-03T11:34:49.209Z</time></trkpt><trkpt lat="46.0556533" lon="13.5337833"><ele>448.0</ele><time>2026-05-03T11:34:50.209Z</time></trkpt><trkpt lat="46.0555367" lon="13.5336883"><ele>449.0</ele><time>2026-05-03T11:34:51.209Z</time></trkpt><trkpt lat="46.055435" lon="13.5336"><ele>445.0</ele><time>2026-05-03T11:34:52.209Z</time></trkpt><trkpt lat="46.0553317" lon="13.53349"><ele>441.0</ele><time>2026-05-03T11:34:53.209Z</time></trkpt><trkpt lat="46.055245" lon="13.5333733"><ele>437.0</ele><time>2026-05-03T11:34:54.209Z</time></trkpt><trkpt lat="46.055155" lon="13.5332783"><ele>433.0</ele><time>2026-05-03T11:34:55.209Z</time></trkpt><trkpt lat="46.0550467" lon="13.5331867"><ele>434.5</ele><time>2026-05-03T11:34:56.209Z</time></trkpt><trkpt lat="46.0549383" lon="13.53311"><ele>436.0</ele><time>2026-05-03T11:34:57.209Z</time></trkpt><trkpt lat="46.0548167" lon="13.5330167"><ele>437.5</ele><time>2026-05-03T11:34:58.209Z</time></trkpt><trkpt lat="46.05469" lon="13.53293"><ele>439.0</ele><time>2026-05-03T11:34:59.209Z</time></trkpt><trkpt lat="46.0545867" lon="13.5328383"><ele>434.0</ele><time>2026-05-03T11:35:00.209Z</time></trkpt><trkpt lat="46.0544767" lon="13.5327433"><ele>429.0</ele><time>2026-05-03T11:35:01.209Z</time></trkpt><trkpt lat="46.0543717" lon="13.5326517"><ele>424.0</ele><time>2026-05-03T11:35:02.209Z</time></trkpt><trkpt lat="46.0542583" lon="13.5325667"><ele>419.0</ele><time>2026-05-03T11:35:03.209Z</time></trkpt><trkpt lat="46.05414" lon="13.5325233"><ele>418.6</ele><time>2026-05-03T11:35:04.209Z</time></trkpt><trkpt lat="46.0540217" lon="13.53251"><ele>418.2</ele><time>2026-05-03T11:35:05.209Z</time></trkpt><trkpt lat="46.0539233" lon="13.5325017"><ele>417.8</ele><time>2026-05-03T11:35:06.209Z</time></trkpt><trkpt lat="46.05383" lon="13.53251"><ele>417.40000000000003</ele><time>2026-05-03T11:35:07.209Z</time></trkpt><trkpt lat="46.05375" lon="13.5325133"><ele>417.0</ele><time>2026-05-03T11:35:08.209Z</time></trkpt><trkpt lat="46.053685" lon="13.5325017"><ele>417.0</ele><time>2026-05-03T11:35:09.209Z</time></trkpt><trkpt lat="46.05366" lon="13.5323983"><ele>417.0</ele><time>2026-05-03T11:35:11.209Z</time></trkpt><trkpt lat="46.05376" lon="13.532345"><ele>417.0</ele><time>2026-05-03T11:35:14.209Z</time></trkpt><trkpt lat="46.05383" lon="13.532355"><ele>417.0</ele><time>2026-05-03T11:35:15.209Z</time></trkpt><trkpt lat="46.05392" lon="13.53235"><ele>417.0</ele><time>2026-05-03T11:35:16.209Z</time></trkpt><trkpt lat="46.0540183" lon="13.5323233"><ele>417.0</ele><time>2026-05-03T11:35:17.209Z</time></trkpt><trkpt lat="46.05412" lon="13.5322517"><ele>417.5</ele><time>2026-05-03T11:35:18.209Z</time></trkpt><trkpt lat="46.054225" lon="13.5321533"><ele>418.0</ele><time>2026-05-03T11:35:19.209Z</time></trkpt><trkpt lat="46.05434" lon="13.532055"><ele>418.5</ele><time>2026-05-03T11:35:20.209Z</time></trkpt><trkpt lat="46.0544633" lon="13.5319983"><ele>419.0</ele><time>2026-05-03T11:35:21.209Z</time></trkpt><trkpt lat="46.0545917" lon="13.5319883"><ele>419.0</ele><time>2026-05-03T11:35:22.209Z</time></trkpt><trkpt lat="46.0547117" lon="13.53203"><ele>419.0</ele><time>2026-05-03T11:35:23.209Z</time></trkpt><trkpt lat="46.0548083" lon="13.5321033"><ele>419.0</ele><time>2026-05-03T11:35:24.209Z</time></trkpt><trkpt lat="46.0549167" lon="13.53219"><ele>419.0</ele><time>2026-05-03T11:35:25.209Z</time></trkpt><trkpt lat="46.0550317" lon="13.532285"><ele>417.5</ele><time>2026-05-03T11:35:26.209Z</time></trkpt><trkpt lat="46.0551433" lon="13.5323267"><ele>416.0</ele><time>2026-05-03T11:35:27.21Z</time></trkpt><trkpt lat="46.0552733" lon="13.5323517"><ele>414.5</ele><time>2026-05-03T11:35:28.209Z</time></trkpt><trkpt lat="46.0554117" lon="13.5323317"><ele>413.0</ele><time>2026-05-03T11:35:29.209Z</time></trkpt><trkpt lat="46.0555467" lon="13.5322767"><ele>413.0</ele><time>2026-05-03T11:35:30.209Z</time></trkpt><trkpt lat="46.0556833" lon="13.53217"><ele>413.0</ele><time>2026-05-03T11:35:31.209Z</time></trkpt><trkpt lat="46.0558033" lon="13.5320683"><ele>413.0</ele><time>2026-05-03T11:35:32.209Z</time></trkpt><trkpt lat="46.0559183" lon="13.5319767"><ele>413.0</ele><time>2026-05-03T11:35:33.209Z</time></trkpt><trkpt lat="46.0560183" lon="13.5319067"><ele>409.0</ele><time>2026-05-03T11:35:34.209Z</time></trkpt><trkpt lat="46.0561" lon="13.531845"><ele>405.0</ele><time>2026-05-03T11:35:35.209Z</time></trkpt><trkpt lat="46.0561517" lon="13.53176"><ele>401.0</ele><time>2026-05-03T11:35:36.209Z</time></trkpt><trkpt lat="46.0561617" lon="13.5316617"><ele>397.0</ele><time>2026-05-03T11:35:37.209Z</time></trkpt><trkpt lat="46.056125" lon="13.5315783"><ele>393.0</ele><time>2026-05-03T11:35:38.209Z</time></trkpt><trkpt lat="46.05607" lon="13.5315317"><ele>389.0</ele><time>2026-05-03T11:35:39.209Z</time></trkpt><trkpt lat="46.0559983" lon="13.5315467"><ele>385.0</ele><time>2026-05-03T11:35:40.209Z</time></trkpt><trkpt lat="46.0559133" lon="13.5316067"><ele>385.0</ele><time>2026-05-03T11:35:41.209Z</time></trkpt><trkpt lat="46.055805" lon="13.5316583"><ele>385.0</ele><time>2026-05-03T11:35:42.209Z</time></trkpt><trkpt lat="46.0557017" lon="13.5317067"><ele>385.0</ele><time>2026-05-03T11:35:43.209Z</time></trkpt><trkpt lat="46.0555983" lon="13.53177"><ele>385.0</ele><time>2026-05-03T11:35:44.209Z</time></trkpt><trkpt lat="46.0555033" lon="13.53185"><ele>385.0</ele><time>2026-05-03T11:35:45.209Z</time></trkpt><trkpt lat="46.0554117" lon="13.5319117"><ele>385.8</ele><time>2026-05-03T11:35:46.209Z</time></trkpt><trkpt lat="46.0553267" lon="13.531925"><ele>386.6</ele><time>2026-05-03T11:35:47.209Z</time></trkpt><trkpt lat="46.0552367" lon="13.5319067"><ele>387.4</ele><time>2026-05-03T11:35:48.209Z</time></trkpt><trkpt lat="46.0551583" lon="13.5318383"><ele>388.2</ele><time>2026-05-03T11:35:49.209Z</time></trkpt><trkpt lat="46.0550717" lon="13.5317167"><ele>389.0</ele><time>2026-05-03T11:35:50.209Z</time></trkpt><trkpt lat="46.0549817" lon="13.5315967"><ele>389.75</ele><time>2026-05-03T11:35:51.209Z</time></trkpt><trkpt lat="46.054875" lon="13.5314883"><ele>390.5</ele><time>2026-05-03T11:35:52.209Z</time></trkpt><trkpt lat="46.054765" lon="13.5314067"><ele>391.25</ele><time>2026-05-03T11:35:53.209Z</time></trkpt><trkpt lat="46.054655" lon="13.5313483"><ele>392.0</ele><time>2026-05-03T11:35:54.209Z</time></trkpt><trkpt lat="46.0545367" lon="13.531325"><ele>392.0</ele><time>2026-05-03T11:35:55.209Z</time></trkpt><trkpt lat="46.0544167" lon="13.53133"><ele>392.0</ele><time>2026-05-03T11:35:56.209Z</time></trkpt><trkpt lat="46.0542883" lon="13.5313533"><ele>392.0</ele><time>2026-05-03T11:35:57.209Z</time></trkpt><trkpt lat="46.054155" lon="13.531375"><ele>392.0</ele><time>2026-05-03T11:35:58.209Z</time></trkpt><trkpt lat="46.0540417" lon="13.531385"><ele>391.0</ele><time>2026-05-03T11:35:59.21Z</time></trkpt><trkpt lat="46.0539117" lon="13.5313617"><ele>390.0</ele><time>2026-05-03T11:36:00.209Z</time></trkpt><trkpt lat="46.05379" lon="13.5312967"><ele>389.0</ele><time>2026-05-03T11:36:01.209Z</time></trkpt><trkpt lat="46.05369" lon="13.53124"><ele>388.0</ele><time>2026-05-03T11:36:02.209Z</time></trkpt><trkpt lat="46.0535833" lon="13.531225"><ele>388.0</ele><time>2026-05-03T11:36:03.209Z</time></trkpt><trkpt lat="46.0534717" lon="13.5312533"><ele>388.0</ele><time>2026-05-03T11:36:04.209Z</time></trkpt><trkpt lat="46.0533667" lon="13.5312633"><ele>388.0</ele><time>2026-05-03T11:36:05.209Z</time></trkpt><trkpt lat="46.05327" lon="13.5312417"><ele>388.0</ele><time>2026-05-03T11:36:06.209Z</time></trkpt><trkpt lat="46.0531967" lon="13.5311733"><ele>388.0</ele><time>2026-05-03T11:36:07.209Z</time></trkpt><trkpt lat="46.0531717" lon="13.5310633"><ele>392.25</ele><time>2026-05-03T11:36:08.209Z</time></trkpt><trkpt lat="46.0531817" lon="13.530915"><ele>396.5</ele><time>2026-05-03T11:36:09.209Z</time></trkpt><trkpt lat="46.0532217" lon="13.5307417"><ele>400.75</ele><time>2026-05-03T11:36:10.209Z</time></trkpt><trkpt lat="46.0532983" lon="13.5305333"><ele>405.0</ele><time>2026-05-03T11:36:11.209Z</time></trkpt><trkpt lat="46.0533767" lon="13.5303117"><ele>394.75</ele><time>2026-05-03T11:36:12.209Z</time></trkpt><trkpt lat="46.0534333" lon="13.5301067"><ele>384.5</ele><time>2026-05-03T11:36:13.209Z</time></trkpt><trkpt lat="46.0534683" lon="13.5299017"><ele>374.25</ele><time>2026-05-03T11:36:14.209Z</time></trkpt><trkpt lat="46.0535033" lon="13.529735"><ele>364.0</ele><time>2026-05-03T11:36:15.209Z</time></trkpt><trkpt lat="46.0535767" lon="13.52958"><ele>364.5</ele><time>2026-05-03T11:36:16.208Z</time></trkpt><trkpt lat="46.0536467" lon="13.5294467"><ele>365.0</ele><time>2026-05-03T11:36:17.208Z</time></trkpt><trkpt lat="46.0537383" lon="13.5293067"><ele>365.5</ele><time>2026-05-03T11:36:18.208Z</time></trkpt><trkpt lat="46.0538233" lon="13.5291633"><ele>366.0</ele><time>2026-05-03T11:36:19.208Z</time></trkpt><trkpt lat="46.0538817" lon="13.5290217"><ele>366.0</ele><time>2026-05-03T11:36:20.208Z</time></trkpt><trkpt lat="46.0539233" lon="13.5288533"><ele>366.0</ele><time>2026-05-03T11:36:21.209Z</time></trkpt><trkpt lat="46.053925" lon="13.5286917"><ele>366.0</ele><time>2026-05-03T11:36:22.208Z</time></trkpt><trkpt lat="46.053885" lon="13.5285283"><ele>366.0</ele><time>2026-05-03T11:36:23.208Z</time></trkpt><trkpt lat="46.053825" lon="13.5283883"><ele>365.0</ele><time>2026-05-03T11:36:24.208Z</time></trkpt><trkpt lat="46.0537483" lon="13.5282817"><ele>364.0</ele><time>2026-05-03T11:36:25.208Z</time></trkpt><trkpt lat="46.0536967" lon="13.5281667"><ele>363.0</ele><time>2026-05-03T11:36:26.208Z</time></trkpt><trkpt lat="46.05368" lon="13.528045"><ele>362.0</ele><time>2026-05-03T11:36:27.208Z</time></trkpt><trkpt lat="46.05371" lon="13.5279067"><ele>361.0</ele><time>2026-05-03T11:36:28.208Z</time></trkpt><trkpt lat="46.05377" lon="13.5277333"><ele>361.0</ele><time>2026-05-03T11:36:29.208Z</time></trkpt><trkpt lat="46.05383" lon="13.5275417"><ele>361.0</ele><time>2026-05-03T11:36:30.208Z</time></trkpt><trkpt lat="46.05387" lon="13.5273367"><ele>361.0</ele><time>2026-05-03T11:36:31.208Z</time></trkpt><trkpt lat="46.0538933" lon="13.5271183"><ele>361.0</ele><time>2026-05-03T11:36:32.208Z</time></trkpt><trkpt lat="46.0539067" lon="13.5268617"><ele>359.66666666666663</ele><time>2026-05-03T11:36:33.209Z</time></trkpt><trkpt lat="46.0539167" lon="13.5265867"><ele>358.3333333333333</ele><time>2026-05-03T11:36:34.208Z</time></trkpt><trkpt lat="46.0539117" lon="13.5263"><ele>357.0</ele><time>2026-05-03T11:36:35.208Z</time></trkpt><trkpt lat="46.0539017" lon="13.526015"><ele>356.3333333333333</ele><time>2026-05-03T11:36:36.208Z</time></trkpt><trkpt lat="46.0538833" lon="13.5257333"><ele>355.66666666666663</ele><time>2026-05-03T11:36:37.208Z</time></trkpt><trkpt lat="46.0538567" lon="13.5254783"><ele>355.0</ele><time>2026-05-03T11:36:38.208Z</time></trkpt><trkpt lat="46.053855" lon="13.5252567"><ele>353.75</ele><time>2026-05-03T11:36:39.208Z</time></trkpt><trkpt lat="46.05387" lon="13.52508"><ele>352.5</ele><time>2026-05-03T11:36:40.208Z</time></trkpt><trkpt lat="46.0539017" lon="13.524915"><ele>351.25</ele><time>2026-05-03T11:36:41.208Z</time></trkpt><trkpt lat="46.053965" lon="13.5247933"><ele>350.0</ele><time>2026-05-03T11:36:42.208Z</time></trkpt><trkpt lat="46.05406" lon="13.5246983"><ele>340.75</ele><time>2026-05-03T11:36:43.208Z</time></trkpt><trkpt lat="46.0541583" lon="13.5245833"><ele>331.5</ele><time>2026-05-03T11:36:44.208Z</time></trkpt><trkpt lat="46.0542383" lon="13.5244467"><ele>322.25</ele><time>2026-05-03T11:36:45.208Z</time></trkpt><trkpt lat="46.05429" lon="13.52425"><ele>313.0</ele><time>2026-05-03T11:36:46.208Z</time></trkpt><trkpt lat="46.054325" lon="13.5240333"><ele>313.0</ele><time>2026-05-03T11:36:47.208Z</time></trkpt><trkpt lat="46.0543467" lon="13.52383"><ele>313.0</ele><time>2026-05-03T11:36:48.208Z</time></trkpt><trkpt lat="46.05437" lon="13.523635"><ele>313.0</ele><time>2026-05-03T11:36:49.208Z</time></trkpt><trkpt lat="46.0544" lon="13.5234483"><ele>313.0</ele><time>2026-05-03T11:36:50.208Z</time></trkpt><trkpt lat="46.0544483" lon="13.5232633"><ele>312.5</ele><time>2026-05-03T11:36:51.209Z</time></trkpt><trkpt lat="46.0545017" lon="13.523065"><ele>312.0</ele><time>2026-05-03T11:36:52.208Z</time></trkpt><trkpt lat="46.0545433" lon="13.5228833"><ele>311.5</ele><time>2026-05-03T11:36:53.208Z</time></trkpt><trkpt lat="46.0545633" lon="13.5226983"><ele>311.0</ele><time>2026-05-03T11:36:54.208Z</time></trkpt><trkpt lat="46.0545967" lon="13.5224967"><ele>310.0</ele><time>2026-05-03T11:36:55.208Z</time></trkpt><trkpt lat="46.05461" lon="13.522305"><ele>309.0</ele><time>2026-05-03T11:36:56.208Z</time></trkpt><trkpt lat="46.054615" lon="13.52213"><ele>308.0</ele><time>2026-05-03T11:36:57.208Z</time></trkpt><trkpt lat="46.0545967" lon="13.52196"><ele>307.0</ele><time>2026-05-03T11:36:58.208Z</time></trkpt><trkpt lat="46.0545817" lon="13.521805"><ele>306.2</ele><time>2026-05-03T11:36:59.208Z</time></trkpt><trkpt lat="46.0545633" lon="13.52166"><ele>305.4</ele><time>2026-05-03T11:37:00.208Z</time></trkpt><trkpt lat="46.0545483" lon="13.5215283"><ele>304.6</ele><time>2026-05-03T11:37:01.208Z</time></trkpt><trkpt lat="46.0545317" lon="13.5213967"><ele>303.8</ele><time>2026-05-03T11:37:02.208Z</time></trkpt><trkpt lat="46.0545183" lon="13.5212717"><ele>303.0</ele><time>2026-05-03T11:37:03.208Z</time></trkpt><trkpt lat="46.0544967" lon="13.5211517"><ele>300.4</ele><time>2026-05-03T11:37:04.208Z</time></trkpt><trkpt lat="46.0544667" lon="13.52103"><ele>297.8</ele><time>2026-05-03T11:37:05.208Z</time></trkpt><trkpt lat="46.0544117" lon="13.5209217"><ele>295.2</ele><time>2026-05-03T11:37:06.208Z</time></trkpt><trkpt lat="46.0543483" lon="13.520815"><ele>292.6</ele><time>2026-05-03T11:37:07.208Z</time></trkpt><trkpt lat="46.05427" lon="13.520725"><ele>290.0</ele><time>2026-05-03T11:37:08.209Z</time></trkpt><trkpt lat="46.0541683" lon="13.5206483"><ele>291.2</ele><time>2026-05-03T11:37:09.208Z</time></trkpt><trkpt lat="46.0540517" lon="13.520595"><ele>292.4</ele><time>2026-05-03T11:37:10.208Z</time></trkpt><trkpt lat="46.053955" lon="13.5205367"><ele>293.6</ele><time>2026-05-03T11:37:11.208Z</time></trkpt><trkpt lat="46.0539083" lon="13.52046"><ele>294.8</ele><time>2026-05-03T11:37:12.208Z</time></trkpt><trkpt lat="46.05394" lon="13.520335"><ele>296.0</ele><time>2026-05-03T11:37:14.208Z</time></trkpt><trkpt lat="46.05404" lon="13.5203183"><ele>292.75</ele><time>2026-05-03T11:37:15.208Z</time></trkpt><trkpt lat="46.0541717" lon="13.5203067"><ele>289.5</ele><time>2026-05-03T11:37:16.208Z</time></trkpt><trkpt lat="46.0543267" lon="13.5202867"><ele>286.25</ele><time>2026-05-03T11:37:17.208Z</time></trkpt><trkpt lat="46.0544783" lon="13.5202583"><ele>283.0</ele><time>2026-05-03T11:37:18.208Z</time></trkpt><trkpt lat="46.0546167" lon="13.52021"><ele>283.0</ele><time>2026-05-03T11:37:19.208Z</time></trkpt><trkpt lat="46.0547333" lon="13.52012"><ele>283.0</ele><time>2026-05-03T11:37:20.208Z</time></trkpt><trkpt lat="46.0548217" lon="13.5199733"><ele>283.0</ele><time>2026-05-03T11:37:21.208Z</time></trkpt><trkpt lat="46.0548817" lon="13.5197667"><ele>283.0</ele><time>2026-05-03T11:37:22.208Z</time></trkpt><trkpt lat="46.0549383" lon="13.51954"><ele>279.66666666666663</ele><time>2026-05-03T11:37:23.208Z</time></trkpt><trkpt lat="46.055005" lon="13.5193017"><ele>276.3333333333333</ele><time>2026-05-03T11:37:24.208Z</time></trkpt><trkpt lat="46.0550867" lon="13.5190967"><ele>273.0</ele><time>2026-05-03T11:37:25.208Z</time></trkpt><trkpt lat="46.0551633" lon="13.5188783"><ele>276.3333333333333</ele><time>2026-05-03T11:37:26.208Z</time></trkpt><trkpt lat="46.0552433" lon="13.5186433"><ele>279.66666666666663</ele><time>2026-05-03T11:37:27.208Z</time></trkpt><trkpt lat="46.0553217" lon="13.5183817"><ele>283.0</ele><time>2026-05-03T11:37:28.208Z</time></trkpt><trkpt lat="46.0553967" lon="13.5181083"><ele>287.0</ele><time>2026-05-03T11:37:29.208Z</time></trkpt><trkpt lat="46.0554767" lon="13.5178683"><ele>291.0</ele><time>2026-05-03T11:37:30.208Z</time></trkpt><trkpt lat="46.0555567" lon="13.51763"><ele>295.0</ele><time>2026-05-03T11:37:31.208Z</time></trkpt><trkpt lat="46.0556433" lon="13.517405"><ele>295.0</ele><time>2026-05-03T11:37:32.208Z</time></trkpt><trkpt lat="46.05573" lon="13.5171817"><ele>295.0</ele><time>2026-05-03T11:37:33.209Z</time></trkpt><trkpt lat="46.0558317" lon="13.5169583"><ele>295.0</ele><time>2026-05-03T11:37:34.208Z</time></trkpt><trkpt lat="46.0559517" lon="13.5167433"><ele>290.3333333333333</ele><time>2026-05-03T11:37:35.208Z</time></trkpt><trkpt lat="46.05607" lon="13.5165233"><ele>285.6666666666667</ele><time>2026-05-03T11:37:36.208Z</time></trkpt><trkpt lat="46.0561883" lon="13.5163033"><ele>281.0</ele><time>2026-05-03T11:37:37.208Z</time></trkpt><trkpt lat="46.0562833" lon="13.5160933"><ele>281.0</ele><time>2026-05-03T11:37:38.208Z</time></trkpt><trkpt lat="46.05638" lon="13.51589"><ele>281.0</ele><time>2026-05-03T11:37:39.208Z</time></trkpt><trkpt lat="46.0564733" lon="13.5156783"><ele>281.0</ele><time>2026-05-03T11:37:40.208Z</time></trkpt><trkpt lat="46.0565583" lon="13.51547"><ele>277.33333333333337</ele><time>2026-05-03T11:37:41.208Z</time></trkpt><trkpt lat="46.0566317" lon="13.51526"><ele>273.6666666666667</ele><time>2026-05-03T11:37:42.208Z</time></trkpt><trkpt lat="46.0566917" lon="13.5150517"><ele>270.0</ele><time>2026-05-03T11:37:43.208Z</time></trkpt><trkpt lat="46.0567467" lon="13.51487"><ele>270.0</ele><time>2026-05-03T11:37:44.208Z</time></trkpt><trkpt lat="46.0568033" lon="13.5147"><ele>270.0</ele><time>2026-05-03T11:37:45.208Z</time></trkpt><trkpt lat="46.0568683" lon="13.5145467"><ele>270.0</ele><time>2026-05-03T11:37:46.208Z</time></trkpt><trkpt lat="46.0569283" lon="13.5143717"><ele>270.0</ele><time>2026-05-03T11:37:47.208Z</time></trkpt><trkpt lat="46.0569783" lon="13.51417"><ele>268.3333333333333</ele><time>2026-05-03T11:37:48.208Z</time></trkpt><trkpt lat="46.0570333" lon="13.513955"><ele>266.66666666666663</ele><time>2026-05-03T11:37:49.208Z</time></trkpt><trkpt lat="46.0571083" lon="13.5137567"><ele>265.0</ele><time>2026-05-03T11:37:50.208Z</time></trkpt><trkpt lat="46.0572133" lon="13.51358"><ele>263.0</ele><time>2026-05-03T11:37:51.208Z</time></trkpt><trkpt lat="46.0573183" lon="13.5134033"><ele>261.0</ele><time>2026-05-03T11:37:52.208Z</time></trkpt><trkpt lat="46.0574133" lon="13.5132217"><ele>259.0</ele><time>2026-05-03T11:37:53.208Z</time></trkpt><trkpt lat="46.0575083" lon="13.5130517"><ele>256.5</ele><time>2026-05-03T11:37:54.208Z</time></trkpt><trkpt lat="46.0576" lon="13.5128783"><ele>254.0</ele><time>2026-05-03T11:37:55.208Z</time></trkpt><trkpt lat="46.0576733" lon="13.5127183"><ele>251.5</ele><time>2026-05-03T11:37:56.208Z</time></trkpt><trkpt lat="46.0577483" lon="13.5125583"><ele>249.0</ele><time>2026-05-03T11:37:57.208Z</time></trkpt><trkpt lat="46.0578333" lon="13.5124183"><ele>249.0</ele><time>2026-05-03T11:37:58.208Z</time></trkpt><trkpt lat="46.05792" lon="13.5123"><ele>249.0</ele><time>2026-05-03T11:37:59.208Z</time></trkpt><trkpt lat="46.0580033" lon="13.5121867"><ele>249.0</ele><time>2026-05-03T11:38:00.208Z</time></trkpt><trkpt lat="46.0581017" lon="13.512065"><ele>249.0</ele><time>2026-05-03T11:38:01.208Z</time></trkpt><trkpt lat="46.0582067" lon="13.5119383"><ele>249.5</ele><time>2026-05-03T11:38:02.208Z</time></trkpt><trkpt lat="46.0582983" lon="13.511815"><ele>250.0</ele><time>2026-05-03T11:38:03.208Z</time></trkpt><trkpt lat="46.0583783" lon="13.5116867"><ele>250.5</ele><time>2026-05-03T11:38:04.208Z</time></trkpt><trkpt lat="46.0584383" lon="13.511535"><ele>251.0</ele><time>2026-05-03T11:38:05.208Z</time></trkpt><trkpt lat="46.058465" lon="13.5113683"><ele>248.75</ele><time>2026-05-03T11:38:06.208Z</time></trkpt><trkpt lat="46.0584733" lon="13.5112"><ele>246.5</ele><time>2026-05-03T11:38:07.208Z</time></trkpt><trkpt lat="46.0584367" lon="13.5110233"><ele>244.25</ele><time>2026-05-03T11:38:08.209Z</time></trkpt><trkpt lat="46.05838" lon="13.510835"><ele>242.0</ele><time>2026-05-03T11:38:09.208Z</time></trkpt><trkpt lat="46.0583267" lon="13.5106617"><ele>238.0</ele><time>2026-05-03T11:38:10.208Z</time></trkpt><trkpt lat="46.0582633" lon="13.5105033"><ele>234.0</ele><time>2026-05-03T11:38:11.208Z</time></trkpt><trkpt lat="46.0582" lon="13.5103383"><ele>230.0</ele><time>2026-05-03T11:38:12.208Z</time></trkpt><trkpt lat="46.0581417" lon="13.5101867"><ele>226.0</ele><time>2026-05-03T11:38:13.208Z</time></trkpt><trkpt lat="46.0580967" lon="13.5100317"><ele>224.25</ele><time>2026-05-03T11:38:14.208Z</time></trkpt><trkpt lat="46.0580617" lon="13.5098733"><ele>222.5</ele><time>2026-05-03T11:38:15.208Z</time></trkpt><trkpt lat="46.0580283" lon="13.509715"><ele>220.75</ele><time>2026-05-03T11:38:16.208Z</time></trkpt><trkpt lat="46.0580117" lon="13.5095633"><ele>219.0</ele><time>2026-05-03T11:38:17.208Z</time></trkpt><trkpt lat="46.0580083" lon="13.5093983"><ele>218.66666666666666</ele><time>2026-05-03T11:38:18.208Z</time></trkpt><trkpt lat="46.05801" lon="13.5092533"><ele>218.33333333333331</ele><time>2026-05-03T11:38:19.208Z</time></trkpt><trkpt lat="46.0580117" lon="13.5091333"><ele>218.0</ele><time>2026-05-03T11:38:20.208Z</time></trkpt><trkpt lat="46.0580217" lon="13.50903"><ele>217.66666666666666</ele><time>2026-05-03T11:38:21.208Z</time></trkpt><trkpt lat="46.0579567" lon="13.50895"><ele>217.33333333333331</ele><time>2026-05-03T11:38:23.208Z</time></trkpt><trkpt lat="46.05787" lon="13.50904"><ele>217.0</ele><time>2026-05-03T11:38:25.208Z</time></trkpt><trkpt lat="46.0578517" lon="13.50917"><ele>217.0</ele><time>2026-05-03T11:38:26.208Z</time></trkpt><trkpt lat="46.05782" lon="13.5093167"><ele>217.0</ele><time>2026-05-03T11:38:27.208Z</time></trkpt><trkpt lat="46.0577783" lon="13.5094917"><ele>217.0</ele><time>2026-05-03T11:38:28.208Z</time></trkpt><trkpt lat="46.05774" lon="13.5096717"><ele>217.0</ele><time>2026-05-03T11:38:29.208Z</time></trkpt><trkpt lat="46.0577083" lon="13.5098317"><ele>217.5</ele><time>2026-05-03T11:38:30.208Z</time></trkpt><trkpt lat="46.0576983" lon="13.50997"><ele>218.0</ele><time>2026-05-03T11:38:31.208Z</time></trkpt><trkpt lat="46.05768" lon="13.5100633"><ele>218.5</ele><time>2026-05-03T11:38:32.208Z</time></trkpt><trkpt lat="46.057615" lon="13.510105"><ele>219.0</ele><time>2026-05-03T11:38:34.208Z</time></trkpt><trkpt lat="46.057545" lon="13.5098017"><ele>218.33333333333331</ele><time>2026-05-03T11:38:36.208Z</time></trkpt><trkpt lat="46.05751" lon="13.5095683"><ele>217.66666666666666</ele><time>2026-05-03T11:38:37.208Z</time></trkpt><trkpt lat="46.05746" lon="13.5093317"><ele>217.0</ele><time>2026-05-03T11:38:38.208Z</time></trkpt><trkpt lat="46.057375" lon="13.509095"><ele>211.66666666666666</ele><time>2026-05-03T11:38:39.208Z</time></trkpt><trkpt lat="46.057295" lon="13.50885"><ele>206.33333333333331</ele><time>2026-05-03T11:38:40.208Z</time></trkpt><trkpt lat="46.0572183" lon="13.508615"><ele>201.0</ele><time>2026-05-03T11:38:41.208Z</time></trkpt><trkpt lat="46.057135" lon="13.5083983"><ele>198.33333333333331</ele><time>2026-05-03T11:38:42.207Z</time></trkpt><trkpt lat="46.0570833" lon="13.5081767"><ele>195.66666666666666</ele><time>2026-05-03T11:38:43.208Z</time></trkpt><trkpt lat="46.0570583" lon="13.5079367"><ele>193.0</ele><time>2026-05-03T11:38:44.208Z</time></trkpt><trkpt lat="46.057035" lon="13.507675"><ele>191.0</ele><time>2026-05-03T11:38:45.208Z</time></trkpt><trkpt lat="46.0569967" lon="13.507425"><ele>189.0</ele><time>2026-05-03T11:38:46.208Z</time></trkpt><trkpt lat="46.0569517" lon="13.50719"><ele>187.0</ele><time>2026-05-03T11:38:47.208Z</time></trkpt><trkpt lat="46.0569417" lon="13.5069667"><ele>185.0</ele><time>2026-05-03T11:38:48.208Z</time></trkpt><trkpt lat="46.0569517" lon="13.5067383"><ele>183.0</ele><time>2026-05-03T11:38:49.208Z</time></trkpt><trkpt lat="46.0569817" lon="13.5064983"><ele>181.0</ele><time>2026-05-03T11:38:50.208Z</time></trkpt><trkpt lat="46.0570283" lon="13.5062283"><ele>177.0</ele><time>2026-05-03T11:38:51.208Z</time></trkpt><trkpt lat="46.05709" lon="13.5059517"><ele>173.0</ele><time>2026-05-03T11:38:52.208Z</time></trkpt><trkpt lat="46.05718" lon="13.505655"><ele>169.0</ele><time>2026-05-03T11:38:53.208Z</time></trkpt><trkpt lat="46.0572533" lon="13.5053783"><ele>174.0</ele><time>2026-05-03T11:38:54.208Z</time></trkpt><trkpt lat="46.0573183" lon="13.5051117"><ele>179.0</ele><time>2026-05-03T11:38:55.208Z</time></trkpt><trkpt lat="46.05739" lon="13.50485"><ele>184.0</ele><time>2026-05-03T11:38:56.208Z</time></trkpt><trkpt lat="46.0574617" lon="13.5045917"><ele>179.33333333333334</ele><time>2026-05-03T11:38:57.208Z</time></trkpt><trkpt lat="46.05751" lon="13.5043283"><ele>174.66666666666666</ele><time>2026-05-03T11:38:58.208Z</time></trkpt><trkpt lat="46.0575433" lon="13.5040567"><ele>170.0</ele><time>2026-05-03T11:38:59.208Z</time></trkpt><trkpt lat="46.0575717" lon="13.5037733"><ele>166.66666666666666</ele><time>2026-05-03T11:39:00.208Z</time></trkpt><trkpt lat="46.0576067" lon="13.5034817"><ele>163.33333333333334</ele><time>2026-05-03T11:39:01.208Z</time></trkpt><trkpt lat="46.0576383" lon="13.503195"><ele>160.0</ele><time>2026-05-03T11:39:02.208Z</time></trkpt><trkpt lat="46.0576667" lon="13.5029117"><ele>157.0</ele><time>2026-05-03T11:39:03.208Z</time></trkpt><trkpt lat="46.0576933" lon="13.5026283"><ele>154.0</ele><time>2026-05-03T11:39:04.208Z</time></trkpt><trkpt lat="46.057705" lon="13.5023633"><ele>151.0</ele><time>2026-05-03T11:39:05.208Z</time></trkpt><trkpt lat="46.0577133" lon="13.5021117"><ele>151.66666666666669</ele><time>2026-05-03T11:39:06.208Z</time></trkpt><trkpt lat="46.0576883" lon="13.50186"><ele>152.33333333333334</ele><time>2026-05-03T11:39:07.208Z</time></trkpt><trkpt lat="46.05762" lon="13.50164"><ele>153.0</ele><time>2026-05-03T11:39:08.209Z</time></trkpt><trkpt lat="46.05753" lon="13.5014467"><ele>146.66666666666666</ele><time>2026-05-03T11:39:09.208Z</time></trkpt><trkpt lat="46.0574117" lon="13.501275"><ele>140.33333333333331</ele><time>2026-05-03T11:39:10.208Z</time></trkpt><trkpt lat="46.0572833" lon="13.501115"><ele>134.0</ele><time>2026-05-03T11:39:11.208Z</time></trkpt><trkpt lat="46.0571333" lon="13.5009483"><ele>134.0</ele><time>2026-05-03T11:39:12.208Z</time></trkpt><trkpt lat="46.0569983" lon="13.500775"><ele>134.0</ele><time>2026-05-03T11:39:13.208Z</time></trkpt><trkpt lat="46.0568717" lon="13.5005883"><ele>134.0</ele><time>2026-05-03T11:39:14.208Z</time></trkpt><trkpt lat="46.0567567" lon="13.50041"><ele>136.0</ele><time>2026-05-03T11:39:15.208Z</time></trkpt><trkpt lat="46.05666" lon="13.50023"><ele>138.0</ele><time>2026-05-03T11:39:16.208Z</time></trkpt><trkpt lat="46.0565983" lon="13.5000483"><ele>140.0</ele><time>2026-05-03T11:39:17.208Z</time></trkpt><trkpt lat="46.0565483" lon="13.499875"><ele>142.0</ele><time>2026-05-03T11:39:18.208Z</time></trkpt><trkpt lat="46.056525" lon="13.4997567"><ele>142.0</ele><time>2026-05-03T11:39:19.208Z</time></trkpt><trkpt lat="46.0564983" lon="13.4996667"><ele>142.0</ele><time>2026-05-03T11:39:20.208Z</time></trkpt><trkpt lat="46.0564083" lon="13.49969"><ele>142.0</ele><time>2026-05-03T11:39:22.208Z</time></trkpt><trkpt lat="46.0564017" lon="13.4997967"><ele>142.0</ele><time>2026-05-03T11:39:23.208Z</time></trkpt><trkpt lat="46.056435" lon="13.4999317"><ele>142.0</ele><time>2026-05-03T11:39:24.209Z</time></trkpt><trkpt lat="46.0564817" lon="13.50009"><ele>142.0</ele><time>2026-05-03T11:39:25.208Z</time></trkpt><trkpt lat="46.0565217" lon="13.5002333"><ele>142.0</ele><time>2026-05-03T11:39:26.208Z</time></trkpt><trkpt lat="46.056535" lon="13.5003533"><ele>142.0</ele><time>2026-05-03T11:39:27.208Z</time></trkpt><trkpt lat="46.056445" lon="13.5004283"><ele>142.0</ele><time>2026-05-03T11:39:29.208Z</time></trkpt><trkpt lat="46.0563817" lon="13.500355"><ele>142.0</ele><time>2026-05-03T11:39:30.208Z</time></trkpt><trkpt lat="46.056325" lon="13.50022"><ele>142.0</ele><time>2026-05-03T11:39:31.208Z</time></trkpt><trkpt lat="46.0562733" lon="13.5000283"><ele>142.0</ele><time>2026-05-03T11:39:32.208Z</time></trkpt><trkpt lat="46.0562217" lon="13.4998017"><ele>142.0</ele><time>2026-05-03T11:39:33.208Z</time></trkpt><trkpt lat="46.0561767" lon="13.49956"><ele>138.66666666666669</ele><time>2026-05-03T11:39:34.208Z</time></trkpt><trkpt lat="46.0561333" lon="13.4993183"><ele>135.33333333333334</ele><time>2026-05-03T11:39:35.208Z</time></trkpt><trkpt lat="46.0560867" lon="13.4990867"><ele>132.0</ele><time>2026-05-03T11:39:36.208Z</time></trkpt><trkpt lat="46.0560417" lon="13.498855"><ele>128.75</ele><time>2026-05-03T11:39:37.208Z</time></trkpt><trkpt lat="46.0559867" lon="13.4986433"><ele>125.5</ele><time>2026-05-03T11:39:38.208Z</time></trkpt><trkpt lat="46.0559317" lon="13.4984417"><ele>122.25</ele><time>2026-05-03T11:39:39.208Z</time></trkpt><trkpt lat="46.055875" lon="13.4982733"><ele>119.0</ele><time>2026-05-03T11:39:40.208Z</time></trkpt><trkpt lat="46.0558183" lon="13.4981183"><ele>118.0</ele><time>2026-05-03T11:39:41.208Z</time></trkpt><trkpt lat="46.0557783" lon="13.4979867"><ele>117.0</ele><time>2026-05-03T11:39:42.208Z</time></trkpt><trkpt lat="46.0557417" lon="13.4979067"><ele>116.0</ele><time>2026-05-03T11:39:43.208Z</time></trkpt><trkpt lat="46.055695" lon="13.4978183"><ele>115.0</ele><time>2026-05-03T11:39:46.208Z</time></trkpt><trkpt lat="46.05564" lon="13.4977733"><ele>114.0</ele><time>2026-05-03T11:39:49.208Z</time></trkpt><trkpt lat="46.0555833" lon="13.4977133"><ele>113.0</ele><time>2026-05-03T11:39:52.208Z</time></trkpt><trkpt lat="46.0556233" lon="13.4977967"><ele>112.0</ele><time>2026-05-03T11:39:58.208Z</time></trkpt><trkpt lat="46.0557617" lon="13.4978183"><ele>111.0</ele><time>2026-05-03T11:40:00.208Z</time></trkpt><trkpt lat="46.0558467" lon="13.4978167"><ele>109.99999999999999</ele><time>2026-05-03T11:40:01.208Z</time></trkpt><trkpt lat="46.0559383" lon="13.4977933"><ele>108.99999999999999</ele><time>2026-05-03T11:40:02.208Z</time></trkpt><trkpt lat="46.0560283" lon="13.4977583"><ele>108.0</ele><time>2026-05-03T11:40:03.208Z</time></trkpt><trkpt lat="46.05612" lon="13.4977117"><ele>107.0</ele><time>2026-05-03T11:40:04.208Z</time></trkpt><trkpt lat="46.0562217" lon="13.4976617"><ele>107.0</ele><time>2026-05-03T11:40:05.208Z</time></trkpt><trkpt lat="46.05633" lon="13.497615"><ele>107.0</ele><time>2026-05-03T11:40:06.208Z</time></trkpt><trkpt lat="46.05645" lon="13.4975817"><ele>107.0</ele><time>2026-05-03T11:40:07.208Z</time></trkpt><trkpt lat="46.0565767" lon="13.4975417"><ele>107.0</ele><time>2026-05-03T11:40:08.208Z</time></trkpt><trkpt lat="46.056715" lon="13.4975167"><ele>108.5</ele><time>2026-05-03T11:40:09.208Z</time></trkpt><trkpt lat="46.0568567" lon="13.4975133"><ele>110.0</ele><time>2026-05-03T11:40:10.208Z</time></trkpt><trkpt lat="46.0569983" lon="13.49752"><ele>111.5</ele><time>2026-05-03T11:40:11.208Z</time></trkpt><trkpt lat="46.0571283" lon="13.49753"><ele>113.0</ele><time>2026-05-03T11:40:12.208Z</time></trkpt><trkpt lat="46.0572517" lon="13.497585"><ele>113.0</ele><time>2026-05-03T11:40:13.208Z</time></trkpt><trkpt lat="46.057365" lon="13.4976683"><ele>113.0</ele><time>2026-05-03T11:40:14.208Z</time></trkpt><trkpt lat="46.057495" lon="13.49777"><ele>113.0</ele><time>2026-05-03T11:40:15.208Z</time></trkpt><trkpt lat="46.0576317" lon="13.497855"><ele>113.0</ele><time>2026-05-03T11:40:16.208Z</time></trkpt><trkpt lat="46.057775" lon="13.49792"><ele>122.66666666666666</ele><time>2026-05-03T11:40:17.208Z</time></trkpt><trkpt lat="46.0579267" lon="13.4979817"><ele>132.33333333333334</ele><time>2026-05-03T11:40:18.208Z</time></trkpt><trkpt lat="46.058075" lon="13.498035"><ele>142.0</ele><time>2026-05-03T11:40:19.208Z</time></trkpt><trkpt lat="46.0582183" lon="13.498115"><ele>137.25</ele><time>2026-05-03T11:40:20.208Z</time></trkpt><trkpt lat="46.0583483" lon="13.49818"><ele>132.5</ele><time>2026-05-03T11:40:21.208Z</time></trkpt><trkpt lat="46.0584683" lon="13.498255"><ele>127.75</ele><time>2026-05-03T11:40:22.208Z</time></trkpt><trkpt lat="46.0585583" lon="13.498345"><ele>123.0</ele><time>2026-05-03T11:40:23.208Z</time></trkpt><trkpt lat="46.0586267" lon="13.4984517"><ele>123.0</ele><time>2026-05-03T11:40:24.208Z</time></trkpt><trkpt lat="46.0586983" lon="13.4985733"><ele>123.0</ele><time>2026-05-03T11:40:25.208Z</time></trkpt><trkpt lat="46.0587667" lon="13.49873"><ele>123.0</ele><time>2026-05-03T11:40:26.208Z</time></trkpt><trkpt lat="46.0588283" lon="13.4988933"><ele>123.0</ele><time>2026-05-03T11:40:27.208Z</time></trkpt><trkpt lat="46.0588967" lon="13.499065"><ele>132.5</ele><time>2026-05-03T11:40:28.208Z</time></trkpt><trkpt lat="46.0589417" lon="13.499255"><ele>142.0</ele><time>2026-05-03T11:40:29.208Z</time></trkpt><trkpt lat="46.0589833" lon="13.499455"><ele>151.5</ele><time>2026-05-03T11:40:30.208Z</time></trkpt><trkpt lat="46.0590217" lon="13.4996567"><ele>161.0</ele><time>2026-05-03T11:40:31.208Z</time></trkpt><trkpt lat="46.0590533" lon="13.499885"><ele>167.66666666666666</ele><time>2026-05-03T11:40:32.208Z</time></trkpt><trkpt lat="46.0590933" lon="13.5001183"><ele>174.33333333333334</ele><time>2026-05-03T11:40:33.208Z</time></trkpt><trkpt lat="46.05913" lon="13.50035"><ele>181.0</ele><time>2026-05-03T11:40:34.208Z</time></trkpt><trkpt lat="46.0591583" lon="13.5005733"><ele>166.0</ele><time>2026-05-03T11:40:35.208Z</time></trkpt><trkpt lat="46.0592083" lon="13.50079"><ele>151.0</ele><time>2026-05-03T11:40:36.208Z</time></trkpt><trkpt lat="46.0592783" lon="13.5009967"><ele>136.0</ele><time>2026-05-03T11:40:37.208Z</time></trkpt><trkpt lat="46.0593633" lon="13.501195"><ele>144.0</ele><time>2026-05-03T11:40:38.208Z</time></trkpt><trkpt lat="46.059465" lon="13.501385"><ele>152.0</ele><time>2026-05-03T11:40:39.208Z</time></trkpt><trkpt lat="46.059585" lon="13.50155"><ele>160.0</ele><time>2026-05-03T11:40:40.208Z</time></trkpt><trkpt lat="46.0597283" lon="13.5017083"><ele>160.0</ele><time>2026-05-03T11:40:41.208Z</time></trkpt><trkpt lat="46.05989" lon="13.5018333"><ele>160.0</ele><time>2026-05-03T11:40:42.208Z</time></trkpt><trkpt lat="46.0600683" lon="13.5019383"><ele>160.0</ele><time>2026-05-03T11:40:43.208Z</time></trkpt><trkpt lat="46.0602567" lon="13.5020517"><ele>153.66666666666669</ele><time>2026-05-03T11:40:44.208Z</time></trkpt><trkpt lat="46.0604467" lon="13.5021833"><ele>147.33333333333334</ele><time>2026-05-03T11:40:45.208Z</time></trkpt><trkpt lat="46.0606367" lon="13.5023133"><ele>141.0</ele><time>2026-05-03T11:40:46.208Z</time></trkpt><trkpt lat="46.060815" lon="13.502425"><ele>133.66666666666666</ele><time>2026-05-03T11:40:47.209Z</time></trkpt><trkpt lat="46.0609633" lon="13.50253"><ele>126.33333333333333</ele><time>2026-05-03T11:40:48.209Z</time></trkpt><trkpt lat="46.06109" lon="13.5026383"><ele>119.0</ele><time>2026-05-03T11:40:49.208Z</time></trkpt><trkpt lat="46.0612167" lon="13.502765"><ele>119.0</ele><time>2026-05-03T11:40:50.208Z</time></trkpt><trkpt lat="46.0613317" lon="13.5028883"><ele>119.0</ele><time>2026-05-03T11:40:51.208Z</time></trkpt><trkpt lat="46.0614367" lon="13.5030083"><ele>119.0</ele><time>2026-05-03T11:40:52.208Z</time></trkpt><trkpt lat="46.06153" lon="13.50314"><ele>119.0</ele><time>2026-05-03T11:40:53.208Z</time></trkpt><trkpt lat="46.0616017" lon="13.5032817"><ele>119.0</ele><time>2026-05-03T11:40:54.208Z</time></trkpt><trkpt lat="46.0616667" lon="13.503435"><ele>119.0</ele><time>2026-05-03T11:40:55.208Z</time></trkpt><trkpt lat="46.0617167" lon="13.5036067"><ele>119.0</ele><time>2026-05-03T11:40:56.208Z</time></trkpt><trkpt lat="46.0617417" lon="13.50379"><ele>119.0</ele><time>2026-05-03T11:40:57.208Z</time></trkpt><trkpt lat="46.0617633" lon="13.5039633"><ele>119.0</ele><time>2026-05-03T11:40:58.208Z</time></trkpt><trkpt lat="46.061765" lon="13.504135"><ele>119.0</ele><time>2026-05-03T11:40:59.208Z</time></trkpt><trkpt lat="46.0617583" lon="13.5042983"><ele>119.0</ele><time>2026-05-03T11:41:00.208Z</time></trkpt><trkpt lat="46.0617183" lon="13.50447"><ele>119.0</ele><time>2026-05-03T11:41:01.208Z</time></trkpt><trkpt lat="46.06167" lon="13.5046383"><ele>129.75</ele><time>2026-05-03T11:41:02.208Z</time></trkpt><trkpt lat="46.0615883" lon="13.504805"><ele>140.5</ele><time>2026-05-03T11:41:03.208Z</time></trkpt><trkpt lat="46.061505" lon="13.5049633"><ele>151.25</ele><time>2026-05-03T11:41:04.208Z</time></trkpt><trkpt lat="46.0613983" lon="13.50512"><ele>162.0</ele><time>2026-05-03T11:41:05.208Z</time></trkpt><trkpt lat="46.061295" lon="13.5052917"><ele>156.6</ele><time>2026-05-03T11:41:06.208Z</time></trkpt><trkpt lat="46.061195" lon="13.505445"><ele>151.2</ele><time>2026-05-03T11:41:07.209Z</time></trkpt><trkpt lat="46.061115" lon="13.5055633"><ele>145.8</ele><time>2026-05-03T11:41:08.209Z</time></trkpt><trkpt lat="46.06104" lon="13.505655"><ele>140.4</ele><time>2026-05-03T11:41:09.208Z</time></trkpt><trkpt lat="46.0609733" lon="13.5057233"><ele>135.0</ele><time>2026-05-03T11:41:10.208Z</time></trkpt><trkpt lat="46.0609133" lon="13.5057767"><ele>135.0</ele><time>2026-05-03T11:41:11.208Z</time></trkpt><trkpt lat="46.0608467" lon="13.5058133"><ele>135.0</ele><time>2026-05-03T11:41:12.208Z</time></trkpt><trkpt lat="46.0607433" lon="13.5058883"><ele>135.0</ele><time>2026-05-03T11:41:14.208Z</time></trkpt><trkpt lat="46.0606617" lon="13.505995"><ele>135.0</ele><time>2026-05-03T11:41:16.208Z</time></trkpt><trkpt lat="46.06059" lon="13.5060767"><ele>135.0</ele><time>2026-05-03T11:41:18.208Z</time></trkpt><trkpt lat="46.0606333" lon="13.506"><ele>135.0</ele><time>2026-05-03T11:41:49.207Z</time></trkpt><trkpt lat="46.060735" lon="13.50588"><ele>135.0</ele><time>2026-05-03T11:41:51.207Z</time></trkpt><trkpt lat="46.0608117" lon="13.505805"><ele>135.0</ele><time>2026-05-03T11:41:52.207Z</time></trkpt><trkpt lat="46.0608983" lon="13.505725"><ele>135.0</ele><time>2026-05-03T11:41:53.207Z</time></trkpt><trkpt lat="46.0609917" lon="13.5056567"><ele>135.0</ele><time>2026-05-03T11:41:54.207Z</time></trkpt><trkpt lat="46.0610767" lon="13.5056017"><ele>135.0</ele><time>2026-05-03T11:41:55.208Z</time></trkpt><trkpt lat="46.06116" lon="13.5055183"><ele>135.0</ele><time>2026-05-03T11:41:56.207Z</time></trkpt><trkpt lat="46.06124" lon="13.5054267"><ele>135.0</ele><time>2026-05-03T11:41:57.207Z</time></trkpt><trkpt lat="46.0613183" lon="13.5053267"><ele>135.0</ele><time>2026-05-03T11:41:58.207Z</time></trkpt><trkpt lat="46.0614033" lon="13.5051817"><ele>135.0</ele><time>2026-05-03T11:41:59.207Z</time></trkpt><trkpt lat="46.0615117" lon="13.5050033"><ele>133.0</ele><time>2026-05-03T11:42:00.207Z</time></trkpt><trkpt lat="46.061605" lon="13.5048483"><ele>131.0</ele><time>2026-05-03T11:42:01.207Z</time></trkpt><trkpt lat="46.0616667" lon="13.50468"><ele>129.0</ele><time>2026-05-03T11:42:02.207Z</time></trkpt><trkpt lat="46.0617233" lon="13.5045117"><ele>127.0</ele><time>2026-05-03T11:42:03.207Z</time></trkpt><trkpt lat="46.0617667" lon="13.5043333"><ele>127.0</ele><time>2026-05-03T11:42:04.207Z</time></trkpt><trkpt lat="46.0617867" lon="13.50416"><ele>127.0</ele><time>2026-05-03T11:42:05.207Z</time></trkpt><trkpt lat="46.0617817" lon="13.503975"><ele>127.0</ele><time>2026-05-03T11:42:06.207Z</time></trkpt><trkpt lat="46.0617533" lon="13.503775"><ele>127.0</ele><time>2026-05-03T11:42:07.208Z</time></trkpt><trkpt lat="46.0617117" lon="13.5035917"><ele>125.0</ele><time>2026-05-03T11:42:08.207Z</time></trkpt><trkpt lat="46.0616617" lon="13.5034017"><ele>123.0</ele><time>2026-05-03T11:42:09.207Z</time></trkpt><trkpt lat="46.061585" lon="13.5032283"><ele>121.0</ele><time>2026-05-03T11:42:10.207Z</time></trkpt><trkpt lat="46.06148" lon="13.5030783"><ele>119.0</ele><time>2026-05-03T11:42:11.207Z</time></trkpt><trkpt lat="46.0613533" lon="13.5029383"><ele>119.0</ele><time>2026-05-03T11:42:12.207Z</time></trkpt><trkpt lat="46.0612333" lon="13.5027983"><ele>119.0</ele><time>2026-05-03T11:42:13.207Z</time></trkpt><trkpt lat="46.061105" lon="13.502675"><ele>119.0</ele><time>2026-05-03T11:42:14.207Z</time></trkpt><trkpt lat="46.060965" lon="13.50256"><ele>119.0</ele><time>2026-05-03T11:42:15.207Z</time></trkpt><trkpt lat="46.0608233" lon="13.5024367"><ele>119.0</ele><time>2026-05-03T11:42:16.207Z</time></trkpt><trkpt lat="46.060675" lon="13.5023183"><ele>119.0</ele><time>2026-05-03T11:42:17.207Z</time></trkpt><trkpt lat="46.0605133" lon="13.5022117"><ele>118.66666666666666</ele><time>2026-05-03T11:42:18.207Z</time></trkpt><trkpt lat="46.0603533" lon="13.5021033"><ele>118.33333333333334</ele><time>2026-05-03T11:42:19.207Z</time></trkpt><trkpt lat="46.0601983" lon="13.5019917"><ele>118.0</ele><time>2026-05-03T11:42:20.207Z</time></trkpt><trkpt lat="46.0600367" lon="13.5018883"><ele>132.0</ele><time>2026-05-03T11:42:21.207Z</time></trkpt><trkpt lat="46.0598883" lon="13.50179"><ele>146.0</ele><time>2026-05-03T11:42:22.207Z</time></trkpt><trkpt lat="46.0597567" lon="13.5016867"><ele>160.0</ele><time>2026-05-03T11:42:23.207Z</time></trkpt><trkpt lat="46.0596283" lon="13.5015667"><ele>160.0</ele><time>2026-05-03T11:42:24.207Z</time></trkpt><trkpt lat="46.05951" lon="13.501415"><ele>160.0</ele><time>2026-05-03T11:42:25.207Z</time></trkpt><trkpt lat="46.059415" lon="13.5012417"><ele>160.0</ele><time>2026-05-03T11:42:26.207Z</time></trkpt><trkpt lat="46.05932" lon="13.5010333"><ele>152.0</ele><time>2026-05-03T11:42:27.207Z</time></trkpt><trkpt lat="46.0592483" lon="13.500785"><ele>144.0</ele><time>2026-05-03T11:42:28.207Z</time></trkpt><trkpt lat="46.05919" lon="13.5005117"><ele>136.0</ele><time>2026-05-03T11:42:29.207Z</time></trkpt><trkpt lat="46.059145" lon="13.5002533"><ele>144.33333333333334</ele><time>2026-05-03T11:42:30.207Z</time></trkpt><trkpt lat="46.059105" lon="13.5000033"><ele>152.66666666666666</ele><time>2026-05-03T11:42:31.207Z</time></trkpt><trkpt lat="46.0590683" lon="13.4997683"><ele>161.0</ele><time>2026-05-03T11:42:32.207Z</time></trkpt><trkpt lat="46.05902" lon="13.4995583"><ele>161.0</ele><time>2026-05-03T11:42:33.207Z</time></trkpt><trkpt lat="46.0589717" lon="13.4993567"><ele>161.0</ele><time>2026-05-03T11:42:34.207Z</time></trkpt><trkpt lat="46.0589317" lon="13.4991683"><ele>161.0</ele><time>2026-05-03T11:42:35.207Z</time></trkpt><trkpt lat="46.0588817" lon="13.49898"><ele>161.0</ele><time>2026-05-03T11:42:36.207Z</time></trkpt><trkpt lat="46.0588067" lon="13.4988083"><ele>151.5</ele><time>2026-05-03T11:42:37.207Z</time></trkpt><trkpt lat="46.0587283" lon="13.4986417"><ele>142.0</ele><time>2026-05-03T11:42:38.207Z</time></trkpt><trkpt lat="46.0586633" lon="13.49849"><ele>132.5</ele><time>2026-05-03T11:42:39.208Z</time></trkpt><trkpt lat="46.0585917" lon="13.4983567"><ele>123.0</ele><time>2026-05-03T11:42:40.207Z</time></trkpt><trkpt lat="46.0585083" lon="13.498245"><ele>123.0</ele><time>2026-05-03T11:42:41.207Z</time></trkpt><trkpt lat="46.0584067" lon="13.4981583"><ele>123.0</ele><time>2026-05-03T11:42:42.207Z</time></trkpt><trkpt lat="46.058275" lon="13.4980867"><ele>123.0</ele><time>2026-05-03T11:42:43.207Z</time></trkpt><trkpt lat="46.0581183" lon="13.4980233"><ele>123.0</ele><time>2026-05-03T11:42:44.207Z</time></trkpt><trkpt lat="46.0579583" lon="13.4979533"><ele>118.0</ele><time>2026-05-03T11:42:45.207Z</time></trkpt><trkpt lat="46.0577933" lon="13.4978983"><ele>113.0</ele><time>2026-05-03T11:42:46.207Z</time></trkpt><trkpt lat="46.0576383" lon="13.4978383"><ele>108.0</ele><time>2026-05-03T11:42:47.207Z</time></trkpt><trkpt lat="46.0574967" lon="13.497755"><ele>109.66666666666666</ele><time>2026-05-03T11:42:48.207Z</time></trkpt><trkpt lat="46.0573517" lon="13.4976533"><ele>111.33333333333333</ele><time>2026-05-03T11:42:49.207Z</time></trkpt><trkpt lat="46.0572233" lon="13.4975617"><ele>113.0</ele><time>2026-05-03T11:42:50.207Z</time></trkpt><trkpt lat="46.0570667" lon="13.4974983"><ele>113.0</ele><time>2026-05-03T11:42:51.207Z</time></trkpt><trkpt lat="46.05689" lon="13.49748"><ele>113.0</ele><time>2026-05-03T11:42:52.207Z</time></trkpt><trkpt lat="46.0567083" lon="13.4974833"><ele>113.0</ele><time>2026-05-03T11:42:53.207Z</time></trkpt><trkpt lat="46.0565267" lon="13.4975067"><ele>111.0</ele><time>2026-05-03T11:42:54.207Z</time></trkpt><trkpt lat="46.0563617" lon="13.4975517"><ele>109.0</ele><time>2026-05-03T11:42:55.207Z</time></trkpt><trkpt lat="46.05622" lon="13.4976133"><ele>107.0</ele><time>2026-05-03T11:42:56.207Z</time></trkpt><trkpt lat="46.0560833" lon="13.4977"><ele>107.0</ele><time>2026-05-03T11:42:57.207Z</time></trkpt><trkpt lat="46.0559567" lon="13.4977667"><ele>106.99999999999999</ele><time>2026-05-03T11:42:58.207Z</time></trkpt><trkpt lat="46.055835" lon="13.4978117"><ele>106.99999999999999</ele><time>2026-05-03T11:42:59.207Z</time></trkpt><trkpt lat="46.0557417" lon="13.4978233"><ele>107.0</ele><time>2026-05-03T11:43:00.207Z</time></trkpt><trkpt lat="46.055665" lon="13.4978183"><ele>107.0</ele><time>2026-05-03T11:43:01.207Z</time></trkpt><trkpt lat="46.0555967" lon="13.4977917"><ele>107.16666666666666</ele><time>2026-05-03T11:43:02.207Z</time></trkpt><trkpt lat="46.05553" lon="13.4977483"><ele>107.33333333333333</ele><time>2026-05-03T11:43:03.207Z</time></trkpt><trkpt lat="46.055465" lon="13.4977"><ele>107.5</ele><time>2026-05-03T11:43:04.207Z</time></trkpt><trkpt lat="46.0553967" lon="13.4976517"><ele>107.66666666666666</ele><time>2026-05-03T11:43:05.207Z</time></trkpt><trkpt lat="46.0553333" lon="13.4976283"><ele>107.83333333333333</ele><time>2026-05-03T11:43:06.207Z</time></trkpt><trkpt lat="46.0552183" lon="13.4976267"><ele>108.0</ele><time>2026-05-03T11:43:08.207Z</time></trkpt><trkpt lat="46.0550867" lon="13.4976467"><ele>108.0</ele><time>2026-05-03T11:43:10.207Z</time></trkpt><trkpt lat="46.0550067" lon="13.4976383"><ele>108.0</ele><time>2026-05-03T11:43:11.207Z</time></trkpt><trkpt lat="46.0549267" lon="13.4976383"><ele>108.0</ele><time>2026-05-03T11:43:12.208Z</time></trkpt><trkpt lat="46.054845" lon="13.4976517"><ele>108.0</ele><time>2026-05-03T11:43:13.207Z</time></trkpt><trkpt lat="46.054765" lon="13.49767"><ele>108.0</ele><time>2026-05-03T11:43:14.207Z</time></trkpt><trkpt lat="46.054685" lon="13.4976817"><ele>108.0</ele><time>2026-05-03T11:43:15.207Z</time></trkpt><trkpt lat="46.05461" lon="13.4976933"><ele>107.66666666666667</ele><time>2026-05-03T11:43:16.207Z</time></trkpt><trkpt lat="46.05454" lon="13.4977"><ele>107.33333333333334</ele><time>2026-05-03T11:43:17.207Z</time></trkpt><trkpt lat="46.0544233" lon="13.49773"><ele>107.0</ele><time>2026-05-03T11:43:19.207Z</time></trkpt><trkpt lat="46.05434" lon="13.4977783"><ele>106.66666666666667</ele><time>2026-05-03T11:43:21.207Z</time></trkpt><trkpt lat="46.0542833" lon="13.497835"><ele>106.33333333333334</ele><time>2026-05-03T11:43:23.207Z</time></trkpt><trkpt lat="46.054365" lon="13.4978367"><ele>106.0</ele><time>2026-05-03T11:48:23.206Z</time></trkpt><trkpt lat="46.05443" lon="13.4978"><ele>106.0</ele><time>2026-05-03T11:48:24.206Z</time></trkpt><trkpt lat="46.05451" lon="13.497765"><ele>106.0</ele><time>2026-05-03T11:48:25.206Z</time></trkpt><trkpt lat="46.0545983" lon="13.4977367"><ele>106.0</ele><time>2026-05-03T11:48:26.206Z</time></trkpt><trkpt lat="46.0546883" lon="13.4977117"><ele>106.0</ele><time>2026-05-03T11:48:27.206Z</time></trkpt><trkpt lat="46.0547767" lon="13.4976817"><ele>106.0</ele><time>2026-05-03T11:48:28.206Z</time></trkpt><trkpt lat="46.054875" lon="13.4976633"><ele>106.4</ele><time>2026-05-03T11:48:29.206Z</time></trkpt><trkpt lat="46.0549767" lon="13.4976383"><ele>106.8</ele><time>2026-05-03T11:48:30.206Z</time></trkpt><trkpt lat="46.05507" lon="13.49762"><ele>107.20000000000002</ele><time>2026-05-03T11:48:31.206Z</time></trkpt><trkpt lat="46.0551617" lon="13.497615"><ele>107.60000000000001</ele><time>2026-05-03T11:48:32.206Z</time></trkpt><trkpt lat="46.0552433" lon="13.4976217"><ele>108.0</ele><time>2026-05-03T11:48:33.206Z</time></trkpt><trkpt lat="46.0553217" lon="13.4976383"><ele>108.0</ele><time>2026-05-03T11:48:34.206Z</time></trkpt><trkpt lat="46.055395" lon="13.497655"><ele>108.00000000000001</ele><time>2026-05-03T11:48:35.207Z</time></trkpt><trkpt lat="46.05552" lon="13.497705"><ele>108.00000000000001</ele><time>2026-05-03T11:48:37.206Z</time></trkpt><trkpt lat="46.0555933" lon="13.497745"><ele>108.0</ele><time>2026-05-03T11:48:38.206Z</time></trkpt><trkpt lat="46.0556683" lon="13.49779"><ele>108.0</ele><time>2026-05-03T11:48:39.206Z</time></trkpt><trkpt lat="46.0557633" lon="13.4978167"><ele>107.75</ele><time>2026-05-03T11:48:40.206Z</time></trkpt><trkpt lat="46.055875" lon="13.4978117"><ele>107.5</ele><time>2026-05-03T11:48:41.206Z</time></trkpt><trkpt lat="46.05601" lon="13.49777"><ele>107.25</ele><time>2026-05-03T11:48:42.206Z</time></trkpt><trkpt lat="46.0561467" lon="13.4976983"><ele>107.0</ele><time>2026-05-03T11:48:43.206Z</time></trkpt><trkpt lat="46.0563" lon="13.49763"><ele>107.0</ele><time>2026-05-03T11:48:44.206Z</time></trkpt><trkpt lat="46.0564533" lon="13.4975767"><ele>107.0</ele><time>2026-05-03T11:48:45.206Z</time></trkpt><trkpt lat="46.056615" lon="13.4975483"><ele>107.0</ele><time>2026-05-03T11:48:46.206Z</time></trkpt><trkpt lat="46.05677" lon="13.497525"><ele>108.5</ele><time>2026-05-03T11:48:47.206Z</time></trkpt><trkpt lat="46.056905" lon="13.49752"><ele>110.0</ele><time>2026-05-03T11:48:48.206Z</time></trkpt><trkpt lat="46.0570383" lon="13.4975417"><ele>111.5</ele><time>2026-05-03T11:48:49.206Z</time></trkpt><trkpt lat="46.0571667" lon="13.4975867"><ele>113.0</ele><time>2026-05-03T11:48:50.206Z</time></trkpt><trkpt lat="46.0572867" lon="13.4976483"><ele>113.0</ele><time>2026-05-03T11:48:51.206Z</time></trkpt><trkpt lat="46.0574083" lon="13.4977267"><ele>113.0</ele><time>2026-05-03T11:48:52.206Z</time></trkpt><trkpt lat="46.0575433" lon="13.4978167"><ele>113.0</ele><time>2026-05-03T11:48:53.206Z</time></trkpt><trkpt lat="46.05769" lon="13.497895"><ele>113.0</ele><time>2026-05-03T11:48:54.206Z</time></trkpt><trkpt lat="46.0578517" lon="13.49795"><ele>116.33333333333333</ele><time>2026-05-03T11:48:55.206Z</time></trkpt><trkpt lat="46.0580117" lon="13.49802"><ele>119.66666666666666</ele><time>2026-05-03T11:48:56.206Z</time></trkpt><trkpt lat="46.0581683" lon="13.4980783"><ele>123.0</ele><time>2026-05-03T11:48:57.206Z</time></trkpt><trkpt lat="46.0583117" lon="13.49814"><ele>123.0</ele><time>2026-05-03T11:48:58.206Z</time></trkpt><trkpt lat="46.05844" lon="13.4982167"><ele>123.0</ele><time>2026-05-03T11:48:59.206Z</time></trkpt><trkpt lat="46.0585567" lon="13.498315"><ele>123.0</ele><time>2026-05-03T11:49:00.206Z</time></trkpt><trkpt lat="46.058655" lon="13.4984533"><ele>123.0</ele><time>2026-05-03T11:49:01.206Z</time></trkpt><trkpt lat="46.0587433" lon="13.4986183"><ele>132.5</ele><time>2026-05-03T11:49:02.206Z</time></trkpt><trkpt lat="46.0588117" lon="13.4988067"><ele>142.0</ele><time>2026-05-03T11:49:03.206Z</time></trkpt><trkpt lat="46.058875" lon="13.49899"><ele>151.5</ele><time>2026-05-03T11:49:04.206Z</time></trkpt><trkpt lat="46.0589533" lon="13.499155"><ele>161.0</ele><time>2026-05-03T11:49:05.206Z</time></trkpt><trkpt lat="46.0590083" lon="13.4993267"><ele>161.0</ele><time>2026-05-03T11:49:06.206Z</time></trkpt><trkpt lat="46.05905" lon="13.4995367"><ele>161.0</ele><time>2026-05-03T11:49:07.206Z</time></trkpt><trkpt lat="46.05909" lon="13.4997633"><ele>161.0</ele><time>2026-05-03T11:49:08.206Z</time></trkpt><trkpt lat="46.0591283" lon="13.4999917"><ele>152.66666666666666</ele><time>2026-05-03T11:49:09.206Z</time></trkpt><trkpt lat="46.059155" lon="13.5002367"><ele>144.33333333333334</ele><time>2026-05-03T11:49:10.206Z</time></trkpt><trkpt lat="46.05919" lon="13.500485"><ele>136.0</ele><time>2026-05-03T11:49:11.206Z</time></trkpt><trkpt lat="46.0592383" lon="13.5007317"><ele>136.0</ele><time>2026-05-03T11:49:12.207Z</time></trkpt><trkpt lat="46.059305" lon="13.5009733"><ele>136.0</ele><time>2026-05-03T11:49:13.206Z</time></trkpt><trkpt lat="46.0593933" lon="13.501195"><ele>136.0</ele><time>2026-05-03T11:49:14.206Z</time></trkpt><trkpt lat="46.05949" lon="13.5013817"><ele>144.0</ele><time>2026-05-03T11:49:15.206Z</time></trkpt><trkpt lat="46.0595917" lon="13.5015383"><ele>152.0</ele><time>2026-05-03T11:49:16.206Z</time></trkpt><trkpt lat="46.0597317" lon="13.5016817"><ele>160.0</ele><time>2026-05-03T11:49:17.206Z</time></trkpt><trkpt lat="46.0599067" lon="13.5018133"><ele>153.66666666666669</ele><time>2026-05-03T11:49:18.206Z</time></trkpt><trkpt lat="46.060085" lon="13.5019317"><ele>147.33333333333334</ele><time>2026-05-03T11:49:19.206Z</time></trkpt><trkpt lat="46.0602617" lon="13.5020567"><ele>141.0</ele><time>2026-05-03T11:49:20.206Z</time></trkpt><trkpt lat="46.0604333" lon="13.5021783"><ele>141.0</ele><time>2026-05-03T11:49:21.206Z</time></trkpt><trkpt lat="46.0605967" lon="13.502285"><ele>141.0</ele><time>2026-05-03T11:49:22.206Z</time></trkpt><trkpt lat="46.060755" lon="13.5023933"><ele>141.0</ele><time>2026-05-03T11:49:23.206Z</time></trkpt><trkpt lat="46.0609033" lon="13.5024983"><ele>133.66666666666666</ele><time>2026-05-03T11:49:24.206Z</time></trkpt><trkpt lat="46.061055" lon="13.5026117"><ele>126.33333333333333</ele><time>2026-05-03T11:49:25.206Z</time></trkpt><trkpt lat="46.061195" lon="13.50275"><ele>119.0</ele><time>2026-05-03T11:49:26.206Z</time></trkpt><trkpt lat="46.0613267" lon="13.5028917"><ele>119.0</ele><time>2026-05-03T11:49:27.206Z</time></trkpt><trkpt lat="46.0614533" lon="13.5030433"><ele>119.0</ele><time>2026-05-03T11:49:28.206Z</time></trkpt><trkpt lat="46.0615517" lon="13.5031983"><ele>119.0</ele><time>2026-05-03T11:49:29.206Z</time></trkpt><trkpt lat="46.0616317" lon="13.5033633"><ele>119.0</ele><time>2026-05-03T11:49:30.206Z</time></trkpt><trkpt lat="46.0616917" lon="13.5035533"><ele>119.0</ele><time>2026-05-03T11:49:31.206Z</time></trkpt><trkpt lat="46.0617367" lon="13.5037267"><ele>119.0</ele><time>2026-05-03T11:49:32.206Z</time></trkpt><trkpt lat="46.0617733" lon="13.5039017"><ele>119.0</ele><time>2026-05-03T11:49:33.206Z</time></trkpt><trkpt lat="46.061775" lon="13.5041017"><ele>119.0</ele><time>2026-05-03T11:49:34.206Z</time></trkpt><trkpt lat="46.0617633" lon="13.5042867"><ele>119.0</ele><time>2026-05-03T11:49:35.206Z</time></trkpt><trkpt lat="46.0617283" lon="13.50447"><ele>119.0</ele><time>2026-05-03T11:49:36.206Z</time></trkpt><trkpt lat="46.0616567" lon="13.5046417"><ele>119.0</ele><time>2026-05-03T11:49:37.205Z</time></trkpt><trkpt lat="46.06156" lon="13.5048"><ele>129.75</ele><time>2026-05-03T11:49:38.205Z</time></trkpt><trkpt lat="46.0614667" lon="13.5049467"><ele>140.5</ele><time>2026-05-03T11:49:39.205Z</time></trkpt><trkpt lat="46.0613783" lon="13.5050883"><ele>151.25</ele><time>2026-05-03T11:49:40.205Z</time></trkpt><trkpt lat="46.0612883" lon="13.505215"><ele>162.0</ele><time>2026-05-03T11:49:41.205Z</time></trkpt><trkpt lat="46.0611983" lon="13.5053267"><ele>156.6</ele><time>2026-05-03T11:49:42.205Z</time></trkpt><trkpt lat="46.0611083" lon="13.505445"><ele>151.2</ele><time>2026-05-03T11:49:43.205Z</time></trkpt><trkpt lat="46.0610267" lon="13.5055517"><ele>145.8</ele><time>2026-05-03T11:49:44.205Z</time></trkpt><trkpt lat="46.06095" lon="13.5056483"><ele>140.4</ele><time>2026-05-03T11:49:45.205Z</time></trkpt><trkpt lat="46.06085" lon="13.5057233"><ele>135.0</ele><time>2026-05-03T11:49:46.205Z</time></trkpt><trkpt lat="46.06076" lon="13.5058167"><ele>144.5</ele><time>2026-05-03T11:49:47.205Z</time></trkpt><trkpt lat="46.060675" lon="13.5059383"><ele>154.0</ele><time>2026-05-03T11:49:48.205Z</time></trkpt><trkpt lat="46.0606033" lon="13.5060883"><ele>163.5</ele><time>2026-05-03T11:49:49.205Z</time></trkpt><trkpt lat="46.0605233" lon="13.50625"><ele>173.0</ele><time>2026-05-03T11:49:50.205Z</time></trkpt><trkpt lat="46.0604483" lon="13.5064083"><ele>173.0</ele><time>2026-05-03T11:49:51.205Z</time></trkpt><trkpt lat="46.0603933" lon="13.5065517"><ele>173.0</ele><time>2026-05-03T11:49:52.205Z</time></trkpt><trkpt lat="46.0603567" lon="13.506685"><ele>173.0</ele><time>2026-05-03T11:49:53.205Z</time></trkpt><trkpt lat="46.0603283" lon="13.50682"><ele>173.0</ele><time>2026-05-03T11:49:54.205Z</time></trkpt><trkpt lat="46.06031" lon="13.5069667"><ele>173.0</ele><time>2026-05-03T11:49:55.205Z</time></trkpt><trkpt lat="46.060305" lon="13.5071267"><ele>170.75</ele><time>2026-05-03T11:49:56.205Z</time></trkpt><trkpt lat="46.0603067" lon="13.507305"><ele>168.5</ele><time>2026-05-03T11:49:57.205Z</time></trkpt><trkpt lat="46.060315" lon="13.507495"><ele>166.25</ele><time>2026-05-03T11:49:58.205Z</time></trkpt><trkpt lat="46.06033" lon="13.507695"><ele>164.0</ele><time>2026-05-03T11:49:59.206Z</time></trkpt><trkpt lat="46.0603683" lon="13.5078867"><ele>167.0</ele><time>2026-05-03T11:50:00.205Z</time></trkpt><trkpt lat="46.060435" lon="13.508055"><ele>170.0</ele><time>2026-05-03T11:50:01.205Z</time></trkpt><trkpt lat="46.0604817" lon="13.5082067"><ele>173.0</ele><time>2026-05-03T11:50:02.205Z</time></trkpt><trkpt lat="46.0605317" lon="13.508345"><ele>176.0</ele><time>2026-05-03T11:50:03.205Z</time></trkpt><trkpt lat="46.06058" lon="13.5084933"><ele>176.0</ele><time>2026-05-03T11:50:04.205Z</time></trkpt><trkpt lat="46.0606233" lon="13.508645"><ele>176.0</ele><time>2026-05-03T11:50:05.205Z</time></trkpt><trkpt lat="46.06066" lon="13.5088083"><ele>176.0</ele><time>2026-05-03T11:50:06.205Z</time></trkpt><trkpt lat="46.0606983" lon="13.50899"><ele>176.0</ele><time>2026-05-03T11:50:07.205Z</time></trkpt><trkpt lat="46.0607383" lon="13.5091817"><ele>166.75</ele><time>2026-05-03T11:50:08.205Z</time></trkpt><trkpt lat="46.0607883" lon="13.5093683"><ele>157.5</ele><time>2026-05-03T11:50:09.205Z</time></trkpt><trkpt lat="46.0608467" lon="13.5095467"><ele>148.25</ele><time>2026-05-03T11:50:10.205Z</time></trkpt><trkpt lat="46.06091" lon="13.5097283"><ele>139.0</ele><time>2026-05-03T11:50:11.205Z</time></trkpt><trkpt lat="46.060995" lon="13.5098833"><ele>139.0</ele><time>2026-05-03T11:50:12.205Z</time></trkpt><trkpt lat="46.0610817" lon="13.5100283"><ele>139.0</ele><time>2026-05-03T11:50:13.205Z</time></trkpt><trkpt lat="46.06118" lon="13.5101833"><ele>139.0</ele><time>2026-05-03T11:50:14.205Z</time></trkpt><trkpt lat="46.0612833" lon="13.510335"><ele>139.0</ele><time>2026-05-03T11:50:15.205Z</time></trkpt><trkpt lat="46.0613867" lon="13.5104967"><ele>133.66666666666669</ele><time>2026-05-03T11:50:16.205Z</time></trkpt><trkpt lat="46.0615" lon="13.5106383"><ele>128.33333333333334</ele><time>2026-05-03T11:50:17.205Z</time></trkpt><trkpt lat="46.0616167" lon="13.5107867"><ele>123.0</ele><time>2026-05-03T11:50:18.205Z</time></trkpt><trkpt lat="46.061725" lon="13.5109483"><ele>123.0</ele><time>2026-05-03T11:50:19.205Z</time></trkpt><trkpt lat="46.0618233" lon="13.5111067"><ele>123.0</ele><time>2026-05-03T11:50:20.205Z</time></trkpt><trkpt lat="46.061915" lon="13.5112767"><ele>123.0</ele><time>2026-05-03T11:50:21.205Z</time></trkpt><trkpt lat="46.062" lon="13.5114483"><ele>123.0</ele><time>2026-05-03T11:50:22.205Z</time></trkpt><trkpt lat="46.0620733" lon="13.511605"><ele>127.2</ele><time>2026-05-03T11:50:23.205Z</time></trkpt><trkpt lat="46.0621217" lon="13.51175"><ele>131.4</ele><time>2026-05-03T11:50:24.205Z</time></trkpt><trkpt lat="46.06216" lon="13.5118883"><ele>135.60000000000002</ele><time>2026-05-03T11:50:25.205Z</time></trkpt><trkpt lat="46.06216" lon="13.5120383"><ele>139.8</ele><time>2026-05-03T11:50:26.205Z</time></trkpt><trkpt lat="46.0621567" lon="13.5121683"><ele>144.0</ele><time>2026-05-03T11:50:27.205Z</time></trkpt><trkpt lat="46.0621117" lon="13.5123033"><ele>145.0</ele><time>2026-05-03T11:50:28.205Z</time></trkpt><trkpt lat="46.0620467" lon="13.5124517"><ele>146.0</ele><time>2026-05-03T11:50:29.205Z</time></trkpt><trkpt lat="46.0619683" lon="13.5126083"><ele>147.0</ele><time>2026-05-03T11:50:30.205Z</time></trkpt><trkpt lat="46.0619" lon="13.5127817"><ele>148.0</ele><time>2026-05-03T11:50:31.205Z</time></trkpt><trkpt lat="46.0618233" lon="13.51297"><ele>144.66666666666669</ele><time>2026-05-03T11:50:32.205Z</time></trkpt><trkpt lat="46.0617617" lon="13.51316"><ele>141.33333333333334</ele><time>2026-05-03T11:50:33.205Z</time></trkpt><trkpt lat="46.0617" lon="13.513365"><ele>138.0</ele><time>2026-05-03T11:50:34.205Z</time></trkpt><trkpt lat="46.0616617" lon="13.5135733"><ele>136.5</ele><time>2026-05-03T11:50:35.205Z</time></trkpt><trkpt lat="46.061635" lon="13.5137633"><ele>135.0</ele><time>2026-05-03T11:50:36.205Z</time></trkpt><trkpt lat="46.0616133" lon="13.5139383"><ele>133.5</ele><time>2026-05-03T11:50:37.205Z</time></trkpt><trkpt lat="46.0616067" lon="13.5141183"><ele>132.0</ele><time>2026-05-03T11:50:38.205Z</time></trkpt><trkpt lat="46.0616133" lon="13.5142867"><ele>132.0</ele><time>2026-05-03T11:50:39.205Z</time></trkpt><trkpt lat="46.061635" lon="13.5144583"><ele>132.0</ele><time>2026-05-03T11:50:40.205Z</time></trkpt><trkpt lat="46.0616833" lon="13.5146433"><ele>132.0</ele><time>2026-05-03T11:50:41.205Z</time></trkpt><trkpt lat="46.061745" lon="13.5148383"><ele>132.0</ele><time>2026-05-03T11:50:42.205Z</time></trkpt><trkpt lat="46.061805" lon="13.515055"><ele>134.33333333333334</ele><time>2026-05-03T11:50:43.205Z</time></trkpt><trkpt lat="46.0618633" lon="13.5152817"><ele>136.66666666666669</ele><time>2026-05-03T11:50:44.205Z</time></trkpt><trkpt lat="46.0619167" lon="13.5155167"><ele>139.0</ele><time>2026-05-03T11:50:45.205Z</time></trkpt><trkpt lat="46.0619717" lon="13.5157517"><ele>144.0</ele><time>2026-05-03T11:50:46.205Z</time></trkpt><trkpt lat="46.062035" lon="13.51597"><ele>149.0</ele><time>2026-05-03T11:50:47.205Z</time></trkpt><trkpt lat="46.0620933" lon="13.5161717"><ele>154.0</ele><time>2026-05-03T11:50:48.206Z</time></trkpt><trkpt lat="46.0621517" lon="13.5163583"><ele>157.75</ele><time>2026-05-03T11:50:49.205Z</time></trkpt><trkpt lat="46.0622167" lon="13.5165483"><ele>161.5</ele><time>2026-05-03T11:50:50.205Z</time></trkpt><trkpt lat="46.0622767" lon="13.5167367"><ele>165.25</ele><time>2026-05-03T11:50:51.205Z</time></trkpt><trkpt lat="46.0623233" lon="13.5169383"><ele>169.0</ele><time>2026-05-03T11:50:52.205Z</time></trkpt><trkpt lat="46.0623533" lon="13.5171483"><ele>173.0</ele><time>2026-05-03T11:50:53.205Z</time></trkpt><trkpt lat="46.0623817" lon="13.5173683"><ele>177.0</ele><time>2026-05-03T11:50:54.205Z</time></trkpt><trkpt lat="46.0624117" lon="13.517595"><ele>181.0</ele><time>2026-05-03T11:50:55.205Z</time></trkpt><trkpt lat="46.062445" lon="13.517825"><ele>169.0</ele><time>2026-05-03T11:50:56.205Z</time></trkpt><trkpt lat="46.0624817" lon="13.5180283"><ele>157.0</ele><time>2026-05-03T11:50:57.205Z</time></trkpt><trkpt lat="46.0625867" lon="13.5182667"><ele>145.0</ele><time>2026-05-03T11:50:58.205Z</time></trkpt><trkpt lat="46.0626567" lon="13.5185117"><ele>150.33333333333334</ele><time>2026-05-03T11:50:59.205Z</time></trkpt><trkpt lat="46.0627333" lon="13.518755"><ele>155.66666666666666</ele><time>2026-05-03T11:51:00.206Z</time></trkpt><trkpt lat="46.0628083" lon="13.518985"><ele>161.0</ele><time>2026-05-03T11:51:01.205Z</time></trkpt><trkpt lat="46.06289" lon="13.5192167"><ele>161.0</ele><time>2026-05-03T11:51:02.205Z</time></trkpt><trkpt lat="46.06296" lon="13.5194267"><ele>161.0</ele><time>2026-05-03T11:51:03.205Z</time></trkpt><trkpt lat="46.0630283" lon="13.519635"><ele>161.0</ele><time>2026-05-03T11:51:04.205Z</time></trkpt><trkpt lat="46.063075" lon="13.5198317"><ele>161.5</ele><time>2026-05-03T11:51:05.205Z</time></trkpt><trkpt lat="46.0631483" lon="13.5200067"><ele>162.0</ele><time>2026-05-03T11:51:06.205Z</time></trkpt><trkpt lat="46.0632283" lon="13.520165"><ele>162.5</ele><time>2026-05-03T11:51:07.205Z</time></trkpt><trkpt lat="46.0633267" lon="13.5202983"><ele>163.0</ele><time>2026-05-03T11:51:08.205Z</time></trkpt><trkpt lat="46.06346" lon="13.5204233"><ele>163.0</ele><time>2026-05-03T11:51:09.205Z</time></trkpt><trkpt lat="46.0635883" lon="13.5205533"><ele>163.0</ele><time>2026-05-03T11:51:10.205Z</time></trkpt><trkpt lat="46.0637217" lon="13.520665"><ele>163.0</ele><time>2026-05-03T11:51:11.205Z</time></trkpt><trkpt lat="46.06386" lon="13.5207833"><ele>163.0</ele><time>2026-05-03T11:51:12.205Z</time></trkpt><trkpt lat="46.0639867" lon="13.5208933"><ele>163.0</ele><time>2026-05-03T11:51:13.205Z</time></trkpt><trkpt lat="46.064115" lon="13.5210117"><ele>163.0</ele><time>2026-05-03T11:51:14.205Z</time></trkpt><trkpt lat="46.0642483" lon="13.5211383"><ele>161.66666666666669</ele><time>2026-05-03T11:51:15.205Z</time></trkpt><trkpt lat="46.064375" lon="13.5212717"><ele>160.33333333333334</ele><time>2026-05-03T11:51:16.205Z</time></trkpt><trkpt lat="46.0644933" lon="13.5214117"><ele>159.0</ele><time>2026-05-03T11:51:17.205Z</time></trkpt><trkpt lat="46.06461" lon="13.521575"><ele>159.0</ele><time>2026-05-03T11:51:18.205Z</time></trkpt><trkpt lat="46.0647217" lon="13.521755"><ele>159.0</ele><time>2026-05-03T11:51:19.205Z</time></trkpt><trkpt lat="46.0648183" lon="13.521905"><ele>159.0</ele><time>2026-05-03T11:51:20.205Z</time></trkpt><trkpt lat="46.0648883" lon="13.5220483"><ele>159.0</ele><time>2026-05-03T11:51:21.205Z</time></trkpt><trkpt lat="46.0649717" lon="13.5221933"><ele>158.5</ele><time>2026-05-03T11:51:22.205Z</time></trkpt><trkpt lat="46.065035" lon="13.522345"><ele>158.0</ele><time>2026-05-03T11:51:23.205Z</time></trkpt><trkpt lat="46.0650783" lon="13.522515"><ele>157.5</ele><time>2026-05-03T11:51:24.205Z</time></trkpt><trkpt lat="46.06513" lon="13.5227083"><ele>157.0</ele><time>2026-05-03T11:51:25.205Z</time></trkpt><trkpt lat="46.0651967" lon="13.5229083"><ele>157.0</ele><time>2026-05-03T11:51:26.205Z</time></trkpt><trkpt lat="46.0652633" lon="13.523135"><ele>157.0</ele><time>2026-05-03T11:51:27.205Z</time></trkpt><trkpt lat="46.065325" lon="13.5233567"><ele>157.0</ele><time>2026-05-03T11:51:28.205Z</time></trkpt><trkpt lat="46.065395" lon="13.523575"><ele>158.66666666666669</ele><time>2026-05-03T11:51:29.205Z</time></trkpt><trkpt lat="46.0654667" lon="13.523765"><ele>160.33333333333334</ele><time>2026-05-03T11:51:30.205Z</time></trkpt><trkpt lat="46.06554" lon="13.5239567"><ele>162.0</ele><time>2026-05-03T11:51:31.205Z</time></trkpt><trkpt lat="46.065645" lon="13.524125"><ele>162.0</ele><time>2026-05-03T11:51:32.205Z</time></trkpt><trkpt lat="46.0657617" lon="13.5242833"><ele>162.0</ele><time>2026-05-03T11:51:33.205Z</time></trkpt><trkpt lat="46.0658717" lon="13.5244417"><ele>162.0</ele><time>2026-05-03T11:51:34.205Z</time></trkpt><trkpt lat="46.06599" lon="13.5245967"><ele>158.66666666666666</ele><time>2026-05-03T11:51:35.205Z</time></trkpt><trkpt lat="46.0661" lon="13.5247517"><ele>155.33333333333331</ele><time>2026-05-03T11:51:36.205Z</time></trkpt><trkpt lat="46.0661983" lon="13.524935"><ele>152.0</ele><time>2026-05-03T11:51:37.205Z</time></trkpt><trkpt lat="46.0662883" lon="13.52513"><ele>152.0</ele><time>2026-05-03T11:51:38.205Z</time></trkpt><trkpt lat="46.0663767" lon="13.5253433"><ele>152.0</ele><time>2026-05-03T11:51:39.205Z</time></trkpt><trkpt lat="46.06646" lon="13.5255533"><ele>152.0</ele><time>2026-05-03T11:51:40.205Z</time></trkpt><trkpt lat="46.0665233" lon="13.525745"><ele>148.25</ele><time>2026-05-03T11:51:41.205Z</time></trkpt><trkpt lat="46.06658" lon="13.5259317"><ele>144.5</ele><time>2026-05-03T11:51:42.205Z</time></trkpt><trkpt lat="46.0666333" lon="13.5261"><ele>140.75</ele><time>2026-05-03T11:51:43.205Z</time></trkpt><trkpt lat="46.066665" lon="13.52628"><ele>137.0</ele><time>2026-05-03T11:51:44.205Z</time></trkpt><trkpt lat="46.0666717" lon="13.526485"><ele>137.0</ele><time>2026-05-03T11:51:45.205Z</time></trkpt><trkpt lat="46.066665" lon="13.5267"><ele>137.0</ele><time>2026-05-03T11:51:46.205Z</time></trkpt><trkpt lat="46.0666483" lon="13.526915"><ele>137.0</ele><time>2026-05-03T11:51:47.205Z</time></trkpt><trkpt lat="46.0666167" lon="13.527115"><ele>137.0</ele><time>2026-05-03T11:51:48.205Z</time></trkpt><trkpt lat="46.0665817" lon="13.5273433"><ele>155.33333333333331</ele><time>2026-05-03T11:51:49.205Z</time></trkpt><trkpt lat="46.066535" lon="13.5275833"><ele>173.66666666666666</ele><time>2026-05-03T11:51:50.205Z</time></trkpt><trkpt lat="46.066485" lon="13.5278183"><ele>192.0</ele><time>2026-05-03T11:51:51.206Z</time></trkpt><trkpt lat="46.06644" lon="13.52805"><ele>192.0</ele><time>2026-05-03T11:51:52.205Z</time></trkpt><trkpt lat="46.0664017" lon="13.5282717"><ele>192.0</ele><time>2026-05-03T11:51:53.205Z</time></trkpt><trkpt lat="46.0663667" lon="13.5284917"><ele>192.0</ele><time>2026-05-03T11:51:54.205Z</time></trkpt><trkpt lat="46.0663417" lon="13.528705"><ele>192.0</ele><time>2026-05-03T11:51:55.205Z</time></trkpt><trkpt lat="46.066315" lon="13.5289133"><ele>192.0</ele><time>2026-05-03T11:51:56.205Z</time></trkpt><trkpt lat="46.0663133" lon="13.5291133"><ele>192.0</ele><time>2026-05-03T11:51:57.205Z</time></trkpt><trkpt lat="46.06633" lon="13.5292983"><ele>192.0</ele><time>2026-05-03T11:51:58.205Z</time></trkpt><trkpt lat="46.066345" lon="13.5294717"><ele>193.8</ele><time>2026-05-03T11:51:59.205Z</time></trkpt><trkpt lat="46.06636" lon="13.52962"><ele>195.6</ele><time>2026-05-03T11:52:00.205Z</time></trkpt><trkpt lat="46.0663867" lon="13.5297483"><ele>197.4</ele><time>2026-05-03T11:52:01.205Z</time></trkpt><trkpt lat="46.066395" lon="13.5298767"><ele>199.20000000000002</ele><time>2026-05-03T11:52:02.205Z</time></trkpt><trkpt lat="46.066435" lon="13.5299983"><ele>201.0</ele><time>2026-05-03T11:52:03.205Z</time></trkpt><trkpt lat="46.0665083" lon="13.5301233"><ele>201.0</ele><time>2026-05-03T11:52:04.205Z</time></trkpt><trkpt lat="46.0665883" lon="13.5302433"><ele>201.0</ele><time>2026-05-03T11:52:05.205Z</time></trkpt><trkpt lat="46.06668" lon="13.530355"><ele>201.0</ele><time>2026-05-03T11:52:06.205Z</time></trkpt><trkpt lat="46.0667633" lon="13.5304467"><ele>201.0</ele><time>2026-05-03T11:52:07.206Z</time></trkpt><trkpt lat="46.0668617" lon="13.5305"><ele>201.0</ele><time>2026-05-03T11:52:08.206Z</time></trkpt><trkpt lat="46.0669583" lon="13.5305467"><ele>193.20000000000002</ele><time>2026-05-03T11:52:09.205Z</time></trkpt><trkpt lat="46.0670417" lon="13.5305783"><ele>185.4</ele><time>2026-05-03T11:52:10.205Z</time></trkpt><trkpt lat="46.0671367" lon="13.530595"><ele>177.6</ele><time>2026-05-03T11:52:11.205Z</time></trkpt><trkpt lat="46.0672383" lon="13.530585"><ele>169.8</ele><time>2026-05-03T11:52:12.205Z</time></trkpt><trkpt lat="46.0673583" lon="13.53054"><ele>162.0</ele><time>2026-05-03T11:52:13.205Z</time></trkpt><trkpt lat="46.0674917" lon="13.5304817"><ele>158.5</ele><time>2026-05-03T11:52:14.205Z</time></trkpt><trkpt lat="46.06763" lon="13.5304117"><ele>155.0</ele><time>2026-05-03T11:52:15.205Z</time></trkpt><trkpt lat="46.0677683" lon="13.5303583"><ele>151.5</ele><time>2026-05-03T11:52:16.205Z</time></trkpt><trkpt lat="46.0679017" lon="13.53031"><ele>148.0</ele><time>2026-05-03T11:52:17.205Z</time></trkpt><trkpt lat="46.0680183" lon="13.530265"><ele>145.6</ele><time>2026-05-03T11:52:18.205Z</time></trkpt><trkpt lat="46.0681267" lon="13.5302133"><ele>143.20000000000002</ele><time>2026-05-03T11:52:19.206Z</time></trkpt><trkpt lat="46.0682367" lon="13.5301883"><ele>140.8</ele><time>2026-05-03T11:52:20.205Z</time></trkpt><trkpt lat="46.0683317" lon="13.5301767"><ele>138.4</ele><time>2026-05-03T11:52:21.205Z</time></trkpt><trkpt lat="46.0684233" lon="13.530225"><ele>136.0</ele><time>2026-05-03T11:52:22.205Z</time></trkpt><trkpt lat="46.0685067" lon="13.530335"><ele>138.75</ele><time>2026-05-03T11:52:23.205Z</time></trkpt><trkpt lat="46.0686" lon="13.530475"><ele>141.5</ele><time>2026-05-03T11:52:24.205Z</time></trkpt><trkpt lat="46.0687" lon="13.5306333"><ele>144.25</ele><time>2026-05-03T11:52:25.205Z</time></trkpt><trkpt lat="46.0688133" lon="13.5307883"><ele>147.0</ele><time>2026-05-03T11:52:26.205Z</time></trkpt><trkpt lat="46.0689283" lon="13.5309283"><ele>147.0</ele><time>2026-05-03T11:52:27.205Z</time></trkpt><trkpt lat="46.06903" lon="13.5310567"><ele>147.0</ele><time>2026-05-03T11:52:28.205Z</time></trkpt><trkpt lat="46.0691167" lon="13.5311783"><ele>147.0</ele><time>2026-05-03T11:52:29.205Z</time></trkpt><trkpt lat="46.0691883" lon="13.5313"><ele>147.0</ele><time>2026-05-03T11:52:30.205Z</time></trkpt><trkpt lat="46.06924" lon="13.5314467"><ele>146.79999999999998</ele><time>2026-05-03T11:52:31.205Z</time></trkpt><trkpt lat="46.0692883" lon="13.5315867"><ele>146.6</ele><time>2026-05-03T11:52:32.205Z</time></trkpt><trkpt lat="46.0693" lon="13.53173"><ele>146.39999999999998</ele><time>2026-05-03T11:52:33.205Z</time></trkpt><trkpt lat="46.0692783" lon="13.5318767"><ele>146.2</ele><time>2026-05-03T11:52:34.205Z</time></trkpt><trkpt lat="46.0692417" lon="13.5320317"><ele>146.0</ele><time>2026-05-03T11:52:35.205Z</time></trkpt><trkpt lat="46.0691917" lon="13.5321933"><ele>148.0</ele><time>2026-05-03T11:52:36.205Z</time></trkpt><trkpt lat="46.0691517" lon="13.5323683"><ele>150.0</ele><time>2026-05-03T11:52:37.205Z</time></trkpt><trkpt lat="46.0691467" lon="13.5325617"><ele>152.0</ele><time>2026-05-03T11:52:38.205Z</time></trkpt><trkpt lat="46.06915" lon="13.5327767"><ele>154.0</ele><time>2026-05-03T11:52:39.205Z</time></trkpt><trkpt lat="46.0691667" lon="13.53298"><ele>156.75</ele><time>2026-05-03T11:52:40.205Z</time></trkpt><trkpt lat="46.0691883" lon="13.53317"><ele>159.5</ele><time>2026-05-03T11:52:41.205Z</time></trkpt><trkpt lat="46.0692333" lon="13.5333583"><ele>162.25</ele><time>2026-05-03T11:52:42.206Z</time></trkpt><trkpt lat="46.06929" lon="13.5335633"><ele>165.0</ele><time>2026-05-03T11:52:43.205Z</time></trkpt><trkpt lat="46.069365" lon="13.533765"><ele>171.0</ele><time>2026-05-03T11:52:44.205Z</time></trkpt><trkpt lat="46.069445" lon="13.5339633"><ele>177.0</ele><time>2026-05-03T11:52:45.205Z</time></trkpt><trkpt lat="46.0695217" lon="13.5341483"><ele>183.0</ele><time>2026-05-03T11:52:46.205Z</time></trkpt><trkpt lat="46.0695983" lon="13.5343467"><ele>183.0</ele><time>2026-05-03T11:52:47.205Z</time></trkpt><trkpt lat="46.0696717" lon="13.5345317"><ele>183.0</ele><time>2026-05-03T11:52:48.205Z</time></trkpt><trkpt lat="46.0697433" lon="13.5347017"><ele>183.0</ele><time>2026-05-03T11:52:49.205Z</time></trkpt><trkpt lat="46.0698183" lon="13.53486"><ele>183.0</ele><time>2026-05-03T11:52:50.205Z</time></trkpt><trkpt lat="46.0698967" lon="13.53499"><ele>177.6</ele><time>2026-05-03T11:52:51.205Z</time></trkpt><trkpt lat="46.0699883" lon="13.5350933"><ele>172.20000000000002</ele><time>2026-05-03T11:52:52.205Z</time></trkpt><trkpt lat="46.0700783" lon="13.53517"><ele>166.8</ele><time>2026-05-03T11:52:53.205Z</time></trkpt><trkpt lat="46.0701667" lon="13.5352317"><ele>161.4</ele><time>2026-05-03T11:52:54.205Z</time></trkpt><trkpt lat="46.070245" lon="13.5352767"><ele>156.0</ele><time>2026-05-03T11:52:55.205Z</time></trkpt><trkpt lat="46.0703217" lon="13.5353217"><ele>156.0</ele><time>2026-05-03T11:52:56.205Z</time></trkpt><trkpt lat="46.0704183" lon="13.5353533"><ele>156.0</ele><time>2026-05-03T11:52:57.205Z</time></trkpt><trkpt lat="46.070535" lon="13.5353833"><ele>156.0</ele><time>2026-05-03T11:52:58.205Z</time></trkpt><trkpt lat="46.0706667" lon="13.5354067"><ele>156.0</ele><time>2026-05-03T11:52:59.205Z</time></trkpt><trkpt lat="46.070795" lon="13.5354417"><ele>159.66666666666666</ele><time>2026-05-03T11:53:00.205Z</time></trkpt><trkpt lat="46.070945" lon="13.5354483"><ele>163.33333333333331</ele><time>2026-05-03T11:53:01.206Z</time></trkpt><trkpt lat="46.0711" lon="13.5354417"><ele>167.0</ele><time>2026-05-03T11:53:02.205Z</time></trkpt><trkpt lat="46.07125" lon="13.5354183"><ele>167.0</ele><time>2026-05-03T11:53:03.205Z</time></trkpt><trkpt lat="46.0713967" lon="13.5353883"><ele>167.0</ele><time>2026-05-03T11:53:04.205Z</time></trkpt><trkpt lat="46.0715267" lon="13.5353567"><ele>167.0</ele><time>2026-05-03T11:53:05.205Z</time></trkpt><trkpt lat="46.0716533" lon="13.535325"><ele>167.0</ele><time>2026-05-03T11:53:06.205Z</time></trkpt><trkpt lat="46.07178" lon="13.5353033"><ele>166.0</ele><time>2026-05-03T11:53:07.205Z</time></trkpt><trkpt lat="46.0718933" lon="13.5353033"><ele>165.0</ele><time>2026-05-03T11:53:08.205Z</time></trkpt><trkpt lat="46.072005" lon="13.5353183"><ele>164.0</ele><time>2026-05-03T11:53:09.206Z</time></trkpt><trkpt lat="46.0721167" lon="13.5353567"><ele>163.0</ele><time>2026-05-03T11:53:10.205Z</time></trkpt><trkpt lat="46.0722333" lon="13.5354383"><ele>163.0</ele><time>2026-05-03T11:53:11.206Z</time></trkpt><trkpt lat="46.07237" lon="13.5355483"><ele>163.0</ele><time>2026-05-03T11:53:12.205Z</time></trkpt><trkpt lat="46.0725083" lon="13.5356867"><ele>163.0</ele><time>2026-05-03T11:53:13.205Z</time></trkpt><trkpt lat="46.0726583" lon="13.5358233"><ele>161.66666666666669</ele><time>2026-05-03T11:53:14.205Z</time></trkpt><trkpt lat="46.0728033" lon="13.5359617"><ele>160.33333333333334</ele><time>2026-05-03T11:53:15.205Z</time></trkpt><trkpt lat="46.0729417" lon="13.5360917"><ele>159.0</ele><time>2026-05-03T11:53:16.205Z</time></trkpt><trkpt lat="46.0730767" lon="13.5362183"><ele>160.33333333333334</ele><time>2026-05-03T11:53:17.205Z</time></trkpt><trkpt lat="46.0732117" lon="13.536345"><ele>161.66666666666669</ele><time>2026-05-03T11:53:18.205Z</time></trkpt><trkpt lat="46.0733633" lon="13.5364867"><ele>163.0</ele><time>2026-05-03T11:53:19.205Z</time></trkpt><trkpt lat="46.0735217" lon="13.5366183"><ele>163.0</ele><time>2026-05-03T11:53:20.205Z</time></trkpt><trkpt lat="46.073665" lon="13.536755"><ele>163.0</ele><time>2026-05-03T11:53:21.205Z</time></trkpt><trkpt lat="46.07378" lon="13.5369083"><ele>163.0</ele><time>2026-05-03T11:53:22.205Z</time></trkpt><trkpt lat="46.0738683" lon="13.5370717"><ele>160.66666666666669</ele><time>2026-05-03T11:53:23.205Z</time></trkpt><trkpt lat="46.0739417" lon="13.5372533"><ele>158.33333333333334</ele><time>2026-05-03T11:53:24.205Z</time></trkpt><trkpt lat="46.0740217" lon="13.5374283"><ele>156.0</ele><time>2026-05-03T11:53:25.205Z</time></trkpt><trkpt lat="46.0741417" lon="13.537585"><ele>156.0</ele><time>2026-05-03T11:53:26.205Z</time></trkpt><trkpt lat="46.07424" lon="13.5377433"><ele>156.0</ele><time>2026-05-03T11:53:27.205Z</time></trkpt><trkpt lat="46.0743467" lon="13.5379"><ele>156.0</ele><time>2026-05-03T11:53:28.205Z</time></trkpt><trkpt lat="46.0744833" lon="13.5380567"><ele>162.66666666666666</ele><time>2026-05-03T11:53:29.205Z</time></trkpt><trkpt lat="46.0746317" lon="13.538215"><ele>169.33333333333331</ele><time>2026-05-03T11:53:30.205Z</time></trkpt><trkpt lat="46.0747817" lon="13.538365"><ele>176.0</ele><time>2026-05-03T11:53:31.205Z</time></trkpt><trkpt lat="46.0749217" lon="13.5385217"><ele>172.33333333333331</ele><time>2026-05-03T11:53:32.205Z</time></trkpt><trkpt lat="46.0750533" lon="13.538685"><ele>168.66666666666666</ele><time>2026-05-03T11:53:33.205Z</time></trkpt><trkpt lat="46.075185" lon="13.5388417"><ele>165.0</ele><time>2026-05-03T11:53:34.205Z</time></trkpt><trkpt lat="46.0753217" lon="13.5389867"><ele>165.0</ele><time>2026-05-03T11:53:35.205Z</time></trkpt><trkpt lat="46.075455" lon="13.539135"><ele>165.0</ele><time>2026-05-03T11:53:36.205Z</time></trkpt><trkpt lat="46.0755917" lon="13.5392783"><ele>165.0</ele><time>2026-05-03T11:53:37.205Z</time></trkpt><trkpt lat="46.0757283" lon="13.5394083"><ele>165.5</ele><time>2026-05-03T11:53:38.205Z</time></trkpt><trkpt lat="46.0758567" lon="13.53953"><ele>166.0</ele><time>2026-05-03T11:53:39.205Z</time></trkpt><trkpt lat="46.07597" lon="13.5396417"><ele>166.5</ele><time>2026-05-03T11:53:40.205Z</time></trkpt><trkpt lat="46.0760783" lon="13.5397467"><ele>167.0</ele><time>2026-05-03T11:53:41.205Z</time></trkpt><trkpt lat="46.0761683" lon="13.5398517"><ele>167.0</ele><time>2026-05-03T11:53:42.204Z</time></trkpt><trkpt lat="46.0762483" lon="13.5399533"><ele>167.0</ele><time>2026-05-03T11:53:43.204Z</time></trkpt><trkpt lat="46.0763117" lon="13.5400617"><ele>167.0</ele><time>2026-05-03T11:53:44.204Z</time></trkpt><trkpt lat="46.0763583" lon="13.540175"><ele>167.0</ele><time>2026-05-03T11:53:45.204Z</time></trkpt><trkpt lat="46.0763917" lon="13.5403167"><ele>167.0</ele><time>2026-05-03T11:53:46.204Z</time></trkpt><trkpt lat="46.076425" lon="13.5405"><ele>172.8</ele><time>2026-05-03T11:53:47.205Z</time></trkpt><trkpt lat="46.0764433" lon="13.5406717"><ele>178.6</ele><time>2026-05-03T11:53:48.204Z</time></trkpt><trkpt lat="46.0764567" lon="13.5408233"><ele>184.4</ele><time>2026-05-03T11:53:49.204Z</time></trkpt><trkpt lat="46.07647" lon="13.5409533"><ele>190.20000000000002</ele><time>2026-05-03T11:53:50.204Z</time></trkpt><trkpt lat="46.0764517" lon="13.5410867"><ele>196.0</ele><time>2026-05-03T11:53:51.204Z</time></trkpt><trkpt lat="46.0764283" lon="13.54124"><ele>201.75</ele><time>2026-05-03T11:53:52.205Z</time></trkpt><trkpt lat="46.07643" lon="13.54138"><ele>207.5</ele><time>2026-05-03T11:53:53.204Z</time></trkpt><trkpt lat="46.076455" lon="13.54154"><ele>213.25</ele><time>2026-05-03T11:53:54.204Z</time></trkpt><trkpt lat="46.07651" lon="13.5417317"><ele>219.0</ele><time>2026-05-03T11:53:55.204Z</time></trkpt><trkpt lat="46.0765817" lon="13.5419183"><ele>204.33333333333334</ele><time>2026-05-03T11:53:56.204Z</time></trkpt><trkpt lat="46.07667" lon="13.5421033"><ele>189.66666666666669</ele><time>2026-05-03T11:53:57.204Z</time></trkpt><trkpt lat="46.0767617" lon="13.5422883"><ele>175.0</ele><time>2026-05-03T11:53:58.204Z</time></trkpt><trkpt lat="46.0768467" lon="13.542455"><ele>175.0</ele><time>2026-05-03T11:53:59.204Z</time></trkpt><trkpt lat="46.0769433" lon="13.5426"><ele>175.0</ele><time>2026-05-03T11:54:00.204Z</time></trkpt><trkpt lat="46.0770333" lon="13.5427283"><ele>175.0</ele><time>2026-05-03T11:54:01.204Z</time></trkpt><trkpt lat="46.0771333" lon="13.542855"><ele>175.0</ele><time>2026-05-03T11:54:02.205Z</time></trkpt><trkpt lat="46.07724" lon="13.5429567"><ele>173.75</ele><time>2026-05-03T11:54:03.204Z</time></trkpt><trkpt lat="46.077355" lon="13.54305"><ele>172.5</ele><time>2026-05-03T11:54:04.204Z</time></trkpt><trkpt lat="46.0774883" lon="13.5431333"><ele>171.25</ele><time>2026-05-03T11:54:05.204Z</time></trkpt><trkpt lat="46.0776" lon="13.5432133"><ele>170.0</ele><time>2026-05-03T11:54:06.204Z</time></trkpt><trkpt lat="46.07771" lon="13.5432917"><ele>170.0</ele><time>2026-05-03T11:54:07.204Z</time></trkpt><trkpt lat="46.077825" lon="13.5433633"><ele>170.0</ele><time>2026-05-03T11:54:08.204Z</time></trkpt><trkpt lat="46.077945" lon="13.54342"><ele>170.0</ele><time>2026-05-03T11:54:09.204Z</time></trkpt><trkpt lat="46.078085" lon="13.5434667"><ele>170.0</ele><time>2026-05-03T11:54:10.204Z</time></trkpt><trkpt lat="46.0782417" lon="13.5435"><ele>166.66666666666666</ele><time>2026-05-03T11:54:11.204Z</time></trkpt><trkpt lat="46.0784083" lon="13.5435183"><ele>163.33333333333334</ele><time>2026-05-03T11:54:12.204Z</time></trkpt><trkpt lat="46.0785717" lon="13.5435367"><ele>160.0</ele><time>2026-05-03T11:54:13.204Z</time></trkpt><trkpt lat="46.0787333" lon="13.54357"><ele>160.0</ele><time>2026-05-03T11:54:14.205Z</time></trkpt><trkpt lat="46.0789033" lon="13.5436067"><ele>160.0</ele><time>2026-05-03T11:54:15.204Z</time></trkpt><trkpt lat="46.07907" lon="13.5436467"><ele>160.0</ele><time>2026-05-03T11:54:16.204Z</time></trkpt><trkpt lat="46.0792417" lon="13.5436883"><ele>167.0</ele><time>2026-05-03T11:54:17.204Z</time></trkpt><trkpt lat="46.0794117" lon="13.54373"><ele>174.0</ele><time>2026-05-03T11:54:18.204Z</time></trkpt><trkpt lat="46.0795883" lon="13.5437717"><ele>181.0</ele><time>2026-05-03T11:54:19.204Z</time></trkpt><trkpt lat="46.0797783" lon="13.54383"><ele>178.33333333333334</ele><time>2026-05-03T11:54:20.204Z</time></trkpt><trkpt lat="46.0799367" lon="13.543895"><ele>175.66666666666666</ele><time>2026-05-03T11:54:21.204Z</time></trkpt><trkpt lat="46.0801217" lon="13.5439517"><ele>173.0</ele><time>2026-05-03T11:54:22.204Z</time></trkpt><trkpt lat="46.0802883" lon="13.5440067"><ele>173.0</ele><time>2026-05-03T11:54:23.204Z</time></trkpt><trkpt lat="46.0804533" lon="13.5440633"><ele>173.0</ele><time>2026-05-03T11:54:24.204Z</time></trkpt><trkpt lat="46.0806033" lon="13.544125"><ele>173.0</ele><time>2026-05-03T11:54:25.204Z</time></trkpt><trkpt lat="46.0807417" lon="13.5441817"><ele>170.5</ele><time>2026-05-03T11:54:26.204Z</time></trkpt><trkpt lat="46.080865" lon="13.54422"><ele>168.0</ele><time>2026-05-03T11:54:27.204Z</time></trkpt><trkpt lat="46.0809867" lon="13.5442533"><ele>165.5</ele><time>2026-05-03T11:54:28.204Z</time></trkpt><trkpt lat="46.0811083" lon="13.544265"><ele>163.0</ele><time>2026-05-03T11:54:29.204Z</time></trkpt><trkpt lat="46.0812167" lon="13.5442733"><ele>163.0</ele><time>2026-05-03T11:54:30.204Z</time></trkpt><trkpt lat="46.0813217" lon="13.544285"><ele>163.0</ele><time>2026-05-03T11:54:31.204Z</time></trkpt><trkpt lat="46.08142" lon="13.5443"><ele>163.0</ele><time>2026-05-03T11:54:32.204Z</time></trkpt><trkpt lat="46.0815167" lon="13.5443067"><ele>163.0</ele><time>2026-05-03T11:54:33.204Z</time></trkpt><trkpt lat="46.0816183" lon="13.54432"><ele>163.0</ele><time>2026-05-03T11:54:34.204Z</time></trkpt><trkpt lat="46.08172" lon="13.5443367"><ele>162.5</ele><time>2026-05-03T11:54:35.204Z</time></trkpt><trkpt lat="46.0818167" lon="13.544345"><ele>162.0</ele><time>2026-05-03T11:54:36.204Z</time></trkpt><trkpt lat="46.0819117" lon="13.54436"><ele>161.5</ele><time>2026-05-03T11:54:37.204Z</time></trkpt><trkpt lat="46.0819867" lon="13.5443917"><ele>161.0</ele><time>2026-05-03T11:54:38.204Z</time></trkpt><trkpt lat="46.082055" lon="13.5444467"><ele>160.5</ele><time>2026-05-03T11:54:39.204Z</time></trkpt><trkpt lat="46.0821033" lon="13.5445367"><ele>160.0</ele><time>2026-05-03T11:54:40.204Z</time></trkpt><trkpt lat="46.0821383" lon="13.54465"><ele>164.8</ele><time>2026-05-03T11:54:41.204Z</time></trkpt><trkpt lat="46.082145" lon="13.5447983"><ele>169.6</ele><time>2026-05-03T11:54:42.204Z</time></trkpt><trkpt lat="46.0821383" lon="13.544965"><ele>174.39999999999998</ele><time>2026-05-03T11:54:43.204Z</time></trkpt><trkpt lat="46.08214" lon="13.5451183"><ele>179.2</ele><time>2026-05-03T11:54:44.204Z</time></trkpt><trkpt lat="46.082155" lon="13.5452383"><ele>184.0</ele><time>2026-05-03T11:54:45.204Z</time></trkpt><trkpt lat="46.0821833" lon="13.545355"><ele>185.79999999999998</ele><time>2026-05-03T11:54:46.204Z</time></trkpt><trkpt lat="46.0822133" lon="13.54547"><ele>187.6</ele><time>2026-05-03T11:54:47.204Z</time></trkpt><trkpt lat="46.0822733" lon="13.54559"><ele>189.4</ele><time>2026-05-03T11:54:48.204Z</time></trkpt><trkpt lat="46.082345" lon="13.5457"><ele>191.2</ele><time>2026-05-03T11:54:49.204Z</time></trkpt><trkpt lat="46.0824167" lon="13.545815"><ele>193.0</ele><time>2026-05-03T11:54:50.204Z</time></trkpt><trkpt lat="46.0824767" lon="13.5459383"><ele>187.25</ele><time>2026-05-03T11:54:51.204Z</time></trkpt><trkpt lat="46.0825167" lon="13.54608"><ele>181.5</ele><time>2026-05-03T11:54:52.204Z</time></trkpt><trkpt lat="46.0825317" lon="13.54625"><ele>175.75</ele><time>2026-05-03T11:54:53.204Z</time></trkpt><trkpt lat="46.0825567" lon="13.5464317"><ele>170.0</ele><time>2026-05-03T11:54:54.204Z</time></trkpt><trkpt lat="46.0825617" lon="13.5466083"><ele>170.0</ele><time>2026-05-03T11:54:55.204Z</time></trkpt><trkpt lat="46.0825783" lon="13.5467833"><ele>170.0</ele><time>2026-05-03T11:54:56.204Z</time></trkpt><trkpt lat="46.08259" lon="13.5469633"><ele>170.0</ele><time>2026-05-03T11:54:57.204Z</time></trkpt><trkpt lat="46.082585" lon="13.547145"><ele>170.0</ele><time>2026-05-03T11:54:58.204Z</time></trkpt><trkpt lat="46.0825767" lon="13.5473317"><ele>169.5</ele><time>2026-05-03T11:54:59.204Z</time></trkpt><trkpt lat="46.0825667" lon="13.5475183"><ele>169.0</ele><time>2026-05-03T11:55:00.204Z</time></trkpt><trkpt lat="46.0825417" lon="13.5477017"><ele>168.5</ele><time>2026-05-03T11:55:01.204Z</time></trkpt><trkpt lat="46.0824917" lon="13.5478767"><ele>168.0</ele><time>2026-05-03T11:55:02.204Z</time></trkpt><trkpt lat="46.0824533" lon="13.5480417"><ele>179.25</ele><time>2026-05-03T11:55:03.204Z</time></trkpt><trkpt lat="46.082405" lon="13.5482083"><ele>190.5</ele><time>2026-05-03T11:55:04.204Z</time></trkpt><trkpt lat="46.0823383" lon="13.548375"><ele>201.75</ele><time>2026-05-03T11:55:05.204Z</time></trkpt><trkpt lat="46.0822733" lon="13.5485617"><ele>213.0</ele><time>2026-05-03T11:55:06.204Z</time></trkpt><trkpt lat="46.082205" lon="13.5487417"><ele>213.0</ele><time>2026-05-03T11:55:07.204Z</time></trkpt><trkpt lat="46.0821283" lon="13.54891"><ele>213.0</ele><time>2026-05-03T11:55:08.205Z</time></trkpt><trkpt lat="46.0820517" lon="13.5490533"><ele>213.0</ele><time>2026-05-03T11:55:09.204Z</time></trkpt><trkpt lat="46.08198" lon="13.54919"><ele>213.0</ele><time>2026-05-03T11:55:10.204Z</time></trkpt><trkpt lat="46.081915" lon="13.5493183"><ele>213.0</ele><time>2026-05-03T11:55:11.204Z</time></trkpt><trkpt lat="46.0818533" lon="13.5494583"><ele>213.0</ele><time>2026-05-03T11:55:12.204Z</time></trkpt><trkpt lat="46.0818183" lon="13.54961"><ele>213.0</ele><time>2026-05-03T11:55:13.204Z</time></trkpt><trkpt lat="46.0817667" lon="13.5497517"><ele>213.0</ele><time>2026-05-03T11:55:14.204Z</time></trkpt><trkpt lat="46.08173" lon="13.549895"><ele>213.0</ele><time>2026-05-03T11:55:15.204Z</time></trkpt><trkpt lat="46.0817283" lon="13.5500567"><ele>212.60000000000002</ele><time>2026-05-03T11:55:16.204Z</time></trkpt><trkpt lat="46.0817417" lon="13.5502233"><ele>212.20000000000002</ele><time>2026-05-03T11:55:17.204Z</time></trkpt><trkpt lat="46.0817567" lon="13.550375"><ele>211.8</ele><time>2026-05-03T11:55:18.204Z</time></trkpt><trkpt lat="46.08178" lon="13.5505083"><ele>211.4</ele><time>2026-05-03T11:55:19.204Z</time></trkpt><trkpt lat="46.0818183" lon="13.5506317"><ele>211.0</ele><time>2026-05-03T11:55:20.204Z</time></trkpt><trkpt lat="46.08189" lon="13.5507517"><ele>217.20000000000002</ele><time>2026-05-03T11:55:21.204Z</time></trkpt><trkpt lat="46.081945" lon="13.5508617"><ele>223.4</ele><time>2026-05-03T11:55:22.204Z</time></trkpt><trkpt lat="46.0820167" lon="13.5509367"><ele>229.6</ele><time>2026-05-03T11:55:23.204Z</time></trkpt><trkpt lat="46.0821" lon="13.5510067"><ele>235.8</ele><time>2026-05-03T11:55:24.204Z</time></trkpt><trkpt lat="46.08219" lon="13.551105"><ele>242.0</ele><time>2026-05-03T11:55:25.205Z</time></trkpt><trkpt lat="46.0822917" lon="13.551215"><ele>247.75</ele><time>2026-05-03T11:55:26.204Z</time></trkpt><trkpt lat="46.0824033" lon="13.5513367"><ele>253.5</ele><time>2026-05-03T11:55:27.204Z</time></trkpt><trkpt lat="46.08251" lon="13.5514533"><ele>259.25</ele><time>2026-05-03T11:55:28.204Z</time></trkpt><trkpt lat="46.0826183" lon="13.55158"><ele>265.0</ele><time>2026-05-03T11:55:29.204Z</time></trkpt><trkpt lat="46.0827217" lon="13.5516783"><ele>245.0</ele><time>2026-05-03T11:55:30.204Z</time></trkpt><trkpt lat="46.0828167" lon="13.5517633"><ele>225.0</ele><time>2026-05-03T11:55:31.204Z</time></trkpt><trkpt lat="46.0829117" lon="13.551835"><ele>205.0</ele><time>2026-05-03T11:55:32.204Z</time></trkpt><trkpt lat="46.0830233" lon="13.55192"><ele>185.0</ele><time>2026-05-03T11:55:33.204Z</time></trkpt><trkpt lat="46.08315" lon="13.5520283"><ele>183.75</ele><time>2026-05-03T11:55:34.204Z</time></trkpt><trkpt lat="46.0832517" lon="13.5521333"><ele>182.5</ele><time>2026-05-03T11:55:35.204Z</time></trkpt><trkpt lat="46.0833417" lon="13.5522533"><ele>181.25</ele><time>2026-05-03T11:55:36.204Z</time></trkpt><trkpt lat="46.0834233" lon="13.5523683"><ele>180.0</ele><time>2026-05-03T11:55:37.204Z</time></trkpt><trkpt lat="46.0834917" lon="13.5524717"><ele>180.0</ele><time>2026-05-03T11:55:38.204Z</time></trkpt><trkpt lat="46.0835433" lon="13.5525817"><ele>180.0</ele><time>2026-05-03T11:55:39.204Z</time></trkpt><trkpt lat="46.0835767" lon="13.5526883"><ele>180.0</ele><time>2026-05-03T11:55:40.204Z</time></trkpt><trkpt lat="46.0835833" lon="13.552795"><ele>180.0</ele><time>2026-05-03T11:55:41.204Z</time></trkpt><trkpt lat="46.0835633" lon="13.5529083"><ele>180.0</ele><time>2026-05-03T11:55:42.205Z</time></trkpt><trkpt lat="46.0835217" lon="13.5530117"><ele>180.0</ele><time>2026-05-03T11:55:43.204Z</time></trkpt><trkpt lat="46.08347" lon="13.5531433"><ele>184.25</ele><time>2026-05-03T11:55:44.204Z</time></trkpt><trkpt lat="46.0834233" lon="13.5533117"><ele>188.5</ele><time>2026-05-03T11:55:45.204Z</time></trkpt><trkpt lat="46.0833917" lon="13.5535167"><ele>192.75</ele><time>2026-05-03T11:55:46.204Z</time></trkpt><trkpt lat="46.0833767" lon="13.5537317"><ele>197.0</ele><time>2026-05-03T11:55:47.205Z</time></trkpt><trkpt lat="46.083375" lon="13.5539417"><ele>197.33333333333334</ele><time>2026-05-03T11:55:48.204Z</time></trkpt><trkpt lat="46.083395" lon="13.5541733"><ele>197.66666666666669</ele><time>2026-05-03T11:55:49.204Z</time></trkpt><trkpt lat="46.083415" lon="13.5544083"><ele>198.0</ele><time>2026-05-03T11:55:50.204Z</time></trkpt><trkpt lat="46.08343" lon="13.5546317"><ele>198.0</ele><time>2026-05-03T11:55:51.204Z</time></trkpt><trkpt lat="46.08345" lon="13.554835"><ele>198.0</ele><time>2026-05-03T11:55:52.204Z</time></trkpt><trkpt lat="46.0834667" lon="13.5550183"><ele>198.0</ele><time>2026-05-03T11:55:53.204Z</time></trkpt><trkpt lat="46.083485" lon="13.5551817"><ele>198.0</ele><time>2026-05-03T11:55:54.204Z</time></trkpt><trkpt lat="46.0835233" lon="13.5553317"><ele>198.75</ele><time>2026-05-03T11:55:55.204Z</time></trkpt><trkpt lat="46.0835383" lon="13.55549"><ele>199.5</ele><time>2026-05-03T11:55:56.204Z</time></trkpt><trkpt lat="46.0835683" lon="13.5556483"><ele>200.25</ele><time>2026-05-03T11:55:57.204Z</time></trkpt><trkpt lat="46.0836183" lon="13.5558033"><ele>201.0</ele><time>2026-05-03T11:55:58.204Z</time></trkpt><trkpt lat="46.0837" lon="13.55595"><ele>201.0</ele><time>2026-05-03T11:55:59.204Z</time></trkpt><trkpt lat="46.0837867" lon="13.5561"><ele>201.0</ele><time>2026-05-03T11:56:00.204Z</time></trkpt><trkpt lat="46.0838883" lon="13.556245"><ele>201.0</ele><time>2026-05-03T11:56:01.204Z</time></trkpt><trkpt lat="46.0839817" lon="13.5563883"><ele>201.0</ele><time>2026-05-03T11:56:02.204Z</time></trkpt><trkpt lat="46.0840783" lon="13.5565417"><ele>197.25</ele><time>2026-05-03T11:56:03.204Z</time></trkpt><trkpt lat="46.0841317" lon="13.5566933"><ele>193.5</ele><time>2026-05-03T11:56:04.204Z</time></trkpt><trkpt lat="46.08417" lon="13.5568433"><ele>189.75</ele><time>2026-05-03T11:56:05.204Z</time></trkpt><trkpt lat="46.0842083" lon="13.556995"><ele>186.0</ele><time>2026-05-03T11:56:06.204Z</time></trkpt><trkpt lat="46.0842167" lon="13.5571533"><ele>186.0</ele><time>2026-05-03T11:56:07.204Z</time></trkpt><trkpt lat="46.0842467" lon="13.557305"><ele>186.0</ele><time>2026-05-03T11:56:08.204Z</time></trkpt><trkpt lat="46.0842783" lon="13.55747"><ele>186.0</ele><time>2026-05-03T11:56:09.204Z</time></trkpt><trkpt lat="46.084345" lon="13.5576083"><ele>186.0</ele><time>2026-05-03T11:56:10.204Z</time></trkpt><trkpt lat="46.0844267" lon="13.5577267"><ele>192.25</ele><time>2026-05-03T11:56:11.204Z</time></trkpt><trkpt lat="46.0845383" lon="13.5578733"><ele>198.5</ele><time>2026-05-03T11:56:12.204Z</time></trkpt><trkpt lat="46.0846467" lon="13.5580283"><ele>204.75</ele><time>2026-05-03T11:56:13.204Z</time></trkpt><trkpt lat="46.0847467" lon="13.558165"><ele>211.0</ele><time>2026-05-03T11:56:14.204Z</time></trkpt><trkpt lat="46.084835" lon="13.5583033"><ele>211.0</ele><time>2026-05-03T11:56:15.204Z</time></trkpt><trkpt lat="46.0849117" lon="13.55843"><ele>211.0</ele><time>2026-05-03T11:56:16.204Z</time></trkpt><trkpt lat="46.0849767" lon="13.5585517"><ele>211.0</ele><time>2026-05-03T11:56:17.204Z</time></trkpt><trkpt lat="46.0850283" lon="13.5586817"><ele>211.0</ele><time>2026-05-03T11:56:18.204Z</time></trkpt><trkpt lat="46.0850683" lon="13.5588283"><ele>211.0</ele><time>2026-05-03T11:56:19.204Z</time></trkpt><trkpt lat="46.0851117" lon="13.5589867"><ele>212.75</ele><time>2026-05-03T11:56:20.204Z</time></trkpt><trkpt lat="46.0851467" lon="13.5591567"><ele>214.5</ele><time>2026-05-03T11:56:21.204Z</time></trkpt><trkpt lat="46.085175" lon="13.559335"><ele>216.25</ele><time>2026-05-03T11:56:22.204Z</time></trkpt><trkpt lat="46.0851933" lon="13.55951"><ele>218.0</ele><time>2026-05-03T11:56:23.204Z</time></trkpt><trkpt lat="46.0852067" lon="13.559685"><ele>218.0</ele><time>2026-05-03T11:56:24.204Z</time></trkpt><trkpt lat="46.0852417" lon="13.5598717"><ele>218.0</ele><time>2026-05-03T11:56:25.204Z</time></trkpt><trkpt lat="46.0852967" lon="13.56006"><ele>218.0</ele><time>2026-05-03T11:56:26.204Z</time></trkpt><trkpt lat="46.08537" lon="13.5602383"><ele>218.0</ele><time>2026-05-03T11:56:27.204Z</time></trkpt><trkpt lat="46.0854433" lon="13.560395"><ele>225.0</ele><time>2026-05-03T11:56:28.204Z</time></trkpt><trkpt lat="46.0855183" lon="13.5605383"><ele>232.0</ele><time>2026-05-03T11:56:29.204Z</time></trkpt><trkpt lat="46.0855833" lon="13.56068"><ele>239.0</ele><time>2026-05-03T11:56:30.204Z</time></trkpt><trkpt lat="46.08566" lon="13.5608183"><ele>246.0</ele><time>2026-05-03T11:56:31.204Z</time></trkpt><trkpt lat="46.0857317" lon="13.5609617"><ele>237.25</ele><time>2026-05-03T11:56:32.204Z</time></trkpt><trkpt lat="46.0857967" lon="13.5611067"><ele>228.5</ele><time>2026-05-03T11:56:33.204Z</time></trkpt><trkpt lat="46.08585" lon="13.5612667"><ele>219.75</ele><time>2026-05-03T11:56:34.204Z</time></trkpt><trkpt lat="46.0858833" lon="13.561445"><ele>211.0</ele><time>2026-05-03T11:56:35.204Z</time></trkpt><trkpt lat="46.085925" lon="13.5616133"><ele>211.0</ele><time>2026-05-03T11:56:36.204Z</time></trkpt><trkpt lat="46.0859767" lon="13.5617633"><ele>211.0</ele><time>2026-05-03T11:56:37.204Z</time></trkpt><trkpt lat="46.0860417" lon="13.5619067"><ele>211.0</ele><time>2026-05-03T11:56:38.204Z</time></trkpt><trkpt lat="46.0861167" lon="13.5620383"><ele>211.0</ele><time>2026-05-03T11:56:39.204Z</time></trkpt><trkpt lat="46.0861867" lon="13.5621567"><ele>215.0</ele><time>2026-05-03T11:56:40.204Z</time></trkpt><trkpt lat="46.0862617" lon="13.5622783"><ele>219.0</ele><time>2026-05-03T11:56:41.204Z</time></trkpt><trkpt lat="46.086345" lon="13.5624033"><ele>223.0</ele><time>2026-05-03T11:56:42.204Z</time></trkpt><trkpt lat="46.0864317" lon="13.56254"><ele>227.0</ele><time>2026-05-03T11:56:43.204Z</time></trkpt><trkpt lat="46.0865133" lon="13.56269"><ele>222.25</ele><time>2026-05-03T11:56:44.204Z</time></trkpt><trkpt lat="46.0865967" lon="13.5628517"><ele>217.5</ele><time>2026-05-03T11:56:45.204Z</time></trkpt><trkpt lat="46.0866717" lon="13.5630217"><ele>212.75</ele><time>2026-05-03T11:56:46.204Z</time></trkpt><trkpt lat="46.0867317" lon="13.5632067"><ele>208.0</ele><time>2026-05-03T11:56:47.204Z</time></trkpt><trkpt lat="46.0867767" lon="13.563385"><ele>208.0</ele><time>2026-05-03T11:56:48.204Z</time></trkpt><trkpt lat="46.0868167" lon="13.5635733"><ele>208.0</ele><time>2026-05-03T11:56:49.204Z</time></trkpt><trkpt lat="46.0868467" lon="13.5637583"><ele>208.0</ele><time>2026-05-03T11:56:50.204Z</time></trkpt><trkpt lat="46.08688" lon="13.5639367"><ele>208.0</ele><time>2026-05-03T11:56:51.204Z</time></trkpt><trkpt lat="46.0869283" lon="13.5641033"><ele>209.0</ele><time>2026-05-03T11:56:52.204Z</time></trkpt><trkpt lat="46.08698" lon="13.56426"><ele>210.0</ele><time>2026-05-03T11:56:53.204Z</time></trkpt><trkpt lat="46.0870483" lon="13.5643867"><ele>211.0</ele><time>2026-05-03T11:56:54.204Z</time></trkpt><trkpt lat="46.0871033" lon="13.5645033"><ele>212.0</ele><time>2026-05-03T11:56:55.204Z</time></trkpt><trkpt lat="46.0871317" lon="13.5646133"><ele>213.0</ele><time>2026-05-03T11:56:56.204Z</time></trkpt><trkpt lat="46.08714" lon="13.5647433"><ele>215.25</ele><time>2026-05-03T11:56:57.204Z</time></trkpt><trkpt lat="46.0871317" lon="13.5648833"><ele>217.5</ele><time>2026-05-03T11:56:58.204Z</time></trkpt><trkpt lat="46.0871067" lon="13.565065"><ele>219.75</ele><time>2026-05-03T11:56:59.204Z</time></trkpt><trkpt lat="46.0870933" lon="13.5652683"><ele>222.0</ele><time>2026-05-03T11:57:00.204Z</time></trkpt><trkpt lat="46.0870833" lon="13.5654817"><ele>222.25</ele><time>2026-05-03T11:57:01.204Z</time></trkpt><trkpt lat="46.08707" lon="13.5657067"><ele>222.5</ele><time>2026-05-03T11:57:02.204Z</time></trkpt><trkpt lat="46.087055" lon="13.5659167"><ele>222.75</ele><time>2026-05-03T11:57:03.204Z</time></trkpt><trkpt lat="46.0870533" lon="13.566115"><ele>223.0</ele><time>2026-05-03T11:57:04.204Z</time></trkpt><trkpt lat="46.0870667" lon="13.5662967"><ele>223.0</ele><time>2026-05-03T11:57:05.204Z</time></trkpt><trkpt lat="46.08707" lon="13.5664567"><ele>223.0</ele><time>2026-05-03T11:57:06.204Z</time></trkpt><trkpt lat="46.0870983" lon="13.5666317"><ele>223.0</ele><time>2026-05-03T11:57:07.204Z</time></trkpt><trkpt lat="46.0871283" lon="13.5668033"><ele>223.0</ele><time>2026-05-03T11:57:08.204Z</time></trkpt><trkpt lat="46.087135" lon="13.5669867"><ele>222.75</ele><time>2026-05-03T11:57:09.204Z</time></trkpt><trkpt lat="46.08715" lon="13.5671533"><ele>222.5</ele><time>2026-05-03T11:57:10.204Z</time></trkpt><trkpt lat="46.0871817" lon="13.5673033"><ele>222.25</ele><time>2026-05-03T11:57:11.204Z</time></trkpt><trkpt lat="46.0872167" lon="13.5674533"><ele>222.0</ele><time>2026-05-03T11:57:12.205Z</time></trkpt><trkpt lat="46.087265" lon="13.5676083"><ele>222.0</ele><time>2026-05-03T11:57:13.204Z</time></trkpt><trkpt lat="46.0873283" lon="13.5677683"><ele>222.0</ele><time>2026-05-03T11:57:14.204Z</time></trkpt><trkpt lat="46.087425" lon="13.5679317"><ele>222.0</ele><time>2026-05-03T11:57:15.204Z</time></trkpt><trkpt lat="46.08753" lon="13.568055"><ele>222.0</ele><time>2026-05-03T11:57:16.204Z</time></trkpt><trkpt lat="46.0876633" lon="13.5681867"><ele>220.5</ele><time>2026-05-03T11:57:17.204Z</time></trkpt><trkpt lat="46.0877867" lon="13.5682967"><ele>219.0</ele><time>2026-05-03T11:57:18.204Z</time></trkpt><trkpt lat="46.0879083" lon="13.5684067"><ele>217.5</ele><time>2026-05-03T11:57:19.204Z</time></trkpt><trkpt lat="46.0880033" lon="13.5685233"><ele>216.0</ele><time>2026-05-03T11:57:20.204Z</time></trkpt><trkpt lat="46.0880683" lon="13.5686767"><ele>213.0</ele><time>2026-05-03T11:57:21.204Z</time></trkpt><trkpt lat="46.088125" lon="13.5688467"><ele>210.0</ele><time>2026-05-03T11:57:22.204Z</time></trkpt><trkpt lat="46.0881967" lon="13.569025"><ele>207.0</ele><time>2026-05-03T11:57:23.204Z</time></trkpt><trkpt lat="46.08825" lon="13.5692117"><ele>204.0</ele><time>2026-05-03T11:57:24.204Z</time></trkpt><trkpt lat="46.0882883" lon="13.5693767"><ele>205.5</ele><time>2026-05-03T11:57:25.204Z</time></trkpt><trkpt lat="46.0883133" lon="13.5695383"><ele>207.0</ele><time>2026-05-03T11:57:26.204Z</time></trkpt><trkpt lat="46.0883267" lon="13.5697117"><ele>208.5</ele><time>2026-05-03T11:57:27.204Z</time></trkpt><trkpt lat="46.08832" lon="13.5698883"><ele>210.0</ele><time>2026-05-03T11:57:28.204Z</time></trkpt><trkpt lat="46.0883067" lon="13.57007"><ele>210.0</ele><time>2026-05-03T11:57:29.204Z</time></trkpt><trkpt lat="46.0882783" lon="13.5702817"><ele>210.0</ele><time>2026-05-03T11:57:30.204Z</time></trkpt><trkpt lat="46.0882517" lon="13.5704983"><ele>210.0</ele><time>2026-05-03T11:57:31.204Z</time></trkpt><trkpt lat="46.0882233" lon="13.5707017"><ele>210.0</ele><time>2026-05-03T11:57:32.204Z</time></trkpt><trkpt lat="46.0881917" lon="13.5709133"><ele>224.33333333333331</ele><time>2026-05-03T11:57:33.204Z</time></trkpt><trkpt lat="46.0881567" lon="13.57112"><ele>238.66666666666666</ele><time>2026-05-03T11:57:34.204Z</time></trkpt><trkpt lat="46.0881017" lon="13.57133"><ele>253.0</ele><time>2026-05-03T11:57:35.204Z</time></trkpt><trkpt lat="46.088065" lon="13.5715433"><ele>253.0</ele><time>2026-05-03T11:57:36.204Z</time></trkpt><trkpt lat="46.0880217" lon="13.57174"><ele>253.0</ele><time>2026-05-03T11:57:37.204Z</time></trkpt><trkpt lat="46.087975" lon="13.5719283"><ele>253.0</ele><time>2026-05-03T11:57:38.204Z</time></trkpt><trkpt lat="46.0879367" lon="13.572105"><ele>253.0</ele><time>2026-05-03T11:57:39.204Z</time></trkpt><trkpt lat="46.0879067" lon="13.5722667"><ele>249.75</ele><time>2026-05-03T11:57:40.204Z</time></trkpt><trkpt lat="46.0878717" lon="13.5724483"><ele>246.5</ele><time>2026-05-03T11:57:41.204Z</time></trkpt><trkpt lat="46.0878433" lon="13.5726183"><ele>243.25</ele><time>2026-05-03T11:57:42.204Z</time></trkpt><trkpt lat="46.08781" lon="13.5727817"><ele>240.0</ele><time>2026-05-03T11:57:43.205Z</time></trkpt><trkpt lat="46.08778" lon="13.57293"><ele>237.5</ele><time>2026-05-03T11:57:44.204Z</time></trkpt><trkpt lat="46.0877517" lon="13.5730583"><ele>235.0</ele><time>2026-05-03T11:57:45.204Z</time></trkpt><trkpt lat="46.08774" lon="13.573175"><ele>232.5</ele><time>2026-05-03T11:57:46.204Z</time></trkpt><trkpt lat="46.087735" lon="13.5732767"><ele>230.0</ele><time>2026-05-03T11:57:47.204Z</time></trkpt><trkpt lat="46.087785" lon="13.5734317"><ele>227.5</ele><time>2026-05-03T11:57:49.204Z</time></trkpt><trkpt lat="46.0878483" lon="13.5734683"><ele>225.0</ele><time>2026-05-03T11:57:50.204Z</time></trkpt><trkpt lat="46.08793" lon="13.5734733"><ele>225.0</ele><time>2026-05-03T11:57:51.204Z</time></trkpt><trkpt lat="46.08802" lon="13.5734583"><ele>225.0</ele><time>2026-05-03T11:57:52.204Z</time></trkpt><trkpt lat="46.0881133" lon="13.5734433"><ele>225.0</ele><time>2026-05-03T11:57:53.204Z</time></trkpt><trkpt lat="46.0881983" lon="13.5734533"><ele>225.0</ele><time>2026-05-03T11:57:54.204Z</time></trkpt><trkpt lat="46.0882633" lon="13.5735017"><ele>225.0</ele><time>2026-05-03T11:57:55.204Z</time></trkpt><trkpt lat="46.0883117" lon="13.57357"><ele>225.0</ele><time>2026-05-03T11:57:56.205Z</time></trkpt><trkpt lat="46.0883483" lon="13.573655"><ele>224.6</ele><time>2026-05-03T11:57:57.204Z</time></trkpt><trkpt lat="46.0883783" lon="13.5737583"><ele>224.2</ele><time>2026-05-03T11:57:58.204Z</time></trkpt><trkpt lat="46.0884017" lon="13.5738617"><ele>223.8</ele><time>2026-05-03T11:57:59.204Z</time></trkpt><trkpt lat="46.088445" lon="13.5739367"><ele>223.4</ele><time>2026-05-03T11:58:00.204Z</time></trkpt><trkpt lat="46.0885467" lon="13.5739617"><ele>223.0</ele><time>2026-05-03T11:58:02.204Z</time></trkpt><trkpt lat="46.0886683" lon="13.5738517"><ele>223.0</ele><time>2026-05-03T11:58:04.204Z</time></trkpt><trkpt lat="46.0887417" lon="13.57375"><ele>223.0</ele><time>2026-05-03T11:58:05.204Z</time></trkpt><trkpt lat="46.0888117" lon="13.573665"><ele>223.0</ele><time>2026-05-03T11:58:06.204Z</time></trkpt><trkpt lat="46.08889" lon="13.5736067"><ele>223.0</ele><time>2026-05-03T11:58:07.204Z</time></trkpt><trkpt lat="46.0889733" lon="13.5735933"><ele>223.0</ele><time>2026-05-03T11:58:08.204Z</time></trkpt><trkpt lat="46.08906" lon="13.57363"><ele>222.0</ele><time>2026-05-03T11:58:09.204Z</time></trkpt><trkpt lat="46.0891633" lon="13.57375"><ele>221.0</ele><time>2026-05-03T11:58:10.204Z</time></trkpt><trkpt lat="46.0892667" lon="13.57389"><ele>220.0</ele><time>2026-05-03T11:58:11.204Z</time></trkpt><trkpt lat="46.0893683" lon="13.5740067"><ele>219.0</ele><time>2026-05-03T11:58:12.204Z</time></trkpt><trkpt lat="46.0894567" lon="13.5741017"><ele>219.0</ele><time>2026-05-03T11:58:13.204Z</time></trkpt><trkpt lat="46.089515" lon="13.5742033"><ele>219.0</ele><time>2026-05-03T11:58:14.204Z</time></trkpt><trkpt lat="46.0895467" lon="13.574315"><ele>219.0</ele><time>2026-05-03T11:58:15.204Z</time></trkpt><trkpt lat="46.089555" lon="13.5744267"><ele>219.0</ele><time>2026-05-03T11:58:16.204Z</time></trkpt><trkpt lat="46.08956" lon="13.5745433"><ele>219.0</ele><time>2026-05-03T11:58:17.204Z</time></trkpt><trkpt lat="46.0895817" lon="13.5746483"><ele>219.0</ele><time>2026-05-03T11:58:18.204Z</time></trkpt><trkpt lat="46.0896333" lon="13.5747183"><ele>218.33333333333334</ele><time>2026-05-03T11:58:19.204Z</time></trkpt><trkpt lat="46.089755" lon="13.57477"><ele>217.66666666666669</ele><time>2026-05-03T11:58:21.204Z</time></trkpt><trkpt lat="46.0898183" lon="13.574765"><ele>217.0</ele><time>2026-05-03T11:58:22.204Z</time></trkpt><trkpt lat="46.0898833" lon="13.57476"><ele>216.33333333333334</ele><time>2026-05-03T11:58:23.204Z</time></trkpt><trkpt lat="46.0899567" lon="13.57478"><ele>215.66666666666669</ele><time>2026-05-03T11:58:24.204Z</time></trkpt><trkpt lat="46.0900233" lon="13.5748367"><ele>215.0</ele><time>2026-05-03T11:58:25.204Z</time></trkpt><trkpt lat="46.090075" lon="13.5749283"><ele>215.0</ele><time>2026-05-03T11:58:26.204Z</time></trkpt><trkpt lat="46.0901217" lon="13.575055"><ele>215.0</ele><time>2026-05-03T11:58:27.204Z</time></trkpt><trkpt lat="46.0901867" lon="13.5752167"><ele>215.0</ele><time>2026-05-03T11:58:28.204Z</time></trkpt><trkpt lat="46.0902517" lon="13.57539"><ele>215.0</ele><time>2026-05-03T11:58:29.204Z</time></trkpt><trkpt lat="46.09032" lon="13.5755583"><ele>219.75</ele><time>2026-05-03T11:58:30.204Z</time></trkpt><trkpt lat="46.0903917" lon="13.5757283"><ele>224.5</ele><time>2026-05-03T11:58:31.204Z</time></trkpt><trkpt lat="46.0904617" lon="13.5758917"><ele>229.25</ele><time>2026-05-03T11:58:32.204Z</time></trkpt><trkpt lat="46.0905217" lon="13.576045"><ele>234.0</ele><time>2026-05-03T11:58:33.204Z</time></trkpt><trkpt lat="46.0905833" lon="13.5761883"><ele>236.6</ele><time>2026-05-03T11:58:34.204Z</time></trkpt><trkpt lat="46.0906217" lon="13.5763333"><ele>239.2</ele><time>2026-05-03T11:58:35.204Z</time></trkpt><trkpt lat="46.09067" lon="13.5764633"><ele>241.79999999999998</ele><time>2026-05-03T11:58:36.204Z</time></trkpt><trkpt lat="46.0907217" lon="13.5765617"><ele>244.39999999999998</ele><time>2026-05-03T11:58:37.204Z</time></trkpt><trkpt lat="46.0907967" lon="13.57665"><ele>247.0</ele><time>2026-05-03T11:58:38.204Z</time></trkpt><trkpt lat="46.0908717" lon="13.576695"><ele>240.2</ele><time>2026-05-03T11:58:39.204Z</time></trkpt><trkpt lat="46.0909633" lon="13.5766983"><ele>233.39999999999998</ele><time>2026-05-03T11:58:40.204Z</time></trkpt><trkpt lat="46.0910467" lon="13.57666"><ele>226.60000000000002</ele><time>2026-05-03T11:58:41.204Z</time></trkpt><trkpt lat="46.091125" lon="13.576605"><ele>219.8</ele><time>2026-05-03T11:58:42.204Z</time></trkpt><trkpt lat="46.0911933" lon="13.5765167"><ele>213.0</ele><time>2026-05-03T11:58:43.204Z</time></trkpt><trkpt lat="46.0912717" lon="13.5764183"><ele>213.0</ele><time>2026-05-03T11:58:44.204Z</time></trkpt><trkpt lat="46.0913517" lon="13.5763167"><ele>213.0</ele><time>2026-05-03T11:58:45.204Z</time></trkpt><trkpt lat="46.091435" lon="13.576245"><ele>213.0</ele><time>2026-05-03T11:58:46.204Z</time></trkpt><trkpt lat="46.0915117" lon="13.5762167"><ele>213.0</ele><time>2026-05-03T11:58:47.204Z</time></trkpt><trkpt lat="46.091585" lon="13.5762533"><ele>213.0</ele><time>2026-05-03T11:58:48.204Z</time></trkpt><trkpt lat="46.0916467" lon="13.57633"><ele>213.0</ele><time>2026-05-03T11:58:49.204Z</time></trkpt><trkpt lat="46.0917017" lon="13.5764433"><ele>213.8</ele><time>2026-05-03T11:58:50.204Z</time></trkpt><trkpt lat="46.0917467" lon="13.5765767"><ele>214.60000000000002</ele><time>2026-05-03T11:58:51.204Z</time></trkpt><trkpt lat="46.0917883" lon="13.5767117"><ele>215.39999999999998</ele><time>2026-05-03T11:58:52.204Z</time></trkpt><trkpt lat="46.09183" lon="13.57683"><ele>216.2</ele><time>2026-05-03T11:58:53.204Z</time></trkpt><trkpt lat="46.0918983" lon="13.5769217"><ele>217.0</ele><time>2026-05-03T11:58:54.203Z</time></trkpt><trkpt lat="46.0919733" lon="13.576995"><ele>220.2</ele><time>2026-05-03T11:58:55.203Z</time></trkpt><trkpt lat="46.0920517" lon="13.5770667"><ele>223.39999999999998</ele><time>2026-05-03T11:58:56.203Z</time></trkpt><trkpt lat="46.0921483" lon="13.577125"><ele>226.60000000000002</ele><time>2026-05-03T11:58:57.203Z</time></trkpt><trkpt lat="46.09224" lon="13.57721"><ele>229.8</ele><time>2026-05-03T11:58:58.203Z</time></trkpt><trkpt lat="46.0923433" lon="13.5772883"><ele>233.0</ele><time>2026-05-03T11:58:59.203Z</time></trkpt><trkpt lat="46.0924317" lon="13.5773917"><ele>233.0</ele><time>2026-05-03T11:59:00.203Z</time></trkpt><trkpt lat="46.092525" lon="13.5774967"><ele>233.0</ele><time>2026-05-03T11:59:01.203Z</time></trkpt><trkpt lat="46.092615" lon="13.5776017"><ele>233.0</ele><time>2026-05-03T11:59:02.203Z</time></trkpt><trkpt lat="46.0927333" lon="13.5776833"><ele>233.0</ele><time>2026-05-03T11:59:03.203Z</time></trkpt><trkpt lat="46.0928483" lon="13.577735"><ele>233.0</ele><time>2026-05-03T11:59:04.203Z</time></trkpt><trkpt lat="46.092965" lon="13.577795"><ele>233.0</ele><time>2026-05-03T11:59:05.203Z</time></trkpt><trkpt lat="46.0930817" lon="13.57785"><ele>233.0</ele><time>2026-05-03T11:59:06.203Z</time></trkpt><trkpt lat="46.0932083" lon="13.5779067"><ele>233.0</ele><time>2026-05-03T11:59:07.203Z</time></trkpt><trkpt lat="46.0933167" lon="13.5779833"><ele>235.8</ele><time>2026-05-03T11:59:08.203Z</time></trkpt><trkpt lat="46.0934267" lon="13.5780633"><ele>238.60000000000002</ele><time>2026-05-03T11:59:09.203Z</time></trkpt><trkpt lat="46.0935333" lon="13.578115"><ele>241.39999999999998</ele><time>2026-05-03T11:59:10.203Z</time></trkpt><trkpt lat="46.0936467" lon="13.5781533"><ele>244.2</ele><time>2026-05-03T11:59:11.203Z</time></trkpt><trkpt lat="46.0937333" lon="13.5781783"><ele>247.0</ele><time>2026-05-03T11:59:12.203Z</time></trkpt><trkpt lat="46.0938367" lon="13.5782383"><ele>247.0</ele><time>2026-05-03T11:59:13.203Z</time></trkpt><trkpt lat="46.0939433" lon="13.57829"><ele>247.0</ele><time>2026-05-03T11:59:14.203Z</time></trkpt><trkpt lat="46.0940483" lon="13.5783317"><ele>247.0</ele><time>2026-05-03T11:59:15.203Z</time></trkpt><trkpt lat="46.0941517" lon="13.5783367"><ele>247.0</ele><time>2026-05-03T11:59:16.203Z</time></trkpt><trkpt lat="46.0942617" lon="13.5782883"><ele>247.0</ele><time>2026-05-03T11:59:17.203Z</time></trkpt><trkpt lat="46.0943567" lon="13.578235"><ele>245.33333333333331</ele><time>2026-05-03T11:59:18.203Z</time></trkpt><trkpt lat="46.094435" lon="13.5781867"><ele>243.66666666666666</ele><time>2026-05-03T11:59:19.203Z</time></trkpt><trkpt lat="46.0945017" lon="13.5781667"><ele>242.0</ele><time>2026-05-03T11:59:20.203Z</time></trkpt><trkpt lat="46.094625" lon="13.5782283"><ele>240.33333333333331</ele><time>2026-05-03T11:59:22.203Z</time></trkpt><trkpt lat="46.09468" lon="13.5783017"><ele>238.66666666666666</ele><time>2026-05-03T11:59:23.203Z</time></trkpt><trkpt lat="46.0947347" lon="13.5783841"><ele>237.0</ele><time>2026-05-03T11:59:24.203Z</time></trkpt><trkpt lat="46.0948015" lon="13.5784571"><ele>237.0</ele><time>2026-05-03T11:59:25.203Z</time></trkpt><trkpt lat="46.0948794" lon="13.578523"><ele>237.0</ele><time>2026-05-03T11:59:26.203Z</time></trkpt><trkpt lat="46.0949699" lon="13.5785973"><ele>237.0</ele><time>2026-05-03T11:59:27.203Z</time></trkpt><trkpt lat="46.0950677" lon="13.5786674"><ele>237.0</ele><time>2026-05-03T11:59:28.204Z</time></trkpt><trkpt lat="46.0951607" lon="13.5787279"><ele>237.0</ele><time>2026-05-03T11:59:29.203Z</time></trkpt><trkpt lat="46.0952246" lon="13.5788083"><ele>239.83333333333334</ele><time>2026-05-03T11:59:30.203Z</time></trkpt><trkpt lat="46.0952723" lon="13.5788858"><ele>242.66666666666669</ele><time>2026-05-03T11:59:31.203Z</time></trkpt><trkpt lat="46.0952874" lon="13.5789762"><ele>245.5</ele><time>2026-05-03T11:59:32.203Z</time></trkpt><trkpt lat="46.0952758" lon="13.5790692"><ele>248.33333333333334</ele><time>2026-05-03T11:59:33.203Z</time></trkpt><trkpt lat="46.0952509" lon="13.5791732"><ele>251.16666666666669</ele><time>2026-05-03T11:59:34.203Z</time></trkpt><trkpt lat="46.0951919" lon="13.579297"><ele>254.0</ele><time>2026-05-03T11:59:35.203Z</time></trkpt><trkpt lat="46.0951193" lon="13.5794449"><ele>252.5</ele><time>2026-05-03T11:59:36.203Z</time></trkpt><trkpt lat="46.0950451" lon="13.5796027"><ele>251.0</ele><time>2026-05-03T11:59:37.204Z</time></trkpt><trkpt lat="46.0949713" lon="13.5797752"><ele>249.5</ele><time>2026-05-03T11:59:38.203Z</time></trkpt><trkpt lat="46.0948939" lon="13.5799464"><ele>248.0</ele><time>2026-05-03T11:59:39.203Z</time></trkpt><trkpt lat="46.0948129" lon="13.5800975"><ele>252.4</ele><time>2026-05-03T11:59:40.203Z</time></trkpt><trkpt lat="46.09473" lon="13.5802251"><ele>256.8</ele><time>2026-05-03T11:59:41.203Z</time></trkpt><trkpt lat="46.0946539" lon="13.580326"><ele>261.2</ele><time>2026-05-03T11:59:42.203Z</time></trkpt><trkpt lat="46.0945898" lon="13.5804053"><ele>265.6</ele><time>2026-05-03T11:59:43.203Z</time></trkpt><trkpt lat="46.0945557" lon="13.5804882"><ele>270.0</ele><time>2026-05-03T11:59:44.203Z</time></trkpt><trkpt lat="46.0945277" lon="13.5806253"><ele>270.0</ele><time>2026-05-03T11:59:46.204Z</time></trkpt><trkpt lat="46.0945388" lon="13.5807481"><ele>270.0</ele><time>2026-05-03T11:59:48.203Z</time></trkpt><trkpt lat="46.0946869" lon="13.5806559"><ele>270.0</ele><time>2026-05-03T11:59:52.203Z</time></trkpt><trkpt lat="46.0947522" lon="13.5805972"><ele>270.0</ele><time>2026-05-03T11:59:53.203Z</time></trkpt><trkpt lat="46.0948404" lon="13.5805301"><ele>270.0</ele><time>2026-05-03T11:59:54.203Z</time></trkpt><trkpt lat="46.0949691" lon="13.58048"><ele>265.0</ele><time>2026-05-03T11:59:55.203Z</time></trkpt><trkpt lat="46.0950792" lon="13.5804698"><ele>260.0</ele><time>2026-05-03T11:59:56.203Z</time></trkpt><trkpt lat="46.0951738" lon="13.5804885"><ele>255.0</ele><time>2026-05-03T11:59:57.203Z</time></trkpt><trkpt lat="46.0952841" lon="13.5805562"><ele>250.0</ele><time>2026-05-03T11:59:58.203Z</time></trkpt><trkpt lat="46.0954056" lon="13.5806367"><ele>250.0</ele><time>2026-05-03T11:59:59.203Z</time></trkpt><trkpt lat="46.0955339" lon="13.5807091"><ele>250.0</ele><time>2026-05-03T12:00:00.203Z</time></trkpt><trkpt lat="46.0956542" lon="13.5807678"><ele>250.0</ele><time>2026-05-03T12:00:01.203Z</time></trkpt><trkpt lat="46.0957715" lon="13.5808321"><ele>250.0</ele><time>2026-05-03T12:00:02.203Z</time></trkpt><trkpt lat="46.0958346" lon="13.5809004"><ele>248.99999999999997</ele><time>2026-05-03T12:00:03.203Z</time></trkpt><trkpt lat="46.095869" lon="13.5809781"><ele>248.0</ele><time>2026-05-03T12:00:04.203Z</time></trkpt><trkpt lat="46.0959246" lon="13.5811645"><ele>247.0</ele><time>2026-05-03T12:00:06.203Z</time></trkpt><trkpt lat="46.0959629" lon="13.5812571"><ele>246.0</ele><time>2026-05-03T12:00:07.203Z</time></trkpt><trkpt lat="46.0960223" lon="13.58132"><ele>244.99999999999997</ele><time>2026-05-03T12:00:08.203Z</time></trkpt><trkpt lat="46.0960953" lon="13.5813569"><ele>244.0</ele><time>2026-05-03T12:00:09.203Z</time></trkpt><trkpt lat="46.0961775" lon="13.5813324"><ele>244.0</ele><time>2026-05-03T12:00:10.203Z</time></trkpt><trkpt lat="46.096255" lon="13.581278"><ele>243.99999999999997</ele><time>2026-05-03T12:00:11.203Z</time></trkpt><trkpt lat="46.0963392" lon="13.5811824"><ele>243.99999999999997</ele><time>2026-05-03T12:00:12.203Z</time></trkpt><trkpt lat="46.0964245" lon="13.5810744"><ele>244.0</ele><time>2026-05-03T12:00:13.203Z</time></trkpt><trkpt lat="46.0965039" lon="13.5809756"><ele>244.0</ele><time>2026-05-03T12:00:14.203Z</time></trkpt><trkpt lat="46.0965888" lon="13.5808999"><ele>244.16666666666666</ele><time>2026-05-03T12:00:15.203Z</time></trkpt><trkpt lat="46.0966651" lon="13.5808624"><ele>244.33333333333331</ele><time>2026-05-03T12:00:16.203Z</time></trkpt><trkpt lat="46.0967386" lon="13.5808565"><ele>244.5</ele><time>2026-05-03T12:00:17.203Z</time></trkpt><trkpt lat="46.0968127" lon="13.5808664"><ele>244.66666666666669</ele><time>2026-05-03T12:00:18.203Z</time></trkpt><trkpt lat="46.0969027" lon="13.5809123"><ele>244.83333333333334</ele><time>2026-05-03T12:00:19.203Z</time></trkpt><trkpt lat="46.0970102" lon="13.5809781"><ele>245.0</ele><time>2026-05-03T12:00:20.203Z</time></trkpt><trkpt lat="46.0971241" lon="13.5810585"><ele>245.0</ele><time>2026-05-03T12:00:21.203Z</time></trkpt><trkpt lat="46.0972323" lon="13.5811375"><ele>245.0</ele><time>2026-05-03T12:00:22.203Z</time></trkpt><trkpt lat="46.0973289" lon="13.5812436"><ele>245.0</ele><time>2026-05-03T12:00:23.203Z</time></trkpt><trkpt lat="46.0973968" lon="13.5813111"><ele>245.0</ele><time>2026-05-03T12:00:24.203Z</time></trkpt><trkpt lat="46.0974404" lon="13.5813873"><ele>245.0</ele><time>2026-05-03T12:00:25.203Z</time></trkpt><trkpt lat="46.097472" lon="13.5814746"><ele>248.25</ele><time>2026-05-03T12:00:26.203Z</time></trkpt><trkpt lat="46.0974737" lon="13.5816005"><ele>251.5</ele><time>2026-05-03T12:00:27.203Z</time></trkpt><trkpt lat="46.0974638" lon="13.5817659"><ele>254.75</ele><time>2026-05-03T12:00:28.203Z</time></trkpt><trkpt lat="46.0974529" lon="13.5819496"><ele>258.0</ele><time>2026-05-03T12:00:29.203Z</time></trkpt><trkpt lat="46.0974417" lon="13.58216"><ele>258.8</ele><time>2026-05-03T12:00:30.204Z</time></trkpt><trkpt lat="46.09748" lon="13.5823017"><ele>259.6</ele><time>2026-05-03T12:00:31.203Z</time></trkpt><trkpt lat="46.097515" lon="13.5824317"><ele>260.4</ele><time>2026-05-03T12:00:32.203Z</time></trkpt><trkpt lat="46.0975333" lon="13.5825533"><ele>261.2</ele><time>2026-05-03T12:00:33.203Z</time></trkpt><trkpt lat="46.0975233" lon="13.5826817"><ele>262.0</ele><time>2026-05-03T12:00:34.203Z</time></trkpt><trkpt lat="46.0974983" lon="13.58281"><ele>262.0</ele><time>2026-05-03T12:00:35.203Z</time></trkpt><trkpt lat="46.09745" lon="13.5829633"><ele>262.0</ele><time>2026-05-03T12:00:36.203Z</time></trkpt><trkpt lat="46.0974133" lon="13.58313"><ele>262.0</ele><time>2026-05-03T12:00:37.203Z</time></trkpt><trkpt lat="46.0973867" lon="13.5833083"><ele>262.0</ele><time>2026-05-03T12:00:38.203Z</time></trkpt><trkpt lat="46.0973767" lon="13.5834833"><ele>266.3333333333333</ele><time>2026-05-03T12:00:39.203Z</time></trkpt><trkpt lat="46.0973783" lon="13.5836483"><ele>270.66666666666663</ele><time>2026-05-03T12:00:40.203Z</time></trkpt><trkpt lat="46.0973683" lon="13.583795"><ele>275.0</ele><time>2026-05-03T12:00:41.203Z</time></trkpt><trkpt lat="46.0973517" lon="13.5839217"><ele>279.3333333333333</ele><time>2026-05-03T12:00:42.203Z</time></trkpt><trkpt lat="46.09734" lon="13.5840267"><ele>283.6666666666667</ele><time>2026-05-03T12:00:43.203Z</time></trkpt><trkpt lat="46.097335" lon="13.5841267"><ele>288.0</ele><time>2026-05-03T12:00:44.203Z</time></trkpt><trkpt lat="46.0973517" lon="13.5843"><ele>288.0</ele><time>2026-05-03T12:00:46.203Z</time></trkpt><trkpt lat="46.0973917" lon="13.5843717"><ele>288.0</ele><time>2026-05-03T12:00:47.203Z</time></trkpt><trkpt lat="46.097495" lon="13.5844317"><ele>288.0</ele><time>2026-05-03T12:00:49.203Z</time></trkpt><trkpt lat="46.0975767" lon="13.58435"><ele>288.0</ele><time>2026-05-03T12:00:51.203Z</time></trkpt><trkpt lat="46.09761" lon="13.5842483"><ele>288.0</ele><time>2026-05-03T12:00:52.203Z</time></trkpt><trkpt lat="46.09767" lon="13.5841317"><ele>281.75</ele><time>2026-05-03T12:00:53.203Z</time></trkpt><trkpt lat="46.0977467" lon="13.5839883"><ele>275.5</ele><time>2026-05-03T12:00:54.203Z</time></trkpt><trkpt lat="46.0978317" lon="13.5838383"><ele>269.25</ele><time>2026-05-03T12:00:55.203Z</time></trkpt><trkpt lat="46.097915" lon="13.5837"><ele>263.0</ele><time>2026-05-03T12:00:56.203Z</time></trkpt><trkpt lat="46.0979867" lon="13.5835833"><ele>262.83333333333337</ele><time>2026-05-03T12:00:57.203Z</time></trkpt><trkpt lat="46.0980533" lon="13.58349"><ele>262.6666666666667</ele><time>2026-05-03T12:00:58.203Z</time></trkpt><trkpt lat="46.0981167" lon="13.5834417"><ele>262.5</ele><time>2026-05-03T12:00:59.203Z</time></trkpt><trkpt lat="46.098225" lon="13.58344"><ele>262.3333333333333</ele><time>2026-05-03T12:01:01.203Z</time></trkpt><trkpt lat="46.098285" lon="13.58348"><ele>262.16666666666663</ele><time>2026-05-03T12:01:02.204Z</time></trkpt><trkpt lat="46.09837" lon="13.583555"><ele>262.0</ele><time>2026-05-03T12:01:03.203Z</time></trkpt><trkpt lat="46.0984717" lon="13.583615"><ele>262.2</ele><time>2026-05-03T12:01:04.203Z</time></trkpt><trkpt lat="46.0985717" lon="13.5836867"><ele>262.4</ele><time>2026-05-03T12:01:05.203Z</time></trkpt><trkpt lat="46.0986683" lon="13.5837733"><ele>262.6</ele><time>2026-05-03T12:01:06.203Z</time></trkpt><trkpt lat="46.0987583" lon="13.5838533"><ele>262.8</ele><time>2026-05-03T12:01:07.203Z</time></trkpt><trkpt lat="46.0988533" lon="13.5839483"><ele>263.0</ele><time>2026-05-03T12:01:08.203Z</time></trkpt><trkpt lat="46.0989333" lon="13.58407"><ele>263.0</ele><time>2026-05-03T12:01:09.203Z</time></trkpt><trkpt lat="46.0989917" lon="13.5841967"><ele>263.0</ele><time>2026-05-03T12:01:10.203Z</time></trkpt><trkpt lat="46.0990433" lon="13.58432"><ele>263.0</ele><time>2026-05-03T12:01:11.203Z</time></trkpt><trkpt lat="46.0990733" lon="13.5844267"><ele>263.0</ele><time>2026-05-03T12:01:12.203Z</time></trkpt><trkpt lat="46.099085" lon="13.5845367"><ele>263.0</ele><time>2026-05-03T12:01:13.203Z</time></trkpt><trkpt lat="46.099085" lon="13.5846433"><ele>263.0</ele><time>2026-05-03T12:01:14.203Z</time></trkpt><trkpt lat="46.0990633" lon="13.5847483"><ele>263.2</ele><time>2026-05-03T12:01:15.203Z</time></trkpt><trkpt lat="46.0989967" lon="13.58485"><ele>263.4</ele><time>2026-05-03T12:01:16.203Z</time></trkpt><trkpt lat="46.098915" lon="13.584935"><ele>263.59999999999997</ele><time>2026-05-03T12:01:17.203Z</time></trkpt><trkpt lat="46.098835" lon="13.5850033"><ele>263.8</ele><time>2026-05-03T12:01:18.203Z</time></trkpt><trkpt lat="46.0987583" lon="13.5850583"><ele>264.0</ele><time>2026-05-03T12:01:19.203Z</time></trkpt><trkpt lat="46.0986633" lon="13.5851717"><ele>264.0</ele><time>2026-05-03T12:01:21.203Z</time></trkpt><trkpt lat="46.0986267" lon="13.585265"><ele>264.0</ele><time>2026-05-03T12:01:22.203Z</time></trkpt><trkpt lat="46.0986117" lon="13.585375"><ele>264.0</ele><time>2026-05-03T12:01:23.203Z</time></trkpt><trkpt lat="46.0986167" lon="13.5854967"><ele>264.0</ele><time>2026-05-03T12:01:24.203Z</time></trkpt><trkpt lat="46.0986417" lon="13.5856233"><ele>264.0</ele><time>2026-05-03T12:01:25.203Z</time></trkpt><trkpt lat="46.098675" lon="13.58576"><ele>264.0</ele><time>2026-05-03T12:01:26.203Z</time></trkpt><trkpt lat="46.0987033" lon="13.5858967"><ele>263.8333333333333</ele><time>2026-05-03T12:01:27.204Z</time></trkpt><trkpt lat="46.0987167" lon="13.5860433"><ele>263.6666666666667</ele><time>2026-05-03T12:01:28.203Z</time></trkpt><trkpt lat="46.09871" lon="13.5861767"><ele>263.5</ele><time>2026-05-03T12:01:29.203Z</time></trkpt><trkpt lat="46.0986783" lon="13.5863133"><ele>263.33333333333337</ele><time>2026-05-03T12:01:30.203Z</time></trkpt><trkpt lat="46.0986517" lon="13.5864267"><ele>263.1666666666667</ele><time>2026-05-03T12:01:31.203Z</time></trkpt><trkpt lat="46.0986267" lon="13.5865217"><ele>263.0</ele><time>2026-05-03T12:01:32.203Z</time></trkpt><trkpt lat="46.0985983" lon="13.5866033"><ele>263.6</ele><time>2026-05-03T12:01:33.204Z</time></trkpt><trkpt lat="46.098555" lon="13.5866817"><ele>264.20000000000005</ele><time>2026-05-03T12:01:34.203Z</time></trkpt><trkpt lat="46.0985017" lon="13.5867717"><ele>264.8</ele><time>2026-05-03T12:01:35.203Z</time></trkpt><trkpt lat="46.0984383" lon="13.5868733"><ele>265.40000000000003</ele><time>2026-05-03T12:01:36.203Z</time></trkpt><trkpt lat="46.0983667" lon="13.58698"><ele>266.0</ele><time>2026-05-03T12:01:37.203Z</time></trkpt><trkpt lat="46.0982883" lon="13.5870783"><ele>267.40000000000003</ele><time>2026-05-03T12:01:38.203Z</time></trkpt><trkpt lat="46.0982167" lon="13.5871833"><ele>268.8</ele><time>2026-05-03T12:01:39.203Z</time></trkpt><trkpt lat="46.0981783" lon="13.587275"><ele>270.20000000000005</ele><time>2026-05-03T12:01:40.203Z</time></trkpt><trkpt lat="46.0981833" lon="13.5874"><ele>271.6</ele><time>2026-05-03T12:01:42.203Z</time></trkpt><trkpt lat="46.0982783" lon="13.58741"><ele>273.0</ele><time>2026-05-03T12:01:44.204Z</time></trkpt><trkpt lat="46.0983983" lon="13.5873483"><ele>273.0</ele><time>2026-05-03T12:01:46.203Z</time></trkpt><trkpt lat="46.0984817" lon="13.5873517"><ele>273.0</ele><time>2026-05-03T12:01:48.203Z</time></trkpt><trkpt lat="46.0985533" lon="13.5874217"><ele>273.0</ele><time>2026-05-03T12:01:50.203Z</time></trkpt><trkpt lat="46.0984933" lon="13.5873383"><ele>273.0</ele><time>2026-05-03T12:01:55.203Z</time></trkpt><trkpt lat="46.09836" lon="13.5873383"><ele>273.0</ele><time>2026-05-03T12:01:57.203Z</time></trkpt><trkpt lat="46.098285" lon="13.587355"><ele>273.0</ele><time>2026-05-03T12:01:58.203Z</time></trkpt><trkpt lat="46.098185" lon="13.5872983"><ele>273.0</ele><time>2026-05-03T12:02:00.203Z</time></trkpt><trkpt lat="46.0982517" lon="13.5871333"><ele>273.0</ele><time>2026-05-03T12:02:02.203Z</time></trkpt><trkpt lat="46.09836" lon="13.5870317"><ele>273.0</ele><time>2026-05-03T12:02:03.203Z</time></trkpt><trkpt lat="46.09846" lon="13.5869083"><ele>271.6</ele><time>2026-05-03T12:02:04.203Z</time></trkpt><trkpt lat="46.0985283" lon="13.586795"><ele>270.20000000000005</ele><time>2026-05-03T12:02:05.203Z</time></trkpt><trkpt lat="46.0985833" lon="13.5866983"><ele>268.8</ele><time>2026-05-03T12:02:06.203Z</time></trkpt><trkpt lat="46.0986367" lon="13.586615"><ele>267.40000000000003</ele><time>2026-05-03T12:02:07.203Z</time></trkpt><trkpt lat="46.09875" lon="13.58666"><ele>266.0</ele><time>2026-05-03T12:02:09.203Z</time></trkpt><trkpt lat="46.09881" lon="13.5867383"><ele>266.0</ele><time>2026-05-03T12:02:10.203Z</time></trkpt><trkpt lat="46.09888" lon="13.5868467"><ele>266.0</ele><time>2026-05-03T12:02:11.203Z</time></trkpt><trkpt lat="46.0989683" lon="13.5869517"><ele>266.0</ele><time>2026-05-03T12:02:12.203Z</time></trkpt><trkpt lat="46.09906" lon="13.5870483"><ele>266.0</ele><time>2026-05-03T12:02:13.203Z</time></trkpt><trkpt lat="46.0991383" lon="13.5871133"><ele>266.0</ele><time>2026-05-03T12:02:14.203Z</time></trkpt><trkpt lat="46.0991967" lon="13.5871683"><ele>265.83333333333337</ele><time>2026-05-03T12:02:15.203Z</time></trkpt><trkpt lat="46.099265" lon="13.5872217"><ele>265.6666666666667</ele><time>2026-05-03T12:02:17.203Z</time></trkpt><trkpt lat="46.0993317" lon="13.5872133"><ele>265.5</ele><time>2026-05-03T12:02:21.203Z</time></trkpt><trkpt lat="46.0994033" lon="13.5871917"><ele>265.3333333333333</ele><time>2026-05-03T12:02:24.203Z</time></trkpt><trkpt lat="46.09928" lon="13.5871883"><ele>265.16666666666663</ele><time>2026-05-03T12:02:30.203Z</time></trkpt><trkpt lat="46.0991917" lon="13.587165"><ele>265.0</ele><time>2026-05-03T12:02:31.203Z</time></trkpt><trkpt lat="46.0991167" lon="13.5871083"><ele>265.2</ele><time>2026-05-03T12:02:32.203Z</time></trkpt><trkpt lat="46.0990917" lon="13.5869867"><ele>265.4</ele><time>2026-05-03T12:02:34.203Z</time></trkpt><trkpt lat="46.099125" lon="13.58681"><ele>265.6</ele><time>2026-05-03T12:02:36.203Z</time></trkpt><trkpt lat="46.0990817" lon="13.58668"><ele>265.8</ele><time>2026-05-03T12:02:37.203Z</time></trkpt><trkpt lat="46.0990317" lon="13.5865417"><ele>266.0</ele><time>2026-05-03T12:02:38.204Z</time></trkpt><trkpt lat="46.0989967" lon="13.5863733"><ele>266.0</ele><time>2026-05-03T12:02:39.203Z</time></trkpt><trkpt lat="46.098975" lon="13.5861867"><ele>266.0</ele><time>2026-05-03T12:02:40.203Z</time></trkpt><trkpt lat="46.098965" lon="13.5859967"><ele>266.0</ele><time>2026-05-03T12:02:41.203Z</time></trkpt><trkpt lat="46.0989683" lon="13.5858067"><ele>266.0</ele><time>2026-05-03T12:02:42.203Z</time></trkpt><trkpt lat="46.098975" lon="13.5856467"><ele>265.5</ele><time>2026-05-03T12:02:43.204Z</time></trkpt><trkpt lat="46.099" lon="13.585485"><ele>265.0</ele><time>2026-05-03T12:02:44.203Z</time></trkpt><trkpt lat="46.0990533" lon="13.5853233"><ele>264.5</ele><time>2026-05-03T12:02:45.203Z</time></trkpt><trkpt lat="46.0991117" lon="13.5851667"><ele>264.0</ele><time>2026-05-03T12:02:46.203Z</time></trkpt><trkpt lat="46.0991883" lon="13.5850483"><ele>261.8</ele><time>2026-05-03T12:02:47.203Z</time></trkpt><trkpt lat="46.0992683" lon="13.5849667"><ele>259.59999999999997</ele><time>2026-05-03T12:02:48.203Z</time></trkpt><trkpt lat="46.0993667" lon="13.5849233"><ele>257.4</ele><time>2026-05-03T12:02:49.203Z</time></trkpt><trkpt lat="46.09948" lon="13.584895"><ele>255.2</ele><time>2026-05-03T12:02:50.203Z</time></trkpt><trkpt lat="46.0996033" lon="13.5848633"><ele>253.0</ele><time>2026-05-03T12:02:51.203Z</time></trkpt><trkpt lat="46.0997317" lon="13.58486"><ele>253.0</ele><time>2026-05-03T12:02:52.203Z</time></trkpt><trkpt lat="46.0998567" lon="13.58491"><ele>253.0</ele><time>2026-05-03T12:02:53.203Z</time></trkpt><trkpt lat="46.09997" lon="13.5849933"><ele>253.0</ele><time>2026-05-03T12:02:54.203Z</time></trkpt><trkpt lat="46.1000633" lon="13.585045"><ele>253.0</ele><time>2026-05-03T12:02:55.203Z</time></trkpt><trkpt lat="46.1001283" lon="13.58504"><ele>253.0</ele><time>2026-05-03T12:02:56.203Z</time></trkpt><trkpt lat="46.1001367" lon="13.5848833"><ele>252.75</ele><time>2026-05-03T12:02:58.203Z</time></trkpt><trkpt lat="46.1000567" lon="13.5847683"><ele>252.5</ele><time>2026-05-03T12:02:59.203Z</time></trkpt><trkpt lat="46.099955" lon="13.5846167"><ele>252.25</ele><time>2026-05-03T12:03:00.203Z</time></trkpt><trkpt lat="46.0998283" lon="13.5844333"><ele>252.0</ele><time>2026-05-03T12:03:01.203Z</time></trkpt><trkpt lat="46.0997067" lon="13.584235"><ele>252.0</ele><time>2026-05-03T12:03:02.203Z</time></trkpt><trkpt lat="46.099595" lon="13.5840133"><ele>252.0</ele><time>2026-05-03T12:03:03.203Z</time></trkpt><trkpt lat="46.099505" lon="13.5837917"><ele>252.0</ele><time>2026-05-03T12:03:04.203Z</time></trkpt><trkpt lat="46.0994233" lon="13.5835717"><ele>247.25</ele><time>2026-05-03T12:03:05.203Z</time></trkpt><trkpt lat="46.09936" lon="13.5833667"><ele>242.5</ele><time>2026-05-03T12:03:06.203Z</time></trkpt><trkpt lat="46.0993317" lon="13.583165"><ele>237.75</ele><time>2026-05-03T12:03:07.203Z</time></trkpt><trkpt lat="46.0993233" lon="13.5829767"><ele>233.0</ele><time>2026-05-03T12:03:08.203Z</time></trkpt><trkpt lat="46.0993367" lon="13.5828183"><ele>230.2</ele><time>2026-05-03T12:03:09.203Z</time></trkpt><trkpt lat="46.09935" lon="13.5827"><ele>227.4</ele><time>2026-05-03T12:03:10.203Z</time></trkpt><trkpt lat="46.0993567" lon="13.5825817"><ele>224.59999999999997</ele><time>2026-05-03T12:03:12.203Z</time></trkpt><trkpt lat="46.099285" lon="13.5824283"><ele>221.79999999999998</ele><time>2026-05-03T12:03:21.203Z</time></trkpt><trkpt lat="46.0992617" lon="13.58228"><ele>219.0</ele><time>2026-05-03T12:03:22.203Z</time></trkpt><trkpt lat="46.0992367" lon="13.58211"><ele>219.25</ele><time>2026-05-03T12:03:23.203Z</time></trkpt><trkpt lat="46.09921" lon="13.5819067"><ele>219.5</ele><time>2026-05-03T12:03:24.203Z</time></trkpt><trkpt lat="46.099175" lon="13.5817017"><ele>219.75</ele><time>2026-05-03T12:03:25.203Z</time></trkpt><trkpt lat="46.0991283" lon="13.5814917"><ele>220.0</ele><time>2026-05-03T12:03:26.203Z</time></trkpt><trkpt lat="46.0990617" lon="13.5812917"><ele>218.25</ele><time>2026-05-03T12:03:27.203Z</time></trkpt><trkpt lat="46.0989783" lon="13.5810883"><ele>216.5</ele><time>2026-05-03T12:03:28.203Z</time></trkpt><trkpt lat="46.098895" lon="13.580915"><ele>214.75</ele><time>2026-05-03T12:03:29.203Z</time></trkpt><trkpt lat="46.0988217" lon="13.580755"><ele>213.0</ele><time>2026-05-03T12:03:30.203Z</time></trkpt><trkpt lat="46.0987833" lon="13.5806367"><ele>213.0</ele><time>2026-05-03T12:03:31.203Z</time></trkpt><trkpt lat="46.098775" lon="13.5805317"><ele>213.0</ele><time>2026-05-03T12:03:32.203Z</time></trkpt><trkpt lat="46.0987767" lon="13.58041"><ele>213.0</ele><time>2026-05-03T12:03:33.203Z</time></trkpt><trkpt lat="46.0987617" lon="13.5802533"><ele>213.0</ele><time>2026-05-03T12:03:34.203Z</time></trkpt><trkpt lat="46.09873" lon="13.5800617"><ele>213.0</ele><time>2026-05-03T12:03:35.203Z</time></trkpt><trkpt lat="46.0986867" lon="13.579855"><ele>213.66666666666669</ele><time>2026-05-03T12:03:36.203Z</time></trkpt><trkpt lat="46.09861" lon="13.5796583"><ele>214.33333333333334</ele><time>2026-05-03T12:03:37.203Z</time></trkpt><trkpt lat="46.098495" lon="13.5794783"><ele>215.0</ele><time>2026-05-03T12:03:38.203Z</time></trkpt><trkpt lat="46.0983533" lon="13.5793267"><ele>213.0</ele><time>2026-05-03T12:03:39.203Z</time></trkpt><trkpt lat="46.0982217" lon="13.5791917"><ele>211.0</ele><time>2026-05-03T12:03:40.203Z</time></trkpt><trkpt lat="46.09809" lon="13.57906"><ele>209.0</ele><time>2026-05-03T12:03:41.203Z</time></trkpt><trkpt lat="46.0979483" lon="13.5789717"><ele>209.0</ele><time>2026-05-03T12:03:42.203Z</time></trkpt><trkpt lat="46.0978" lon="13.57892"><ele>209.0</ele><time>2026-05-03T12:03:43.203Z</time></trkpt><trkpt lat="46.097655" lon="13.57888"><ele>209.0</ele><time>2026-05-03T12:03:44.203Z</time></trkpt><trkpt lat="46.0975017" lon="13.5788667"><ele>209.0</ele><time>2026-05-03T12:03:45.203Z</time></trkpt><trkpt lat="46.097345" lon="13.5788533"><ele>209.0</ele><time>2026-05-03T12:03:46.203Z</time></trkpt><trkpt lat="46.0971867" lon="13.5788367"><ele>209.0</ele><time>2026-05-03T12:03:47.203Z</time></trkpt><trkpt lat="46.0970333" lon="13.5788167"><ele>209.0</ele><time>2026-05-03T12:03:48.203Z</time></trkpt><trkpt lat="46.0968933" lon="13.5787933"><ele>209.0</ele><time>2026-05-03T12:03:49.203Z</time></trkpt><trkpt lat="46.0967633" lon="13.5787433"><ele>209.0</ele><time>2026-05-03T12:03:50.203Z</time></trkpt><trkpt lat="46.09664" lon="13.5786333"><ele>209.0</ele><time>2026-05-03T12:03:51.203Z</time></trkpt><trkpt lat="46.0965133" lon="13.5784917"><ele>208.0</ele><time>2026-05-03T12:03:52.203Z</time></trkpt><trkpt lat="46.0963983" lon="13.5783433"><ele>207.0</ele><time>2026-05-03T12:03:53.204Z</time></trkpt><trkpt lat="46.096275" lon="13.5781917"><ele>206.0</ele><time>2026-05-03T12:03:54.203Z</time></trkpt><trkpt lat="46.0961467" lon="13.5780367"><ele>206.0</ele><time>2026-05-03T12:03:55.203Z</time></trkpt><trkpt lat="46.0960117" lon="13.5778717"><ele>206.0</ele><time>2026-05-03T12:03:56.203Z</time></trkpt><trkpt lat="46.09588" lon="13.5777233"><ele>206.0</ele><time>2026-05-03T12:03:57.203Z</time></trkpt><trkpt lat="46.095755" lon="13.5775633"><ele>206.5</ele><time>2026-05-03T12:03:58.203Z</time></trkpt><trkpt lat="46.0956283" lon="13.577415"><ele>207.0</ele><time>2026-05-03T12:03:59.203Z</time></trkpt><trkpt lat="46.09552" lon="13.5772817"><ele>207.5</ele><time>2026-05-03T12:04:00.203Z</time></trkpt><trkpt lat="46.0954367" lon="13.5771783"><ele>208.0</ele><time>2026-05-03T12:04:01.203Z</time></trkpt><trkpt lat="46.095375" lon="13.5770817"><ele>208.8</ele><time>2026-05-03T12:04:02.203Z</time></trkpt><trkpt lat="46.0953283" lon="13.5770017"><ele>209.60000000000002</ele><time>2026-05-03T12:04:03.203Z</time></trkpt><trkpt lat="46.095235" lon="13.5769183"><ele>210.39999999999998</ele><time>2026-05-03T12:04:05.203Z</time></trkpt><trkpt lat="46.0951617" lon="13.5768583"><ele>211.2</ele><time>2026-05-03T12:04:07.203Z</time></trkpt><trkpt lat="46.0950867" lon="13.5767833"><ele>212.0</ele><time>2026-05-03T12:04:09.203Z</time></trkpt><trkpt lat="46.0950017" lon="13.5767033"><ele>212.0</ele><time>2026-05-03T12:04:11.203Z</time></trkpt><trkpt lat="46.09493" lon="13.5766667"><ele>212.0</ele><time>2026-05-03T12:04:14.203Z</time></trkpt><trkpt lat="46.09498" lon="13.576755"><ele>212.0</ele><time>2026-05-03T12:04:18.203Z</time></trkpt><trkpt lat="46.0950433" lon="13.576805"><ele>212.0</ele><time>2026-05-03T12:04:19.203Z</time></trkpt><trkpt lat="46.0951483" lon="13.576895"><ele>212.0</ele><time>2026-05-03T12:04:20.203Z</time></trkpt><trkpt lat="46.0952617" lon="13.5769917"><ele>210.66666666666669</ele><time>2026-05-03T12:04:21.203Z</time></trkpt><trkpt lat="46.0953833" lon="13.5771067"><ele>209.33333333333331</ele><time>2026-05-03T12:04:22.203Z</time></trkpt><trkpt lat="46.0954967" lon="13.57725"><ele>208.0</ele><time>2026-05-03T12:04:23.203Z</time></trkpt><trkpt lat="46.0956217" lon="13.5773933"><ele>207.33333333333331</ele><time>2026-05-03T12:04:24.203Z</time></trkpt><trkpt lat="46.0957567" lon="13.5775683"><ele>206.66666666666669</ele><time>2026-05-03T12:04:25.203Z</time></trkpt><trkpt lat="46.0959017" lon="13.57775"><ele>206.0</ele><time>2026-05-03T12:04:26.203Z</time></trkpt><trkpt lat="46.0960433" lon="13.577925"><ele>206.0</ele><time>2026-05-03T12:04:27.203Z</time></trkpt><trkpt lat="46.0961767" lon="13.5780783"><ele>206.0</ele><time>2026-05-03T12:04:28.203Z</time></trkpt><trkpt lat="46.0963" lon="13.578225"><ele>206.0</ele><time>2026-05-03T12:04:29.202Z</time></trkpt><trkpt lat="46.0964117" lon="13.5783683"><ele>206.0</ele><time>2026-05-03T12:04:30.202Z</time></trkpt><trkpt lat="46.0965117" lon="13.578505"><ele>206.0</ele><time>2026-05-03T12:04:31.202Z</time></trkpt><trkpt lat="46.0965933" lon="13.5786233"><ele>206.0</ele><time>2026-05-03T12:04:32.202Z</time></trkpt><trkpt lat="46.0966617" lon="13.5786967"><ele>206.0</ele><time>2026-05-03T12:04:33.202Z</time></trkpt><trkpt lat="46.0967533" lon="13.5786683"><ele>206.0</ele><time>2026-05-03T12:04:35.202Z</time></trkpt><trkpt lat="46.0967733" lon="13.578575"><ele>206.0</ele><time>2026-05-03T12:04:36.202Z</time></trkpt><trkpt lat="46.0967633" lon="13.57844"><ele>206.0</ele><time>2026-05-03T12:04:37.202Z</time></trkpt><trkpt lat="46.096725" lon="13.578315"><ele>206.0</ele><time>2026-05-03T12:04:38.202Z</time></trkpt><trkpt lat="46.0966583" lon="13.5782217"><ele>206.0</ele><time>2026-05-03T12:04:39.202Z</time></trkpt><trkpt lat="46.09657" lon="13.5781467"><ele>206.0</ele><time>2026-05-03T12:04:40.202Z</time></trkpt><trkpt lat="46.096485" lon="13.5780667"><ele>206.0</ele><time>2026-05-03T12:04:41.202Z</time></trkpt><trkpt lat="46.0964167" lon="13.5779683"><ele>206.0</ele><time>2026-05-03T12:04:42.202Z</time></trkpt><trkpt lat="46.096365" lon="13.5778567"><ele>206.0</ele><time>2026-05-03T12:04:43.202Z</time></trkpt><trkpt lat="46.0963167" lon="13.577715"><ele>206.0</ele><time>2026-05-03T12:04:44.202Z</time></trkpt><trkpt lat="46.0962583" lon="13.5775533"><ele>206.0</ele><time>2026-05-03T12:04:45.202Z</time></trkpt><trkpt lat="46.0962033" lon="13.57738"><ele>207.5</ele><time>2026-05-03T12:04:46.202Z</time></trkpt><trkpt lat="46.0961367" lon="13.5772183"><ele>209.0</ele><time>2026-05-03T12:04:47.202Z</time></trkpt><trkpt lat="46.09607" lon="13.5770267"><ele>210.5</ele><time>2026-05-03T12:04:48.202Z</time></trkpt><trkpt lat="46.095985" lon="13.5768533"><ele>212.0</ele><time>2026-05-03T12:04:49.202Z</time></trkpt><trkpt lat="46.0958783" lon="13.5766967"><ele>212.0</ele><time>2026-05-03T12:04:50.202Z</time></trkpt><trkpt lat="46.0957683" lon="13.5765367"><ele>212.0</ele><time>2026-05-03T12:04:51.202Z</time></trkpt><trkpt lat="46.0956567" lon="13.5763817"><ele>212.0</ele><time>2026-05-03T12:04:52.202Z</time></trkpt><trkpt lat="46.0955467" lon="13.5762617"><ele>212.0</ele><time>2026-05-03T12:04:53.202Z</time></trkpt><trkpt lat="46.0954317" lon="13.576155"><ele>216.2</ele><time>2026-05-03T12:04:54.202Z</time></trkpt><trkpt lat="46.0953367" lon="13.5760533"><ele>220.39999999999998</ele><time>2026-05-03T12:04:55.202Z</time></trkpt><trkpt lat="46.0952733" lon="13.575935"><ele>224.60000000000002</ele><time>2026-05-03T12:04:56.202Z</time></trkpt><trkpt lat="46.0952333" lon="13.5757983"><ele>228.8</ele><time>2026-05-03T12:04:57.202Z</time></trkpt><trkpt lat="46.095205" lon="13.5756483"><ele>233.0</ele><time>2026-05-03T12:04:58.202Z</time></trkpt><trkpt lat="46.0951733" lon="13.5755"><ele>233.0</ele><time>2026-05-03T12:04:59.202Z</time></trkpt><trkpt lat="46.0951117" lon="13.5753567"><ele>233.0</ele><time>2026-05-03T12:05:00.202Z</time></trkpt><trkpt lat="46.0950217" lon="13.5752283"><ele>233.0</ele><time>2026-05-03T12:05:01.202Z</time></trkpt><trkpt lat="46.0949167" lon="13.57509"><ele>233.0</ele><time>2026-05-03T12:05:02.202Z</time></trkpt><trkpt lat="46.0948183" lon="13.5749733"><ele>234.8</ele><time>2026-05-03T12:05:03.202Z</time></trkpt><trkpt lat="46.0947167" lon="13.574905"><ele>236.60000000000002</ele><time>2026-05-03T12:05:04.202Z</time></trkpt><trkpt lat="46.0946033" lon="13.5748917"><ele>238.39999999999998</ele><time>2026-05-03T12:05:05.202Z</time></trkpt><trkpt lat="46.0945133" lon="13.574885"><ele>240.2</ele><time>2026-05-03T12:05:06.202Z</time></trkpt><trkpt lat="46.094435" lon="13.5748283"><ele>242.0</ele><time>2026-05-03T12:05:07.202Z</time></trkpt><trkpt lat="46.09435" lon="13.5747467"><ele>242.0</ele><time>2026-05-03T12:05:08.202Z</time></trkpt><trkpt lat="46.0942533" lon="13.57469"><ele>242.0</ele><time>2026-05-03T12:05:09.202Z</time></trkpt><trkpt lat="46.0941283" lon="13.57468"><ele>242.0</ele><time>2026-05-03T12:05:10.202Z</time></trkpt><trkpt lat="46.093995" lon="13.5746917"><ele>242.0</ele><time>2026-05-03T12:05:11.202Z</time></trkpt><trkpt lat="46.09388" lon="13.5747283"><ele>242.50000000000003</ele><time>2026-05-03T12:05:12.202Z</time></trkpt><trkpt lat="46.093795" lon="13.5747417"><ele>243.0</ele><time>2026-05-03T12:05:13.202Z</time></trkpt><trkpt lat="46.0937283" lon="13.5747383"><ele>243.5</ele><time>2026-05-03T12:05:14.202Z</time></trkpt><trkpt lat="46.09372" lon="13.5746433"><ele>244.0</ele><time>2026-05-03T12:05:15.202Z</time></trkpt><trkpt lat="46.0937367" lon="13.574555"><ele>244.50000000000003</ele><time>2026-05-03T12:05:16.202Z</time></trkpt><trkpt lat="46.0937717" lon="13.5744417"><ele>245.0</ele><time>2026-05-03T12:05:17.202Z</time></trkpt><trkpt lat="46.0937933" lon="13.5742967"><ele>245.0</ele><time>2026-05-03T12:05:18.202Z</time></trkpt><trkpt lat="46.0937933" lon="13.5741567"><ele>245.0</ele><time>2026-05-03T12:05:19.202Z</time></trkpt><trkpt lat="46.0937683" lon="13.574025"><ele>245.0</ele><time>2026-05-03T12:05:20.202Z</time></trkpt><trkpt lat="46.0937667" lon="13.5739183"><ele>245.0</ele><time>2026-05-03T12:05:21.202Z</time></trkpt><trkpt lat="46.0938633" lon="13.5738133"><ele>245.0</ele><time>2026-05-03T12:05:23.202Z</time></trkpt><trkpt lat="46.093955" lon="13.5737783"><ele>245.0</ele><time>2026-05-03T12:05:24.202Z</time></trkpt><trkpt lat="46.0940533" lon="13.5737167"><ele>245.0</ele><time>2026-05-03T12:05:25.202Z</time></trkpt><trkpt lat="46.094155" lon="13.5735967"><ele>245.0</ele><time>2026-05-03T12:05:26.202Z</time></trkpt><trkpt lat="46.0942567" lon="13.573465"><ele>245.0</ele><time>2026-05-03T12:05:27.202Z</time></trkpt><trkpt lat="46.0943733" lon="13.5733683"><ele>250.0</ele><time>2026-05-03T12:05:28.202Z</time></trkpt><trkpt lat="46.094505" lon="13.57332"><ele>255.0</ele><time>2026-05-03T12:05:29.202Z</time></trkpt><trkpt lat="46.0946433" lon="13.573255"><ele>260.0</ele><time>2026-05-03T12:05:30.202Z</time></trkpt><trkpt lat="46.0947767" lon="13.5731567"><ele>265.0</ele><time>2026-05-03T12:05:31.202Z</time></trkpt><trkpt lat="46.0949117" lon="13.573035"><ele>269.3333333333333</ele><time>2026-05-03T12:05:32.202Z</time></trkpt><trkpt lat="46.0950483" lon="13.5728883"><ele>273.6666666666667</ele><time>2026-05-03T12:05:33.202Z</time></trkpt><trkpt lat="46.0951717" lon="13.5727233"><ele>278.0</ele><time>2026-05-03T12:05:34.202Z</time></trkpt><trkpt lat="46.0952817" lon="13.5725517"><ele>278.0</ele><time>2026-05-03T12:05:35.202Z</time></trkpt><trkpt lat="46.0953583" lon="13.5723633"><ele>278.0</ele><time>2026-05-03T12:05:36.202Z</time></trkpt><trkpt lat="46.0954117" lon="13.5721783"><ele>278.0</ele><time>2026-05-03T12:05:37.202Z</time></trkpt><trkpt lat="46.095445" lon="13.5720017"><ele>278.0</ele><time>2026-05-03T12:05:38.203Z</time></trkpt><trkpt lat="46.095485" lon="13.5718817"><ele>278.0</ele><time>2026-05-03T12:05:39.203Z</time></trkpt><trkpt lat="46.0955583" lon="13.571815"><ele>278.0</ele><time>2026-05-03T12:05:41.202Z</time></trkpt><trkpt lat="46.0955317" lon="13.5720117"><ele>278.0</ele><time>2026-05-03T12:05:43.202Z</time></trkpt><trkpt lat="46.0954833" lon="13.57215"><ele>278.0</ele><time>2026-05-03T12:05:44.202Z</time></trkpt><trkpt lat="46.095435" lon="13.5723233"><ele>278.0</ele><time>2026-05-03T12:05:45.202Z</time></trkpt><trkpt lat="46.09538" lon="13.5725267"><ele>278.0</ele><time>2026-05-03T12:05:46.202Z</time></trkpt><trkpt lat="46.0953283" lon="13.5727567"><ele>278.0</ele><time>2026-05-03T12:05:47.202Z</time></trkpt><trkpt lat="46.0952783" lon="13.5729617"><ele>281.0</ele><time>2026-05-03T12:05:48.202Z</time></trkpt><trkpt lat="46.0952217" lon="13.5731317"><ele>284.0</ele><time>2026-05-03T12:05:49.202Z</time></trkpt><trkpt lat="46.095185" lon="13.5732867"><ele>287.0</ele><time>2026-05-03T12:05:50.202Z</time></trkpt><trkpt lat="46.0951667" lon="13.573445"><ele>290.0</ele><time>2026-05-03T12:05:51.202Z</time></trkpt><trkpt lat="46.0951817" lon="13.5735867"><ele>290.0</ele><time>2026-05-03T12:05:52.202Z</time></trkpt><trkpt lat="46.0952267" lon="13.5737117"><ele>290.0</ele><time>2026-05-03T12:05:53.202Z</time></trkpt><trkpt lat="46.0953067" lon="13.57378"><ele>290.0</ele><time>2026-05-03T12:05:54.202Z</time></trkpt><trkpt lat="46.0954083" lon="13.5737733"><ele>290.0</ele><time>2026-05-03T12:05:55.203Z</time></trkpt><trkpt lat="46.0955117" lon="13.5737367"><ele>290.0</ele><time>2026-05-03T12:05:56.202Z</time></trkpt><trkpt lat="46.095645" lon="13.57363"><ele>297.0</ele><time>2026-05-03T12:05:57.202Z</time></trkpt><trkpt lat="46.09579" lon="13.5735217"><ele>304.0</ele><time>2026-05-03T12:05:58.202Z</time></trkpt><trkpt lat="46.0959467" lon="13.5734583"><ele>311.0</ele><time>2026-05-03T12:05:59.202Z</time></trkpt><trkpt lat="46.0960883" lon="13.5734283"><ele>311.0</ele><time>2026-05-03T12:06:00.202Z</time></trkpt><trkpt lat="46.0962133" lon="13.5734283"><ele>311.0</ele><time>2026-05-03T12:06:01.202Z</time></trkpt><trkpt lat="46.0963067" lon="13.5734633"><ele>311.0</ele><time>2026-05-03T12:06:02.202Z</time></trkpt><trkpt lat="46.0963767" lon="13.5734867"><ele>311.0</ele><time>2026-05-03T12:06:03.202Z</time></trkpt><trkpt lat="46.09642" lon="13.5734033"><ele>311.0</ele><time>2026-05-03T12:06:05.202Z</time></trkpt><trkpt lat="46.09633" lon="13.5732367"><ele>311.0</ele><time>2026-05-03T12:06:07.202Z</time></trkpt><trkpt lat="46.096225" lon="13.5731567"><ele>311.0</ele><time>2026-05-03T12:06:08.202Z</time></trkpt><trkpt lat="46.0960917" lon="13.5730967"><ele>311.0</ele><time>2026-05-03T12:06:09.202Z</time></trkpt><trkpt lat="46.0959583" lon="13.5730533"><ele>311.0</ele><time>2026-05-03T12:06:10.202Z</time></trkpt><trkpt lat="46.0958717" lon="13.5729933"><ele>311.0</ele><time>2026-05-03T12:06:11.202Z</time></trkpt><trkpt lat="46.0958567" lon="13.5728767"><ele>311.0</ele><time>2026-05-03T12:06:13.202Z</time></trkpt><trkpt lat="46.0960183" lon="13.57286"><ele>311.0</ele><time>2026-05-03T12:06:15.202Z</time></trkpt><trkpt lat="46.0961467" lon="13.5729033"><ele>311.0</ele><time>2026-05-03T12:06:16.202Z</time></trkpt><trkpt lat="46.0963" lon="13.5729767"><ele>311.0</ele><time>2026-05-03T12:06:17.202Z</time></trkpt><trkpt lat="46.0964533" lon="13.57303"><ele>311.0</ele><time>2026-05-03T12:06:18.203Z</time></trkpt><trkpt lat="46.0965983" lon="13.5730433"><ele>311.0</ele><time>2026-05-03T12:06:19.202Z</time></trkpt><trkpt lat="46.0967333" lon="13.57305"><ele>311.0</ele><time>2026-05-03T12:06:20.202Z</time></trkpt><trkpt lat="46.09685" lon="13.573105"><ele>315.6666666666667</ele><time>2026-05-03T12:06:21.202Z</time></trkpt><trkpt lat="46.0969633" lon="13.57322"><ele>320.3333333333333</ele><time>2026-05-03T12:06:22.202Z</time></trkpt><trkpt lat="46.0970917" lon="13.573335"><ele>325.0</ele><time>2026-05-03T12:06:23.202Z</time></trkpt><trkpt lat="46.0972217" lon="13.573475"><ele>325.0</ele><time>2026-05-03T12:06:24.202Z</time></trkpt><trkpt lat="46.0973367" lon="13.57363"><ele>325.0</ele><time>2026-05-03T12:06:25.202Z</time></trkpt><trkpt lat="46.0974267" lon="13.5737667"><ele>325.0</ele><time>2026-05-03T12:06:26.202Z</time></trkpt><trkpt lat="46.097495" lon="13.5738417"><ele>325.0</ele><time>2026-05-03T12:06:27.202Z</time></trkpt><trkpt lat="46.0975767" lon="13.5738233"><ele>325.0</ele><time>2026-05-03T12:06:29.202Z</time></trkpt><trkpt lat="46.097585" lon="13.5737017"><ele>325.0</ele><time>2026-05-03T12:06:31.202Z</time></trkpt><trkpt lat="46.0975433" lon="13.5735867"><ele>325.0</ele><time>2026-05-03T12:06:32.202Z</time></trkpt><trkpt lat="46.09748" lon="13.5734317"><ele>325.0</ele><time>2026-05-03T12:06:33.202Z</time></trkpt><trkpt lat="46.0974067" lon="13.5732"><ele>325.0</ele><time>2026-05-03T12:06:34.202Z</time></trkpt><trkpt lat="46.0973483" lon="13.572965"><ele>325.0</ele><time>2026-05-03T12:06:35.202Z</time></trkpt><trkpt lat="46.0972983" lon="13.5727483"><ele>325.0</ele><time>2026-05-03T12:06:36.202Z</time></trkpt><trkpt lat="46.0972567" lon="13.572555"><ele>329.0</ele><time>2026-05-03T12:06:37.202Z</time></trkpt><trkpt lat="46.0972017" lon="13.572385"><ele>333.0</ele><time>2026-05-03T12:06:38.202Z</time></trkpt><trkpt lat="46.0970983" lon="13.5722483"><ele>337.0</ele><time>2026-05-03T12:06:39.202Z</time></trkpt><trkpt lat="46.0969467" lon="13.572155"><ele>341.0</ele><time>2026-05-03T12:06:40.202Z</time></trkpt><trkpt lat="46.09679" lon="13.5720817"><ele>341.0</ele><time>2026-05-03T12:06:41.202Z</time></trkpt><trkpt lat="46.096655" lon="13.57204"><ele>341.0</ele><time>2026-05-03T12:06:42.202Z</time></trkpt><trkpt lat="46.0965567" lon="13.57197"><ele>341.0</ele><time>2026-05-03T12:06:43.202Z</time></trkpt><trkpt lat="46.0965183" lon="13.5718367"><ele>341.0</ele><time>2026-05-03T12:06:45.202Z</time></trkpt><trkpt lat="46.09659" lon="13.571805"><ele>341.0</ele><time>2026-05-03T12:06:46.202Z</time></trkpt><trkpt lat="46.0966867" lon="13.5717817"><ele>343.25</ele><time>2026-05-03T12:06:47.202Z</time></trkpt><trkpt lat="46.0968167" lon="13.5717717"><ele>345.5</ele><time>2026-05-03T12:06:48.202Z</time></trkpt><trkpt lat="46.0969783" lon="13.5717733"><ele>347.75</ele><time>2026-05-03T12:06:49.202Z</time></trkpt><trkpt lat="46.0971283" lon="13.5717683"><ele>350.0</ele><time>2026-05-03T12:06:50.202Z</time></trkpt><trkpt lat="46.0972467" lon="13.5717983"><ele>350.0</ele><time>2026-05-03T12:06:51.202Z</time></trkpt><trkpt lat="46.0973433" lon="13.5718317"><ele>350.0</ele><time>2026-05-03T12:06:52.202Z</time></trkpt><trkpt lat="46.0974083" lon="13.5718167"><ele>350.0</ele><time>2026-05-03T12:06:53.202Z</time></trkpt><trkpt lat="46.0974367" lon="13.57173"><ele>350.0</ele><time>2026-05-03T12:06:55.202Z</time></trkpt><trkpt lat="46.0973617" lon="13.5716733"><ele>350.0</ele><time>2026-05-03T12:06:56.202Z</time></trkpt><trkpt lat="46.0972233" lon="13.5715967"><ele>350.0</ele><time>2026-05-03T12:06:57.202Z</time></trkpt><trkpt lat="46.09712" lon="13.5715083"><ele>350.0</ele><time>2026-05-03T12:06:58.202Z</time></trkpt><trkpt lat="46.097055" lon="13.5714267"><ele>350.0</ele><time>2026-05-03T12:06:59.202Z</time></trkpt><trkpt lat="46.09702" lon="13.5713417"><ele>350.0</ele><time>2026-05-03T12:07:00.202Z</time></trkpt><trkpt lat="46.0971233" lon="13.571235"><ele>350.0</ele><time>2026-05-03T12:07:02.202Z</time></trkpt><trkpt lat="46.0971817" lon="13.5711617"><ele>350.1666666666667</ele><time>2026-05-03T12:07:03.202Z</time></trkpt><trkpt lat="46.09726" lon="13.5710867"><ele>350.33333333333337</ele><time>2026-05-03T12:07:04.202Z</time></trkpt><trkpt lat="46.09735" lon="13.57101"><ele>350.5</ele><time>2026-05-03T12:07:05.202Z</time></trkpt><trkpt lat="46.0974217" lon="13.570965"><ele>350.6666666666667</ele><time>2026-05-03T12:07:06.202Z</time></trkpt><trkpt lat="46.0974917" lon="13.5709617"><ele>350.8333333333333</ele><time>2026-05-03T12:07:07.202Z</time></trkpt><trkpt lat="46.0975517" lon="13.57103"><ele>351.0</ele><time>2026-05-03T12:07:10.202Z</time></trkpt><trkpt lat="46.0976067" lon="13.57119"><ele>354.20000000000005</ele><time>2026-05-03T12:07:12.202Z</time></trkpt><trkpt lat="46.0976733" lon="13.5712683"><ele>357.40000000000003</ele><time>2026-05-03T12:07:13.202Z</time></trkpt><trkpt lat="46.0977533" lon="13.5713283"><ele>360.6</ele><time>2026-05-03T12:07:14.202Z</time></trkpt><trkpt lat="46.0978383" lon="13.571385"><ele>363.8</ele><time>2026-05-03T12:07:15.202Z</time></trkpt><trkpt lat="46.0979033" lon="13.5714233"><ele>367.0</ele><time>2026-05-03T12:07:16.202Z</time></trkpt><trkpt lat="46.0980033" lon="13.57149"><ele>367.0</ele><time>2026-05-03T12:07:18.202Z</time></trkpt><trkpt lat="46.09809" lon="13.5715883"><ele>367.0</ele><time>2026-05-03T12:07:20.202Z</time></trkpt><trkpt lat="46.0981417" lon="13.5716417"><ele>367.0</ele><time>2026-05-03T12:07:21.202Z</time></trkpt><trkpt lat="46.0981833" lon="13.5717233"><ele>367.0</ele><time>2026-05-03T12:07:22.202Z</time></trkpt><trkpt lat="46.0982283" lon="13.5718183"><ele>367.0</ele><time>2026-05-03T12:07:23.202Z</time></trkpt><trkpt lat="46.09826" lon="13.571915"><ele>367.0</ele><time>2026-05-03T12:07:24.202Z</time></trkpt><trkpt lat="46.098295" lon="13.5719933"><ele>367.0</ele><time>2026-05-03T12:07:25.202Z</time></trkpt><trkpt lat="46.0983483" lon="13.5720667"><ele>367.0</ele><time>2026-05-03T12:07:27.202Z</time></trkpt><trkpt lat="46.0982817" lon="13.57191"><ele>367.0</ele><time>2026-05-03T12:07:43.203Z</time></trkpt><trkpt lat="46.0982217" lon="13.5717933"><ele>367.0</ele><time>2026-05-03T12:07:44.202Z</time></trkpt><trkpt lat="46.09816" lon="13.5716683"><ele>367.0</ele><time>2026-05-03T12:07:45.202Z</time></trkpt><trkpt lat="46.0980817" lon="13.5715683"><ele>367.0</ele><time>2026-05-03T12:07:46.202Z</time></trkpt><trkpt lat="46.0979933" lon="13.5714767"><ele>367.0</ele><time>2026-05-03T12:07:47.202Z</time></trkpt><trkpt lat="46.0979033" lon="13.57141"><ele>367.0</ele><time>2026-05-03T12:07:48.203Z</time></trkpt><trkpt lat="46.0978067" lon="13.5713567"><ele>367.0</ele><time>2026-05-03T12:07:49.202Z</time></trkpt><trkpt lat="46.0977217" lon="13.571285"><ele>367.0</ele><time>2026-05-03T12:07:50.202Z</time></trkpt><trkpt lat="46.0976483" lon="13.5712183"><ele>367.5</ele><time>2026-05-03T12:07:51.202Z</time></trkpt><trkpt lat="46.0976017" lon="13.5711483"><ele>368.0</ele><time>2026-05-03T12:07:52.202Z</time></trkpt><trkpt lat="46.0975683" lon="13.5710233"><ele>368.5</ele><time>2026-05-03T12:07:54.202Z</time></trkpt><trkpt lat="46.0975517" lon="13.5709233"><ele>369.0</ele><time>2026-05-03T12:07:56.202Z</time></trkpt><trkpt lat="46.0975667" lon="13.5708267"><ele>369.5</ele><time>2026-05-03T12:07:58.202Z</time></trkpt><trkpt lat="46.0976289" lon="13.5707014"><ele>370.0</ele><time>2026-05-03T12:08:00.202Z</time></trkpt><trkpt lat="46.0976854" lon="13.5706319"><ele>370.0</ele><time>2026-05-03T12:08:01.202Z</time></trkpt><trkpt lat="46.0978165" lon="13.570522"><ele>370.0</ele><time>2026-05-03T12:08:03.202Z</time></trkpt><trkpt lat="46.0979167" lon="13.57043"><ele>370.0</ele><time>2026-05-03T12:08:04.202Z</time></trkpt><trkpt lat="46.0979917" lon="13.5703433"><ele>370.0</ele><time>2026-05-03T12:08:05.202Z</time></trkpt><trkpt lat="46.0980683" lon="13.5702633"><ele>369.4</ele><time>2026-05-03T12:08:06.202Z</time></trkpt><trkpt lat="46.098145" lon="13.570195"><ele>368.8</ele><time>2026-05-03T12:08:07.202Z</time></trkpt><trkpt lat="46.09823" lon="13.5700867"><ele>368.20000000000005</ele><time>2026-05-03T12:08:09.202Z</time></trkpt><trkpt lat="46.0982233" lon="13.5699183"><ele>367.6</ele><time>2026-05-03T12:08:11.202Z</time></trkpt><trkpt lat="46.0981833" lon="13.5698317"><ele>367.0</ele><time>2026-05-03T12:08:12.202Z</time></trkpt><trkpt lat="46.0980733" lon="13.5697533"><ele>367.0</ele><time>2026-05-03T12:08:13.203Z</time></trkpt><trkpt lat="46.0979983" lon="13.5696767"><ele>367.0</ele><time>2026-05-03T12:08:14.202Z</time></trkpt><trkpt lat="46.0979217" lon="13.5696067"><ele>367.0</ele><time>2026-05-03T12:08:15.202Z</time></trkpt><trkpt lat="46.0978433" lon="13.5695383"><ele>367.0</ele><time>2026-05-03T12:08:16.202Z</time></trkpt><trkpt lat="46.0977633" lon="13.5694667"><ele>367.0</ele><time>2026-05-03T12:08:17.202Z</time></trkpt><trkpt lat="46.0976767" lon="13.56941"><ele>367.0</ele><time>2026-05-03T12:08:18.202Z</time></trkpt><trkpt lat="46.09759" lon="13.5693483"><ele>367.0</ele><time>2026-05-03T12:08:19.202Z</time></trkpt><trkpt lat="46.097495" lon="13.5692867"><ele>367.0</ele><time>2026-05-03T12:08:20.203Z</time></trkpt><trkpt lat="46.0973967" lon="13.569215"><ele>367.0</ele><time>2026-05-03T12:08:21.202Z</time></trkpt><trkpt lat="46.0972983" lon="13.5691567"><ele>367.0</ele><time>2026-05-03T12:08:22.202Z</time></trkpt><trkpt lat="46.0971933" lon="13.5690933"><ele>367.0</ele><time>2026-05-03T12:08:23.202Z</time></trkpt><trkpt lat="46.0970917" lon="13.5690383"><ele>367.0</ele><time>2026-05-03T12:08:24.202Z</time></trkpt><trkpt lat="46.0969867" lon="13.5689767"><ele>367.0</ele><time>2026-05-03T12:08:25.202Z</time></trkpt><trkpt lat="46.0968817" lon="13.56891"><ele>367.0</ele><time>2026-05-03T12:08:26.202Z</time></trkpt><trkpt lat="46.0967817" lon="13.5688467"><ele>367.0</ele><time>2026-05-03T12:08:27.202Z</time></trkpt><trkpt lat="46.096675" lon="13.56877"><ele>365.0</ele><time>2026-05-03T12:08:28.202Z</time></trkpt><trkpt lat="46.0965767" lon="13.5686867"><ele>363.0</ele><time>2026-05-03T12:08:29.202Z</time></trkpt><trkpt lat="46.0964883" lon="13.5685967"><ele>361.0</ele><time>2026-05-03T12:08:30.202Z</time></trkpt><trkpt lat="46.096415" lon="13.5685167"><ele>359.0</ele><time>2026-05-03T12:08:31.202Z</time></trkpt><trkpt lat="46.0963583" lon="13.5684367"><ele>357.0</ele><time>2026-05-03T12:08:32.202Z</time></trkpt><trkpt lat="46.0963067" lon="13.5683633"><ele>357.0</ele><time>2026-05-03T12:08:33.203Z</time></trkpt><trkpt lat="46.0962667" lon="13.5682867"><ele>357.0</ele><time>2026-05-03T12:08:34.203Z</time></trkpt><trkpt lat="46.0962317" lon="13.5682017"><ele>357.0</ele><time>2026-05-03T12:08:35.202Z</time></trkpt><trkpt lat="46.0962067" lon="13.5681083"><ele>357.0</ele><time>2026-05-03T12:08:36.202Z</time></trkpt><trkpt lat="46.0961867" lon="13.5680017"><ele>357.0</ele><time>2026-05-03T12:08:37.202Z</time></trkpt><trkpt lat="46.0961783" lon="13.567895"><ele>357.0</ele><time>2026-05-03T12:08:38.202Z</time></trkpt><trkpt lat="46.096195" lon="13.567775"><ele>357.0</ele><time>2026-05-03T12:08:39.202Z</time></trkpt><trkpt lat="46.0962283" lon="13.5676567"><ele>357.8333333333333</ele><time>2026-05-03T12:08:40.202Z</time></trkpt><trkpt lat="46.096275" lon="13.5675233"><ele>358.6666666666667</ele><time>2026-05-03T12:08:41.202Z</time></trkpt><trkpt lat="46.0963" lon="13.5673983"><ele>359.5</ele><time>2026-05-03T12:08:42.202Z</time></trkpt><trkpt lat="46.0963233" lon="13.56728"><ele>360.33333333333337</ele><time>2026-05-03T12:08:43.202Z</time></trkpt><trkpt lat="46.096335" lon="13.5671583"><ele>361.1666666666667</ele><time>2026-05-03T12:08:44.202Z</time></trkpt><trkpt lat="46.09635" lon="13.5670583"><ele>362.0</ele><time>2026-05-03T12:08:45.202Z</time></trkpt><trkpt lat="46.0963567" lon="13.5668867"><ele>365.0</ele><time>2026-05-03T12:08:47.202Z</time></trkpt><trkpt lat="46.0963533" lon="13.5667883"><ele>368.0</ele><time>2026-05-03T12:08:48.202Z</time></trkpt><trkpt lat="46.0963583" lon="13.5666767"><ele>371.0</ele><time>2026-05-03T12:08:49.202Z</time></trkpt><trkpt lat="46.0963633" lon="13.5665633"><ele>374.0</ele><time>2026-05-03T12:08:50.202Z</time></trkpt><trkpt lat="46.0963633" lon="13.5664583"><ele>377.0</ele><time>2026-05-03T12:08:51.202Z</time></trkpt><trkpt lat="46.096335" lon="13.56629"><ele>380.0</ele><time>2026-05-03T12:08:53.202Z</time></trkpt><trkpt lat="46.096265" lon="13.5662633"><ele>380.0</ele><time>2026-05-03T12:08:55.202Z</time></trkpt><trkpt lat="46.0961767" lon="13.5663483"><ele>380.0</ele><time>2026-05-03T12:08:56.202Z</time></trkpt><trkpt lat="46.096105" lon="13.5663867"><ele>380.0</ele><time>2026-05-03T12:08:57.202Z</time></trkpt><trkpt lat="46.0960217" lon="13.5664217"><ele>380.0</ele><time>2026-05-03T12:08:58.202Z</time></trkpt><trkpt lat="46.0959433" lon="13.56643"><ele>380.0</ele><time>2026-05-03T12:08:59.202Z</time></trkpt><trkpt lat="46.0958683" lon="13.56641"><ele>380.0</ele><time>2026-05-03T12:09:00.202Z</time></trkpt><trkpt lat="46.0957867" lon="13.56637"><ele>378.33333333333337</ele><time>2026-05-03T12:09:01.202Z</time></trkpt><trkpt lat="46.09569" lon="13.5663133"><ele>376.6666666666667</ele><time>2026-05-03T12:09:02.202Z</time></trkpt><trkpt lat="46.0955983" lon="13.5662717"><ele>375.0</ele><time>2026-05-03T12:09:03.202Z</time></trkpt><trkpt lat="46.09552" lon="13.56622"><ele>373.3333333333333</ele><time>2026-05-03T12:09:04.202Z</time></trkpt><trkpt lat="46.095445" lon="13.5661733"><ele>371.66666666666663</ele><time>2026-05-03T12:09:05.202Z</time></trkpt><trkpt lat="46.0953767" lon="13.5661267"><ele>370.0</ele><time>2026-05-03T12:09:06.202Z</time></trkpt><trkpt lat="46.0953083" lon="13.5660817"><ele>374.2</ele><time>2026-05-03T12:09:07.203Z</time></trkpt><trkpt lat="46.0952233" lon="13.5660133"><ele>378.4</ele><time>2026-05-03T12:09:08.202Z</time></trkpt><trkpt lat="46.09513" lon="13.565955"><ele>382.6</ele><time>2026-05-03T12:09:09.202Z</time></trkpt><trkpt lat="46.0950333" lon="13.5658933"><ele>386.8</ele><time>2026-05-03T12:09:10.202Z</time></trkpt><trkpt lat="46.0949433" lon="13.5658283"><ele>391.0</ele><time>2026-05-03T12:09:11.202Z</time></trkpt><trkpt lat="46.0948567" lon="13.56577"><ele>391.1428571428571</ele><time>2026-05-03T12:09:12.202Z</time></trkpt><trkpt lat="46.0947833" lon="13.5657167"><ele>391.2857142857143</ele><time>2026-05-03T12:09:13.202Z</time></trkpt><trkpt lat="46.0947167" lon="13.56568"><ele>391.42857142857144</ele><time>2026-05-03T12:09:14.203Z</time></trkpt><trkpt lat="46.094645" lon="13.5656567"><ele>391.57142857142856</ele><time>2026-05-03T12:09:15.202Z</time></trkpt><trkpt lat="46.0945733" lon="13.5656533"><ele>391.7142857142857</ele><time>2026-05-03T12:09:16.202Z</time></trkpt><trkpt lat="46.0945083" lon="13.56567"><ele>391.85714285714283</ele><time>2026-05-03T12:09:17.202Z</time></trkpt><trkpt lat="46.0944383" lon="13.5656917"><ele>392.0</ele><time>2026-05-03T12:09:18.202Z</time></trkpt><trkpt lat="46.0943583" lon="13.56573"><ele>392.0</ele><time>2026-05-03T12:09:19.202Z</time></trkpt><trkpt lat="46.0942783" lon="13.5657817"><ele>392.0</ele><time>2026-05-03T12:09:20.202Z</time></trkpt><trkpt lat="46.094185" lon="13.5658533"><ele>392.0</ele><time>2026-05-03T12:09:21.202Z</time></trkpt><trkpt lat="46.0940983" lon="13.56592"><ele>392.0</ele><time>2026-05-03T12:09:22.202Z</time></trkpt><trkpt lat="46.094025" lon="13.565965"><ele>392.0</ele><time>2026-05-03T12:09:23.202Z</time></trkpt><trkpt lat="46.093945" lon="13.5659967"><ele>393.49999999999994</ele><time>2026-05-03T12:09:24.202Z</time></trkpt><trkpt lat="46.0938633" lon="13.5660183"><ele>395.0</ele><time>2026-05-03T12:09:25.202Z</time></trkpt><trkpt lat="46.0937933" lon="13.5660283"><ele>396.5</ele><time>2026-05-03T12:09:26.202Z</time></trkpt><trkpt lat="46.093725" lon="13.5660367"><ele>398.0</ele><time>2026-05-03T12:09:27.202Z</time></trkpt><trkpt lat="46.0936083" lon="13.5660133"><ele>399.49999999999994</ele><time>2026-05-03T12:09:29.202Z</time></trkpt><trkpt lat="46.0935067" lon="13.5659567"><ele>401.0</ele><time>2026-05-03T12:09:31.202Z</time></trkpt><trkpt lat="46.0934333" lon="13.565835"><ele>401.0</ele><time>2026-05-03T12:09:33.202Z</time></trkpt><trkpt lat="46.0934033" lon="13.56574"><ele>401.0</ele><time>2026-05-03T12:09:35.202Z</time></trkpt><trkpt lat="46.0934433" lon="13.5656417"><ele>401.0</ele><time>2026-05-03T12:09:37.202Z</time></trkpt><trkpt lat="46.0935217" lon="13.5655433"><ele>401.0</ele><time>2026-05-03T12:09:39.202Z</time></trkpt><trkpt lat="46.0935983" lon="13.5654733"><ele>401.0</ele><time>2026-05-03T12:09:41.202Z</time></trkpt><trkpt lat="46.0936867" lon="13.565365"><ele>403.0</ele><time>2026-05-03T12:09:43.202Z</time></trkpt><trkpt lat="46.093775" lon="13.56525"><ele>405.0</ele><time>2026-05-03T12:09:45.201Z</time></trkpt><trkpt lat="46.0938467" lon="13.565125"><ele>407.0</ele><time>2026-05-03T12:09:47.201Z</time></trkpt><trkpt lat="46.09388" lon="13.564995"><ele>409.0</ele><time>2026-05-03T12:09:49.201Z</time></trkpt><trkpt lat="46.0938636" lon="13.5648939"><ele>411.0</ele><time>2026-05-03T12:09:51.201Z</time></trkpt><trkpt lat="46.0937886" lon="13.5648133"><ele>411.0</ele><time>2026-05-03T12:09:53.201Z</time></trkpt><trkpt lat="46.0936989" lon="13.5647241"><ele>411.0</ele><time>2026-05-03T12:09:55.201Z</time></trkpt><trkpt lat="46.0936511" lon="13.5646438"><ele>411.0</ele><time>2026-05-03T12:09:57.201Z</time></trkpt><trkpt lat="46.0936414" lon="13.5645422"><ele>411.0</ele><time>2026-05-03T12:09:58.201Z</time></trkpt><trkpt lat="46.0936441" lon="13.5644359"><ele>411.0</ele><time>2026-05-03T12:09:59.201Z</time></trkpt><trkpt lat="46.0936576" lon="13.5643201"><ele>411.0</ele><time>2026-05-03T12:10:00.201Z</time></trkpt><trkpt lat="46.0936749" lon="13.5642042"><ele>410.1666666666667</ele><time>2026-05-03T12:10:01.201Z</time></trkpt><trkpt lat="46.0936954" lon="13.5640961"><ele>409.33333333333337</ele><time>2026-05-03T12:10:02.201Z</time></trkpt><trkpt lat="46.0937222" lon="13.5639879"><ele>408.5</ele><time>2026-05-03T12:10:03.201Z</time></trkpt><trkpt lat="46.0937593" lon="13.5638887"><ele>407.6666666666667</ele><time>2026-05-03T12:10:04.201Z</time></trkpt><trkpt lat="46.0937992" lon="13.5637931"><ele>406.83333333333337</ele><time>2026-05-03T12:10:05.201Z</time></trkpt><trkpt lat="46.0938446" lon="13.5636851"><ele>406.0</ele><time>2026-05-03T12:10:06.201Z</time></trkpt><trkpt lat="46.0938963" lon="13.5635665"><ele>404.20000000000005</ele><time>2026-05-03T12:10:07.201Z</time></trkpt><trkpt lat="46.0939495" lon="13.5634397"><ele>402.40000000000003</ele><time>2026-05-03T12:10:08.201Z</time></trkpt><trkpt lat="46.0940007" lon="13.5633167"><ele>400.6</ele><time>2026-05-03T12:10:09.201Z</time></trkpt><trkpt lat="46.0940452" lon="13.5632019"><ele>398.8</ele><time>2026-05-03T12:10:10.201Z</time></trkpt><trkpt lat="46.0940826" lon="13.5630866"><ele>397.0</ele><time>2026-05-03T12:10:11.201Z</time></trkpt><trkpt lat="46.0941009" lon="13.5629585"><ele>407.6</ele><time>2026-05-03T12:10:12.201Z</time></trkpt><trkpt lat="46.0941052" lon="13.562818"><ele>418.20000000000005</ele><time>2026-05-03T12:10:13.202Z</time></trkpt><trkpt lat="46.0941111" lon="13.5626781"><ele>428.8</ele><time>2026-05-03T12:10:14.201Z</time></trkpt><trkpt lat="46.0941143" lon="13.5625438"><ele>439.4</ele><time>2026-05-03T12:10:15.201Z</time></trkpt><trkpt lat="46.0941217" lon="13.5624005"><ele>450.0</ele><time>2026-05-03T12:10:16.201Z</time></trkpt><trkpt lat="46.0941054" lon="13.5622609"><ele>441.0</ele><time>2026-05-03T12:10:17.201Z</time></trkpt><trkpt lat="46.0940719" lon="13.5621195"><ele>432.0</ele><time>2026-05-03T12:10:18.201Z</time></trkpt><trkpt lat="46.0940468" lon="13.5619827"><ele>423.0</ele><time>2026-05-03T12:10:19.201Z</time></trkpt><trkpt lat="46.0940274" lon="13.5618569"><ele>414.0</ele><time>2026-05-03T12:10:20.201Z</time></trkpt><trkpt lat="46.0940169" lon="13.5617373"><ele>405.0</ele><time>2026-05-03T12:10:21.201Z</time></trkpt><trkpt lat="46.0940068" lon="13.5616305"><ele>396.0</ele><time>2026-05-03T12:10:22.201Z</time></trkpt><trkpt lat="46.0940137" lon="13.5615271"><ele>396.0</ele><time>2026-05-03T12:10:23.201Z</time></trkpt><trkpt lat="46.0940363" lon="13.5614286"><ele>396.0</ele><time>2026-05-03T12:10:24.201Z</time></trkpt><trkpt lat="46.0940819" lon="13.5613412"><ele>396.0</ele><time>2026-05-03T12:10:25.201Z</time></trkpt><trkpt lat="46.0941349" lon="13.5612559"><ele>396.0</ele><time>2026-05-03T12:10:26.201Z</time></trkpt><trkpt lat="46.0941866" lon="13.5611626"><ele>396.0</ele><time>2026-05-03T12:10:27.201Z</time></trkpt><trkpt lat="46.094227" lon="13.5610435"><ele>396.0</ele><time>2026-05-03T12:10:28.201Z</time></trkpt><trkpt lat="46.0942401" lon="13.5609083"><ele>406.8</ele><time>2026-05-03T12:10:29.201Z</time></trkpt><trkpt lat="46.0942399" lon="13.5607633"><ele>417.6</ele><time>2026-05-03T12:10:30.201Z</time></trkpt><trkpt lat="46.094226" lon="13.5606145"><ele>428.4</ele><time>2026-05-03T12:10:31.201Z</time></trkpt><trkpt lat="46.0942059" lon="13.5604685"><ele>439.2</ele><time>2026-05-03T12:10:32.201Z</time></trkpt><trkpt lat="46.0941685" lon="13.5603317"><ele>450.0</ele><time>2026-05-03T12:10:33.202Z</time></trkpt><trkpt lat="46.0940983" lon="13.5602367"><ele>453.8333333333333</ele><time>2026-05-03T12:10:34.201Z</time></trkpt><trkpt lat="46.09404" lon="13.56015"><ele>457.66666666666663</ele><time>2026-05-03T12:10:35.201Z</time></trkpt><trkpt lat="46.09399" lon="13.5600833"><ele>461.5</ele><time>2026-05-03T12:10:36.201Z</time></trkpt><trkpt lat="46.0939367" lon="13.5600283"><ele>465.3333333333333</ele><time>2026-05-03T12:10:37.201Z</time></trkpt><trkpt lat="46.0938483" lon="13.5599583"><ele>469.16666666666663</ele><time>2026-05-03T12:10:39.201Z</time></trkpt><trkpt lat="46.0937267" lon="13.55994"><ele>473.0</ele><time>2026-05-03T12:10:41.201Z</time></trkpt><trkpt lat="46.093595" lon="13.559975"><ele>472.99999999999994</ele><time>2026-05-03T12:10:43.201Z</time></trkpt><trkpt lat="46.0935217" lon="13.56002"><ele>473.0</ele><time>2026-05-03T12:10:44.201Z</time></trkpt><trkpt lat="46.0934433" lon="13.5600633"><ele>473.0</ele><time>2026-05-03T12:10:45.201Z</time></trkpt><trkpt lat="46.09336" lon="13.5600883"><ele>473.0</ele><time>2026-05-03T12:10:46.201Z</time></trkpt><trkpt lat="46.093275" lon="13.5601"><ele>472.99999999999994</ele><time>2026-05-03T12:10:47.201Z</time></trkpt><trkpt lat="46.0931767" lon="13.560095"><ele>473.0</ele><time>2026-05-03T12:10:48.201Z</time></trkpt><trkpt lat="46.0930667" lon="13.56009"><ele>474.4</ele><time>2026-05-03T12:10:49.201Z</time></trkpt><trkpt lat="46.092965" lon="13.5600933"><ele>475.79999999999995</ele><time>2026-05-03T12:10:50.201Z</time></trkpt><trkpt lat="46.09287" lon="13.5600917"><ele>477.2</ele><time>2026-05-03T12:10:51.201Z</time></trkpt><trkpt lat="46.0927817" lon="13.560105"><ele>478.6</ele><time>2026-05-03T12:10:52.201Z</time></trkpt><trkpt lat="46.0927117" lon="13.5601167"><ele>480.0</ele><time>2026-05-03T12:10:53.201Z</time></trkpt><trkpt lat="46.0926067" lon="13.5601283"><ele>480.0</ele><time>2026-05-03T12:10:55.201Z</time></trkpt><trkpt lat="46.0925217" lon="13.560075"><ele>480.0</ele><time>2026-05-03T12:10:57.201Z</time></trkpt><trkpt lat="46.092485" lon="13.55994"><ele>480.0</ele><time>2026-05-03T12:10:59.201Z</time></trkpt><trkpt lat="46.092485" lon="13.5598467"><ele>480.0</ele><time>2026-05-03T12:11:00.201Z</time></trkpt><trkpt lat="46.09249" lon="13.55974"><ele>480.0</ele><time>2026-05-03T12:11:01.201Z</time></trkpt><trkpt lat="46.0925017" lon="13.559625"><ele>480.0</ele><time>2026-05-03T12:11:02.201Z</time></trkpt><trkpt lat="46.0925167" lon="13.559485"><ele>480.4</ele><time>2026-05-03T12:11:03.201Z</time></trkpt><trkpt lat="46.09253" lon="13.5593517"><ele>480.8</ele><time>2026-05-03T12:11:04.201Z</time></trkpt><trkpt lat="46.092555" lon="13.5592283"><ele>481.20000000000005</ele><time>2026-05-03T12:11:05.201Z</time></trkpt><trkpt lat="46.0925883" lon="13.559105"><ele>481.6</ele><time>2026-05-03T12:11:06.201Z</time></trkpt><trkpt lat="46.0926283" lon="13.55899"><ele>482.0</ele><time>2026-05-03T12:11:07.201Z</time></trkpt><trkpt lat="46.0926667" lon="13.5588717"><ele>482.0</ele><time>2026-05-03T12:11:08.201Z</time></trkpt><trkpt lat="46.0927067" lon="13.5587417"><ele>482.00000000000006</ele><time>2026-05-03T12:11:09.201Z</time></trkpt><trkpt lat="46.09274" lon="13.5585983"><ele>482.00000000000006</ele><time>2026-05-03T12:11:10.201Z</time></trkpt><trkpt lat="46.09278" lon="13.5584567"><ele>482.0</ele><time>2026-05-03T12:11:11.201Z</time></trkpt><trkpt lat="46.092815" lon="13.5583133"><ele>482.0</ele><time>2026-05-03T12:11:12.201Z</time></trkpt><trkpt lat="46.0928433" lon="13.5581583"><ele>480.20000000000005</ele><time>2026-05-03T12:11:13.201Z</time></trkpt><trkpt lat="46.0928683" lon="13.558005"><ele>478.40000000000003</ele><time>2026-05-03T12:11:14.201Z</time></trkpt><trkpt lat="46.0928817" lon="13.55786"><ele>476.59999999999997</ele><time>2026-05-03T12:11:15.201Z</time></trkpt><trkpt lat="46.092905" lon="13.5577217"><ele>474.79999999999995</ele><time>2026-05-03T12:11:16.201Z</time></trkpt><trkpt lat="46.09293" lon="13.5575883"><ele>473.0</ele><time>2026-05-03T12:11:17.201Z</time></trkpt><trkpt lat="46.092955" lon="13.557465"><ele>473.16666666666663</ele><time>2026-05-03T12:11:18.201Z</time></trkpt><trkpt lat="46.0929683" lon="13.557335"><ele>473.3333333333333</ele><time>2026-05-03T12:11:19.201Z</time></trkpt><trkpt lat="46.092985" lon="13.55719"><ele>473.5</ele><time>2026-05-03T12:11:20.201Z</time></trkpt><trkpt lat="46.09299" lon="13.5570583"><ele>473.66666666666663</ele><time>2026-05-03T12:11:21.201Z</time></trkpt><trkpt lat="46.09299" lon="13.5569267"><ele>473.8333333333333</ele><time>2026-05-03T12:11:22.201Z</time></trkpt><trkpt lat="46.0929717" lon="13.556825"><ele>474.0</ele><time>2026-05-03T12:11:23.201Z</time></trkpt><trkpt lat="46.0929117" lon="13.5567433"><ele>474.0</ele><time>2026-05-03T12:11:24.201Z</time></trkpt><trkpt lat="46.0928617" lon="13.5566817"><ele>474.0</ele><time>2026-05-03T12:11:25.201Z</time></trkpt><trkpt lat="46.0928017" lon="13.55662"><ele>474.0</ele><time>2026-05-03T12:11:26.201Z</time></trkpt><trkpt lat="46.092745" lon="13.5565333"><ele>474.0</ele><time>2026-05-03T12:11:27.201Z</time></trkpt><trkpt lat="46.0927" lon="13.5564283"><ele>474.0</ele><time>2026-05-03T12:11:28.201Z</time></trkpt><trkpt lat="46.092645" lon="13.5563183"><ele>474.0</ele><time>2026-05-03T12:11:29.201Z</time></trkpt><trkpt lat="46.0925883" lon="13.556225"><ele>475.6666666666667</ele><time>2026-05-03T12:11:30.201Z</time></trkpt><trkpt lat="46.0925317" lon="13.5561267"><ele>477.33333333333337</ele><time>2026-05-03T12:11:31.201Z</time></trkpt><trkpt lat="46.0924867" lon="13.5560317"><ele>479.0</ele><time>2026-05-03T12:11:32.201Z</time></trkpt><trkpt lat="46.092455" lon="13.5559317"><ele>480.6666666666667</ele><time>2026-05-03T12:11:33.201Z</time></trkpt><trkpt lat="46.0924267" lon="13.55584"><ele>482.33333333333337</ele><time>2026-05-03T12:11:34.201Z</time></trkpt><trkpt lat="46.0924183" lon="13.555725"><ele>484.0</ele><time>2026-05-03T12:11:35.201Z</time></trkpt><trkpt lat="46.0924067" lon="13.555595"><ele>477.0</ele><time>2026-05-03T12:11:36.201Z</time></trkpt><trkpt lat="46.0923833" lon="13.555455"><ele>470.0</ele><time>2026-05-03T12:11:37.201Z</time></trkpt><trkpt lat="46.0923717" lon="13.5553117"><ele>463.0</ele><time>2026-05-03T12:11:38.201Z</time></trkpt><trkpt lat="46.0923733" lon="13.5551733"><ele>456.0</ele><time>2026-05-03T12:11:39.201Z</time></trkpt><trkpt lat="46.0923617" lon="13.555025"><ele>449.0</ele><time>2026-05-03T12:11:40.201Z</time></trkpt><trkpt lat="46.092335" lon="13.554855"><ele>449.0</ele><time>2026-05-03T12:11:41.201Z</time></trkpt><trkpt lat="46.092295" lon="13.5546833"><ele>449.0</ele><time>2026-05-03T12:11:42.201Z</time></trkpt><trkpt lat="46.0922433" lon="13.55454"><ele>449.0</ele><time>2026-05-03T12:11:43.201Z</time></trkpt><trkpt lat="46.0921667" lon="13.5544"><ele>449.0</ele><time>2026-05-03T12:11:44.201Z</time></trkpt><trkpt lat="46.09209" lon="13.5542833"><ele>453.0</ele><time>2026-05-03T12:11:45.201Z</time></trkpt><trkpt lat="46.0920333" lon="13.554195"><ele>457.0</ele><time>2026-05-03T12:11:46.201Z</time></trkpt><trkpt lat="46.092005" lon="13.5540817"><ele>461.0</ele><time>2026-05-03T12:11:47.201Z</time></trkpt><trkpt lat="46.091995" lon="13.553895"><ele>465.0</ele><time>2026-05-03T12:11:49.201Z</time></trkpt><trkpt lat="46.0920033" lon="13.5537833"><ele>469.0</ele><time>2026-05-03T12:11:50.201Z</time></trkpt><trkpt lat="46.091995" lon="13.5536667"><ele>470.6666666666667</ele><time>2026-05-03T12:11:51.201Z</time></trkpt><trkpt lat="46.09198" lon="13.553545"><ele>472.33333333333337</ele><time>2026-05-03T12:11:52.201Z</time></trkpt><trkpt lat="46.0919467" lon="13.5534283"><ele>474.0</ele><time>2026-05-03T12:11:53.201Z</time></trkpt><trkpt lat="46.0919067" lon="13.553315"><ele>475.66666666666663</ele><time>2026-05-03T12:11:54.201Z</time></trkpt><trkpt lat="46.0918817" lon="13.553185"><ele>477.3333333333333</ele><time>2026-05-03T12:11:55.201Z</time></trkpt><trkpt lat="46.0918667" lon="13.553065"><ele>479.0</ele><time>2026-05-03T12:11:56.201Z</time></trkpt><trkpt lat="46.091865" lon="13.5529467"><ele>478.66666666666663</ele><time>2026-05-03T12:11:57.201Z</time></trkpt><trkpt lat="46.0918717" lon="13.5528183"><ele>478.3333333333333</ele><time>2026-05-03T12:11:58.201Z</time></trkpt><trkpt lat="46.0918817" lon="13.5526983"><ele>478.0</ele><time>2026-05-03T12:11:59.201Z</time></trkpt><trkpt lat="46.091885" lon="13.5525717"><ele>477.66666666666663</ele><time>2026-05-03T12:12:00.201Z</time></trkpt><trkpt lat="46.091885" lon="13.5524583"><ele>477.3333333333333</ele><time>2026-05-03T12:12:01.201Z</time></trkpt><trkpt lat="46.0918833" lon="13.5523317"><ele>477.0</ele><time>2026-05-03T12:12:02.201Z</time></trkpt><trkpt lat="46.0918883" lon="13.5522067"><ele>477.0</ele><time>2026-05-03T12:12:03.201Z</time></trkpt><trkpt lat="46.0918933" lon="13.552085"><ele>477.0</ele><time>2026-05-03T12:12:04.201Z</time></trkpt><trkpt lat="46.0919217" lon="13.5519683"><ele>477.0</ele><time>2026-05-03T12:12:05.201Z</time></trkpt><trkpt lat="46.0919567" lon="13.5518483"><ele>477.0</ele><time>2026-05-03T12:12:06.201Z</time></trkpt><trkpt lat="46.091995" lon="13.551735"><ele>477.0</ele><time>2026-05-03T12:12:07.201Z</time></trkpt><trkpt lat="46.09203" lon="13.55164"><ele>477.0</ele><time>2026-05-03T12:12:08.201Z</time></trkpt><trkpt lat="46.0920933" lon="13.551515"><ele>475.71428571428567</ele><time>2026-05-03T12:12:10.201Z</time></trkpt><trkpt lat="46.0921017" lon="13.551405"><ele>474.4285714285714</ele><time>2026-05-03T12:12:12.201Z</time></trkpt><trkpt lat="46.0920367" lon="13.5513583"><ele>473.1428571428571</ele><time>2026-05-03T12:12:14.201Z</time></trkpt><trkpt lat="46.09195" lon="13.5513767"><ele>471.8571428571429</ele><time>2026-05-03T12:12:16.201Z</time></trkpt><trkpt lat="46.0918905" lon="13.5514119"><ele>470.5714285714286</ele><time>2026-05-03T12:12:19.293Z</time></trkpt><trkpt lat="46.0918243" lon="13.5513953"><ele>469.28571428571433</ele><time>2026-05-03T12:12:20.302Z</time></trkpt><trkpt lat="46.0917568" lon="13.5513465"><ele>468.0</ele><time>2026-05-03T12:12:22.243Z</time></trkpt><trkpt lat="46.0917346" lon="13.5512387"><ele>466.3333333333333</ele><time>2026-05-03T12:12:25.348Z</time></trkpt><trkpt lat="46.0917383" lon="13.5511217"><ele>464.66666666666663</ele><time>2026-05-03T12:12:27.201Z</time></trkpt><trkpt lat="46.0917733" lon="13.55104"><ele>463.0</ele><time>2026-05-03T12:12:28.201Z</time></trkpt><trkpt lat="46.0918167" lon="13.5509283"><ele>461.3333333333333</ele><time>2026-05-03T12:12:29.201Z</time></trkpt><trkpt lat="46.0918683" lon="13.5508133"><ele>459.66666666666663</ele><time>2026-05-03T12:12:30.201Z</time></trkpt><trkpt lat="46.0919267" lon="13.5507033"><ele>458.0</ele><time>2026-05-03T12:12:31.201Z</time></trkpt><trkpt lat="46.0919733" lon="13.5506117"><ele>457.99999999999994</ele><time>2026-05-03T12:12:32.201Z</time></trkpt><trkpt lat="46.0920133" lon="13.5505367"><ele>458.0</ele><time>2026-05-03T12:12:33.201Z</time></trkpt><trkpt lat="46.091975" lon="13.5504417"><ele>458.0</ele><time>2026-05-03T12:12:36.201Z</time></trkpt><trkpt lat="46.0918933" lon="13.550395"><ele>458.0</ele><time>2026-05-03T12:12:38.201Z</time></trkpt><trkpt lat="46.0918733" lon="13.5502933"><ele>457.99999999999994</ele><time>2026-05-03T12:12:40.201Z</time></trkpt><trkpt lat="46.0918867" lon="13.550185"><ele>458.0</ele><time>2026-05-03T12:12:42.201Z</time></trkpt><trkpt lat="46.0918167" lon="13.5501717"><ele>455.59999999999997</ele><time>2026-05-03T12:12:47.201Z</time></trkpt><trkpt lat="46.0917067" lon="13.5502683"><ele>453.19999999999993</ele><time>2026-05-03T12:12:49.201Z</time></trkpt><trkpt lat="46.0916117" lon="13.55033"><ele>450.8</ele><time>2026-05-03T12:12:50.201Z</time></trkpt><trkpt lat="46.0915183" lon="13.5504067"><ele>448.4</ele><time>2026-05-03T12:12:51.2Z</time></trkpt><trkpt lat="46.0914233" lon="13.5504817"><ele>446.0</ele><time>2026-05-03T12:12:52.201Z</time></trkpt><trkpt lat="46.0913283" lon="13.5505583"><ele>443.0</ele><time>2026-05-03T12:12:53.201Z</time></trkpt><trkpt lat="46.09123" lon="13.55064"><ele>440.0</ele><time>2026-05-03T12:12:54.201Z</time></trkpt><trkpt lat="46.0911467" lon="13.550735"><ele>437.0</ele><time>2026-05-03T12:12:55.201Z</time></trkpt><trkpt lat="46.0910667" lon="13.550835"><ele>434.0</ele><time>2026-05-03T12:12:56.201Z</time></trkpt><trkpt lat="46.0909983" lon="13.5509517"><ele>431.0</ele><time>2026-05-03T12:12:57.201Z</time></trkpt><trkpt lat="46.0909367" lon="13.5510617"><ele>430.99999999999994</ele><time>2026-05-03T12:12:58.201Z</time></trkpt><trkpt lat="46.09087" lon="13.5511267"><ele>431.0</ele><time>2026-05-03T12:12:59.201Z</time></trkpt><trkpt lat="46.0908017" lon="13.55106"><ele>431.0</ele><time>2026-05-03T12:13:01.201Z</time></trkpt><trkpt lat="46.0908283" lon="13.55097"><ele>431.0</ele><time>2026-05-03T12:13:02.201Z</time></trkpt><trkpt lat="46.0908933" lon="13.5508783"><ele>430.99999999999994</ele><time>2026-05-03T12:13:03.201Z</time></trkpt><trkpt lat="46.0909783" lon="13.5507633"><ele>431.0</ele><time>2026-05-03T12:13:04.201Z</time></trkpt><trkpt lat="46.0910733" lon="13.5506283"><ele>431.0</ele><time>2026-05-03T12:13:05.202Z</time></trkpt><trkpt lat="46.0911567" lon="13.5504817"><ele>431.0</ele><time>2026-05-03T12:13:06.201Z</time></trkpt><trkpt lat="46.0912333" lon="13.550345"><ele>431.0</ele><time>2026-05-03T12:13:07.201Z</time></trkpt><trkpt lat="46.09128" lon="13.550225"><ele>431.0</ele><time>2026-05-03T12:13:08.201Z</time></trkpt><trkpt lat="46.0912867" lon="13.5501067"><ele>431.0</ele><time>2026-05-03T12:13:09.201Z</time></trkpt><trkpt lat="46.0912383" lon="13.549985"><ele>428.6</ele><time>2026-05-03T12:13:10.201Z</time></trkpt><trkpt lat="46.0911733" lon="13.5498533"><ele>426.20000000000005</ele><time>2026-05-03T12:13:11.201Z</time></trkpt><trkpt lat="46.0911267" lon="13.5497183"><ele>423.79999999999995</ele><time>2026-05-03T12:13:12.201Z</time></trkpt><trkpt lat="46.0911133" lon="13.549575"><ele>421.4</ele><time>2026-05-03T12:13:13.201Z</time></trkpt><trkpt lat="46.0911233" lon="13.54943"><ele>419.0</ele><time>2026-05-03T12:13:14.201Z</time></trkpt><trkpt lat="46.09116" lon="13.54927"><ele>417.75</ele><time>2026-05-03T12:13:15.201Z</time></trkpt><trkpt lat="46.091205" lon="13.5491217"><ele>416.5</ele><time>2026-05-03T12:13:16.201Z</time></trkpt><trkpt lat="46.0912517" lon="13.5489633"><ele>415.25</ele><time>2026-05-03T12:13:17.201Z</time></trkpt><trkpt lat="46.0913167" lon="13.5488317"><ele>414.0</ele><time>2026-05-03T12:13:18.201Z</time></trkpt><trkpt lat="46.0913983" lon="13.5487267"><ele>414.75</ele><time>2026-05-03T12:13:19.201Z</time></trkpt><trkpt lat="46.0915" lon="13.54865"><ele>415.5</ele><time>2026-05-03T12:13:20.201Z</time></trkpt><trkpt lat="46.0916167" lon="13.54859"><ele>416.25</ele><time>2026-05-03T12:13:21.201Z</time></trkpt><trkpt lat="46.09174" lon="13.548555"><ele>417.0</ele><time>2026-05-03T12:13:22.201Z</time></trkpt><trkpt lat="46.0918617" lon="13.5484783"><ele>417.0</ele><time>2026-05-03T12:13:23.202Z</time></trkpt><trkpt lat="46.091975" lon="13.5483917"><ele>417.0</ele><time>2026-05-03T12:13:24.201Z</time></trkpt><trkpt lat="46.0920617" lon="13.548315"><ele>417.0</ele><time>2026-05-03T12:13:25.201Z</time></trkpt><trkpt lat="46.0921167" lon="13.5482383"><ele>417.0</ele><time>2026-05-03T12:13:26.201Z</time></trkpt><trkpt lat="46.0921133" lon="13.5481333"><ele>417.0</ele><time>2026-05-03T12:13:27.202Z</time></trkpt><trkpt lat="46.0920067" lon="13.5480517"><ele>417.0</ele><time>2026-05-03T12:13:29.201Z</time></trkpt><trkpt lat="46.09191" lon="13.5480883"><ele>417.0</ele><time>2026-05-03T12:13:30.201Z</time></trkpt><trkpt lat="46.0918033" lon="13.54814"><ele>417.0</ele><time>2026-05-03T12:13:31.201Z</time></trkpt><trkpt lat="46.0916717" lon="13.5481767"><ele>417.0</ele><time>2026-05-03T12:13:32.201Z</time></trkpt><trkpt lat="46.091535" lon="13.5481717"><ele>415.0</ele><time>2026-05-03T12:13:33.201Z</time></trkpt><trkpt lat="46.09141" lon="13.5481183"><ele>413.0</ele><time>2026-05-03T12:13:34.201Z</time></trkpt><trkpt lat="46.09129" lon="13.5480583"><ele>411.0</ele><time>2026-05-03T12:13:35.201Z</time></trkpt><trkpt lat="46.091185" lon="13.548035"><ele>409.0</ele><time>2026-05-03T12:13:36.201Z</time></trkpt><trkpt lat="46.0910733" lon="13.548055"><ele>409.0</ele><time>2026-05-03T12:13:37.201Z</time></trkpt><trkpt lat="46.090955" lon="13.54811"><ele>409.0</ele><time>2026-05-03T12:13:38.201Z</time></trkpt><trkpt lat="46.0908317" lon="13.548195"><ele>409.0</ele><time>2026-05-03T12:13:39.201Z</time></trkpt><trkpt lat="46.0907117" lon="13.5482883"><ele>409.0</ele><time>2026-05-03T12:13:40.201Z</time></trkpt><trkpt lat="46.0905883" lon="13.5483867"><ele>406.75</ele><time>2026-05-03T12:13:41.201Z</time></trkpt><trkpt lat="46.0904567" lon="13.548485"><ele>404.5</ele><time>2026-05-03T12:13:42.201Z</time></trkpt><trkpt lat="46.0903283" lon="13.5485833"><ele>402.25</ele><time>2026-05-03T12:13:43.201Z</time></trkpt><trkpt lat="46.0902033" lon="13.5486683"><ele>400.0</ele><time>2026-05-03T12:13:44.201Z</time></trkpt><trkpt lat="46.09009" lon="13.548745"><ele>399.75</ele><time>2026-05-03T12:13:45.201Z</time></trkpt><trkpt lat="46.08998" lon="13.5488"><ele>399.5</ele><time>2026-05-03T12:13:46.201Z</time></trkpt><trkpt lat="46.0898717" lon="13.54881"><ele>399.25</ele><time>2026-05-03T12:13:47.201Z</time></trkpt><trkpt lat="46.0897567" lon="13.548785"><ele>399.0</ele><time>2026-05-03T12:13:48.201Z</time></trkpt><trkpt lat="46.08963" lon="13.5487317"><ele>397.0</ele><time>2026-05-03T12:13:49.201Z</time></trkpt><trkpt lat="46.0895033" lon="13.5486567"><ele>395.0</ele><time>2026-05-03T12:13:50.201Z</time></trkpt><trkpt lat="46.0893833" lon="13.5485683"><ele>393.0</ele><time>2026-05-03T12:13:51.201Z</time></trkpt><trkpt lat="46.089275" lon="13.5484467"><ele>391.0</ele><time>2026-05-03T12:13:52.201Z</time></trkpt><trkpt lat="46.08917" lon="13.5483233"><ele>387.75</ele><time>2026-05-03T12:13:53.201Z</time></trkpt><trkpt lat="46.08906" lon="13.5481833"><ele>384.5</ele><time>2026-05-03T12:13:54.201Z</time></trkpt><trkpt lat="46.0889533" lon="13.548065"><ele>381.25</ele><time>2026-05-03T12:13:55.201Z</time></trkpt><trkpt lat="46.0888217" lon="13.5479867"><ele>378.0</ele><time>2026-05-03T12:13:56.201Z</time></trkpt><trkpt lat="46.0886817" lon="13.5479533"><ele>378.0</ele><time>2026-05-03T12:13:57.201Z</time></trkpt><trkpt lat="46.0885517" lon="13.5479767"><ele>378.0</ele><time>2026-05-03T12:13:58.201Z</time></trkpt><trkpt lat="46.08844" lon="13.5480483"><ele>378.0</ele><time>2026-05-03T12:13:59.201Z</time></trkpt><trkpt lat="46.08834" lon="13.548165"><ele>378.0</ele><time>2026-05-03T12:14:00.201Z</time></trkpt><trkpt lat="46.0882483" lon="13.548305"><ele>373.0</ele><time>2026-05-03T12:14:01.201Z</time></trkpt><trkpt lat="46.0881783" lon="13.5484717"><ele>368.0</ele><time>2026-05-03T12:14:02.201Z</time></trkpt><trkpt lat="46.088125" lon="13.5486617"><ele>363.0</ele><time>2026-05-03T12:14:03.201Z</time></trkpt><trkpt lat="46.0880933" lon="13.54885"><ele>358.0</ele><time>2026-05-03T12:14:04.202Z</time></trkpt><trkpt lat="46.0880733" lon="13.5490233"><ele>358.0</ele><time>2026-05-03T12:14:05.201Z</time></trkpt><trkpt lat="46.088095" lon="13.5491767"><ele>358.0</ele><time>2026-05-03T12:14:06.201Z</time></trkpt><trkpt lat="46.0881567" lon="13.54931"><ele>358.0</ele><time>2026-05-03T12:14:07.201Z</time></trkpt><trkpt lat="46.0882533" lon="13.5493983"><ele>358.0</ele><time>2026-05-03T12:14:08.201Z</time></trkpt><trkpt lat="46.08836" lon="13.5494567"><ele>358.0</ele><time>2026-05-03T12:14:09.201Z</time></trkpt><trkpt lat="46.0884433" lon="13.5495267"><ele>356.2</ele><time>2026-05-03T12:14:10.201Z</time></trkpt><trkpt lat="46.0884967" lon="13.549625"><ele>354.4</ele><time>2026-05-03T12:14:11.201Z</time></trkpt><trkpt lat="46.0885217" lon="13.5497217"><ele>352.59999999999997</ele><time>2026-05-03T12:14:12.201Z</time></trkpt><trkpt lat="46.088455" lon="13.54978"><ele>350.79999999999995</ele><time>2026-05-03T12:14:13.201Z</time></trkpt><trkpt lat="46.0883617" lon="13.5498517"><ele>349.0</ele><time>2026-05-03T12:14:14.201Z</time></trkpt><trkpt lat="46.0882467" lon="13.549935"><ele>349.0</ele><time>2026-05-03T12:14:15.201Z</time></trkpt><trkpt lat="46.0881083" lon="13.5500417"><ele>349.0</ele><time>2026-05-03T12:14:16.201Z</time></trkpt><trkpt lat="46.0879717" lon="13.5501617"><ele>349.0</ele><time>2026-05-03T12:14:17.201Z</time></trkpt><trkpt lat="46.08785" lon="13.5502867"><ele>347.5</ele><time>2026-05-03T12:14:18.201Z</time></trkpt><trkpt lat="46.08775" lon="13.550435"><ele>346.0</ele><time>2026-05-03T12:14:19.201Z</time></trkpt><trkpt lat="46.0876717" lon="13.5506133"><ele>344.5</ele><time>2026-05-03T12:14:20.201Z</time></trkpt><trkpt lat="46.0876167" lon="13.5507933"><ele>343.0</ele><time>2026-05-03T12:14:21.201Z</time></trkpt><trkpt lat="46.0875917" lon="13.5509833"><ele>343.0</ele><time>2026-05-03T12:14:22.201Z</time></trkpt><trkpt lat="46.0876067" lon="13.5511533"><ele>343.0</ele><time>2026-05-03T12:14:23.201Z</time></trkpt><trkpt lat="46.0876717" lon="13.5513017"><ele>343.0</ele><time>2026-05-03T12:14:24.201Z</time></trkpt><trkpt lat="46.08776" lon="13.5514417"><ele>343.0</ele><time>2026-05-03T12:14:25.201Z</time></trkpt><trkpt lat="46.0878467" lon="13.5515917"><ele>341.0</ele><time>2026-05-03T12:14:26.201Z</time></trkpt><trkpt lat="46.0879083" lon="13.551765"><ele>339.0</ele><time>2026-05-03T12:14:27.201Z</time></trkpt><trkpt lat="46.0879567" lon="13.5519617"><ele>337.0</ele><time>2026-05-03T12:14:28.201Z</time></trkpt><trkpt lat="46.0880067" lon="13.5521733"><ele>335.0</ele><time>2026-05-03T12:14:29.201Z</time></trkpt><trkpt lat="46.08808" lon="13.5523817"><ele>331.6666666666667</ele><time>2026-05-03T12:14:30.201Z</time></trkpt><trkpt lat="46.0881617" lon="13.5525817"><ele>328.3333333333333</ele><time>2026-05-03T12:14:31.202Z</time></trkpt><trkpt lat="46.0882567" lon="13.5527583"><ele>325.0</ele><time>2026-05-03T12:14:32.201Z</time></trkpt><trkpt lat="46.088375" lon="13.552935"><ele>325.0</ele><time>2026-05-03T12:14:33.201Z</time></trkpt><trkpt lat="46.0884967" lon="13.5531083"><ele>325.0</ele><time>2026-05-03T12:14:34.201Z</time></trkpt><trkpt lat="46.0885933" lon="13.5532583"><ele>325.0</ele><time>2026-05-03T12:14:35.201Z</time></trkpt><trkpt lat="46.0886683" lon="13.5534017"><ele>325.0</ele><time>2026-05-03T12:14:36.201Z</time></trkpt><trkpt lat="46.088715" lon="13.5535467"><ele>325.0</ele><time>2026-05-03T12:14:37.201Z</time></trkpt><trkpt lat="46.0887267" lon="13.5536867"><ele>325.0</ele><time>2026-05-03T12:14:38.201Z</time></trkpt><trkpt lat="46.08869" lon="13.553835"><ele>325.0</ele><time>2026-05-03T12:14:39.201Z</time></trkpt><trkpt lat="46.0886583" lon="13.5540167"><ele>325.0</ele><time>2026-05-03T12:14:40.201Z</time></trkpt><trkpt lat="46.088645" lon="13.5542283"><ele>320.3333333333333</ele><time>2026-05-03T12:14:41.201Z</time></trkpt><trkpt lat="46.0886567" lon="13.5544717"><ele>315.6666666666667</ele><time>2026-05-03T12:14:42.201Z</time></trkpt><trkpt lat="46.088675" lon="13.5547383"><ele>311.0</ele><time>2026-05-03T12:14:43.201Z</time></trkpt><trkpt lat="46.0887233" lon="13.5550067"><ele>310.0</ele><time>2026-05-03T12:14:44.201Z</time></trkpt><trkpt lat="46.0887683" lon="13.5552317"><ele>309.0</ele><time>2026-05-03T12:14:45.201Z</time></trkpt><trkpt lat="46.0888283" lon="13.5554183"><ele>308.0</ele><time>2026-05-03T12:14:46.201Z</time></trkpt><trkpt lat="46.0889067" lon="13.5555667"><ele>307.0</ele><time>2026-05-03T12:14:47.201Z</time></trkpt><trkpt lat="46.08897" lon="13.555685"><ele>305.5</ele><time>2026-05-03T12:14:48.201Z</time></trkpt><trkpt lat="46.089" lon="13.5558017"><ele>304.0</ele><time>2026-05-03T12:14:49.201Z</time></trkpt><trkpt lat="46.0889983" lon="13.555945"><ele>302.5</ele><time>2026-05-03T12:14:50.201Z</time></trkpt><trkpt lat="46.088965" lon="13.556125"><ele>301.0</ele><time>2026-05-03T12:14:51.201Z</time></trkpt><trkpt lat="46.0889183" lon="13.5563333"><ele>299.6</ele><time>2026-05-03T12:14:52.201Z</time></trkpt><trkpt lat="46.088895" lon="13.55652"><ele>298.20000000000005</ele><time>2026-05-03T12:14:53.201Z</time></trkpt><trkpt lat="46.0888983" lon="13.5566883"><ele>296.79999999999995</ele><time>2026-05-03T12:14:54.201Z</time></trkpt><trkpt lat="46.0889467" lon="13.5568067"><ele>295.4</ele><time>2026-05-03T12:14:55.201Z</time></trkpt><trkpt lat="46.0890283" lon="13.5568867"><ele>294.0</ele><time>2026-05-03T12:14:56.201Z</time></trkpt><trkpt lat="46.0891083" lon="13.5569383"><ele>294.8</ele><time>2026-05-03T12:14:57.201Z</time></trkpt><trkpt lat="46.089155" lon="13.5570133"><ele>295.59999999999997</ele><time>2026-05-03T12:14:58.201Z</time></trkpt><trkpt lat="46.0890983" lon="13.5571517"><ele>296.4</ele><time>2026-05-03T12:15:00.201Z</time></trkpt><trkpt lat="46.089" lon="13.5572033"><ele>297.2</ele><time>2026-05-03T12:15:01.201Z</time></trkpt><trkpt lat="46.088875" lon="13.5572533"><ele>298.0</ele><time>2026-05-03T12:15:02.201Z</time></trkpt><trkpt lat="46.08878" lon="13.5573383"><ele>298.0</ele><time>2026-05-03T12:15:03.201Z</time></trkpt><trkpt lat="46.0887233" lon="13.55745"><ele>298.0</ele><time>2026-05-03T12:15:04.201Z</time></trkpt><trkpt lat="46.0886767" lon="13.5575617"><ele>298.0</ele><time>2026-05-03T12:15:05.201Z</time></trkpt><trkpt lat="46.08862" lon="13.5576567"><ele>298.0</ele><time>2026-05-03T12:15:06.201Z</time></trkpt><trkpt lat="46.0885183" lon="13.5577083"><ele>298.0</ele><time>2026-05-03T12:15:07.201Z</time></trkpt><trkpt lat="46.088415" lon="13.557705"><ele>298.0</ele><time>2026-05-03T12:15:08.201Z</time></trkpt><trkpt lat="46.0882867" lon="13.5576533"><ele>298.0</ele><time>2026-05-03T12:15:09.201Z</time></trkpt><trkpt lat="46.0881483" lon="13.55759"><ele>298.0</ele><time>2026-05-03T12:15:10.201Z</time></trkpt><trkpt lat="46.0880017" lon="13.55756"><ele>298.0</ele><time>2026-05-03T12:15:11.201Z</time></trkpt><trkpt lat="46.0878583" lon="13.5575683"><ele>293.0</ele><time>2026-05-03T12:15:12.201Z</time></trkpt><trkpt lat="46.0877217" lon="13.5576167"><ele>288.0</ele><time>2026-05-03T12:15:13.201Z</time></trkpt><trkpt lat="46.0876183" lon="13.5576667"><ele>283.0</ele><time>2026-05-03T12:15:14.201Z</time></trkpt><trkpt lat="46.0875467" lon="13.5576833"><ele>278.0</ele><time>2026-05-03T12:15:15.201Z</time></trkpt><trkpt lat="46.0875133" lon="13.5575833"><ele>273.0</ele><time>2026-05-03T12:15:17.201Z</time></trkpt><trkpt lat="46.0875767" lon="13.5574533"><ele>273.0</ele><time>2026-05-03T12:15:19.201Z</time></trkpt><trkpt lat="46.0876567" lon="13.557395"><ele>273.0</ele><time>2026-05-03T12:15:20.2Z</time></trkpt><trkpt lat="46.08777" lon="13.5573367"><ele>273.0</ele><time>2026-05-03T12:15:21.2Z</time></trkpt><trkpt lat="46.087895" lon="13.557305"><ele>273.0</ele><time>2026-05-03T12:15:22.2Z</time></trkpt><trkpt lat="46.0880167" lon="13.5573033"><ele>273.0</ele><time>2026-05-03T12:15:23.2Z</time></trkpt><trkpt lat="46.0881067" lon="13.557275"><ele>273.0</ele><time>2026-05-03T12:15:24.2Z</time></trkpt><trkpt lat="46.08815" lon="13.557175"><ele>273.0</ele><time>2026-05-03T12:15:26.2Z</time></trkpt><trkpt lat="46.0880433" lon="13.5571183"><ele>273.0</ele><time>2026-05-03T12:15:29.2Z</time></trkpt><trkpt lat="46.0879317" lon="13.5571133"><ele>273.0</ele><time>2026-05-03T12:15:30.2Z</time></trkpt><trkpt lat="46.0876683" lon="13.5571133"><ele>273.0</ele><time>2026-05-03T12:15:31.2Z</time></trkpt><trkpt lat="46.08745" lon="13.557135"><ele>273.0</ele><time>2026-05-03T12:15:32.2Z</time></trkpt><trkpt lat="46.0872883" lon="13.55719"><ele>273.0</ele><time>2026-05-03T12:15:33.2Z</time></trkpt><trkpt lat="46.087185" lon="13.5572617"><ele>264.6</ele><time>2026-05-03T12:15:34.2Z</time></trkpt><trkpt lat="46.0871383" lon="13.55735"><ele>256.20000000000005</ele><time>2026-05-03T12:15:35.2Z</time></trkpt><trkpt lat="46.08712" lon="13.55746"><ele>247.8</ele><time>2026-05-03T12:15:36.2Z</time></trkpt><trkpt lat="46.087125" lon="13.5576067"><ele>239.4</ele><time>2026-05-03T12:15:37.2Z</time></trkpt><trkpt lat="46.0871667" lon="13.557825"><ele>231.0</ele><time>2026-05-03T12:15:38.2Z</time></trkpt><trkpt lat="46.0872283" lon="13.5580833"><ele>227.0</ele><time>2026-05-03T12:15:39.2Z</time></trkpt><trkpt lat="46.0873217" lon="13.5583733"><ele>223.0</ele><time>2026-05-03T12:15:40.2Z</time></trkpt><trkpt lat="46.0873983" lon="13.5586617"><ele>219.0</ele><time>2026-05-03T12:15:41.2Z</time></trkpt><trkpt lat="46.0874783" lon="13.5589417"><ele>219.33333333333331</ele><time>2026-05-03T12:15:42.2Z</time></trkpt><trkpt lat="46.0875533" lon="13.5592017"><ele>219.66666666666666</ele><time>2026-05-03T12:15:43.2Z</time></trkpt><trkpt lat="46.08763" lon="13.5594567"><ele>220.0</ele><time>2026-05-03T12:15:44.2Z</time></trkpt><trkpt lat="46.0877333" lon="13.5596833"><ele>220.0</ele><time>2026-05-03T12:15:45.2Z</time></trkpt><trkpt lat="46.087825" lon="13.5598983"><ele>220.0</ele><time>2026-05-03T12:15:46.2Z</time></trkpt><trkpt lat="46.0879067" lon="13.5601283"><ele>220.0</ele><time>2026-05-03T12:15:47.2Z</time></trkpt><trkpt lat="46.08799" lon="13.5603517"><ele>213.33333333333331</ele><time>2026-05-03T12:15:48.2Z</time></trkpt><trkpt lat="46.0881033" lon="13.5605767"><ele>206.66666666666669</ele><time>2026-05-03T12:15:49.2Z</time></trkpt><trkpt lat="46.088235" lon="13.560795"><ele>200.0</ele><time>2026-05-03T12:15:50.2Z</time></trkpt><trkpt lat="46.0883767" lon="13.5609983"><ele>200.0</ele><time>2026-05-03T12:15:51.2Z</time></trkpt><trkpt lat="46.0885067" lon="13.5612067"><ele>200.0</ele><time>2026-05-03T12:15:52.2Z</time></trkpt><trkpt lat="46.0886167" lon="13.561425"><ele>200.0</ele><time>2026-05-03T12:15:53.2Z</time></trkpt><trkpt lat="46.0887183" lon="13.5616467"><ele>200.33333333333334</ele><time>2026-05-03T12:15:54.2Z</time></trkpt><trkpt lat="46.0888083" lon="13.561875"><ele>200.66666666666669</ele><time>2026-05-03T12:15:55.2Z</time></trkpt><trkpt lat="46.08891" lon="13.5621133"><ele>201.0</ele><time>2026-05-03T12:15:56.2Z</time></trkpt><trkpt lat="46.0889833" lon="13.5623517"><ele>201.0</ele><time>2026-05-03T12:15:57.2Z</time></trkpt><trkpt lat="46.0890383" lon="13.5626017"><ele>201.0</ele><time>2026-05-03T12:15:58.2Z</time></trkpt><trkpt lat="46.089085" lon="13.5628717"><ele>201.0</ele><time>2026-05-03T12:15:59.2Z</time></trkpt><trkpt lat="46.0891133" lon="13.5631567"><ele>210.33333333333331</ele><time>2026-05-03T12:16:00.2Z</time></trkpt><trkpt lat="46.08914" lon="13.5634183"><ele>219.66666666666666</ele><time>2026-05-03T12:16:01.2Z</time></trkpt><trkpt lat="46.0891483" lon="13.5636583"><ele>229.0</ele><time>2026-05-03T12:16:02.2Z</time></trkpt><trkpt lat="46.0891167" lon="13.5638783"><ele>217.33333333333331</ele><time>2026-05-03T12:16:03.2Z</time></trkpt><trkpt lat="46.0890683" lon="13.5640783"><ele>205.66666666666669</ele><time>2026-05-03T12:16:04.2Z</time></trkpt><trkpt lat="46.0890167" lon="13.5642933"><ele>194.0</ele><time>2026-05-03T12:16:05.2Z</time></trkpt><trkpt lat="46.0889767" lon="13.5645017"><ele>193.75</ele><time>2026-05-03T12:16:06.2Z</time></trkpt><trkpt lat="46.0889517" lon="13.5647067"><ele>193.5</ele><time>2026-05-03T12:16:07.2Z</time></trkpt><trkpt lat="46.088935" lon="13.564915"><ele>193.25</ele><time>2026-05-03T12:16:08.2Z</time></trkpt><trkpt lat="46.0889133" lon="13.5651167"><ele>193.0</ele><time>2026-05-03T12:16:09.2Z</time></trkpt><trkpt lat="46.0889117" lon="13.5653067"><ele>193.0</ele><time>2026-05-03T12:16:10.2Z</time></trkpt><trkpt lat="46.0889267" lon="13.5654833"><ele>193.0</ele><time>2026-05-03T12:16:11.2Z</time></trkpt><trkpt lat="46.0889783" lon="13.5656483"><ele>193.0</ele><time>2026-05-03T12:16:12.2Z</time></trkpt><trkpt lat="46.089055" lon="13.5658117"><ele>193.0</ele><time>2026-05-03T12:16:13.2Z</time></trkpt><trkpt lat="46.0891417" lon="13.5659767"><ele>195.2</ele><time>2026-05-03T12:16:14.2Z</time></trkpt><trkpt lat="46.0892367" lon="13.5661383"><ele>197.4</ele><time>2026-05-03T12:16:15.2Z</time></trkpt><trkpt lat="46.0893183" lon="13.566285"><ele>199.6</ele><time>2026-05-03T12:16:16.2Z</time></trkpt><trkpt lat="46.0893783" lon="13.5663917"><ele>201.79999999999998</ele><time>2026-05-03T12:16:17.2Z</time></trkpt><trkpt lat="46.0893983" lon="13.566495"><ele>204.0</ele><time>2026-05-03T12:16:18.2Z</time></trkpt><trkpt lat="46.0893517" lon="13.5666033"><ele>204.0</ele><time>2026-05-03T12:16:20.2Z</time></trkpt><trkpt lat="46.089255" lon="13.5665133"><ele>204.0</ele><time>2026-05-03T12:16:22.2Z</time></trkpt><trkpt lat="46.08919" lon="13.566425"><ele>204.0</ele><time>2026-05-03T12:16:23.2Z</time></trkpt><trkpt lat="46.0891133" lon="13.5663283"><ele>204.0</ele><time>2026-05-03T12:16:24.2Z</time></trkpt><trkpt lat="46.089015" lon="13.5662033"><ele>204.0</ele><time>2026-05-03T12:16:25.2Z</time></trkpt><trkpt lat="46.0889117" lon="13.56607"><ele>201.25</ele><time>2026-05-03T12:16:26.2Z</time></trkpt><trkpt lat="46.0888167" lon="13.5659083"><ele>198.5</ele><time>2026-05-03T12:16:27.2Z</time></trkpt><trkpt lat="46.0887283" lon="13.5657683"><ele>195.75</ele><time>2026-05-03T12:16:28.2Z</time></trkpt><trkpt lat="46.088655" lon="13.5656283"><ele>193.0</ele><time>2026-05-03T12:16:29.2Z</time></trkpt><trkpt lat="46.08862" lon="13.565465"><ele>193.0</ele><time>2026-05-03T12:16:30.2Z</time></trkpt><trkpt lat="46.0886333" lon="13.565295"><ele>193.0</ele><time>2026-05-03T12:16:31.2Z</time></trkpt><trkpt lat="46.08867" lon="13.5651017"><ele>193.0</ele><time>2026-05-03T12:16:32.2Z</time></trkpt><trkpt lat="46.0886933" lon="13.5648867"><ele>193.0</ele><time>2026-05-03T12:16:33.2Z</time></trkpt><trkpt lat="46.0886917" lon="13.5646767"><ele>193.25</ele><time>2026-05-03T12:16:34.2Z</time></trkpt><trkpt lat="46.0886833" lon="13.5644783"><ele>193.5</ele><time>2026-05-03T12:16:35.2Z</time></trkpt><trkpt lat="46.08867" lon="13.5643033"><ele>193.75</ele><time>2026-05-03T12:16:36.2Z</time></trkpt><trkpt lat="46.08866" lon="13.5641233"><ele>194.0</ele><time>2026-05-03T12:16:37.2Z</time></trkpt><trkpt lat="46.0886483" lon="13.5639483"><ele>194.0</ele><time>2026-05-03T12:16:38.2Z</time></trkpt><trkpt lat="46.0886183" lon="13.5637583"><ele>194.0</ele><time>2026-05-03T12:16:39.2Z</time></trkpt><trkpt lat="46.088575" lon="13.5635633"><ele>194.0</ele><time>2026-05-03T12:16:40.2Z</time></trkpt><trkpt lat="46.0885217" lon="13.5633667"><ele>194.0</ele><time>2026-05-03T12:16:41.2Z</time></trkpt><trkpt lat="46.0884617" lon="13.563155"><ele>195.33333333333334</ele><time>2026-05-03T12:16:42.2Z</time></trkpt><trkpt lat="46.0884083" lon="13.5629283"><ele>196.66666666666669</ele><time>2026-05-03T12:16:43.2Z</time></trkpt><trkpt lat="46.0883433" lon="13.5626983"><ele>198.0</ele><time>2026-05-03T12:16:44.2Z</time></trkpt><trkpt lat="46.0882833" lon="13.56247"><ele>195.33333333333334</ele><time>2026-05-03T12:16:45.2Z</time></trkpt><trkpt lat="46.088225" lon="13.5622583"><ele>192.66666666666669</ele><time>2026-05-03T12:16:46.2Z</time></trkpt><trkpt lat="46.0881667" lon="13.5620483"><ele>190.0</ele><time>2026-05-03T12:16:47.2Z</time></trkpt><trkpt lat="46.0880917" lon="13.5618667"><ele>190.0</ele><time>2026-05-03T12:16:48.2Z</time></trkpt><trkpt lat="46.088" lon="13.561685"><ele>190.0</ele><time>2026-05-03T12:16:49.2Z</time></trkpt><trkpt lat="46.0878733" lon="13.5615217"><ele>190.0</ele><time>2026-05-03T12:16:50.2Z</time></trkpt><trkpt lat="46.08773" lon="13.56135"><ele>188.0</ele><time>2026-05-03T12:16:51.2Z</time></trkpt><trkpt lat="46.0875967" lon="13.56117"><ele>186.0</ele><time>2026-05-03T12:16:52.2Z</time></trkpt><trkpt lat="46.0874767" lon="13.56099"><ele>184.0</ele><time>2026-05-03T12:16:53.2Z</time></trkpt><trkpt lat="46.08735" lon="13.560835"><ele>184.0</ele><time>2026-05-03T12:16:54.2Z</time></trkpt><trkpt lat="46.0872133" lon="13.5606983"><ele>184.0</ele><time>2026-05-03T12:16:55.2Z</time></trkpt><trkpt lat="46.0870867" lon="13.5605717"><ele>184.0</ele><time>2026-05-03T12:16:56.2Z</time></trkpt><trkpt lat="46.086975" lon="13.56043"><ele>187.66666666666669</ele><time>2026-05-03T12:16:57.2Z</time></trkpt><trkpt lat="46.0868633" lon="13.5602767"><ele>191.33333333333334</ele><time>2026-05-03T12:16:58.2Z</time></trkpt><trkpt lat="46.0867583" lon="13.5601033"><ele>195.0</ele><time>2026-05-03T12:16:59.2Z</time></trkpt><trkpt lat="46.0866567" lon="13.5599233"><ele>189.0</ele><time>2026-05-03T12:17:00.2Z</time></trkpt><trkpt lat="46.0865583" lon="13.559725"><ele>183.0</ele><time>2026-05-03T12:17:01.2Z</time></trkpt><trkpt lat="46.0864817" lon="13.55952"><ele>177.0</ele><time>2026-05-03T12:17:02.201Z</time></trkpt><trkpt lat="46.0864083" lon="13.5593067"><ele>177.0</ele><time>2026-05-03T12:17:03.2Z</time></trkpt><trkpt lat="46.0863383" lon="13.559065"><ele>177.0</ele><time>2026-05-03T12:17:04.2Z</time></trkpt><trkpt lat="46.0862667" lon="13.55879"><ele>177.0</ele><time>2026-05-03T12:17:05.2Z</time></trkpt><trkpt lat="46.08619" lon="13.558515"><ele>178.66666666666666</ele><time>2026-05-03T12:17:06.2Z</time></trkpt><trkpt lat="46.0860983" lon="13.55822"><ele>180.33333333333331</ele><time>2026-05-03T12:17:07.2Z</time></trkpt><trkpt lat="46.0860067" lon="13.5579317"><ele>182.0</ele><time>2026-05-03T12:17:08.2Z</time></trkpt><trkpt lat="46.0859083" lon="13.55767"><ele>184.66666666666666</ele><time>2026-05-03T12:17:09.201Z</time></trkpt><trkpt lat="46.0858033" lon="13.5574217"><ele>187.33333333333334</ele><time>2026-05-03T12:17:10.2Z</time></trkpt><trkpt lat="46.085705" lon="13.557185"><ele>190.0</ele><time>2026-05-03T12:17:11.2Z</time></trkpt><trkpt lat="46.0856233" lon="13.5569417"><ele>184.0</ele><time>2026-05-03T12:17:12.2Z</time></trkpt><trkpt lat="46.0855233" lon="13.55671"><ele>178.0</ele><time>2026-05-03T12:17:13.2Z</time></trkpt><trkpt lat="46.085425" lon="13.5564933"><ele>172.0</ele><time>2026-05-03T12:17:14.2Z</time></trkpt><trkpt lat="46.08532" lon="13.5563"><ele>173.0</ele><time>2026-05-03T12:17:15.2Z</time></trkpt><trkpt lat="46.0851983" lon="13.5561283"><ele>174.0</ele><time>2026-05-03T12:17:16.2Z</time></trkpt><trkpt lat="46.0850683" lon="13.5559683"><ele>175.0</ele><time>2026-05-03T12:17:17.2Z</time></trkpt><trkpt lat="46.0849217" lon="13.5558133"><ele>175.0</ele><time>2026-05-03T12:17:18.2Z</time></trkpt><trkpt lat="46.0847833" lon="13.555665"><ele>175.0</ele><time>2026-05-03T12:17:19.201Z</time></trkpt><trkpt lat="46.0846483" lon="13.5555233"><ele>175.0</ele><time>2026-05-03T12:17:20.2Z</time></trkpt><trkpt lat="46.0845183" lon="13.555385"><ele>174.66666666666669</ele><time>2026-05-03T12:17:21.2Z</time></trkpt><trkpt lat="46.0844083" lon="13.5552333"><ele>174.33333333333334</ele><time>2026-05-03T12:17:22.2Z</time></trkpt><trkpt lat="46.0843233" lon="13.5550683"><ele>174.0</ele><time>2026-05-03T12:17:23.2Z</time></trkpt><trkpt lat="46.0842533" lon="13.5548433"><ele>174.0</ele><time>2026-05-03T12:17:24.2Z</time></trkpt><trkpt lat="46.0842083" lon="13.5546233"><ele>174.0</ele><time>2026-05-03T12:17:25.2Z</time></trkpt><trkpt lat="46.08418" lon="13.554415"><ele>174.0</ele><time>2026-05-03T12:17:26.2Z</time></trkpt><trkpt lat="46.0841783" lon="13.5542167"><ele>174.0</ele><time>2026-05-03T12:17:27.2Z</time></trkpt><trkpt lat="46.0842083" lon="13.5540167"><ele>173.66666666666666</ele><time>2026-05-03T12:17:28.2Z</time></trkpt><trkpt lat="46.08426" lon="13.5538017"><ele>173.33333333333331</ele><time>2026-05-03T12:17:29.2Z</time></trkpt><trkpt lat="46.0843117" lon="13.5535933"><ele>173.0</ele><time>2026-05-03T12:17:30.2Z</time></trkpt><trkpt lat="46.08437" lon="13.5533817"><ele>172.0</ele><time>2026-05-03T12:17:31.2Z</time></trkpt><trkpt lat="46.0844267" lon="13.553155"><ele>171.0</ele><time>2026-05-03T12:17:32.2Z</time></trkpt><trkpt lat="46.084485" lon="13.55292"><ele>170.0</ele><time>2026-05-03T12:17:33.2Z</time></trkpt><trkpt lat="46.0845567" lon="13.552675"><ele>169.66666666666666</ele><time>2026-05-03T12:17:34.2Z</time></trkpt><trkpt lat="46.084625" lon="13.55244"><ele>169.33333333333334</ele><time>2026-05-03T12:17:35.2Z</time></trkpt><trkpt lat="46.0846867" lon="13.5522183"><ele>169.0</ele><time>2026-05-03T12:17:36.2Z</time></trkpt><trkpt lat="46.0847233" lon="13.5520117"><ele>170.0</ele><time>2026-05-03T12:17:37.2Z</time></trkpt><trkpt lat="46.0847333" lon="13.5517867"><ele>171.0</ele><time>2026-05-03T12:17:38.2Z</time></trkpt><trkpt lat="46.0847133" lon="13.55157"><ele>172.0</ele><time>2026-05-03T12:17:39.2Z</time></trkpt><trkpt lat="46.0846583" lon="13.5513633"><ele>175.75</ele><time>2026-05-03T12:17:40.2Z</time></trkpt><trkpt lat="46.084575" lon="13.55119"><ele>179.5</ele><time>2026-05-03T12:17:41.2Z</time></trkpt><trkpt lat="46.08449" lon="13.5510383"><ele>183.25</ele><time>2026-05-03T12:17:42.2Z</time></trkpt><trkpt lat="46.0844" lon="13.55091"><ele>187.0</ele><time>2026-05-03T12:17:43.2Z</time></trkpt><trkpt lat="46.0842733" lon="13.5508367"><ele>187.0</ele><time>2026-05-03T12:17:44.2Z</time></trkpt><trkpt lat="46.0841267" lon="13.5508017"><ele>187.0</ele><time>2026-05-03T12:17:45.2Z</time></trkpt><trkpt lat="46.083975" lon="13.5507617"><ele>187.0</ele><time>2026-05-03T12:17:46.2Z</time></trkpt><trkpt lat="46.08383" lon="13.55072"><ele>182.33333333333334</ele><time>2026-05-03T12:17:47.2Z</time></trkpt><trkpt lat="46.083655" lon="13.550705"><ele>177.66666666666666</ele><time>2026-05-03T12:17:48.2Z</time></trkpt><trkpt lat="46.083505" lon="13.55068"><ele>173.0</ele><time>2026-05-03T12:17:49.2Z</time></trkpt><trkpt lat="46.0833583" lon="13.5506617"><ele>171.0</ele><time>2026-05-03T12:17:50.2Z</time></trkpt><trkpt lat="46.0832233" lon="13.550625"><ele>169.0</ele><time>2026-05-03T12:17:51.2Z</time></trkpt><trkpt lat="46.0831117" lon="13.5505433"><ele>167.0</ele><time>2026-05-03T12:17:52.2Z</time></trkpt><trkpt lat="46.08303" lon="13.5504383"><ele>165.0</ele><time>2026-05-03T12:17:53.2Z</time></trkpt><trkpt lat="46.0829967" lon="13.5502867"><ele>164.25</ele><time>2026-05-03T12:17:54.2Z</time></trkpt><trkpt lat="46.0829917" lon="13.5501217"><ele>163.5</ele><time>2026-05-03T12:17:55.2Z</time></trkpt><trkpt lat="46.0830183" lon="13.5499383"><ele>162.75</ele><time>2026-05-03T12:17:56.2Z</time></trkpt><trkpt lat="46.08305" lon="13.5497283"><ele>162.0</ele><time>2026-05-03T12:17:57.2Z</time></trkpt><trkpt lat="46.0830717" lon="13.5495167"><ele>161.66666666666666</ele><time>2026-05-03T12:17:58.2Z</time></trkpt><trkpt lat="46.08311" lon="13.5492783"><ele>161.33333333333331</ele><time>2026-05-03T12:17:59.2Z</time></trkpt><trkpt lat="46.0831467" lon="13.5490233"><ele>161.0</ele><time>2026-05-03T12:18:00.2Z</time></trkpt><trkpt lat="46.0831983" lon="13.5487533"><ele>163.33333333333331</ele><time>2026-05-03T12:18:01.2Z</time></trkpt><trkpt lat="46.0832517" lon="13.5484783"><ele>165.66666666666666</ele><time>2026-05-03T12:18:02.201Z</time></trkpt><trkpt lat="46.08332" lon="13.5482017"><ele>168.0</ele><time>2026-05-03T12:18:03.2Z</time></trkpt><trkpt lat="46.083385" lon="13.5479233"><ele>168.0</ele><time>2026-05-03T12:18:04.2Z</time></trkpt><trkpt lat="46.0834417" lon="13.54765"><ele>168.0</ele><time>2026-05-03T12:18:05.2Z</time></trkpt><trkpt lat="46.0835067" lon="13.547385"><ele>168.0</ele><time>2026-05-03T12:18:06.2Z</time></trkpt><trkpt lat="46.0835617" lon="13.547135"><ele>166.66666666666666</ele><time>2026-05-03T12:18:07.2Z</time></trkpt><trkpt lat="46.083595" lon="13.5469017"><ele>165.33333333333331</ele><time>2026-05-03T12:18:08.2Z</time></trkpt><trkpt lat="46.083605" lon="13.546665"><ele>164.0</ele><time>2026-05-03T12:18:09.2Z</time></trkpt><trkpt lat="46.0835833" lon="13.546445"><ele>164.0</ele><time>2026-05-03T12:18:10.2Z</time></trkpt><trkpt lat="46.0835367" lon="13.5462117"><ele>164.0</ele><time>2026-05-03T12:18:11.2Z</time></trkpt><trkpt lat="46.083485" lon="13.5459683"><ele>164.0</ele><time>2026-05-03T12:18:12.2Z</time></trkpt><trkpt lat="46.0834433" lon="13.5456967"><ele>164.0</ele><time>2026-05-03T12:18:13.2Z</time></trkpt><trkpt lat="46.08341" lon="13.5454017"><ele>164.0</ele><time>2026-05-03T12:18:14.2Z</time></trkpt><trkpt lat="46.0833717" lon="13.5451217"><ele>164.0</ele><time>2026-05-03T12:18:15.2Z</time></trkpt><trkpt lat="46.0833167" lon="13.5448583"><ele>163.0</ele><time>2026-05-03T12:18:16.2Z</time></trkpt><trkpt lat="46.0832633" lon="13.5446133"><ele>162.0</ele><time>2026-05-03T12:18:17.2Z</time></trkpt><trkpt lat="46.0832017" lon="13.5443667"><ele>161.0</ele><time>2026-05-03T12:18:18.2Z</time></trkpt><trkpt lat="46.0831217" lon="13.5441133"><ele>160.66666666666666</ele><time>2026-05-03T12:18:19.2Z</time></trkpt><trkpt lat="46.083035" lon="13.5438733"><ele>160.33333333333334</ele><time>2026-05-03T12:18:20.2Z</time></trkpt><trkpt lat="46.0829483" lon="13.5436383"><ele>160.0</ele><time>2026-05-03T12:18:21.2Z</time></trkpt><trkpt lat="46.08287" lon="13.5434"><ele>160.5</ele><time>2026-05-03T12:18:22.2Z</time></trkpt><trkpt lat="46.0827967" lon="13.54319"><ele>161.0</ele><time>2026-05-03T12:18:23.2Z</time></trkpt><trkpt lat="46.0827233" lon="13.543015"><ele>161.5</ele><time>2026-05-03T12:18:24.2Z</time></trkpt><trkpt lat="46.082625" lon="13.5429067"><ele>162.0</ele><time>2026-05-03T12:18:25.2Z</time></trkpt><trkpt lat="46.0825233" lon="13.542855"><ele>164.33333333333334</ele><time>2026-05-03T12:18:26.2Z</time></trkpt><trkpt lat="46.0824283" lon="13.54282"><ele>166.66666666666666</ele><time>2026-05-03T12:18:27.2Z</time></trkpt><trkpt lat="46.082335" lon="13.54278"><ele>169.0</ele><time>2026-05-03T12:18:28.2Z</time></trkpt><trkpt lat="46.0822533" lon="13.542745"><ele>171.33333333333331</ele><time>2026-05-03T12:18:29.2Z</time></trkpt><trkpt lat="46.082185" lon="13.5427217"><ele>173.66666666666666</ele><time>2026-05-03T12:18:30.2Z</time></trkpt><trkpt lat="46.0821167" lon="13.5426983"><ele>176.0</ele><time>2026-05-03T12:18:31.2Z</time></trkpt><trkpt lat="46.0820533" lon="13.54269"><ele>176.0</ele><time>2026-05-03T12:18:32.2Z</time></trkpt><trkpt lat="46.0819733" lon="13.542685"><ele>176.0</ele><time>2026-05-03T12:18:34.2Z</time></trkpt><trkpt lat="46.081905" lon="13.5426817"><ele>176.0</ele><time>2026-05-03T12:18:37.2Z</time></trkpt><trkpt lat="46.08197" lon="13.5427167"><ele>176.0</ele><time>2026-05-03T12:18:42.2Z</time></trkpt><trkpt lat="46.082105" lon="13.5427167"><ele>176.0</ele><time>2026-05-03T12:18:44.2Z</time></trkpt><trkpt lat="46.0822033" lon="13.5427483"><ele>176.0</ele><time>2026-05-03T12:18:45.2Z</time></trkpt><trkpt lat="46.0822983" lon="13.5427933"><ele>176.0</ele><time>2026-05-03T12:18:46.2Z</time></trkpt><trkpt lat="46.0823883" lon="13.5428317"><ele>176.0</ele><time>2026-05-03T12:18:47.2Z</time></trkpt><trkpt lat="46.082465" lon="13.5428567"><ele>176.0</ele><time>2026-05-03T12:18:48.2Z</time></trkpt><trkpt lat="46.0825333" lon="13.5428883"><ele>176.0</ele><time>2026-05-03T12:18:49.2Z</time></trkpt><trkpt lat="46.0826383" lon="13.5429183"><ele>173.20000000000002</ele><time>2026-05-03T12:18:51.2Z</time></trkpt><trkpt lat="46.0827" lon="13.542765"><ele>170.4</ele><time>2026-05-03T12:18:53.2Z</time></trkpt><trkpt lat="46.0827283" lon="13.5426467"><ele>167.6</ele><time>2026-05-03T12:18:54.2Z</time></trkpt><trkpt lat="46.0827583" lon="13.5425017"><ele>164.8</ele><time>2026-05-03T12:18:55.2Z</time></trkpt><trkpt lat="46.08279" lon="13.5423467"><ele>162.0</ele><time>2026-05-03T12:18:56.2Z</time></trkpt><trkpt lat="46.0828283" lon="13.54218"><ele>165.8</ele><time>2026-05-03T12:18:57.201Z</time></trkpt><trkpt lat="46.08287" lon="13.542035"><ele>169.6</ele><time>2026-05-03T12:18:58.2Z</time></trkpt><trkpt lat="46.0829133" lon="13.5419"><ele>173.4</ele><time>2026-05-03T12:18:59.2Z</time></trkpt><trkpt lat="46.0829633" lon="13.5417567"><ele>177.20000000000002</ele><time>2026-05-03T12:19:00.2Z</time></trkpt><trkpt lat="46.0830067" lon="13.5416133"><ele>181.0</ele><time>2026-05-03T12:19:01.2Z</time></trkpt><trkpt lat="46.083045" lon="13.5414767"><ele>181.0</ele><time>2026-05-03T12:19:02.2Z</time></trkpt><trkpt lat="46.0830867" lon="13.541335"><ele>181.0</ele><time>2026-05-03T12:19:03.2Z</time></trkpt><trkpt lat="46.08314" lon="13.5411883"><ele>181.0</ele><time>2026-05-03T12:19:04.2Z</time></trkpt><trkpt lat="46.0831983" lon="13.5410617"><ele>181.0</ele><time>2026-05-03T12:19:05.2Z</time></trkpt><trkpt lat="46.08326" lon="13.5409183"><ele>181.0</ele><time>2026-05-03T12:19:06.2Z</time></trkpt><trkpt lat="46.08331" lon="13.5407767"><ele>180.4</ele><time>2026-05-03T12:19:07.2Z</time></trkpt><trkpt lat="46.0833533" lon="13.54063"><ele>179.8</ele><time>2026-05-03T12:19:08.201Z</time></trkpt><trkpt lat="46.0833933" lon="13.54049"><ele>179.20000000000002</ele><time>2026-05-03T12:19:09.2Z</time></trkpt><trkpt lat="46.083445" lon="13.5403883"><ele>178.60000000000002</ele><time>2026-05-03T12:19:10.2Z</time></trkpt><trkpt lat="46.0835033" lon="13.5403067"><ele>178.0</ele><time>2026-05-03T12:19:11.2Z</time></trkpt><trkpt lat="46.08357" lon="13.5402333"><ele>179.66666666666669</ele><time>2026-05-03T12:19:12.2Z</time></trkpt><trkpt lat="46.0836517" lon="13.5401633"><ele>181.33333333333334</ele><time>2026-05-03T12:19:13.2Z</time></trkpt><trkpt lat="46.0837283" lon="13.5401033"><ele>183.0</ele><time>2026-05-03T12:19:14.2Z</time></trkpt><trkpt lat="46.0837983" lon="13.540045"><ele>184.66666666666666</ele><time>2026-05-03T12:19:15.2Z</time></trkpt><trkpt lat="46.0838683" lon="13.539995"><ele>186.33333333333331</ele><time>2026-05-03T12:19:16.2Z</time></trkpt><trkpt lat="46.0839417" lon="13.5399483"><ele>188.0</ele><time>2026-05-03T12:19:17.2Z</time></trkpt><trkpt lat="46.0840117" lon="13.539925"><ele>188.0</ele><time>2026-05-03T12:19:18.2Z</time></trkpt><trkpt lat="46.0840883" lon="13.5398517"><ele>188.0</ele><time>2026-05-03T12:19:20.2Z</time></trkpt><trkpt lat="46.084135" lon="13.53979"><ele>188.0</ele><time>2026-05-03T12:19:21.2Z</time></trkpt><trkpt lat="46.0841767" lon="13.5397167"><ele>188.0</ele><time>2026-05-03T12:19:22.2Z</time></trkpt><trkpt lat="46.0842333" lon="13.5396317"><ele>188.0</ele><time>2026-05-03T12:19:23.2Z</time></trkpt><trkpt lat="46.0842767" lon="13.53955"><ele>188.0</ele><time>2026-05-03T12:19:24.2Z</time></trkpt><trkpt lat="46.084315" lon="13.539465"><ele>188.0</ele><time>2026-05-03T12:19:25.2Z</time></trkpt><trkpt lat="46.0843617" lon="13.5393917"><ele>187.16666666666666</ele><time>2026-05-03T12:19:26.2Z</time></trkpt><trkpt lat="46.0844117" lon="13.5393183"><ele>186.33333333333331</ele><time>2026-05-03T12:19:27.2Z</time></trkpt><trkpt lat="46.0844683" lon="13.5392483"><ele>185.5</ele><time>2026-05-03T12:19:28.2Z</time></trkpt><trkpt lat="46.08453" lon="13.5391883"><ele>184.66666666666666</ele><time>2026-05-03T12:19:29.2Z</time></trkpt><trkpt lat="46.0845933" lon="13.5391383"><ele>183.83333333333334</ele><time>2026-05-03T12:19:30.2Z</time></trkpt><trkpt lat="46.0846667" lon="13.539105"><ele>183.0</ele><time>2026-05-03T12:19:31.2Z</time></trkpt><trkpt lat="46.0847517" lon="13.5391033"><ele>183.0</ele><time>2026-05-03T12:19:32.2Z</time></trkpt><trkpt lat="46.0848517" lon="13.539115"><ele>183.0</ele><time>2026-05-03T12:19:33.2Z</time></trkpt><trkpt lat="46.084955" lon="13.5391183"><ele>183.0</ele><time>2026-05-03T12:19:34.2Z</time></trkpt><trkpt lat="46.0850617" lon="13.5391167"><ele>183.0</ele><time>2026-05-03T12:19:35.2Z</time></trkpt><trkpt lat="46.0851567" lon="13.539105"><ele>183.0</ele><time>2026-05-03T12:19:36.2Z</time></trkpt><trkpt lat="46.085245" lon="13.5390733"><ele>184.0</ele><time>2026-05-03T12:19:37.2Z</time></trkpt><trkpt lat="46.0853283" lon="13.5390367"><ele>185.0</ele><time>2026-05-03T12:19:38.2Z</time></trkpt><trkpt lat="46.0854033" lon="13.5389967"><ele>186.0</ele><time>2026-05-03T12:19:39.2Z</time></trkpt><trkpt lat="46.0854783" lon="13.5389717"><ele>187.0</ele><time>2026-05-03T12:19:40.2Z</time></trkpt><trkpt lat="46.085565" lon="13.5389483"><ele>188.0</ele><time>2026-05-03T12:19:41.2Z</time></trkpt><trkpt lat="46.085655" lon="13.538925"><ele>189.0</ele><time>2026-05-03T12:19:42.2Z</time></trkpt><trkpt lat="46.0857767" lon="13.5388833"><ele>189.2</ele><time>2026-05-03T12:19:43.2Z</time></trkpt><trkpt lat="46.0859" lon="13.5388383"><ele>189.39999999999998</ele><time>2026-05-03T12:19:44.2Z</time></trkpt><trkpt lat="46.08601" lon="13.53881"><ele>189.6</ele><time>2026-05-03T12:19:45.2Z</time></trkpt><trkpt lat="46.0861117" lon="13.53877"><ele>189.8</ele><time>2026-05-03T12:19:46.2Z</time></trkpt><trkpt lat="46.0861917" lon="13.5387283"><ele>190.0</ele><time>2026-05-03T12:19:47.2Z</time></trkpt><trkpt lat="46.08626" lon="13.538695"><ele>190.0</ele><time>2026-05-03T12:19:48.2Z</time></trkpt><trkpt lat="46.0863683" lon="13.5386933"><ele>190.0</ele><time>2026-05-03T12:19:50.2Z</time></trkpt><trkpt lat="46.0864317" lon="13.5387533"><ele>190.0</ele><time>2026-05-03T12:19:52.2Z</time></trkpt><trkpt lat="46.0864767" lon="13.538865"><ele>190.0</ele><time>2026-05-03T12:19:54.2Z</time></trkpt><trkpt lat="46.086555" lon="13.538965"><ele>190.0</ele><time>2026-05-03T12:19:56.2Z</time></trkpt><trkpt lat="46.086645" lon="13.5390617"><ele>192.5</ele><time>2026-05-03T12:19:58.2Z</time></trkpt><trkpt lat="46.0867433" lon="13.539145"><ele>195.0</ele><time>2026-05-03T12:20:00.2Z</time></trkpt><trkpt lat="46.086815" lon="13.5391717"><ele>197.5</ele><time>2026-05-03T12:20:01.2Z</time></trkpt><trkpt lat="46.0868917" lon="13.5391983"><ele>200.0</ele><time>2026-05-03T12:20:02.2Z</time></trkpt><trkpt lat="46.08697" lon="13.539205"><ele>202.49999999999997</ele><time>2026-05-03T12:20:03.2Z</time></trkpt><trkpt lat="46.08705" lon="13.5392033"><ele>205.0</ele><time>2026-05-03T12:20:04.201Z</time></trkpt><trkpt lat="46.0871283" lon="13.539205"><ele>204.99999999999997</ele><time>2026-05-03T12:20:05.2Z</time></trkpt><trkpt lat="46.0871933" lon="13.5392"><ele>205.0</ele><time>2026-05-03T12:20:06.2Z</time></trkpt><trkpt lat="46.0873167" lon="13.5391567"><ele>205.0</ele><time>2026-05-03T12:20:08.2Z</time></trkpt><trkpt lat="46.0873767" lon="13.5391217"><ele>205.0</ele><time>2026-05-03T12:20:09.2Z</time></trkpt><trkpt lat="46.0874367" lon="13.5390767"><ele>204.99999999999997</ele><time>2026-05-03T12:20:10.2Z</time></trkpt><trkpt lat="46.0874883" lon="13.539015"><ele>205.0</ele><time>2026-05-03T12:20:11.2Z</time></trkpt><trkpt lat="46.0875267" lon="13.5389233"><ele>205.49999999999997</ele><time>2026-05-03T12:20:12.2Z</time></trkpt><trkpt lat="46.087575" lon="13.5388233"><ele>206.0</ele><time>2026-05-03T12:20:13.2Z</time></trkpt><trkpt lat="46.0876317" lon="13.538725"><ele>206.5</ele><time>2026-05-03T12:20:14.2Z</time></trkpt><trkpt lat="46.0876967" lon="13.5386467"><ele>207.0</ele><time>2026-05-03T12:20:15.2Z</time></trkpt><trkpt lat="46.0877733" lon="13.538585"><ele>207.49999999999997</ele><time>2026-05-03T12:20:16.2Z</time></trkpt><trkpt lat="46.0878467" lon="13.5385433"><ele>208.0</ele><time>2026-05-03T12:20:17.2Z</time></trkpt><trkpt lat="46.087925" lon="13.5385483"><ele>208.49999999999997</ele><time>2026-05-03T12:20:18.2Z</time></trkpt><trkpt lat="46.08801" lon="13.5385633"><ele>209.0</ele><time>2026-05-03T12:20:19.2Z</time></trkpt><trkpt lat="46.0880883" lon="13.5386017"><ele>209.5</ele><time>2026-05-03T12:20:20.2Z</time></trkpt><trkpt lat="46.0881733" lon="13.5386283"><ele>210.0</ele><time>2026-05-03T12:20:21.2Z</time></trkpt><trkpt lat="46.0882517" lon="13.5386733"><ele>210.49999999999997</ele><time>2026-05-03T12:20:22.2Z</time></trkpt><trkpt lat="46.0883183" lon="13.538695"><ele>211.0</ele><time>2026-05-03T12:20:23.199Z</time></trkpt><trkpt lat="46.08839" lon="13.53872"><ele>211.99999999999997</ele><time>2026-05-03T12:20:24.2Z</time></trkpt><trkpt lat="46.0884567" lon="13.5387183"><ele>213.0</ele><time>2026-05-03T12:20:25.2Z</time></trkpt><trkpt lat="46.08852" lon="13.5386883"><ele>214.0</ele><time>2026-05-03T12:20:26.2Z</time></trkpt><trkpt lat="46.0886267" lon="13.5385783"><ele>215.0</ele><time>2026-05-03T12:20:28.2Z</time></trkpt><trkpt lat="46.088685" lon="13.5384933"><ele>215.99999999999997</ele><time>2026-05-03T12:20:29.2Z</time></trkpt><trkpt lat="46.0887467" lon="13.5384083"><ele>217.0</ele><time>2026-05-03T12:20:30.2Z</time></trkpt><trkpt lat="46.0888267" lon="13.53831"><ele>217.0</ele><time>2026-05-03T12:20:31.2Z</time></trkpt><trkpt lat="46.0889167" lon="13.53821"><ele>217.0</ele><time>2026-05-03T12:20:32.2Z</time></trkpt><trkpt lat="46.0890067" lon="13.5381167"><ele>217.0</ele><time>2026-05-03T12:20:33.199Z</time></trkpt><trkpt lat="46.0890933" lon="13.5380267"><ele>217.0</ele><time>2026-05-03T12:20:34.199Z</time></trkpt><trkpt lat="46.089177" lon="13.5379394"><ele>217.0</ele><time>2026-05-03T12:20:35.199Z</time></trkpt><trkpt lat="46.0892476" lon="13.5378621"><ele>219.49999999999997</ele><time>2026-05-03T12:20:36.199Z</time></trkpt><trkpt lat="46.0893013" lon="13.5377977"><ele>222.0</ele><time>2026-05-03T12:20:37.199Z</time></trkpt><trkpt lat="46.0893795" lon="13.5377046"><ele>224.5</ele><time>2026-05-03T12:20:39.199Z</time></trkpt><trkpt lat="46.0893208" lon="13.5378419"><ele>227.0</ele><time>2026-05-03T12:20:44.199Z</time></trkpt><trkpt lat="46.0892657" lon="13.5379284"><ele>229.49999999999997</ele><time>2026-05-03T12:20:45.199Z</time></trkpt><trkpt lat="46.0892169" lon="13.538028"><ele>232.0</ele><time>2026-05-03T12:20:46.2Z</time></trkpt><trkpt lat="46.0891757" lon="13.5381385"><ele>233.16666666666666</ele><time>2026-05-03T12:20:47.199Z</time></trkpt><trkpt lat="46.0891416" lon="13.53825"><ele>234.33333333333331</ele><time>2026-05-03T12:20:48.199Z</time></trkpt><trkpt lat="46.0891124" lon="13.5383539"><ele>235.5</ele><time>2026-05-03T12:20:49.199Z</time></trkpt><trkpt lat="46.0890836" lon="13.5384613"><ele>236.66666666666669</ele><time>2026-05-03T12:20:50.199Z</time></trkpt><trkpt lat="46.0890633" lon="13.5385734"><ele>237.83333333333334</ele><time>2026-05-03T12:20:51.199Z</time></trkpt><trkpt lat="46.0890549" lon="13.5386735"><ele>239.0</ele><time>2026-05-03T12:20:52.199Z</time></trkpt><trkpt lat="46.0890667" lon="13.538771"><ele>238.6</ele><time>2026-05-03T12:20:53.199Z</time></trkpt><trkpt lat="46.0890975" lon="13.5388523"><ele>238.2</ele><time>2026-05-03T12:20:54.199Z</time></trkpt><trkpt lat="46.0891857" lon="13.5389517"><ele>237.79999999999998</ele><time>2026-05-03T12:20:56.199Z</time></trkpt><trkpt lat="46.0892882" lon="13.5389866"><ele>237.39999999999998</ele><time>2026-05-03T12:20:58.199Z</time></trkpt><trkpt lat="46.0894104" lon="13.5389996"><ele>237.0</ele><time>2026-05-03T12:21:00.199Z</time></trkpt><trkpt lat="46.0894817" lon="13.5389875"><ele>237.0</ele><time>2026-05-03T12:21:01.2Z</time></trkpt><trkpt lat="46.0895534" lon="13.5389534"><ele>237.0</ele><time>2026-05-03T12:21:02.199Z</time></trkpt><trkpt lat="46.0896224" lon="13.5389007"><ele>237.0</ele><time>2026-05-03T12:21:03.199Z</time></trkpt><trkpt lat="46.0896916" lon="13.5388302"><ele>237.0</ele><time>2026-05-03T12:21:04.199Z</time></trkpt><trkpt lat="46.0897589" lon="13.5387487"><ele>237.0</ele><time>2026-05-03T12:21:05.199Z</time></trkpt><trkpt lat="46.0898248" lon="13.5386503"><ele>237.0</ele><time>2026-05-03T12:21:06.199Z</time></trkpt><trkpt lat="46.0898906" lon="13.5385383"><ele>240.8</ele><time>2026-05-03T12:21:07.199Z</time></trkpt><trkpt lat="46.0899474" lon="13.5384255"><ele>244.6</ele><time>2026-05-03T12:21:08.2Z</time></trkpt><trkpt lat="46.0900005" lon="13.5383174"><ele>248.40000000000003</ele><time>2026-05-03T12:21:09.199Z</time></trkpt><trkpt lat="46.0900577" lon="13.5382056"><ele>252.20000000000002</ele><time>2026-05-03T12:21:10.199Z</time></trkpt><trkpt lat="46.0901212" lon="13.5381014"><ele>256.0</ele><time>2026-05-03T12:21:11.199Z</time></trkpt><trkpt lat="46.090184" lon="13.5380069"><ele>255.99999999999997</ele><time>2026-05-03T12:21:12.199Z</time></trkpt><trkpt lat="46.0902476" lon="13.537935"><ele>256.0</ele><time>2026-05-03T12:21:13.199Z</time></trkpt><trkpt lat="46.0903191" lon="13.5378861"><ele>256.0</ele><time>2026-05-03T12:21:14.199Z</time></trkpt><trkpt lat="46.0904018" lon="13.5378525"><ele>256.0</ele><time>2026-05-03T12:21:15.199Z</time></trkpt><trkpt lat="46.0904983" lon="13.5378298"><ele>255.99999999999997</ele><time>2026-05-03T12:21:16.199Z</time></trkpt><trkpt lat="46.0906029" lon="13.5378241"><ele>256.0</ele><time>2026-05-03T12:21:17.2Z</time></trkpt><trkpt lat="46.0906966" lon="13.5378279"><ele>255.99999999999997</ele><time>2026-05-03T12:21:18.199Z</time></trkpt><trkpt lat="46.090768" lon="13.5378349"><ele>256.0</ele><time>2026-05-03T12:21:19.199Z</time></trkpt><trkpt lat="46.0908333" lon="13.5378943"><ele>256.0</ele><time>2026-05-03T12:21:21.199Z</time></trkpt><trkpt lat="46.090801" lon="13.5380234"><ele>256.0</ele><time>2026-05-03T12:21:23.199Z</time></trkpt><trkpt lat="46.0907644" lon="13.5381178"><ele>255.99999999999997</ele><time>2026-05-03T12:21:24.199Z</time></trkpt><trkpt lat="46.0907175" lon="13.538236"><ele>256.0</ele><time>2026-05-03T12:21:25.2Z</time></trkpt><trkpt lat="46.0906729" lon="13.538373"><ele>256.0</ele><time>2026-05-03T12:21:26.199Z</time></trkpt><trkpt lat="46.0906358" lon="13.5385336"><ele>256.0</ele><time>2026-05-03T12:21:27.199Z</time></trkpt><trkpt lat="46.0905894" lon="13.5386967"><ele>256.0</ele><time>2026-05-03T12:21:28.199Z</time></trkpt><trkpt lat="46.0905444" lon="13.5388494"><ele>256.0</ele><time>2026-05-03T12:21:29.199Z</time></trkpt><trkpt lat="46.0904978" lon="13.5389786"><ele>256.16666666666663</ele><time>2026-05-03T12:21:30.199Z</time></trkpt><trkpt lat="46.0904598" lon="13.5390885"><ele>256.3333333333333</ele><time>2026-05-03T12:21:31.199Z</time></trkpt><trkpt lat="46.0904273" lon="13.5391721"><ele>256.5</ele><time>2026-05-03T12:21:32.199Z</time></trkpt><trkpt lat="46.0904052" lon="13.5393125"><ele>256.6666666666667</ele><time>2026-05-03T12:21:34.199Z</time></trkpt><trkpt lat="46.090453" lon="13.5393807"><ele>256.83333333333337</ele><time>2026-05-03T12:21:36.199Z</time></trkpt><trkpt lat="46.0905483" lon="13.5392964"><ele>257.0</ele><time>2026-05-03T12:21:38.199Z</time></trkpt><trkpt lat="46.0905906" lon="13.539209"><ele>257.0</ele><time>2026-05-03T12:21:39.199Z</time></trkpt><trkpt lat="46.0906343" lon="13.5390904"><ele>257.0</ele><time>2026-05-03T12:21:40.2Z</time></trkpt><trkpt lat="46.090685" lon="13.5389576"><ele>257.0</ele><time>2026-05-03T12:21:41.199Z</time></trkpt><trkpt lat="46.0907417" lon="13.538785"><ele>257.0</ele><time>2026-05-03T12:21:42.199Z</time></trkpt><trkpt lat="46.0908017" lon="13.5386417"><ele>257.0</ele><time>2026-05-03T12:21:43.199Z</time></trkpt><trkpt lat="46.0908533" lon="13.5385133"><ele>262.0</ele><time>2026-05-03T12:21:44.199Z</time></trkpt><trkpt lat="46.090895" lon="13.53839"><ele>267.0</ele><time>2026-05-03T12:21:45.199Z</time></trkpt><trkpt lat="46.0909367" lon="13.5382733"><ele>272.0</ele><time>2026-05-03T12:21:46.199Z</time></trkpt><trkpt lat="46.0909967" lon="13.5381667"><ele>277.0</ele><time>2026-05-03T12:21:47.2Z</time></trkpt><trkpt lat="46.0910567" lon="13.5380583"><ele>282.0</ele><time>2026-05-03T12:21:48.199Z</time></trkpt><trkpt lat="46.0911217" lon="13.5379583"><ele>280.6</ele><time>2026-05-03T12:21:49.199Z</time></trkpt><trkpt lat="46.091175" lon="13.53784"><ele>279.2</ele><time>2026-05-03T12:21:50.199Z</time></trkpt><trkpt lat="46.0912467" lon="13.53772"><ele>277.8</ele><time>2026-05-03T12:21:51.199Z</time></trkpt><trkpt lat="46.09131" lon="13.5375933"><ele>276.4</ele><time>2026-05-03T12:21:52.199Z</time></trkpt><trkpt lat="46.0913767" lon="13.5374567"><ele>275.0</ele><time>2026-05-03T12:21:53.199Z</time></trkpt><trkpt lat="46.0914333" lon="13.5373167"><ele>275.0</ele><time>2026-05-03T12:21:54.199Z</time></trkpt><trkpt lat="46.0914867" lon="13.5371817"><ele>275.0</ele><time>2026-05-03T12:21:55.199Z</time></trkpt><trkpt lat="46.09154" lon="13.537065"><ele>275.0</ele><time>2026-05-03T12:21:56.199Z</time></trkpt><trkpt lat="46.0915883" lon="13.5369583"><ele>275.0</ele><time>2026-05-03T12:21:57.199Z</time></trkpt><trkpt lat="46.091635" lon="13.5368667"><ele>275.0</ele><time>2026-05-03T12:21:58.199Z</time></trkpt><trkpt lat="46.0916867" lon="13.536795"><ele>275.0</ele><time>2026-05-03T12:21:59.199Z</time></trkpt><trkpt lat="46.0917467" lon="13.5367583"><ele>280.0</ele><time>2026-05-03T12:22:00.199Z</time></trkpt><trkpt lat="46.091855" lon="13.5367683"><ele>285.0</ele><time>2026-05-03T12:22:02.199Z</time></trkpt><trkpt lat="46.0919533" lon="13.5367417"><ele>290.0</ele><time>2026-05-03T12:22:04.199Z</time></trkpt><trkpt lat="46.0920483" lon="13.53663"><ele>295.0</ele><time>2026-05-03T12:22:06.199Z</time></trkpt><trkpt lat="46.0921083" lon="13.536545"><ele>300.0</ele><time>2026-05-03T12:22:07.199Z</time></trkpt><trkpt lat="46.0921617" lon="13.53645"><ele>300.0</ele><time>2026-05-03T12:22:08.199Z</time></trkpt><trkpt lat="46.0922083" lon="13.536365"><ele>300.0</ele><time>2026-05-03T12:22:09.199Z</time></trkpt><trkpt lat="46.0922417" lon="13.5362667"><ele>300.0</ele><time>2026-05-03T12:22:10.199Z</time></trkpt><trkpt lat="46.0922567" lon="13.536155"><ele>300.0</ele><time>2026-05-03T12:22:11.2Z</time></trkpt><trkpt lat="46.0922783" lon="13.5360233"><ele>300.0</ele><time>2026-05-03T12:22:12.199Z</time></trkpt><trkpt lat="46.09229" lon="13.535895"><ele>300.0</ele><time>2026-05-03T12:22:13.199Z</time></trkpt><trkpt lat="46.092285" lon="13.5357583"><ele>299.5</ele><time>2026-05-03T12:22:14.199Z</time></trkpt><trkpt lat="46.092255" lon="13.5355983"><ele>299.0</ele><time>2026-05-03T12:22:15.199Z</time></trkpt><trkpt lat="46.09223" lon="13.535465"><ele>298.5</ele><time>2026-05-03T12:22:16.199Z</time></trkpt><trkpt lat="46.0922161" lon="13.5353626"><ele>298.0</ele><time>2026-05-03T12:22:17.199Z</time></trkpt><trkpt lat="46.0921996" lon="13.5352467"><ele>297.5</ele><time>2026-05-03T12:22:19.199Z</time></trkpt><trkpt lat="46.092253" lon="13.5351649"><ele>297.0</ele><time>2026-05-03T12:22:21.199Z</time></trkpt><trkpt lat="46.0923081" lon="13.5351194"><ele>296.0</ele><time>2026-05-03T12:22:22.199Z</time></trkpt><trkpt lat="46.0923819" lon="13.5350686"><ele>295.0</ele><time>2026-05-03T12:22:23.199Z</time></trkpt><trkpt lat="46.0924726" lon="13.5350147"><ele>294.0</ele><time>2026-05-03T12:22:24.199Z</time></trkpt><trkpt lat="46.0925616" lon="13.534963"><ele>293.0</ele><time>2026-05-03T12:22:25.199Z</time></trkpt><trkpt lat="46.0926436" lon="13.5349084"><ele>292.0</ele><time>2026-05-03T12:22:26.199Z</time></trkpt><trkpt lat="46.0927159" lon="13.5348523"><ele>291.0</ele><time>2026-05-03T12:22:27.199Z</time></trkpt><trkpt lat="46.0927767" lon="13.5347881"><ele>293.2857142857143</ele><time>2026-05-03T12:22:28.199Z</time></trkpt><trkpt lat="46.0928261" lon="13.5347298"><ele>295.57142857142856</ele><time>2026-05-03T12:22:29.199Z</time></trkpt><trkpt lat="46.0928766" lon="13.534675"><ele>297.85714285714283</ele><time>2026-05-03T12:22:30.199Z</time></trkpt><trkpt lat="46.0929322" lon="13.5346244"><ele>300.1428571428571</ele><time>2026-05-03T12:22:31.199Z</time></trkpt><trkpt lat="46.0929957" lon="13.5345762"><ele>302.42857142857144</ele><time>2026-05-03T12:22:32.199Z</time></trkpt><trkpt lat="46.093069" lon="13.5345375"><ele>304.71428571428567</ele><time>2026-05-03T12:22:33.199Z</time></trkpt><trkpt lat="46.0931459" lon="13.534502"><ele>307.0</ele><time>2026-05-03T12:22:34.2Z</time></trkpt><trkpt lat="46.0932282" lon="13.534469"><ele>308.8333333333333</ele><time>2026-05-03T12:22:35.199Z</time></trkpt><trkpt lat="46.0933125" lon="13.5344379"><ele>310.66666666666663</ele><time>2026-05-03T12:22:36.199Z</time></trkpt><trkpt lat="46.0933938" lon="13.5344093"><ele>312.5</ele><time>2026-05-03T12:22:37.199Z</time></trkpt><trkpt lat="46.0934766" lon="13.5343914"><ele>314.3333333333333</ele><time>2026-05-03T12:22:38.2Z</time></trkpt><trkpt lat="46.0935592" lon="13.5343675"><ele>316.1666666666667</ele><time>2026-05-03T12:22:39.199Z</time></trkpt><trkpt lat="46.0936386" lon="13.5343272"><ele>318.0</ele><time>2026-05-03T12:22:40.199Z</time></trkpt><trkpt lat="46.0937071" lon="13.5342825"><ele>318.0</ele><time>2026-05-03T12:22:41.199Z</time></trkpt><trkpt lat="46.0937762" lon="13.5342488"><ele>318.0</ele><time>2026-05-03T12:22:42.199Z</time></trkpt><trkpt lat="46.0938433" lon="13.5342139"><ele>318.0</ele><time>2026-05-03T12:22:43.2Z</time></trkpt><trkpt lat="46.0939114" lon="13.534182"><ele>318.0</ele><time>2026-05-03T12:22:44.199Z</time></trkpt><trkpt lat="46.0940247" lon="13.5341418"><ele>318.0</ele><time>2026-05-03T12:22:46.199Z</time></trkpt><trkpt lat="46.0941125" lon="13.5340751"><ele>318.0</ele><time>2026-05-03T12:22:48.199Z</time></trkpt><trkpt lat="46.0941767" lon="13.5339633"><ele>318.0</ele><time>2026-05-03T12:22:50.199Z</time></trkpt><trkpt lat="46.0942317" lon="13.533875"><ele>318.0</ele><time>2026-05-03T12:22:52.199Z</time></trkpt><trkpt lat="46.09415" lon="13.533845"><ele>318.0</ele><time>2026-05-03T12:23:41.2Z</time></trkpt><trkpt lat="46.09406" lon="13.5338367"><ele>318.0</ele><time>2026-05-03T12:23:43.199Z</time></trkpt><trkpt lat="46.09397" lon="13.5337983"><ele>318.0</ele><time>2026-05-03T12:23:45.199Z</time></trkpt><trkpt lat="46.0938817" lon="13.5337367"><ele>318.0</ele><time>2026-05-03T12:23:47.199Z</time></trkpt><trkpt lat="46.093805" lon="13.5336783"><ele>319.6</ele><time>2026-05-03T12:23:49.199Z</time></trkpt><trkpt lat="46.0937" lon="13.5336417"><ele>321.20000000000005</ele><time>2026-05-03T12:23:51.199Z</time></trkpt><trkpt lat="46.0936333" lon="13.5336217"><ele>322.8</ele><time>2026-05-03T12:23:52.199Z</time></trkpt><trkpt lat="46.09357" lon="13.533595"><ele>324.40000000000003</ele><time>2026-05-03T12:23:53.199Z</time></trkpt><trkpt lat="46.0934583" lon="13.5335317"><ele>326.0</ele><time>2026-05-03T12:23:55.199Z</time></trkpt><trkpt lat="46.093375" lon="13.5334817"><ele>326.0</ele><time>2026-05-03T12:23:57.199Z</time></trkpt><trkpt lat="46.093295" lon="13.53344"><ele>326.0</ele><time>2026-05-03T12:23:59.199Z</time></trkpt><trkpt lat="46.09322" lon="13.533415"><ele>326.0</ele><time>2026-05-03T12:24:01.199Z</time></trkpt><trkpt lat="46.0931517" lon="13.5333783"><ele>326.0</ele><time>2026-05-03T12:24:03.199Z</time></trkpt><trkpt lat="46.0930917" lon="13.5333383"><ele>326.0</ele><time>2026-05-03T12:24:05.199Z</time></trkpt><trkpt lat="46.0929983" lon="13.5332667"><ele>326.0</ele><time>2026-05-03T12:24:08.199Z</time></trkpt><trkpt lat="46.0929217" lon="13.53319"><ele>322.2</ele><time>2026-05-03T12:24:10.199Z</time></trkpt><trkpt lat="46.0928383" lon="13.5330383"><ele>318.40000000000003</ele><time>2026-05-03T12:24:12.199Z</time></trkpt><trkpt lat="46.0928167" lon="13.5329317"><ele>314.6</ele><time>2026-05-03T12:24:13.199Z</time></trkpt><trkpt lat="46.092805" lon="13.532815"><ele>310.8</ele><time>2026-05-03T12:24:14.199Z</time></trkpt><trkpt lat="46.0928" lon="13.5327033"><ele>307.0</ele><time>2026-05-03T12:24:15.199Z</time></trkpt><trkpt lat="46.0927917" lon="13.532585"><ele>307.0</ele><time>2026-05-03T12:24:16.199Z</time></trkpt><trkpt lat="46.0928017" lon="13.532445"><ele>307.0</ele><time>2026-05-03T12:24:17.199Z</time></trkpt><trkpt lat="46.0928117" lon="13.5323167"><ele>307.0</ele><time>2026-05-03T12:24:18.199Z</time></trkpt><trkpt lat="46.0928267" lon="13.532205"><ele>307.0</ele><time>2026-05-03T12:24:19.199Z</time></trkpt><trkpt lat="46.092845" lon="13.5320983"><ele>307.0</ele><time>2026-05-03T12:24:20.199Z</time></trkpt><trkpt lat="46.0928667" lon="13.531995"><ele>307.0</ele><time>2026-05-03T12:24:21.199Z</time></trkpt><trkpt lat="46.0928833" lon="13.5318967"><ele>307.8333333333333</ele><time>2026-05-03T12:24:22.199Z</time></trkpt><trkpt lat="46.0928833" lon="13.5318"><ele>308.66666666666663</ele><time>2026-05-03T12:24:23.199Z</time></trkpt><trkpt lat="46.0928767" lon="13.5317"><ele>309.5</ele><time>2026-05-03T12:24:24.199Z</time></trkpt><trkpt lat="46.092865" lon="13.5315933"><ele>310.3333333333333</ele><time>2026-05-03T12:24:25.199Z</time></trkpt><trkpt lat="46.0928483" lon="13.5314867"><ele>311.1666666666667</ele><time>2026-05-03T12:24:26.2Z</time></trkpt><trkpt lat="46.0928367" lon="13.5313683"><ele>312.0</ele><time>2026-05-03T12:24:27.199Z</time></trkpt><trkpt lat="46.0928283" lon="13.5312483"><ele>313.2857142857143</ele><time>2026-05-03T12:24:28.199Z</time></trkpt><trkpt lat="46.0928167" lon="13.531145"><ele>314.57142857142856</ele><time>2026-05-03T12:24:29.199Z</time></trkpt><trkpt lat="46.0928033" lon="13.5310383"><ele>315.85714285714283</ele><time>2026-05-03T12:24:30.199Z</time></trkpt><trkpt lat="46.0927917" lon="13.5309267"><ele>317.1428571428571</ele><time>2026-05-03T12:24:31.199Z</time></trkpt><trkpt lat="46.0927833" lon="13.5308183"><ele>318.42857142857144</ele><time>2026-05-03T12:24:32.199Z</time></trkpt><trkpt lat="46.0927633" lon="13.53072"><ele>319.71428571428567</ele><time>2026-05-03T12:24:33.199Z</time></trkpt><trkpt lat="46.092755" lon="13.5306183"><ele>321.0</ele><time>2026-05-03T12:24:34.199Z</time></trkpt><trkpt lat="46.09276" lon="13.5305"><ele>322.1666666666667</ele><time>2026-05-03T12:24:35.199Z</time></trkpt><trkpt lat="46.092765" lon="13.5303817"><ele>323.3333333333333</ele><time>2026-05-03T12:24:36.199Z</time></trkpt><trkpt lat="46.0927683" lon="13.530275"><ele>324.5</ele><time>2026-05-03T12:24:37.199Z</time></trkpt><trkpt lat="46.092775" lon="13.5301533"><ele>325.66666666666663</ele><time>2026-05-03T12:24:38.199Z</time></trkpt><trkpt lat="46.092795" lon="13.5300467"><ele>326.8333333333333</ele><time>2026-05-03T12:24:39.199Z</time></trkpt><trkpt lat="46.0928083" lon="13.5299467"><ele>328.0</ele><time>2026-05-03T12:24:40.199Z</time></trkpt><trkpt lat="46.09282" lon="13.529845"><ele>328.0</ele><time>2026-05-03T12:24:41.199Z</time></trkpt><trkpt lat="46.0928367" lon="13.529745"><ele>328.0</ele><time>2026-05-03T12:24:42.199Z</time></trkpt><trkpt lat="46.092865" lon="13.5296517"><ele>328.0</ele><time>2026-05-03T12:24:43.199Z</time></trkpt><trkpt lat="46.0929017" lon="13.5295517"><ele>328.0</ele><time>2026-05-03T12:24:44.199Z</time></trkpt><trkpt lat="46.0929383" lon="13.5294633"><ele>328.0</ele><time>2026-05-03T12:24:45.199Z</time></trkpt><trkpt lat="46.0929783" lon="13.5293833"><ele>328.0</ele><time>2026-05-03T12:24:46.199Z</time></trkpt><trkpt lat="46.0930083" lon="13.5292367"><ele>329.79999999999995</ele><time>2026-05-03T12:24:48.199Z</time></trkpt><trkpt lat="46.092955" lon="13.5291567"><ele>331.6</ele><time>2026-05-03T12:24:50.199Z</time></trkpt><trkpt lat="46.0928617" lon="13.5291067"><ele>333.4</ele><time>2026-05-03T12:24:52.2Z</time></trkpt><trkpt lat="46.0927883" lon="13.5290317"><ele>335.20000000000005</ele><time>2026-05-03T12:24:54.199Z</time></trkpt><trkpt lat="46.092755" lon="13.5288783"><ele>337.0</ele><time>2026-05-03T12:24:56.199Z</time></trkpt><trkpt lat="46.0927133" lon="13.5287417"><ele>337.0</ele><time>2026-05-03T12:24:58.199Z</time></trkpt><trkpt lat="46.0926617" lon="13.5286133"><ele>337.0</ele><time>2026-05-03T12:25:00.199Z</time></trkpt><trkpt lat="46.0925767" lon="13.5285267"><ele>337.0</ele><time>2026-05-03T12:25:02.199Z</time></trkpt><trkpt lat="46.0924933" lon="13.52852"><ele>337.0</ele><time>2026-05-03T12:25:04.199Z</time></trkpt><trkpt lat="46.092435" lon="13.5285967"><ele>337.0</ele><time>2026-05-03T12:25:06.199Z</time></trkpt><trkpt lat="46.0924317" lon="13.5287483"><ele>337.0</ele><time>2026-05-03T12:25:08.199Z</time></trkpt><trkpt lat="46.0924567" lon="13.5288317"><ele>337.0</ele><time>2026-05-03T12:25:09.199Z</time></trkpt><trkpt lat="46.092455" lon="13.5289933"><ele>337.0</ele><time>2026-05-03T12:25:11.199Z</time></trkpt><trkpt lat="46.092445" lon="13.529085"><ele>337.0</ele><time>2026-05-03T12:25:12.199Z</time></trkpt><trkpt lat="46.0924083" lon="13.529165"><ele>337.0</ele><time>2026-05-03T12:25:13.199Z</time></trkpt><trkpt lat="46.0923717" lon="13.5292683"><ele>337.0</ele><time>2026-05-03T12:25:14.199Z</time></trkpt><trkpt lat="46.0923339" lon="13.5293717"><ele>342.6</ele><time>2026-05-03T12:25:15.199Z</time></trkpt><trkpt lat="46.0922946" lon="13.5294897"><ele>348.20000000000005</ele><time>2026-05-03T12:25:16.2Z</time></trkpt><trkpt lat="46.092248" lon="13.5296112"><ele>353.8</ele><time>2026-05-03T12:25:17.199Z</time></trkpt><trkpt lat="46.0921929" lon="13.5297277"><ele>359.4</ele><time>2026-05-03T12:25:18.199Z</time></trkpt><trkpt lat="46.0921261" lon="13.5298636"><ele>365.0</ele><time>2026-05-03T12:25:19.199Z</time></trkpt><trkpt lat="46.0920676" lon="13.5300094"><ele>365.0</ele><time>2026-05-03T12:25:20.199Z</time></trkpt><trkpt lat="46.092016" lon="13.5301552"><ele>365.0</ele><time>2026-05-03T12:25:21.199Z</time></trkpt><trkpt lat="46.0919746" lon="13.5302903"><ele>365.0</ele><time>2026-05-03T12:25:22.199Z</time></trkpt><trkpt lat="46.0919447" lon="13.530417"><ele>365.0</ele><time>2026-05-03T12:25:23.199Z</time></trkpt><trkpt lat="46.0919182" lon="13.5305384"><ele>365.0</ele><time>2026-05-03T12:25:24.199Z</time></trkpt><trkpt lat="46.0918898" lon="13.530659"><ele>362.5</ele><time>2026-05-03T12:25:25.199Z</time></trkpt><trkpt lat="46.0918616" lon="13.5307634"><ele>360.0</ele><time>2026-05-03T12:25:26.199Z</time></trkpt><trkpt lat="46.0918231" lon="13.5308509"><ele>357.5</ele><time>2026-05-03T12:25:27.199Z</time></trkpt><trkpt lat="46.0917856" lon="13.5309446"><ele>355.0</ele><time>2026-05-03T12:25:28.199Z</time></trkpt><trkpt lat="46.0917498" lon="13.5310536"><ele>352.5</ele><time>2026-05-03T12:25:29.199Z</time></trkpt><trkpt lat="46.0917158" lon="13.5311699"><ele>350.0</ele><time>2026-05-03T12:25:30.199Z</time></trkpt><trkpt lat="46.0916797" lon="13.5312889"><ele>350.83333333333337</ele><time>2026-05-03T12:25:31.199Z</time></trkpt><trkpt lat="46.0916405" lon="13.5314126"><ele>351.6666666666667</ele><time>2026-05-03T12:25:32.199Z</time></trkpt><trkpt lat="46.0916063" lon="13.531533"><ele>352.5</ele><time>2026-05-03T12:25:33.199Z</time></trkpt><trkpt lat="46.0915634" lon="13.5316414"><ele>353.3333333333333</ele><time>2026-05-03T12:25:34.199Z</time></trkpt><trkpt lat="46.0915083" lon="13.5317331"><ele>354.16666666666663</ele><time>2026-05-03T12:25:35.199Z</time></trkpt><trkpt lat="46.091438" lon="13.5318024"><ele>355.0</ele><time>2026-05-03T12:25:36.199Z</time></trkpt><trkpt lat="46.0913513" lon="13.5318554"><ele>355.0</ele><time>2026-05-03T12:25:37.199Z</time></trkpt><trkpt lat="46.0912547" lon="13.5318864"><ele>355.0</ele><time>2026-05-03T12:25:38.199Z</time></trkpt><trkpt lat="46.0911538" lon="13.5319017"><ele>355.0</ele><time>2026-05-03T12:25:39.199Z</time></trkpt><trkpt lat="46.0910544" lon="13.5318945"><ele>355.0</ele><time>2026-05-03T12:25:40.199Z</time></trkpt><trkpt lat="46.0909509" lon="13.5318735"><ele>355.0</ele><time>2026-05-03T12:25:41.199Z</time></trkpt><trkpt lat="46.0908527" lon="13.5318418"><ele>355.0</ele><time>2026-05-03T12:25:42.199Z</time></trkpt><trkpt lat="46.0907593" lon="13.5318054"><ele>355.0</ele><time>2026-05-03T12:25:43.199Z</time></trkpt><trkpt lat="46.0906777" lon="13.5317964"><ele>355.0</ele><time>2026-05-03T12:25:44.199Z</time></trkpt><trkpt lat="46.090614" lon="13.531808"><ele>355.0</ele><time>2026-05-03T12:25:45.199Z</time></trkpt><trkpt lat="46.0905516" lon="13.5318468"><ele>355.0</ele><time>2026-05-03T12:25:46.199Z</time></trkpt><trkpt lat="46.0904842" lon="13.5319282"><ele>355.0</ele><time>2026-05-03T12:25:47.199Z</time></trkpt><trkpt lat="46.0904228" lon="13.5320347"><ele>354.2</ele><time>2026-05-03T12:25:48.199Z</time></trkpt><trkpt lat="46.0903632" lon="13.532147"><ele>353.4</ele><time>2026-05-03T12:25:49.199Z</time></trkpt><trkpt lat="46.0902917" lon="13.5322817"><ele>352.6</ele><time>2026-05-03T12:25:50.199Z</time></trkpt><trkpt lat="46.0902167" lon="13.5323817"><ele>351.8</ele><time>2026-05-03T12:25:51.198Z</time></trkpt><trkpt lat="46.0901267" lon="13.5325017"><ele>351.0</ele><time>2026-05-03T12:25:52.198Z</time></trkpt><trkpt lat="46.0900383" lon="13.532595"><ele>351.0</ele><time>2026-05-03T12:25:53.198Z</time></trkpt><trkpt lat="46.0899483" lon="13.5327"><ele>351.0</ele><time>2026-05-03T12:25:54.198Z</time></trkpt><trkpt lat="46.0898786" lon="13.5327847"><ele>351.0</ele><time>2026-05-03T12:25:55.198Z</time></trkpt><trkpt lat="46.0898054" lon="13.5329341"><ele>351.0</ele><time>2026-05-03T12:25:56.198Z</time></trkpt><trkpt lat="46.0897475" lon="13.5331058"><ele>353.20000000000005</ele><time>2026-05-03T12:25:57.198Z</time></trkpt><trkpt lat="46.0896864" lon="13.5332589"><ele>355.40000000000003</ele><time>2026-05-03T12:25:58.198Z</time></trkpt><trkpt lat="46.0896344" lon="13.5333888"><ele>357.6</ele><time>2026-05-03T12:25:59.198Z</time></trkpt><trkpt lat="46.0895786" lon="13.5335055"><ele>359.8</ele><time>2026-05-03T12:26:00.198Z</time></trkpt><trkpt lat="46.0895045" lon="13.533613"><ele>362.0</ele><time>2026-05-03T12:26:01.198Z</time></trkpt><trkpt lat="46.0894053" lon="13.5337041"><ele>361.75</ele><time>2026-05-03T12:26:02.199Z</time></trkpt><trkpt lat="46.0892976" lon="13.5338012"><ele>361.5</ele><time>2026-05-03T12:26:03.198Z</time></trkpt><trkpt lat="46.0891921" lon="13.5339101"><ele>361.25</ele><time>2026-05-03T12:26:04.198Z</time></trkpt><trkpt lat="46.0890894" lon="13.5340264"><ele>361.0</ele><time>2026-05-03T12:26:05.198Z</time></trkpt><trkpt lat="46.0889857" lon="13.5341485"><ele>361.0</ele><time>2026-05-03T12:26:06.198Z</time></trkpt><trkpt lat="46.0888903" lon="13.5342696"><ele>361.0</ele><time>2026-05-03T12:26:07.198Z</time></trkpt><trkpt lat="46.0888014" lon="13.5343818"><ele>361.0</ele><time>2026-05-03T12:26:08.198Z</time></trkpt><trkpt lat="46.0887136" lon="13.5344907"><ele>361.0</ele><time>2026-05-03T12:26:09.198Z</time></trkpt><trkpt lat="46.0886319" lon="13.534601"><ele>357.16666666666663</ele><time>2026-05-03T12:26:10.198Z</time></trkpt><trkpt lat="46.0885584" lon="13.5347101"><ele>353.3333333333333</ele><time>2026-05-03T12:26:11.198Z</time></trkpt><trkpt lat="46.0884961" lon="13.5348005"><ele>349.5</ele><time>2026-05-03T12:26:12.198Z</time></trkpt><trkpt lat="46.0884303" lon="13.5348653"><ele>345.6666666666667</ele><time>2026-05-03T12:26:13.198Z</time></trkpt><trkpt lat="46.0883657" lon="13.5348935"><ele>341.83333333333337</ele><time>2026-05-03T12:26:14.198Z</time></trkpt><trkpt lat="46.0882983" lon="13.5349032"><ele>338.0</ele><time>2026-05-03T12:26:15.198Z</time></trkpt><trkpt lat="46.0882232" lon="13.5348865"><ele>337.4</ele><time>2026-05-03T12:26:16.198Z</time></trkpt><trkpt lat="46.0881391" lon="13.534842"><ele>336.79999999999995</ele><time>2026-05-03T12:26:17.198Z</time></trkpt><trkpt lat="46.0880456" lon="13.5347683"><ele>336.2</ele><time>2026-05-03T12:26:18.198Z</time></trkpt><trkpt lat="46.0879516" lon="13.5346867"><ele>335.6</ele><time>2026-05-03T12:26:19.198Z</time></trkpt><trkpt lat="46.0878728" lon="13.5345958"><ele>335.0</ele><time>2026-05-03T12:26:20.198Z</time></trkpt><trkpt lat="46.0878157" lon="13.5345009"><ele>335.0</ele><time>2026-05-03T12:26:21.198Z</time></trkpt><trkpt lat="46.0877773" lon="13.5344042"><ele>335.0</ele><time>2026-05-03T12:26:22.198Z</time></trkpt><trkpt lat="46.0877643" lon="13.534303"><ele>335.0</ele><time>2026-05-03T12:26:23.198Z</time></trkpt><trkpt lat="46.0877626" lon="13.5341927"><ele>335.0</ele><time>2026-05-03T12:26:24.198Z</time></trkpt><trkpt lat="46.087761" lon="13.5340793"><ele>335.0</ele><time>2026-05-03T12:26:25.198Z</time></trkpt><trkpt lat="46.0877527" lon="13.5339637"><ele>335.0</ele><time>2026-05-03T12:26:26.198Z</time></trkpt><trkpt lat="46.0877309" lon="13.5338542"><ele>335.0</ele><time>2026-05-03T12:26:27.198Z</time></trkpt><trkpt lat="46.0876944" lon="13.5337408"><ele>335.0</ele><time>2026-05-03T12:26:28.198Z</time></trkpt><trkpt lat="46.0876333" lon="13.5336167"><ele>335.0</ele><time>2026-05-03T12:26:29.198Z</time></trkpt><trkpt lat="46.0875567" lon="13.5334883"><ele>335.0</ele><time>2026-05-03T12:26:30.198Z</time></trkpt><trkpt lat="46.0874817" lon="13.5333533"><ele>335.0</ele><time>2026-05-03T12:26:31.198Z</time></trkpt><trkpt lat="46.08741" lon="13.53322"><ele>336.83333333333337</ele><time>2026-05-03T12:26:32.198Z</time></trkpt><trkpt lat="46.087345" lon="13.533095"><ele>338.6666666666667</ele><time>2026-05-03T12:26:33.198Z</time></trkpt><trkpt lat="46.08728" lon="13.5329783"><ele>340.5</ele><time>2026-05-03T12:26:34.198Z</time></trkpt><trkpt lat="46.087225" lon="13.53289"><ele>342.3333333333333</ele><time>2026-05-03T12:26:35.198Z</time></trkpt><trkpt lat="46.0871833" lon="13.5327983"><ele>344.16666666666663</ele><time>2026-05-03T12:26:36.198Z</time></trkpt><trkpt lat="46.087155" lon="13.5326967"><ele>346.0</ele><time>2026-05-03T12:26:37.198Z</time></trkpt><trkpt lat="46.08713" lon="13.53259"><ele>350.16666666666663</ele><time>2026-05-03T12:26:38.198Z</time></trkpt><trkpt lat="46.0871017" lon="13.53248"><ele>354.3333333333333</ele><time>2026-05-03T12:26:39.198Z</time></trkpt><trkpt lat="46.087055" lon="13.5324133"><ele>358.5</ele><time>2026-05-03T12:26:40.198Z</time></trkpt><trkpt lat="46.08702" lon="13.532325"><ele>362.6666666666667</ele><time>2026-05-03T12:26:41.198Z</time></trkpt><trkpt lat="46.0869417" lon="13.5322733"><ele>366.83333333333337</ele><time>2026-05-03T12:26:43.198Z</time></trkpt><trkpt lat="46.0868433" lon="13.532375"><ele>371.0</ele><time>2026-05-03T12:26:45.198Z</time></trkpt><trkpt lat="46.08679" lon="13.5324517"><ele>371.0</ele><time>2026-05-03T12:26:46.198Z</time></trkpt><trkpt lat="46.0867267" lon="13.532545"><ele>371.0</ele><time>2026-05-03T12:26:47.198Z</time></trkpt><trkpt lat="46.086655" lon="13.532655"><ele>371.0</ele><time>2026-05-03T12:26:48.198Z</time></trkpt><trkpt lat="46.0865783" lon="13.532765"><ele>371.0</ele><time>2026-05-03T12:26:49.198Z</time></trkpt><trkpt lat="46.08652" lon="13.53287"><ele>371.0</ele><time>2026-05-03T12:26:50.198Z</time></trkpt><trkpt lat="46.086455" lon="13.5329483"><ele>368.5</ele><time>2026-05-03T12:26:51.198Z</time></trkpt><trkpt lat="46.0863983" lon="13.5330233"><ele>366.0</ele><time>2026-05-03T12:26:52.198Z</time></trkpt><trkpt lat="46.0863333" lon="13.5330717"><ele>363.5</ele><time>2026-05-03T12:26:53.198Z</time></trkpt><trkpt lat="46.086255" lon="13.5331083"><ele>361.0</ele><time>2026-05-03T12:26:54.198Z</time></trkpt><trkpt lat="46.0861783" lon="13.5331483"><ele>358.5</ele><time>2026-05-03T12:26:55.199Z</time></trkpt><trkpt lat="46.086075" lon="13.533175"><ele>356.0</ele><time>2026-05-03T12:26:56.198Z</time></trkpt><trkpt lat="46.0859783" lon="13.533175"><ele>356.0</ele><time>2026-05-03T12:26:57.198Z</time></trkpt><trkpt lat="46.0858933" lon="13.5331483"><ele>356.0</ele><time>2026-05-03T12:26:58.198Z</time></trkpt><trkpt lat="46.0858133" lon="13.5331233"><ele>356.0</ele><time>2026-05-03T12:26:59.198Z</time></trkpt><trkpt lat="46.08573" lon="13.5330667"><ele>356.0</ele><time>2026-05-03T12:27:00.198Z</time></trkpt><trkpt lat="46.0856483" lon="13.53298"><ele>356.0</ele><time>2026-05-03T12:27:01.198Z</time></trkpt><trkpt lat="46.0855717" lon="13.5328833"><ele>359.0</ele><time>2026-05-03T12:27:02.198Z</time></trkpt><trkpt lat="46.0854867" lon="13.5328067"><ele>362.0</ele><time>2026-05-03T12:27:03.199Z</time></trkpt><trkpt lat="46.085415" lon="13.53274"><ele>365.0</ele><time>2026-05-03T12:27:04.198Z</time></trkpt><trkpt lat="46.0853383" lon="13.5326917"><ele>368.0</ele><time>2026-05-03T12:27:05.198Z</time></trkpt><trkpt lat="46.08526" lon="13.5326567"><ele>371.0</ele><time>2026-05-03T12:27:06.198Z</time></trkpt><trkpt lat="46.08517" lon="13.5326417"><ele>374.0</ele><time>2026-05-03T12:27:07.198Z</time></trkpt><trkpt lat="46.0850733" lon="13.532655"><ele>374.0</ele><time>2026-05-03T12:27:08.198Z</time></trkpt><trkpt lat="46.0849817" lon="13.5326833"><ele>374.0</ele><time>2026-05-03T12:27:09.198Z</time></trkpt><trkpt lat="46.0848817" lon="13.5327133"><ele>374.0</ele><time>2026-05-03T12:27:10.198Z</time></trkpt><trkpt lat="46.0848" lon="13.5327167"><ele>374.0</ele><time>2026-05-03T12:27:11.198Z</time></trkpt><trkpt lat="46.0847133" lon="13.53271"><ele>374.0</ele><time>2026-05-03T12:27:12.198Z</time></trkpt><trkpt lat="46.0846317" lon="13.532695"><ele>374.0</ele><time>2026-05-03T12:27:13.198Z</time></trkpt><trkpt lat="46.08456" lon="13.532665"><ele>375.5</ele><time>2026-05-03T12:27:14.198Z</time></trkpt><trkpt lat="46.0844967" lon="13.532635"><ele>377.0</ele><time>2026-05-03T12:27:15.198Z</time></trkpt><trkpt lat="46.0844317" lon="13.5325967"><ele>378.5</ele><time>2026-05-03T12:27:16.198Z</time></trkpt><trkpt lat="46.0843333" lon="13.532605"><ele>380.0</ele><time>2026-05-03T12:27:18.198Z</time></trkpt><trkpt lat="46.0842467" lon="13.532735"><ele>381.5</ele><time>2026-05-03T12:27:20.198Z</time></trkpt><trkpt lat="46.0841917" lon="13.5328133"><ele>383.0</ele><time>2026-05-03T12:27:21.198Z</time></trkpt><trkpt lat="46.0841333" lon="13.5329067"><ele>385.59999999999997</ele><time>2026-05-03T12:27:22.198Z</time></trkpt><trkpt lat="46.08408" lon="13.533035"><ele>388.2</ele><time>2026-05-03T12:27:23.198Z</time></trkpt><trkpt lat="46.08404" lon="13.53318"><ele>390.8</ele><time>2026-05-03T12:27:24.198Z</time></trkpt><trkpt lat="46.0839933" lon="13.533305"><ele>393.4</ele><time>2026-05-03T12:27:25.198Z</time></trkpt><trkpt lat="46.083945" lon="13.53342"><ele>396.0</ele><time>2026-05-03T12:27:26.198Z</time></trkpt><trkpt lat="46.083885" lon="13.5335167"><ele>396.0</ele><time>2026-05-03T12:27:27.198Z</time></trkpt><trkpt lat="46.08382" lon="13.5336283"><ele>396.0</ele><time>2026-05-03T12:27:28.198Z</time></trkpt><trkpt lat="46.0837567" lon="13.53372"><ele>396.0</ele><time>2026-05-03T12:27:29.198Z</time></trkpt><trkpt lat="46.0836817" lon="13.5337933"><ele>396.0</ele><time>2026-05-03T12:27:30.198Z</time></trkpt><trkpt lat="46.083605" lon="13.5338467"><ele>396.0</ele><time>2026-05-03T12:27:31.198Z</time></trkpt><trkpt lat="46.0835317" lon="13.533905"><ele>394.5</ele><time>2026-05-03T12:27:32.198Z</time></trkpt><trkpt lat="46.0834617" lon="13.53396"><ele>393.0</ele><time>2026-05-03T12:27:33.198Z</time></trkpt><trkpt lat="46.0834" lon="13.5340133"><ele>391.5</ele><time>2026-05-03T12:27:34.198Z</time></trkpt><trkpt lat="46.08332" lon="13.5340933"><ele>390.0</ele><time>2026-05-03T12:27:36.198Z</time></trkpt><trkpt lat="46.0832517" lon="13.53424"><ele>388.5</ele><time>2026-05-03T12:27:38.198Z</time></trkpt><trkpt lat="46.0832117" lon="13.534315"><ele>387.0</ele><time>2026-05-03T12:27:39.198Z</time></trkpt><trkpt lat="46.0831417" lon="13.53439"><ele>387.0</ele><time>2026-05-03T12:27:40.198Z</time></trkpt><trkpt lat="46.083055" lon="13.5344483"><ele>387.0</ele><time>2026-05-03T12:27:41.198Z</time></trkpt><trkpt lat="46.0829717" lon="13.5345017"><ele>387.0</ele><time>2026-05-03T12:27:42.198Z</time></trkpt><trkpt lat="46.082885" lon="13.534545"><ele>387.0</ele><time>2026-05-03T12:27:43.198Z</time></trkpt><trkpt lat="46.0827967" lon="13.534565"><ele>387.0</ele><time>2026-05-03T12:27:44.199Z</time></trkpt><trkpt lat="46.0827133" lon="13.53457"><ele>387.0</ele><time>2026-05-03T12:27:45.198Z</time></trkpt><trkpt lat="46.0826217" lon="13.5345617"><ele>387.0</ele><time>2026-05-03T12:27:46.198Z</time></trkpt><trkpt lat="46.082535" lon="13.53455"><ele>387.0</ele><time>2026-05-03T12:27:47.198Z</time></trkpt><trkpt lat="46.0824483" lon="13.5345167"><ele>387.0</ele><time>2026-05-03T12:27:48.198Z</time></trkpt><trkpt lat="46.082395" lon="13.5344517"><ele>387.0</ele><time>2026-05-03T12:27:49.198Z</time></trkpt><trkpt lat="46.082375" lon="13.5343117"><ele>387.0</ele><time>2026-05-03T12:27:51.198Z</time></trkpt><trkpt lat="46.0824833" lon="13.5342383"><ele>387.0</ele><time>2026-05-03T12:27:53.198Z</time></trkpt><trkpt lat="46.08257" lon="13.5342267"><ele>387.0</ele><time>2026-05-03T12:27:54.198Z</time></trkpt><trkpt lat="46.0826567" lon="13.5342017"><ele>387.0</ele><time>2026-05-03T12:27:55.198Z</time></trkpt><trkpt lat="46.0827283" lon="13.5341483"><ele>387.0</ele><time>2026-05-03T12:27:56.198Z</time></trkpt><trkpt lat="46.0827883" lon="13.5340567"><ele>387.0</ele><time>2026-05-03T12:27:57.198Z</time></trkpt><trkpt lat="46.0828317" lon="13.5339283"><ele>387.0</ele><time>2026-05-03T12:27:58.198Z</time></trkpt><trkpt lat="46.0828667" lon="13.533785"><ele>388.6</ele><time>2026-05-03T12:27:59.198Z</time></trkpt><trkpt lat="46.08291" lon="13.533645"><ele>390.20000000000005</ele><time>2026-05-03T12:28:00.198Z</time></trkpt><trkpt lat="46.0829467" lon="13.533535"><ele>391.8</ele><time>2026-05-03T12:28:01.198Z</time></trkpt><trkpt lat="46.0829983" lon="13.5334333"><ele>393.4</ele><time>2026-05-03T12:28:02.198Z</time></trkpt><trkpt lat="46.0830617" lon="13.5333517"><ele>395.0</ele><time>2026-05-03T12:28:03.198Z</time></trkpt><trkpt lat="46.0831383" lon="13.5332783"><ele>395.0</ele><time>2026-05-03T12:28:04.198Z</time></trkpt><trkpt lat="46.0832117" lon="13.5331983"><ele>395.0</ele><time>2026-05-03T12:28:05.198Z</time></trkpt><trkpt lat="46.0832858" lon="13.5331175"><ele>395.0</ele><time>2026-05-03T12:28:06.198Z</time></trkpt><trkpt lat="46.0833697" lon="13.5330259"><ele>395.0</ele><time>2026-05-03T12:28:07.198Z</time></trkpt><trkpt lat="46.0834523" lon="13.5329289"><ele>395.0</ele><time>2026-05-03T12:28:08.198Z</time></trkpt><trkpt lat="46.08352" lon="13.5328239"><ele>397.66666666666663</ele><time>2026-05-03T12:28:09.198Z</time></trkpt><trkpt lat="46.0835722" lon="13.5327142"><ele>400.3333333333333</ele><time>2026-05-03T12:28:10.199Z</time></trkpt><trkpt lat="46.0836139" lon="13.5326017"><ele>403.0</ele><time>2026-05-03T12:28:11.198Z</time></trkpt><trkpt lat="46.0836444" lon="13.5324843"><ele>405.66666666666663</ele><time>2026-05-03T12:28:12.198Z</time></trkpt><trkpt lat="46.0836714" lon="13.5323623"><ele>408.3333333333333</ele><time>2026-05-03T12:28:13.198Z</time></trkpt><trkpt lat="46.0836937" lon="13.5322452"><ele>411.0</ele><time>2026-05-03T12:28:14.198Z</time></trkpt><trkpt lat="46.0837174" lon="13.5321172"><ele>412.6</ele><time>2026-05-03T12:28:15.198Z</time></trkpt><trkpt lat="46.0837439" lon="13.5319875"><ele>414.20000000000005</ele><time>2026-05-03T12:28:16.198Z</time></trkpt><trkpt lat="46.0837734" lon="13.5318525"><ele>415.79999999999995</ele><time>2026-05-03T12:28:17.198Z</time></trkpt><trkpt lat="46.0838012" lon="13.5317313"><ele>417.4</ele><time>2026-05-03T12:28:18.198Z</time></trkpt><trkpt lat="46.0838327" lon="13.5316167"><ele>419.0</ele><time>2026-05-03T12:28:19.198Z</time></trkpt><trkpt lat="46.0838754" lon="13.5315034"><ele>419.0</ele><time>2026-05-03T12:28:20.198Z</time></trkpt><trkpt lat="46.0839312" lon="13.5313961"><ele>419.0</ele><time>2026-05-03T12:28:21.198Z</time></trkpt><trkpt lat="46.084003" lon="13.5312847"><ele>419.0</ele><time>2026-05-03T12:28:22.198Z</time></trkpt><trkpt lat="46.0840847" lon="13.5311621"><ele>419.0</ele><time>2026-05-03T12:28:23.198Z</time></trkpt><trkpt lat="46.0841651" lon="13.5310417"><ele>419.0</ele><time>2026-05-03T12:28:24.198Z</time></trkpt><trkpt lat="46.0842418" lon="13.5309096"><ele>419.79999999999995</ele><time>2026-05-03T12:28:25.198Z</time></trkpt><trkpt lat="46.0843188" lon="13.5307813"><ele>420.59999999999997</ele><time>2026-05-03T12:28:26.198Z</time></trkpt><trkpt lat="46.0843992" lon="13.5306627"><ele>421.4</ele><time>2026-05-03T12:28:27.198Z</time></trkpt><trkpt lat="46.0844799" lon="13.5305646"><ele>422.2</ele><time>2026-05-03T12:28:28.198Z</time></trkpt><trkpt lat="46.084544" lon="13.530483"><ele>423.0</ele><time>2026-05-03T12:28:29.198Z</time></trkpt><trkpt lat="46.0846017" lon="13.5304105"><ele>423.0</ele><time>2026-05-03T12:28:30.198Z</time></trkpt><trkpt lat="46.0846655" lon="13.5303584"><ele>423.0</ele><time>2026-05-03T12:28:31.198Z</time></trkpt><trkpt lat="46.0847306" lon="13.5303198"><ele>423.0</ele><time>2026-05-03T12:28:32.199Z</time></trkpt><trkpt lat="46.084835" lon="13.5303232"><ele>423.0</ele><time>2026-05-03T12:28:34.198Z</time></trkpt><trkpt lat="46.0848708" lon="13.5303982"><ele>423.0</ele><time>2026-05-03T12:28:35.198Z</time></trkpt><trkpt lat="46.0849019" lon="13.5305023"><ele>423.0</ele><time>2026-05-03T12:28:36.198Z</time></trkpt><trkpt lat="46.0849328" lon="13.5306298"><ele>422.4</ele><time>2026-05-03T12:28:37.198Z</time></trkpt><trkpt lat="46.0849741" lon="13.5307552"><ele>421.79999999999995</ele><time>2026-05-03T12:28:38.198Z</time></trkpt><trkpt lat="46.0850382" lon="13.5308817"><ele>421.2</ele><time>2026-05-03T12:28:39.198Z</time></trkpt><trkpt lat="46.0851092" lon="13.5309943"><ele>420.6</ele><time>2026-05-03T12:28:40.198Z</time></trkpt><trkpt lat="46.0851818" lon="13.5310846"><ele>420.0</ele><time>2026-05-03T12:28:41.198Z</time></trkpt><trkpt lat="46.085257" lon="13.5311566"><ele>420.0</ele><time>2026-05-03T12:28:42.198Z</time></trkpt><trkpt lat="46.0853389" lon="13.5311999"><ele>420.0</ele><time>2026-05-03T12:28:43.198Z</time></trkpt><trkpt lat="46.0854234" lon="13.531235"><ele>420.0</ele><time>2026-05-03T12:28:44.198Z</time></trkpt><trkpt lat="46.0855122" lon="13.5312645"><ele>420.0</ele><time>2026-05-03T12:28:45.198Z</time></trkpt><trkpt lat="46.0856071" lon="13.5313085"><ele>420.0</ele><time>2026-05-03T12:28:46.198Z</time></trkpt><trkpt lat="46.0857116" lon="13.5313353"><ele>417.75</ele><time>2026-05-03T12:28:47.198Z</time></trkpt><trkpt lat="46.0858227" lon="13.5313379"><ele>415.5</ele><time>2026-05-03T12:28:48.198Z</time></trkpt><trkpt lat="46.0859352" lon="13.5313141"><ele>413.25</ele><time>2026-05-03T12:28:49.198Z</time></trkpt><trkpt lat="46.0860397" lon="13.5312645"><ele>411.0</ele><time>2026-05-03T12:28:50.199Z</time></trkpt><trkpt lat="46.0861541" lon="13.5311907"><ele>418.5</ele><time>2026-05-03T12:28:51.198Z</time></trkpt><trkpt lat="46.0862699" lon="13.5310945"><ele>426.0</ele><time>2026-05-03T12:28:52.198Z</time></trkpt><trkpt lat="46.0863824" lon="13.5310118"><ele>433.5</ele><time>2026-05-03T12:28:53.198Z</time></trkpt><trkpt lat="46.0864861" lon="13.5309276"><ele>441.0</ele><time>2026-05-03T12:28:54.198Z</time></trkpt><trkpt lat="46.086578" lon="13.5308494"><ele>439.3333333333333</ele><time>2026-05-03T12:28:55.198Z</time></trkpt><trkpt lat="46.0866642" lon="13.5307793"><ele>437.66666666666663</ele><time>2026-05-03T12:28:56.198Z</time></trkpt><trkpt lat="46.086736" lon="13.5307167"><ele>436.0</ele><time>2026-05-03T12:28:57.198Z</time></trkpt><trkpt lat="46.0868075" lon="13.5306582"><ele>434.3333333333333</ele><time>2026-05-03T12:28:58.198Z</time></trkpt><trkpt lat="46.0868694" lon="13.5306179"><ele>432.66666666666663</ele><time>2026-05-03T12:28:59.198Z</time></trkpt><trkpt lat="46.0869357" lon="13.5305849"><ele>431.0</ele><time>2026-05-03T12:29:01.198Z</time></trkpt><trkpt lat="46.0870967" lon="13.5305317"><ele>431.0</ele><time>2026-05-03T12:29:58.198Z</time></trkpt><trkpt lat="46.087185" lon="13.5305367"><ele>431.0</ele><time>2026-05-03T12:30:00.198Z</time></trkpt><trkpt lat="46.0872817" lon="13.5305833"><ele>431.0</ele><time>2026-05-03T12:30:02.198Z</time></trkpt><trkpt lat="46.0873717" lon="13.530635"><ele>431.0</ele><time>2026-05-03T12:30:04.198Z</time></trkpt><trkpt lat="46.0875" lon="13.5306717"><ele>431.0</ele><time>2026-05-03T12:30:06.198Z</time></trkpt><trkpt lat="46.0875717" lon="13.530695"><ele>431.99999999999994</ele><time>2026-05-03T12:30:07.198Z</time></trkpt><trkpt lat="46.0876483" lon="13.5307"><ele>433.0</ele><time>2026-05-03T12:30:08.198Z</time></trkpt><trkpt lat="46.0877283" lon="13.5307017"><ele>434.0</ele><time>2026-05-03T12:30:09.198Z</time></trkpt><trkpt lat="46.0877967" lon="13.5307133"><ele>435.0</ele><time>2026-05-03T12:30:10.198Z</time></trkpt><trkpt lat="46.0878717" lon="13.53072"><ele>435.99999999999994</ele><time>2026-05-03T12:30:11.198Z</time></trkpt><trkpt lat="46.0879467" lon="13.530715"><ele>437.0</ele><time>2026-05-03T12:30:12.198Z</time></trkpt><trkpt lat="46.0880283" lon="13.5307133"><ele>436.99999999999994</ele><time>2026-05-03T12:30:13.198Z</time></trkpt><trkpt lat="46.0881" lon="13.5307"><ele>437.0</ele><time>2026-05-03T12:30:14.198Z</time></trkpt><trkpt lat="46.0881717" lon="13.5306533"><ele>437.0</ele><time>2026-05-03T12:30:15.198Z</time></trkpt><trkpt lat="46.08823" lon="13.53059"><ele>437.0</ele><time>2026-05-03T12:30:16.198Z</time></trkpt><trkpt lat="46.08828" lon="13.5305033"><ele>436.99999999999994</ele><time>2026-05-03T12:30:17.198Z</time></trkpt><trkpt lat="46.08832" lon="13.5303883"><ele>437.0</ele><time>2026-05-03T12:30:18.198Z</time></trkpt><trkpt lat="46.0883583" lon="13.5302683"><ele>444.20000000000005</ele><time>2026-05-03T12:30:19.198Z</time></trkpt><trkpt lat="46.0883983" lon="13.5301333"><ele>451.40000000000003</ele><time>2026-05-03T12:30:20.198Z</time></trkpt><trkpt lat="46.088435" lon="13.5300033"><ele>458.59999999999997</ele><time>2026-05-03T12:30:21.198Z</time></trkpt><trkpt lat="46.0884733" lon="13.5298667"><ele>465.79999999999995</ele><time>2026-05-03T12:30:22.198Z</time></trkpt><trkpt lat="46.08851" lon="13.5297317"><ele>473.0</ele><time>2026-05-03T12:30:23.198Z</time></trkpt><trkpt lat="46.0885417" lon="13.5296117"><ele>478.0</ele><time>2026-05-03T12:30:24.198Z</time></trkpt><trkpt lat="46.08857" lon="13.5294817"><ele>482.99999999999994</ele><time>2026-05-03T12:30:25.198Z</time></trkpt><trkpt lat="46.0886033" lon="13.5293417"><ele>487.99999999999994</ele><time>2026-05-03T12:30:26.198Z</time></trkpt><trkpt lat="46.088645" lon="13.5291983"><ele>493.0</ele><time>2026-05-03T12:30:27.198Z</time></trkpt><trkpt lat="46.0886767" lon="13.5290483"><ele>498.0</ele><time>2026-05-03T12:30:28.198Z</time></trkpt><trkpt lat="46.0887117" lon="13.528895"><ele>498.0</ele><time>2026-05-03T12:30:29.198Z</time></trkpt><trkpt lat="46.0887533" lon="13.5287267"><ele>498.0</ele><time>2026-05-03T12:30:30.198Z</time></trkpt><trkpt lat="46.0888083" lon="13.528555"><ele>498.0</ele><time>2026-05-03T12:30:31.198Z</time></trkpt><trkpt lat="46.08886" lon="13.52839"><ele>498.0</ele><time>2026-05-03T12:30:32.198Z</time></trkpt><trkpt lat="46.088915" lon="13.5282217"><ele>496.2</ele><time>2026-05-03T12:30:33.198Z</time></trkpt><trkpt lat="46.0889817" lon="13.528065"><ele>494.4</ele><time>2026-05-03T12:30:34.198Z</time></trkpt><trkpt lat="46.0890267" lon="13.5279467"><ele>492.59999999999997</ele><time>2026-05-03T12:30:35.198Z</time></trkpt><trkpt lat="46.0890633" lon="13.5278217"><ele>490.79999999999995</ele><time>2026-05-03T12:30:36.198Z</time></trkpt><trkpt lat="46.0890917" lon="13.5276933"><ele>489.0</ele><time>2026-05-03T12:30:37.198Z</time></trkpt><trkpt lat="46.0891117" lon="13.52756"><ele>489.0</ele><time>2026-05-03T12:30:38.198Z</time></trkpt><trkpt lat="46.08912" lon="13.5274283"><ele>489.0</ele><time>2026-05-03T12:30:39.198Z</time></trkpt><trkpt lat="46.089125" lon="13.5272867"><ele>489.0</ele><time>2026-05-03T12:30:40.198Z</time></trkpt><trkpt lat="46.089125" lon="13.5271383"><ele>489.0</ele><time>2026-05-03T12:30:41.198Z</time></trkpt><trkpt lat="46.0891383" lon="13.5269817"><ele>489.0</ele><time>2026-05-03T12:30:42.198Z</time></trkpt><trkpt lat="46.08916" lon="13.526795"><ele>492.25</ele><time>2026-05-03T12:30:43.198Z</time></trkpt><trkpt lat="46.0891883" lon="13.5266033"><ele>495.5</ele><time>2026-05-03T12:30:44.198Z</time></trkpt><trkpt lat="46.0892117" lon="13.52641"><ele>498.75</ele><time>2026-05-03T12:30:45.198Z</time></trkpt><trkpt lat="46.0892317" lon="13.5262317"><ele>502.0</ele><time>2026-05-03T12:30:46.198Z</time></trkpt><trkpt lat="46.08925" lon="13.52606"><ele>504.1666666666667</ele><time>2026-05-03T12:30:47.198Z</time></trkpt><trkpt lat="46.089265" lon="13.5259133"><ele>506.33333333333337</ele><time>2026-05-03T12:30:48.198Z</time></trkpt><trkpt lat="46.0892817" lon="13.5258017"><ele>508.5</ele><time>2026-05-03T12:30:49.198Z</time></trkpt><trkpt lat="46.0892917" lon="13.5257"><ele>510.66666666666663</ele><time>2026-05-03T12:30:50.198Z</time></trkpt><trkpt lat="46.089305" lon="13.5256033"><ele>512.8333333333333</ele><time>2026-05-03T12:30:51.198Z</time></trkpt><trkpt lat="46.0893183" lon="13.5254967"><ele>515.0</ele><time>2026-05-03T12:30:52.198Z</time></trkpt><trkpt lat="46.0893233" lon="13.5253767"><ele>515.5</ele><time>2026-05-03T12:30:53.198Z</time></trkpt><trkpt lat="46.0893267" lon="13.52525"><ele>516.0</ele><time>2026-05-03T12:30:54.198Z</time></trkpt><trkpt lat="46.0893233" lon="13.52512"><ele>516.5</ele><time>2026-05-03T12:30:55.198Z</time></trkpt><trkpt lat="46.0893183" lon="13.5249817"><ele>517.0</ele><time>2026-05-03T12:30:56.198Z</time></trkpt><trkpt lat="46.0892983" lon="13.524855"><ele>517.5</ele><time>2026-05-03T12:30:57.198Z</time></trkpt><trkpt lat="46.089275" lon="13.5247417"><ele>518.0</ele><time>2026-05-03T12:30:58.198Z</time></trkpt><trkpt lat="46.0892567" lon="13.5246483"><ele>516.8333333333333</ele><time>2026-05-03T12:30:59.198Z</time></trkpt><trkpt lat="46.0892417" lon="13.5245583"><ele>515.6666666666666</ele><time>2026-05-03T12:31:00.199Z</time></trkpt><trkpt lat="46.0892183" lon="13.5244667"><ele>514.5</ele><time>2026-05-03T12:31:01.198Z</time></trkpt><trkpt lat="46.089175" lon="13.5243633"><ele>513.3333333333334</ele><time>2026-05-03T12:31:02.198Z</time></trkpt><trkpt lat="46.08913" lon="13.5242733"><ele>512.1666666666667</ele><time>2026-05-03T12:31:03.198Z</time></trkpt><trkpt lat="46.0890767" lon="13.5241767"><ele>511.0</ele><time>2026-05-03T12:31:04.198Z</time></trkpt><trkpt lat="46.08903" lon="13.5240917"><ele>517.0</ele><time>2026-05-03T12:31:05.198Z</time></trkpt><trkpt lat="46.0889733" lon="13.52398"><ele>523.0</ele><time>2026-05-03T12:31:06.198Z</time></trkpt><trkpt lat="46.0889233" lon="13.5238567"><ele>529.0</ele><time>2026-05-03T12:31:07.198Z</time></trkpt><trkpt lat="46.08889" lon="13.523735"><ele>535.0</ele><time>2026-05-03T12:31:08.198Z</time></trkpt><trkpt lat="46.0888683" lon="13.5235917"><ele>541.0</ele><time>2026-05-03T12:31:09.198Z</time></trkpt><trkpt lat="46.0888567" lon="13.523435"><ele>541.0</ele><time>2026-05-03T12:31:10.198Z</time></trkpt><trkpt lat="46.0888433" lon="13.5232883"><ele>541.0</ele><time>2026-05-03T12:31:11.198Z</time></trkpt><trkpt lat="46.0888267" lon="13.52315"><ele>541.0</ele><time>2026-05-03T12:31:12.198Z</time></trkpt><trkpt lat="46.0888083" lon="13.5230067"><ele>541.0</ele><time>2026-05-03T12:31:13.198Z</time></trkpt><trkpt lat="46.0887867" lon="13.522865"><ele>541.0</ele><time>2026-05-03T12:31:14.198Z</time></trkpt><trkpt lat="46.0887783" lon="13.52273"><ele>542.0</ele><time>2026-05-03T12:31:15.198Z</time></trkpt><trkpt lat="46.0887717" lon="13.5225867"><ele>543.0</ele><time>2026-05-03T12:31:16.198Z</time></trkpt><trkpt lat="46.0887617" lon="13.5224433"><ele>544.0</ele><time>2026-05-03T12:31:17.198Z</time></trkpt><trkpt lat="46.0887533" lon="13.5223217"><ele>545.0</ele><time>2026-05-03T12:31:18.198Z</time></trkpt><trkpt lat="46.088745" lon="13.5222183"><ele>546.0</ele><time>2026-05-03T12:31:19.198Z</time></trkpt><trkpt lat="46.0887317" lon="13.5220983"><ele>547.0</ele><time>2026-05-03T12:31:20.198Z</time></trkpt><trkpt lat="46.0887233" lon="13.5219617"><ele>547.0</ele><time>2026-05-03T12:31:21.198Z</time></trkpt><trkpt lat="46.088695" lon="13.5218067"><ele>547.0</ele><time>2026-05-03T12:31:22.198Z</time></trkpt><trkpt lat="46.0886533" lon="13.52165"><ele>547.0</ele><time>2026-05-03T12:31:23.198Z</time></trkpt><trkpt lat="46.0886183" lon="13.52149"><ele>547.0</ele><time>2026-05-03T12:31:24.198Z</time></trkpt><trkpt lat="46.0886033" lon="13.5213533"><ele>547.0</ele><time>2026-05-03T12:31:25.198Z</time></trkpt><trkpt lat="46.0886" lon="13.5212083"><ele>547.0</ele><time>2026-05-03T12:31:26.198Z</time></trkpt><trkpt lat="46.0885833" lon="13.5210817"><ele>547.0</ele><time>2026-05-03T12:31:27.198Z</time></trkpt><trkpt lat="46.08857" lon="13.520965"><ele>547.0</ele><time>2026-05-03T12:31:28.198Z</time></trkpt><trkpt lat="46.0885617" lon="13.5208317"><ele>547.0</ele><time>2026-05-03T12:31:29.198Z</time></trkpt><trkpt lat="46.0885617" lon="13.5206817"><ele>547.0</ele><time>2026-05-03T12:31:30.198Z</time></trkpt><trkpt lat="46.088565" lon="13.5205433"><ele>547.0</ele><time>2026-05-03T12:31:31.199Z</time></trkpt><trkpt lat="46.08858" lon="13.5204033"><ele>547.0</ele><time>2026-05-03T12:31:32.198Z</time></trkpt><trkpt lat="46.0885867" lon="13.52027"><ele>547.0</ele><time>2026-05-03T12:31:33.198Z</time></trkpt><trkpt lat="46.0885917" lon="13.5201467"><ele>547.0</ele><time>2026-05-03T12:31:34.198Z</time></trkpt><trkpt lat="46.0885983" lon="13.5200167"><ele>547.0</ele><time>2026-05-03T12:31:35.198Z</time></trkpt><trkpt lat="46.0886017" lon="13.51989"><ele>547.5</ele><time>2026-05-03T12:31:36.198Z</time></trkpt><trkpt lat="46.0886067" lon="13.5197667"><ele>548.0</ele><time>2026-05-03T12:31:37.198Z</time></trkpt><trkpt lat="46.0886133" lon="13.5196483"><ele>548.5</ele><time>2026-05-03T12:31:38.198Z</time></trkpt><trkpt lat="46.0886233" lon="13.5195517"><ele>549.0</ele><time>2026-05-03T12:31:39.198Z</time></trkpt><trkpt lat="46.0886733" lon="13.51942"><ele>549.5</ele><time>2026-05-03T12:31:41.198Z</time></trkpt><trkpt lat="46.0887683" lon="13.5193433"><ele>550.0</ele><time>2026-05-03T12:31:43.198Z</time></trkpt><trkpt lat="46.0888533" lon="13.5193267"><ele>547.6</ele><time>2026-05-03T12:31:44.198Z</time></trkpt><trkpt lat="46.0889583" lon="13.5192933"><ele>545.2</ele><time>2026-05-03T12:31:45.198Z</time></trkpt><trkpt lat="46.0890567" lon="13.5192433"><ele>542.8</ele><time>2026-05-03T12:31:46.199Z</time></trkpt><trkpt lat="46.0891517" lon="13.5191733"><ele>540.4</ele><time>2026-05-03T12:31:47.198Z</time></trkpt><trkpt lat="46.0892333" lon="13.5191"><ele>538.0</ele><time>2026-05-03T12:31:48.198Z</time></trkpt><trkpt lat="46.0893117" lon="13.5190467"><ele>538.0</ele><time>2026-05-03T12:31:49.198Z</time></trkpt><trkpt lat="46.089385" lon="13.5190233"><ele>538.0</ele><time>2026-05-03T12:31:50.198Z</time></trkpt><trkpt lat="46.0894783" lon="13.5190133"><ele>538.0</ele><time>2026-05-03T12:31:51.198Z</time></trkpt><trkpt lat="46.0895783" lon="13.5190117"><ele>538.0</ele><time>2026-05-03T12:31:52.198Z</time></trkpt><trkpt lat="46.0896717" lon="13.5190033"><ele>538.0</ele><time>2026-05-03T12:31:53.198Z</time></trkpt><trkpt lat="46.08976" lon="13.5189933"><ele>538.0</ele><time>2026-05-03T12:31:54.198Z</time></trkpt><trkpt lat="46.0898433" lon="13.518975"><ele>538.0</ele><time>2026-05-03T12:31:55.198Z</time></trkpt><trkpt lat="46.0899183" lon="13.5189533"><ele>538.0</ele><time>2026-05-03T12:31:56.198Z</time></trkpt><trkpt lat="46.090015" lon="13.5189733"><ele>538.0</ele><time>2026-05-03T12:31:58.198Z</time></trkpt><trkpt lat="46.0901083" lon="13.5191017"><ele>538.0</ele><time>2026-05-03T12:32:00.198Z</time></trkpt><trkpt lat="46.0901633" lon="13.5191667"><ele>537.4</ele><time>2026-05-03T12:32:01.198Z</time></trkpt><trkpt lat="46.09028" lon="13.5192167"><ele>536.8</ele><time>2026-05-03T12:32:03.198Z</time></trkpt><trkpt lat="46.0903467" lon="13.5192"><ele>536.2</ele><time>2026-05-03T12:32:04.198Z</time></trkpt><trkpt lat="46.0904283" lon="13.519095"><ele>535.6</ele><time>2026-05-03T12:32:05.198Z</time></trkpt><trkpt lat="46.0905117" lon="13.51897"><ele>535.0</ele><time>2026-05-03T12:32:06.198Z</time></trkpt><trkpt lat="46.0905917" lon="13.5188533"><ele>535.0</ele><time>2026-05-03T12:32:07.198Z</time></trkpt><trkpt lat="46.0906667" lon="13.518755"><ele>535.0</ele><time>2026-05-03T12:32:08.198Z</time></trkpt><trkpt lat="46.0907533" lon="13.5186717"><ele>535.0</ele><time>2026-05-03T12:32:09.198Z</time></trkpt><trkpt lat="46.0908467" lon="13.5185933"><ele>535.0</ele><time>2026-05-03T12:32:10.198Z</time></trkpt><trkpt lat="46.0909433" lon="13.5185217"><ele>535.0</ele><time>2026-05-03T12:32:11.198Z</time></trkpt><trkpt lat="46.09104" lon="13.518455"><ele>540.0</ele><time>2026-05-03T12:32:12.198Z</time></trkpt><trkpt lat="46.0911333" lon="13.5183783"><ele>545.0</ele><time>2026-05-03T12:32:13.198Z</time></trkpt><trkpt lat="46.0912267" lon="13.5182933"><ele>550.0</ele><time>2026-05-03T12:32:14.198Z</time></trkpt><trkpt lat="46.091315" lon="13.5182"><ele>555.0</ele><time>2026-05-03T12:32:15.198Z</time></trkpt><trkpt lat="46.0914033" lon="13.51811"><ele>560.0</ele><time>2026-05-03T12:32:16.198Z</time></trkpt><trkpt lat="46.09149" lon="13.5180233"><ele>560.0</ele><time>2026-05-03T12:32:17.198Z</time></trkpt><trkpt lat="46.0915767" lon="13.5179267"><ele>560.0</ele><time>2026-05-03T12:32:18.198Z</time></trkpt><trkpt lat="46.0916633" lon="13.5178317"><ele>560.0</ele><time>2026-05-03T12:32:19.198Z</time></trkpt><trkpt lat="46.0917517" lon="13.51773"><ele>560.0</ele><time>2026-05-03T12:32:20.198Z</time></trkpt><trkpt lat="46.0918483" lon="13.51764"><ele>560.0</ele><time>2026-05-03T12:32:21.198Z</time></trkpt><trkpt lat="46.0919583" lon="13.5175583"><ele>563.2</ele><time>2026-05-03T12:32:22.198Z</time></trkpt><trkpt lat="46.09206" lon="13.5174883"><ele>566.4</ele><time>2026-05-03T12:32:23.198Z</time></trkpt><trkpt lat="46.0921567" lon="13.5174133"><ele>569.6</ele><time>2026-05-03T12:32:24.198Z</time></trkpt><trkpt lat="46.092255" lon="13.5173217"><ele>572.8</ele><time>2026-05-03T12:32:25.198Z</time></trkpt><trkpt lat="46.0923383" lon="13.5172283"><ele>576.0</ele><time>2026-05-03T12:32:26.198Z</time></trkpt><trkpt lat="46.0924133" lon="13.5171067"><ele>575.5</ele><time>2026-05-03T12:32:27.198Z</time></trkpt><trkpt lat="46.09248" lon="13.5169967"><ele>575.0</ele><time>2026-05-03T12:32:28.198Z</time></trkpt><trkpt lat="46.0925717" lon="13.516935"><ele>574.5</ele><time>2026-05-03T12:32:30.198Z</time></trkpt><trkpt lat="46.0926" lon="13.5170617"><ele>574.0</ele><time>2026-05-03T12:32:33.198Z</time></trkpt><trkpt lat="46.0926033" lon="13.5171583"><ele>573.5</ele><time>2026-05-03T12:32:34.198Z</time></trkpt><trkpt lat="46.0926083" lon="13.51728"><ele>573.0</ele><time>2026-05-03T12:32:35.198Z</time></trkpt><trkpt lat="46.0926283" lon="13.51743"><ele>573.0</ele><time>2026-05-03T12:32:36.198Z</time></trkpt><trkpt lat="46.0926567" lon="13.51761"><ele>573.0</ele><time>2026-05-03T12:32:37.198Z</time></trkpt><trkpt lat="46.0926967" lon="13.517835"><ele>573.0</ele><time>2026-05-03T12:32:38.198Z</time></trkpt><trkpt lat="46.09273" lon="13.5180583"><ele>573.0</ele><time>2026-05-03T12:32:39.199Z</time></trkpt><trkpt lat="46.0927633" lon="13.518285"><ele>571.0</ele><time>2026-05-03T12:32:40.197Z</time></trkpt><trkpt lat="46.09279" lon="13.518515"><ele>569.0</ele><time>2026-05-03T12:32:41.197Z</time></trkpt><trkpt lat="46.0928183" lon="13.51874"><ele>567.0</ele><time>2026-05-03T12:32:42.197Z</time></trkpt><trkpt lat="46.0928517" lon="13.51895"><ele>565.25</ele><time>2026-05-03T12:32:43.197Z</time></trkpt><trkpt lat="46.0929067" lon="13.51914"><ele>563.5</ele><time>2026-05-03T12:32:44.197Z</time></trkpt><trkpt lat="46.092985" lon="13.5192833"><ele>561.75</ele><time>2026-05-03T12:32:45.197Z</time></trkpt><trkpt lat="46.0930817" lon="13.5193917"><ele>560.0</ele><time>2026-05-03T12:32:46.197Z</time></trkpt><trkpt lat="46.0931767" lon="13.519475"><ele>564.2</ele><time>2026-05-03T12:32:47.197Z</time></trkpt><trkpt lat="46.0932817" lon="13.5195533"><ele>568.4</ele><time>2026-05-03T12:32:48.198Z</time></trkpt><trkpt lat="46.0933767" lon="13.5196133"><ele>572.6</ele><time>2026-05-03T12:32:49.197Z</time></trkpt><trkpt lat="46.09346" lon="13.5196283"><ele>576.8</ele><time>2026-05-03T12:32:50.197Z</time></trkpt><trkpt lat="46.09353" lon="13.519605"><ele>581.0</ele><time>2026-05-03T12:32:51.197Z</time></trkpt><trkpt lat="46.0936317" lon="13.5195583"><ele>581.8333333333333</ele><time>2026-05-03T12:32:53.197Z</time></trkpt><trkpt lat="46.0937117" lon="13.51952"><ele>582.6666666666666</ele><time>2026-05-03T12:32:55.197Z</time></trkpt><trkpt lat="46.0937833" lon="13.519495"><ele>583.5</ele><time>2026-05-03T12:32:57.197Z</time></trkpt><trkpt lat="46.0938483" lon="13.5194533"><ele>584.3333333333334</ele><time>2026-05-03T12:32:59.197Z</time></trkpt><trkpt lat="46.0939417" lon="13.519455"><ele>585.1666666666667</ele><time>2026-05-03T12:33:01.197Z</time></trkpt><trkpt lat="46.0940633" lon="13.5194383"><ele>586.0</ele><time>2026-05-03T12:33:03.197Z</time></trkpt><trkpt lat="46.094145" lon="13.5194067"><ele>586.0</ele><time>2026-05-03T12:33:04.197Z</time></trkpt><trkpt lat="46.0942483" lon="13.5193683"><ele>586.0</ele><time>2026-05-03T12:33:05.197Z</time></trkpt><trkpt lat="46.0943433" lon="13.51931"><ele>586.0</ele><time>2026-05-03T12:33:06.197Z</time></trkpt><trkpt lat="46.0944283" lon="13.5192533"><ele>586.0</ele><time>2026-05-03T12:33:07.197Z</time></trkpt><trkpt lat="46.0945017" lon="13.5192133"><ele>586.0</ele><time>2026-05-03T12:33:08.198Z</time></trkpt><trkpt lat="46.094585" lon="13.5191783"><ele>586.0</ele><time>2026-05-03T12:33:09.197Z</time></trkpt><trkpt lat="46.0946533" lon="13.5191267"><ele>586.0</ele><time>2026-05-03T12:33:10.197Z</time></trkpt><trkpt lat="46.0947133" lon="13.5190683"><ele>586.0</ele><time>2026-05-03T12:33:11.197Z</time></trkpt><trkpt lat="46.0947733" lon="13.5190133"><ele>586.0</ele><time>2026-05-03T12:33:12.197Z</time></trkpt><trkpt lat="46.0948717" lon="13.5189133"><ele>586.0</ele><time>2026-05-03T12:33:14.197Z</time></trkpt><trkpt lat="46.0949167" lon="13.518845"><ele>586.0</ele><time>2026-05-03T12:33:15.197Z</time></trkpt><trkpt lat="46.0949717" lon="13.518775"><ele>584.5</ele><time>2026-05-03T12:33:16.197Z</time></trkpt><trkpt lat="46.095035" lon="13.518705"><ele>583.0</ele><time>2026-05-03T12:33:17.197Z</time></trkpt><trkpt lat="46.0951067" lon="13.5186717"><ele>581.5</ele><time>2026-05-03T12:33:18.197Z</time></trkpt><trkpt lat="46.0951833" lon="13.51868"><ele>580.0</ele><time>2026-05-03T12:33:19.197Z</time></trkpt><trkpt lat="46.09524" lon="13.5187367"><ele>578.5</ele><time>2026-05-03T12:33:21.197Z</time></trkpt><trkpt lat="46.095155" lon="13.5186783"><ele>577.0</ele><time>2026-05-03T12:33:27.197Z</time></trkpt><trkpt lat="46.0950917" lon="13.5187367"><ele>577.0</ele><time>2026-05-03T12:33:28.197Z</time></trkpt><trkpt lat="46.0950167" lon="13.5188133"><ele>577.0</ele><time>2026-05-03T12:33:29.197Z</time></trkpt><trkpt lat="46.0949383" lon="13.5189"><ele>577.0</ele><time>2026-05-03T12:33:30.197Z</time></trkpt><trkpt lat="46.094845" lon="13.51899"><ele>577.0</ele><time>2026-05-03T12:33:31.197Z</time></trkpt><trkpt lat="46.0947433" lon="13.5190617"><ele>577.0</ele><time>2026-05-03T12:33:32.197Z</time></trkpt><trkpt lat="46.0946233" lon="13.5191367"><ele>579.25</ele><time>2026-05-03T12:33:33.197Z</time></trkpt><trkpt lat="46.0945017" lon="13.51922"><ele>581.5</ele><time>2026-05-03T12:33:34.197Z</time></trkpt><trkpt lat="46.0943783" lon="13.519295"><ele>583.75</ele><time>2026-05-03T12:33:35.197Z</time></trkpt><trkpt lat="46.094255" lon="13.5193583"><ele>586.0</ele><time>2026-05-03T12:33:36.197Z</time></trkpt><trkpt lat="46.0941433" lon="13.519405"><ele>586.1666666666667</ele><time>2026-05-03T12:33:37.197Z</time></trkpt><trkpt lat="46.0940467" lon="13.51941"><ele>586.3333333333334</ele><time>2026-05-03T12:33:38.197Z</time></trkpt><trkpt lat="46.09396" lon="13.519395"><ele>586.5</ele><time>2026-05-03T12:33:39.197Z</time></trkpt><trkpt lat="46.0938917" lon="13.5193817"><ele>586.6666666666666</ele><time>2026-05-03T12:33:40.197Z</time></trkpt><trkpt lat="46.0937883" lon="13.51937"><ele>586.8333333333333</ele><time>2026-05-03T12:33:42.197Z</time></trkpt><trkpt lat="46.0937183" lon="13.51936"><ele>587.0</ele><time>2026-05-03T12:33:44.197Z</time></trkpt><trkpt lat="46.0936383" lon="13.51935"><ele>587.0</ele><time>2026-05-03T12:33:47.197Z</time></trkpt><trkpt lat="46.0935767" lon="13.51929"><ele>587.0</ele><time>2026-05-03T12:33:51.197Z</time></trkpt><trkpt lat="46.0935917" lon="13.51919"><ele>587.0</ele><time>2026-05-03T12:33:53.197Z</time></trkpt><trkpt lat="46.093655" lon="13.519155"><ele>587.0</ele><time>2026-05-03T12:33:56.197Z</time></trkpt><trkpt lat="46.093685" lon="13.518985"><ele>587.0</ele><time>2026-05-03T12:33:59.197Z</time></trkpt><trkpt lat="46.0936883" lon="13.5188633"><ele>587.0</ele><time>2026-05-03T12:34:00.197Z</time></trkpt><trkpt lat="46.09371" lon="13.5187267"><ele>589.75</ele><time>2026-05-03T12:34:01.197Z</time></trkpt><trkpt lat="46.0937383" lon="13.5185617"><ele>592.5</ele><time>2026-05-03T12:34:02.197Z</time></trkpt><trkpt lat="46.0937633" lon="13.5183833"><ele>595.25</ele><time>2026-05-03T12:34:03.197Z</time></trkpt><trkpt lat="46.0937717" lon="13.518185"><ele>598.0</ele><time>2026-05-03T12:34:04.197Z</time></trkpt><trkpt lat="46.0937683" lon="13.5179883"><ele>598.0</ele><time>2026-05-03T12:34:05.197Z</time></trkpt><trkpt lat="46.0937933" lon="13.5177783"><ele>598.0</ele><time>2026-05-03T12:34:06.197Z</time></trkpt><trkpt lat="46.093825" lon="13.5175467"><ele>598.0</ele><time>2026-05-03T12:34:07.197Z</time></trkpt><trkpt lat="46.0938633" lon="13.5173317"><ele>598.0</ele><time>2026-05-03T12:34:08.197Z</time></trkpt><trkpt lat="46.0939283" lon="13.51714"><ele>598.0</ele><time>2026-05-03T12:34:09.197Z</time></trkpt><trkpt lat="46.0939833" lon="13.5169633"><ele>598.0</ele><time>2026-05-03T12:34:10.197Z</time></trkpt><trkpt lat="46.0939967" lon="13.5168283"><ele>598.0</ele><time>2026-05-03T12:34:11.197Z</time></trkpt><trkpt lat="46.0939783" lon="13.5167183"><ele>593.6</ele><time>2026-05-03T12:34:12.197Z</time></trkpt><trkpt lat="46.0939333" lon="13.5166367"><ele>589.1999999999999</ele><time>2026-05-03T12:34:13.197Z</time></trkpt><trkpt lat="46.09383" lon="13.5166383"><ele>584.8</ele><time>2026-05-03T12:34:14.197Z</time></trkpt><trkpt lat="46.0937033" lon="13.5166683"><ele>580.4</ele><time>2026-05-03T12:34:15.197Z</time></trkpt><trkpt lat="46.0935883" lon="13.5166917"><ele>576.0</ele><time>2026-05-03T12:34:16.197Z</time></trkpt><trkpt lat="46.0934867" lon="13.5167"><ele>576.0</ele><time>2026-05-03T12:34:17.197Z</time></trkpt><trkpt lat="46.0933933" lon="13.5166833"><ele>576.0</ele><time>2026-05-03T12:34:19.197Z</time></trkpt><trkpt lat="46.093265" lon="13.5166067"><ele>576.0</ele><time>2026-05-03T12:35:22.197Z</time></trkpt><trkpt lat="46.0931283" lon="13.5166083"><ele>576.0</ele><time>2026-05-03T12:35:24.197Z</time></trkpt><trkpt lat="46.0930433" lon="13.5166017"><ele>576.8</ele><time>2026-05-03T12:35:25.197Z</time></trkpt><trkpt lat="46.0929517" lon="13.5165817"><ele>577.6</ele><time>2026-05-03T12:35:26.197Z</time></trkpt><trkpt lat="46.0928667" lon="13.5165167"><ele>578.4</ele><time>2026-05-03T12:35:27.197Z</time></trkpt><trkpt lat="46.092795" lon="13.5164033"><ele>579.2</ele><time>2026-05-03T12:35:28.197Z</time></trkpt><trkpt lat="46.0927467" lon="13.5162517"><ele>580.0</ele><time>2026-05-03T12:35:29.197Z</time></trkpt><trkpt lat="46.0927167" lon="13.5160617"><ele>580.6666666666667</ele><time>2026-05-03T12:35:30.197Z</time></trkpt><trkpt lat="46.0926917" lon="13.5158583"><ele>581.3333333333334</ele><time>2026-05-03T12:35:31.197Z</time></trkpt><trkpt lat="46.0926833" lon="13.51562"><ele>582.0</ele><time>2026-05-03T12:35:32.197Z</time></trkpt><trkpt lat="46.0926783" lon="13.5153767"><ele>582.0</ele><time>2026-05-03T12:35:33.197Z</time></trkpt><trkpt lat="46.0926683" lon="13.51516"><ele>582.0</ele><time>2026-05-03T12:35:34.197Z</time></trkpt><trkpt lat="46.0926567" lon="13.5149433"><ele>582.0</ele><time>2026-05-03T12:35:35.197Z</time></trkpt><trkpt lat="46.092645" lon="13.51474"><ele>582.0</ele><time>2026-05-03T12:35:36.197Z</time></trkpt><trkpt lat="46.0926367" lon="13.51456"><ele>582.25</ele><time>2026-05-03T12:35:37.197Z</time></trkpt><trkpt lat="46.0926383" lon="13.514385"><ele>582.5</ele><time>2026-05-03T12:35:38.197Z</time></trkpt><trkpt lat="46.0926617" lon="13.514195"><ele>582.75</ele><time>2026-05-03T12:35:39.197Z</time></trkpt><trkpt lat="46.092685" lon="13.5139983"><ele>583.0</ele><time>2026-05-03T12:35:40.197Z</time></trkpt><trkpt lat="46.0927083" lon="13.5138067"><ele>581.0</ele><time>2026-05-03T12:35:41.197Z</time></trkpt><trkpt lat="46.092715" lon="13.51362"><ele>579.0</ele><time>2026-05-03T12:35:42.197Z</time></trkpt><trkpt lat="46.09272" lon="13.51345"><ele>577.0</ele><time>2026-05-03T12:35:43.197Z</time></trkpt><trkpt lat="46.09272" lon="13.5132717"><ele>575.0</ele><time>2026-05-03T12:35:44.197Z</time></trkpt><trkpt lat="46.0927117" lon="13.513085"><ele>573.5</ele><time>2026-05-03T12:35:45.197Z</time></trkpt><trkpt lat="46.092695" lon="13.5128883"><ele>572.0</ele><time>2026-05-03T12:35:46.197Z</time></trkpt><trkpt lat="46.09268" lon="13.5126983"><ele>570.5</ele><time>2026-05-03T12:35:47.197Z</time></trkpt><trkpt lat="46.0926833" lon="13.512495"><ele>569.0</ele><time>2026-05-03T12:35:48.197Z</time></trkpt><trkpt lat="46.0927167" lon="13.5122883"><ele>569.0</ele><time>2026-05-03T12:35:49.197Z</time></trkpt><trkpt lat="46.0927717" lon="13.5120783"><ele>569.0</ele><time>2026-05-03T12:35:50.197Z</time></trkpt><trkpt lat="46.0928517" lon="13.51187"><ele>569.0</ele><time>2026-05-03T12:35:51.197Z</time></trkpt><trkpt lat="46.0929533" lon="13.511645"><ele>567.3333333333333</ele><time>2026-05-03T12:35:52.197Z</time></trkpt><trkpt lat="46.0930533" lon="13.5114267"><ele>565.6666666666666</ele><time>2026-05-03T12:35:53.197Z</time></trkpt><trkpt lat="46.0931467" lon="13.511205"><ele>564.0</ele><time>2026-05-03T12:35:54.197Z</time></trkpt><trkpt lat="46.0932483" lon="13.510985"><ele>562.0</ele><time>2026-05-03T12:35:55.197Z</time></trkpt><trkpt lat="46.093355" lon="13.510775"><ele>560.0</ele><time>2026-05-03T12:35:56.197Z</time></trkpt><trkpt lat="46.09342" lon="13.5105467"><ele>558.0</ele><time>2026-05-03T12:35:57.197Z</time></trkpt><trkpt lat="46.0934667" lon="13.5103067"><ele>556.0</ele><time>2026-05-03T12:35:58.197Z</time></trkpt><trkpt lat="46.0934983" lon="13.5100867"><ele>554.0</ele><time>2026-05-03T12:35:59.198Z</time></trkpt><trkpt lat="46.09353" lon="13.50985"><ele>552.0</ele><time>2026-05-03T12:36:00.197Z</time></trkpt><trkpt lat="46.09355" lon="13.5096083"><ele>549.0</ele><time>2026-05-03T12:36:01.197Z</time></trkpt><trkpt lat="46.093565" lon="13.50934"><ele>546.0</ele><time>2026-05-03T12:36:02.197Z</time></trkpt><trkpt lat="46.0935617" lon="13.5090533"><ele>543.0</ele><time>2026-05-03T12:36:03.197Z</time></trkpt><trkpt lat="46.0935467" lon="13.5087867"><ele>539.3333333333334</ele><time>2026-05-03T12:36:04.197Z</time></trkpt><trkpt lat="46.093535" lon="13.5085167"><ele>535.6666666666667</ele><time>2026-05-03T12:36:05.197Z</time></trkpt><trkpt lat="46.0935367" lon="13.508255"><ele>532.0</ele><time>2026-05-03T12:36:06.197Z</time></trkpt><trkpt lat="46.0935367" lon="13.5080017"><ele>529.0</ele><time>2026-05-03T12:36:07.197Z</time></trkpt><trkpt lat="46.09353" lon="13.5077433"><ele>526.0</ele><time>2026-05-03T12:36:08.197Z</time></trkpt><trkpt lat="46.09353" lon="13.5074983"><ele>523.0</ele><time>2026-05-03T12:36:09.197Z</time></trkpt><trkpt lat="46.093545" lon="13.50725"><ele>521.75</ele><time>2026-05-03T12:36:10.198Z</time></trkpt><trkpt lat="46.0935633" lon="13.5070183"><ele>520.5</ele><time>2026-05-03T12:36:11.197Z</time></trkpt><trkpt lat="46.0935833" lon="13.5068433"><ele>519.25</ele><time>2026-05-03T12:36:12.197Z</time></trkpt><trkpt lat="46.0935767" lon="13.50667"><ele>518.0</ele><time>2026-05-03T12:36:13.197Z</time></trkpt><trkpt lat="46.09354" lon="13.50649"><ele>518.0</ele><time>2026-05-03T12:36:14.197Z</time></trkpt><trkpt lat="46.0934783" lon="13.5063233"><ele>518.0</ele><time>2026-05-03T12:36:15.197Z</time></trkpt><trkpt lat="46.0934017" lon="13.5061617"><ele>518.0</ele><time>2026-05-03T12:36:16.197Z</time></trkpt><trkpt lat="46.093335" lon="13.5060417"><ele>518.0</ele><time>2026-05-03T12:36:17.197Z</time></trkpt><trkpt lat="46.0932783" lon="13.5059683"><ele>514.0</ele><time>2026-05-03T12:36:18.197Z</time></trkpt><trkpt lat="46.0931633" lon="13.5059983"><ele>510.0</ele><time>2026-05-03T12:36:20.197Z</time></trkpt><trkpt lat="46.0931283" lon="13.506085"><ele>506.0</ele><time>2026-05-03T12:36:21.197Z</time></trkpt><trkpt lat="46.0931167" lon="13.5061917"><ele>502.0</ele><time>2026-05-03T12:36:22.197Z</time></trkpt><trkpt lat="46.0931" lon="13.5062867"><ele>497.99999999999994</ele><time>2026-05-03T12:36:23.197Z</time></trkpt><trkpt lat="46.0930417" lon="13.5063283"><ele>494.0</ele><time>2026-05-03T12:36:25.197Z</time></trkpt><trkpt lat="46.092995" lon="13.50621"><ele>494.0</ele><time>2026-05-03T12:36:27.197Z</time></trkpt><trkpt lat="46.0929833" lon="13.5061033"><ele>494.0</ele><time>2026-05-03T12:36:28.197Z</time></trkpt><trkpt lat="46.0929833" lon="13.5058317"><ele>494.0</ele><time>2026-05-03T12:36:29.197Z</time></trkpt><trkpt lat="46.09302" lon="13.5055817"><ele>494.0</ele><time>2026-05-03T12:36:30.197Z</time></trkpt><trkpt lat="46.0930883" lon="13.5053733"><ele>493.6</ele><time>2026-05-03T12:36:31.197Z</time></trkpt><trkpt lat="46.09317" lon="13.5052383"><ele>493.2</ele><time>2026-05-03T12:36:32.197Z</time></trkpt><trkpt lat="46.0932167" lon="13.5051533"><ele>492.80000000000007</ele><time>2026-05-03T12:36:33.197Z</time></trkpt><trkpt lat="46.0931717" lon="13.5050217"><ele>492.40000000000003</ele><time>2026-05-03T12:36:35.197Z</time></trkpt><trkpt lat="46.0931017" lon="13.50501"><ele>492.0</ele><time>2026-05-03T12:36:36.197Z</time></trkpt><trkpt lat="46.0929933" lon="13.50504"><ele>492.0</ele><time>2026-05-03T12:36:37.197Z</time></trkpt><trkpt lat="46.0928417" lon="13.5050683"><ele>492.0</ele><time>2026-05-03T12:36:38.197Z</time></trkpt><trkpt lat="46.092665" lon="13.505065"><ele>492.0</ele><time>2026-05-03T12:36:39.197Z</time></trkpt><trkpt lat="46.092515" lon="13.5050217"><ele>487.0</ele><time>2026-05-03T12:36:40.197Z</time></trkpt><trkpt lat="46.0923733" lon="13.5049583"><ele>482.0</ele><time>2026-05-03T12:36:41.197Z</time></trkpt><trkpt lat="46.09226" lon="13.5048883"><ele>477.0</ele><time>2026-05-03T12:36:42.197Z</time></trkpt><trkpt lat="46.0921617" lon="13.5048033"><ele>472.0</ele><time>2026-05-03T12:36:43.197Z</time></trkpt><trkpt lat="46.09208" lon="13.50466"><ele>472.75</ele><time>2026-05-03T12:36:44.197Z</time></trkpt><trkpt lat="46.09199" lon="13.504485"><ele>473.5</ele><time>2026-05-03T12:36:45.197Z</time></trkpt><trkpt lat="46.0919017" lon="13.5043167"><ele>474.25</ele><time>2026-05-03T12:36:46.197Z</time></trkpt><trkpt lat="46.0918183" lon="13.5041717"><ele>475.0</ele><time>2026-05-03T12:36:47.197Z</time></trkpt><trkpt lat="46.0917517" lon="13.5040433"><ele>475.0</ele><time>2026-05-03T12:36:48.197Z</time></trkpt><trkpt lat="46.09169" lon="13.5039317"><ele>475.0</ele><time>2026-05-03T12:36:49.197Z</time></trkpt><trkpt lat="46.0916333" lon="13.5038567"><ele>475.0</ele><time>2026-05-03T12:36:50.197Z</time></trkpt><trkpt lat="46.091585" lon="13.5037917"><ele>475.0</ele><time>2026-05-03T12:36:51.197Z</time></trkpt><trkpt lat="46.0915233" lon="13.5036967"><ele>475.0</ele><time>2026-05-03T12:36:53.197Z</time></trkpt><trkpt lat="46.0915983" lon="13.5038333"><ele>475.0</ele><time>2026-05-03T12:37:01.197Z</time></trkpt><trkpt lat="46.091655" lon="13.5039233"><ele>475.0</ele><time>2026-05-03T12:37:02.197Z</time></trkpt><trkpt lat="46.0917233" lon="13.50404"><ele>475.0</ele><time>2026-05-03T12:37:03.197Z</time></trkpt><trkpt lat="46.0917917" lon="13.5041517"><ele>475.0</ele><time>2026-05-03T12:37:04.197Z</time></trkpt><trkpt lat="46.0918517" lon="13.5042583"><ele>475.0</ele><time>2026-05-03T12:37:05.197Z</time></trkpt><trkpt lat="46.09191" lon="13.5043767"><ele>475.0</ele><time>2026-05-03T12:37:06.197Z</time></trkpt><trkpt lat="46.091975" lon="13.5044933"><ele>475.0</ele><time>2026-05-03T12:37:07.197Z</time></trkpt><trkpt lat="46.0920383" lon="13.5046067"><ele>475.0</ele><time>2026-05-03T12:37:08.197Z</time></trkpt><trkpt lat="46.0921" lon="13.5047217"><ele>475.0</ele><time>2026-05-03T12:37:09.197Z</time></trkpt><trkpt lat="46.0921767" lon="13.504825"><ele>475.0</ele><time>2026-05-03T12:37:10.197Z</time></trkpt><trkpt lat="46.092255" lon="13.5048967"><ele>474.50000000000006</ele><time>2026-05-03T12:37:11.197Z</time></trkpt><trkpt lat="46.0923317" lon="13.5049417"><ele>474.0</ele><time>2026-05-03T12:37:12.197Z</time></trkpt><trkpt lat="46.09241" lon="13.50497"><ele>473.5</ele><time>2026-05-03T12:37:13.197Z</time></trkpt><trkpt lat="46.0924833" lon="13.5049833"><ele>473.0</ele><time>2026-05-03T12:37:14.197Z</time></trkpt><trkpt lat="46.0925733" lon="13.5049317"><ele>472.50000000000006</ele><time>2026-05-03T12:37:16.197Z</time></trkpt><trkpt lat="46.0926567" lon="13.504845"><ele>472.0</ele><time>2026-05-03T12:37:18.197Z</time></trkpt><trkpt lat="46.0927317" lon="13.504825"><ele>475.33333333333337</ele><time>2026-05-03T12:37:19.197Z</time></trkpt><trkpt lat="46.0928167" lon="13.5048133"><ele>478.6666666666667</ele><time>2026-05-03T12:37:20.197Z</time></trkpt><trkpt lat="46.0929017" lon="13.5048067"><ele>482.0</ele><time>2026-05-03T12:37:21.197Z</time></trkpt><trkpt lat="46.092985" lon="13.504805"><ele>485.33333333333337</ele><time>2026-05-03T12:37:22.197Z</time></trkpt><trkpt lat="46.09307" lon="13.5048033"><ele>488.6666666666667</ele><time>2026-05-03T12:37:23.197Z</time></trkpt><trkpt lat="46.0931583" lon="13.5048"><ele>492.0</ele><time>2026-05-03T12:37:24.197Z</time></trkpt><trkpt lat="46.0932383" lon="13.5048217"><ele>493.0</ele><time>2026-05-03T12:37:25.197Z</time></trkpt><trkpt lat="46.0933167" lon="13.5048617"><ele>494.00000000000006</ele><time>2026-05-03T12:37:26.197Z</time></trkpt><trkpt lat="46.093405" lon="13.504925"><ele>495.00000000000006</ele><time>2026-05-03T12:37:27.197Z</time></trkpt><trkpt lat="46.0934967" lon="13.5050083"><ele>496.0</ele><time>2026-05-03T12:37:28.197Z</time></trkpt><trkpt lat="46.0935983" lon="13.5050933"><ele>497.0</ele><time>2026-05-03T12:37:29.198Z</time></trkpt><trkpt lat="46.0936983" lon="13.5051767"><ele>497.0</ele><time>2026-05-03T12:37:30.197Z</time></trkpt><trkpt lat="46.0937933" lon="13.5052583"><ele>497.00000000000006</ele><time>2026-05-03T12:37:31.197Z</time></trkpt><trkpt lat="46.093885" lon="13.5053467"><ele>497.00000000000006</ele><time>2026-05-03T12:37:32.197Z</time></trkpt><trkpt lat="46.0939833" lon="13.5054267"><ele>497.0</ele><time>2026-05-03T12:37:33.197Z</time></trkpt><trkpt lat="46.0940883" lon="13.5054967"><ele>497.0</ele><time>2026-05-03T12:37:34.197Z</time></trkpt><trkpt lat="46.094185" lon="13.50555"><ele>497.0</ele><time>2026-05-03T12:37:35.197Z</time></trkpt><trkpt lat="46.0942767" lon="13.5055883"><ele>497.00000000000006</ele><time>2026-05-03T12:37:36.197Z</time></trkpt><trkpt lat="46.094365" lon="13.505615"><ele>497.00000000000006</ele><time>2026-05-03T12:37:37.197Z</time></trkpt><trkpt lat="46.094455" lon="13.50562"><ele>497.0</ele><time>2026-05-03T12:37:38.197Z</time></trkpt><trkpt lat="46.0945433" lon="13.5056083"><ele>497.0</ele><time>2026-05-03T12:37:39.197Z</time></trkpt><trkpt lat="46.094635" lon="13.5055733"><ele>496.99999999999994</ele><time>2026-05-03T12:37:40.197Z</time></trkpt><trkpt lat="46.0947083" lon="13.5055067"><ele>497.0</ele><time>2026-05-03T12:37:41.197Z</time></trkpt><trkpt lat="46.09478" lon="13.5054333"><ele>497.0</ele><time>2026-05-03T12:37:42.197Z</time></trkpt><trkpt lat="46.0948433" lon="13.505365"><ele>497.0</ele><time>2026-05-03T12:37:43.197Z</time></trkpt><trkpt lat="46.0949067" lon="13.50531"><ele>496.99999999999994</ele><time>2026-05-03T12:37:44.197Z</time></trkpt><trkpt lat="46.09497" lon="13.5052683"><ele>497.0</ele><time>2026-05-03T12:37:45.197Z</time></trkpt><trkpt lat="46.09504" lon="13.50526"><ele>492.16666666666663</ele><time>2026-05-03T12:37:46.197Z</time></trkpt><trkpt lat="46.0951183" lon="13.5052733"><ele>487.3333333333333</ele><time>2026-05-03T12:37:47.197Z</time></trkpt><trkpt lat="46.0952083" lon="13.5052917"><ele>482.5</ele><time>2026-05-03T12:37:48.197Z</time></trkpt><trkpt lat="46.0953" lon="13.505295"><ele>477.66666666666663</ele><time>2026-05-03T12:37:49.197Z</time></trkpt><trkpt lat="46.09538" lon="13.5052767"><ele>472.8333333333333</ele><time>2026-05-03T12:37:50.197Z</time></trkpt><trkpt lat="46.0954567" lon="13.5052317"><ele>468.0</ele><time>2026-05-03T12:37:51.197Z</time></trkpt><trkpt lat="46.095525" lon="13.5051433"><ele>468.0</ele><time>2026-05-03T12:37:52.197Z</time></trkpt><trkpt lat="46.095605" lon="13.50504"><ele>468.0</ele><time>2026-05-03T12:37:53.197Z</time></trkpt><trkpt lat="46.09568" lon="13.5049233"><ele>468.0</ele><time>2026-05-03T12:37:54.197Z</time></trkpt><trkpt lat="46.095765" lon="13.504795"><ele>468.0</ele><time>2026-05-03T12:37:55.197Z</time></trkpt><trkpt lat="46.0958417" lon="13.5046767"><ele>465.2</ele><time>2026-05-03T12:37:56.197Z</time></trkpt><trkpt lat="46.0959167" lon="13.504565"><ele>462.4</ele><time>2026-05-03T12:37:57.197Z</time></trkpt><trkpt lat="46.096" lon="13.5044483"><ele>459.59999999999997</ele><time>2026-05-03T12:37:58.197Z</time></trkpt><trkpt lat="46.09609" lon="13.5043417"><ele>456.79999999999995</ele><time>2026-05-03T12:37:59.197Z</time></trkpt><trkpt lat="46.0961733" lon="13.504255"><ele>454.0</ele><time>2026-05-03T12:38:00.197Z</time></trkpt><trkpt lat="46.0962567" lon="13.5041783"><ele>454.0</ele><time>2026-05-03T12:38:01.197Z</time></trkpt><trkpt lat="46.0963583" lon="13.5040917"><ele>454.0</ele><time>2026-05-03T12:38:02.197Z</time></trkpt><trkpt lat="46.0964633" lon="13.5039967"><ele>454.0</ele><time>2026-05-03T12:38:03.197Z</time></trkpt><trkpt lat="46.09656" lon="13.50391"><ele>454.0</ele><time>2026-05-03T12:38:04.197Z</time></trkpt><trkpt lat="46.09665" lon="13.5038133"><ele>452.5</ele><time>2026-05-03T12:38:05.197Z</time></trkpt><trkpt lat="46.0967367" lon="13.5037083"><ele>451.0</ele><time>2026-05-03T12:38:06.197Z</time></trkpt><trkpt lat="46.0968267" lon="13.5036117"><ele>449.5</ele><time>2026-05-03T12:38:07.197Z</time></trkpt><trkpt lat="46.0969267" lon="13.5035333"><ele>448.0</ele><time>2026-05-03T12:38:08.197Z</time></trkpt><trkpt lat="46.097035" lon="13.5034533"><ele>448.0</ele><time>2026-05-03T12:38:09.197Z</time></trkpt><trkpt lat="46.0971533" lon="13.50339"><ele>448.0</ele><time>2026-05-03T12:38:10.196Z</time></trkpt><trkpt lat="46.0972717" lon="13.50332"><ele>448.0</ele><time>2026-05-03T12:38:11.196Z</time></trkpt><trkpt lat="46.0974" lon="13.50327"><ele>448.0</ele><time>2026-05-03T12:38:12.196Z</time></trkpt><trkpt lat="46.0975233" lon="13.503215"><ele>445.5</ele><time>2026-05-03T12:38:13.196Z</time></trkpt><trkpt lat="46.0976483" lon="13.5031617"><ele>443.0</ele><time>2026-05-03T12:38:14.197Z</time></trkpt><trkpt lat="46.0977683" lon="13.5031017"><ele>440.5</ele><time>2026-05-03T12:38:15.196Z</time></trkpt><trkpt lat="46.0978933" lon="13.5030433"><ele>438.0</ele><time>2026-05-03T12:38:16.196Z</time></trkpt><trkpt lat="46.098005" lon="13.50298"><ele>437.2</ele><time>2026-05-03T12:38:17.196Z</time></trkpt><trkpt lat="46.0981067" lon="13.5029133"><ele>436.4</ele><time>2026-05-03T12:38:18.196Z</time></trkpt><trkpt lat="46.0981967" lon="13.5028483"><ele>435.59999999999997</ele><time>2026-05-03T12:38:19.196Z</time></trkpt><trkpt lat="46.098285" lon="13.502775"><ele>434.79999999999995</ele><time>2026-05-03T12:38:20.196Z</time></trkpt><trkpt lat="46.09838" lon="13.5026717"><ele>434.0</ele><time>2026-05-03T12:38:21.196Z</time></trkpt><trkpt lat="46.09847" lon="13.50255"><ele>434.0</ele><time>2026-05-03T12:38:22.196Z</time></trkpt><trkpt lat="46.0985633" lon="13.502415"><ele>434.0</ele><time>2026-05-03T12:38:23.196Z</time></trkpt><trkpt lat="46.0986567" lon="13.502255"><ele>434.0</ele><time>2026-05-03T12:38:24.196Z</time></trkpt><trkpt lat="46.0987483" lon="13.5021083"><ele>434.0</ele><time>2026-05-03T12:38:25.196Z</time></trkpt><trkpt lat="46.0988383" lon="13.5019567"><ele>432.6</ele><time>2026-05-03T12:38:26.196Z</time></trkpt><trkpt lat="46.09892" lon="13.5018283"><ele>431.2</ele><time>2026-05-03T12:38:27.196Z</time></trkpt><trkpt lat="46.0989967" lon="13.501715"><ele>429.80000000000007</ele><time>2026-05-03T12:38:28.196Z</time></trkpt><trkpt lat="46.09908" lon="13.5016133"><ele>428.40000000000003</ele><time>2026-05-03T12:38:29.196Z</time></trkpt><trkpt lat="46.0991567" lon="13.50151"><ele>427.0</ele><time>2026-05-03T12:38:30.196Z</time></trkpt><trkpt lat="46.0992283" lon="13.5013883"><ele>426.75</ele><time>2026-05-03T12:38:31.196Z</time></trkpt><trkpt lat="46.0993033" lon="13.501255"><ele>426.5</ele><time>2026-05-03T12:38:32.196Z</time></trkpt><trkpt lat="46.09936" lon="13.50109"><ele>426.25</ele><time>2026-05-03T12:38:33.196Z</time></trkpt><trkpt lat="46.0994033" lon="13.5008933"><ele>426.0</ele><time>2026-05-03T12:38:34.196Z</time></trkpt><trkpt lat="46.09944" lon="13.5006633"><ele>424.0</ele><time>2026-05-03T12:38:35.196Z</time></trkpt><trkpt lat="46.0994733" lon="13.5004417"><ele>422.0</ele><time>2026-05-03T12:38:36.196Z</time></trkpt><trkpt lat="46.0995017" lon="13.50023"><ele>420.0</ele><time>2026-05-03T12:38:37.196Z</time></trkpt><trkpt lat="46.0995217" lon="13.5000167"><ele>418.25</ele><time>2026-05-03T12:38:38.196Z</time></trkpt><trkpt lat="46.0995333" lon="13.4998283"><ele>416.5</ele><time>2026-05-03T12:38:39.196Z</time></trkpt><trkpt lat="46.0995483" lon="13.4996433"><ele>414.75</ele><time>2026-05-03T12:38:40.196Z</time></trkpt><trkpt lat="46.0995683" lon="13.4994683"><ele>413.0</ele><time>2026-05-03T12:38:41.196Z</time></trkpt><trkpt lat="46.0996183" lon="13.4993217"><ele>411.25</ele><time>2026-05-03T12:38:42.196Z</time></trkpt><trkpt lat="46.09967" lon="13.4991617"><ele>409.5</ele><time>2026-05-03T12:38:43.196Z</time></trkpt><trkpt lat="46.099745" lon="13.499005"><ele>407.75</ele><time>2026-05-03T12:38:44.196Z</time></trkpt><trkpt lat="46.0998183" lon="13.49883"><ele>406.0</ele><time>2026-05-03T12:38:45.196Z</time></trkpt><trkpt lat="46.099885" lon="13.49864"><ele>408.5</ele><time>2026-05-03T12:38:46.196Z</time></trkpt><trkpt lat="46.0999483" lon="13.49845"><ele>411.0</ele><time>2026-05-03T12:38:47.196Z</time></trkpt><trkpt lat="46.1000133" lon="13.4982567"><ele>413.5</ele><time>2026-05-03T12:38:48.196Z</time></trkpt><trkpt lat="46.10007" lon="13.4980683"><ele>416.0</ele><time>2026-05-03T12:38:49.196Z</time></trkpt><trkpt lat="46.1001217" lon="13.4978883"><ele>416.0</ele><time>2026-05-03T12:38:50.196Z</time></trkpt><trkpt lat="46.10017" lon="13.4977183"><ele>416.0</ele><time>2026-05-03T12:38:51.196Z</time></trkpt><trkpt lat="46.1002133" lon="13.4975483"><ele>416.0</ele><time>2026-05-03T12:38:52.196Z</time></trkpt><trkpt lat="46.10026" lon="13.4973717"><ele>416.0</ele><time>2026-05-03T12:38:53.196Z</time></trkpt><trkpt lat="46.1002967" lon="13.49719"><ele>414.0</ele><time>2026-05-03T12:38:54.197Z</time></trkpt><trkpt lat="46.1003317" lon="13.4970117"><ele>412.0</ele><time>2026-05-03T12:38:55.196Z</time></trkpt><trkpt lat="46.1003683" lon="13.4968617"><ele>410.0</ele><time>2026-05-03T12:38:56.196Z</time></trkpt><trkpt lat="46.1003967" lon="13.496695"><ele>408.0</ele><time>2026-05-03T12:38:57.196Z</time></trkpt><trkpt lat="46.1004267" lon="13.4965167"><ele>408.0</ele><time>2026-05-03T12:38:58.196Z</time></trkpt><trkpt lat="46.1004567" lon="13.4963417"><ele>408.0</ele><time>2026-05-03T12:38:59.196Z</time></trkpt><trkpt lat="46.1004933" lon="13.496165"><ele>408.0</ele><time>2026-05-03T12:39:00.196Z</time></trkpt><trkpt lat="46.10054" lon="13.4959883"><ele>408.0</ele><time>2026-05-03T12:39:01.196Z</time></trkpt><trkpt lat="46.1005933" lon="13.4958217"><ele>409.75</ele><time>2026-05-03T12:39:02.196Z</time></trkpt><trkpt lat="46.1006633" lon="13.495665"><ele>411.5</ele><time>2026-05-03T12:39:03.196Z</time></trkpt><trkpt lat="46.100735" lon="13.4955017"><ele>413.25</ele><time>2026-05-03T12:39:04.196Z</time></trkpt><trkpt lat="46.1008067" lon="13.4953133"><ele>415.0</ele><time>2026-05-03T12:39:05.196Z</time></trkpt><trkpt lat="46.1008983" lon="13.4951333"><ele>415.0</ele><time>2026-05-03T12:39:06.196Z</time></trkpt><trkpt lat="46.10101" lon="13.4949433"><ele>415.0</ele><time>2026-05-03T12:39:07.196Z</time></trkpt><trkpt lat="46.1010967" lon="13.4947467"><ele>415.0</ele><time>2026-05-03T12:39:08.196Z</time></trkpt><trkpt lat="46.101185" lon="13.4945683"><ele>411.75</ele><time>2026-05-03T12:39:09.196Z</time></trkpt><trkpt lat="46.101275" lon="13.4943967"><ele>408.5</ele><time>2026-05-03T12:39:10.196Z</time></trkpt><trkpt lat="46.1013483" lon="13.4942383"><ele>405.25</ele><time>2026-05-03T12:39:11.196Z</time></trkpt><trkpt lat="46.1014183" lon="13.4940717"><ele>402.0</ele><time>2026-05-03T12:39:12.196Z</time></trkpt><trkpt lat="46.1014917" lon="13.49391"><ele>402.0</ele><time>2026-05-03T12:39:13.196Z</time></trkpt><trkpt lat="46.10156" lon="13.493765"><ele>402.0</ele><time>2026-05-03T12:39:14.196Z</time></trkpt><trkpt lat="46.1016367" lon="13.4936383"><ele>402.0</ele><time>2026-05-03T12:39:15.196Z</time></trkpt><trkpt lat="46.1017133" lon="13.49353"><ele>402.0</ele><time>2026-05-03T12:39:16.196Z</time></trkpt><trkpt lat="46.101795" lon="13.493445"><ele>402.0</ele><time>2026-05-03T12:39:17.196Z</time></trkpt><trkpt lat="46.1018733" lon="13.49335"><ele>402.0</ele><time>2026-05-03T12:39:18.196Z</time></trkpt><trkpt lat="46.1019533" lon="13.4932317"><ele>402.0</ele><time>2026-05-03T12:39:19.196Z</time></trkpt><trkpt lat="46.1020267" lon="13.4930767"><ele>402.0</ele><time>2026-05-03T12:39:20.196Z</time></trkpt><trkpt lat="46.1020917" lon="13.4929083"><ele>402.0</ele><time>2026-05-03T12:39:21.196Z</time></trkpt><trkpt lat="46.102165" lon="13.492725"><ele>402.5</ele><time>2026-05-03T12:39:22.196Z</time></trkpt><trkpt lat="46.1022383" lon="13.4925533"><ele>403.0</ele><time>2026-05-03T12:39:23.196Z</time></trkpt><trkpt lat="46.1023017" lon="13.4923833"><ele>403.5</ele><time>2026-05-03T12:39:24.196Z</time></trkpt><trkpt lat="46.102365" lon="13.4922183"><ele>404.0</ele><time>2026-05-03T12:39:25.196Z</time></trkpt><trkpt lat="46.1024333" lon="13.4920617"><ele>404.0</ele><time>2026-05-03T12:39:26.196Z</time></trkpt><trkpt lat="46.1024967" lon="13.491895"><ele>404.0</ele><time>2026-05-03T12:39:27.196Z</time></trkpt><trkpt lat="46.1025533" lon="13.4917617"><ele>404.0</ele><time>2026-05-03T12:39:28.196Z</time></trkpt><trkpt lat="46.1026067" lon="13.4916183"><ele>404.0</ele><time>2026-05-03T12:39:29.196Z</time></trkpt><trkpt lat="46.102655" lon="13.4914683"><ele>403.99999999999994</ele><time>2026-05-03T12:39:30.196Z</time></trkpt><trkpt lat="46.102695" lon="13.491325"><ele>404.0</ele><time>2026-05-03T12:39:31.196Z</time></trkpt><trkpt lat="46.1027267" lon="13.491205"><ele>404.0</ele><time>2026-05-03T12:39:32.196Z</time></trkpt><trkpt lat="46.102775" lon="13.491105"><ele>404.0</ele><time>2026-05-03T12:39:33.196Z</time></trkpt><trkpt lat="46.1028333" lon="13.49103"><ele>403.99999999999994</ele><time>2026-05-03T12:39:34.196Z</time></trkpt><trkpt lat="46.1029067" lon="13.4909967"><ele>404.0</ele><time>2026-05-03T12:39:35.196Z</time></trkpt><trkpt lat="46.1029733" lon="13.490985"><ele>402.2</ele><time>2026-05-03T12:39:36.196Z</time></trkpt><trkpt lat="46.1030383" lon="13.49098"><ele>400.4</ele><time>2026-05-03T12:39:37.196Z</time></trkpt><trkpt lat="46.1030833" lon="13.49086"><ele>398.6</ele><time>2026-05-03T12:39:39.196Z</time></trkpt><trkpt lat="46.10301" lon="13.490695"><ele>396.8</ele><time>2026-05-03T12:39:41.196Z</time></trkpt><trkpt lat="46.102945" lon="13.4905767"><ele>395.0</ele><time>2026-05-03T12:39:42.196Z</time></trkpt><trkpt lat="46.1028683" lon="13.490455"><ele>391.8</ele><time>2026-05-03T12:39:43.196Z</time></trkpt><trkpt lat="46.1027983" lon="13.4903383"><ele>388.6</ele><time>2026-05-03T12:39:44.196Z</time></trkpt><trkpt lat="46.102745" lon="13.4902467"><ele>385.4</ele><time>2026-05-03T12:39:45.196Z</time></trkpt><trkpt lat="46.102765" lon="13.49013"><ele>382.2</ele><time>2026-05-03T12:39:47.196Z</time></trkpt><trkpt lat="46.10291" lon="13.4901217"><ele>379.0</ele><time>2026-05-03T12:39:49.196Z</time></trkpt><trkpt lat="46.1029917" lon="13.4900817"><ele>379.0</ele><time>2026-05-03T12:39:50.196Z</time></trkpt><trkpt lat="46.10305" lon="13.4900017"><ele>379.0</ele><time>2026-05-03T12:39:51.196Z</time></trkpt><trkpt lat="46.10308" lon="13.4898833"><ele>379.0</ele><time>2026-05-03T12:39:52.196Z</time></trkpt><trkpt lat="46.1031033" lon="13.4897417"><ele>379.0</ele><time>2026-05-03T12:39:53.196Z</time></trkpt><trkpt lat="46.1031083" lon="13.4895883"><ele>379.0</ele><time>2026-05-03T12:39:54.196Z</time></trkpt><trkpt lat="46.103105" lon="13.4894367"><ele>374.25</ele><time>2026-05-03T12:39:55.196Z</time></trkpt><trkpt lat="46.1030917" lon="13.489265"><ele>369.5</ele><time>2026-05-03T12:39:56.196Z</time></trkpt><trkpt lat="46.1030817" lon="13.4891"><ele>364.75</ele><time>2026-05-03T12:39:57.196Z</time></trkpt><trkpt lat="46.103075" lon="13.488935"><ele>360.0</ele><time>2026-05-03T12:39:58.196Z</time></trkpt><trkpt lat="46.10307" lon="13.4887717"><ele>358.4</ele><time>2026-05-03T12:39:59.196Z</time></trkpt><trkpt lat="46.1030733" lon="13.4886233"><ele>356.8</ele><time>2026-05-03T12:40:00.196Z</time></trkpt><trkpt lat="46.1030833" lon="13.4884783"><ele>355.20000000000005</ele><time>2026-05-03T12:40:01.196Z</time></trkpt><trkpt lat="46.1031017" lon="13.4883433"><ele>353.6</ele><time>2026-05-03T12:40:02.196Z</time></trkpt><trkpt lat="46.1031117" lon="13.4882217"><ele>352.0</ele><time>2026-05-03T12:40:03.196Z</time></trkpt><trkpt lat="46.1031117" lon="13.4880967"><ele>352.0</ele><time>2026-05-03T12:40:04.196Z</time></trkpt><trkpt lat="46.103095" lon="13.4879633"><ele>352.0</ele><time>2026-05-03T12:40:05.196Z</time></trkpt><trkpt lat="46.1030667" lon="13.4878267"><ele>352.0</ele><time>2026-05-03T12:40:06.196Z</time></trkpt><trkpt lat="46.1030467" lon="13.4876867"><ele>352.0</ele><time>2026-05-03T12:40:07.196Z</time></trkpt><trkpt lat="46.10304" lon="13.4875467"><ele>352.0</ele><time>2026-05-03T12:40:08.196Z</time></trkpt><trkpt lat="46.1030483" lon="13.4874017"><ele>351.20000000000005</ele><time>2026-05-03T12:40:09.196Z</time></trkpt><trkpt lat="46.1030683" lon="13.487255"><ele>350.4</ele><time>2026-05-03T12:40:10.196Z</time></trkpt><trkpt lat="46.1031083" lon="13.4871033"><ele>349.6</ele><time>2026-05-03T12:40:11.196Z</time></trkpt><trkpt lat="46.10315" lon="13.4869667"><ele>348.79999999999995</ele><time>2026-05-03T12:40:12.196Z</time></trkpt><trkpt lat="46.103185" lon="13.4868283"><ele>348.0</ele><time>2026-05-03T12:40:13.196Z</time></trkpt><trkpt lat="46.1032067" lon="13.4866783"><ele>346.2</ele><time>2026-05-03T12:40:14.196Z</time></trkpt><trkpt lat="46.10322" lon="13.4865267"><ele>344.4</ele><time>2026-05-03T12:40:15.196Z</time></trkpt><trkpt lat="46.10323" lon="13.4863683"><ele>342.59999999999997</ele><time>2026-05-03T12:40:16.196Z</time></trkpt><trkpt lat="46.103235" lon="13.48621"><ele>340.79999999999995</ele><time>2026-05-03T12:40:17.196Z</time></trkpt><trkpt lat="46.10322" lon="13.4860417"><ele>339.0</ele><time>2026-05-03T12:40:18.196Z</time></trkpt><trkpt lat="46.1032017" lon="13.4858533"><ele>336.75</ele><time>2026-05-03T12:40:19.196Z</time></trkpt><trkpt lat="46.1031833" lon="13.485665"><ele>334.5</ele><time>2026-05-03T12:40:20.196Z</time></trkpt><trkpt lat="46.1031683" lon="13.4854967"><ele>332.25</ele><time>2026-05-03T12:40:21.196Z</time></trkpt><trkpt lat="46.1031667" lon="13.4853233"><ele>330.0</ele><time>2026-05-03T12:40:22.196Z</time></trkpt><trkpt lat="46.103165" lon="13.4851633"><ele>329.2</ele><time>2026-05-03T12:40:23.196Z</time></trkpt><trkpt lat="46.10317" lon="13.4849983"><ele>328.4</ele><time>2026-05-03T12:40:24.196Z</time></trkpt><trkpt lat="46.1031833" lon="13.4848467"><ele>327.6</ele><time>2026-05-03T12:40:25.196Z</time></trkpt><trkpt lat="46.1032033" lon="13.484695"><ele>326.8</ele><time>2026-05-03T12:40:26.196Z</time></trkpt><trkpt lat="46.1032217" lon="13.4845533"><ele>326.0</ele><time>2026-05-03T12:40:27.196Z</time></trkpt><trkpt lat="46.1032409" lon="13.4843862"><ele>328.25</ele><time>2026-05-03T12:40:28.196Z</time></trkpt><trkpt lat="46.1032688" lon="13.4842115"><ele>330.5</ele><time>2026-05-03T12:40:29.196Z</time></trkpt><trkpt lat="46.1033007" lon="13.4840368"><ele>332.75</ele><time>2026-05-03T12:40:30.196Z</time></trkpt><trkpt lat="46.1033281" lon="13.4838705"><ele>335.0</ele><time>2026-05-03T12:40:31.196Z</time></trkpt><trkpt lat="46.1033487" lon="13.4837079"><ele>335.0</ele><time>2026-05-03T12:40:32.196Z</time></trkpt><trkpt lat="46.1033695" lon="13.4835572"><ele>335.0</ele><time>2026-05-03T12:40:33.196Z</time></trkpt><trkpt lat="46.1033873" lon="13.4834144"><ele>335.0</ele><time>2026-05-03T12:40:34.196Z</time></trkpt><trkpt lat="46.1034145" lon="13.4832806"><ele>335.0</ele><time>2026-05-03T12:40:35.196Z</time></trkpt><trkpt lat="46.1034529" lon="13.4831639"><ele>335.0</ele><time>2026-05-03T12:40:36.196Z</time></trkpt><trkpt lat="46.1034988" lon="13.4830473"><ele>335.0</ele><time>2026-05-03T12:40:37.196Z</time></trkpt><trkpt lat="46.1035612" lon="13.4829562"><ele>335.0</ele><time>2026-05-03T12:40:38.196Z</time></trkpt><trkpt lat="46.1036261" lon="13.4828773"><ele>335.0</ele><time>2026-05-03T12:40:39.196Z</time></trkpt><trkpt lat="46.1037012" lon="13.482827"><ele>335.0</ele><time>2026-05-03T12:40:40.196Z</time></trkpt><trkpt lat="46.1037786" lon="13.4827998"><ele>335.0</ele><time>2026-05-03T12:40:41.196Z</time></trkpt><trkpt lat="46.1038536" lon="13.4827867"><ele>335.0</ele><time>2026-05-03T12:40:42.196Z</time></trkpt><trkpt lat="46.1039202" lon="13.4827682"><ele>335.6666666666667</ele><time>2026-05-03T12:40:43.196Z</time></trkpt><trkpt lat="46.1039814" lon="13.4827324"><ele>336.33333333333337</ele><time>2026-05-03T12:40:44.196Z</time></trkpt><trkpt lat="46.1040333" lon="13.4826687"><ele>337.0</ele><time>2026-05-03T12:40:45.196Z</time></trkpt><trkpt lat="46.1040779" lon="13.4825686"><ele>337.6666666666667</ele><time>2026-05-03T12:40:46.196Z</time></trkpt><trkpt lat="46.1041193" lon="13.4824397"><ele>338.3333333333333</ele><time>2026-05-03T12:40:47.196Z</time></trkpt><trkpt lat="46.1041631" lon="13.4823112"><ele>339.0</ele><time>2026-05-03T12:40:48.196Z</time></trkpt><trkpt lat="46.104209" lon="13.482153"><ele>335.0</ele><time>2026-05-03T12:40:49.196Z</time></trkpt><trkpt lat="46.1042549" lon="13.4819968"><ele>331.0</ele><time>2026-05-03T12:40:50.196Z</time></trkpt><trkpt lat="46.1043019" lon="13.4818588"><ele>327.0</ele><time>2026-05-03T12:40:51.196Z</time></trkpt><trkpt lat="46.1043532" lon="13.4817384"><ele>323.0</ele><time>2026-05-03T12:40:52.196Z</time></trkpt><trkpt lat="46.1044234" lon="13.4816436"><ele>319.0</ele><time>2026-05-03T12:40:53.196Z</time></trkpt><trkpt lat="46.1044944" lon="13.4815614"><ele>319.0</ele><time>2026-05-03T12:40:54.196Z</time></trkpt><trkpt lat="46.1045741" lon="13.4815072"><ele>319.0</ele><time>2026-05-03T12:40:55.196Z</time></trkpt><trkpt lat="46.1046552" lon="13.4814643"><ele>319.0</ele><time>2026-05-03T12:40:56.196Z</time></trkpt><trkpt lat="46.1047336" lon="13.4814296"><ele>319.0</ele><time>2026-05-03T12:40:57.196Z</time></trkpt><trkpt lat="46.1048047" lon="13.4814283"><ele>319.0</ele><time>2026-05-03T12:40:58.196Z</time></trkpt><trkpt lat="46.1048704" lon="13.4814478"><ele>319.0</ele><time>2026-05-03T12:40:59.196Z</time></trkpt><trkpt lat="46.1049785" lon="13.4815633"><ele>320.0</ele><time>2026-05-03T12:41:01.196Z</time></trkpt><trkpt lat="46.1050501" lon="13.4816732"><ele>321.0</ele><time>2026-05-03T12:41:02.196Z</time></trkpt><trkpt lat="46.1051324" lon="13.4817825"><ele>322.0</ele><time>2026-05-03T12:41:03.196Z</time></trkpt><trkpt lat="46.1052107" lon="13.4818834"><ele>323.0</ele><time>2026-05-03T12:41:04.196Z</time></trkpt><trkpt lat="46.1052781" lon="13.4819712"><ele>324.0</ele><time>2026-05-03T12:41:05.196Z</time></trkpt><trkpt lat="46.1053273" lon="13.482029"><ele>324.0</ele><time>2026-05-03T12:41:06.196Z</time></trkpt><trkpt lat="46.1054062" lon="13.4820256"><ele>324.0</ele><time>2026-05-03T12:41:08.196Z</time></trkpt><trkpt lat="46.1054784" lon="13.4819117"><ele>324.0</ele><time>2026-05-03T12:41:10.196Z</time></trkpt><trkpt lat="46.1055286" lon="13.481803"><ele>324.0</ele><time>2026-05-03T12:41:11.196Z</time></trkpt><trkpt lat="46.1055959" lon="13.4816873"><ele>324.0</ele><time>2026-05-03T12:41:12.196Z</time></trkpt><trkpt lat="46.1056817" lon="13.4815642"><ele>324.25</ele><time>2026-05-03T12:41:13.196Z</time></trkpt><trkpt lat="46.1057769" lon="13.481434"><ele>324.5</ele><time>2026-05-03T12:41:14.196Z</time></trkpt><trkpt lat="46.1058747" lon="13.4813111"><ele>324.75</ele><time>2026-05-03T12:41:15.196Z</time></trkpt><trkpt lat="46.1059685" lon="13.4811886"><ele>325.0</ele><time>2026-05-03T12:41:16.196Z</time></trkpt><trkpt lat="46.1060582" lon="13.4810671"><ele>319.6</ele><time>2026-05-03T12:41:17.196Z</time></trkpt><trkpt lat="46.1061395" lon="13.4809506"><ele>314.2</ele><time>2026-05-03T12:41:18.196Z</time></trkpt><trkpt lat="46.1062165" lon="13.4808364"><ele>308.8</ele><time>2026-05-03T12:41:19.196Z</time></trkpt><trkpt lat="46.1062876" lon="13.4807229"><ele>303.4</ele><time>2026-05-03T12:41:20.196Z</time></trkpt><trkpt lat="46.1063585" lon="13.4806116"><ele>298.0</ele><time>2026-05-03T12:41:21.196Z</time></trkpt><trkpt lat="46.1064346" lon="13.4805019"><ele>296.0</ele><time>2026-05-03T12:41:22.196Z</time></trkpt><trkpt lat="46.1065147" lon="13.4804004"><ele>294.0</ele><time>2026-05-03T12:41:23.196Z</time></trkpt><trkpt lat="46.1065916" lon="13.4803117"><ele>292.0</ele><time>2026-05-03T12:41:24.196Z</time></trkpt><trkpt lat="46.1066704" lon="13.4802451"><ele>290.0</ele><time>2026-05-03T12:41:25.196Z</time></trkpt><trkpt lat="46.1067509" lon="13.4801943"><ele>288.0</ele><time>2026-05-03T12:41:26.196Z</time></trkpt><trkpt lat="46.1068301" lon="13.4801488"><ele>288.0</ele><time>2026-05-03T12:41:27.196Z</time></trkpt><trkpt lat="46.106908" lon="13.4801105"><ele>288.0</ele><time>2026-05-03T12:41:28.196Z</time></trkpt><trkpt lat="46.1069824" lon="13.4800823"><ele>288.0</ele><time>2026-05-03T12:41:29.196Z</time></trkpt><trkpt lat="46.1070502" lon="13.4800705"><ele>288.0</ele><time>2026-05-03T12:41:30.196Z</time></trkpt><trkpt lat="46.1071548" lon="13.4801223"><ele>288.0</ele><time>2026-05-03T12:41:32.196Z</time></trkpt><trkpt lat="46.1072354" lon="13.4801139"><ele>288.0</ele><time>2026-05-03T12:41:34.196Z</time></trkpt><trkpt lat="46.1071905" lon="13.4799903"><ele>288.0</ele><time>2026-05-03T12:41:37.196Z</time></trkpt><trkpt lat="46.107042" lon="13.4799968"><ele>288.0</ele><time>2026-05-03T12:41:39.196Z</time></trkpt><trkpt lat="46.1069338" lon="13.4800171"><ele>288.0</ele><time>2026-05-03T12:41:40.196Z</time></trkpt><trkpt lat="46.1068172" lon="13.4800367"><ele>288.0</ele><time>2026-05-03T12:41:41.196Z</time></trkpt><trkpt lat="46.1066976" lon="13.4800525"><ele>288.0</ele><time>2026-05-03T12:41:42.196Z</time></trkpt><trkpt lat="46.1065857" lon="13.4800779"><ele>288.0</ele><time>2026-05-03T12:41:43.196Z</time></trkpt><trkpt lat="46.1064785" lon="13.480121"><ele>288.0</ele><time>2026-05-03T12:41:44.196Z</time></trkpt><trkpt lat="46.106375" lon="13.4801906"><ele>288.0</ele><time>2026-05-03T12:41:45.196Z</time></trkpt><trkpt lat="46.1062736" lon="13.4802757"><ele>290.5</ele><time>2026-05-03T12:41:46.196Z</time></trkpt><trkpt lat="46.1061698" lon="13.4803813"><ele>293.0</ele><time>2026-05-03T12:41:47.196Z</time></trkpt><trkpt lat="46.1060788" lon="13.4804711"><ele>295.5</ele><time>2026-05-03T12:41:48.196Z</time></trkpt><trkpt lat="46.1059862" lon="13.4805641"><ele>298.0</ele><time>2026-05-03T12:41:49.197Z</time></trkpt><trkpt lat="46.105891" lon="13.4806544"><ele>298.0</ele><time>2026-05-03T12:41:50.196Z</time></trkpt><trkpt lat="46.1057988" lon="13.4807428"><ele>298.0</ele><time>2026-05-03T12:41:51.196Z</time></trkpt><trkpt lat="46.1057106" lon="13.4808241"><ele>298.0</ele><time>2026-05-03T12:41:52.196Z</time></trkpt><trkpt lat="46.1056304" lon="13.4809068"><ele>298.0</ele><time>2026-05-03T12:41:53.196Z</time></trkpt><trkpt lat="46.1055638" lon="13.4809804"><ele>298.0</ele><time>2026-05-03T12:41:54.196Z</time></trkpt><trkpt lat="46.1054568" lon="13.4810414"><ele>296.6</ele><time>2026-05-03T12:41:56.196Z</time></trkpt><trkpt lat="46.1053679" lon="13.4809796"><ele>295.20000000000005</ele><time>2026-05-03T12:41:58.196Z</time></trkpt><trkpt lat="46.105332" lon="13.4808221"><ele>293.8</ele><time>2026-05-03T12:42:00.196Z</time></trkpt><trkpt lat="46.1053365" lon="13.4806781"><ele>292.40000000000003</ele><time>2026-05-03T12:42:01.196Z</time></trkpt><trkpt lat="46.1053487" lon="13.4805073"><ele>291.0</ele><time>2026-05-03T12:42:02.196Z</time></trkpt><trkpt lat="46.105361" lon="13.4803288"><ele>291.0</ele><time>2026-05-03T12:42:03.196Z</time></trkpt><trkpt lat="46.1053752" lon="13.4801595"><ele>291.0</ele><time>2026-05-03T12:42:04.196Z</time></trkpt><trkpt lat="46.1053887" lon="13.4799994"><ele>291.0</ele><time>2026-05-03T12:42:05.196Z</time></trkpt><trkpt lat="46.1053957" lon="13.4798556"><ele>291.0</ele><time>2026-05-03T12:42:06.196Z</time></trkpt><trkpt lat="46.1053903" lon="13.4797316"><ele>291.0</ele><time>2026-05-03T12:42:07.196Z</time></trkpt><trkpt lat="46.1053619" lon="13.4796231"><ele>286.8</ele><time>2026-05-03T12:42:08.196Z</time></trkpt><trkpt lat="46.1053139" lon="13.4795304"><ele>282.6</ele><time>2026-05-03T12:42:09.196Z</time></trkpt><trkpt lat="46.1052461" lon="13.4794615"><ele>278.4</ele><time>2026-05-03T12:42:10.196Z</time></trkpt><trkpt lat="46.1051768" lon="13.4793942"><ele>274.2</ele><time>2026-05-03T12:42:11.196Z</time></trkpt><trkpt lat="46.1050841" lon="13.4793427"><ele>270.0</ele><time>2026-05-03T12:42:12.196Z</time></trkpt><trkpt lat="46.104982" lon="13.4792942"><ele>270.4</ele><time>2026-05-03T12:42:13.196Z</time></trkpt><trkpt lat="46.10487" lon="13.4792567"><ele>270.8</ele><time>2026-05-03T12:42:14.196Z</time></trkpt><trkpt lat="46.1047883" lon="13.4792233"><ele>271.2</ele><time>2026-05-03T12:42:15.196Z</time></trkpt><trkpt lat="46.1046933" lon="13.4791267"><ele>271.6</ele><time>2026-05-03T12:42:17.196Z</time></trkpt><trkpt lat="46.1046617" lon="13.4790267"><ele>272.0</ele><time>2026-05-03T12:42:18.196Z</time></trkpt><trkpt lat="46.10465" lon="13.4788767"><ele>268.33333333333337</ele><time>2026-05-03T12:42:19.196Z</time></trkpt><trkpt lat="46.104615" lon="13.478705"><ele>264.6666666666667</ele><time>2026-05-03T12:42:20.196Z</time></trkpt><trkpt lat="46.10456" lon="13.4784967"><ele>261.0</ele><time>2026-05-03T12:42:21.196Z</time></trkpt><trkpt lat="46.1045033" lon="13.4782617"><ele>261.0</ele><time>2026-05-03T12:42:22.196Z</time></trkpt><trkpt lat="46.1044467" lon="13.4780317"><ele>261.0</ele><time>2026-05-03T12:42:23.196Z</time></trkpt><trkpt lat="46.1044067" lon="13.477835"><ele>261.0</ele><time>2026-05-03T12:42:24.196Z</time></trkpt><trkpt lat="46.1043817" lon="13.477685"><ele>261.0</ele><time>2026-05-03T12:42:25.196Z</time></trkpt><trkpt lat="46.104355" lon="13.4775717"><ele>258.0</ele><time>2026-05-03T12:42:26.196Z</time></trkpt><trkpt lat="46.1042867" lon="13.4775017"><ele>255.00000000000003</ele><time>2026-05-03T12:42:27.196Z</time></trkpt><trkpt lat="46.1042083" lon="13.4774883"><ele>252.00000000000003</ele><time>2026-05-03T12:42:28.197Z</time></trkpt><trkpt lat="46.1041067" lon="13.477515"><ele>249.0</ele><time>2026-05-03T12:42:29.196Z</time></trkpt><trkpt lat="46.1039983" lon="13.47756"><ele>246.0</ele><time>2026-05-03T12:42:30.196Z</time></trkpt><trkpt lat="46.1038933" lon="13.4776083"><ele>242.75</ele><time>2026-05-03T12:42:31.196Z</time></trkpt><trkpt lat="46.10381" lon="13.4776733"><ele>239.5</ele><time>2026-05-03T12:42:32.196Z</time></trkpt><trkpt lat="46.1037233" lon="13.47779"><ele>236.25</ele><time>2026-05-03T12:42:33.196Z</time></trkpt><trkpt lat="46.10364" lon="13.4779317"><ele>233.0</ele><time>2026-05-03T12:42:34.196Z</time></trkpt><trkpt lat="46.1035667" lon="13.4781183"><ele>233.0</ele><time>2026-05-03T12:42:35.196Z</time></trkpt><trkpt lat="46.1034967" lon="13.4783283"><ele>233.0</ele><time>2026-05-03T12:42:36.196Z</time></trkpt><trkpt lat="46.1034233" lon="13.4785217"><ele>233.0</ele><time>2026-05-03T12:42:37.196Z</time></trkpt><trkpt lat="46.10335" lon="13.4787117"><ele>236.66666666666669</ele><time>2026-05-03T12:42:38.196Z</time></trkpt><trkpt lat="46.10328" lon="13.4789217"><ele>240.33333333333331</ele><time>2026-05-03T12:42:39.196Z</time></trkpt><trkpt lat="46.1032167" lon="13.4791467"><ele>244.0</ele><time>2026-05-03T12:42:40.196Z</time></trkpt><trkpt lat="46.10315" lon="13.4793433"><ele>239.25</ele><time>2026-05-03T12:42:41.196Z</time></trkpt><trkpt lat="46.1030733" lon="13.4795067"><ele>234.5</ele><time>2026-05-03T12:42:42.197Z</time></trkpt><trkpt lat="46.1029833" lon="13.4796683"><ele>229.75</ele><time>2026-05-03T12:42:43.196Z</time></trkpt><trkpt lat="46.1028983" lon="13.4798133"><ele>225.0</ele><time>2026-05-03T12:42:44.196Z</time></trkpt><trkpt lat="46.1028067" lon="13.4799317"><ele>225.0</ele><time>2026-05-03T12:42:45.196Z</time></trkpt><trkpt lat="46.102705" lon="13.4800333"><ele>225.0</ele><time>2026-05-03T12:42:46.196Z</time></trkpt><trkpt lat="46.1025983" lon="13.4801183"><ele>225.0</ele><time>2026-05-03T12:42:47.196Z</time></trkpt><trkpt lat="46.1024783" lon="13.480195"><ele>225.0</ele><time>2026-05-03T12:42:48.196Z</time></trkpt><trkpt lat="46.102355" lon="13.4802867"><ele>220.75</ele><time>2026-05-03T12:42:49.196Z</time></trkpt><trkpt lat="46.1022283" lon="13.4803883"><ele>216.5</ele><time>2026-05-03T12:42:50.196Z</time></trkpt><trkpt lat="46.1021067" lon="13.4804983"><ele>212.25</ele><time>2026-05-03T12:42:51.196Z</time></trkpt><trkpt lat="46.102" lon="13.480625"><ele>208.0</ele><time>2026-05-03T12:42:52.196Z</time></trkpt><trkpt lat="46.1019133" lon="13.48078"><ele>208.0</ele><time>2026-05-03T12:42:53.196Z</time></trkpt><trkpt lat="46.1018383" lon="13.4809417"><ele>208.0</ele><time>2026-05-03T12:42:54.196Z</time></trkpt><trkpt lat="46.10178" lon="13.481115"><ele>208.0</ele><time>2026-05-03T12:42:55.197Z</time></trkpt><trkpt lat="46.1017367" lon="13.4812933"><ele>208.0</ele><time>2026-05-03T12:42:56.196Z</time></trkpt><trkpt lat="46.1017083" lon="13.48143"><ele>207.8</ele><time>2026-05-03T12:42:57.196Z</time></trkpt><trkpt lat="46.1016733" lon="13.4815267"><ele>207.60000000000002</ele><time>2026-05-03T12:42:58.196Z</time></trkpt><trkpt lat="46.1015383" lon="13.48155"><ele>207.39999999999998</ele><time>2026-05-03T12:43:00.196Z</time></trkpt><trkpt lat="46.101445" lon="13.4815083"><ele>207.2</ele><time>2026-05-03T12:43:01.196Z</time></trkpt><trkpt lat="46.1013533" lon="13.4815067"><ele>207.0</ele><time>2026-05-03T12:43:02.196Z</time></trkpt><trkpt lat="46.1012667" lon="13.4815583"><ele>207.0</ele><time>2026-05-03T12:43:03.196Z</time></trkpt><trkpt lat="46.10119" lon="13.4816467"><ele>207.0</ele><time>2026-05-03T12:43:04.196Z</time></trkpt><trkpt lat="46.1011217" lon="13.4817367"><ele>207.0</ele><time>2026-05-03T12:43:05.196Z</time></trkpt><trkpt lat="46.1010417" lon="13.4818017"><ele>207.0</ele><time>2026-05-03T12:43:06.196Z</time></trkpt><trkpt lat="46.1009533" lon="13.4818333"><ele>207.0</ele><time>2026-05-03T12:43:07.196Z</time></trkpt><trkpt lat="46.100865" lon="13.4818217"><ele>207.0</ele><time>2026-05-03T12:43:08.196Z</time></trkpt><trkpt lat="46.1007683" lon="13.481755"><ele>207.0</ele><time>2026-05-03T12:43:09.196Z</time></trkpt><trkpt lat="46.1006683" lon="13.4816633"><ele>207.0</ele><time>2026-05-03T12:43:10.196Z</time></trkpt><trkpt lat="46.1005617" lon="13.481575"><ele>207.0</ele><time>2026-05-03T12:43:11.196Z</time></trkpt><trkpt lat="46.10048" lon="13.481465"><ele>205.8</ele><time>2026-05-03T12:43:12.196Z</time></trkpt><trkpt lat="46.1004117" lon="13.4813533"><ele>204.6</ele><time>2026-05-03T12:43:13.197Z</time></trkpt><trkpt lat="46.10033" lon="13.4812133"><ele>203.4</ele><time>2026-05-03T12:43:14.196Z</time></trkpt><trkpt lat="46.1002533" lon="13.481105"><ele>202.20000000000002</ele><time>2026-05-03T12:43:15.196Z</time></trkpt><trkpt lat="46.1001833" lon="13.4810067"><ele>201.0</ele><time>2026-05-03T12:43:16.196Z</time></trkpt><trkpt lat="46.1001" lon="13.48097"><ele>197.0</ele><time>2026-05-03T12:43:17.196Z</time></trkpt><trkpt lat="46.1000133" lon="13.4809767"><ele>193.0</ele><time>2026-05-03T12:43:18.196Z</time></trkpt><trkpt lat="46.09992" lon="13.4810267"><ele>189.0</ele><time>2026-05-03T12:43:19.196Z</time></trkpt><trkpt lat="46.0998217" lon="13.4811367"><ele>185.0</ele><time>2026-05-03T12:43:20.196Z</time></trkpt><trkpt lat="46.0997533" lon="13.4812917"><ele>181.0</ele><time>2026-05-03T12:43:21.196Z</time></trkpt><trkpt lat="46.099675" lon="13.481385"><ele>180.0</ele><time>2026-05-03T12:43:22.196Z</time></trkpt><trkpt lat="46.09961" lon="13.481425"><ele>179.0</ele><time>2026-05-03T12:43:23.196Z</time></trkpt><trkpt lat="46.09953" lon="13.4813667"><ele>178.0</ele><time>2026-05-03T12:43:25.196Z</time></trkpt><trkpt lat="46.099565" lon="13.4812717"><ele>177.0</ele><time>2026-05-03T12:43:26.196Z</time></trkpt><trkpt lat="46.0996283" lon="13.4811667"><ele>176.0</ele><time>2026-05-03T12:43:27.196Z</time></trkpt><trkpt lat="46.0996983" lon="13.4810483"><ele>175.0</ele><time>2026-05-03T12:43:28.196Z</time></trkpt><trkpt lat="46.09977" lon="13.480925"><ele>174.0</ele><time>2026-05-03T12:43:29.196Z</time></trkpt><trkpt lat="46.0998317" lon="13.4807717"><ele>173.0</ele><time>2026-05-03T12:43:30.197Z</time></trkpt><trkpt lat="46.099905" lon="13.4806467"><ele>172.0</ele><time>2026-05-03T12:43:31.196Z</time></trkpt><trkpt lat="46.0999867" lon="13.4805567"><ele>171.0</ele><time>2026-05-03T12:43:32.196Z</time></trkpt><trkpt lat="46.1000683" lon="13.4805283"><ele>170.0</ele><time>2026-05-03T12:43:33.196Z</time></trkpt><trkpt lat="46.1001483" lon="13.480535"><ele>172.2</ele><time>2026-05-03T12:43:34.196Z</time></trkpt><trkpt lat="46.10021" lon="13.480585"><ele>174.4</ele><time>2026-05-03T12:43:35.196Z</time></trkpt><trkpt lat="46.1002767" lon="13.4806783"><ele>176.60000000000002</ele><time>2026-05-03T12:43:36.196Z</time></trkpt><trkpt lat="46.1003367" lon="13.48076"><ele>178.8</ele><time>2026-05-03T12:43:37.196Z</time></trkpt><trkpt lat="46.1004267" lon="13.4808467"><ele>181.0</ele><time>2026-05-03T12:43:38.196Z</time></trkpt><trkpt lat="46.1005217" lon="13.48093"><ele>181.0</ele><time>2026-05-03T12:43:39.196Z</time></trkpt><trkpt lat="46.10061" lon="13.4809883"><ele>181.0</ele><time>2026-05-03T12:43:40.196Z</time></trkpt><trkpt lat="46.1006917" lon="13.4810167"><ele>181.0</ele><time>2026-05-03T12:43:41.196Z</time></trkpt><trkpt lat="46.1007533" lon="13.4809783"><ele>181.0</ele><time>2026-05-03T12:43:42.196Z</time></trkpt><trkpt lat="46.1008117" lon="13.4809367"><ele>181.0</ele><time>2026-05-03T12:43:43.196Z</time></trkpt><trkpt lat="46.100845" lon="13.4808267"><ele>181.0</ele><time>2026-05-03T12:43:44.196Z</time></trkpt><trkpt lat="46.1008867" lon="13.48068"><ele>181.33333333333334</ele><time>2026-05-03T12:43:45.196Z</time></trkpt><trkpt lat="46.1009467" lon="13.4804617"><ele>181.66666666666666</ele><time>2026-05-03T12:43:46.196Z</time></trkpt><trkpt lat="46.1009883" lon="13.48016"><ele>182.0</ele><time>2026-05-03T12:43:47.196Z</time></trkpt><trkpt lat="46.1010133" lon="13.4798633"><ele>177.75</ele><time>2026-05-03T12:43:48.196Z</time></trkpt><trkpt lat="46.1010433" lon="13.4796383"><ele>173.5</ele><time>2026-05-03T12:43:49.196Z</time></trkpt><trkpt lat="46.1010833" lon="13.4794583"><ele>169.25</ele><time>2026-05-03T12:43:50.196Z</time></trkpt><trkpt lat="46.101125" lon="13.4793333"><ele>165.0</ele><time>2026-05-03T12:43:51.196Z</time></trkpt><trkpt lat="46.1011783" lon="13.4792483"><ele>165.33333333333334</ele><time>2026-05-03T12:43:52.196Z</time></trkpt><trkpt lat="46.10125" lon="13.4791983"><ele>165.66666666666666</ele><time>2026-05-03T12:43:53.196Z</time></trkpt><trkpt lat="46.1013267" lon="13.4791633"><ele>166.0</ele><time>2026-05-03T12:43:54.196Z</time></trkpt><trkpt lat="46.1014067" lon="13.47911"><ele>166.33333333333331</ele><time>2026-05-03T12:43:55.196Z</time></trkpt><trkpt lat="46.1014833" lon="13.4790283"><ele>166.66666666666666</ele><time>2026-05-03T12:43:56.196Z</time></trkpt><trkpt lat="46.101565" lon="13.4789433"><ele>167.0</ele><time>2026-05-03T12:43:57.196Z</time></trkpt><trkpt lat="46.10164" lon="13.478825"><ele>165.75</ele><time>2026-05-03T12:43:58.196Z</time></trkpt><trkpt lat="46.1017083" lon="13.4786983"><ele>164.5</ele><time>2026-05-03T12:43:59.196Z</time></trkpt><trkpt lat="46.10176" lon="13.47856"><ele>163.25</ele><time>2026-05-03T12:44:00.196Z</time></trkpt><trkpt lat="46.1017933" lon="13.4784067"><ele>162.0</ele><time>2026-05-03T12:44:01.195Z</time></trkpt><trkpt lat="46.101815" lon="13.4782267"><ele>162.0</ele><time>2026-05-03T12:44:02.195Z</time></trkpt><trkpt lat="46.101835" lon="13.4780483"><ele>162.0</ele><time>2026-05-03T12:44:03.195Z</time></trkpt><trkpt lat="46.10185" lon="13.4778617"><ele>162.0</ele><time>2026-05-03T12:44:04.195Z</time></trkpt><trkpt lat="46.1018483" lon="13.47768"><ele>162.0</ele><time>2026-05-03T12:44:05.196Z</time></trkpt><trkpt lat="46.1018517" lon="13.477495"><ele>161.25</ele><time>2026-05-03T12:44:06.195Z</time></trkpt><trkpt lat="46.101855" lon="13.4773133"><ele>160.5</ele><time>2026-05-03T12:44:07.195Z</time></trkpt><trkpt lat="46.10187" lon="13.4771367"><ele>159.75</ele><time>2026-05-03T12:44:08.195Z</time></trkpt><trkpt lat="46.1018767" lon="13.476955"><ele>159.0</ele><time>2026-05-03T12:44:09.195Z</time></trkpt><trkpt lat="46.1018683" lon="13.4767933"><ele>159.0</ele><time>2026-05-03T12:44:10.195Z</time></trkpt><trkpt lat="46.10185" lon="13.476635"><ele>159.0</ele><time>2026-05-03T12:44:11.195Z</time></trkpt><trkpt lat="46.1018467" lon="13.4764783"><ele>159.0</ele><time>2026-05-03T12:44:12.195Z</time></trkpt><trkpt lat="46.1018533" lon="13.4763317"><ele>159.0</ele><time>2026-05-03T12:44:13.195Z</time></trkpt><trkpt lat="46.10188" lon="13.4761883"><ele>159.0</ele><time>2026-05-03T12:44:14.195Z</time></trkpt><trkpt lat="46.101895" lon="13.4760583"><ele>159.0</ele><time>2026-05-03T12:44:15.195Z</time></trkpt><trkpt lat="46.101895" lon="13.4759417"><ele>159.0</ele><time>2026-05-03T12:44:16.195Z</time></trkpt><trkpt lat="46.101875" lon="13.475815"><ele>159.0</ele><time>2026-05-03T12:44:17.195Z</time></trkpt><trkpt lat="46.101845" lon="13.4756783"><ele>159.0</ele><time>2026-05-03T12:44:18.195Z</time></trkpt><trkpt lat="46.101815" lon="13.4755417"><ele>159.0</ele><time>2026-05-03T12:44:19.195Z</time></trkpt><trkpt lat="46.1018067" lon="13.4754117"><ele>158.8</ele><time>2026-05-03T12:44:20.195Z</time></trkpt><trkpt lat="46.1018367" lon="13.4753183"><ele>158.60000000000002</ele><time>2026-05-03T12:44:21.195Z</time></trkpt><trkpt lat="46.1018917" lon="13.475225"><ele>158.4</ele><time>2026-05-03T12:44:22.195Z</time></trkpt><trkpt lat="46.10196" lon="13.475125"><ele>158.20000000000002</ele><time>2026-05-03T12:44:23.195Z</time></trkpt><trkpt lat="46.102045" lon="13.4750383"><ele>158.0</ele><time>2026-05-03T12:44:24.195Z</time></trkpt><trkpt lat="46.1021483" lon="13.4749467"><ele>158.0</ele><time>2026-05-03T12:44:25.195Z</time></trkpt><trkpt lat="46.1022633" lon="13.4748333"><ele>158.0</ele><time>2026-05-03T12:44:26.195Z</time></trkpt><trkpt lat="46.1023667" lon="13.4746967"><ele>158.0</ele><time>2026-05-03T12:44:27.195Z</time></trkpt><trkpt lat="46.1024583" lon="13.4745217"><ele>158.0</ele><time>2026-05-03T12:44:28.195Z</time></trkpt><trkpt lat="46.1025317" lon="13.4743333"><ele>157.5</ele><time>2026-05-03T12:44:29.195Z</time></trkpt><trkpt lat="46.1025883" lon="13.4741467"><ele>157.0</ele><time>2026-05-03T12:44:30.195Z</time></trkpt><trkpt lat="46.1026517" lon="13.4739783"><ele>156.5</ele><time>2026-05-03T12:44:31.195Z</time></trkpt><trkpt lat="46.1027317" lon="13.473845"><ele>156.0</ele><time>2026-05-03T12:44:32.195Z</time></trkpt><trkpt lat="46.1028217" lon="13.4737133"><ele>155.25</ele><time>2026-05-03T12:44:33.195Z</time></trkpt><trkpt lat="46.10291" lon="13.473585"><ele>154.5</ele><time>2026-05-03T12:44:34.195Z</time></trkpt><trkpt lat="46.1029933" lon="13.473425"><ele>153.75</ele><time>2026-05-03T12:44:35.195Z</time></trkpt><trkpt lat="46.1030717" lon="13.4732633"><ele>153.0</ele><time>2026-05-03T12:44:36.195Z</time></trkpt><trkpt lat="46.10314" lon="13.473085"><ele>152.5</ele><time>2026-05-03T12:44:37.195Z</time></trkpt><trkpt lat="46.1032117" lon="13.4729167"><ele>152.0</ele><time>2026-05-03T12:44:38.195Z</time></trkpt><trkpt lat="46.1032817" lon="13.4727283"><ele>151.5</ele><time>2026-05-03T12:44:39.195Z</time></trkpt><trkpt lat="46.1033283" lon="13.472525"><ele>151.0</ele><time>2026-05-03T12:44:40.195Z</time></trkpt><trkpt lat="46.1033783" lon="13.472305"><ele>150.0</ele><time>2026-05-03T12:44:41.195Z</time></trkpt><trkpt lat="46.103435" lon="13.47207"><ele>149.0</ele><time>2026-05-03T12:44:42.195Z</time></trkpt><trkpt lat="46.1034883" lon="13.471825"><ele>148.0</ele><time>2026-05-03T12:44:43.195Z</time></trkpt><trkpt lat="46.10354" lon="13.471595"><ele>148.0</ele><time>2026-05-03T12:44:44.195Z</time></trkpt><trkpt lat="46.1035833" lon="13.4713817"><ele>148.0</ele><time>2026-05-03T12:44:45.195Z</time></trkpt><trkpt lat="46.10364" lon="13.47119"><ele>148.0</ele><time>2026-05-03T12:44:46.195Z</time></trkpt><trkpt lat="46.1037117" lon="13.471045"><ele>148.0</ele><time>2026-05-03T12:44:47.195Z</time></trkpt><trkpt lat="46.1038067" lon="13.4709583"><ele>147.75</ele><time>2026-05-03T12:44:48.195Z</time></trkpt><trkpt lat="46.1039017" lon="13.47093"><ele>147.5</ele><time>2026-05-03T12:44:49.195Z</time></trkpt><trkpt lat="46.104015" lon="13.4709683"><ele>147.25</ele><time>2026-05-03T12:44:50.195Z</time></trkpt><trkpt lat="46.1041383" lon="13.4710467"><ele>147.0</ele><time>2026-05-03T12:44:51.195Z</time></trkpt><trkpt lat="46.10427" lon="13.4711483"><ele>147.0</ele><time>2026-05-03T12:44:52.195Z</time></trkpt><trkpt lat="46.1044117" lon="13.47125"><ele>147.0</ele><time>2026-05-03T12:44:53.195Z</time></trkpt><trkpt lat="46.1045617" lon="13.4713617"><ele>147.0</ele><time>2026-05-03T12:44:54.195Z</time></trkpt><trkpt lat="46.10471" lon="13.471465"><ele>147.0</ele><time>2026-05-03T12:44:55.195Z</time></trkpt><trkpt lat="46.1048483" lon="13.4715933"><ele>147.0</ele><time>2026-05-03T12:44:56.195Z</time></trkpt><trkpt lat="46.104975" lon="13.471725"><ele>147.0</ele><time>2026-05-03T12:44:57.195Z</time></trkpt><trkpt lat="46.10508" lon="13.4719067"><ele>146.66666666666666</ele><time>2026-05-03T12:44:58.195Z</time></trkpt><trkpt lat="46.1051883" lon="13.4720983"><ele>146.33333333333331</ele><time>2026-05-03T12:44:59.195Z</time></trkpt><trkpt lat="46.1052933" lon="13.4723283"><ele>146.0</ele><time>2026-05-03T12:45:00.195Z</time></trkpt><trkpt lat="46.105415" lon="13.4725583"><ele>146.0</ele><time>2026-05-03T12:45:01.195Z</time></trkpt><trkpt lat="46.10553" lon="13.4728"><ele>146.0</ele><time>2026-05-03T12:45:02.195Z</time></trkpt><trkpt lat="46.1056567" lon="13.473035"><ele>146.0</ele><time>2026-05-03T12:45:03.195Z</time></trkpt><trkpt lat="46.1057683" lon="13.4732683"><ele>147.33333333333331</ele><time>2026-05-03T12:45:04.195Z</time></trkpt><trkpt lat="46.105885" lon="13.4734933"><ele>148.66666666666666</ele><time>2026-05-03T12:45:05.195Z</time></trkpt><trkpt lat="46.1060183" lon="13.4737167"><ele>150.0</ele><time>2026-05-03T12:45:06.195Z</time></trkpt><trkpt lat="46.1061733" lon="13.4739"><ele>150.0</ele><time>2026-05-03T12:45:07.195Z</time></trkpt><trkpt lat="46.1063483" lon="13.4740317"><ele>150.0</ele><time>2026-05-03T12:45:08.195Z</time></trkpt><trkpt lat="46.1065467" lon="13.4741217"><ele>150.0</ele><time>2026-05-03T12:45:09.195Z</time></trkpt><trkpt lat="46.1067567" lon="13.4741783"><ele>146.0</ele><time>2026-05-03T12:45:10.195Z</time></trkpt><trkpt lat="46.106965" lon="13.474195"><ele>142.0</ele><time>2026-05-03T12:45:11.195Z</time></trkpt><trkpt lat="46.1071733" lon="13.4742217"><ele>138.0</ele><time>2026-05-03T12:45:12.195Z</time></trkpt><trkpt lat="46.10737" lon="13.4742517"><ele>136.33333333333334</ele><time>2026-05-03T12:45:13.195Z</time></trkpt><trkpt lat="46.1075617" lon="13.4742833"><ele>134.66666666666669</ele><time>2026-05-03T12:45:14.195Z</time></trkpt><trkpt lat="46.10776" lon="13.4743033"><ele>133.0</ele><time>2026-05-03T12:45:15.195Z</time></trkpt><trkpt lat="46.10796" lon="13.4743217"><ele>133.0</ele><time>2026-05-03T12:45:16.195Z</time></trkpt><trkpt lat="46.1081517" lon="13.4743517"><ele>133.0</ele><time>2026-05-03T12:45:17.195Z</time></trkpt><trkpt lat="46.108345" lon="13.4743783"><ele>133.0</ele><time>2026-05-03T12:45:18.195Z</time></trkpt><trkpt lat="46.10853" lon="13.4744083"><ele>132.66666666666669</ele><time>2026-05-03T12:45:19.195Z</time></trkpt><trkpt lat="46.108705" lon="13.4744367"><ele>132.33333333333334</ele><time>2026-05-03T12:45:20.195Z</time></trkpt><trkpt lat="46.1088767" lon="13.4744783"><ele>132.0</ele><time>2026-05-03T12:45:21.195Z</time></trkpt><trkpt lat="46.10903" lon="13.4745433"><ele>131.83333333333334</ele><time>2026-05-03T12:45:22.195Z</time></trkpt><trkpt lat="46.1091417" lon="13.4746167"><ele>131.66666666666666</ele><time>2026-05-03T12:45:23.195Z</time></trkpt><trkpt lat="46.1092167" lon="13.4746833"><ele>131.5</ele><time>2026-05-03T12:45:24.195Z</time></trkpt><trkpt lat="46.109265" lon="13.4747467"><ele>131.33333333333331</ele><time>2026-05-03T12:45:25.195Z</time></trkpt><trkpt lat="46.1093183" lon="13.4748133"><ele>131.16666666666666</ele><time>2026-05-03T12:45:26.195Z</time></trkpt><trkpt lat="46.10939" lon="13.474885"><ele>131.0</ele><time>2026-05-03T12:45:27.195Z</time></trkpt><trkpt lat="46.1094683" lon="13.4749617"><ele>131.0</ele><time>2026-05-03T12:45:28.195Z</time></trkpt><trkpt lat="46.1095483" lon="13.47505"><ele>131.0</ele><time>2026-05-03T12:45:29.195Z</time></trkpt><trkpt lat="46.1096333" lon="13.4751383"><ele>131.0</ele><time>2026-05-03T12:45:30.195Z</time></trkpt><trkpt lat="46.109725" lon="13.47522"><ele>131.0</ele><time>2026-05-03T12:45:31.195Z</time></trkpt><trkpt lat="46.10982" lon="13.4753083"><ele>131.0</ele><time>2026-05-03T12:45:32.195Z</time></trkpt><trkpt lat="46.1099233" lon="13.4754117"><ele>132.5</ele><time>2026-05-03T12:45:33.195Z</time></trkpt><trkpt lat="46.1100333" lon="13.4755183"><ele>134.0</ele><time>2026-05-03T12:45:34.195Z</time></trkpt><trkpt lat="46.1101317" lon="13.4756233"><ele>135.5</ele><time>2026-05-03T12:45:35.195Z</time></trkpt><trkpt lat="46.1102283" lon="13.47572"><ele>137.0</ele><time>2026-05-03T12:45:36.195Z</time></trkpt><trkpt lat="46.1103183" lon="13.475835"><ele>137.0</ele><time>2026-05-03T12:45:37.195Z</time></trkpt><trkpt lat="46.11038" lon="13.4759917"><ele>137.0</ele><time>2026-05-03T12:45:38.195Z</time></trkpt><trkpt lat="46.1104217" lon="13.4761667"><ele>137.0</ele><time>2026-05-03T12:45:39.195Z</time></trkpt><trkpt lat="46.11048" lon="13.476355"><ele>137.0</ele><time>2026-05-03T12:45:40.195Z</time></trkpt><trkpt lat="46.11055" lon="13.4765267"><ele>136.5</ele><time>2026-05-03T12:45:41.195Z</time></trkpt><trkpt lat="46.1106283" lon="13.47664"><ele>136.0</ele><time>2026-05-03T12:45:42.195Z</time></trkpt><trkpt lat="46.110735" lon="13.4767533"><ele>135.5</ele><time>2026-05-03T12:45:43.196Z</time></trkpt><trkpt lat="46.110855" lon="13.4768533"><ele>135.0</ele><time>2026-05-03T12:45:44.195Z</time></trkpt><trkpt lat="46.11099" lon="13.4769467"><ele>136.0</ele><time>2026-05-03T12:45:45.195Z</time></trkpt><trkpt lat="46.11112" lon="13.47705"><ele>137.0</ele><time>2026-05-03T12:45:46.196Z</time></trkpt><trkpt lat="46.1112533" lon="13.4771467"><ele>138.0</ele><time>2026-05-03T12:45:47.195Z</time></trkpt><trkpt lat="46.11139" lon="13.4772183"><ele>139.0</ele><time>2026-05-03T12:45:48.195Z</time></trkpt><trkpt lat="46.1115217" lon="13.47727"><ele>140.8</ele><time>2026-05-03T12:45:49.195Z</time></trkpt><trkpt lat="46.1116333" lon="13.47732"><ele>142.60000000000002</ele><time>2026-05-03T12:45:50.195Z</time></trkpt><trkpt lat="46.11173" lon="13.4773733"><ele>144.4</ele><time>2026-05-03T12:45:51.195Z</time></trkpt><trkpt lat="46.11179" lon="13.47742"><ele>146.20000000000002</ele><time>2026-05-03T12:45:52.195Z</time></trkpt><trkpt lat="46.1117967" lon="13.477555"><ele>148.0</ele><time>2026-05-03T12:45:54.195Z</time></trkpt><trkpt lat="46.11177" lon="13.4776467"><ele>148.0</ele><time>2026-05-03T12:45:55.195Z</time></trkpt><trkpt lat="46.11175" lon="13.4777533"><ele>148.0</ele><time>2026-05-03T12:45:56.195Z</time></trkpt><trkpt lat="46.1117317" lon="13.4778833"><ele>148.0</ele><time>2026-05-03T12:45:57.195Z</time></trkpt><trkpt lat="46.1116967" lon="13.4780133"><ele>148.0</ele><time>2026-05-03T12:45:58.195Z</time></trkpt><trkpt lat="46.1116683" lon="13.4781667"><ele>148.0</ele><time>2026-05-03T12:45:59.195Z</time></trkpt><trkpt lat="46.111635" lon="13.4783233"><ele>147.5</ele><time>2026-05-03T12:46:00.195Z</time></trkpt><trkpt lat="46.1115983" lon="13.4784933"><ele>147.0</ele><time>2026-05-03T12:46:01.195Z</time></trkpt><trkpt lat="46.1115633" lon="13.4786733"><ele>146.5</ele><time>2026-05-03T12:46:02.195Z</time></trkpt><trkpt lat="46.1115317" lon="13.4788617"><ele>146.0</ele><time>2026-05-03T12:46:03.195Z</time></trkpt><trkpt lat="46.1115017" lon="13.479055"><ele>144.25</ele><time>2026-05-03T12:46:04.195Z</time></trkpt><trkpt lat="46.111475" lon="13.4792517"><ele>142.5</ele><time>2026-05-03T12:46:05.195Z</time></trkpt><trkpt lat="46.111465" lon="13.4794567"><ele>140.75</ele><time>2026-05-03T12:46:06.195Z</time></trkpt><trkpt lat="46.1114683" lon="13.4796833"><ele>139.0</ele><time>2026-05-03T12:46:07.195Z</time></trkpt><trkpt lat="46.111485" lon="13.4799183"><ele>139.0</ele><time>2026-05-03T12:46:08.195Z</time></trkpt><trkpt lat="46.11149" lon="13.4801517"><ele>139.0</ele><time>2026-05-03T12:46:09.195Z</time></trkpt><trkpt lat="46.111495" lon="13.4803933"><ele>139.0</ele><time>2026-05-03T12:46:10.195Z</time></trkpt><trkpt lat="46.1114967" lon="13.4806467"><ele>138.33333333333334</ele><time>2026-05-03T12:46:11.195Z</time></trkpt><trkpt lat="46.1115033" lon="13.4809117"><ele>137.66666666666666</ele><time>2026-05-03T12:46:12.195Z</time></trkpt><trkpt lat="46.11151" lon="13.4811883"><ele>137.0</ele><time>2026-05-03T12:46:13.195Z</time></trkpt><trkpt lat="46.111525" lon="13.4814767"><ele>137.0</ele><time>2026-05-03T12:46:14.195Z</time></trkpt><trkpt lat="46.1115317" lon="13.481755"><ele>137.0</ele><time>2026-05-03T12:46:15.195Z</time></trkpt><trkpt lat="46.1115417" lon="13.4820267"><ele>137.0</ele><time>2026-05-03T12:46:16.195Z</time></trkpt><trkpt lat="46.1115567" lon="13.4823"><ele>140.0</ele><time>2026-05-03T12:46:17.195Z</time></trkpt><trkpt lat="46.1115817" lon="13.4825667"><ele>143.0</ele><time>2026-05-03T12:46:18.195Z</time></trkpt><trkpt lat="46.1116267" lon="13.4828217"><ele>146.0</ele><time>2026-05-03T12:46:19.195Z</time></trkpt><trkpt lat="46.1117067" lon="13.483075"><ele>146.0</ele><time>2026-05-03T12:46:20.195Z</time></trkpt><trkpt lat="46.111795" lon="13.4833383"><ele>146.0</ele><time>2026-05-03T12:46:21.195Z</time></trkpt><trkpt lat="46.1118767" lon="13.4835883"><ele>146.0</ele><time>2026-05-03T12:46:22.195Z</time></trkpt><trkpt lat="46.1119533" lon="13.4838233"><ele>145.33333333333331</ele><time>2026-05-03T12:46:23.195Z</time></trkpt><trkpt lat="46.1120367" lon="13.4840267"><ele>144.66666666666666</ele><time>2026-05-03T12:46:24.195Z</time></trkpt><trkpt lat="46.1121417" lon="13.4842083"><ele>144.0</ele><time>2026-05-03T12:46:25.195Z</time></trkpt><trkpt lat="46.1122883" lon="13.4843617"><ele>145.0</ele><time>2026-05-03T12:46:26.195Z</time></trkpt><trkpt lat="46.11245" lon="13.4845133"><ele>146.0</ele><time>2026-05-03T12:46:27.195Z</time></trkpt><trkpt lat="46.1126117" lon="13.484665"><ele>147.0</ele><time>2026-05-03T12:46:28.195Z</time></trkpt><trkpt lat="46.11278" lon="13.484815"><ele>147.0</ele><time>2026-05-03T12:46:29.195Z</time></trkpt><trkpt lat="46.112935" lon="13.48496"><ele>147.0</ele><time>2026-05-03T12:46:30.195Z</time></trkpt><trkpt lat="46.1130833" lon="13.4851183"><ele>147.0</ele><time>2026-05-03T12:46:31.196Z</time></trkpt><trkpt lat="46.113225" lon="13.48529"><ele>147.0</ele><time>2026-05-03T12:46:32.195Z</time></trkpt><trkpt lat="46.1133333" lon="13.485485"><ele>147.0</ele><time>2026-05-03T12:46:33.195Z</time></trkpt><trkpt lat="46.113425" lon="13.485715"><ele>147.0</ele><time>2026-05-03T12:46:34.195Z</time></trkpt><trkpt lat="46.1135133" lon="13.485945"><ele>147.0</ele><time>2026-05-03T12:46:35.195Z</time></trkpt><trkpt lat="46.1135933" lon="13.48618"><ele>147.0</ele><time>2026-05-03T12:46:36.195Z</time></trkpt><trkpt lat="46.1136817" lon="13.486425"><ele>147.0</ele><time>2026-05-03T12:46:37.195Z</time></trkpt><trkpt lat="46.11377" lon="13.4866617"><ele>146.0</ele><time>2026-05-03T12:46:38.195Z</time></trkpt><trkpt lat="46.1138567" lon="13.48689"><ele>145.0</ele><time>2026-05-03T12:46:39.195Z</time></trkpt><trkpt lat="46.11394" lon="13.4871083"><ele>144.0</ele><time>2026-05-03T12:46:40.195Z</time></trkpt><trkpt lat="46.114015" lon="13.4873117"><ele>146.66666666666666</ele><time>2026-05-03T12:46:41.195Z</time></trkpt><trkpt lat="46.1140833" lon="13.4875117"><ele>149.33333333333331</ele><time>2026-05-03T12:46:42.195Z</time></trkpt><trkpt lat="46.1141417" lon="13.4877233"><ele>152.0</ele><time>2026-05-03T12:46:43.195Z</time></trkpt><trkpt lat="46.114175" lon="13.4879533"><ele>152.0</ele><time>2026-05-03T12:46:44.195Z</time></trkpt><trkpt lat="46.1141933" lon="13.4881933"><ele>152.0</ele><time>2026-05-03T12:46:45.195Z</time></trkpt><trkpt lat="46.1142067" lon="13.4884333"><ele>152.0</ele><time>2026-05-03T12:46:46.195Z</time></trkpt><trkpt lat="46.1142233" lon="13.4886767"><ele>150.66666666666666</ele><time>2026-05-03T12:46:47.195Z</time></trkpt><trkpt lat="46.1142533" lon="13.4889167"><ele>149.33333333333334</ele><time>2026-05-03T12:46:48.195Z</time></trkpt><trkpt lat="46.114305" lon="13.4891667"><ele>148.0</ele><time>2026-05-03T12:46:49.195Z</time></trkpt><trkpt lat="46.114365" lon="13.4894167"><ele>146.66666666666669</ele><time>2026-05-03T12:46:50.195Z</time></trkpt><trkpt lat="46.114425" lon="13.48965"><ele>145.33333333333334</ele><time>2026-05-03T12:46:51.195Z</time></trkpt><trkpt lat="46.1144917" lon="13.4898867"><ele>144.0</ele><time>2026-05-03T12:46:52.195Z</time></trkpt><trkpt lat="46.1145667" lon="13.4901217"><ele>144.0</ele><time>2026-05-03T12:46:53.196Z</time></trkpt><trkpt lat="46.1146433" lon="13.490355"><ele>144.0</ele><time>2026-05-03T12:46:54.195Z</time></trkpt><trkpt lat="46.1147367" lon="13.4905933"><ele>144.0</ele><time>2026-05-03T12:46:55.195Z</time></trkpt><trkpt lat="46.1148467" lon="13.4908283"><ele>145.0</ele><time>2026-05-03T12:46:56.195Z</time></trkpt><trkpt lat="46.11496" lon="13.4910733"><ele>146.0</ele><time>2026-05-03T12:46:57.195Z</time></trkpt><trkpt lat="46.1150667" lon="13.491305"><ele>147.0</ele><time>2026-05-03T12:46:58.195Z</time></trkpt><trkpt lat="46.1151817" lon="13.4915183"><ele>147.0</ele><time>2026-05-03T12:46:59.195Z</time></trkpt><trkpt lat="46.1153033" lon="13.49172"><ele>147.0</ele><time>2026-05-03T12:47:00.195Z</time></trkpt><trkpt lat="46.115425" lon="13.4919033"><ele>147.0</ele><time>2026-05-03T12:47:01.195Z</time></trkpt><trkpt lat="46.115555" lon="13.4920483"><ele>147.0</ele><time>2026-05-03T12:47:02.195Z</time></trkpt><trkpt lat="46.1156967" lon="13.4921683"><ele>147.0</ele><time>2026-05-03T12:47:03.195Z</time></trkpt><trkpt lat="46.1158417" lon="13.49226"><ele>147.0</ele><time>2026-05-03T12:47:04.195Z</time></trkpt><trkpt lat="46.115995" lon="13.4923467"><ele>147.0</ele><time>2026-05-03T12:47:05.195Z</time></trkpt><trkpt lat="46.1161583" lon="13.4924483"><ele>147.0</ele><time>2026-05-03T12:47:06.195Z</time></trkpt><trkpt lat="46.1163217" lon="13.4925483"><ele>147.0</ele><time>2026-05-03T12:47:07.195Z</time></trkpt><trkpt lat="46.1164983" lon="13.4926367"><ele>148.33333333333334</ele><time>2026-05-03T12:47:08.195Z</time></trkpt><trkpt lat="46.1166833" lon="13.49271"><ele>149.66666666666669</ele><time>2026-05-03T12:47:09.195Z</time></trkpt><trkpt lat="46.1168617" lon="13.4927733"><ele>151.0</ele><time>2026-05-03T12:47:10.195Z</time></trkpt><trkpt lat="46.1170283" lon="13.4928433"><ele>151.0</ele><time>2026-05-03T12:47:11.195Z</time></trkpt><trkpt lat="46.1171867" lon="13.492905"><ele>151.0</ele><time>2026-05-03T12:47:12.195Z</time></trkpt><trkpt lat="46.1173417" lon="13.49296"><ele>151.0</ele><time>2026-05-03T12:47:13.195Z</time></trkpt><trkpt lat="46.1174933" lon="13.4930017"><ele>150.33333333333334</ele><time>2026-05-03T12:47:14.195Z</time></trkpt><trkpt lat="46.1176417" lon="13.49305"><ele>149.66666666666666</ele><time>2026-05-03T12:47:15.195Z</time></trkpt><trkpt lat="46.1177933" lon="13.493105"><ele>149.0</ele><time>2026-05-03T12:47:16.195Z</time></trkpt><trkpt lat="46.1179417" lon="13.49316"><ele>149.0</ele><time>2026-05-03T12:47:17.195Z</time></trkpt><trkpt lat="46.118095" lon="13.49322"><ele>149.0</ele><time>2026-05-03T12:47:18.195Z</time></trkpt><trkpt lat="46.1182433" lon="13.49328"><ele>149.0</ele><time>2026-05-03T12:47:19.195Z</time></trkpt><trkpt lat="46.1183917" lon="13.4933417"><ele>149.25</ele><time>2026-05-03T12:47:20.195Z</time></trkpt><trkpt lat="46.11853" lon="13.4933817"><ele>149.5</ele><time>2026-05-03T12:47:21.195Z</time></trkpt><trkpt lat="46.1186617" lon="13.49344"><ele>149.75</ele><time>2026-05-03T12:47:22.195Z</time></trkpt><trkpt lat="46.1187683" lon="13.493525"><ele>150.0</ele><time>2026-05-03T12:47:23.195Z</time></trkpt><trkpt lat="46.11884" lon="13.4936483"><ele>148.75</ele><time>2026-05-03T12:47:24.195Z</time></trkpt><trkpt lat="46.1188683" lon="13.4937983"><ele>147.5</ele><time>2026-05-03T12:47:25.195Z</time></trkpt><trkpt lat="46.1188517" lon="13.4939533"><ele>146.25</ele><time>2026-05-03T12:47:26.195Z</time></trkpt><trkpt lat="46.11879" lon="13.49412"><ele>145.0</ele><time>2026-05-03T12:47:27.195Z</time></trkpt><trkpt lat="46.1186917" lon="13.4942733"><ele>145.0</ele><time>2026-05-03T12:47:28.195Z</time></trkpt><trkpt lat="46.1185717" lon="13.4944283"><ele>145.0</ele><time>2026-05-03T12:47:29.195Z</time></trkpt><trkpt lat="46.118445" lon="13.4945833"><ele>145.0</ele><time>2026-05-03T12:47:30.195Z</time></trkpt><trkpt lat="46.1183167" lon="13.4947433"><ele>144.33333333333334</ele><time>2026-05-03T12:47:31.195Z</time></trkpt><trkpt lat="46.1181883" lon="13.4949067"><ele>143.66666666666666</ele><time>2026-05-03T12:47:32.195Z</time></trkpt><trkpt lat="46.1180467" lon="13.495095"><ele>143.0</ele><time>2026-05-03T12:47:33.195Z</time></trkpt><trkpt lat="46.1178867" lon="13.4953017"><ele>142.33333333333331</ele><time>2026-05-03T12:47:34.195Z</time></trkpt><trkpt lat="46.1177267" lon="13.4955083"><ele>141.66666666666666</ele><time>2026-05-03T12:47:35.195Z</time></trkpt><trkpt lat="46.1175617" lon="13.4957233"><ele>141.0</ele><time>2026-05-03T12:47:36.195Z</time></trkpt><trkpt lat="46.1173883" lon="13.4959433"><ele>140.5</ele><time>2026-05-03T12:47:37.195Z</time></trkpt><trkpt lat="46.1172033" lon="13.496175"><ele>140.0</ele><time>2026-05-03T12:47:38.195Z</time></trkpt><trkpt lat="46.1170233" lon="13.496405"><ele>139.66666666666666</ele><time>2026-05-03T12:47:39.195Z</time></trkpt><trkpt lat="46.1168517" lon="13.496625"><ele>139.33333333333334</ele><time>2026-05-03T12:47:40.195Z</time></trkpt><trkpt lat="46.1166983" lon="13.4968467"><ele>139.0</ele><time>2026-05-03T12:47:41.195Z</time></trkpt><trkpt lat="46.1165467" lon="13.4970383"><ele>138.66666666666669</ele><time>2026-05-03T12:47:42.195Z</time></trkpt><trkpt lat="46.116405" lon="13.4972267"><ele>138.33333333333334</ele><time>2026-05-03T12:47:43.195Z</time></trkpt><trkpt lat="46.1162783" lon="13.497415"><ele>138.0</ele><time>2026-05-03T12:47:44.195Z</time></trkpt><trkpt lat="46.1161783" lon="13.4976167"><ele>138.0</ele><time>2026-05-03T12:47:45.195Z</time></trkpt><trkpt lat="46.1160917" lon="13.49781"><ele>138.0</ele><time>2026-05-03T12:47:46.195Z</time></trkpt><trkpt lat="46.1160233" lon="13.4979883"><ele>138.0</ele><time>2026-05-03T12:47:47.195Z</time></trkpt><trkpt lat="46.1159717" lon="13.498155"><ele>138.0</ele><time>2026-05-03T12:47:48.195Z</time></trkpt><trkpt lat="46.1159233" lon="13.4983233"><ele>139.0</ele><time>2026-05-03T12:47:49.195Z</time></trkpt><trkpt lat="46.11587" lon="13.4984983"><ele>140.0</ele><time>2026-05-03T12:47:50.195Z</time></trkpt><trkpt lat="46.1158033" lon="13.49867"><ele>141.0</ele><time>2026-05-03T12:47:51.195Z</time></trkpt><trkpt lat="46.1157483" lon="13.4988567"><ele>142.0</ele><time>2026-05-03T12:47:52.195Z</time></trkpt><trkpt lat="46.1156933" lon="13.4990633"><ele>142.5</ele><time>2026-05-03T12:47:53.195Z</time></trkpt><trkpt lat="46.1156367" lon="13.4992717"><ele>143.0</ele><time>2026-05-03T12:47:54.195Z</time></trkpt><trkpt lat="46.115585" lon="13.49947"><ele>143.5</ele><time>2026-05-03T12:47:55.195Z</time></trkpt><trkpt lat="46.115535" lon="13.4996517"><ele>144.0</ele><time>2026-05-03T12:47:56.195Z</time></trkpt><trkpt lat="46.115465" lon="13.499825"><ele>144.25</ele><time>2026-05-03T12:47:57.195Z</time></trkpt><trkpt lat="46.1154033" lon="13.499995"><ele>144.5</ele><time>2026-05-03T12:47:58.195Z</time></trkpt><trkpt lat="46.1153333" lon="13.50017"><ele>144.75</ele><time>2026-05-03T12:47:59.195Z</time></trkpt><trkpt lat="46.1152617" lon="13.5003467"><ele>145.0</ele><time>2026-05-03T12:48:00.195Z</time></trkpt><trkpt lat="46.1151917" lon="13.50053"><ele>145.0</ele><time>2026-05-03T12:48:01.195Z</time></trkpt><trkpt lat="46.1151167" lon="13.5007017"><ele>145.0</ele><time>2026-05-03T12:48:02.195Z</time></trkpt><trkpt lat="46.11505" lon="13.5008683"><ele>145.0</ele><time>2026-05-03T12:48:03.195Z</time></trkpt><trkpt lat="46.114995" lon="13.501005"><ele>145.0</ele><time>2026-05-03T12:48:04.195Z</time></trkpt><trkpt lat="46.1149533" lon="13.5011183"><ele>145.0</ele><time>2026-05-03T12:48:05.195Z</time></trkpt><trkpt lat="46.1149267" lon="13.5012017"><ele>145.0</ele><time>2026-05-03T12:48:06.195Z</time></trkpt><trkpt lat="46.1149983" lon="13.5012683"><ele>145.0</ele><time>2026-05-03T12:48:09.195Z</time></trkpt><trkpt lat="46.11505" lon="13.5011867"><ele>145.0</ele><time>2026-05-03T12:48:11.195Z</time></trkpt><trkpt lat="46.1150967" lon="13.5010117"><ele>145.0</ele><time>2026-05-03T12:48:13.196Z</time></trkpt><trkpt lat="46.1151183" lon="13.50091"><ele>145.0</ele><time>2026-05-03T12:48:14.195Z</time></trkpt><trkpt lat="46.1151483" lon="13.50079"><ele>145.0</ele><time>2026-05-03T12:48:15.195Z</time></trkpt><trkpt lat="46.1151917" lon="13.50067"><ele>145.0</ele><time>2026-05-03T12:48:16.195Z</time></trkpt><trkpt lat="46.1152433" lon="13.5005417"><ele>145.0</ele><time>2026-05-03T12:48:17.196Z</time></trkpt><trkpt lat="46.1153033" lon="13.500415"><ele>145.0</ele><time>2026-05-03T12:48:18.195Z</time></trkpt><trkpt lat="46.115355" lon="13.5002983"><ele>145.0</ele><time>2026-05-03T12:48:19.195Z</time></trkpt><trkpt lat="46.1154" lon="13.500185"><ele>145.2</ele><time>2026-05-03T12:48:20.195Z</time></trkpt><trkpt lat="46.115445" lon="13.5000683"><ele>145.4</ele><time>2026-05-03T12:48:21.195Z</time></trkpt><trkpt lat="46.1154917" lon="13.499945"><ele>145.6</ele><time>2026-05-03T12:48:22.195Z</time></trkpt><trkpt lat="46.1155433" lon="13.4998033"><ele>145.8</ele><time>2026-05-03T12:48:23.195Z</time></trkpt><trkpt lat="46.1155983" lon="13.499635"><ele>146.0</ele><time>2026-05-03T12:48:24.195Z</time></trkpt><trkpt lat="46.11565" lon="13.4994583"><ele>146.33333333333331</ele><time>2026-05-03T12:48:25.195Z</time></trkpt><trkpt lat="46.115695" lon="13.4992617"><ele>146.66666666666666</ele><time>2026-05-03T12:48:26.195Z</time></trkpt><trkpt lat="46.1157533" lon="13.4990433"><ele>147.0</ele><time>2026-05-03T12:48:27.195Z</time></trkpt><trkpt lat="46.115815" lon="13.498815"><ele>145.33333333333334</ele><time>2026-05-03T12:48:28.195Z</time></trkpt><trkpt lat="46.1158717" lon="13.4985633"><ele>143.66666666666669</ele><time>2026-05-03T12:48:29.195Z</time></trkpt><trkpt lat="46.1159383" lon="13.4983183"><ele>142.0</ele><time>2026-05-03T12:48:30.195Z</time></trkpt><trkpt lat="46.1160117" lon="13.4980883"><ele>140.66666666666669</ele><time>2026-05-03T12:48:31.195Z</time></trkpt><trkpt lat="46.1160917" lon="13.4978667"><ele>139.33333333333334</ele><time>2026-05-03T12:48:32.195Z</time></trkpt><trkpt lat="46.116185" lon="13.4976617"><ele>138.0</ele><time>2026-05-03T12:48:33.195Z</time></trkpt><trkpt lat="46.116285" lon="13.4974617"><ele>138.0</ele><time>2026-05-03T12:48:34.195Z</time></trkpt><trkpt lat="46.1164017" lon="13.4972733"><ele>138.0</ele><time>2026-05-03T12:48:35.195Z</time></trkpt><trkpt lat="46.1165333" lon="13.4970983"><ele>138.0</ele><time>2026-05-03T12:48:36.195Z</time></trkpt><trkpt lat="46.1166667" lon="13.496925"><ele>138.0</ele><time>2026-05-03T12:48:37.195Z</time></trkpt><trkpt lat="46.11682" lon="13.496735"><ele>138.0</ele><time>2026-05-03T12:48:38.195Z</time></trkpt><trkpt lat="46.1169583" lon="13.4965617"><ele>138.0</ele><time>2026-05-03T12:48:39.195Z</time></trkpt><trkpt lat="46.11709" lon="13.4963833"><ele>138.66666666666666</ele><time>2026-05-03T12:48:40.195Z</time></trkpt><trkpt lat="46.1172183" lon="13.4962167"><ele>139.33333333333331</ele><time>2026-05-03T12:48:41.195Z</time></trkpt><trkpt lat="46.1173517" lon="13.4960467"><ele>140.0</ele><time>2026-05-03T12:48:42.195Z</time></trkpt><trkpt lat="46.1174833" lon="13.4958783"><ele>140.33333333333331</ele><time>2026-05-03T12:48:43.195Z</time></trkpt><trkpt lat="46.1176183" lon="13.4957067"><ele>140.66666666666666</ele><time>2026-05-03T12:48:44.195Z</time></trkpt><trkpt lat="46.1177467" lon="13.4955417"><ele>141.0</ele><time>2026-05-03T12:48:45.195Z</time></trkpt><trkpt lat="46.11786" lon="13.4953883"><ele>141.5</ele><time>2026-05-03T12:48:46.194Z</time></trkpt><trkpt lat="46.1179733" lon="13.4952367"><ele>142.0</ele><time>2026-05-03T12:48:47.194Z</time></trkpt><trkpt lat="46.1180833" lon="13.495095"><ele>142.5</ele><time>2026-05-03T12:48:48.194Z</time></trkpt><trkpt lat="46.1181733" lon="13.4949767"><ele>143.0</ele><time>2026-05-03T12:48:49.194Z</time></trkpt><trkpt lat="46.1182483" lon="13.4948817"><ele>143.0</ele><time>2026-05-03T12:48:50.194Z</time></trkpt><trkpt lat="46.1183167" lon="13.49481"><ele>143.0</ele><time>2026-05-03T12:48:51.194Z</time></trkpt><trkpt lat="46.1183767" lon="13.49475"><ele>143.0</ele><time>2026-05-03T12:48:52.194Z</time></trkpt><trkpt lat="46.1184283" lon="13.4946617"><ele>143.0</ele><time>2026-05-03T12:48:54.194Z</time></trkpt><trkpt lat="46.1183433" lon="13.4946967"><ele>143.0</ele><time>2026-05-03T12:48:57.194Z</time></trkpt><trkpt lat="46.11829" lon="13.494785"><ele>143.0</ele><time>2026-05-03T12:48:58.194Z</time></trkpt><trkpt lat="46.1182283" lon="13.494875"><ele>143.0</ele><time>2026-05-03T12:48:59.194Z</time></trkpt><trkpt lat="46.1181667" lon="13.4949383"><ele>143.0</ele><time>2026-05-03T12:49:00.194Z</time></trkpt><trkpt lat="46.1181067" lon="13.4948867"><ele>143.0</ele><time>2026-05-03T12:49:02.194Z</time></trkpt><trkpt lat="46.118085" lon="13.4947933"><ele>143.0</ele><time>2026-05-03T12:49:03.194Z</time></trkpt><trkpt lat="46.118045" lon="13.4946767"><ele>143.0</ele><time>2026-05-03T12:49:04.194Z</time></trkpt><trkpt lat="46.1179767" lon="13.4945583"><ele>143.0</ele><time>2026-05-03T12:49:05.194Z</time></trkpt><trkpt lat="46.117895" lon="13.4944533"><ele>143.25</ele><time>2026-05-03T12:49:06.194Z</time></trkpt><trkpt lat="46.11781" lon="13.49434"><ele>143.5</ele><time>2026-05-03T12:49:07.194Z</time></trkpt><trkpt lat="46.11772" lon="13.4942267"><ele>143.75</ele><time>2026-05-03T12:49:08.194Z</time></trkpt><trkpt lat="46.1176317" lon="13.4941133"><ele>144.0</ele><time>2026-05-03T12:49:09.194Z</time></trkpt><trkpt lat="46.11753" lon="13.4940067"><ele>144.0</ele><time>2026-05-03T12:49:10.194Z</time></trkpt><trkpt lat="46.1174267" lon="13.4939067"><ele>144.0</ele><time>2026-05-03T12:49:11.194Z</time></trkpt><trkpt lat="46.1173167" lon="13.4938183"><ele>144.0</ele><time>2026-05-03T12:49:12.194Z</time></trkpt><trkpt lat="46.1172067" lon="13.4937383"><ele>144.0</ele><time>2026-05-03T12:49:13.194Z</time></trkpt><trkpt lat="46.11707" lon="13.4936633"><ele>144.25</ele><time>2026-05-03T12:49:14.194Z</time></trkpt><trkpt lat="46.1169383" lon="13.4935967"><ele>144.5</ele><time>2026-05-03T12:49:15.194Z</time></trkpt><trkpt lat="46.1168317" lon="13.4935383"><ele>144.75</ele><time>2026-05-03T12:49:16.194Z</time></trkpt><trkpt lat="46.1167317" lon="13.49348"><ele>145.0</ele><time>2026-05-03T12:49:17.194Z</time></trkpt><trkpt lat="46.116645" lon="13.4934333"><ele>144.4</ele><time>2026-05-03T12:49:18.194Z</time></trkpt><trkpt lat="46.1165667" lon="13.4933933"><ele>143.8</ele><time>2026-05-03T12:49:19.194Z</time></trkpt><trkpt lat="46.1164983" lon="13.4933533"><ele>143.2</ele><time>2026-05-03T12:49:20.194Z</time></trkpt><trkpt lat="46.116405" lon="13.4933283"><ele>142.6</ele><time>2026-05-03T12:49:22.194Z</time></trkpt><trkpt lat="46.116315" lon="13.4933333"><ele>142.0</ele><time>2026-05-03T12:49:24.194Z</time></trkpt><trkpt lat="46.11618" lon="13.4933317"><ele>142.0</ele><time>2026-05-03T12:49:26.194Z</time></trkpt><trkpt lat="46.116105" lon="13.49331"><ele>142.0</ele><time>2026-05-03T12:49:27.194Z</time></trkpt><trkpt lat="46.1160233" lon="13.4932767"><ele>142.0</ele><time>2026-05-03T12:49:28.194Z</time></trkpt><trkpt lat="46.11592" lon="13.493235"><ele>142.0</ele><time>2026-05-03T12:49:29.194Z</time></trkpt><trkpt lat="46.1158133" lon="13.49318"><ele>142.0</ele><time>2026-05-03T12:49:30.194Z</time></trkpt><trkpt lat="46.1157083" lon="13.493135"><ele>141.6</ele><time>2026-05-03T12:49:31.194Z</time></trkpt><trkpt lat="46.1156067" lon="13.4930867"><ele>141.2</ele><time>2026-05-03T12:49:32.194Z</time></trkpt><trkpt lat="46.1155117" lon="13.4930433"><ele>140.8</ele><time>2026-05-03T12:49:33.194Z</time></trkpt><trkpt lat="46.115415" lon="13.4930317"><ele>140.4</ele><time>2026-05-03T12:49:34.194Z</time></trkpt><trkpt lat="46.1153183" lon="13.493055"><ele>140.0</ele><time>2026-05-03T12:49:35.194Z</time></trkpt><trkpt lat="46.1152433" lon="13.4931117"><ele>140.0</ele><time>2026-05-03T12:49:36.194Z</time></trkpt><trkpt lat="46.11519" lon="13.493175"><ele>140.0</ele><time>2026-05-03T12:49:37.194Z</time></trkpt><trkpt lat="46.1151567" lon="13.4932533"><ele>140.0</ele><time>2026-05-03T12:49:38.194Z</time></trkpt><trkpt lat="46.1151183" lon="13.493335"><ele>140.0</ele><time>2026-05-03T12:49:39.194Z</time></trkpt><trkpt lat="46.11509" lon="13.4934383"><ele>140.0</ele><time>2026-05-03T12:49:40.194Z</time></trkpt><trkpt lat="46.1150567" lon="13.4935467"><ele>140.0</ele><time>2026-05-03T12:49:41.194Z</time></trkpt><trkpt lat="46.115015" lon="13.4936367"><ele>140.0</ele><time>2026-05-03T12:49:42.194Z</time></trkpt><trkpt lat="46.11493" lon="13.4937533"><ele>139.4</ele><time>2026-05-03T12:49:44.194Z</time></trkpt><trkpt lat="46.1148383" lon="13.4938233"><ele>138.8</ele><time>2026-05-03T12:49:46.194Z</time></trkpt><trkpt lat="46.114755" lon="13.4938733"><ele>138.2</ele><time>2026-05-03T12:49:48.194Z</time></trkpt><trkpt lat="46.1147183" lon="13.49397"><ele>137.6</ele><time>2026-05-03T12:49:51.194Z</time></trkpt><trkpt lat="46.11473" lon="13.4941083"><ele>137.0</ele><time>2026-05-03T12:49:53.195Z</time></trkpt><trkpt lat="46.1147517" lon="13.494285"><ele>137.0</ele><time>2026-05-03T12:49:55.194Z</time></trkpt><trkpt lat="46.114765" lon="13.4943783"><ele>137.0</ele><time>2026-05-03T12:49:56.194Z</time></trkpt><trkpt lat="46.11478" lon="13.4944667"><ele>137.0</ele><time>2026-05-03T12:49:57.194Z</time></trkpt><trkpt lat="46.1148083" lon="13.4946133"><ele>137.0</ele><time>2026-05-03T12:49:59.194Z</time></trkpt><trkpt lat="46.11482" lon="13.4947983"><ele>137.0</ele><time>2026-05-03T12:50:01.194Z</time></trkpt><trkpt lat="46.114825" lon="13.4949017"><ele>137.0</ele><time>2026-05-03T12:50:02.194Z</time></trkpt><trkpt lat="46.114815" lon="13.4950567"><ele>137.33333333333331</ele><time>2026-05-03T12:50:04.194Z</time></trkpt><trkpt lat="46.1148533" lon="13.49521"><ele>137.66666666666666</ele><time>2026-05-03T12:50:06.194Z</time></trkpt><trkpt lat="46.114885" lon="13.4953117"><ele>138.0</ele><time>2026-05-03T12:50:08.194Z</time></trkpt><trkpt lat="46.1148783" lon="13.49543"><ele>138.33333333333334</ele><time>2026-05-03T12:50:11.194Z</time></trkpt><trkpt lat="46.1148433" lon="13.4955133"><ele>138.66666666666669</ele><time>2026-05-03T12:50:13.194Z</time></trkpt><trkpt lat="46.1148017" lon="13.4956167"><ele>139.0</ele><time>2026-05-03T12:50:15.194Z</time></trkpt><trkpt lat="46.1147767" lon="13.4957233"><ele>139.0</ele><time>2026-05-03T12:50:17.194Z</time></trkpt><trkpt lat="46.1147617" lon="13.4958633"><ele>139.0</ele><time>2026-05-03T12:50:19.194Z</time></trkpt><trkpt lat="46.114745" lon="13.4960467"><ele>139.0</ele><time>2026-05-03T12:50:21.194Z</time></trkpt><trkpt lat="46.114735" lon="13.4961417"><ele>139.0</ele><time>2026-05-03T12:50:22.194Z</time></trkpt><trkpt lat="46.114725" lon="13.4962333"><ele>139.0</ele><time>2026-05-03T12:50:23.194Z</time></trkpt><trkpt lat="46.1146983" lon="13.4963983"><ele>139.0</ele><time>2026-05-03T12:50:25.194Z</time></trkpt><trkpt lat="46.1146883" lon="13.496555"><ele>139.0</ele><time>2026-05-03T12:50:27.194Z</time></trkpt><trkpt lat="46.114665" lon="13.4967"><ele>139.0</ele><time>2026-05-03T12:50:29.194Z</time></trkpt><trkpt lat="46.1146533" lon="13.4968617"><ele>139.0</ele><time>2026-05-03T12:50:31.194Z</time></trkpt><trkpt lat="46.11464" lon="13.49696"><ele>139.0</ele><time>2026-05-03T12:50:33.194Z</time></trkpt><trkpt lat="46.1145817" lon="13.4972267"><ele>139.33333333333334</ele><time>2026-05-03T12:51:45.194Z</time></trkpt><trkpt lat="46.1145567" lon="13.4973267"><ele>139.66666666666669</ele><time>2026-05-03T12:51:47.194Z</time></trkpt><trkpt lat="46.114575" lon="13.4974367"><ele>140.0</ele><time>2026-05-03T12:51:49.194Z</time></trkpt><trkpt lat="46.11457" lon="13.4975717"><ele>140.33333333333334</ele><time>2026-05-03T12:52:07.194Z</time></trkpt><trkpt lat="46.1145317" lon="13.4977267"><ele>140.66666666666666</ele><time>2026-05-03T12:52:09.194Z</time></trkpt><trkpt lat="46.1145367" lon="13.497825"><ele>141.0</ele><time>2026-05-03T12:52:10.194Z</time></trkpt><trkpt lat="46.11456" lon="13.4980033"><ele>141.0</ele><time>2026-05-03T12:52:12.194Z</time></trkpt><trkpt lat="46.1145517" lon="13.4981167"><ele>141.0</ele><time>2026-05-03T12:52:13.194Z</time></trkpt><trkpt lat="46.1145383" lon="13.4982433"><ele>141.0</ele><time>2026-05-03T12:52:14.194Z</time></trkpt><trkpt lat="46.11453" lon="13.4983733"><ele>141.0</ele><time>2026-05-03T12:52:15.194Z</time></trkpt><trkpt lat="46.114515" lon="13.4984917"><ele>141.0</ele><time>2026-05-03T12:52:16.194Z</time></trkpt><trkpt lat="46.1145017" lon="13.49863"><ele>141.0</ele><time>2026-05-03T12:52:17.194Z</time></trkpt><trkpt lat="46.11449" lon="13.49878"><ele>141.0</ele><time>2026-05-03T12:52:18.194Z</time></trkpt><trkpt lat="46.1144783" lon="13.49891"><ele>141.0</ele><time>2026-05-03T12:52:19.194Z</time></trkpt><trkpt lat="46.114475" lon="13.49902"><ele>141.0</ele><time>2026-05-03T12:52:20.194Z</time></trkpt><trkpt lat="46.114485" lon="13.4991667"><ele>141.0</ele><time>2026-05-03T12:52:22.194Z</time></trkpt><trkpt lat="46.1144967" lon="13.499315"><ele>141.0</ele><time>2026-05-03T12:52:24.194Z</time></trkpt><trkpt lat="46.1144683" lon="13.4994083"><ele>141.0</ele><time>2026-05-03T12:52:25.194Z</time></trkpt><trkpt lat="46.1144317" lon="13.49952"><ele>141.5</ele><time>2026-05-03T12:52:26.194Z</time></trkpt><trkpt lat="46.1144017" lon="13.49968"><ele>142.0</ele><time>2026-05-03T12:52:27.194Z</time></trkpt><trkpt lat="46.11438" lon="13.4998367"><ele>142.5</ele><time>2026-05-03T12:52:28.194Z</time></trkpt><trkpt lat="46.1143583" lon="13.5000033"><ele>143.0</ele><time>2026-05-03T12:52:29.194Z</time></trkpt><trkpt lat="46.114335" lon="13.5001617"><ele>143.0</ele><time>2026-05-03T12:52:30.194Z</time></trkpt><trkpt lat="46.114315" lon="13.500325"><ele>143.0</ele><time>2026-05-03T12:52:31.194Z</time></trkpt><trkpt lat="46.1142933" lon="13.5005083"><ele>143.0</ele><time>2026-05-03T12:52:32.194Z</time></trkpt><trkpt lat="46.114265" lon="13.5006967"><ele>143.0</ele><time>2026-05-03T12:52:33.194Z</time></trkpt><trkpt lat="46.114245" lon="13.50088"><ele>143.75</ele><time>2026-05-03T12:52:34.194Z</time></trkpt><trkpt lat="46.1142183" lon="13.5010767"><ele>144.5</ele><time>2026-05-03T12:52:35.194Z</time></trkpt><trkpt lat="46.11418" lon="13.5012917"><ele>145.25</ele><time>2026-05-03T12:52:36.194Z</time></trkpt><trkpt lat="46.1141433" lon="13.5015"><ele>146.0</ele><time>2026-05-03T12:52:37.194Z</time></trkpt><trkpt lat="46.1141033" lon="13.5017133"><ele>146.75</ele><time>2026-05-03T12:52:38.194Z</time></trkpt><trkpt lat="46.11407" lon="13.5019233"><ele>147.5</ele><time>2026-05-03T12:52:39.194Z</time></trkpt><trkpt lat="46.1140367" lon="13.5021333"><ele>148.25</ele><time>2026-05-03T12:52:40.194Z</time></trkpt><trkpt lat="46.1140083" lon="13.502335"><ele>149.0</ele><time>2026-05-03T12:52:41.194Z</time></trkpt><trkpt lat="46.1139733" lon="13.50254"><ele>149.0</ele><time>2026-05-03T12:52:42.194Z</time></trkpt><trkpt lat="46.1139367" lon="13.5027467"><ele>149.0</ele><time>2026-05-03T12:52:43.194Z</time></trkpt><trkpt lat="46.1139033" lon="13.5029567"><ele>149.0</ele><time>2026-05-03T12:52:44.194Z</time></trkpt><trkpt lat="46.1138667" lon="13.5031583"><ele>149.0</ele><time>2026-05-03T12:52:45.194Z</time></trkpt><trkpt lat="46.113835" lon="13.5033383"><ele>147.5</ele><time>2026-05-03T12:52:46.195Z</time></trkpt><trkpt lat="46.1138033" lon="13.5035267"><ele>146.0</ele><time>2026-05-03T12:52:47.194Z</time></trkpt><trkpt lat="46.1137683" lon="13.5037133"><ele>144.5</ele><time>2026-05-03T12:52:48.194Z</time></trkpt><trkpt lat="46.1137333" lon="13.5038917"><ele>143.0</ele><time>2026-05-03T12:52:49.194Z</time></trkpt><trkpt lat="46.1137017" lon="13.5040733"><ele>143.0</ele><time>2026-05-03T12:52:50.194Z</time></trkpt><trkpt lat="46.11368" lon="13.5042433"><ele>143.0</ele><time>2026-05-03T12:52:51.194Z</time></trkpt><trkpt lat="46.11366" lon="13.5044283"><ele>143.0</ele><time>2026-05-03T12:52:52.194Z</time></trkpt><trkpt lat="46.1136483" lon="13.5046217"><ele>143.0</ele><time>2026-05-03T12:52:53.194Z</time></trkpt><trkpt lat="46.1136467" lon="13.5048267"><ele>143.0</ele><time>2026-05-03T12:52:54.194Z</time></trkpt><trkpt lat="46.11365" lon="13.5050367"><ele>143.0</ele><time>2026-05-03T12:52:55.194Z</time></trkpt><trkpt lat="46.11366" lon="13.5052517"><ele>143.0</ele><time>2026-05-03T12:52:56.194Z</time></trkpt><trkpt lat="46.1136667" lon="13.5054717"><ele>143.0</ele><time>2026-05-03T12:52:57.194Z</time></trkpt><trkpt lat="46.113675" lon="13.5056833"><ele>143.66666666666666</ele><time>2026-05-03T12:52:58.194Z</time></trkpt><trkpt lat="46.1136867" lon="13.5059067"><ele>144.33333333333334</ele><time>2026-05-03T12:52:59.194Z</time></trkpt><trkpt lat="46.1137017" lon="13.50613"><ele>145.0</ele><time>2026-05-03T12:53:00.194Z</time></trkpt><trkpt lat="46.113715" lon="13.5063433"><ele>146.25</ele><time>2026-05-03T12:53:01.194Z</time></trkpt><trkpt lat="46.1137317" lon="13.5065517"><ele>147.5</ele><time>2026-05-03T12:53:02.194Z</time></trkpt><trkpt lat="46.1137467" lon="13.506735"><ele>148.75</ele><time>2026-05-03T12:53:03.194Z</time></trkpt><trkpt lat="46.1137617" lon="13.50692"><ele>150.0</ele><time>2026-05-03T12:53:04.194Z</time></trkpt><trkpt lat="46.1137867" lon="13.50711"><ele>151.25</ele><time>2026-05-03T12:53:05.194Z</time></trkpt><trkpt lat="46.1138233" lon="13.507295"><ele>152.5</ele><time>2026-05-03T12:53:06.194Z</time></trkpt><trkpt lat="46.113865" lon="13.5074783"><ele>153.75</ele><time>2026-05-03T12:53:07.194Z</time></trkpt><trkpt lat="46.1139233" lon="13.5076617"><ele>155.0</ele><time>2026-05-03T12:53:08.194Z</time></trkpt><trkpt lat="46.1139933" lon="13.5078383"><ele>155.0</ele><time>2026-05-03T12:53:09.194Z</time></trkpt><trkpt lat="46.1140583" lon="13.5080017"><ele>155.0</ele><time>2026-05-03T12:53:10.194Z</time></trkpt><trkpt lat="46.1141183" lon="13.508145"><ele>155.0</ele><time>2026-05-03T12:53:11.194Z</time></trkpt><trkpt lat="46.11417" lon="13.50827"><ele>155.0</ele><time>2026-05-03T12:53:12.193Z</time></trkpt><trkpt lat="46.1142267" lon="13.508385"><ele>155.0</ele><time>2026-05-03T12:53:13.193Z</time></trkpt><trkpt lat="46.1142767" lon="13.5084833"><ele>153.66666666666666</ele><time>2026-05-03T12:53:14.193Z</time></trkpt><trkpt lat="46.1143183" lon="13.5085633"><ele>152.33333333333331</ele><time>2026-05-03T12:53:15.193Z</time></trkpt><trkpt lat="46.1143367" lon="13.5086733"><ele>151.0</ele><time>2026-05-03T12:53:17.193Z</time></trkpt><trkpt lat="46.1142667" lon="13.5087833"><ele>149.66666666666666</ele><time>2026-05-03T12:53:19.194Z</time></trkpt><trkpt lat="46.1141967" lon="13.5088583"><ele>148.33333333333334</ele><time>2026-05-03T12:53:20.193Z</time></trkpt><trkpt lat="46.11414" lon="13.5089283"><ele>147.0</ele><time>2026-05-03T12:53:21.193Z</time></trkpt><trkpt lat="46.1140817" lon="13.5090117"><ele>148.83333333333334</ele><time>2026-05-03T12:53:22.193Z</time></trkpt><trkpt lat="46.1140133" lon="13.5090933"><ele>150.66666666666666</ele><time>2026-05-03T12:53:23.193Z</time></trkpt><trkpt lat="46.1139433" lon="13.509175"><ele>152.5</ele><time>2026-05-03T12:53:24.193Z</time></trkpt><trkpt lat="46.1138783" lon="13.5092417"><ele>154.33333333333331</ele><time>2026-05-03T12:53:25.193Z</time></trkpt><trkpt lat="46.1138167" lon="13.50931"><ele>156.16666666666666</ele><time>2026-05-03T12:53:26.193Z</time></trkpt><trkpt lat="46.1137667" lon="13.50939"><ele>158.0</ele><time>2026-05-03T12:53:27.194Z</time></trkpt><trkpt lat="46.113735" lon="13.5094933"><ele>159.0</ele><time>2026-05-03T12:53:28.193Z</time></trkpt><trkpt lat="46.1137317" lon="13.509605"><ele>160.0</ele><time>2026-05-03T12:53:29.193Z</time></trkpt><trkpt lat="46.113745" lon="13.5097317"><ele>161.0</ele><time>2026-05-03T12:53:30.193Z</time></trkpt><trkpt lat="46.1137617" lon="13.5098817"><ele>162.0</ele><time>2026-05-03T12:53:31.193Z</time></trkpt><trkpt lat="46.1137767" lon="13.5100483"><ele>163.0</ele><time>2026-05-03T12:53:32.193Z</time></trkpt><trkpt lat="46.113795" lon="13.5102317"><ele>162.75</ele><time>2026-05-03T12:53:33.193Z</time></trkpt><trkpt lat="46.1138083" lon="13.5104233"><ele>162.5</ele><time>2026-05-03T12:53:34.193Z</time></trkpt><trkpt lat="46.1138267" lon="13.510615"><ele>162.25</ele><time>2026-05-03T12:53:35.193Z</time></trkpt><trkpt lat="46.1138417" lon="13.5108"><ele>162.0</ele><time>2026-05-03T12:53:36.193Z</time></trkpt><trkpt lat="46.1138533" lon="13.51098"><ele>162.0</ele><time>2026-05-03T12:53:37.193Z</time></trkpt><trkpt lat="46.1138467" lon="13.5111683"><ele>162.0</ele><time>2026-05-03T12:53:38.193Z</time></trkpt><trkpt lat="46.1138483" lon="13.511335"><ele>162.0</ele><time>2026-05-03T12:53:39.193Z</time></trkpt><trkpt lat="46.1138533" lon="13.5115017"><ele>162.0</ele><time>2026-05-03T12:53:40.193Z</time></trkpt><trkpt lat="46.1138517" lon="13.5116583"><ele>162.25</ele><time>2026-05-03T12:53:41.194Z</time></trkpt><trkpt lat="46.11386" lon="13.5118133"><ele>162.5</ele><time>2026-05-03T12:53:42.193Z</time></trkpt><trkpt lat="46.113875" lon="13.511965"><ele>162.75</ele><time>2026-05-03T12:53:43.193Z</time></trkpt><trkpt lat="46.113915" lon="13.5121267"><ele>163.0</ele><time>2026-05-03T12:53:44.193Z</time></trkpt><trkpt lat="46.1139617" lon="13.5123017"><ele>162.8</ele><time>2026-05-03T12:53:45.193Z</time></trkpt><trkpt lat="46.114005" lon="13.5124633"><ele>162.60000000000002</ele><time>2026-05-03T12:53:46.193Z</time></trkpt><trkpt lat="46.1140317" lon="13.5126083"><ele>162.39999999999998</ele><time>2026-05-03T12:53:47.193Z</time></trkpt><trkpt lat="46.1140567" lon="13.512765"><ele>162.2</ele><time>2026-05-03T12:53:48.193Z</time></trkpt><trkpt lat="46.1140733" lon="13.51292"><ele>162.0</ele><time>2026-05-03T12:53:49.193Z</time></trkpt><trkpt lat="46.1140883" lon="13.5130917"><ele>162.0</ele><time>2026-05-03T12:53:50.193Z</time></trkpt><trkpt lat="46.1141067" lon="13.51326"><ele>162.0</ele><time>2026-05-03T12:53:51.193Z</time></trkpt><trkpt lat="46.1141417" lon="13.5134083"><ele>162.0</ele><time>2026-05-03T12:53:52.193Z</time></trkpt><trkpt lat="46.1141867" lon="13.51354"><ele>162.0</ele><time>2026-05-03T12:53:53.193Z</time></trkpt><trkpt lat="46.114235" lon="13.513655"><ele>162.0</ele><time>2026-05-03T12:53:54.193Z</time></trkpt><trkpt lat="46.1142767" lon="13.51377"><ele>162.6</ele><time>2026-05-03T12:53:55.193Z</time></trkpt><trkpt lat="46.1143167" lon="13.513885"><ele>163.2</ele><time>2026-05-03T12:53:56.193Z</time></trkpt><trkpt lat="46.1143433" lon="13.5140183"><ele>163.8</ele><time>2026-05-03T12:53:57.193Z</time></trkpt><trkpt lat="46.1143633" lon="13.51419"><ele>164.4</ele><time>2026-05-03T12:53:58.193Z</time></trkpt><trkpt lat="46.1143767" lon="13.51439"><ele>165.0</ele><time>2026-05-03T12:53:59.193Z</time></trkpt><trkpt lat="46.1143967" lon="13.5146033"><ele>166.0</ele><time>2026-05-03T12:54:00.193Z</time></trkpt><trkpt lat="46.11441" lon="13.514795"><ele>167.0</ele><time>2026-05-03T12:54:01.193Z</time></trkpt><trkpt lat="46.114415" lon="13.5149783"><ele>168.0</ele><time>2026-05-03T12:54:02.193Z</time></trkpt><trkpt lat="46.11442" lon="13.5151217"><ele>169.0</ele><time>2026-05-03T12:54:03.193Z</time></trkpt><trkpt lat="46.11442" lon="13.5152583"><ele>169.0</ele><time>2026-05-03T12:54:04.193Z</time></trkpt><trkpt lat="46.1144183" lon="13.51539"><ele>169.0</ele><time>2026-05-03T12:54:05.193Z</time></trkpt><trkpt lat="46.11441" lon="13.5155233"><ele>169.0</ele><time>2026-05-03T12:54:06.193Z</time></trkpt><trkpt lat="46.1144067" lon="13.51564"><ele>169.0</ele><time>2026-05-03T12:54:07.193Z</time></trkpt><trkpt lat="46.11441" lon="13.5157483"><ele>169.0</ele><time>2026-05-03T12:54:08.193Z</time></trkpt><trkpt lat="46.1144267" lon="13.51587"><ele>169.0</ele><time>2026-05-03T12:54:09.193Z</time></trkpt><trkpt lat="46.11446" lon="13.5159867"><ele>169.75</ele><time>2026-05-03T12:54:10.193Z</time></trkpt><trkpt lat="46.1144983" lon="13.5161283"><ele>170.5</ele><time>2026-05-03T12:54:11.193Z</time></trkpt><trkpt lat="46.114545" lon="13.51629"><ele>171.25</ele><time>2026-05-03T12:54:12.194Z</time></trkpt><trkpt lat="46.1146017" lon="13.51645"><ele>172.0</ele><time>2026-05-03T12:54:13.193Z</time></trkpt><trkpt lat="46.1146617" lon="13.5165967"><ele>172.0</ele><time>2026-05-03T12:54:14.193Z</time></trkpt><trkpt lat="46.114725" lon="13.51673"><ele>172.0</ele><time>2026-05-03T12:54:15.193Z</time></trkpt><trkpt lat="46.1148033" lon="13.5168933"><ele>172.0</ele><time>2026-05-03T12:54:16.193Z</time></trkpt><trkpt lat="46.1148867" lon="13.517025"><ele>172.0</ele><time>2026-05-03T12:54:17.193Z</time></trkpt><trkpt lat="46.1149717" lon="13.5171667"><ele>167.0</ele><time>2026-05-03T12:54:18.193Z</time></trkpt><trkpt lat="46.1150633" lon="13.5172983"><ele>162.0</ele><time>2026-05-03T12:54:19.193Z</time></trkpt><trkpt lat="46.115155" lon="13.517445"><ele>157.0</ele><time>2026-05-03T12:54:20.193Z</time></trkpt><trkpt lat="46.1152433" lon="13.517575"><ele>152.0</ele><time>2026-05-03T12:54:21.193Z</time></trkpt><trkpt lat="46.1153217" lon="13.5177133"><ele>152.0</ele><time>2026-05-03T12:54:22.193Z</time></trkpt><trkpt lat="46.1153967" lon="13.5178367"><ele>152.0</ele><time>2026-05-03T12:54:23.193Z</time></trkpt><trkpt lat="46.115465" lon="13.5179417"><ele>152.0</ele><time>2026-05-03T12:54:24.193Z</time></trkpt><trkpt lat="46.115545" lon="13.5180467"><ele>152.0</ele><time>2026-05-03T12:54:25.193Z</time></trkpt><trkpt lat="46.1156417" lon="13.5181417"><ele>152.0</ele><time>2026-05-03T12:54:26.193Z</time></trkpt><trkpt lat="46.11574" lon="13.5182317"><ele>151.75</ele><time>2026-05-03T12:54:27.193Z</time></trkpt><trkpt lat="46.1158483" lon="13.51833"><ele>151.5</ele><time>2026-05-03T12:54:28.193Z</time></trkpt><trkpt lat="46.1159617" lon="13.51842"><ele>151.25</ele><time>2026-05-03T12:54:29.193Z</time></trkpt><trkpt lat="46.1160867" lon="13.51851"><ele>151.0</ele><time>2026-05-03T12:54:30.193Z</time></trkpt><trkpt lat="46.1161917" lon="13.5185983"><ele>151.0</ele><time>2026-05-03T12:54:31.193Z</time></trkpt><trkpt lat="46.11628" lon="13.5187"><ele>151.0</ele><time>2026-05-03T12:54:32.193Z</time></trkpt><trkpt lat="46.1163683" lon="13.5188133"><ele>151.0</ele><time>2026-05-03T12:54:33.193Z</time></trkpt><trkpt lat="46.116465" lon="13.51893"><ele>151.0</ele><time>2026-05-03T12:54:34.193Z</time></trkpt><trkpt lat="46.1165817" lon="13.51904"><ele>151.75</ele><time>2026-05-03T12:54:35.193Z</time></trkpt><trkpt lat="46.116695" lon="13.5191383"><ele>152.5</ele><time>2026-05-03T12:54:36.194Z</time></trkpt><trkpt lat="46.1168117" lon="13.51923"><ele>153.25</ele><time>2026-05-03T12:54:37.193Z</time></trkpt><trkpt lat="46.11693" lon="13.519325"><ele>154.0</ele><time>2026-05-03T12:54:38.193Z</time></trkpt><trkpt lat="46.1170317" lon="13.51942"><ele>154.0</ele><time>2026-05-03T12:54:39.193Z</time></trkpt><trkpt lat="46.1171217" lon="13.51951"><ele>154.0</ele><time>2026-05-03T12:54:40.193Z</time></trkpt><trkpt lat="46.1171967" lon="13.5196"><ele>154.0</ele><time>2026-05-03T12:54:41.193Z</time></trkpt><trkpt lat="46.1172733" lon="13.51969"><ele>154.0</ele><time>2026-05-03T12:54:42.193Z</time></trkpt><trkpt lat="46.117345" lon="13.5197883"><ele>154.0</ele><time>2026-05-03T12:54:43.193Z</time></trkpt><trkpt lat="46.117395" lon="13.5199033"><ele>153.8</ele><time>2026-05-03T12:54:44.193Z</time></trkpt><trkpt lat="46.1174417" lon="13.5200367"><ele>153.60000000000002</ele><time>2026-05-03T12:54:45.193Z</time></trkpt><trkpt lat="46.117475" lon="13.520175"><ele>153.4</ele><time>2026-05-03T12:54:46.193Z</time></trkpt><trkpt lat="46.1175033" lon="13.52032"><ele>153.20000000000002</ele><time>2026-05-03T12:54:47.193Z</time></trkpt><trkpt lat="46.1175617" lon="13.5204583"><ele>153.0</ele><time>2026-05-03T12:54:48.193Z</time></trkpt><trkpt lat="46.1176367" lon="13.5205867"><ele>153.0</ele><time>2026-05-03T12:54:49.193Z</time></trkpt><trkpt lat="46.1177167" lon="13.5207033"><ele>153.0</ele><time>2026-05-03T12:54:50.193Z</time></trkpt><trkpt lat="46.1178" lon="13.5207983"><ele>153.0</ele><time>2026-05-03T12:54:51.193Z</time></trkpt><trkpt lat="46.1178867" lon="13.5208867"><ele>153.0</ele><time>2026-05-03T12:54:52.193Z</time></trkpt><trkpt lat="46.1179733" lon="13.5209633"><ele>153.0</ele><time>2026-05-03T12:54:53.193Z</time></trkpt><trkpt lat="46.118045" lon="13.5210217"><ele>153.0</ele><time>2026-05-03T12:54:54.193Z</time></trkpt><trkpt lat="46.1181" lon="13.5210667"><ele>153.0</ele><time>2026-05-03T12:54:55.193Z</time></trkpt><trkpt lat="46.1181567" lon="13.521205"><ele>153.0</ele><time>2026-05-03T12:54:57.193Z</time></trkpt><trkpt lat="46.11815" lon="13.52139"><ele>153.0</ele><time>2026-05-03T12:54:59.193Z</time></trkpt><trkpt lat="46.11812" lon="13.521485"><ele>153.0</ele><time>2026-05-03T12:55:00.193Z</time></trkpt><trkpt lat="46.1180967" lon="13.5215833"><ele>153.0</ele><time>2026-05-03T12:55:01.193Z</time></trkpt><trkpt lat="46.1180733" lon="13.5216683"><ele>153.0</ele><time>2026-05-03T12:55:02.193Z</time></trkpt><trkpt lat="46.1180883" lon="13.521795"><ele>153.0</ele><time>2026-05-03T12:55:04.193Z</time></trkpt><trkpt lat="46.118185" lon="13.52186"><ele>153.0</ele><time>2026-05-03T12:55:06.193Z</time></trkpt><trkpt lat="46.1182767" lon="13.5218833"><ele>153.0</ele><time>2026-05-03T12:55:07.193Z</time></trkpt><trkpt lat="46.1183867" lon="13.5219083"><ele>153.0</ele><time>2026-05-03T12:55:08.193Z</time></trkpt><trkpt lat="46.1185017" lon="13.5219583"><ele>153.0</ele><time>2026-05-03T12:55:09.193Z</time></trkpt><trkpt lat="46.1186217" lon="13.52202"><ele>153.0</ele><time>2026-05-03T12:55:10.193Z</time></trkpt><trkpt lat="46.1187633" lon="13.5220833"><ele>153.0</ele><time>2026-05-03T12:55:11.193Z</time></trkpt><trkpt lat="46.1189217" lon="13.5221617"><ele>153.0</ele><time>2026-05-03T12:55:12.193Z</time></trkpt><trkpt lat="46.11908" lon="13.5222283"><ele>153.5</ele><time>2026-05-03T12:55:13.193Z</time></trkpt><trkpt lat="46.1192383" lon="13.52227"><ele>154.0</ele><time>2026-05-03T12:55:14.193Z</time></trkpt><trkpt lat="46.1193733" lon="13.5222733"><ele>154.5</ele><time>2026-05-03T12:55:15.193Z</time></trkpt><trkpt lat="46.119495" lon="13.5222817"><ele>155.0</ele><time>2026-05-03T12:55:16.193Z</time></trkpt><trkpt lat="46.1195917" lon="13.5223283"><ele>155.0</ele><time>2026-05-03T12:55:17.193Z</time></trkpt><trkpt lat="46.1196783" lon="13.5224383"><ele>155.0</ele><time>2026-05-03T12:55:18.193Z</time></trkpt><trkpt lat="46.1197683" lon="13.52258"><ele>155.0</ele><time>2026-05-03T12:55:19.194Z</time></trkpt><trkpt lat="46.1198667" lon="13.5227317"><ele>155.0</ele><time>2026-05-03T12:55:20.193Z</time></trkpt><trkpt lat="46.11995" lon="13.5228933"><ele>155.0</ele><time>2026-05-03T12:55:21.193Z</time></trkpt><trkpt lat="46.1200233" lon="13.5230417"><ele>155.0</ele><time>2026-05-03T12:55:22.193Z</time></trkpt><trkpt lat="46.1200883" lon="13.52318"><ele>155.0</ele><time>2026-05-03T12:55:23.193Z</time></trkpt><trkpt lat="46.1201417" lon="13.5232933"><ele>155.0</ele><time>2026-05-03T12:55:24.193Z</time></trkpt><trkpt lat="46.120185" lon="13.523395"><ele>155.0</ele><time>2026-05-03T12:55:25.193Z</time></trkpt><trkpt lat="46.1202217" lon="13.5234733"><ele>155.0</ele><time>2026-05-03T12:55:26.193Z</time></trkpt><trkpt lat="46.1202733" lon="13.5235983"><ele>155.0</ele><time>2026-05-03T12:55:28.193Z</time></trkpt><trkpt lat="46.1202667" lon="13.5237033"><ele>155.0</ele><time>2026-05-03T12:55:30.193Z</time></trkpt><trkpt lat="46.12023" lon="13.5238217"><ele>155.0</ele><time>2026-05-03T12:55:32.193Z</time></trkpt><trkpt lat="46.1202017" lon="13.5239667"><ele>155.0</ele><time>2026-05-03T12:55:34.193Z</time></trkpt><trkpt lat="46.1201817" lon="13.52411"><ele>155.0</ele><time>2026-05-03T12:55:36.193Z</time></trkpt><trkpt lat="46.1201767" lon="13.52422"><ele>155.0</ele><time>2026-05-03T12:55:38.193Z</time></trkpt><trkpt lat="46.1202017" lon="13.5243083"><ele>155.0</ele><time>2026-05-03T12:55:47.193Z</time></trkpt><trkpt lat="46.120125" lon="13.5243317"><ele>155.0</ele><time>2026-05-03T12:56:36.193Z</time></trkpt><trkpt lat="46.12005" lon="13.5244033"><ele>155.0</ele><time>2026-05-03T12:56:40.193Z</time></trkpt></trkseg></trk></gpx>